<?xml version="1.0" encoding="UTF-8" standalone="no" ?>
<gpx xmlns="http://www.topografix.com/GPX/1/1" xmlns:xsi="http://www.w3.org/2001/XMLSchema-instance" xsi:schemaLocation="http://www.topografix.com/GPX/1/1 http://www.topografix.com/GPX/1/1/gpx.xsd" version="1.1" creator="VisuGPX - https://www.visugpx.com">
  <metadata>
    <name>Vercors 21052020</name>
  </metadata>
  <trk>
    <name><![CDATA[Vercors Ascension]]></name>
    <trkseg>
      <trkpt lat="45.17765" lon="5.76181">
        <ele>303</ele>
        <time>2020-05-21T07:53:52Z</time>
      </trkpt>
      <trkpt lat="45.17716" lon="5.76167">
        <ele>282</ele>
        <time>2020-05-21T07:53:55Z</time>
      </trkpt>
      <trkpt lat="45.17704" lon="5.76152">
        <ele>251</ele>
        <time>2020-05-21T07:53:58Z</time>
      </trkpt>
      <trkpt lat="45.17715" lon="5.76145">
        <ele>257</ele>
        <time>2020-05-21T07:56:08Z</time>
      </trkpt>
      <trkpt lat="45.17711" lon="5.76124">
        <ele>257</ele>
        <time>2020-05-21T07:56:12Z</time>
      </trkpt>
      <trkpt lat="45.17696" lon="5.76113">
        <ele>257</ele>
        <time>2020-05-21T07:56:15Z</time>
      </trkpt>
      <trkpt lat="45.17684" lon="5.76104">
        <ele>257</ele>
        <time>2020-05-21T07:56:18Z</time>
      </trkpt>
      <trkpt lat="45.17667" lon="5.76094">
        <ele>257</ele>
        <time>2020-05-21T07:56:21Z</time>
      </trkpt>
      <trkpt lat="45.17634" lon="5.76078">
        <ele>257</ele>
        <time>2020-05-21T07:56:25Z</time>
      </trkpt>
      <trkpt lat="45.17614" lon="5.76068">
        <ele>258</ele>
        <time>2020-05-21T07:56:28Z</time>
      </trkpt>
      <trkpt lat="45.17585" lon="5.76053">
        <ele>258</ele>
        <time>2020-05-21T07:56:31Z</time>
      </trkpt>
      <trkpt lat="45.17555" lon="5.76037">
        <ele>258</ele>
        <time>2020-05-21T07:56:34Z</time>
      </trkpt>
      <trkpt lat="45.17531" lon="5.76024">
        <ele>258</ele>
        <time>2020-05-21T07:56:37Z</time>
      </trkpt>
      <trkpt lat="45.17506" lon="5.76011">
        <ele>259</ele>
        <time>2020-05-21T07:56:40Z</time>
      </trkpt>
      <trkpt lat="45.17489" lon="5.76022">
        <ele>260</ele>
        <time>2020-05-21T07:56:44Z</time>
      </trkpt>
      <trkpt lat="45.17474" lon="5.76073">
        <ele>260</ele>
        <time>2020-05-21T07:56:47Z</time>
      </trkpt>
      <trkpt lat="45.17464" lon="5.76109">
        <ele>260</ele>
        <time>2020-05-21T07:56:50Z</time>
      </trkpt>
      <trkpt lat="45.17455" lon="5.76137">
        <ele>260</ele>
        <time>2020-05-21T07:56:54Z</time>
      </trkpt>
      <trkpt lat="45.17446" lon="5.76154">
        <ele>260</ele>
        <time>2020-05-21T07:56:57Z</time>
      </trkpt>
      <trkpt lat="45.17433" lon="5.76149">
        <ele>260</ele>
        <time>2020-05-21T07:57:01Z</time>
      </trkpt>
      <trkpt lat="45.17422" lon="5.76128">
        <ele>260</ele>
        <time>2020-05-21T07:57:05Z</time>
      </trkpt>
      <trkpt lat="45.17412" lon="5.76113">
        <ele>261</ele>
        <time>2020-05-21T07:57:08Z</time>
      </trkpt>
      <trkpt lat="45.17396" lon="5.7609">
        <ele>262</ele>
        <time>2020-05-21T07:57:11Z</time>
      </trkpt>
      <trkpt lat="45.17383" lon="5.76066">
        <ele>263</ele>
        <time>2020-05-21T07:57:14Z</time>
      </trkpt>
      <trkpt lat="45.17369" lon="5.76038">
        <ele>264</ele>
        <time>2020-05-21T07:57:17Z</time>
      </trkpt>
      <trkpt lat="45.17357" lon="5.76015">
        <ele>264</ele>
        <time>2020-05-21T07:57:20Z</time>
      </trkpt>
      <trkpt lat="45.17344" lon="5.75989">
        <ele>265</ele>
        <time>2020-05-21T07:57:23Z</time>
      </trkpt>
      <trkpt lat="45.17329" lon="5.7596">
        <ele>265</ele>
        <time>2020-05-21T07:57:26Z</time>
      </trkpt>
      <trkpt lat="45.17314" lon="5.75932">
        <ele>265</ele>
        <time>2020-05-21T07:57:29Z</time>
      </trkpt>
      <trkpt lat="45.17303" lon="5.75909">
        <ele>266</ele>
        <time>2020-05-21T07:57:32Z</time>
      </trkpt>
      <trkpt lat="45.17296" lon="5.75895">
        <ele>266</ele>
        <time>2020-05-21T07:57:35Z</time>
      </trkpt>
      <trkpt lat="45.17287" lon="5.75873">
        <ele>267</ele>
        <time>2020-05-21T07:57:57Z</time>
      </trkpt>
      <trkpt lat="45.17275" lon="5.75844">
        <ele>268</ele>
        <time>2020-05-21T07:58:01Z</time>
      </trkpt>
      <trkpt lat="45.17256" lon="5.75813">
        <ele>268</ele>
        <time>2020-05-21T07:58:04Z</time>
      </trkpt>
      <trkpt lat="45.17231" lon="5.75782">
        <ele>269</ele>
        <time>2020-05-21T07:58:07Z</time>
      </trkpt>
      <trkpt lat="45.17213" lon="5.75761">
        <ele>269</ele>
        <time>2020-05-21T07:58:10Z</time>
      </trkpt>
      <trkpt lat="45.17204" lon="5.75753">
        <ele>269</ele>
        <time>2020-05-21T07:58:13Z</time>
      </trkpt>
      <trkpt lat="45.17192" lon="5.75742">
        <ele>268</ele>
        <time>2020-05-21T07:58:54Z</time>
      </trkpt>
      <trkpt lat="45.17174" lon="5.7573">
        <ele>267</ele>
        <time>2020-05-21T07:58:57Z</time>
      </trkpt>
      <trkpt lat="45.17155" lon="5.75718">
        <ele>267</ele>
        <time>2020-05-21T07:59:00Z</time>
      </trkpt>
      <trkpt lat="45.17131" lon="5.75703">
        <ele>267</ele>
        <time>2020-05-21T07:59:03Z</time>
      </trkpt>
      <trkpt lat="45.17104" lon="5.75685">
        <ele>267</ele>
        <time>2020-05-21T07:59:07Z</time>
      </trkpt>
      <trkpt lat="45.17085" lon="5.75672">
        <ele>267</ele>
        <time>2020-05-21T07:59:10Z</time>
      </trkpt>
      <trkpt lat="45.17069" lon="5.75663">
        <ele>267</ele>
        <time>2020-05-21T07:59:14Z</time>
      </trkpt>
      <trkpt lat="45.17055" lon="5.75655">
        <ele>267</ele>
        <time>2020-05-21T07:59:17Z</time>
      </trkpt>
      <trkpt lat="45.1703" lon="5.75645">
        <ele>267</ele>
        <time>2020-05-21T07:59:20Z</time>
      </trkpt>
      <trkpt lat="45.17003" lon="5.75633">
        <ele>267</ele>
        <time>2020-05-21T07:59:23Z</time>
      </trkpt>
      <trkpt lat="45.16984" lon="5.75626">
        <ele>268</ele>
        <time>2020-05-21T07:59:26Z</time>
      </trkpt>
      <trkpt lat="45.16958" lon="5.75617">
        <ele>268</ele>
        <time>2020-05-21T07:59:29Z</time>
      </trkpt>
      <trkpt lat="45.16934" lon="5.75606">
        <ele>268</ele>
        <time>2020-05-21T07:59:32Z</time>
      </trkpt>
      <trkpt lat="45.1691" lon="5.75591">
        <ele>268</ele>
        <time>2020-05-21T07:59:35Z</time>
      </trkpt>
      <trkpt lat="45.16884" lon="5.75574">
        <ele>268</ele>
        <time>2020-05-21T07:59:39Z</time>
      </trkpt>
      <trkpt lat="45.1687" lon="5.75566">
        <ele>268</ele>
        <time>2020-05-21T07:59:42Z</time>
      </trkpt>
      <trkpt lat="45.16858" lon="5.75555">
        <ele>268</ele>
        <time>2020-05-21T07:59:45Z</time>
      </trkpt>
      <trkpt lat="45.16853" lon="5.7553">
        <ele>268</ele>
        <time>2020-05-21T07:59:48Z</time>
      </trkpt>
      <trkpt lat="45.16837" lon="5.75531">
        <ele>268</ele>
        <time>2020-05-21T07:59:51Z</time>
      </trkpt>
      <trkpt lat="45.16838" lon="5.75559">
        <ele>268</ele>
        <time>2020-05-21T07:59:55Z</time>
      </trkpt>
      <trkpt lat="45.1681" lon="5.7559">
        <ele>269</ele>
        <time>2020-05-21T07:59:58Z</time>
      </trkpt>
      <trkpt lat="45.16788" lon="5.75615">
        <ele>269</ele>
        <time>2020-05-21T08:00:01Z</time>
      </trkpt>
      <trkpt lat="45.16763" lon="5.75642">
        <ele>270</ele>
        <time>2020-05-21T08:00:04Z</time>
      </trkpt>
      <trkpt lat="45.16741" lon="5.75665">
        <ele>271</ele>
        <time>2020-05-21T08:00:07Z</time>
      </trkpt>
      <trkpt lat="45.16715" lon="5.75691">
        <ele>271</ele>
        <time>2020-05-21T08:00:10Z</time>
      </trkpt>
      <trkpt lat="45.16687" lon="5.75721">
        <ele>271</ele>
        <time>2020-05-21T08:00:13Z</time>
      </trkpt>
      <trkpt lat="45.16668" lon="5.7574">
        <ele>271</ele>
        <time>2020-05-21T08:00:16Z</time>
      </trkpt>
      <trkpt lat="45.16654" lon="5.75755">
        <ele>272</ele>
        <time>2020-05-21T08:00:19Z</time>
      </trkpt>
      <trkpt lat="45.16628" lon="5.75746">
        <ele>272</ele>
        <time>2020-05-21T08:00:22Z</time>
      </trkpt>
      <trkpt lat="45.16594" lon="5.75718">
        <ele>271</ele>
        <time>2020-05-21T08:00:25Z</time>
      </trkpt>
      <trkpt lat="45.16551" lon="5.75684">
        <ele>271</ele>
        <time>2020-05-21T08:00:29Z</time>
      </trkpt>
      <trkpt lat="45.16519" lon="5.75655">
        <ele>271</ele>
        <time>2020-05-21T08:00:32Z</time>
      </trkpt>
      <trkpt lat="45.16487" lon="5.75624">
        <ele>271</ele>
        <time>2020-05-21T08:00:36Z</time>
      </trkpt>
      <trkpt lat="45.16456" lon="5.75595">
        <ele>272</ele>
        <time>2020-05-21T08:00:39Z</time>
      </trkpt>
      <trkpt lat="45.16411" lon="5.75553">
        <ele>272</ele>
        <time>2020-05-21T08:00:43Z</time>
      </trkpt>
      <trkpt lat="45.16376" lon="5.75523">
        <ele>272</ele>
        <time>2020-05-21T08:00:46Z</time>
      </trkpt>
      <trkpt lat="45.16341" lon="5.75488">
        <ele>272</ele>
        <time>2020-05-21T08:00:49Z</time>
      </trkpt>
      <trkpt lat="45.16302" lon="5.75445">
        <ele>272</ele>
        <time>2020-05-21T08:00:52Z</time>
      </trkpt>
      <trkpt lat="45.16268" lon="5.75409">
        <ele>272</ele>
        <time>2020-05-21T08:00:55Z</time>
      </trkpt>
      <trkpt lat="45.16238" lon="5.75376">
        <ele>272</ele>
        <time>2020-05-21T08:00:58Z</time>
      </trkpt>
      <trkpt lat="45.16209" lon="5.75345">
        <ele>272</ele>
        <time>2020-05-21T08:01:01Z</time>
      </trkpt>
      <trkpt lat="45.16189" lon="5.75324">
        <ele>272</ele>
        <time>2020-05-21T08:01:04Z</time>
      </trkpt>
      <trkpt lat="45.16158" lon="5.75291">
        <ele>272</ele>
        <time>2020-05-21T08:01:07Z</time>
      </trkpt>
      <trkpt lat="45.16121" lon="5.75251">
        <ele>272</ele>
        <time>2020-05-21T08:01:10Z</time>
      </trkpt>
      <trkpt lat="45.16069" lon="5.75195">
        <ele>272</ele>
        <time>2020-05-21T08:01:13Z</time>
      </trkpt>
      <trkpt lat="45.16021" lon="5.75143">
        <ele>272</ele>
        <time>2020-05-21T08:01:17Z</time>
      </trkpt>
      <trkpt lat="45.15958" lon="5.75075">
        <ele>272</ele>
        <time>2020-05-21T08:01:20Z</time>
      </trkpt>
      <trkpt lat="45.1591" lon="5.75023">
        <ele>272</ele>
        <time>2020-05-21T08:01:23Z</time>
      </trkpt>
      <trkpt lat="45.15844" lon="5.74952">
        <ele>272</ele>
        <time>2020-05-21T08:01:27Z</time>
      </trkpt>
      <trkpt lat="45.15813" lon="5.74919">
        <ele>272</ele>
        <time>2020-05-21T08:01:30Z</time>
      </trkpt>
      <trkpt lat="45.15743" lon="5.74843">
        <ele>273</ele>
        <time>2020-05-21T08:01:34Z</time>
      </trkpt>
      <trkpt lat="45.15696" lon="5.74787">
        <ele>273</ele>
        <time>2020-05-21T08:01:37Z</time>
      </trkpt>
      <trkpt lat="45.1565" lon="5.74732">
        <ele>273</ele>
        <time>2020-05-21T08:01:40Z</time>
      </trkpt>
      <trkpt lat="45.15604" lon="5.74673">
        <ele>273</ele>
        <time>2020-05-21T08:01:43Z</time>
      </trkpt>
      <trkpt lat="45.15556" lon="5.74607">
        <ele>273</ele>
        <time>2020-05-21T08:01:46Z</time>
      </trkpt>
      <trkpt lat="45.1551" lon="5.74545">
        <ele>274</ele>
        <time>2020-05-21T08:01:49Z</time>
      </trkpt>
      <trkpt lat="45.15471" lon="5.74482">
        <ele>274</ele>
        <time>2020-05-21T08:01:52Z</time>
      </trkpt>
      <trkpt lat="45.15443" lon="5.74435">
        <ele>274</ele>
        <time>2020-05-21T08:01:55Z</time>
      </trkpt>
      <trkpt lat="45.15402" lon="5.7436">
        <ele>274</ele>
        <time>2020-05-21T08:01:58Z</time>
      </trkpt>
      <trkpt lat="45.1536" lon="5.74278">
        <ele>274</ele>
        <time>2020-05-21T08:02:01Z</time>
      </trkpt>
      <trkpt lat="45.15306" lon="5.74158">
        <ele>274</ele>
        <time>2020-05-21T08:02:05Z</time>
      </trkpt>
      <trkpt lat="45.15269" lon="5.74067">
        <ele>274</ele>
        <time>2020-05-21T08:02:08Z</time>
      </trkpt>
      <trkpt lat="45.15234" lon="5.73971">
        <ele>274</ele>
        <time>2020-05-21T08:02:11Z</time>
      </trkpt>
      <trkpt lat="45.15192" lon="5.73841">
        <ele>274</ele>
        <time>2020-05-21T08:02:15Z</time>
      </trkpt>
      <trkpt lat="45.15164" lon="5.73739">
        <ele>274</ele>
        <time>2020-05-21T08:02:18Z</time>
      </trkpt>
      <trkpt lat="45.1514" lon="5.73638">
        <ele>274</ele>
        <time>2020-05-21T08:02:21Z</time>
      </trkpt>
      <trkpt lat="45.15122" lon="5.73537">
        <ele>274</ele>
        <time>2020-05-21T08:02:25Z</time>
      </trkpt>
      <trkpt lat="45.15106" lon="5.73438">
        <ele>274</ele>
        <time>2020-05-21T08:02:28Z</time>
      </trkpt>
      <trkpt lat="45.15095" lon="5.73348">
        <ele>275</ele>
        <time>2020-05-21T08:02:31Z</time>
      </trkpt>
      <trkpt lat="45.15081" lon="5.73242">
        <ele>275</ele>
        <time>2020-05-21T08:02:34Z</time>
      </trkpt>
      <trkpt lat="45.15075" lon="5.73142">
        <ele>275</ele>
        <time>2020-05-21T08:02:37Z</time>
      </trkpt>
      <trkpt lat="45.15071" lon="5.73056">
        <ele>275</ele>
        <time>2020-05-21T08:02:40Z</time>
      </trkpt>
      <trkpt lat="45.15071" lon="5.72934">
        <ele>275</ele>
        <time>2020-05-21T08:02:44Z</time>
      </trkpt>
      <trkpt lat="45.15072" lon="5.72844">
        <ele>275</ele>
        <time>2020-05-21T08:02:47Z</time>
      </trkpt>
      <trkpt lat="45.15075" lon="5.72783">
        <ele>275</ele>
        <time>2020-05-21T08:02:50Z</time>
      </trkpt>
      <trkpt lat="45.15082" lon="5.72693">
        <ele>275</ele>
        <time>2020-05-21T08:02:53Z</time>
      </trkpt>
      <trkpt lat="45.1509" lon="5.72605">
        <ele>275</ele>
        <time>2020-05-21T08:02:56Z</time>
      </trkpt>
      <trkpt lat="45.15101" lon="5.72517">
        <ele>275</ele>
        <time>2020-05-21T08:02:59Z</time>
      </trkpt>
      <trkpt lat="45.15115" lon="5.72432">
        <ele>276</ele>
        <time>2020-05-21T08:03:02Z</time>
      </trkpt>
      <trkpt lat="45.15131" lon="5.72344">
        <ele>276</ele>
        <time>2020-05-21T08:03:05Z</time>
      </trkpt>
      <trkpt lat="45.1515" lon="5.72253">
        <ele>276</ele>
        <time>2020-05-21T08:03:08Z</time>
      </trkpt>
      <trkpt lat="45.15176" lon="5.72131">
        <ele>276</ele>
        <time>2020-05-21T08:03:12Z</time>
      </trkpt>
      <trkpt lat="45.15193" lon="5.72042">
        <ele>276</ele>
        <time>2020-05-21T08:03:15Z</time>
      </trkpt>
      <trkpt lat="45.15208" lon="5.71956">
        <ele>276</ele>
        <time>2020-05-21T08:03:18Z</time>
      </trkpt>
      <trkpt lat="45.15223" lon="5.71868">
        <ele>276</ele>
        <time>2020-05-21T08:03:21Z</time>
      </trkpt>
      <trkpt lat="45.15246" lon="5.71786">
        <ele>276</ele>
        <time>2020-05-21T08:03:25Z</time>
      </trkpt>
      <trkpt lat="45.15282" lon="5.71712">
        <ele>276</ele>
        <time>2020-05-21T08:03:28Z</time>
      </trkpt>
      <trkpt lat="45.15325" lon="5.71645">
        <ele>276</ele>
        <time>2020-05-21T08:03:31Z</time>
      </trkpt>
      <trkpt lat="45.15374" lon="5.71586">
        <ele>276</ele>
        <time>2020-05-21T08:03:34Z</time>
      </trkpt>
      <trkpt lat="45.15421" lon="5.71533">
        <ele>277</ele>
        <time>2020-05-21T08:03:37Z</time>
      </trkpt>
      <trkpt lat="45.15468" lon="5.7148">
        <ele>277</ele>
        <time>2020-05-21T08:03:40Z</time>
      </trkpt>
      <trkpt lat="45.15508" lon="5.71437">
        <ele>277</ele>
        <time>2020-05-21T08:03:43Z</time>
      </trkpt>
      <trkpt lat="45.15558" lon="5.7139">
        <ele>277</ele>
        <time>2020-05-21T08:03:46Z</time>
      </trkpt>
      <trkpt lat="45.15604" lon="5.71351">
        <ele>277</ele>
        <time>2020-05-21T08:03:49Z</time>
      </trkpt>
      <trkpt lat="45.15654" lon="5.71312">
        <ele>277</ele>
        <time>2020-05-21T08:03:52Z</time>
      </trkpt>
      <trkpt lat="45.1571" lon="5.71256">
        <ele>276</ele>
        <time>2020-05-21T08:03:55Z</time>
      </trkpt>
      <trkpt lat="45.15755" lon="5.71193">
        <ele>276</ele>
        <time>2020-05-21T08:03:58Z</time>
      </trkpt>
      <trkpt lat="45.15795" lon="5.71124">
        <ele>276</ele>
        <time>2020-05-21T08:04:02Z</time>
      </trkpt>
      <trkpt lat="45.15827" lon="5.71048">
        <ele>275</ele>
        <time>2020-05-21T08:04:05Z</time>
      </trkpt>
      <trkpt lat="45.15851" lon="5.70969">
        <ele>275</ele>
        <time>2020-05-21T08:04:08Z</time>
      </trkpt>
      <trkpt lat="45.15868" lon="5.70887">
        <ele>275</ele>
        <time>2020-05-21T08:04:11Z</time>
      </trkpt>
      <trkpt lat="45.15872" lon="5.70804">
        <ele>275</ele>
        <time>2020-05-21T08:04:14Z</time>
      </trkpt>
      <trkpt lat="45.15874" lon="5.70723">
        <ele>276</ele>
        <time>2020-05-21T08:04:17Z</time>
      </trkpt>
      <trkpt lat="45.15878" lon="5.70633">
        <ele>277</ele>
        <time>2020-05-21T08:04:20Z</time>
      </trkpt>
      <trkpt lat="45.15879" lon="5.70538">
        <ele>277</ele>
        <time>2020-05-21T08:04:23Z</time>
      </trkpt>
      <trkpt lat="45.15874" lon="5.70447">
        <ele>277</ele>
        <time>2020-05-21T08:04:26Z</time>
      </trkpt>
      <trkpt lat="45.15866" lon="5.70367">
        <ele>277</ele>
        <time>2020-05-21T08:04:30Z</time>
      </trkpt>
      <trkpt lat="45.15856" lon="5.70259">
        <ele>278</ele>
        <time>2020-05-21T08:04:34Z</time>
      </trkpt>
      <trkpt lat="45.15862" lon="5.70177">
        <ele>279</ele>
        <time>2020-05-21T08:04:37Z</time>
      </trkpt>
      <trkpt lat="45.15876" lon="5.70094">
        <ele>280</ele>
        <time>2020-05-21T08:04:40Z</time>
      </trkpt>
      <trkpt lat="45.15888" lon="5.70016">
        <ele>281</ele>
        <time>2020-05-21T08:04:43Z</time>
      </trkpt>
      <trkpt lat="45.15906" lon="5.69916">
        <ele>280</ele>
        <time>2020-05-21T08:04:47Z</time>
      </trkpt>
      <trkpt lat="45.15919" lon="5.69841">
        <ele>280</ele>
        <time>2020-05-21T08:04:50Z</time>
      </trkpt>
      <trkpt lat="45.15929" lon="5.69775">
        <ele>280</ele>
        <time>2020-05-21T08:04:53Z</time>
      </trkpt>
      <trkpt lat="45.15936" lon="5.69721">
        <ele>280</ele>
        <time>2020-05-21T08:04:56Z</time>
      </trkpt>
      <trkpt lat="45.15942" lon="5.69676">
        <ele>280</ele>
        <time>2020-05-21T08:04:59Z</time>
      </trkpt>
      <trkpt lat="45.15957" lon="5.69643">
        <ele>280</ele>
        <time>2020-05-21T08:05:02Z</time>
      </trkpt>
      <trkpt lat="45.15978" lon="5.69618">
        <ele>280</ele>
        <time>2020-05-21T08:05:06Z</time>
      </trkpt>
      <trkpt lat="45.15969" lon="5.6958">
        <ele>280</ele>
        <time>2020-05-21T08:05:09Z</time>
      </trkpt>
      <trkpt lat="45.15966" lon="5.69535">
        <ele>280</ele>
        <time>2020-05-21T08:05:12Z</time>
      </trkpt>
      <trkpt lat="45.1598" lon="5.69473">
        <ele>280</ele>
        <time>2020-05-21T08:05:16Z</time>
      </trkpt>
      <trkpt lat="45.16003" lon="5.69411">
        <ele>280</ele>
        <time>2020-05-21T08:05:19Z</time>
      </trkpt>
      <trkpt lat="45.16012" lon="5.69396">
        <ele>280</ele>
        <time>2020-05-21T08:05:22Z</time>
      </trkpt>
      <trkpt lat="45.16029" lon="5.69364">
        <ele>279</ele>
        <time>2020-05-21T08:05:43Z</time>
      </trkpt>
      <trkpt lat="45.16036" lon="5.69355">
        <ele>279</ele>
        <time>2020-05-21T08:05:46Z</time>
      </trkpt>
      <trkpt lat="45.16065" lon="5.69324">
        <ele>279</ele>
        <time>2020-05-21T08:05:49Z</time>
      </trkpt>
      <trkpt lat="45.16096" lon="5.693">
        <ele>279</ele>
        <time>2020-05-21T08:05:52Z</time>
      </trkpt>
      <trkpt lat="45.1615" lon="5.69278">
        <ele>278</ele>
        <time>2020-05-21T08:05:55Z</time>
      </trkpt>
      <trkpt lat="45.16203" lon="5.69268">
        <ele>278</ele>
        <time>2020-05-21T08:05:58Z</time>
      </trkpt>
      <trkpt lat="45.16272" lon="5.69256">
        <ele>277</ele>
        <time>2020-05-21T08:06:01Z</time>
      </trkpt>
      <trkpt lat="45.16327" lon="5.69247">
        <ele>277</ele>
        <time>2020-05-21T08:06:04Z</time>
      </trkpt>
      <trkpt lat="45.16385" lon="5.69236">
        <ele>276</ele>
        <time>2020-05-21T08:06:07Z</time>
      </trkpt>
      <trkpt lat="45.16443" lon="5.69223">
        <ele>275</ele>
        <time>2020-05-21T08:06:11Z</time>
      </trkpt>
      <trkpt lat="45.16487" lon="5.69204">
        <ele>275</ele>
        <time>2020-05-21T08:06:14Z</time>
      </trkpt>
      <trkpt lat="45.16538" lon="5.69181">
        <ele>275</ele>
        <time>2020-05-21T08:06:17Z</time>
      </trkpt>
      <trkpt lat="45.1659" lon="5.6916">
        <ele>275</ele>
        <time>2020-05-21T08:06:20Z</time>
      </trkpt>
      <trkpt lat="45.16638" lon="5.69139">
        <ele>275</ele>
        <time>2020-05-21T08:06:23Z</time>
      </trkpt>
      <trkpt lat="45.16684" lon="5.69124">
        <ele>275</ele>
        <time>2020-05-21T08:06:26Z</time>
      </trkpt>
      <trkpt lat="45.16721" lon="5.69112">
        <ele>275</ele>
        <time>2020-05-21T08:06:29Z</time>
      </trkpt>
      <trkpt lat="45.16748" lon="5.69113">
        <ele>276</ele>
        <time>2020-05-21T08:06:32Z</time>
      </trkpt>
      <trkpt lat="45.16767" lon="5.69131">
        <ele>276</ele>
        <time>2020-05-21T08:06:35Z</time>
      </trkpt>
      <trkpt lat="45.16791" lon="5.69101">
        <ele>276</ele>
        <time>2020-05-21T08:06:38Z</time>
      </trkpt>
      <trkpt lat="45.1681" lon="5.69062">
        <ele>277</ele>
        <time>2020-05-21T08:06:41Z</time>
      </trkpt>
      <trkpt lat="45.16848" lon="5.69019">
        <ele>277</ele>
        <time>2020-05-21T08:06:44Z</time>
      </trkpt>
      <trkpt lat="45.16869" lon="5.68997">
        <ele>277</ele>
        <time>2020-05-21T08:06:47Z</time>
      </trkpt>
      <trkpt lat="45.16904" lon="5.68955">
        <ele>277</ele>
        <time>2020-05-21T08:06:50Z</time>
      </trkpt>
      <trkpt lat="45.16938" lon="5.68908">
        <ele>278</ele>
        <time>2020-05-21T08:06:53Z</time>
      </trkpt>
      <trkpt lat="45.1699" lon="5.6884">
        <ele>278</ele>
        <time>2020-05-21T08:06:56Z</time>
      </trkpt>
      <trkpt lat="45.17037" lon="5.68792">
        <ele>277</ele>
        <time>2020-05-21T08:06:59Z</time>
      </trkpt>
      <trkpt lat="45.17096" lon="5.68762">
        <ele>277</ele>
        <time>2020-05-21T08:07:02Z</time>
      </trkpt>
      <trkpt lat="45.17146" lon="5.6875">
        <ele>276</ele>
        <time>2020-05-21T08:07:05Z</time>
      </trkpt>
      <trkpt lat="45.172" lon="5.68747">
        <ele>276</ele>
        <time>2020-05-21T08:07:08Z</time>
      </trkpt>
      <trkpt lat="45.17244" lon="5.68746">
        <ele>275</ele>
        <time>2020-05-21T08:07:12Z</time>
      </trkpt>
      <trkpt lat="45.17279" lon="5.68745">
        <ele>275</ele>
        <time>2020-05-21T08:07:15Z</time>
      </trkpt>
      <trkpt lat="45.17294" lon="5.68745">
        <ele>275</ele>
        <time>2020-05-21T08:07:18Z</time>
      </trkpt>
      <trkpt lat="45.17312" lon="5.68744">
        <ele>275</ele>
        <time>2020-05-21T08:07:36Z</time>
      </trkpt>
      <trkpt lat="45.17351" lon="5.68743">
        <ele>276</ele>
        <time>2020-05-21T08:07:40Z</time>
      </trkpt>
      <trkpt lat="45.17407" lon="5.68741">
        <ele>276</ele>
        <time>2020-05-21T08:07:43Z</time>
      </trkpt>
      <trkpt lat="45.17456" lon="5.68739">
        <ele>275</ele>
        <time>2020-05-21T08:07:46Z</time>
      </trkpt>
      <trkpt lat="45.1749" lon="5.68738">
        <ele>275</ele>
        <time>2020-05-21T08:07:49Z</time>
      </trkpt>
      <trkpt lat="45.17534" lon="5.68736">
        <ele>275</ele>
        <time>2020-05-21T08:07:52Z</time>
      </trkpt>
      <trkpt lat="45.17571" lon="5.68736">
        <ele>275</ele>
        <time>2020-05-21T08:07:55Z</time>
      </trkpt>
      <trkpt lat="45.17599" lon="5.68735">
        <ele>275</ele>
        <time>2020-05-21T08:07:58Z</time>
      </trkpt>
      <trkpt lat="45.17622" lon="5.68733">
        <ele>275</ele>
        <time>2020-05-21T08:08:01Z</time>
      </trkpt>
      <trkpt lat="45.17624" lon="5.68711">
        <ele>274</ele>
        <time>2020-05-21T08:08:04Z</time>
      </trkpt>
      <trkpt lat="45.17598" lon="5.68677">
        <ele>274</ele>
        <time>2020-05-21T08:08:07Z</time>
      </trkpt>
      <trkpt lat="45.17571" lon="5.6864">
        <ele>274</ele>
        <time>2020-05-21T08:08:10Z</time>
      </trkpt>
      <trkpt lat="45.17541" lon="5.68607">
        <ele>274</ele>
        <time>2020-05-21T08:08:13Z</time>
      </trkpt>
      <trkpt lat="45.17507" lon="5.68572">
        <ele>275</ele>
        <time>2020-05-21T08:08:16Z</time>
      </trkpt>
      <trkpt lat="45.17473" lon="5.68538">
        <ele>276</ele>
        <time>2020-05-21T08:08:20Z</time>
      </trkpt>
      <trkpt lat="45.17437" lon="5.68503">
        <ele>277</ele>
        <time>2020-05-21T08:08:23Z</time>
      </trkpt>
      <trkpt lat="45.17402" lon="5.68484">
        <ele>279</ele>
        <time>2020-05-21T08:08:26Z</time>
      </trkpt>
      <trkpt lat="45.17357" lon="5.68483">
        <ele>280</ele>
        <time>2020-05-21T08:08:29Z</time>
      </trkpt>
      <trkpt lat="45.17315" lon="5.68481">
        <ele>281</ele>
        <time>2020-05-21T08:08:32Z</time>
      </trkpt>
      <trkpt lat="45.17276" lon="5.68458">
        <ele>282</ele>
        <time>2020-05-21T08:08:36Z</time>
      </trkpt>
      <trkpt lat="45.17236" lon="5.68423">
        <ele>283</ele>
        <time>2020-05-21T08:08:39Z</time>
      </trkpt>
      <trkpt lat="45.17203" lon="5.68388">
        <ele>284</ele>
        <time>2020-05-21T08:08:42Z</time>
      </trkpt>
      <trkpt lat="45.17183" lon="5.68353">
        <ele>286</ele>
        <time>2020-05-21T08:08:45Z</time>
      </trkpt>
      <trkpt lat="45.17176" lon="5.68286">
        <ele>288</ele>
        <time>2020-05-21T08:08:48Z</time>
      </trkpt>
      <trkpt lat="45.17148" lon="5.6824">
        <ele>290</ele>
        <time>2020-05-21T08:08:51Z</time>
      </trkpt>
      <trkpt lat="45.17135" lon="5.68215">
        <ele>291</ele>
        <time>2020-05-21T08:08:54Z</time>
      </trkpt>
      <trkpt lat="45.17129" lon="5.6818">
        <ele>293</ele>
        <time>2020-05-21T08:08:57Z</time>
      </trkpt>
      <trkpt lat="45.17139" lon="5.68141">
        <ele>295</ele>
        <time>2020-05-21T08:09:00Z</time>
      </trkpt>
      <trkpt lat="45.17142" lon="5.68112">
        <ele>297</ele>
        <time>2020-05-21T08:09:04Z</time>
      </trkpt>
      <trkpt lat="45.17126" lon="5.68093">
        <ele>300</ele>
        <time>2020-05-21T08:09:07Z</time>
      </trkpt>
      <trkpt lat="45.17098" lon="5.68085">
        <ele>300</ele>
        <time>2020-05-21T08:09:10Z</time>
      </trkpt>
      <trkpt lat="45.17072" lon="5.68078">
        <ele>302</ele>
        <time>2020-05-21T08:09:13Z</time>
      </trkpt>
      <trkpt lat="45.17041" lon="5.68067">
        <ele>305</ele>
        <time>2020-05-21T08:09:16Z</time>
      </trkpt>
      <trkpt lat="45.1702" lon="5.68056">
        <ele>307</ele>
        <time>2020-05-21T08:09:19Z</time>
      </trkpt>
      <trkpt lat="45.16995" lon="5.68045">
        <ele>309</ele>
        <time>2020-05-21T08:09:22Z</time>
      </trkpt>
      <trkpt lat="45.16977" lon="5.68043">
        <ele>311</ele>
        <time>2020-05-21T08:09:25Z</time>
      </trkpt>
      <trkpt lat="45.16948" lon="5.68041">
        <ele>314</ele>
        <time>2020-05-21T08:09:29Z</time>
      </trkpt>
      <trkpt lat="45.16926" lon="5.68049">
        <ele>316</ele>
        <time>2020-05-21T08:09:33Z</time>
      </trkpt>
      <trkpt lat="45.16907" lon="5.68041">
        <ele>318</ele>
        <time>2020-05-21T08:09:36Z</time>
      </trkpt>
      <trkpt lat="45.16896" lon="5.67997">
        <ele>319</ele>
        <time>2020-05-21T08:09:39Z</time>
      </trkpt>
      <trkpt lat="45.16884" lon="5.67953">
        <ele>320</ele>
        <time>2020-05-21T08:09:42Z</time>
      </trkpt>
      <trkpt lat="45.16862" lon="5.67908">
        <ele>322</ele>
        <time>2020-05-21T08:09:45Z</time>
      </trkpt>
      <trkpt lat="45.16827" lon="5.67867">
        <ele>324</ele>
        <time>2020-05-21T08:09:48Z</time>
      </trkpt>
      <trkpt lat="45.16798" lon="5.67823">
        <ele>325</ele>
        <time>2020-05-21T08:09:51Z</time>
      </trkpt>
      <trkpt lat="45.16761" lon="5.67803">
        <ele>329</ele>
        <time>2020-05-21T08:09:54Z</time>
      </trkpt>
      <trkpt lat="45.16723" lon="5.67795">
        <ele>332</ele>
        <time>2020-05-21T08:09:57Z</time>
      </trkpt>
      <trkpt lat="45.16705" lon="5.67777">
        <ele>334</ele>
        <time>2020-05-21T08:10:00Z</time>
      </trkpt>
      <trkpt lat="45.16708" lon="5.67748">
        <ele>335</ele>
        <time>2020-05-21T08:10:03Z</time>
      </trkpt>
      <trkpt lat="45.16746" lon="5.67742">
        <ele>336</ele>
        <time>2020-05-21T08:10:06Z</time>
      </trkpt>
      <trkpt lat="45.16785" lon="5.67768">
        <ele>337</ele>
        <time>2020-05-21T08:10:10Z</time>
      </trkpt>
      <trkpt lat="45.16833" lon="5.67797">
        <ele>339</ele>
        <time>2020-05-21T08:10:13Z</time>
      </trkpt>
      <trkpt lat="45.16862" lon="5.67792">
        <ele>340</ele>
        <time>2020-05-21T08:10:16Z</time>
      </trkpt>
      <trkpt lat="45.16897" lon="5.67772">
        <ele>343</ele>
        <time>2020-05-21T08:10:19Z</time>
      </trkpt>
      <trkpt lat="45.16924" lon="5.67774">
        <ele>346</ele>
        <time>2020-05-21T08:10:22Z</time>
      </trkpt>
      <trkpt lat="45.16972" lon="5.67785">
        <ele>349</ele>
        <time>2020-05-21T08:10:25Z</time>
      </trkpt>
      <trkpt lat="45.1702" lon="5.67791">
        <ele>351</ele>
        <time>2020-05-21T08:10:28Z</time>
      </trkpt>
      <trkpt lat="45.1708" lon="5.67802">
        <ele>353</ele>
        <time>2020-05-21T08:10:32Z</time>
      </trkpt>
      <trkpt lat="45.1712" lon="5.67821">
        <ele>356</ele>
        <time>2020-05-21T08:10:35Z</time>
      </trkpt>
      <trkpt lat="45.17162" lon="5.67838">
        <ele>359</ele>
        <time>2020-05-21T08:10:38Z</time>
      </trkpt>
      <trkpt lat="45.17207" lon="5.67851">
        <ele>362</ele>
        <time>2020-05-21T08:10:42Z</time>
      </trkpt>
      <trkpt lat="45.17267" lon="5.67872">
        <ele>365</ele>
        <time>2020-05-21T08:10:45Z</time>
      </trkpt>
      <trkpt lat="45.17304" lon="5.67889">
        <ele>368</ele>
        <time>2020-05-21T08:10:48Z</time>
      </trkpt>
      <trkpt lat="45.17332" lon="5.67902">
        <ele>371</ele>
        <time>2020-05-21T08:10:51Z</time>
      </trkpt>
      <trkpt lat="45.17368" lon="5.67926">
        <ele>373</ele>
        <time>2020-05-21T08:10:54Z</time>
      </trkpt>
      <trkpt lat="45.17407" lon="5.67951">
        <ele>374</ele>
        <time>2020-05-21T08:10:58Z</time>
      </trkpt>
      <trkpt lat="45.17446" lon="5.67987">
        <ele>376</ele>
        <time>2020-05-21T08:11:02Z</time>
      </trkpt>
      <trkpt lat="45.17469" lon="5.6803">
        <ele>379</ele>
        <time>2020-05-21T08:11:05Z</time>
      </trkpt>
      <trkpt lat="45.17493" lon="5.68092">
        <ele>383</ele>
        <time>2020-05-21T08:11:09Z</time>
      </trkpt>
      <trkpt lat="45.17519" lon="5.68127">
        <ele>385</ele>
        <time>2020-05-21T08:11:12Z</time>
      </trkpt>
      <trkpt lat="45.17552" lon="5.68148">
        <ele>387</ele>
        <time>2020-05-21T08:11:15Z</time>
      </trkpt>
      <trkpt lat="45.176" lon="5.68151">
        <ele>390</ele>
        <time>2020-05-21T08:11:19Z</time>
      </trkpt>
      <trkpt lat="45.17637" lon="5.68147">
        <ele>393</ele>
        <time>2020-05-21T08:11:22Z</time>
      </trkpt>
      <trkpt lat="45.17661" lon="5.68145">
        <ele>395</ele>
        <time>2020-05-21T08:11:26Z</time>
      </trkpt>
      <trkpt lat="45.17699" lon="5.6814">
        <ele>398</ele>
        <time>2020-05-21T08:11:29Z</time>
      </trkpt>
      <trkpt lat="45.17737" lon="5.6814">
        <ele>401</ele>
        <time>2020-05-21T08:11:32Z</time>
      </trkpt>
      <trkpt lat="45.1777" lon="5.68147">
        <ele>403</ele>
        <time>2020-05-21T08:11:35Z</time>
      </trkpt>
      <trkpt lat="45.17788" lon="5.68138">
        <ele>405</ele>
        <time>2020-05-21T08:11:38Z</time>
      </trkpt>
      <trkpt lat="45.1779" lon="5.68116">
        <ele>407</ele>
        <time>2020-05-21T08:11:41Z</time>
      </trkpt>
      <trkpt lat="45.17769" lon="5.68101">
        <ele>408</ele>
        <time>2020-05-21T08:11:44Z</time>
      </trkpt>
      <trkpt lat="45.17744" lon="5.68095">
        <ele>410</ele>
        <time>2020-05-21T08:11:47Z</time>
      </trkpt>
      <trkpt lat="45.17714" lon="5.6808">
        <ele>411</ele>
        <time>2020-05-21T08:11:50Z</time>
      </trkpt>
      <trkpt lat="45.17693" lon="5.68068">
        <ele>414</ele>
        <time>2020-05-21T08:11:53Z</time>
      </trkpt>
      <trkpt lat="45.17665" lon="5.68048">
        <ele>416</ele>
        <time>2020-05-21T08:11:56Z</time>
      </trkpt>
      <trkpt lat="45.17628" lon="5.68009">
        <ele>420</ele>
        <time>2020-05-21T08:12:00Z</time>
      </trkpt>
      <trkpt lat="45.17602" lon="5.67978">
        <ele>423</ele>
        <time>2020-05-21T08:12:03Z</time>
      </trkpt>
      <trkpt lat="45.17581" lon="5.67946">
        <ele>427</ele>
        <time>2020-05-21T08:12:06Z</time>
      </trkpt>
      <trkpt lat="45.17577" lon="5.67916">
        <ele>430</ele>
        <time>2020-05-21T08:12:09Z</time>
      </trkpt>
      <trkpt lat="45.17593" lon="5.67881">
        <ele>433</ele>
        <time>2020-05-21T08:12:13Z</time>
      </trkpt>
      <trkpt lat="45.17601" lon="5.67863">
        <ele>435</ele>
        <time>2020-05-21T08:12:16Z</time>
      </trkpt>
      <trkpt lat="45.17611" lon="5.67834">
        <ele>437</ele>
        <time>2020-05-21T08:12:19Z</time>
      </trkpt>
      <trkpt lat="45.17605" lon="5.67811">
        <ele>439</ele>
        <time>2020-05-21T08:12:22Z</time>
      </trkpt>
      <trkpt lat="45.17577" lon="5.67811">
        <ele>441</ele>
        <time>2020-05-21T08:12:25Z</time>
      </trkpt>
      <trkpt lat="45.17535" lon="5.67805">
        <ele>444</ele>
        <time>2020-05-21T08:12:29Z</time>
      </trkpt>
      <trkpt lat="45.17505" lon="5.67788">
        <ele>447</ele>
        <time>2020-05-21T08:12:32Z</time>
      </trkpt>
      <trkpt lat="45.17476" lon="5.67766">
        <ele>449</ele>
        <time>2020-05-21T08:12:35Z</time>
      </trkpt>
      <trkpt lat="45.17448" lon="5.67735">
        <ele>452</ele>
        <time>2020-05-21T08:12:38Z</time>
      </trkpt>
      <trkpt lat="45.17409" lon="5.67692">
        <ele>455</ele>
        <time>2020-05-21T08:12:41Z</time>
      </trkpt>
      <trkpt lat="45.17377" lon="5.67655">
        <ele>458</ele>
        <time>2020-05-21T08:12:44Z</time>
      </trkpt>
      <trkpt lat="45.17352" lon="5.67624">
        <ele>461</ele>
        <time>2020-05-21T08:12:47Z</time>
      </trkpt>
      <trkpt lat="45.17321" lon="5.67588">
        <ele>463</ele>
        <time>2020-05-21T08:12:50Z</time>
      </trkpt>
      <trkpt lat="45.17292" lon="5.67554">
        <ele>466</ele>
        <time>2020-05-21T08:12:53Z</time>
      </trkpt>
      <trkpt lat="45.17256" lon="5.67503">
        <ele>469</ele>
        <time>2020-05-21T08:12:57Z</time>
      </trkpt>
      <trkpt lat="45.17234" lon="5.67458">
        <ele>472</ele>
        <time>2020-05-21T08:13:00Z</time>
      </trkpt>
      <trkpt lat="45.17214" lon="5.67415">
        <ele>475</ele>
        <time>2020-05-21T08:13:04Z</time>
      </trkpt>
      <trkpt lat="45.17183" lon="5.67376">
        <ele>478</ele>
        <time>2020-05-21T08:13:07Z</time>
      </trkpt>
      <trkpt lat="45.1715" lon="5.67354">
        <ele>481</ele>
        <time>2020-05-21T08:13:11Z</time>
      </trkpt>
      <trkpt lat="45.17118" lon="5.67333">
        <ele>483</ele>
        <time>2020-05-21T08:13:14Z</time>
      </trkpt>
      <trkpt lat="45.17088" lon="5.67313">
        <ele>484</ele>
        <time>2020-05-21T08:13:17Z</time>
      </trkpt>
      <trkpt lat="45.17065" lon="5.67298">
        <ele>484</ele>
        <time>2020-05-21T08:13:20Z</time>
      </trkpt>
      <trkpt lat="45.17019" lon="5.67268">
        <ele>487</ele>
        <time>2020-05-21T08:13:23Z</time>
      </trkpt>
      <trkpt lat="45.16991" lon="5.67236">
        <ele>489</ele>
        <time>2020-05-21T08:13:27Z</time>
      </trkpt>
      <trkpt lat="45.16965" lon="5.67196">
        <ele>492</ele>
        <time>2020-05-21T08:13:30Z</time>
      </trkpt>
      <trkpt lat="45.16915" lon="5.67149">
        <ele>496</ele>
        <time>2020-05-21T08:13:33Z</time>
      </trkpt>
      <trkpt lat="45.16873" lon="5.67125">
        <ele>499</ele>
        <time>2020-05-21T08:13:36Z</time>
      </trkpt>
      <trkpt lat="45.16835" lon="5.67113">
        <ele>502</ele>
        <time>2020-05-21T08:13:39Z</time>
      </trkpt>
      <trkpt lat="45.16783" lon="5.67107">
        <ele>506</ele>
        <time>2020-05-21T08:13:42Z</time>
      </trkpt>
      <trkpt lat="45.16744" lon="5.67107">
        <ele>509</ele>
        <time>2020-05-21T08:13:45Z</time>
      </trkpt>
      <trkpt lat="45.16712" lon="5.67099">
        <ele>511</ele>
        <time>2020-05-21T08:13:48Z</time>
      </trkpt>
      <trkpt lat="45.16689" lon="5.67078">
        <ele>513</ele>
        <time>2020-05-21T08:13:52Z</time>
      </trkpt>
      <trkpt lat="45.16673" lon="5.67064">
        <ele>515</ele>
        <time>2020-05-21T08:13:55Z</time>
      </trkpt>
      <trkpt lat="45.16647" lon="5.67058">
        <ele>518</ele>
        <time>2020-05-21T08:13:58Z</time>
      </trkpt>
      <trkpt lat="45.16636" lon="5.67058">
        <ele>520</ele>
        <time>2020-05-21T08:14:01Z</time>
      </trkpt>
      <trkpt lat="45.16619" lon="5.67057">
        <ele>522</ele>
        <time>2020-05-21T08:14:04Z</time>
      </trkpt>
      <trkpt lat="45.16607" lon="5.67063">
        <ele>522</ele>
        <time>2020-05-21T08:14:07Z</time>
      </trkpt>
      <trkpt lat="45.16586" lon="5.67088">
        <ele>527</ele>
        <time>2020-05-21T08:14:57Z</time>
      </trkpt>
      <trkpt lat="45.16574" lon="5.67116">
        <ele>530</ele>
        <time>2020-05-21T08:15:00Z</time>
      </trkpt>
      <trkpt lat="45.16551" lon="5.67157">
        <ele>533</ele>
        <time>2020-05-21T08:15:03Z</time>
      </trkpt>
      <trkpt lat="45.16519" lon="5.67189">
        <ele>535</ele>
        <time>2020-05-21T08:15:07Z</time>
      </trkpt>
      <trkpt lat="45.16479" lon="5.67211">
        <ele>537</ele>
        <time>2020-05-21T08:15:10Z</time>
      </trkpt>
      <trkpt lat="45.16433" lon="5.67214">
        <ele>539</ele>
        <time>2020-05-21T08:15:13Z</time>
      </trkpt>
      <trkpt lat="45.16401" lon="5.67206">
        <ele>541</ele>
        <time>2020-05-21T08:15:16Z</time>
      </trkpt>
      <trkpt lat="45.16384" lon="5.67176">
        <ele>543</ele>
        <time>2020-05-21T08:15:19Z</time>
      </trkpt>
      <trkpt lat="45.164" lon="5.67158">
        <ele>544</ele>
        <time>2020-05-21T08:15:22Z</time>
      </trkpt>
      <trkpt lat="45.1644" lon="5.67166">
        <ele>545</ele>
        <time>2020-05-21T08:15:25Z</time>
      </trkpt>
      <trkpt lat="45.16469" lon="5.67158">
        <ele>547</ele>
        <time>2020-05-21T08:15:28Z</time>
      </trkpt>
      <trkpt lat="45.16493" lon="5.67122">
        <ele>548</ele>
        <time>2020-05-21T08:15:31Z</time>
      </trkpt>
      <trkpt lat="45.16494" lon="5.67095">
        <ele>550</ele>
        <time>2020-05-21T08:15:34Z</time>
      </trkpt>
      <trkpt lat="45.16485" lon="5.67063">
        <ele>552</ele>
        <time>2020-05-21T08:15:37Z</time>
      </trkpt>
      <trkpt lat="45.16469" lon="5.67044">
        <ele>553</ele>
        <time>2020-05-21T08:15:40Z</time>
      </trkpt>
      <trkpt lat="45.16439" lon="5.67036">
        <ele>555</ele>
        <time>2020-05-21T08:15:43Z</time>
      </trkpt>
      <trkpt lat="45.16407" lon="5.67032">
        <ele>557</ele>
        <time>2020-05-21T08:15:46Z</time>
      </trkpt>
      <trkpt lat="45.1637" lon="5.6703">
        <ele>559</ele>
        <time>2020-05-21T08:15:49Z</time>
      </trkpt>
      <trkpt lat="45.16322" lon="5.67044">
        <ele>562</ele>
        <time>2020-05-21T08:15:52Z</time>
      </trkpt>
      <trkpt lat="45.16284" lon="5.67055">
        <ele>564</ele>
        <time>2020-05-21T08:15:55Z</time>
      </trkpt>
      <trkpt lat="45.16251" lon="5.6704">
        <ele>566</ele>
        <time>2020-05-21T08:15:58Z</time>
      </trkpt>
      <trkpt lat="45.16234" lon="5.66998">
        <ele>569</ele>
        <time>2020-05-21T08:16:02Z</time>
      </trkpt>
      <trkpt lat="45.16219" lon="5.66954">
        <ele>572</ele>
        <time>2020-05-21T08:16:05Z</time>
      </trkpt>
      <trkpt lat="45.16186" lon="5.66925">
        <ele>574</ele>
        <time>2020-05-21T08:16:08Z</time>
      </trkpt>
      <trkpt lat="45.16141" lon="5.66892">
        <ele>577</ele>
        <time>2020-05-21T08:16:12Z</time>
      </trkpt>
      <trkpt lat="45.16116" lon="5.66854">
        <ele>580</ele>
        <time>2020-05-21T08:16:15Z</time>
      </trkpt>
      <trkpt lat="45.16088" lon="5.66824">
        <ele>583</ele>
        <time>2020-05-21T08:16:18Z</time>
      </trkpt>
      <trkpt lat="45.16073" lon="5.66805">
        <ele>585</ele>
        <time>2020-05-21T08:16:22Z</time>
      </trkpt>
      <trkpt lat="45.16076" lon="5.66775">
        <ele>587</ele>
        <time>2020-05-21T08:16:25Z</time>
      </trkpt>
      <trkpt lat="45.1611" lon="5.66788">
        <ele>588</ele>
        <time>2020-05-21T08:16:28Z</time>
      </trkpt>
      <trkpt lat="45.16157" lon="5.66819">
        <ele>590</ele>
        <time>2020-05-21T08:16:31Z</time>
      </trkpt>
      <trkpt lat="45.16196" lon="5.66841">
        <ele>591</ele>
        <time>2020-05-21T08:16:34Z</time>
      </trkpt>
      <trkpt lat="45.1622" lon="5.66854">
        <ele>592</ele>
        <time>2020-05-21T08:16:37Z</time>
      </trkpt>
      <trkpt lat="45.1626" lon="5.6686">
        <ele>594</ele>
        <time>2020-05-21T08:16:40Z</time>
      </trkpt>
      <trkpt lat="45.16305" lon="5.66863">
        <ele>597</ele>
        <time>2020-05-21T08:16:44Z</time>
      </trkpt>
      <trkpt lat="45.16356" lon="5.66866">
        <ele>600</ele>
        <time>2020-05-21T08:16:47Z</time>
      </trkpt>
      <trkpt lat="45.16423" lon="5.66872">
        <ele>604</ele>
        <time>2020-05-21T08:16:50Z</time>
      </trkpt>
      <trkpt lat="45.16469" lon="5.66878">
        <ele>607</ele>
        <time>2020-05-21T08:16:53Z</time>
      </trkpt>
      <trkpt lat="45.16527" lon="5.66856">
        <ele>611</ele>
        <time>2020-05-21T08:16:56Z</time>
      </trkpt>
      <trkpt lat="45.16568" lon="5.6684">
        <ele>614</ele>
        <time>2020-05-21T08:16:59Z</time>
      </trkpt>
      <trkpt lat="45.16605" lon="5.66816">
        <ele>618</ele>
        <time>2020-05-21T08:17:03Z</time>
      </trkpt>
      <trkpt lat="45.16637" lon="5.66777">
        <ele>621</ele>
        <time>2020-05-21T08:17:06Z</time>
      </trkpt>
      <trkpt lat="45.16658" lon="5.66765">
        <ele>625</ele>
        <time>2020-05-21T08:17:09Z</time>
      </trkpt>
      <trkpt lat="45.16716" lon="5.66766">
        <ele>629</ele>
        <time>2020-05-21T08:17:12Z</time>
      </trkpt>
      <trkpt lat="45.16757" lon="5.66769">
        <ele>632</ele>
        <time>2020-05-21T08:17:15Z</time>
      </trkpt>
      <trkpt lat="45.16799" lon="5.6676">
        <ele>633</ele>
        <time>2020-05-21T08:17:18Z</time>
      </trkpt>
      <trkpt lat="45.16842" lon="5.66771">
        <ele>635</ele>
        <time>2020-05-21T08:17:21Z</time>
      </trkpt>
      <trkpt lat="45.16882" lon="5.66784">
        <ele>637</ele>
        <time>2020-05-21T08:17:24Z</time>
      </trkpt>
      <trkpt lat="45.16917" lon="5.6676">
        <ele>640</ele>
        <time>2020-05-21T08:17:27Z</time>
      </trkpt>
      <trkpt lat="45.16956" lon="5.66718">
        <ele>643</ele>
        <time>2020-05-21T08:17:31Z</time>
      </trkpt>
      <trkpt lat="45.16995" lon="5.66692">
        <ele>646</ele>
        <time>2020-05-21T08:17:34Z</time>
      </trkpt>
      <trkpt lat="45.17048" lon="5.6668">
        <ele>650</ele>
        <time>2020-05-21T08:17:37Z</time>
      </trkpt>
      <trkpt lat="45.17078" lon="5.66683">
        <ele>654</ele>
        <time>2020-05-21T08:17:40Z</time>
      </trkpt>
      <trkpt lat="45.17102" lon="5.66697">
        <ele>657</ele>
        <time>2020-05-21T08:17:43Z</time>
      </trkpt>
      <trkpt lat="45.17132" lon="5.66711">
        <ele>659</ele>
        <time>2020-05-21T08:17:46Z</time>
      </trkpt>
      <trkpt lat="45.17152" lon="5.66709">
        <ele>660</ele>
        <time>2020-05-21T08:17:49Z</time>
      </trkpt>
      <trkpt lat="45.17159" lon="5.66696">
        <ele>661</ele>
        <time>2020-05-21T08:17:52Z</time>
      </trkpt>
      <trkpt lat="45.1716" lon="5.66675">
        <ele>664</ele>
        <time>2020-05-21T08:17:55Z</time>
      </trkpt>
      <trkpt lat="45.17158" lon="5.6664">
        <ele>665</ele>
        <time>2020-05-21T08:17:58Z</time>
      </trkpt>
      <trkpt lat="45.17157" lon="5.66606">
        <ele>667</ele>
        <time>2020-05-21T08:18:01Z</time>
      </trkpt>
      <trkpt lat="45.1716" lon="5.66564">
        <ele>670</ele>
        <time>2020-05-21T08:18:05Z</time>
      </trkpt>
      <trkpt lat="45.17171" lon="5.66533">
        <ele>673</ele>
        <time>2020-05-21T08:18:08Z</time>
      </trkpt>
      <trkpt lat="45.17191" lon="5.66494">
        <ele>675</ele>
        <time>2020-05-21T08:18:11Z</time>
      </trkpt>
      <trkpt lat="45.17203" lon="5.66477">
        <ele>677</ele>
        <time>2020-05-21T08:18:14Z</time>
      </trkpt>
      <trkpt lat="45.17246" lon="5.66432">
        <ele>682</ele>
        <time>2020-05-21T08:18:17Z</time>
      </trkpt>
      <trkpt lat="45.1728" lon="5.66403">
        <ele>684</ele>
        <time>2020-05-21T08:18:20Z</time>
      </trkpt>
      <trkpt lat="45.17309" lon="5.6636">
        <ele>687</ele>
        <time>2020-05-21T08:18:23Z</time>
      </trkpt>
      <trkpt lat="45.17327" lon="5.66306">
        <ele>690</ele>
        <time>2020-05-21T08:18:26Z</time>
      </trkpt>
      <trkpt lat="45.17342" lon="5.6625">
        <ele>693</ele>
        <time>2020-05-21T08:18:29Z</time>
      </trkpt>
      <trkpt lat="45.1736" lon="5.66202">
        <ele>695</ele>
        <time>2020-05-21T08:18:33Z</time>
      </trkpt>
      <trkpt lat="45.17375" lon="5.66161">
        <ele>701</ele>
        <time>2020-05-21T08:18:36Z</time>
      </trkpt>
      <trkpt lat="45.17376" lon="5.6611">
        <ele>705</ele>
        <time>2020-05-21T08:18:39Z</time>
      </trkpt>
      <trkpt lat="45.17378" lon="5.6606">
        <ele>707</ele>
        <time>2020-05-21T08:18:42Z</time>
      </trkpt>
      <trkpt lat="45.17402" lon="5.65998">
        <ele>710</ele>
        <time>2020-05-21T08:18:45Z</time>
      </trkpt>
      <trkpt lat="45.17418" lon="5.65973">
        <ele>713</ele>
        <time>2020-05-21T08:18:48Z</time>
      </trkpt>
      <trkpt lat="45.17441" lon="5.65931">
        <ele>717</ele>
        <time>2020-05-21T08:18:52Z</time>
      </trkpt>
      <trkpt lat="45.17472" lon="5.65878">
        <ele>722</ele>
        <time>2020-05-21T08:18:55Z</time>
      </trkpt>
      <trkpt lat="45.17497" lon="5.65832">
        <ele>724</ele>
        <time>2020-05-21T08:18:59Z</time>
      </trkpt>
      <trkpt lat="45.17524" lon="5.65768">
        <ele>727</ele>
        <time>2020-05-21T08:19:02Z</time>
      </trkpt>
      <trkpt lat="45.17544" lon="5.65713">
        <ele>729</ele>
        <time>2020-05-21T08:19:05Z</time>
      </trkpt>
      <trkpt lat="45.17572" lon="5.65642">
        <ele>731</ele>
        <time>2020-05-21T08:19:09Z</time>
      </trkpt>
      <trkpt lat="45.1759" lon="5.65594">
        <ele>732</ele>
        <time>2020-05-21T08:19:13Z</time>
      </trkpt>
      <trkpt lat="45.17605" lon="5.65549">
        <ele>735</ele>
        <time>2020-05-21T08:19:16Z</time>
      </trkpt>
      <trkpt lat="45.17608" lon="5.655">
        <ele>736</ele>
        <time>2020-05-21T08:19:19Z</time>
      </trkpt>
      <trkpt lat="45.17598" lon="5.65468">
        <ele>739</ele>
        <time>2020-05-21T08:19:22Z</time>
      </trkpt>
      <trkpt lat="45.17577" lon="5.65427">
        <ele>745</ele>
        <time>2020-05-21T08:19:25Z</time>
      </trkpt>
      <trkpt lat="45.17585" lon="5.65387">
        <ele>748</ele>
        <time>2020-05-21T08:19:28Z</time>
      </trkpt>
      <trkpt lat="45.17635" lon="5.65388">
        <ele>753</ele>
        <time>2020-05-21T08:19:31Z</time>
      </trkpt>
      <trkpt lat="45.17689" lon="5.65389">
        <ele>760</ele>
        <time>2020-05-21T08:19:35Z</time>
      </trkpt>
      <trkpt lat="45.17728" lon="5.65378">
        <ele>765</ele>
        <time>2020-05-21T08:19:39Z</time>
      </trkpt>
      <trkpt lat="45.1779" lon="5.6536">
        <ele>771</ele>
        <time>2020-05-21T08:19:42Z</time>
      </trkpt>
      <trkpt lat="45.17833" lon="5.6535">
        <ele>775</ele>
        <time>2020-05-21T08:19:46Z</time>
      </trkpt>
      <trkpt lat="45.17863" lon="5.65342">
        <ele>780</ele>
        <time>2020-05-21T08:19:49Z</time>
      </trkpt>
      <trkpt lat="45.17904" lon="5.65337">
        <ele>782</ele>
        <time>2020-05-21T08:19:52Z</time>
      </trkpt>
      <trkpt lat="45.17944" lon="5.65335">
        <ele>785</ele>
        <time>2020-05-21T08:19:55Z</time>
      </trkpt>
      <trkpt lat="45.17961" lon="5.65308">
        <ele>788</ele>
        <time>2020-05-21T08:19:58Z</time>
      </trkpt>
      <trkpt lat="45.17945" lon="5.65277">
        <ele>790</ele>
        <time>2020-05-21T08:20:01Z</time>
      </trkpt>
      <trkpt lat="45.17909" lon="5.65276">
        <ele>794</ele>
        <time>2020-05-21T08:20:05Z</time>
      </trkpt>
      <trkpt lat="45.17865" lon="5.65268">
        <ele>796</ele>
        <time>2020-05-21T08:20:08Z</time>
      </trkpt>
      <trkpt lat="45.17822" lon="5.65251">
        <ele>798</ele>
        <time>2020-05-21T08:20:11Z</time>
      </trkpt>
      <trkpt lat="45.17783" lon="5.65222">
        <ele>802</ele>
        <time>2020-05-21T08:20:15Z</time>
      </trkpt>
      <trkpt lat="45.1774" lon="5.65166">
        <ele>805</ele>
        <time>2020-05-21T08:20:18Z</time>
      </trkpt>
      <trkpt lat="45.17682" lon="5.65123">
        <ele>810</ele>
        <time>2020-05-21T08:20:21Z</time>
      </trkpt>
      <trkpt lat="45.17609" lon="5.65083">
        <ele>816</ele>
        <time>2020-05-21T08:20:24Z</time>
      </trkpt>
      <trkpt lat="45.17554" lon="5.65053">
        <ele>822</ele>
        <time>2020-05-21T08:20:27Z</time>
      </trkpt>
      <trkpt lat="45.17506" lon="5.65044">
        <ele>827</ele>
        <time>2020-05-21T08:20:30Z</time>
      </trkpt>
      <trkpt lat="45.17467" lon="5.6504">
        <ele>831</ele>
        <time>2020-05-21T08:20:33Z</time>
      </trkpt>
      <trkpt lat="45.17431" lon="5.65002">
        <ele>836</ele>
        <time>2020-05-21T08:20:36Z</time>
      </trkpt>
      <trkpt lat="45.17388" lon="5.64978">
        <ele>841</ele>
        <time>2020-05-21T08:20:39Z</time>
      </trkpt>
      <trkpt lat="45.17331" lon="5.64981">
        <ele>846</ele>
        <time>2020-05-21T08:20:42Z</time>
      </trkpt>
      <trkpt lat="45.17293" lon="5.64985">
        <ele>850</ele>
        <time>2020-05-21T08:20:45Z</time>
      </trkpt>
      <trkpt lat="45.17255" lon="5.65005">
        <ele>854</ele>
        <time>2020-05-21T08:20:48Z</time>
      </trkpt>
      <trkpt lat="45.17225" lon="5.65052">
        <ele>857</ele>
        <time>2020-05-21T08:20:51Z</time>
      </trkpt>
      <trkpt lat="45.17195" lon="5.65069">
        <ele>860</ele>
        <time>2020-05-21T08:20:54Z</time>
      </trkpt>
      <trkpt lat="45.17161" lon="5.65054">
        <ele>861</ele>
        <time>2020-05-21T08:20:57Z</time>
      </trkpt>
      <trkpt lat="45.17118" lon="5.65011">
        <ele>865</ele>
        <time>2020-05-21T08:21:00Z</time>
      </trkpt>
      <trkpt lat="45.17089" lon="5.64994">
        <ele>871</ele>
        <time>2020-05-21T08:21:03Z</time>
      </trkpt>
      <trkpt lat="45.1705" lon="5.65005">
        <ele>877</ele>
        <time>2020-05-21T08:21:06Z</time>
      </trkpt>
      <trkpt lat="45.17029" lon="5.65057">
        <ele>881</ele>
        <time>2020-05-21T08:21:09Z</time>
      </trkpt>
      <trkpt lat="45.17023" lon="5.65084">
        <ele>881</ele>
        <time>2020-05-21T08:21:13Z</time>
      </trkpt>
      <trkpt lat="45.17008" lon="5.65102">
        <ele>882</ele>
        <time>2020-05-21T08:21:16Z</time>
      </trkpt>
      <trkpt lat="45.16993" lon="5.65069">
        <ele>884</ele>
        <time>2020-05-21T08:21:19Z</time>
      </trkpt>
      <trkpt lat="45.17009" lon="5.65">
        <ele>887</ele>
        <time>2020-05-21T08:21:22Z</time>
      </trkpt>
      <trkpt lat="45.17035" lon="5.64969">
        <ele>889</ele>
        <time>2020-05-21T08:21:25Z</time>
      </trkpt>
      <trkpt lat="45.17073" lon="5.64951">
        <ele>891</ele>
        <time>2020-05-21T08:21:28Z</time>
      </trkpt>
      <trkpt lat="45.17111" lon="5.64951">
        <ele>894</ele>
        <time>2020-05-21T08:21:31Z</time>
      </trkpt>
      <trkpt lat="45.17132" lon="5.64943">
        <ele>898</ele>
        <time>2020-05-21T08:21:34Z</time>
      </trkpt>
      <trkpt lat="45.17141" lon="5.64886">
        <ele>902</ele>
        <time>2020-05-21T08:21:37Z</time>
      </trkpt>
      <trkpt lat="45.17163" lon="5.64855">
        <ele>905</ele>
        <time>2020-05-21T08:21:40Z</time>
      </trkpt>
      <trkpt lat="45.17216" lon="5.64854">
        <ele>909</ele>
        <time>2020-05-21T08:21:44Z</time>
      </trkpt>
      <trkpt lat="45.17247" lon="5.64855">
        <ele>911</ele>
        <time>2020-05-21T08:21:47Z</time>
      </trkpt>
      <trkpt lat="45.17328" lon="5.64835">
        <ele>914</ele>
        <time>2020-05-21T08:21:50Z</time>
      </trkpt>
      <trkpt lat="45.17405" lon="5.64818">
        <ele>917</ele>
        <time>2020-05-21T08:21:53Z</time>
      </trkpt>
      <trkpt lat="45.17473" lon="5.64801">
        <ele>920</ele>
        <time>2020-05-21T08:21:56Z</time>
      </trkpt>
      <trkpt lat="45.1753" lon="5.64783">
        <ele>922</ele>
        <time>2020-05-21T08:21:59Z</time>
      </trkpt>
      <trkpt lat="45.17581" lon="5.64793">
        <ele>926</ele>
        <time>2020-05-21T08:22:02Z</time>
      </trkpt>
      <trkpt lat="45.17639" lon="5.64811">
        <ele>930</ele>
        <time>2020-05-21T08:22:05Z</time>
      </trkpt>
      <trkpt lat="45.17704" lon="5.64812">
        <ele>935</ele>
        <time>2020-05-21T08:22:08Z</time>
      </trkpt>
      <trkpt lat="45.17748" lon="5.64811">
        <ele>938</ele>
        <time>2020-05-21T08:22:11Z</time>
      </trkpt>
      <trkpt lat="45.17806" lon="5.64809">
        <ele>942</ele>
        <time>2020-05-21T08:22:14Z</time>
      </trkpt>
      <trkpt lat="45.17858" lon="5.64809">
        <ele>945</ele>
        <time>2020-05-21T08:22:17Z</time>
      </trkpt>
      <trkpt lat="45.17901" lon="5.64809">
        <ele>947</ele>
        <time>2020-05-21T08:22:20Z</time>
      </trkpt>
      <trkpt lat="45.17946" lon="5.64805">
        <ele>950</ele>
        <time>2020-05-21T08:22:23Z</time>
      </trkpt>
      <trkpt lat="45.17997" lon="5.64806">
        <ele>953</ele>
        <time>2020-05-21T08:22:26Z</time>
      </trkpt>
      <trkpt lat="45.18049" lon="5.64815">
        <ele>958</ele>
        <time>2020-05-21T08:22:29Z</time>
      </trkpt>
      <trkpt lat="45.18101" lon="5.64824">
        <ele>962</ele>
        <time>2020-05-21T08:22:32Z</time>
      </trkpt>
      <trkpt lat="45.18151" lon="5.64827">
        <ele>967</ele>
        <time>2020-05-21T08:22:35Z</time>
      </trkpt>
      <trkpt lat="45.18201" lon="5.6482">
        <ele>977</ele>
        <time>2020-05-21T08:22:39Z</time>
      </trkpt>
      <trkpt lat="45.18235" lon="5.64817">
        <ele>982</ele>
        <time>2020-05-21T08:22:42Z</time>
      </trkpt>
      <trkpt lat="45.1825" lon="5.64818">
        <ele>986</ele>
        <time>2020-05-21T08:22:45Z</time>
      </trkpt>
      <trkpt lat="45.18272" lon="5.64819">
        <ele>990</ele>
        <time>2020-05-21T08:22:48Z</time>
      </trkpt>
      <trkpt lat="45.18295" lon="5.64822">
        <ele>994</ele>
        <time>2020-05-21T08:22:51Z</time>
      </trkpt>
      <trkpt lat="45.18316" lon="5.6481">
        <ele>1000</ele>
        <time>2020-05-21T08:22:55Z</time>
      </trkpt>
      <trkpt lat="45.18301" lon="5.64799">
        <ele>1003</ele>
        <time>2020-05-21T08:22:58Z</time>
      </trkpt>
      <trkpt lat="45.18259" lon="5.64798">
        <ele>1005</ele>
        <time>2020-05-21T08:23:01Z</time>
      </trkpt>
      <trkpt lat="45.18215" lon="5.64789">
        <ele>1007</ele>
        <time>2020-05-21T08:23:04Z</time>
      </trkpt>
      <trkpt lat="45.18173" lon="5.64775">
        <ele>1009</ele>
        <time>2020-05-21T08:23:07Z</time>
      </trkpt>
      <trkpt lat="45.18132" lon="5.64759">
        <ele>1012</ele>
        <time>2020-05-21T08:23:10Z</time>
      </trkpt>
      <trkpt lat="45.18104" lon="5.64745">
        <ele>1015</ele>
        <time>2020-05-21T08:23:13Z</time>
      </trkpt>
      <trkpt lat="45.18065" lon="5.64726">
        <ele>1017</ele>
        <time>2020-05-21T08:23:16Z</time>
      </trkpt>
      <trkpt lat="45.18024" lon="5.64705">
        <ele>1020</ele>
        <time>2020-05-21T08:23:19Z</time>
      </trkpt>
      <trkpt lat="45.17981" lon="5.64684">
        <ele>1023</ele>
        <time>2020-05-21T08:23:22Z</time>
      </trkpt>
      <trkpt lat="45.17937" lon="5.64663">
        <ele>1026</ele>
        <time>2020-05-21T08:23:25Z</time>
      </trkpt>
      <trkpt lat="45.17883" lon="5.64625">
        <ele>1029</ele>
        <time>2020-05-21T08:23:29Z</time>
      </trkpt>
      <trkpt lat="45.17847" lon="5.64599">
        <ele>1031</ele>
        <time>2020-05-21T08:23:32Z</time>
      </trkpt>
      <trkpt lat="45.17816" lon="5.64572">
        <ele>1033</ele>
        <time>2020-05-21T08:23:35Z</time>
      </trkpt>
      <trkpt lat="45.17792" lon="5.64543">
        <ele>1035</ele>
        <time>2020-05-21T08:23:38Z</time>
      </trkpt>
      <trkpt lat="45.17771" lon="5.64508">
        <ele>1038</ele>
        <time>2020-05-21T08:23:41Z</time>
      </trkpt>
      <trkpt lat="45.17751" lon="5.64474">
        <ele>1040</ele>
        <time>2020-05-21T08:23:44Z</time>
      </trkpt>
      <trkpt lat="45.17732" lon="5.64451">
        <ele>1043</ele>
        <time>2020-05-21T08:23:47Z</time>
      </trkpt>
      <trkpt lat="45.17704" lon="5.64426">
        <ele>1045</ele>
        <time>2020-05-21T08:23:50Z</time>
      </trkpt>
      <trkpt lat="45.17664" lon="5.64404">
        <ele>1046</ele>
        <time>2020-05-21T08:23:53Z</time>
      </trkpt>
      <trkpt lat="45.17608" lon="5.64376">
        <ele>1048</ele>
        <time>2020-05-21T08:23:57Z</time>
      </trkpt>
      <trkpt lat="45.17565" lon="5.64357">
        <ele>1051</ele>
        <time>2020-05-21T08:24:00Z</time>
      </trkpt>
      <trkpt lat="45.17528" lon="5.64351">
        <ele>1054</ele>
        <time>2020-05-21T08:24:03Z</time>
      </trkpt>
      <trkpt lat="45.17504" lon="5.64349">
        <ele>1057</ele>
        <time>2020-05-21T08:24:06Z</time>
      </trkpt>
      <trkpt lat="45.17477" lon="5.64341">
        <ele>1059</ele>
        <time>2020-05-21T08:24:09Z</time>
      </trkpt>
      <trkpt lat="45.17455" lon="5.64319">
        <ele>1062</ele>
        <time>2020-05-21T08:24:12Z</time>
      </trkpt>
      <trkpt lat="45.1745" lon="5.64272">
        <ele>1065</ele>
        <time>2020-05-21T08:24:16Z</time>
      </trkpt>
      <trkpt lat="45.17447" lon="5.64225">
        <ele>1067</ele>
        <time>2020-05-21T08:24:19Z</time>
      </trkpt>
      <trkpt lat="45.1745" lon="5.64176">
        <ele>1070</ele>
        <time>2020-05-21T08:24:22Z</time>
      </trkpt>
      <trkpt lat="45.17455" lon="5.64134">
        <ele>1071</ele>
        <time>2020-05-21T08:24:25Z</time>
      </trkpt>
      <trkpt lat="45.17462" lon="5.64089">
        <ele>1070</ele>
        <time>2020-05-21T08:24:28Z</time>
      </trkpt>
      <trkpt lat="45.17464" lon="5.64038">
        <ele>1072</ele>
        <time>2020-05-21T08:24:31Z</time>
      </trkpt>
      <trkpt lat="45.17455" lon="5.6399">
        <ele>1076</ele>
        <time>2020-05-21T08:24:34Z</time>
      </trkpt>
      <trkpt lat="45.17436" lon="5.63957">
        <ele>1080</ele>
        <time>2020-05-21T08:24:37Z</time>
      </trkpt>
      <trkpt lat="45.17406" lon="5.63945">
        <ele>1084</ele>
        <time>2020-05-21T08:24:40Z</time>
      </trkpt>
      <trkpt lat="45.17367" lon="5.63942">
        <ele>1088</ele>
        <time>2020-05-21T08:24:43Z</time>
      </trkpt>
      <trkpt lat="45.17327" lon="5.63949">
        <ele>1092</ele>
        <time>2020-05-21T08:24:47Z</time>
      </trkpt>
      <trkpt lat="45.173" lon="5.63953">
        <ele>1095</ele>
        <time>2020-05-21T08:24:50Z</time>
      </trkpt>
      <trkpt lat="45.17252" lon="5.63938">
        <ele>1099</ele>
        <time>2020-05-21T08:24:53Z</time>
      </trkpt>
      <trkpt lat="45.17219" lon="5.63909">
        <ele>1101</ele>
        <time>2020-05-21T08:24:56Z</time>
      </trkpt>
      <trkpt lat="45.17178" lon="5.63884">
        <ele>1104</ele>
        <time>2020-05-21T08:24:59Z</time>
      </trkpt>
      <trkpt lat="45.17123" lon="5.63881">
        <ele>1106</ele>
        <time>2020-05-21T08:25:02Z</time>
      </trkpt>
      <trkpt lat="45.17065" lon="5.63889">
        <ele>1108</ele>
        <time>2020-05-21T08:25:05Z</time>
      </trkpt>
      <trkpt lat="45.17014" lon="5.63897">
        <ele>1110</ele>
        <time>2020-05-21T08:25:08Z</time>
      </trkpt>
      <trkpt lat="45.16967" lon="5.63915">
        <ele>1112</ele>
        <time>2020-05-21T08:25:11Z</time>
      </trkpt>
      <trkpt lat="45.16927" lon="5.63935">
        <ele>1114</ele>
        <time>2020-05-21T08:25:14Z</time>
      </trkpt>
      <trkpt lat="45.16894" lon="5.63951">
        <ele>1115</ele>
        <time>2020-05-21T08:25:17Z</time>
      </trkpt>
      <trkpt lat="45.16865" lon="5.63963">
        <ele>1117</ele>
        <time>2020-05-21T08:25:20Z</time>
      </trkpt>
      <trkpt lat="45.16852" lon="5.63964">
        <ele>1119</ele>
        <time>2020-05-21T08:25:23Z</time>
      </trkpt>
      <trkpt lat="45.16837" lon="5.63921">
        <ele>1121</ele>
        <time>2020-05-21T08:25:27Z</time>
      </trkpt>
      <trkpt lat="45.16865" lon="5.63908">
        <ele>1123</ele>
        <time>2020-05-21T08:25:30Z</time>
      </trkpt>
      <trkpt lat="45.16899" lon="5.63902">
        <ele>1124</ele>
        <time>2020-05-21T08:25:33Z</time>
      </trkpt>
      <trkpt lat="45.16935" lon="5.6388">
        <ele>1126</ele>
        <time>2020-05-21T08:25:36Z</time>
      </trkpt>
      <trkpt lat="45.1697" lon="5.63849">
        <ele>1128</ele>
        <time>2020-05-21T08:25:39Z</time>
      </trkpt>
      <trkpt lat="45.17006" lon="5.63809">
        <ele>1130</ele>
        <time>2020-05-21T08:25:42Z</time>
      </trkpt>
      <trkpt lat="45.17038" lon="5.63759">
        <ele>1133</ele>
        <time>2020-05-21T08:25:45Z</time>
      </trkpt>
      <trkpt lat="45.17066" lon="5.63711">
        <ele>1136</ele>
        <time>2020-05-21T08:25:48Z</time>
      </trkpt>
      <trkpt lat="45.17085" lon="5.63686">
        <ele>1139</ele>
        <time>2020-05-21T08:25:52Z</time>
      </trkpt>
      <trkpt lat="45.17139" lon="5.63663">
        <ele>1143</ele>
        <time>2020-05-21T08:25:55Z</time>
      </trkpt>
      <trkpt lat="45.17181" lon="5.63647">
        <ele>1147</ele>
        <time>2020-05-21T08:25:58Z</time>
      </trkpt>
      <trkpt lat="45.17216" lon="5.63593">
        <ele>1149</ele>
        <time>2020-05-21T08:26:01Z</time>
      </trkpt>
      <trkpt lat="45.17235" lon="5.63531">
        <ele>1151</ele>
        <time>2020-05-21T08:26:05Z</time>
      </trkpt>
      <trkpt lat="45.17247" lon="5.6347">
        <ele>1153</ele>
        <time>2020-05-21T08:26:08Z</time>
      </trkpt>
      <trkpt lat="45.17245" lon="5.63396">
        <ele>1156</ele>
        <time>2020-05-21T08:26:11Z</time>
      </trkpt>
      <trkpt lat="45.17243" lon="5.63307">
        <ele>1160</ele>
        <time>2020-05-21T08:26:14Z</time>
      </trkpt>
      <trkpt lat="45.17247" lon="5.63242">
        <ele>1162</ele>
        <time>2020-05-21T08:26:17Z</time>
      </trkpt>
      <trkpt lat="45.17251" lon="5.63199">
        <ele>1164</ele>
        <time>2020-05-21T08:26:20Z</time>
      </trkpt>
      <trkpt lat="45.17248" lon="5.63143">
        <ele>1166</ele>
        <time>2020-05-21T08:26:23Z</time>
      </trkpt>
      <trkpt lat="45.17242" lon="5.63099">
        <ele>1169</ele>
        <time>2020-05-21T08:26:26Z</time>
      </trkpt>
      <trkpt lat="45.17224" lon="5.63061">
        <ele>1173</ele>
        <time>2020-05-21T08:26:29Z</time>
      </trkpt>
      <trkpt lat="45.1719" lon="5.63054">
        <ele>1177</ele>
        <time>2020-05-21T08:26:32Z</time>
      </trkpt>
      <trkpt lat="45.17165" lon="5.63055">
        <ele>1181</ele>
        <time>2020-05-21T08:26:35Z</time>
      </trkpt>
      <trkpt lat="45.17146" lon="5.63053">
        <ele>1185</ele>
        <time>2020-05-21T08:26:39Z</time>
      </trkpt>
      <trkpt lat="45.1713" lon="5.63054">
        <ele>1186</ele>
        <time>2020-05-21T08:26:42Z</time>
      </trkpt>
      <trkpt lat="45.1712" lon="5.63043">
        <ele>1188</ele>
        <time>2020-05-21T08:26:45Z</time>
      </trkpt>
      <trkpt lat="45.17106" lon="5.63019">
        <ele>1188</ele>
        <time>2020-05-21T08:26:48Z</time>
      </trkpt>
      <trkpt lat="45.17089" lon="5.6299">
        <ele>1189</ele>
        <time>2020-05-21T08:26:51Z</time>
      </trkpt>
      <trkpt lat="45.17075" lon="5.62958">
        <ele>1191</ele>
        <time>2020-05-21T08:26:54Z</time>
      </trkpt>
      <trkpt lat="45.1707" lon="5.62922">
        <ele>1193</ele>
        <time>2020-05-21T08:26:57Z</time>
      </trkpt>
      <trkpt lat="45.17065" lon="5.62887">
        <ele>1195</ele>
        <time>2020-05-21T08:27:00Z</time>
      </trkpt>
      <trkpt lat="45.1706" lon="5.62852">
        <ele>1199</ele>
        <time>2020-05-21T08:27:03Z</time>
      </trkpt>
      <trkpt lat="45.17058" lon="5.6281">
        <ele>1202</ele>
        <time>2020-05-21T08:27:06Z</time>
      </trkpt>
      <trkpt lat="45.1705" lon="5.6276">
        <ele>1206</ele>
        <time>2020-05-21T08:27:10Z</time>
      </trkpt>
      <trkpt lat="45.17035" lon="5.62735">
        <ele>1208</ele>
        <time>2020-05-21T08:27:13Z</time>
      </trkpt>
      <trkpt lat="45.17001" lon="5.62711">
        <ele>1209</ele>
        <time>2020-05-21T08:27:17Z</time>
      </trkpt>
      <trkpt lat="45.16982" lon="5.627">
        <ele>1209</ele>
        <time>2020-05-21T08:27:20Z</time>
      </trkpt>
      <trkpt lat="45.16954" lon="5.62681">
        <ele>1210</ele>
        <time>2020-05-21T08:27:23Z</time>
      </trkpt>
      <trkpt lat="45.1693" lon="5.62655">
        <ele>1211</ele>
        <time>2020-05-21T08:27:26Z</time>
      </trkpt>
      <trkpt lat="45.16921" lon="5.62609">
        <ele>1212</ele>
        <time>2020-05-21T08:27:29Z</time>
      </trkpt>
      <trkpt lat="45.16922" lon="5.62566">
        <ele>1212</ele>
        <time>2020-05-21T08:27:32Z</time>
      </trkpt>
      <trkpt lat="45.16924" lon="5.6252">
        <ele>1213</ele>
        <time>2020-05-21T08:27:36Z</time>
      </trkpt>
      <trkpt lat="45.16919" lon="5.62487">
        <ele>1214</ele>
        <time>2020-05-21T08:27:39Z</time>
      </trkpt>
      <trkpt lat="45.16894" lon="5.62455">
        <ele>1214</ele>
        <time>2020-05-21T08:27:43Z</time>
      </trkpt>
      <trkpt lat="45.16868" lon="5.62453">
        <ele>1215</ele>
        <time>2020-05-21T08:27:47Z</time>
      </trkpt>
      <trkpt lat="45.16838" lon="5.62468">
        <ele>1216</ele>
        <time>2020-05-21T08:27:50Z</time>
      </trkpt>
      <trkpt lat="45.16817" lon="5.62483">
        <ele>1217</ele>
        <time>2020-05-21T08:27:53Z</time>
      </trkpt>
      <trkpt lat="45.1677" lon="5.62497">
        <ele>1217</ele>
        <time>2020-05-21T08:27:56Z</time>
      </trkpt>
      <trkpt lat="45.16734" lon="5.62501">
        <ele>1216</ele>
        <time>2020-05-21T08:27:59Z</time>
      </trkpt>
      <trkpt lat="45.16705" lon="5.62483">
        <ele>1216</ele>
        <time>2020-05-21T08:28:02Z</time>
      </trkpt>
      <trkpt lat="45.16675" lon="5.62443">
        <ele>1216</ele>
        <time>2020-05-21T08:28:06Z</time>
      </trkpt>
      <trkpt lat="45.16646" lon="5.62437">
        <ele>1215</ele>
        <time>2020-05-21T08:28:09Z</time>
      </trkpt>
      <trkpt lat="45.1662" lon="5.6245">
        <ele>1215</ele>
        <time>2020-05-21T08:28:13Z</time>
      </trkpt>
      <trkpt lat="45.16606" lon="5.6248">
        <ele>1215</ele>
        <time>2020-05-21T08:28:16Z</time>
      </trkpt>
      <trkpt lat="45.1659" lon="5.62543">
        <ele>1215</ele>
        <time>2020-05-21T08:28:19Z</time>
      </trkpt>
      <trkpt lat="45.16572" lon="5.62591">
        <ele>1215</ele>
        <time>2020-05-21T08:28:22Z</time>
      </trkpt>
      <trkpt lat="45.16538" lon="5.62635">
        <ele>1214</ele>
        <time>2020-05-21T08:28:25Z</time>
      </trkpt>
      <trkpt lat="45.16515" lon="5.62663">
        <ele>1213</ele>
        <time>2020-05-21T08:28:28Z</time>
      </trkpt>
      <trkpt lat="45.16485" lon="5.62692">
        <ele>1213</ele>
        <time>2020-05-21T08:28:31Z</time>
      </trkpt>
      <trkpt lat="45.16448" lon="5.6269">
        <ele>1213</ele>
        <time>2020-05-21T08:28:34Z</time>
      </trkpt>
      <trkpt lat="45.16406" lon="5.62652">
        <ele>1212</ele>
        <time>2020-05-21T08:28:37Z</time>
      </trkpt>
      <trkpt lat="45.16368" lon="5.62605">
        <ele>1212</ele>
        <time>2020-05-21T08:28:41Z</time>
      </trkpt>
      <trkpt lat="45.16328" lon="5.62573">
        <ele>1212</ele>
        <time>2020-05-21T08:28:44Z</time>
      </trkpt>
      <trkpt lat="45.16283" lon="5.62552">
        <ele>1213</ele>
        <time>2020-05-21T08:28:47Z</time>
      </trkpt>
      <trkpt lat="45.16249" lon="5.62513">
        <ele>1213</ele>
        <time>2020-05-21T08:28:50Z</time>
      </trkpt>
      <trkpt lat="45.16208" lon="5.6243">
        <ele>1213</ele>
        <time>2020-05-21T08:28:53Z</time>
      </trkpt>
      <trkpt lat="45.16189" lon="5.62388">
        <ele>1213</ele>
        <time>2020-05-21T08:28:56Z</time>
      </trkpt>
      <trkpt lat="45.16168" lon="5.62321">
        <ele>1213</ele>
        <time>2020-05-21T08:28:59Z</time>
      </trkpt>
      <trkpt lat="45.16153" lon="5.62265">
        <ele>1214</ele>
        <time>2020-05-21T08:29:02Z</time>
      </trkpt>
      <trkpt lat="45.16125" lon="5.62216">
        <ele>1214</ele>
        <time>2020-05-21T08:29:05Z</time>
      </trkpt>
      <trkpt lat="45.16102" lon="5.62165">
        <ele>1213</ele>
        <time>2020-05-21T08:29:08Z</time>
      </trkpt>
      <trkpt lat="45.16094" lon="5.62107">
        <ele>1213</ele>
        <time>2020-05-21T08:29:12Z</time>
      </trkpt>
      <trkpt lat="45.16072" lon="5.62048">
        <ele>1213</ele>
        <time>2020-05-21T08:29:15Z</time>
      </trkpt>
      <trkpt lat="45.16045" lon="5.61999">
        <ele>1212</ele>
        <time>2020-05-21T08:29:18Z</time>
      </trkpt>
      <trkpt lat="45.16032" lon="5.61933">
        <ele>1212</ele>
        <time>2020-05-21T08:29:21Z</time>
      </trkpt>
      <trkpt lat="45.16052" lon="5.61876">
        <ele>1212</ele>
        <time>2020-05-21T08:29:24Z</time>
      </trkpt>
      <trkpt lat="45.16064" lon="5.61847">
        <ele>1212</ele>
        <time>2020-05-21T08:29:27Z</time>
      </trkpt>
      <trkpt lat="45.16061" lon="5.61803">
        <ele>1211</ele>
        <time>2020-05-21T08:29:30Z</time>
      </trkpt>
      <trkpt lat="45.16032" lon="5.61785">
        <ele>1210</ele>
        <time>2020-05-21T08:29:33Z</time>
      </trkpt>
      <trkpt lat="45.15988" lon="5.61794">
        <ele>1210</ele>
        <time>2020-05-21T08:29:36Z</time>
      </trkpt>
      <trkpt lat="45.15942" lon="5.61812">
        <ele>1208</ele>
        <time>2020-05-21T08:29:40Z</time>
      </trkpt>
      <trkpt lat="45.15898" lon="5.61829">
        <ele>1207</ele>
        <time>2020-05-21T08:29:43Z</time>
      </trkpt>
      <trkpt lat="45.1586" lon="5.6188">
        <ele>1206</ele>
        <time>2020-05-21T08:29:46Z</time>
      </trkpt>
      <trkpt lat="45.15841" lon="5.6193">
        <ele>1204</ele>
        <time>2020-05-21T08:29:49Z</time>
      </trkpt>
      <trkpt lat="45.15817" lon="5.61973">
        <ele>1203</ele>
        <time>2020-05-21T08:29:52Z</time>
      </trkpt>
      <trkpt lat="45.15784" lon="5.61975">
        <ele>1202</ele>
        <time>2020-05-21T08:29:55Z</time>
      </trkpt>
      <trkpt lat="45.15751" lon="5.61955">
        <ele>1201</ele>
        <time>2020-05-21T08:29:58Z</time>
      </trkpt>
      <trkpt lat="45.1573" lon="5.61945">
        <ele>1199</ele>
        <time>2020-05-21T08:30:02Z</time>
      </trkpt>
      <trkpt lat="45.15674" lon="5.61923">
        <ele>1198</ele>
        <time>2020-05-21T08:30:05Z</time>
      </trkpt>
      <trkpt lat="45.15635" lon="5.61915">
        <ele>1197</ele>
        <time>2020-05-21T08:30:08Z</time>
      </trkpt>
      <trkpt lat="45.15594" lon="5.61918">
        <ele>1196</ele>
        <time>2020-05-21T08:30:11Z</time>
      </trkpt>
      <trkpt lat="45.15567" lon="5.61942">
        <ele>1196</ele>
        <time>2020-05-21T08:30:14Z</time>
      </trkpt>
      <trkpt lat="45.15543" lon="5.6198">
        <ele>1196</ele>
        <time>2020-05-21T08:30:17Z</time>
      </trkpt>
      <trkpt lat="45.15516" lon="5.62025">
        <ele>1194</ele>
        <time>2020-05-21T08:30:21Z</time>
      </trkpt>
      <trkpt lat="45.15478" lon="5.62054">
        <ele>1192</ele>
        <time>2020-05-21T08:30:24Z</time>
      </trkpt>
      <trkpt lat="45.15441" lon="5.62052">
        <ele>1192</ele>
        <time>2020-05-21T08:30:27Z</time>
      </trkpt>
      <trkpt lat="45.15402" lon="5.62046">
        <ele>1191</ele>
        <time>2020-05-21T08:30:30Z</time>
      </trkpt>
      <trkpt lat="45.15363" lon="5.62043">
        <ele>1191</ele>
        <time>2020-05-21T08:30:33Z</time>
      </trkpt>
      <trkpt lat="45.15307" lon="5.62038">
        <ele>1190</ele>
        <time>2020-05-21T08:30:37Z</time>
      </trkpt>
      <trkpt lat="45.15276" lon="5.62034">
        <ele>1189</ele>
        <time>2020-05-21T08:30:41Z</time>
      </trkpt>
      <trkpt lat="45.15215" lon="5.6204">
        <ele>1188</ele>
        <time>2020-05-21T08:30:44Z</time>
      </trkpt>
      <trkpt lat="45.15173" lon="5.62051">
        <ele>1186</ele>
        <time>2020-05-21T08:30:47Z</time>
      </trkpt>
      <trkpt lat="45.15118" lon="5.62068">
        <ele>1186</ele>
        <time>2020-05-21T08:30:51Z</time>
      </trkpt>
      <trkpt lat="45.15079" lon="5.62086">
        <ele>1186</ele>
        <time>2020-05-21T08:30:54Z</time>
      </trkpt>
      <trkpt lat="45.15038" lon="5.62107">
        <ele>1185</ele>
        <time>2020-05-21T08:30:57Z</time>
      </trkpt>
      <trkpt lat="45.14995" lon="5.6213">
        <ele>1183</ele>
        <time>2020-05-21T08:31:00Z</time>
      </trkpt>
      <trkpt lat="45.14951" lon="5.62153">
        <ele>1182</ele>
        <time>2020-05-21T08:31:03Z</time>
      </trkpt>
      <trkpt lat="45.14908" lon="5.62166">
        <ele>1180</ele>
        <time>2020-05-21T08:31:06Z</time>
      </trkpt>
      <trkpt lat="45.14864" lon="5.62168">
        <ele>1178</ele>
        <time>2020-05-21T08:31:10Z</time>
      </trkpt>
      <trkpt lat="45.1482" lon="5.62169">
        <ele>1176</ele>
        <time>2020-05-21T08:31:13Z</time>
      </trkpt>
      <trkpt lat="45.14783" lon="5.62183">
        <ele>1174</ele>
        <time>2020-05-21T08:31:16Z</time>
      </trkpt>
      <trkpt lat="45.14742" lon="5.62198">
        <ele>1172</ele>
        <time>2020-05-21T08:31:19Z</time>
      </trkpt>
      <trkpt lat="45.1468" lon="5.62183">
        <ele>1170</ele>
        <time>2020-05-21T08:31:23Z</time>
      </trkpt>
      <trkpt lat="45.14631" lon="5.62171">
        <ele>1168</ele>
        <time>2020-05-21T08:31:26Z</time>
      </trkpt>
      <trkpt lat="45.14582" lon="5.6216">
        <ele>1167</ele>
        <time>2020-05-21T08:31:30Z</time>
      </trkpt>
      <trkpt lat="45.14534" lon="5.62148">
        <ele>1166</ele>
        <time>2020-05-21T08:31:33Z</time>
      </trkpt>
      <trkpt lat="45.14474" lon="5.62121">
        <ele>1165</ele>
        <time>2020-05-21T08:31:36Z</time>
      </trkpt>
      <trkpt lat="45.14446" lon="5.62098">
        <ele>1166</ele>
        <time>2020-05-21T08:31:39Z</time>
      </trkpt>
      <trkpt lat="45.14405" lon="5.6206">
        <ele>1165</ele>
        <time>2020-05-21T08:31:42Z</time>
      </trkpt>
      <trkpt lat="45.14373" lon="5.62016">
        <ele>1164</ele>
        <time>2020-05-21T08:31:45Z</time>
      </trkpt>
      <trkpt lat="45.14355" lon="5.61962">
        <ele>1162</ele>
        <time>2020-05-21T08:31:48Z</time>
      </trkpt>
      <trkpt lat="45.14344" lon="5.61895">
        <ele>1161</ele>
        <time>2020-05-21T08:31:52Z</time>
      </trkpt>
      <trkpt lat="45.14321" lon="5.61812">
        <ele>1160</ele>
        <time>2020-05-21T08:31:55Z</time>
      </trkpt>
      <trkpt lat="45.14296" lon="5.6176">
        <ele>1158</ele>
        <time>2020-05-21T08:31:58Z</time>
      </trkpt>
      <trkpt lat="45.14261" lon="5.61719">
        <ele>1157</ele>
        <time>2020-05-21T08:32:01Z</time>
      </trkpt>
      <trkpt lat="45.14243" lon="5.61681">
        <ele>1156</ele>
        <time>2020-05-21T08:32:04Z</time>
      </trkpt>
      <trkpt lat="45.14236" lon="5.61645">
        <ele>1155</ele>
        <time>2020-05-21T08:32:07Z</time>
      </trkpt>
      <trkpt lat="45.14249" lon="5.61576">
        <ele>1157</ele>
        <time>2020-05-21T08:32:10Z</time>
      </trkpt>
      <trkpt lat="45.14274" lon="5.61512">
        <ele>1159</ele>
        <time>2020-05-21T08:32:13Z</time>
      </trkpt>
      <trkpt lat="45.14302" lon="5.61445">
        <ele>1159</ele>
        <time>2020-05-21T08:32:16Z</time>
      </trkpt>
      <trkpt lat="45.14334" lon="5.61366">
        <ele>1159</ele>
        <time>2020-05-21T08:32:19Z</time>
      </trkpt>
      <trkpt lat="45.14372" lon="5.61292">
        <ele>1159</ele>
        <time>2020-05-21T08:32:22Z</time>
      </trkpt>
      <trkpt lat="45.14409" lon="5.61238">
        <ele>1158</ele>
        <time>2020-05-21T08:32:26Z</time>
      </trkpt>
      <trkpt lat="45.14441" lon="5.6119">
        <ele>1158</ele>
        <time>2020-05-21T08:32:29Z</time>
      </trkpt>
      <trkpt lat="45.14459" lon="5.61145">
        <ele>1158</ele>
        <time>2020-05-21T08:32:32Z</time>
      </trkpt>
      <trkpt lat="45.14441" lon="5.61092">
        <ele>1158</ele>
        <time>2020-05-21T08:32:35Z</time>
      </trkpt>
      <trkpt lat="45.14417" lon="5.61076">
        <ele>1158</ele>
        <time>2020-05-21T08:32:38Z</time>
      </trkpt>
      <trkpt lat="45.14377" lon="5.61055">
        <ele>1157</ele>
        <time>2020-05-21T08:32:41Z</time>
      </trkpt>
      <trkpt lat="45.14348" lon="5.61023">
        <ele>1157</ele>
        <time>2020-05-21T08:32:44Z</time>
      </trkpt>
      <trkpt lat="45.14342" lon="5.60973">
        <ele>1158</ele>
        <time>2020-05-21T08:32:47Z</time>
      </trkpt>
      <trkpt lat="45.14365" lon="5.60933">
        <ele>1158</ele>
        <time>2020-05-21T08:32:50Z</time>
      </trkpt>
      <trkpt lat="45.14431" lon="5.60889">
        <ele>1160</ele>
        <time>2020-05-21T08:32:53Z</time>
      </trkpt>
      <trkpt lat="45.14463" lon="5.60865">
        <ele>1160</ele>
        <time>2020-05-21T08:32:56Z</time>
      </trkpt>
      <trkpt lat="45.14492" lon="5.60836">
        <ele>1159</ele>
        <time>2020-05-21T08:32:59Z</time>
      </trkpt>
      <trkpt lat="45.14511" lon="5.60802">
        <ele>1158</ele>
        <time>2020-05-21T08:33:02Z</time>
      </trkpt>
      <trkpt lat="45.14502" lon="5.60769">
        <ele>1157</ele>
        <time>2020-05-21T08:33:05Z</time>
      </trkpt>
      <trkpt lat="45.14465" lon="5.60749">
        <ele>1158</ele>
        <time>2020-05-21T08:33:08Z</time>
      </trkpt>
      <trkpt lat="45.14431" lon="5.60738">
        <ele>1157</ele>
        <time>2020-05-21T08:33:12Z</time>
      </trkpt>
      <trkpt lat="45.14372" lon="5.60713">
        <ele>1154</ele>
        <time>2020-05-21T08:33:15Z</time>
      </trkpt>
      <trkpt lat="45.14325" lon="5.60714">
        <ele>1151</ele>
        <time>2020-05-21T08:33:18Z</time>
      </trkpt>
      <trkpt lat="45.14274" lon="5.60721">
        <ele>1149</ele>
        <time>2020-05-21T08:33:21Z</time>
      </trkpt>
      <trkpt lat="45.14227" lon="5.60727">
        <ele>1148</ele>
        <time>2020-05-21T08:33:24Z</time>
      </trkpt>
      <trkpt lat="45.1418" lon="5.60729">
        <ele>1148</ele>
        <time>2020-05-21T08:33:27Z</time>
      </trkpt>
      <trkpt lat="45.14158" lon="5.607">
        <ele>1148</ele>
        <time>2020-05-21T08:33:30Z</time>
      </trkpt>
      <trkpt lat="45.14141" lon="5.60645">
        <ele>1148</ele>
        <time>2020-05-21T08:33:33Z</time>
      </trkpt>
      <trkpt lat="45.14118" lon="5.60608">
        <ele>1147</ele>
        <time>2020-05-21T08:33:36Z</time>
      </trkpt>
      <trkpt lat="45.14079" lon="5.60584">
        <ele>1145</ele>
        <time>2020-05-21T08:33:39Z</time>
      </trkpt>
      <trkpt lat="45.14031" lon="5.60565">
        <ele>1145</ele>
        <time>2020-05-21T08:33:42Z</time>
      </trkpt>
      <trkpt lat="45.1399" lon="5.60566">
        <ele>1144</ele>
        <time>2020-05-21T08:33:45Z</time>
      </trkpt>
      <trkpt lat="45.13961" lon="5.60582">
        <ele>1144</ele>
        <time>2020-05-21T08:33:48Z</time>
      </trkpt>
      <trkpt lat="45.1392" lon="5.60598">
        <ele>1144</ele>
        <time>2020-05-21T08:33:51Z</time>
      </trkpt>
      <trkpt lat="45.13869" lon="5.60546">
        <ele>1144</ele>
        <time>2020-05-21T08:33:55Z</time>
      </trkpt>
      <trkpt lat="45.13835" lon="5.60497">
        <ele>1144</ele>
        <time>2020-05-21T08:33:58Z</time>
      </trkpt>
      <trkpt lat="45.13803" lon="5.60454">
        <ele>1144</ele>
        <time>2020-05-21T08:34:01Z</time>
      </trkpt>
      <trkpt lat="45.13769" lon="5.60435">
        <ele>1143</ele>
        <time>2020-05-21T08:34:05Z</time>
      </trkpt>
      <trkpt lat="45.13734" lon="5.60439">
        <ele>1143</ele>
        <time>2020-05-21T08:34:08Z</time>
      </trkpt>
      <trkpt lat="45.13695" lon="5.60478">
        <ele>1143</ele>
        <time>2020-05-21T08:34:11Z</time>
      </trkpt>
      <trkpt lat="45.1367" lon="5.60513">
        <ele>1144</ele>
        <time>2020-05-21T08:34:14Z</time>
      </trkpt>
      <trkpt lat="45.13642" lon="5.60541">
        <ele>1144</ele>
        <time>2020-05-21T08:34:17Z</time>
      </trkpt>
      <trkpt lat="45.13614" lon="5.60543">
        <ele>1144</ele>
        <time>2020-05-21T08:34:20Z</time>
      </trkpt>
      <trkpt lat="45.13581" lon="5.60543">
        <ele>1143</ele>
        <time>2020-05-21T08:34:23Z</time>
      </trkpt>
      <trkpt lat="45.13544" lon="5.60556">
        <ele>1142</ele>
        <time>2020-05-21T08:34:27Z</time>
      </trkpt>
      <trkpt lat="45.13497" lon="5.60549">
        <ele>1140</ele>
        <time>2020-05-21T08:34:30Z</time>
      </trkpt>
      <trkpt lat="45.13458" lon="5.60523">
        <ele>1138</ele>
        <time>2020-05-21T08:34:33Z</time>
      </trkpt>
      <trkpt lat="45.13405" lon="5.60492">
        <ele>1135</ele>
        <time>2020-05-21T08:34:37Z</time>
      </trkpt>
      <trkpt lat="45.13365" lon="5.60466">
        <ele>1134</ele>
        <time>2020-05-21T08:34:40Z</time>
      </trkpt>
      <trkpt lat="45.13349" lon="5.60422">
        <ele>1131</ele>
        <time>2020-05-21T08:34:43Z</time>
      </trkpt>
      <trkpt lat="45.13341" lon="5.60392">
        <ele>1130</ele>
        <time>2020-05-21T08:34:46Z</time>
      </trkpt>
      <trkpt lat="45.13302" lon="5.60331">
        <ele>1129</ele>
        <time>2020-05-21T08:34:50Z</time>
      </trkpt>
      <trkpt lat="45.13277" lon="5.6029">
        <ele>1129</ele>
        <time>2020-05-21T08:34:53Z</time>
      </trkpt>
      <trkpt lat="45.13247" lon="5.60236">
        <ele>1128</ele>
        <time>2020-05-21T08:34:56Z</time>
      </trkpt>
      <trkpt lat="45.13219" lon="5.60193">
        <ele>1128</ele>
        <time>2020-05-21T08:34:59Z</time>
      </trkpt>
      <trkpt lat="45.13182" lon="5.60167">
        <ele>1128</ele>
        <time>2020-05-21T08:35:02Z</time>
      </trkpt>
      <trkpt lat="45.13151" lon="5.60131">
        <ele>1128</ele>
        <time>2020-05-21T08:35:05Z</time>
      </trkpt>
      <trkpt lat="45.13108" lon="5.60101">
        <ele>1127</ele>
        <time>2020-05-21T08:35:09Z</time>
      </trkpt>
      <trkpt lat="45.13073" lon="5.60103">
        <ele>1126</ele>
        <time>2020-05-21T08:35:12Z</time>
      </trkpt>
      <trkpt lat="45.13041" lon="5.60072">
        <ele>1125</ele>
        <time>2020-05-21T08:35:15Z</time>
      </trkpt>
      <trkpt lat="45.13031" lon="5.60038">
        <ele>1124</ele>
        <time>2020-05-21T08:35:18Z</time>
      </trkpt>
      <trkpt lat="45.13012" lon="5.59975">
        <ele>1123</ele>
        <time>2020-05-21T08:35:22Z</time>
      </trkpt>
      <trkpt lat="45.12981" lon="5.59945">
        <ele>1122</ele>
        <time>2020-05-21T08:35:25Z</time>
      </trkpt>
      <trkpt lat="45.12932" lon="5.59915">
        <ele>1121</ele>
        <time>2020-05-21T08:35:29Z</time>
      </trkpt>
      <trkpt lat="45.12892" lon="5.59913">
        <ele>1120</ele>
        <time>2020-05-21T08:35:32Z</time>
      </trkpt>
      <trkpt lat="45.12851" lon="5.59927">
        <ele>1119</ele>
        <time>2020-05-21T08:35:35Z</time>
      </trkpt>
      <trkpt lat="45.12817" lon="5.5994">
        <ele>1119</ele>
        <time>2020-05-21T08:35:38Z</time>
      </trkpt>
      <trkpt lat="45.12787" lon="5.59941">
        <ele>1118</ele>
        <time>2020-05-21T08:35:42Z</time>
      </trkpt>
      <trkpt lat="45.12761" lon="5.59928">
        <ele>1118</ele>
        <time>2020-05-21T08:35:45Z</time>
      </trkpt>
      <trkpt lat="45.12743" lon="5.59919">
        <ele>1118</ele>
        <time>2020-05-21T08:35:48Z</time>
      </trkpt>
      <trkpt lat="45.12733" lon="5.59915">
        <ele>1117</ele>
        <time>2020-05-21T08:36:02Z</time>
      </trkpt>
      <trkpt lat="45.12713" lon="5.59903">
        <ele>1117</ele>
        <time>2020-05-21T08:36:05Z</time>
      </trkpt>
      <trkpt lat="45.12687" lon="5.59886">
        <ele>1115</ele>
        <time>2020-05-21T08:36:09Z</time>
      </trkpt>
      <trkpt lat="45.12658" lon="5.59863">
        <ele>1113</ele>
        <time>2020-05-21T08:36:12Z</time>
      </trkpt>
      <trkpt lat="45.12637" lon="5.59835">
        <ele>1111</ele>
        <time>2020-05-21T08:36:15Z</time>
      </trkpt>
      <trkpt lat="45.12626" lon="5.59801">
        <ele>1110</ele>
        <time>2020-05-21T08:36:18Z</time>
      </trkpt>
      <trkpt lat="45.12623" lon="5.59752">
        <ele>1108</ele>
        <time>2020-05-21T08:36:21Z</time>
      </trkpt>
      <trkpt lat="45.12628" lon="5.59704">
        <ele>1107</ele>
        <time>2020-05-21T08:36:24Z</time>
      </trkpt>
      <trkpt lat="45.12632" lon="5.59667">
        <ele>1106</ele>
        <time>2020-05-21T08:36:27Z</time>
      </trkpt>
      <trkpt lat="45.12634" lon="5.59633">
        <ele>1105</ele>
        <time>2020-05-21T08:36:31Z</time>
      </trkpt>
      <trkpt lat="45.12638" lon="5.59579">
        <ele>1103</ele>
        <time>2020-05-21T08:36:34Z</time>
      </trkpt>
      <trkpt lat="45.12652" lon="5.5954">
        <ele>1101</ele>
        <time>2020-05-21T08:36:37Z</time>
      </trkpt>
      <trkpt lat="45.1267" lon="5.59496">
        <ele>1100</ele>
        <time>2020-05-21T08:36:41Z</time>
      </trkpt>
      <trkpt lat="45.12683" lon="5.59458">
        <ele>1099</ele>
        <time>2020-05-21T08:36:44Z</time>
      </trkpt>
      <trkpt lat="45.12696" lon="5.59419">
        <ele>1098</ele>
        <time>2020-05-21T08:36:47Z</time>
      </trkpt>
      <trkpt lat="45.12708" lon="5.59376">
        <ele>1097</ele>
        <time>2020-05-21T08:36:50Z</time>
      </trkpt>
      <trkpt lat="45.12727" lon="5.59311">
        <ele>1096</ele>
        <time>2020-05-21T08:36:53Z</time>
      </trkpt>
      <trkpt lat="45.12739" lon="5.59268">
        <ele>1096</ele>
        <time>2020-05-21T08:36:56Z</time>
      </trkpt>
      <trkpt lat="45.1275" lon="5.59226">
        <ele>1095</ele>
        <time>2020-05-21T08:37:00Z</time>
      </trkpt>
      <trkpt lat="45.12757" lon="5.59198">
        <ele>1095</ele>
        <time>2020-05-21T08:37:03Z</time>
      </trkpt>
      <trkpt lat="45.12761" lon="5.59182">
        <ele>1095</ele>
        <time>2020-05-21T08:37:06Z</time>
      </trkpt>
      <trkpt lat="45.12766" lon="5.59163">
        <ele>1095</ele>
        <time>2020-05-21T08:37:09Z</time>
      </trkpt>
      <trkpt lat="45.12773" lon="5.59132">
        <ele>1095</ele>
        <time>2020-05-21T08:37:12Z</time>
      </trkpt>
      <trkpt lat="45.12779" lon="5.59108">
        <ele>1094</ele>
        <time>2020-05-21T08:37:15Z</time>
      </trkpt>
      <trkpt lat="45.12791" lon="5.59058">
        <ele>1091</ele>
        <time>2020-05-21T08:37:18Z</time>
      </trkpt>
      <trkpt lat="45.12799" lon="5.59021">
        <ele>1089</ele>
        <time>2020-05-21T08:37:22Z</time>
      </trkpt>
      <trkpt lat="45.12804" lon="5.58993">
        <ele>1088</ele>
        <time>2020-05-21T08:37:25Z</time>
      </trkpt>
      <trkpt lat="45.12806" lon="5.58978">
        <ele>1088</ele>
        <time>2020-05-21T08:37:30Z</time>
      </trkpt>
      <trkpt lat="45.12811" lon="5.58956">
        <ele>1086</ele>
        <time>2020-05-21T08:37:33Z</time>
      </trkpt>
      <trkpt lat="45.12814" lon="5.58936">
        <ele>1084</ele>
        <time>2020-05-21T08:37:36Z</time>
      </trkpt>
      <trkpt lat="45.12818" lon="5.5891">
        <ele>1082</ele>
        <time>2020-05-21T08:37:40Z</time>
      </trkpt>
      <trkpt lat="45.12821" lon="5.58889">
        <ele>1081</ele>
        <time>2020-05-21T08:37:43Z</time>
      </trkpt>
      <trkpt lat="45.12826" lon="5.58859">
        <ele>1080</ele>
        <time>2020-05-21T08:37:46Z</time>
      </trkpt>
      <trkpt lat="45.12836" lon="5.58824">
        <ele>1079</ele>
        <time>2020-05-21T08:37:49Z</time>
      </trkpt>
      <trkpt lat="45.12852" lon="5.58768">
        <ele>1079</ele>
        <time>2020-05-21T08:37:52Z</time>
      </trkpt>
      <trkpt lat="45.12864" lon="5.58725">
        <ele>1078</ele>
        <time>2020-05-21T08:37:55Z</time>
      </trkpt>
      <trkpt lat="45.12877" lon="5.58676">
        <ele>1077</ele>
        <time>2020-05-21T08:37:58Z</time>
      </trkpt>
      <trkpt lat="45.12891" lon="5.58628">
        <ele>1076</ele>
        <time>2020-05-21T08:38:01Z</time>
      </trkpt>
      <trkpt lat="45.12905" lon="5.5858">
        <ele>1076</ele>
        <time>2020-05-21T08:38:04Z</time>
      </trkpt>
      <trkpt lat="45.1292" lon="5.58529">
        <ele>1075</ele>
        <time>2020-05-21T08:38:08Z</time>
      </trkpt>
      <trkpt lat="45.12942" lon="5.58459">
        <ele>1074</ele>
        <time>2020-05-21T08:38:11Z</time>
      </trkpt>
      <trkpt lat="45.12953" lon="5.58424">
        <ele>1073</ele>
        <time>2020-05-21T08:38:14Z</time>
      </trkpt>
      <trkpt lat="45.12971" lon="5.5837">
        <ele>1073</ele>
        <time>2020-05-21T08:38:17Z</time>
      </trkpt>
      <trkpt lat="45.12988" lon="5.58317">
        <ele>1073</ele>
        <time>2020-05-21T08:38:21Z</time>
      </trkpt>
      <trkpt lat="45.1301" lon="5.58253">
        <ele>1072</ele>
        <time>2020-05-21T08:38:24Z</time>
      </trkpt>
      <trkpt lat="45.13033" lon="5.58222">
        <ele>1072</ele>
        <time>2020-05-21T08:38:28Z</time>
      </trkpt>
      <trkpt lat="45.1306" lon="5.58212">
        <ele>1072</ele>
        <time>2020-05-21T08:38:31Z</time>
      </trkpt>
      <trkpt lat="45.13089" lon="5.5819">
        <ele>1071</ele>
        <time>2020-05-21T08:38:34Z</time>
      </trkpt>
      <trkpt lat="45.13103" lon="5.58177">
        <ele>1070</ele>
        <time>2020-05-21T08:38:37Z</time>
      </trkpt>
      <trkpt lat="45.13108" lon="5.58151">
        <ele>1069</ele>
        <time>2020-05-21T08:38:40Z</time>
      </trkpt>
      <trkpt lat="45.13089" lon="5.58138">
        <ele>1068</ele>
        <time>2020-05-21T08:38:43Z</time>
      </trkpt>
      <trkpt lat="45.1307" lon="5.58105">
        <ele>1067</ele>
        <time>2020-05-21T08:38:46Z</time>
      </trkpt>
      <trkpt lat="45.13063" lon="5.58077">
        <ele>1067</ele>
        <time>2020-05-21T08:38:50Z</time>
      </trkpt>
      <trkpt lat="45.13052" lon="5.5809">
        <ele>1066</ele>
        <time>2020-05-21T08:38:58Z</time>
      </trkpt>
      <trkpt lat="45.13026" lon="5.58071">
        <ele>1065</ele>
        <time>2020-05-21T08:39:01Z</time>
      </trkpt>
      <trkpt lat="45.13005" lon="5.58062">
        <ele>1064</ele>
        <time>2020-05-21T08:39:05Z</time>
      </trkpt>
      <trkpt lat="45.12964" lon="5.58031">
        <ele>1063</ele>
        <time>2020-05-21T08:39:08Z</time>
      </trkpt>
      <trkpt lat="45.12923" lon="5.58">
        <ele>1063</ele>
        <time>2020-05-21T08:39:11Z</time>
      </trkpt>
      <trkpt lat="45.12882" lon="5.5796">
        <ele>1062</ele>
        <time>2020-05-21T08:39:14Z</time>
      </trkpt>
      <trkpt lat="45.12832" lon="5.57923">
        <ele>1062</ele>
        <time>2020-05-21T08:39:17Z</time>
      </trkpt>
      <trkpt lat="45.12761" lon="5.57868">
        <ele>1062</ele>
        <time>2020-05-21T08:39:20Z</time>
      </trkpt>
      <trkpt lat="45.127" lon="5.57823">
        <ele>1062</ele>
        <time>2020-05-21T08:39:23Z</time>
      </trkpt>
      <trkpt lat="45.12645" lon="5.57782">
        <ele>1061</ele>
        <time>2020-05-21T08:39:26Z</time>
      </trkpt>
      <trkpt lat="45.12582" lon="5.57735">
        <ele>1060</ele>
        <time>2020-05-21T08:39:29Z</time>
      </trkpt>
      <trkpt lat="45.1254" lon="5.57702">
        <ele>1060</ele>
        <time>2020-05-21T08:39:32Z</time>
      </trkpt>
      <trkpt lat="45.12513" lon="5.57679">
        <ele>1060</ele>
        <time>2020-05-21T08:39:35Z</time>
      </trkpt>
      <trkpt lat="45.12462" lon="5.57637">
        <ele>1059</ele>
        <time>2020-05-21T08:39:39Z</time>
      </trkpt>
      <trkpt lat="45.12422" lon="5.57606">
        <ele>1058</ele>
        <time>2020-05-21T08:39:42Z</time>
      </trkpt>
      <trkpt lat="45.12363" lon="5.57558">
        <ele>1059</ele>
        <time>2020-05-21T08:39:46Z</time>
      </trkpt>
      <trkpt lat="45.1232" lon="5.57523">
        <ele>1059</ele>
        <time>2020-05-21T08:39:49Z</time>
      </trkpt>
      <trkpt lat="45.12276" lon="5.57488">
        <ele>1059</ele>
        <time>2020-05-21T08:39:52Z</time>
      </trkpt>
      <trkpt lat="45.12232" lon="5.57452">
        <ele>1060</ele>
        <time>2020-05-21T08:39:55Z</time>
      </trkpt>
      <trkpt lat="45.12192" lon="5.57419">
        <ele>1060</ele>
        <time>2020-05-21T08:39:58Z</time>
      </trkpt>
      <trkpt lat="45.12152" lon="5.57378">
        <ele>1060</ele>
        <time>2020-05-21T08:40:01Z</time>
      </trkpt>
      <trkpt lat="45.12114" lon="5.5733">
        <ele>1060</ele>
        <time>2020-05-21T08:40:05Z</time>
      </trkpt>
      <trkpt lat="45.12075" lon="5.57286">
        <ele>1060</ele>
        <time>2020-05-21T08:40:08Z</time>
      </trkpt>
      <trkpt lat="45.1204" lon="5.57263">
        <ele>1060</ele>
        <time>2020-05-21T08:40:11Z</time>
      </trkpt>
      <trkpt lat="45.11982" lon="5.57244">
        <ele>1060</ele>
        <time>2020-05-21T08:40:14Z</time>
      </trkpt>
      <trkpt lat="45.11922" lon="5.57225">
        <ele>1061</ele>
        <time>2020-05-21T08:40:17Z</time>
      </trkpt>
      <trkpt lat="45.11833" lon="5.57198">
        <ele>1061</ele>
        <time>2020-05-21T08:40:20Z</time>
      </trkpt>
      <trkpt lat="45.11769" lon="5.57184">
        <ele>1061</ele>
        <time>2020-05-21T08:40:23Z</time>
      </trkpt>
      <trkpt lat="45.11712" lon="5.5718">
        <ele>1061</ele>
        <time>2020-05-21T08:40:26Z</time>
      </trkpt>
      <trkpt lat="45.11661" lon="5.57195">
        <ele>1061</ele>
        <time>2020-05-21T08:40:29Z</time>
      </trkpt>
      <trkpt lat="45.11614" lon="5.57226">
        <ele>1061</ele>
        <time>2020-05-21T08:40:32Z</time>
      </trkpt>
      <trkpt lat="45.11547" lon="5.57256">
        <ele>1061</ele>
        <time>2020-05-21T08:40:36Z</time>
      </trkpt>
      <trkpt lat="45.11492" lon="5.57272">
        <ele>1061</ele>
        <time>2020-05-21T08:40:40Z</time>
      </trkpt>
      <trkpt lat="45.11458" lon="5.5728">
        <ele>1061</ele>
        <time>2020-05-21T08:40:43Z</time>
      </trkpt>
      <trkpt lat="45.11408" lon="5.57277">
        <ele>1061</ele>
        <time>2020-05-21T08:40:46Z</time>
      </trkpt>
      <trkpt lat="45.11361" lon="5.57249">
        <ele>1061</ele>
        <time>2020-05-21T08:40:49Z</time>
      </trkpt>
      <trkpt lat="45.11327" lon="5.57182">
        <ele>1060</ele>
        <time>2020-05-21T08:40:52Z</time>
      </trkpt>
      <trkpt lat="45.11304" lon="5.57099">
        <ele>1060</ele>
        <time>2020-05-21T08:40:55Z</time>
      </trkpt>
      <trkpt lat="45.11279" lon="5.57029">
        <ele>1060</ele>
        <time>2020-05-21T08:40:58Z</time>
      </trkpt>
      <trkpt lat="45.11249" lon="5.56974">
        <ele>1060</ele>
        <time>2020-05-21T08:41:01Z</time>
      </trkpt>
      <trkpt lat="45.11213" lon="5.56911">
        <ele>1060</ele>
        <time>2020-05-21T08:41:04Z</time>
      </trkpt>
      <trkpt lat="45.11185" lon="5.56862">
        <ele>1060</ele>
        <time>2020-05-21T08:41:07Z</time>
      </trkpt>
      <trkpt lat="45.11166" lon="5.56827">
        <ele>1060</ele>
        <time>2020-05-21T08:41:10Z</time>
      </trkpt>
      <trkpt lat="45.11155" lon="5.56807">
        <ele>1060</ele>
        <time>2020-05-21T08:41:14Z</time>
      </trkpt>
      <trkpt lat="45.11137" lon="5.56777">
        <ele>1060</ele>
        <time>2020-05-21T08:41:17Z</time>
      </trkpt>
      <trkpt lat="45.11118" lon="5.56745">
        <ele>1059</ele>
        <time>2020-05-21T08:41:20Z</time>
      </trkpt>
      <trkpt lat="45.11095" lon="5.56719">
        <ele>1059</ele>
        <time>2020-05-21T08:41:23Z</time>
      </trkpt>
      <trkpt lat="45.11075" lon="5.56697">
        <ele>1058</ele>
        <time>2020-05-21T08:41:26Z</time>
      </trkpt>
      <trkpt lat="45.11055" lon="5.56676">
        <ele>1058</ele>
        <time>2020-05-21T08:41:29Z</time>
      </trkpt>
      <trkpt lat="45.11021" lon="5.56642">
        <ele>1058</ele>
        <time>2020-05-21T08:41:32Z</time>
      </trkpt>
      <trkpt lat="45.10995" lon="5.56616">
        <ele>1058</ele>
        <time>2020-05-21T08:41:35Z</time>
      </trkpt>
      <trkpt lat="45.10977" lon="5.56599">
        <ele>1058</ele>
        <time>2020-05-21T08:41:38Z</time>
      </trkpt>
      <trkpt lat="45.10953" lon="5.56576">
        <ele>1056</ele>
        <time>2020-05-21T08:41:42Z</time>
      </trkpt>
      <trkpt lat="45.10938" lon="5.56563">
        <ele>1055</ele>
        <time>2020-05-21T08:41:45Z</time>
      </trkpt>
      <trkpt lat="45.10901" lon="5.56534">
        <ele>1055</ele>
        <time>2020-05-21T08:41:48Z</time>
      </trkpt>
      <trkpt lat="45.10866" lon="5.56507">
        <ele>1055</ele>
        <time>2020-05-21T08:41:51Z</time>
      </trkpt>
      <trkpt lat="45.10811" lon="5.56466">
        <ele>1055</ele>
        <time>2020-05-21T08:41:54Z</time>
      </trkpt>
      <trkpt lat="45.10757" lon="5.56425">
        <ele>1054</ele>
        <time>2020-05-21T08:41:57Z</time>
      </trkpt>
      <trkpt lat="45.10699" lon="5.56382">
        <ele>1054</ele>
        <time>2020-05-21T08:42:00Z</time>
      </trkpt>
      <trkpt lat="45.10643" lon="5.56342">
        <ele>1054</ele>
        <time>2020-05-21T08:42:03Z</time>
      </trkpt>
      <trkpt lat="45.10575" lon="5.56295">
        <ele>1054</ele>
        <time>2020-05-21T08:42:06Z</time>
      </trkpt>
      <trkpt lat="45.10521" lon="5.5627">
        <ele>1054</ele>
        <time>2020-05-21T08:42:09Z</time>
      </trkpt>
      <trkpt lat="45.1047" lon="5.56242">
        <ele>1054</ele>
        <time>2020-05-21T08:42:12Z</time>
      </trkpt>
      <trkpt lat="45.10417" lon="5.56214">
        <ele>1054</ele>
        <time>2020-05-21T08:42:16Z</time>
      </trkpt>
      <trkpt lat="45.10365" lon="5.56189">
        <ele>1054</ele>
        <time>2020-05-21T08:42:19Z</time>
      </trkpt>
      <trkpt lat="45.1032" lon="5.56168">
        <ele>1054</ele>
        <time>2020-05-21T08:42:22Z</time>
      </trkpt>
      <trkpt lat="45.10276" lon="5.56145">
        <ele>1054</ele>
        <time>2020-05-21T08:42:26Z</time>
      </trkpt>
      <trkpt lat="45.10213" lon="5.56109">
        <ele>1053</ele>
        <time>2020-05-21T08:42:29Z</time>
      </trkpt>
      <trkpt lat="45.10168" lon="5.56079">
        <ele>1053</ele>
        <time>2020-05-21T08:42:32Z</time>
      </trkpt>
      <trkpt lat="45.1012" lon="5.56046">
        <ele>1053</ele>
        <time>2020-05-21T08:42:36Z</time>
      </trkpt>
      <trkpt lat="45.10077" lon="5.56014">
        <ele>1053</ele>
        <time>2020-05-21T08:42:39Z</time>
      </trkpt>
      <trkpt lat="45.10038" lon="5.55978">
        <ele>1053</ele>
        <time>2020-05-21T08:42:42Z</time>
      </trkpt>
      <trkpt lat="45.09986" lon="5.55913">
        <ele>1053</ele>
        <time>2020-05-21T08:42:45Z</time>
      </trkpt>
      <trkpt lat="45.0996" lon="5.5588">
        <ele>1053</ele>
        <time>2020-05-21T08:42:48Z</time>
      </trkpt>
      <trkpt lat="45.09918" lon="5.5584">
        <ele>1053</ele>
        <time>2020-05-21T08:42:51Z</time>
      </trkpt>
      <trkpt lat="45.09856" lon="5.55797">
        <ele>1053</ele>
        <time>2020-05-21T08:42:55Z</time>
      </trkpt>
      <trkpt lat="45.09806" lon="5.55768">
        <ele>1053</ele>
        <time>2020-05-21T08:42:58Z</time>
      </trkpt>
      <trkpt lat="45.09752" lon="5.55745">
        <ele>1052</ele>
        <time>2020-05-21T08:43:01Z</time>
      </trkpt>
      <trkpt lat="45.09695" lon="5.55727">
        <ele>1052</ele>
        <time>2020-05-21T08:43:04Z</time>
      </trkpt>
      <trkpt lat="45.09638" lon="5.55709">
        <ele>1052</ele>
        <time>2020-05-21T08:43:07Z</time>
      </trkpt>
      <trkpt lat="45.09578" lon="5.55692">
        <ele>1051</ele>
        <time>2020-05-21T08:43:10Z</time>
      </trkpt>
      <trkpt lat="45.09522" lon="5.55677">
        <ele>1051</ele>
        <time>2020-05-21T08:43:14Z</time>
      </trkpt>
      <trkpt lat="45.09463" lon="5.55663">
        <ele>1051</ele>
        <time>2020-05-21T08:43:17Z</time>
      </trkpt>
      <trkpt lat="45.09422" lon="5.55654">
        <ele>1051</ele>
        <time>2020-05-21T08:43:20Z</time>
      </trkpt>
      <trkpt lat="45.09365" lon="5.5564">
        <ele>1051</ele>
        <time>2020-05-21T08:43:23Z</time>
      </trkpt>
      <trkpt lat="45.09307" lon="5.55622">
        <ele>1051</ele>
        <time>2020-05-21T08:43:26Z</time>
      </trkpt>
      <trkpt lat="45.09251" lon="5.55606">
        <ele>1051</ele>
        <time>2020-05-21T08:43:29Z</time>
      </trkpt>
      <trkpt lat="45.0919" lon="5.55591">
        <ele>1050</ele>
        <time>2020-05-21T08:43:32Z</time>
      </trkpt>
      <trkpt lat="45.0914" lon="5.55586">
        <ele>1050</ele>
        <time>2020-05-21T08:43:35Z</time>
      </trkpt>
      <trkpt lat="45.09101" lon="5.5558">
        <ele>1050</ele>
        <time>2020-05-21T08:43:38Z</time>
      </trkpt>
      <trkpt lat="45.09072" lon="5.55571">
        <ele>1050</ele>
        <time>2020-05-21T08:43:42Z</time>
      </trkpt>
      <trkpt lat="45.09051" lon="5.55565">
        <ele>1050</ele>
        <time>2020-05-21T08:43:45Z</time>
      </trkpt>
      <trkpt lat="45.09032" lon="5.55545">
        <ele>1050</ele>
        <time>2020-05-21T08:43:48Z</time>
      </trkpt>
      <trkpt lat="45.09003" lon="5.55545">
        <ele>1050</ele>
        <time>2020-05-21T08:43:51Z</time>
      </trkpt>
      <trkpt lat="45.08969" lon="5.55544">
        <ele>1049</ele>
        <time>2020-05-21T08:43:55Z</time>
      </trkpt>
      <trkpt lat="45.08934" lon="5.55533">
        <ele>1049</ele>
        <time>2020-05-21T08:43:58Z</time>
      </trkpt>
      <trkpt lat="45.08895" lon="5.55521">
        <ele>1048</ele>
        <time>2020-05-21T08:44:01Z</time>
      </trkpt>
      <trkpt lat="45.08855" lon="5.55509">
        <ele>1048</ele>
        <time>2020-05-21T08:44:04Z</time>
      </trkpt>
      <trkpt lat="45.08804" lon="5.55494">
        <ele>1048</ele>
        <time>2020-05-21T08:44:07Z</time>
      </trkpt>
      <trkpt lat="45.08777" lon="5.55486">
        <ele>1047</ele>
        <time>2020-05-21T08:44:10Z</time>
      </trkpt>
      <trkpt lat="45.08732" lon="5.55473">
        <ele>1047</ele>
        <time>2020-05-21T08:44:13Z</time>
      </trkpt>
      <trkpt lat="45.08692" lon="5.55461">
        <ele>1046</ele>
        <time>2020-05-21T08:44:16Z</time>
      </trkpt>
      <trkpt lat="45.08652" lon="5.55451">
        <ele>1046</ele>
        <time>2020-05-21T08:44:20Z</time>
      </trkpt>
      <trkpt lat="45.08612" lon="5.5544">
        <ele>1045</ele>
        <time>2020-05-21T08:44:23Z</time>
      </trkpt>
      <trkpt lat="45.08583" lon="5.55432">
        <ele>1044</ele>
        <time>2020-05-21T08:44:26Z</time>
      </trkpt>
      <trkpt lat="45.08561" lon="5.55425">
        <ele>1044</ele>
        <time>2020-05-21T08:44:29Z</time>
      </trkpt>
      <trkpt lat="45.08535" lon="5.55416">
        <ele>1043</ele>
        <time>2020-05-21T08:44:32Z</time>
      </trkpt>
      <trkpt lat="45.08502" lon="5.55407">
        <ele>1042</ele>
        <time>2020-05-21T08:44:35Z</time>
      </trkpt>
      <trkpt lat="45.08468" lon="5.55399">
        <ele>1042</ele>
        <time>2020-05-21T08:44:38Z</time>
      </trkpt>
      <trkpt lat="45.08424" lon="5.55385">
        <ele>1041</ele>
        <time>2020-05-21T08:44:41Z</time>
      </trkpt>
      <trkpt lat="45.08375" lon="5.55376">
        <ele>1041</ele>
        <time>2020-05-21T08:44:44Z</time>
      </trkpt>
      <trkpt lat="45.08345" lon="5.55377">
        <ele>1041</ele>
        <time>2020-05-21T08:44:47Z</time>
      </trkpt>
      <trkpt lat="45.08279" lon="5.55384">
        <ele>1041</ele>
        <time>2020-05-21T08:44:51Z</time>
      </trkpt>
      <trkpt lat="45.08232" lon="5.55389">
        <ele>1040</ele>
        <time>2020-05-21T08:44:54Z</time>
      </trkpt>
      <trkpt lat="45.0819" lon="5.55393">
        <ele>1040</ele>
        <time>2020-05-21T08:44:57Z</time>
      </trkpt>
      <trkpt lat="45.08155" lon="5.55385">
        <ele>1040</ele>
        <time>2020-05-21T08:45:00Z</time>
      </trkpt>
      <trkpt lat="45.08128" lon="5.55371">
        <ele>1040</ele>
        <time>2020-05-21T08:45:03Z</time>
      </trkpt>
      <trkpt lat="45.0809" lon="5.5535">
        <ele>1040</ele>
        <time>2020-05-21T08:45:06Z</time>
      </trkpt>
      <trkpt lat="45.08041" lon="5.55319">
        <ele>1039</ele>
        <time>2020-05-21T08:45:10Z</time>
      </trkpt>
      <trkpt lat="45.07994" lon="5.55305">
        <ele>1039</ele>
        <time>2020-05-21T08:45:13Z</time>
      </trkpt>
      <trkpt lat="45.07962" lon="5.55314">
        <ele>1039</ele>
        <time>2020-05-21T08:45:16Z</time>
      </trkpt>
      <trkpt lat="45.07944" lon="5.55325">
        <ele>1038</ele>
        <time>2020-05-21T08:45:19Z</time>
      </trkpt>
      <trkpt lat="45.07903" lon="5.55337">
        <ele>1038</ele>
        <time>2020-05-21T08:45:22Z</time>
      </trkpt>
      <trkpt lat="45.07871" lon="5.55341">
        <ele>1038</ele>
        <time>2020-05-21T08:45:25Z</time>
      </trkpt>
      <trkpt lat="45.07835" lon="5.55343">
        <ele>1038</ele>
        <time>2020-05-21T08:45:28Z</time>
      </trkpt>
      <trkpt lat="45.07801" lon="5.55322">
        <ele>1037</ele>
        <time>2020-05-21T08:45:31Z</time>
      </trkpt>
      <trkpt lat="45.07774" lon="5.55262">
        <ele>1037</ele>
        <time>2020-05-21T08:45:34Z</time>
      </trkpt>
      <trkpt lat="45.07745" lon="5.55203">
        <ele>1037</ele>
        <time>2020-05-21T08:45:37Z</time>
      </trkpt>
      <trkpt lat="45.07712" lon="5.55146">
        <ele>1037</ele>
        <time>2020-05-21T08:45:40Z</time>
      </trkpt>
      <trkpt lat="45.07677" lon="5.55096">
        <ele>1037</ele>
        <time>2020-05-21T08:45:43Z</time>
      </trkpt>
      <trkpt lat="45.0762" lon="5.55048">
        <ele>1037</ele>
        <time>2020-05-21T08:45:47Z</time>
      </trkpt>
      <trkpt lat="45.07581" lon="5.55021">
        <ele>1036</ele>
        <time>2020-05-21T08:45:50Z</time>
      </trkpt>
      <trkpt lat="45.07556" lon="5.55004">
        <ele>1036</ele>
        <time>2020-05-21T08:45:53Z</time>
      </trkpt>
      <trkpt lat="45.0753" lon="5.54984">
        <ele>1035</ele>
        <time>2020-05-21T08:45:56Z</time>
      </trkpt>
      <trkpt lat="45.07511" lon="5.54968">
        <ele>1035</ele>
        <time>2020-05-21T08:45:59Z</time>
      </trkpt>
      <trkpt lat="45.07475" lon="5.54931">
        <ele>1034</ele>
        <time>2020-05-21T08:46:02Z</time>
      </trkpt>
      <trkpt lat="45.07439" lon="5.54889">
        <ele>1034</ele>
        <time>2020-05-21T08:46:06Z</time>
      </trkpt>
      <trkpt lat="45.07413" lon="5.54859">
        <ele>1033</ele>
        <time>2020-05-21T08:46:09Z</time>
      </trkpt>
      <trkpt lat="45.0739" lon="5.54824">
        <ele>1033</ele>
        <time>2020-05-21T08:46:12Z</time>
      </trkpt>
      <trkpt lat="45.07373" lon="5.54788">
        <ele>1032</ele>
        <time>2020-05-21T08:46:15Z</time>
      </trkpt>
      <trkpt lat="45.0737" lon="5.54747">
        <ele>1031</ele>
        <time>2020-05-21T08:46:18Z</time>
      </trkpt>
      <trkpt lat="45.07368" lon="5.54719">
        <ele>1031</ele>
        <time>2020-05-21T08:46:21Z</time>
      </trkpt>
      <trkpt lat="45.07374" lon="5.54692">
        <ele>1030</ele>
        <time>2020-05-21T08:46:24Z</time>
      </trkpt>
      <trkpt lat="45.0737" lon="5.54675">
        <ele>1030</ele>
        <time>2020-05-21T08:46:27Z</time>
      </trkpt>
      <trkpt lat="45.07347" lon="5.54685">
        <ele>1030</ele>
        <time>2020-05-21T08:46:31Z</time>
      </trkpt>
      <trkpt lat="45.07358" lon="5.54717">
        <ele>1030</ele>
        <time>2020-05-21T08:46:34Z</time>
      </trkpt>
      <trkpt lat="45.07374" lon="5.54683">
        <ele>1029</ele>
        <time>2020-05-21T08:46:37Z</time>
      </trkpt>
      <trkpt lat="45.07371" lon="5.54671">
        <ele>1028</ele>
        <time>2020-05-21T08:46:40Z</time>
      </trkpt>
      <trkpt lat="45.0739" lon="5.54615">
        <ele>1027</ele>
        <time>2020-05-21T08:46:43Z</time>
      </trkpt>
      <trkpt lat="45.07388" lon="5.5457">
        <ele>1026</ele>
        <time>2020-05-21T08:46:46Z</time>
      </trkpt>
      <trkpt lat="45.07375" lon="5.54515">
        <ele>1024</ele>
        <time>2020-05-21T08:46:49Z</time>
      </trkpt>
      <trkpt lat="45.07344" lon="5.54469">
        <ele>1023</ele>
        <time>2020-05-21T08:46:52Z</time>
      </trkpt>
      <trkpt lat="45.07318" lon="5.5443">
        <ele>1022</ele>
        <time>2020-05-21T08:46:55Z</time>
      </trkpt>
      <trkpt lat="45.07311" lon="5.54381">
        <ele>1020</ele>
        <time>2020-05-21T08:46:59Z</time>
      </trkpt>
      <trkpt lat="45.07333" lon="5.54351">
        <ele>1020</ele>
        <time>2020-05-21T08:47:02Z</time>
      </trkpt>
      <trkpt lat="45.07356" lon="5.54324">
        <ele>1019</ele>
        <time>2020-05-21T08:47:05Z</time>
      </trkpt>
      <trkpt lat="45.07377" lon="5.54268">
        <ele>1017</ele>
        <time>2020-05-21T08:47:08Z</time>
      </trkpt>
      <trkpt lat="45.07392" lon="5.54206">
        <ele>1015</ele>
        <time>2020-05-21T08:47:11Z</time>
      </trkpt>
      <trkpt lat="45.07401" lon="5.54167">
        <ele>1014</ele>
        <time>2020-05-21T08:47:15Z</time>
      </trkpt>
      <trkpt lat="45.07383" lon="5.54087">
        <ele>1013</ele>
        <time>2020-05-21T08:47:18Z</time>
      </trkpt>
      <trkpt lat="45.07348" lon="5.54072">
        <ele>1012</ele>
        <time>2020-05-21T08:47:21Z</time>
      </trkpt>
      <trkpt lat="45.07321" lon="5.5406">
        <ele>1012</ele>
        <time>2020-05-21T08:47:24Z</time>
      </trkpt>
      <trkpt lat="45.0733" lon="5.54025">
        <ele>1011</ele>
        <time>2020-05-21T08:47:27Z</time>
      </trkpt>
      <trkpt lat="45.07367" lon="5.53995">
        <ele>1011</ele>
        <time>2020-05-21T08:47:30Z</time>
      </trkpt>
      <trkpt lat="45.07409" lon="5.5399">
        <ele>1011</ele>
        <time>2020-05-21T08:47:34Z</time>
      </trkpt>
      <trkpt lat="45.07434" lon="5.53945">
        <ele>1010</ele>
        <time>2020-05-21T08:47:37Z</time>
      </trkpt>
      <trkpt lat="45.07475" lon="5.53915">
        <ele>1009</ele>
        <time>2020-05-21T08:47:40Z</time>
      </trkpt>
      <trkpt lat="45.07534" lon="5.53875">
        <ele>1007</ele>
        <time>2020-05-21T08:47:43Z</time>
      </trkpt>
      <trkpt lat="45.07572" lon="5.53845">
        <ele>1006</ele>
        <time>2020-05-21T08:47:46Z</time>
      </trkpt>
      <trkpt lat="45.07602" lon="5.53809">
        <ele>1005</ele>
        <time>2020-05-21T08:47:49Z</time>
      </trkpt>
      <trkpt lat="45.07612" lon="5.53774">
        <ele>1004</ele>
        <time>2020-05-21T08:47:52Z</time>
      </trkpt>
      <trkpt lat="45.07631" lon="5.53725">
        <ele>1003</ele>
        <time>2020-05-21T08:47:56Z</time>
      </trkpt>
      <trkpt lat="45.07652" lon="5.53702">
        <ele>1003</ele>
        <time>2020-05-21T08:47:59Z</time>
      </trkpt>
      <trkpt lat="45.07686" lon="5.53694">
        <ele>1002</ele>
        <time>2020-05-21T08:48:02Z</time>
      </trkpt>
      <trkpt lat="45.0774" lon="5.5369">
        <ele>1001</ele>
        <time>2020-05-21T08:48:06Z</time>
      </trkpt>
      <trkpt lat="45.07773" lon="5.53684">
        <ele>1001</ele>
        <time>2020-05-21T08:48:09Z</time>
      </trkpt>
      <trkpt lat="45.07809" lon="5.53653">
        <ele>1000</ele>
        <time>2020-05-21T08:48:12Z</time>
      </trkpt>
      <trkpt lat="45.07849" lon="5.53574">
        <ele>999</ele>
        <time>2020-05-21T08:48:15Z</time>
      </trkpt>
      <trkpt lat="45.07882" lon="5.53516">
        <ele>998</ele>
        <time>2020-05-21T08:48:18Z</time>
      </trkpt>
      <trkpt lat="45.0793" lon="5.53449">
        <ele>997</ele>
        <time>2020-05-21T08:48:22Z</time>
      </trkpt>
      <trkpt lat="45.07974" lon="5.53409">
        <ele>996</ele>
        <time>2020-05-21T08:48:25Z</time>
      </trkpt>
      <trkpt lat="45.08019" lon="5.53373">
        <ele>995</ele>
        <time>2020-05-21T08:48:28Z</time>
      </trkpt>
      <trkpt lat="45.08065" lon="5.5334">
        <ele>994</ele>
        <time>2020-05-21T08:48:31Z</time>
      </trkpt>
      <trkpt lat="45.0811" lon="5.53315">
        <ele>993</ele>
        <time>2020-05-21T08:48:34Z</time>
      </trkpt>
      <trkpt lat="45.08153" lon="5.53297">
        <ele>993</ele>
        <time>2020-05-21T08:48:37Z</time>
      </trkpt>
      <trkpt lat="45.08184" lon="5.5328">
        <ele>992</ele>
        <time>2020-05-21T08:48:40Z</time>
      </trkpt>
      <trkpt lat="45.08229" lon="5.53243">
        <ele>991</ele>
        <time>2020-05-21T08:48:43Z</time>
      </trkpt>
      <trkpt lat="45.08273" lon="5.53206">
        <ele>990</ele>
        <time>2020-05-21T08:48:46Z</time>
      </trkpt>
      <trkpt lat="45.08328" lon="5.53157">
        <ele>989</ele>
        <time>2020-05-21T08:48:50Z</time>
      </trkpt>
      <trkpt lat="45.08369" lon="5.53118">
        <ele>989</ele>
        <time>2020-05-21T08:48:53Z</time>
      </trkpt>
      <trkpt lat="45.08405" lon="5.53076">
        <ele>989</ele>
        <time>2020-05-21T08:48:56Z</time>
      </trkpt>
      <trkpt lat="45.08435" lon="5.53027">
        <ele>989</ele>
        <time>2020-05-21T08:48:59Z</time>
      </trkpt>
      <trkpt lat="45.08448" lon="5.52987">
        <ele>989</ele>
        <time>2020-05-21T08:49:02Z</time>
      </trkpt>
      <trkpt lat="45.08457" lon="5.5293">
        <ele>989</ele>
        <time>2020-05-21T08:49:05Z</time>
      </trkpt>
      <trkpt lat="45.08462" lon="5.5288">
        <ele>988</ele>
        <time>2020-05-21T08:49:08Z</time>
      </trkpt>
      <trkpt lat="45.08469" lon="5.52837">
        <ele>988</ele>
        <time>2020-05-21T08:49:11Z</time>
      </trkpt>
      <trkpt lat="45.08483" lon="5.52772">
        <ele>987</ele>
        <time>2020-05-21T08:49:15Z</time>
      </trkpt>
      <trkpt lat="45.08493" lon="5.52725">
        <ele>987</ele>
        <time>2020-05-21T08:49:18Z</time>
      </trkpt>
      <trkpt lat="45.08506" lon="5.52672">
        <ele>987</ele>
        <time>2020-05-21T08:49:21Z</time>
      </trkpt>
      <trkpt lat="45.0852" lon="5.52617">
        <ele>986</ele>
        <time>2020-05-21T08:49:24Z</time>
      </trkpt>
      <trkpt lat="45.08534" lon="5.52567">
        <ele>986</ele>
        <time>2020-05-21T08:49:27Z</time>
      </trkpt>
      <trkpt lat="45.08545" lon="5.52525">
        <ele>985</ele>
        <time>2020-05-21T08:49:30Z</time>
      </trkpt>
      <trkpt lat="45.08558" lon="5.52476">
        <ele>986</ele>
        <time>2020-05-21T08:49:33Z</time>
      </trkpt>
      <trkpt lat="45.08563" lon="5.52457">
        <ele>985</ele>
        <time>2020-05-21T08:49:37Z</time>
      </trkpt>
      <trkpt lat="45.08571" lon="5.52426">
        <ele>985</ele>
        <time>2020-05-21T08:49:40Z</time>
      </trkpt>
      <trkpt lat="45.0858" lon="5.52389">
        <ele>984</ele>
        <time>2020-05-21T08:49:43Z</time>
      </trkpt>
      <trkpt lat="45.08591" lon="5.5234">
        <ele>985</ele>
        <time>2020-05-21T08:49:46Z</time>
      </trkpt>
      <trkpt lat="45.08602" lon="5.52297">
        <ele>985</ele>
        <time>2020-05-21T08:49:49Z</time>
      </trkpt>
      <trkpt lat="45.08602" lon="5.52252">
        <ele>985</ele>
        <time>2020-05-21T08:49:52Z</time>
      </trkpt>
      <trkpt lat="45.08571" lon="5.52208">
        <ele>985</ele>
        <time>2020-05-21T08:49:55Z</time>
      </trkpt>
      <trkpt lat="45.08543" lon="5.52173">
        <ele>985</ele>
        <time>2020-05-21T08:49:58Z</time>
      </trkpt>
      <trkpt lat="45.08518" lon="5.52121">
        <ele>984</ele>
        <time>2020-05-21T08:50:01Z</time>
      </trkpt>
      <trkpt lat="45.08494" lon="5.52083">
        <ele>984</ele>
        <time>2020-05-21T08:50:04Z</time>
      </trkpt>
      <trkpt lat="45.08473" lon="5.52046">
        <ele>984</ele>
        <time>2020-05-21T08:50:07Z</time>
      </trkpt>
      <trkpt lat="45.08465" lon="5.52022">
        <ele>984</ele>
        <time>2020-05-21T08:50:10Z</time>
      </trkpt>
      <trkpt lat="45.08415" lon="5.52031">
        <ele>984</ele>
        <time>2020-05-21T08:50:13Z</time>
      </trkpt>
      <trkpt lat="45.08389" lon="5.52024">
        <ele>983</ele>
        <time>2020-05-21T08:50:16Z</time>
      </trkpt>
      <trkpt lat="45.08356" lon="5.52014">
        <ele>983</ele>
        <time>2020-05-21T08:50:19Z</time>
      </trkpt>
      <trkpt lat="45.08314" lon="5.52011">
        <ele>982</ele>
        <time>2020-05-21T08:50:22Z</time>
      </trkpt>
      <trkpt lat="45.08287" lon="5.52013">
        <ele>982</ele>
        <time>2020-05-21T08:50:25Z</time>
      </trkpt>
      <trkpt lat="45.08273" lon="5.52018">
        <ele>982</ele>
        <time>2020-05-21T08:50:28Z</time>
      </trkpt>
      <trkpt lat="45.08264" lon="5.52022">
        <ele>982</ele>
        <time>2020-05-21T08:50:32Z</time>
      </trkpt>
      <trkpt lat="45.08252" lon="5.52034">
        <ele>982</ele>
        <time>2020-05-21T08:50:35Z</time>
      </trkpt>
      <trkpt lat="45.08243" lon="5.52046">
        <ele>982</ele>
        <time>2020-05-21T08:50:39Z</time>
      </trkpt>
      <trkpt lat="45.08236" lon="5.5206">
        <ele>982</ele>
        <time>2020-05-21T08:50:42Z</time>
      </trkpt>
      <trkpt lat="45.08228" lon="5.52076">
        <ele>981</ele>
        <time>2020-05-21T08:50:45Z</time>
      </trkpt>
      <trkpt lat="45.08214" lon="5.52101">
        <ele>980</ele>
        <time>2020-05-21T08:50:48Z</time>
      </trkpt>
      <trkpt lat="45.08198" lon="5.52117">
        <ele>975</ele>
        <time>2020-05-21T08:50:52Z</time>
      </trkpt>
      <trkpt lat="45.08188" lon="5.5212">
        <ele>972</ele>
        <time>2020-05-21T08:50:55Z</time>
      </trkpt>
      <trkpt lat="45.08177" lon="5.52121">
        <ele>972</ele>
        <time>2020-05-21T08:50:58Z</time>
      </trkpt>
      <trkpt lat="45.08151" lon="5.52123">
        <ele>972</ele>
        <time>2020-05-21T08:51:01Z</time>
      </trkpt>
      <trkpt lat="45.08131" lon="5.52126">
        <ele>975</ele>
        <time>2020-05-21T08:51:05Z</time>
      </trkpt>
      <trkpt lat="45.08088" lon="5.52139">
        <ele>976</ele>
        <time>2020-05-21T08:51:08Z</time>
      </trkpt>
      <trkpt lat="45.08055" lon="5.52156">
        <ele>977</ele>
        <time>2020-05-21T08:51:12Z</time>
      </trkpt>
      <trkpt lat="45.08018" lon="5.52172">
        <ele>975</ele>
        <time>2020-05-21T08:51:15Z</time>
      </trkpt>
      <trkpt lat="45.07994" lon="5.52166">
        <ele>975</ele>
        <time>2020-05-21T08:51:18Z</time>
      </trkpt>
      <trkpt lat="45.07957" lon="5.52137">
        <ele>971</ele>
        <time>2020-05-21T08:51:21Z</time>
      </trkpt>
      <trkpt lat="45.07906" lon="5.5212">
        <ele>966</ele>
        <time>2020-05-21T08:51:25Z</time>
      </trkpt>
      <trkpt lat="45.07865" lon="5.5212">
        <ele>964</ele>
        <time>2020-05-21T08:51:28Z</time>
      </trkpt>
      <trkpt lat="45.07825" lon="5.52119">
        <ele>963</ele>
        <time>2020-05-21T08:51:31Z</time>
      </trkpt>
      <trkpt lat="45.07797" lon="5.52115">
        <ele>963</ele>
        <time>2020-05-21T08:51:34Z</time>
      </trkpt>
      <trkpt lat="45.07759" lon="5.5211">
        <ele>962</ele>
        <time>2020-05-21T08:51:37Z</time>
      </trkpt>
      <trkpt lat="45.07722" lon="5.52119">
        <ele>962</ele>
        <time>2020-05-21T08:51:40Z</time>
      </trkpt>
      <trkpt lat="45.0768" lon="5.52132">
        <ele>963</ele>
        <time>2020-05-21T08:51:43Z</time>
      </trkpt>
      <trkpt lat="45.07648" lon="5.5214">
        <ele>961</ele>
        <time>2020-05-21T08:51:47Z</time>
      </trkpt>
      <trkpt lat="45.07623" lon="5.52139">
        <ele>959</ele>
        <time>2020-05-21T08:51:50Z</time>
      </trkpt>
      <trkpt lat="45.07594" lon="5.52134">
        <ele>954</ele>
        <time>2020-05-21T08:51:53Z</time>
      </trkpt>
      <trkpt lat="45.07567" lon="5.52126">
        <ele>947</ele>
        <time>2020-05-21T08:51:56Z</time>
      </trkpt>
      <trkpt lat="45.07542" lon="5.52108">
        <ele>937</ele>
        <time>2020-05-21T08:51:59Z</time>
      </trkpt>
      <trkpt lat="45.07528" lon="5.52085">
        <ele>931</ele>
        <time>2020-05-21T08:52:02Z</time>
      </trkpt>
      <trkpt lat="45.07513" lon="5.52053">
        <ele>921</ele>
        <time>2020-05-21T08:52:05Z</time>
      </trkpt>
      <trkpt lat="45.07495" lon="5.5204">
        <ele>912</ele>
        <time>2020-05-21T08:52:09Z</time>
      </trkpt>
      <trkpt lat="45.0747" lon="5.52042">
        <ele>907</ele>
        <time>2020-05-21T08:52:12Z</time>
      </trkpt>
      <trkpt lat="45.07443" lon="5.52046">
        <ele>908</ele>
        <time>2020-05-21T08:52:15Z</time>
      </trkpt>
      <trkpt lat="45.07425" lon="5.52048">
        <ele>912</ele>
        <time>2020-05-21T08:52:18Z</time>
      </trkpt>
      <trkpt lat="45.07382" lon="5.52053">
        <ele>917</ele>
        <time>2020-05-21T08:52:21Z</time>
      </trkpt>
      <trkpt lat="45.0735" lon="5.52052">
        <ele>920</ele>
        <time>2020-05-21T08:52:24Z</time>
      </trkpt>
      <trkpt lat="45.07327" lon="5.5205">
        <ele>922</ele>
        <time>2020-05-21T08:52:27Z</time>
      </trkpt>
      <trkpt lat="45.07317" lon="5.52049">
        <ele>923</ele>
        <time>2020-05-21T08:52:31Z</time>
      </trkpt>
      <trkpt lat="45.07305" lon="5.52048">
        <ele>923</ele>
        <time>2020-05-21T08:52:34Z</time>
      </trkpt>
      <trkpt lat="45.07288" lon="5.52046">
        <ele>941</ele>
        <time>2020-05-21T08:53:27Z</time>
      </trkpt>
      <trkpt lat="45.07257" lon="5.52043">
        <ele>952</ele>
        <time>2020-05-21T08:53:30Z</time>
      </trkpt>
      <trkpt lat="45.07241" lon="5.52042">
        <ele>955</ele>
        <time>2020-05-21T08:53:33Z</time>
      </trkpt>
      <trkpt lat="45.07232" lon="5.5204">
        <ele>958</ele>
        <time>2020-05-21T08:53:38Z</time>
      </trkpt>
      <trkpt lat="45.07223" lon="5.52034">
        <ele>960</ele>
        <time>2020-05-21T08:53:42Z</time>
      </trkpt>
      <trkpt lat="45.07194" lon="5.5207">
        <ele>963</ele>
        <time>2020-05-21T08:53:49Z</time>
      </trkpt>
      <trkpt lat="45.07182" lon="5.52075">
        <ele>964</ele>
        <time>2020-05-21T08:54:06Z</time>
      </trkpt>
      <trkpt lat="45.07172" lon="5.52073">
        <ele>966</ele>
        <time>2020-05-21T08:55:50Z</time>
      </trkpt>
      <trkpt lat="45.0711" lon="5.52071">
        <ele>968</ele>
        <time>2020-05-21T08:55:53Z</time>
      </trkpt>
      <trkpt lat="45.07101" lon="5.52072">
        <ele>970</ele>
        <time>2020-05-21T08:55:57Z</time>
      </trkpt>
      <trkpt lat="45.07092" lon="5.52074">
        <ele>973</ele>
        <time>2020-05-21T08:56:01Z</time>
      </trkpt>
      <trkpt lat="45.07082" lon="5.52074">
        <ele>978</ele>
        <time>2020-05-21T08:56:09Z</time>
      </trkpt>
      <trkpt lat="45.07002" lon="5.52057">
        <ele>1003</ele>
        <time>2020-05-21T08:56:24Z</time>
      </trkpt>
      <trkpt lat="45.06949" lon="5.52036">
        <ele>1003</ele>
        <time>2020-05-21T08:56:27Z</time>
      </trkpt>
      <trkpt lat="45.06929" lon="5.5202">
        <ele>1003</ele>
        <time>2020-05-21T08:56:30Z</time>
      </trkpt>
      <trkpt lat="45.06938" lon="5.52028">
        <ele>1003</ele>
        <time>2020-05-21T08:56:34Z</time>
      </trkpt>
      <trkpt lat="45.06948" lon="5.52043">
        <ele>1000</ele>
        <time>2020-05-21T08:57:09Z</time>
      </trkpt>
      <trkpt lat="45.06951" lon="5.52031">
        <ele>988</ele>
        <time>2020-05-21T08:58:06Z</time>
      </trkpt>
      <trkpt lat="45.06946" lon="5.5202">
        <ele>985</ele>
        <time>2020-05-21T08:58:10Z</time>
      </trkpt>
      <trkpt lat="45.06944" lon="5.52006">
        <ele>980</ele>
        <time>2020-05-21T08:58:23Z</time>
      </trkpt>
      <trkpt lat="45.06937" lon="5.51989">
        <ele>970</ele>
        <time>2020-05-21T08:58:29Z</time>
      </trkpt>
      <trkpt lat="45.0692" lon="5.51965">
        <ele>965</ele>
        <time>2020-05-21T08:58:32Z</time>
      </trkpt>
      <trkpt lat="45.06896" lon="5.5191">
        <ele>964</ele>
        <time>2020-05-21T08:58:35Z</time>
      </trkpt>
      <trkpt lat="45.06875" lon="5.51863">
        <ele>964</ele>
        <time>2020-05-21T08:58:39Z</time>
      </trkpt>
      <trkpt lat="45.06855" lon="5.51839">
        <ele>964</ele>
        <time>2020-05-21T08:58:42Z</time>
      </trkpt>
      <trkpt lat="45.0684" lon="5.51822">
        <ele>963</ele>
        <time>2020-05-21T08:58:45Z</time>
      </trkpt>
      <trkpt lat="45.06824" lon="5.51797">
        <ele>962</ele>
        <time>2020-05-21T08:58:48Z</time>
      </trkpt>
      <trkpt lat="45.06815" lon="5.51802">
        <ele>962</ele>
        <time>2020-05-21T08:58:54Z</time>
      </trkpt>
      <trkpt lat="45.06803" lon="5.51815">
        <ele>962</ele>
        <time>2020-05-21T08:58:59Z</time>
      </trkpt>
      <trkpt lat="45.06782" lon="5.51852">
        <ele>962</ele>
        <time>2020-05-21T08:59:03Z</time>
      </trkpt>
      <trkpt lat="45.06775" lon="5.5184">
        <ele>963</ele>
        <time>2020-05-21T08:59:12Z</time>
      </trkpt>
      <trkpt lat="45.06778" lon="5.51815">
        <ele>963</ele>
        <time>2020-05-21T08:59:15Z</time>
      </trkpt>
      <trkpt lat="45.06779" lon="5.51783">
        <ele>962</ele>
        <time>2020-05-21T08:59:18Z</time>
      </trkpt>
      <trkpt lat="45.0678" lon="5.51607">
        <ele>959</ele>
        <time>2020-05-21T08:59:21Z</time>
      </trkpt>
      <trkpt lat="45.06797" lon="5.51533">
        <ele>952</ele>
        <time>2020-05-21T08:59:24Z</time>
      </trkpt>
      <trkpt lat="45.06807" lon="5.515">
        <ele>946</ele>
        <time>2020-05-21T08:59:27Z</time>
      </trkpt>
      <trkpt lat="45.06805" lon="5.51471">
        <ele>941</ele>
        <time>2020-05-21T08:59:31Z</time>
      </trkpt>
      <trkpt lat="45.06799" lon="5.51435">
        <ele>937</ele>
        <time>2020-05-21T08:59:34Z</time>
      </trkpt>
      <trkpt lat="45.06804" lon="5.51393">
        <ele>935</ele>
        <time>2020-05-21T08:59:37Z</time>
      </trkpt>
      <trkpt lat="45.06814" lon="5.51345">
        <ele>933</ele>
        <time>2020-05-21T08:59:41Z</time>
      </trkpt>
      <trkpt lat="45.06824" lon="5.51283">
        <ele>926</ele>
        <time>2020-05-21T08:59:44Z</time>
      </trkpt>
      <trkpt lat="45.06849" lon="5.51238">
        <ele>920</ele>
        <time>2020-05-21T08:59:47Z</time>
      </trkpt>
      <trkpt lat="45.06889" lon="5.51203">
        <ele>912</ele>
        <time>2020-05-21T08:59:50Z</time>
      </trkpt>
      <trkpt lat="45.06904" lon="5.51147">
        <ele>905</ele>
        <time>2020-05-21T08:59:54Z</time>
      </trkpt>
      <trkpt lat="45.06914" lon="5.51117">
        <ele>899</ele>
        <time>2020-05-21T08:59:57Z</time>
      </trkpt>
      <trkpt lat="45.06926" lon="5.51081">
        <ele>894</ele>
        <time>2020-05-21T09:00:00Z</time>
      </trkpt>
      <trkpt lat="45.06934" lon="5.51042">
        <ele>891</ele>
        <time>2020-05-21T09:00:03Z</time>
      </trkpt>
      <trkpt lat="45.06937" lon="5.50994">
        <ele>888</ele>
        <time>2020-05-21T09:00:06Z</time>
      </trkpt>
      <trkpt lat="45.06938" lon="5.50951">
        <ele>886</ele>
        <time>2020-05-21T09:00:09Z</time>
      </trkpt>
      <trkpt lat="45.06939" lon="5.50914">
        <ele>885</ele>
        <time>2020-05-21T09:00:12Z</time>
      </trkpt>
      <trkpt lat="45.06942" lon="5.50881">
        <ele>884</ele>
        <time>2020-05-21T09:00:15Z</time>
      </trkpt>
      <trkpt lat="45.06947" lon="5.50849">
        <ele>884</ele>
        <time>2020-05-21T09:00:18Z</time>
      </trkpt>
      <trkpt lat="45.06953" lon="5.50816">
        <ele>883</ele>
        <time>2020-05-21T09:00:21Z</time>
      </trkpt>
      <trkpt lat="45.06955" lon="5.508">
        <ele>882</ele>
        <time>2020-05-21T09:00:24Z</time>
      </trkpt>
      <trkpt lat="45.06958" lon="5.50787">
        <ele>879</ele>
        <time>2020-05-21T09:00:27Z</time>
      </trkpt>
      <trkpt lat="45.06963" lon="5.50766">
        <ele>876</ele>
        <time>2020-05-21T09:00:30Z</time>
      </trkpt>
      <trkpt lat="45.06969" lon="5.50744">
        <ele>873</ele>
        <time>2020-05-21T09:00:33Z</time>
      </trkpt>
      <trkpt lat="45.06984" lon="5.50708">
        <ele>869</ele>
        <time>2020-05-21T09:00:36Z</time>
      </trkpt>
      <trkpt lat="45.06998" lon="5.50676">
        <ele>866</ele>
        <time>2020-05-21T09:00:39Z</time>
      </trkpt>
      <trkpt lat="45.07012" lon="5.50646">
        <ele>863</ele>
        <time>2020-05-21T09:00:42Z</time>
      </trkpt>
      <trkpt lat="45.07024" lon="5.50625">
        <ele>862</ele>
        <time>2020-05-21T09:00:45Z</time>
      </trkpt>
      <trkpt lat="45.0704" lon="5.50597">
        <ele>861</ele>
        <time>2020-05-21T09:00:49Z</time>
      </trkpt>
      <trkpt lat="45.07055" lon="5.50563">
        <ele>860</ele>
        <time>2020-05-21T09:00:52Z</time>
      </trkpt>
      <trkpt lat="45.07057" lon="5.50527">
        <ele>860</ele>
        <time>2020-05-21T09:00:56Z</time>
      </trkpt>
      <trkpt lat="45.07054" lon="5.50504">
        <ele>859</ele>
        <time>2020-05-21T09:00:59Z</time>
      </trkpt>
      <trkpt lat="45.07049" lon="5.50484">
        <ele>854</ele>
        <time>2020-05-21T09:01:03Z</time>
      </trkpt>
      <trkpt lat="45.07025" lon="5.50417">
        <ele>848</ele>
        <time>2020-05-21T09:01:06Z</time>
      </trkpt>
      <trkpt lat="45.07022" lon="5.50367">
        <ele>843</ele>
        <time>2020-05-21T09:01:10Z</time>
      </trkpt>
      <trkpt lat="45.07024" lon="5.50318">
        <ele>840</ele>
        <time>2020-05-21T09:01:13Z</time>
      </trkpt>
      <trkpt lat="45.0702" lon="5.5027">
        <ele>836</ele>
        <time>2020-05-21T09:01:16Z</time>
      </trkpt>
      <trkpt lat="45.0702" lon="5.50236">
        <ele>835</ele>
        <time>2020-05-21T09:01:20Z</time>
      </trkpt>
      <trkpt lat="45.07028" lon="5.50216">
        <ele>833</ele>
        <time>2020-05-21T09:01:23Z</time>
      </trkpt>
      <trkpt lat="45.07035" lon="5.50195">
        <ele>831</ele>
        <time>2020-05-21T09:01:26Z</time>
      </trkpt>
      <trkpt lat="45.0704" lon="5.50174">
        <ele>830</ele>
        <time>2020-05-21T09:01:29Z</time>
      </trkpt>
      <trkpt lat="45.07044" lon="5.5015">
        <ele>828</ele>
        <time>2020-05-21T09:01:32Z</time>
      </trkpt>
      <trkpt lat="45.07049" lon="5.50134">
        <ele>827</ele>
        <time>2020-05-21T09:01:35Z</time>
      </trkpt>
      <trkpt lat="45.0706" lon="5.50094">
        <ele>825</ele>
        <time>2020-05-21T09:01:38Z</time>
      </trkpt>
      <trkpt lat="45.07066" lon="5.5006">
        <ele>824</ele>
        <time>2020-05-21T09:01:41Z</time>
      </trkpt>
      <trkpt lat="45.07071" lon="5.5003">
        <ele>823</ele>
        <time>2020-05-21T09:01:44Z</time>
      </trkpt>
      <trkpt lat="45.07078" lon="5.49977">
        <ele>823</ele>
        <time>2020-05-21T09:01:48Z</time>
      </trkpt>
      <trkpt lat="45.07082" lon="5.4995">
        <ele>822</ele>
        <time>2020-05-21T09:01:52Z</time>
      </trkpt>
      <trkpt lat="45.07091" lon="5.49896">
        <ele>822</ele>
        <time>2020-05-21T09:01:55Z</time>
      </trkpt>
      <trkpt lat="45.0711" lon="5.49838">
        <ele>821</ele>
        <time>2020-05-21T09:01:58Z</time>
      </trkpt>
      <trkpt lat="45.07131" lon="5.49796">
        <ele>820</ele>
        <time>2020-05-21T09:02:01Z</time>
      </trkpt>
      <trkpt lat="45.07179" lon="5.49778">
        <ele>819</ele>
        <time>2020-05-21T09:02:04Z</time>
      </trkpt>
      <trkpt lat="45.07195" lon="5.49723">
        <ele>818</ele>
        <time>2020-05-21T09:02:07Z</time>
      </trkpt>
      <trkpt lat="45.072" lon="5.49672">
        <ele>816</ele>
        <time>2020-05-21T09:02:10Z</time>
      </trkpt>
      <trkpt lat="45.072" lon="5.49595">
        <ele>814</ele>
        <time>2020-05-21T09:02:13Z</time>
      </trkpt>
      <trkpt lat="45.07202" lon="5.49543">
        <ele>813</ele>
        <time>2020-05-21T09:02:16Z</time>
      </trkpt>
      <trkpt lat="45.0719" lon="5.49506">
        <ele>812</ele>
        <time>2020-05-21T09:02:19Z</time>
      </trkpt>
      <trkpt lat="45.07176" lon="5.49455">
        <ele>814</ele>
        <time>2020-05-21T09:02:22Z</time>
      </trkpt>
      <trkpt lat="45.07174" lon="5.49404">
        <ele>814</ele>
        <time>2020-05-21T09:02:25Z</time>
      </trkpt>
      <trkpt lat="45.07173" lon="5.49339">
        <ele>813</ele>
        <time>2020-05-21T09:02:29Z</time>
      </trkpt>
      <trkpt lat="45.07196" lon="5.49298">
        <ele>813</ele>
        <time>2020-05-21T09:02:32Z</time>
      </trkpt>
      <trkpt lat="45.07239" lon="5.49276">
        <ele>812</ele>
        <time>2020-05-21T09:02:35Z</time>
      </trkpt>
      <trkpt lat="45.07274" lon="5.4926">
        <ele>812</ele>
        <time>2020-05-21T09:02:39Z</time>
      </trkpt>
      <trkpt lat="45.07305" lon="5.49238">
        <ele>811</ele>
        <time>2020-05-21T09:02:42Z</time>
      </trkpt>
      <trkpt lat="45.07332" lon="5.49221">
        <ele>810</ele>
        <time>2020-05-21T09:02:45Z</time>
      </trkpt>
      <trkpt lat="45.07359" lon="5.49212">
        <ele>808</ele>
        <time>2020-05-21T09:02:48Z</time>
      </trkpt>
      <trkpt lat="45.07378" lon="5.49213">
        <ele>807</ele>
        <time>2020-05-21T09:02:51Z</time>
      </trkpt>
      <trkpt lat="45.07387" lon="5.49217">
        <ele>805</ele>
        <time>2020-05-21T09:02:54Z</time>
      </trkpt>
      <trkpt lat="45.07398" lon="5.49164">
        <ele>804</ele>
        <time>2020-05-21T09:02:57Z</time>
      </trkpt>
      <trkpt lat="45.07405" lon="5.49134">
        <ele>804</ele>
        <time>2020-05-21T09:03:00Z</time>
      </trkpt>
      <trkpt lat="45.07417" lon="5.49095">
        <ele>803</ele>
        <time>2020-05-21T09:03:03Z</time>
      </trkpt>
      <trkpt lat="45.07458" lon="5.49035">
        <ele>802</ele>
        <time>2020-05-21T09:03:06Z</time>
      </trkpt>
      <trkpt lat="45.07496" lon="5.48999">
        <ele>801</ele>
        <time>2020-05-21T09:03:09Z</time>
      </trkpt>
      <trkpt lat="45.07531" lon="5.48968">
        <ele>799</ele>
        <time>2020-05-21T09:03:12Z</time>
      </trkpt>
      <trkpt lat="45.07554" lon="5.4895">
        <ele>798</ele>
        <time>2020-05-21T09:03:15Z</time>
      </trkpt>
      <trkpt lat="45.07581" lon="5.48931">
        <ele>798</ele>
        <time>2020-05-21T09:03:19Z</time>
      </trkpt>
      <trkpt lat="45.07605" lon="5.48901">
        <ele>798</ele>
        <time>2020-05-21T09:03:22Z</time>
      </trkpt>
      <trkpt lat="45.07641" lon="5.48856">
        <ele>797</ele>
        <time>2020-05-21T09:03:26Z</time>
      </trkpt>
      <trkpt lat="45.0768" lon="5.48819">
        <ele>796</ele>
        <time>2020-05-21T09:03:29Z</time>
      </trkpt>
      <trkpt lat="45.07712" lon="5.48797">
        <ele>796</ele>
        <time>2020-05-21T09:03:32Z</time>
      </trkpt>
      <trkpt lat="45.07745" lon="5.48785">
        <ele>796</ele>
        <time>2020-05-21T09:03:35Z</time>
      </trkpt>
      <trkpt lat="45.07777" lon="5.48759">
        <ele>795</ele>
        <time>2020-05-21T09:03:38Z</time>
      </trkpt>
      <trkpt lat="45.07819" lon="5.48711">
        <ele>795</ele>
        <time>2020-05-21T09:03:41Z</time>
      </trkpt>
      <trkpt lat="45.07856" lon="5.48677">
        <ele>794</ele>
        <time>2020-05-21T09:03:44Z</time>
      </trkpt>
      <trkpt lat="45.07888" lon="5.48651">
        <ele>793</ele>
        <time>2020-05-21T09:03:47Z</time>
      </trkpt>
      <trkpt lat="45.07923" lon="5.48617">
        <ele>790</ele>
        <time>2020-05-21T09:03:51Z</time>
      </trkpt>
      <trkpt lat="45.07955" lon="5.48614">
        <ele>788</ele>
        <time>2020-05-21T09:03:54Z</time>
      </trkpt>
      <trkpt lat="45.0797" lon="5.48607">
        <ele>788</ele>
        <time>2020-05-21T09:03:57Z</time>
      </trkpt>
      <trkpt lat="45.07973" lon="5.48559">
        <ele>787</ele>
        <time>2020-05-21T09:04:00Z</time>
      </trkpt>
      <trkpt lat="45.07978" lon="5.4849">
        <ele>787</ele>
        <time>2020-05-21T09:04:03Z</time>
      </trkpt>
      <trkpt lat="45.07995" lon="5.48415">
        <ele>787</ele>
        <time>2020-05-21T09:04:07Z</time>
      </trkpt>
      <trkpt lat="45.07995" lon="5.4836">
        <ele>787</ele>
        <time>2020-05-21T09:04:10Z</time>
      </trkpt>
      <trkpt lat="45.07988" lon="5.48313">
        <ele>787</ele>
        <time>2020-05-21T09:04:13Z</time>
      </trkpt>
      <trkpt lat="45.07999" lon="5.48281">
        <ele>788</ele>
        <time>2020-05-21T09:04:16Z</time>
      </trkpt>
      <trkpt lat="45.08038" lon="5.48271">
        <ele>788</ele>
        <time>2020-05-21T09:04:19Z</time>
      </trkpt>
      <trkpt lat="45.08083" lon="5.48266">
        <ele>788</ele>
        <time>2020-05-21T09:04:22Z</time>
      </trkpt>
      <trkpt lat="45.08127" lon="5.48257">
        <ele>787</ele>
        <time>2020-05-21T09:04:25Z</time>
      </trkpt>
      <trkpt lat="45.08163" lon="5.48248">
        <ele>787</ele>
        <time>2020-05-21T09:04:28Z</time>
      </trkpt>
      <trkpt lat="45.08192" lon="5.48244">
        <ele>787</ele>
        <time>2020-05-21T09:04:31Z</time>
      </trkpt>
      <trkpt lat="45.08212" lon="5.48238">
        <ele>788</ele>
        <time>2020-05-21T09:04:34Z</time>
      </trkpt>
      <trkpt lat="45.08234" lon="5.4822">
        <ele>789</ele>
        <time>2020-05-21T09:04:38Z</time>
      </trkpt>
      <trkpt lat="45.08257" lon="5.48176">
        <ele>789</ele>
        <time>2020-05-21T09:04:41Z</time>
      </trkpt>
      <trkpt lat="45.08276" lon="5.48138">
        <ele>791</ele>
        <time>2020-05-21T09:04:44Z</time>
      </trkpt>
      <trkpt lat="45.08276" lon="5.48092">
        <ele>794</ele>
        <time>2020-05-21T09:04:47Z</time>
      </trkpt>
      <trkpt lat="45.08281" lon="5.48059">
        <ele>795</ele>
        <time>2020-05-21T09:04:50Z</time>
      </trkpt>
      <trkpt lat="45.08306" lon="5.48011">
        <ele>796</ele>
        <time>2020-05-21T09:04:53Z</time>
      </trkpt>
      <trkpt lat="45.08331" lon="5.47966">
        <ele>797</ele>
        <time>2020-05-21T09:04:56Z</time>
      </trkpt>
      <trkpt lat="45.08355" lon="5.47932">
        <ele>798</ele>
        <time>2020-05-21T09:04:59Z</time>
      </trkpt>
      <trkpt lat="45.08377" lon="5.47902">
        <ele>801</ele>
        <time>2020-05-21T09:05:02Z</time>
      </trkpt>
      <trkpt lat="45.08383" lon="5.4788">
        <ele>803</ele>
        <time>2020-05-21T09:05:05Z</time>
      </trkpt>
      <trkpt lat="45.08375" lon="5.47832">
        <ele>805</ele>
        <time>2020-05-21T09:05:09Z</time>
      </trkpt>
      <trkpt lat="45.0835" lon="5.47781">
        <ele>808</ele>
        <time>2020-05-21T09:05:12Z</time>
      </trkpt>
      <trkpt lat="45.08331" lon="5.47742">
        <ele>810</ele>
        <time>2020-05-21T09:05:15Z</time>
      </trkpt>
      <trkpt lat="45.08315" lon="5.47705">
        <ele>812</ele>
        <time>2020-05-21T09:05:18Z</time>
      </trkpt>
      <trkpt lat="45.08308" lon="5.47657">
        <ele>813</ele>
        <time>2020-05-21T09:05:21Z</time>
      </trkpt>
      <trkpt lat="45.08303" lon="5.47609">
        <ele>814</ele>
        <time>2020-05-21T09:05:24Z</time>
      </trkpt>
      <trkpt lat="45.08285" lon="5.47549">
        <ele>815</ele>
        <time>2020-05-21T09:05:27Z</time>
      </trkpt>
      <trkpt lat="45.0828" lon="5.47494">
        <ele>815</ele>
        <time>2020-05-21T09:05:30Z</time>
      </trkpt>
      <trkpt lat="45.08291" lon="5.47442">
        <ele>817</ele>
        <time>2020-05-21T09:05:33Z</time>
      </trkpt>
      <trkpt lat="45.08294" lon="5.47407">
        <ele>819</ele>
        <time>2020-05-21T09:05:36Z</time>
      </trkpt>
      <trkpt lat="45.08287" lon="5.47352">
        <ele>822</ele>
        <time>2020-05-21T09:05:39Z</time>
      </trkpt>
      <trkpt lat="45.08265" lon="5.47305">
        <ele>823</ele>
        <time>2020-05-21T09:05:42Z</time>
      </trkpt>
      <trkpt lat="45.08257" lon="5.47241">
        <ele>824</ele>
        <time>2020-05-21T09:05:46Z</time>
      </trkpt>
      <trkpt lat="45.08256" lon="5.47189">
        <ele>826</ele>
        <time>2020-05-21T09:05:49Z</time>
      </trkpt>
      <trkpt lat="45.08245" lon="5.47133">
        <ele>829</ele>
        <time>2020-05-21T09:05:52Z</time>
      </trkpt>
      <trkpt lat="45.08224" lon="5.47082">
        <ele>832</ele>
        <time>2020-05-21T09:05:55Z</time>
      </trkpt>
      <trkpt lat="45.08194" lon="5.47042">
        <ele>834</ele>
        <time>2020-05-21T09:05:58Z</time>
      </trkpt>
      <trkpt lat="45.0817" lon="5.47021">
        <ele>835</ele>
        <time>2020-05-21T09:06:01Z</time>
      </trkpt>
      <trkpt lat="45.08131" lon="5.4699">
        <ele>836</ele>
        <time>2020-05-21T09:06:04Z</time>
      </trkpt>
      <trkpt lat="45.08089" lon="5.46958">
        <ele>837</ele>
        <time>2020-05-21T09:06:07Z</time>
      </trkpt>
      <trkpt lat="45.08059" lon="5.46923">
        <ele>837</ele>
        <time>2020-05-21T09:06:10Z</time>
      </trkpt>
      <trkpt lat="45.08041" lon="5.46885">
        <ele>839</ele>
        <time>2020-05-21T09:06:13Z</time>
      </trkpt>
      <trkpt lat="45.08044" lon="5.46837">
        <ele>841</ele>
        <time>2020-05-21T09:06:17Z</time>
      </trkpt>
      <trkpt lat="45.08044" lon="5.46789">
        <ele>845</ele>
        <time>2020-05-21T09:06:20Z</time>
      </trkpt>
      <trkpt lat="45.08026" lon="5.46755">
        <ele>849</ele>
        <time>2020-05-21T09:06:23Z</time>
      </trkpt>
      <trkpt lat="45.07991" lon="5.46731">
        <ele>854</ele>
        <time>2020-05-21T09:06:26Z</time>
      </trkpt>
      <trkpt lat="45.07973" lon="5.46701">
        <ele>855</ele>
        <time>2020-05-21T09:06:29Z</time>
      </trkpt>
      <trkpt lat="45.07967" lon="5.46686">
        <ele>855</ele>
        <time>2020-05-21T09:06:32Z</time>
      </trkpt>
      <trkpt lat="45.07982" lon="5.46719">
        <ele>873</ele>
        <time>2020-05-21T09:06:53Z</time>
      </trkpt>
      <trkpt lat="45.08021" lon="5.46752">
        <ele>880</ele>
        <time>2020-05-21T09:06:57Z</time>
      </trkpt>
      <trkpt lat="45.08044" lon="5.46792">
        <ele>881</ele>
        <time>2020-05-21T09:07:00Z</time>
      </trkpt>
      <trkpt lat="45.08043" lon="5.46848">
        <ele>881</ele>
        <time>2020-05-21T09:07:04Z</time>
      </trkpt>
      <trkpt lat="45.08043" lon="5.46894">
        <ele>881</ele>
        <time>2020-05-21T09:07:07Z</time>
      </trkpt>
      <trkpt lat="45.08059" lon="5.46923">
        <ele>880</ele>
        <time>2020-05-21T09:07:10Z</time>
      </trkpt>
      <trkpt lat="45.08092" lon="5.4696">
        <ele>879</ele>
        <time>2020-05-21T09:07:13Z</time>
      </trkpt>
      <trkpt lat="45.08124" lon="5.46984">
        <ele>878</ele>
        <time>2020-05-21T09:07:16Z</time>
      </trkpt>
      <trkpt lat="45.08157" lon="5.47009">
        <ele>876</ele>
        <time>2020-05-21T09:07:19Z</time>
      </trkpt>
      <trkpt lat="45.0819" lon="5.47039">
        <ele>874</ele>
        <time>2020-05-21T09:07:22Z</time>
      </trkpt>
      <trkpt lat="45.08229" lon="5.47091">
        <ele>869</ele>
        <time>2020-05-21T09:07:26Z</time>
      </trkpt>
      <trkpt lat="45.08251" lon="5.4715">
        <ele>865</ele>
        <time>2020-05-21T09:07:29Z</time>
      </trkpt>
      <trkpt lat="45.08258" lon="5.47221">
        <ele>860</ele>
        <time>2020-05-21T09:07:33Z</time>
      </trkpt>
      <trkpt lat="45.08258" lon="5.47271">
        <ele>859</ele>
        <time>2020-05-21T09:07:36Z</time>
      </trkpt>
      <trkpt lat="45.08268" lon="5.47311">
        <ele>858</ele>
        <time>2020-05-21T09:07:39Z</time>
      </trkpt>
      <trkpt lat="45.08283" lon="5.47344">
        <ele>856</ele>
        <time>2020-05-21T09:07:42Z</time>
      </trkpt>
      <trkpt lat="45.08294" lon="5.47412">
        <ele>854</ele>
        <time>2020-05-21T09:07:46Z</time>
      </trkpt>
      <trkpt lat="45.08285" lon="5.47467">
        <ele>852</ele>
        <time>2020-05-21T09:07:49Z</time>
      </trkpt>
      <trkpt lat="45.08279" lon="5.47513">
        <ele>851</ele>
        <time>2020-05-21T09:07:52Z</time>
      </trkpt>
      <trkpt lat="45.08296" lon="5.47583">
        <ele>848</ele>
        <time>2020-05-21T09:07:56Z</time>
      </trkpt>
      <trkpt lat="45.08308" lon="5.47631">
        <ele>845</ele>
        <time>2020-05-21T09:07:59Z</time>
      </trkpt>
      <trkpt lat="45.08311" lon="5.47688">
        <ele>842</ele>
        <time>2020-05-21T09:08:02Z</time>
      </trkpt>
      <trkpt lat="45.08325" lon="5.47729">
        <ele>839</ele>
        <time>2020-05-21T09:08:05Z</time>
      </trkpt>
      <trkpt lat="45.0834" lon="5.47761">
        <ele>836</ele>
        <time>2020-05-21T09:08:08Z</time>
      </trkpt>
      <trkpt lat="45.08362" lon="5.47806">
        <ele>835</ele>
        <time>2020-05-21T09:08:11Z</time>
      </trkpt>
      <trkpt lat="45.08378" lon="5.47843">
        <ele>834</ele>
        <time>2020-05-21T09:08:14Z</time>
      </trkpt>
      <trkpt lat="45.08383" lon="5.47884">
        <ele>834</ele>
        <time>2020-05-21T09:08:17Z</time>
      </trkpt>
      <trkpt lat="45.0836" lon="5.47925">
        <ele>833</ele>
        <time>2020-05-21T09:08:20Z</time>
      </trkpt>
      <trkpt lat="45.0833" lon="5.47968">
        <ele>831</ele>
        <time>2020-05-21T09:08:23Z</time>
      </trkpt>
      <trkpt lat="45.08306" lon="5.48011">
        <ele>830</ele>
        <time>2020-05-21T09:08:26Z</time>
      </trkpt>
      <trkpt lat="45.08286" lon="5.48049">
        <ele>828</ele>
        <time>2020-05-21T09:08:29Z</time>
      </trkpt>
      <trkpt lat="45.08275" lon="5.48079">
        <ele>826</ele>
        <time>2020-05-21T09:08:32Z</time>
      </trkpt>
      <trkpt lat="45.08277" lon="5.48099">
        <ele>825</ele>
        <time>2020-05-21T09:08:35Z</time>
      </trkpt>
      <trkpt lat="45.0828" lon="5.48122">
        <ele>824</ele>
        <time>2020-05-21T09:08:38Z</time>
      </trkpt>
      <trkpt lat="45.08257" lon="5.48177">
        <ele>822</ele>
        <time>2020-05-21T09:08:41Z</time>
      </trkpt>
      <trkpt lat="45.08238" lon="5.48214">
        <ele>820</ele>
        <time>2020-05-21T09:08:44Z</time>
      </trkpt>
      <trkpt lat="45.08215" lon="5.48237">
        <ele>820</ele>
        <time>2020-05-21T09:08:47Z</time>
      </trkpt>
      <trkpt lat="45.08174" lon="5.48247">
        <ele>819</ele>
        <time>2020-05-21T09:08:50Z</time>
      </trkpt>
      <trkpt lat="45.08116" lon="5.4826">
        <ele>816</ele>
        <time>2020-05-21T09:08:54Z</time>
      </trkpt>
      <trkpt lat="45.08076" lon="5.48267">
        <ele>814</ele>
        <time>2020-05-21T09:08:57Z</time>
      </trkpt>
      <trkpt lat="45.08029" lon="5.48272">
        <ele>811</ele>
        <time>2020-05-21T09:09:00Z</time>
      </trkpt>
      <trkpt lat="45.07995" lon="5.48285">
        <ele>810</ele>
        <time>2020-05-21T09:09:03Z</time>
      </trkpt>
      <trkpt lat="45.07988" lon="5.48316">
        <ele>809</ele>
        <time>2020-05-21T09:09:06Z</time>
      </trkpt>
      <trkpt lat="45.07991" lon="5.4834">
        <ele>809</ele>
        <time>2020-05-21T09:09:09Z</time>
      </trkpt>
      <trkpt lat="45.07998" lon="5.48384">
        <ele>807</ele>
        <time>2020-05-21T09:09:12Z</time>
      </trkpt>
      <trkpt lat="45.07989" lon="5.48441">
        <ele>806</ele>
        <time>2020-05-21T09:09:15Z</time>
      </trkpt>
      <trkpt lat="45.07976" lon="5.48507">
        <ele>805</ele>
        <time>2020-05-21T09:09:18Z</time>
      </trkpt>
      <trkpt lat="45.07973" lon="5.48573">
        <ele>804</ele>
        <time>2020-05-21T09:09:21Z</time>
      </trkpt>
      <trkpt lat="45.07967" lon="5.4861">
        <ele>803</ele>
        <time>2020-05-21T09:09:24Z</time>
      </trkpt>
      <trkpt lat="45.07944" lon="5.48615">
        <ele>802</ele>
        <time>2020-05-21T09:09:27Z</time>
      </trkpt>
      <trkpt lat="45.0791" lon="5.48623">
        <ele>801</ele>
        <time>2020-05-21T09:09:30Z</time>
      </trkpt>
      <trkpt lat="45.07884" lon="5.48654">
        <ele>800</ele>
        <time>2020-05-21T09:09:33Z</time>
      </trkpt>
      <trkpt lat="45.07838" lon="5.48692">
        <ele>799</ele>
        <time>2020-05-21T09:09:36Z</time>
      </trkpt>
      <trkpt lat="45.07812" lon="5.48718">
        <ele>798</ele>
        <time>2020-05-21T09:09:39Z</time>
      </trkpt>
      <trkpt lat="45.07776" lon="5.4876">
        <ele>796</ele>
        <time>2020-05-21T09:09:42Z</time>
      </trkpt>
      <trkpt lat="45.07745" lon="5.48785">
        <ele>796</ele>
        <time>2020-05-21T09:09:45Z</time>
      </trkpt>
      <trkpt lat="45.07711" lon="5.48797">
        <ele>795</ele>
        <time>2020-05-21T09:09:49Z</time>
      </trkpt>
      <trkpt lat="45.0766" lon="5.48837">
        <ele>794</ele>
        <time>2020-05-21T09:09:52Z</time>
      </trkpt>
      <trkpt lat="45.07622" lon="5.48878">
        <ele>793</ele>
        <time>2020-05-21T09:09:55Z</time>
      </trkpt>
      <trkpt lat="45.07594" lon="5.48916">
        <ele>793</ele>
        <time>2020-05-21T09:09:58Z</time>
      </trkpt>
      <trkpt lat="45.07571" lon="5.48939">
        <ele>792</ele>
        <time>2020-05-21T09:10:01Z</time>
      </trkpt>
      <trkpt lat="45.07533" lon="5.48966">
        <ele>791</ele>
        <time>2020-05-21T09:10:04Z</time>
      </trkpt>
      <trkpt lat="45.07492" lon="5.49002">
        <ele>791</ele>
        <time>2020-05-21T09:10:08Z</time>
      </trkpt>
      <trkpt lat="45.07468" lon="5.49025">
        <ele>792</ele>
        <time>2020-05-21T09:10:11Z</time>
      </trkpt>
      <trkpt lat="45.07429" lon="5.49071">
        <ele>794</ele>
        <time>2020-05-21T09:10:14Z</time>
      </trkpt>
      <trkpt lat="45.07411" lon="5.49111">
        <ele>794</ele>
        <time>2020-05-21T09:10:18Z</time>
      </trkpt>
      <trkpt lat="45.07402" lon="5.49149">
        <ele>793</ele>
        <time>2020-05-21T09:10:21Z</time>
      </trkpt>
      <trkpt lat="45.07389" lon="5.49185">
        <ele>792</ele>
        <time>2020-05-21T09:10:24Z</time>
      </trkpt>
      <trkpt lat="45.07382" lon="5.49201">
        <ele>792</ele>
        <time>2020-05-21T09:10:27Z</time>
      </trkpt>
      <trkpt lat="45.07377" lon="5.49212">
        <ele>792</ele>
        <time>2020-05-21T09:10:30Z</time>
      </trkpt>
      <trkpt lat="45.07407" lon="5.49233">
        <ele>789</ele>
        <time>2020-05-21T09:10:33Z</time>
      </trkpt>
      <trkpt lat="45.07421" lon="5.49237">
        <ele>784</ele>
        <time>2020-05-21T09:10:37Z</time>
      </trkpt>
      <trkpt lat="45.07435" lon="5.49232">
        <ele>780</ele>
        <time>2020-05-21T09:10:40Z</time>
      </trkpt>
      <trkpt lat="45.07449" lon="5.49219">
        <ele>772</ele>
        <time>2020-05-21T09:10:43Z</time>
      </trkpt>
      <trkpt lat="45.07523" lon="5.49149">
        <ele>766</ele>
        <time>2020-05-21T09:10:46Z</time>
      </trkpt>
      <trkpt lat="45.07575" lon="5.49119">
        <ele>763</ele>
        <time>2020-05-21T09:10:49Z</time>
      </trkpt>
      <trkpt lat="45.07618" lon="5.49084">
        <ele>761</ele>
        <time>2020-05-21T09:10:52Z</time>
      </trkpt>
      <trkpt lat="45.07655" lon="5.49052">
        <ele>760</ele>
        <time>2020-05-21T09:10:55Z</time>
      </trkpt>
      <trkpt lat="45.077" lon="5.4903">
        <ele>760</ele>
        <time>2020-05-21T09:10:58Z</time>
      </trkpt>
      <trkpt lat="45.0775" lon="5.49014">
        <ele>760</ele>
        <time>2020-05-21T09:11:01Z</time>
      </trkpt>
      <trkpt lat="45.07794" lon="5.49003">
        <ele>760</ele>
        <time>2020-05-21T09:11:05Z</time>
      </trkpt>
      <trkpt lat="45.07846" lon="5.49005">
        <ele>759</ele>
        <time>2020-05-21T09:11:08Z</time>
      </trkpt>
      <trkpt lat="45.07885" lon="5.48991">
        <ele>759</ele>
        <time>2020-05-21T09:11:11Z</time>
      </trkpt>
      <trkpt lat="45.07931" lon="5.48963">
        <ele>758</ele>
        <time>2020-05-21T09:11:14Z</time>
      </trkpt>
      <trkpt lat="45.07988" lon="5.48931">
        <ele>757</ele>
        <time>2020-05-21T09:11:17Z</time>
      </trkpt>
      <trkpt lat="45.0805" lon="5.48902">
        <ele>755</ele>
        <time>2020-05-21T09:11:20Z</time>
      </trkpt>
      <trkpt lat="45.08114" lon="5.48866">
        <ele>753</ele>
        <time>2020-05-21T09:11:23Z</time>
      </trkpt>
      <trkpt lat="45.08158" lon="5.48828">
        <ele>752</ele>
        <time>2020-05-21T09:11:26Z</time>
      </trkpt>
      <trkpt lat="45.08179" lon="5.48778">
        <ele>753</ele>
        <time>2020-05-21T09:11:29Z</time>
      </trkpt>
      <trkpt lat="45.08185" lon="5.48696">
        <ele>753</ele>
        <time>2020-05-21T09:11:33Z</time>
      </trkpt>
      <trkpt lat="45.08186" lon="5.48677">
        <ele>753</ele>
        <time>2020-05-21T09:11:36Z</time>
      </trkpt>
      <trkpt lat="45.08196" lon="5.48574">
        <ele>753</ele>
        <time>2020-05-21T09:11:39Z</time>
      </trkpt>
      <trkpt lat="45.0821" lon="5.48543">
        <ele>751</ele>
        <time>2020-05-21T09:11:42Z</time>
      </trkpt>
      <trkpt lat="45.08241" lon="5.4851">
        <ele>749</ele>
        <time>2020-05-21T09:11:45Z</time>
      </trkpt>
      <trkpt lat="45.08304" lon="5.48486">
        <ele>746</ele>
        <time>2020-05-21T09:11:48Z</time>
      </trkpt>
      <trkpt lat="45.08348" lon="5.48476">
        <ele>745</ele>
        <time>2020-05-21T09:11:51Z</time>
      </trkpt>
      <trkpt lat="45.08381" lon="5.48462">
        <ele>744</ele>
        <time>2020-05-21T09:11:54Z</time>
      </trkpt>
      <trkpt lat="45.084" lon="5.48428">
        <ele>743</ele>
        <time>2020-05-21T09:11:57Z</time>
      </trkpt>
      <trkpt lat="45.08408" lon="5.48374">
        <ele>742</ele>
        <time>2020-05-21T09:12:00Z</time>
      </trkpt>
      <trkpt lat="45.08417" lon="5.48327">
        <ele>741</ele>
        <time>2020-05-21T09:12:03Z</time>
      </trkpt>
      <trkpt lat="45.08415" lon="5.48278">
        <ele>740</ele>
        <time>2020-05-21T09:12:06Z</time>
      </trkpt>
      <trkpt lat="45.08425" lon="5.48221">
        <ele>740</ele>
        <time>2020-05-21T09:12:09Z</time>
      </trkpt>
      <trkpt lat="45.08436" lon="5.48186">
        <ele>742</ele>
        <time>2020-05-21T09:12:12Z</time>
      </trkpt>
      <trkpt lat="45.08469" lon="5.48131">
        <ele>742</ele>
        <time>2020-05-21T09:12:15Z</time>
      </trkpt>
      <trkpt lat="45.08503" lon="5.48079">
        <ele>742</ele>
        <time>2020-05-21T09:12:18Z</time>
      </trkpt>
      <trkpt lat="45.08523" lon="5.48017">
        <ele>741</ele>
        <time>2020-05-21T09:12:21Z</time>
      </trkpt>
      <trkpt lat="45.08541" lon="5.47962">
        <ele>739</ele>
        <time>2020-05-21T09:12:24Z</time>
      </trkpt>
      <trkpt lat="45.08567" lon="5.47899">
        <ele>738</ele>
        <time>2020-05-21T09:12:27Z</time>
      </trkpt>
      <trkpt lat="45.08583" lon="5.47823">
        <ele>737</ele>
        <time>2020-05-21T09:12:31Z</time>
      </trkpt>
      <trkpt lat="45.08601" lon="5.47771">
        <ele>736</ele>
        <time>2020-05-21T09:12:34Z</time>
      </trkpt>
      <trkpt lat="45.08629" lon="5.47707">
        <ele>735</ele>
        <time>2020-05-21T09:12:37Z</time>
      </trkpt>
      <trkpt lat="45.08656" lon="5.47645">
        <ele>734</ele>
        <time>2020-05-21T09:12:40Z</time>
      </trkpt>
      <trkpt lat="45.08695" lon="5.47576">
        <ele>732</ele>
        <time>2020-05-21T09:12:43Z</time>
      </trkpt>
      <trkpt lat="45.08725" lon="5.47512">
        <ele>730</ele>
        <time>2020-05-21T09:12:46Z</time>
      </trkpt>
      <trkpt lat="45.08742" lon="5.47474">
        <ele>729</ele>
        <time>2020-05-21T09:12:49Z</time>
      </trkpt>
      <trkpt lat="45.08764" lon="5.47418">
        <ele>727</ele>
        <time>2020-05-21T09:12:53Z</time>
      </trkpt>
      <trkpt lat="45.08791" lon="5.47357">
        <ele>726</ele>
        <time>2020-05-21T09:12:56Z</time>
      </trkpt>
      <trkpt lat="45.08835" lon="5.47282">
        <ele>724</ele>
        <time>2020-05-21T09:12:59Z</time>
      </trkpt>
      <trkpt lat="45.08869" lon="5.47227">
        <ele>723</ele>
        <time>2020-05-21T09:13:02Z</time>
      </trkpt>
      <trkpt lat="45.08904" lon="5.47172">
        <ele>721</ele>
        <time>2020-05-21T09:13:06Z</time>
      </trkpt>
      <trkpt lat="45.08935" lon="5.47123">
        <ele>720</ele>
        <time>2020-05-21T09:13:09Z</time>
      </trkpt>
      <trkpt lat="45.08964" lon="5.47097">
        <ele>719</ele>
        <time>2020-05-21T09:13:12Z</time>
      </trkpt>
      <trkpt lat="45.08975" lon="5.47044">
        <ele>718</ele>
        <time>2020-05-21T09:13:15Z</time>
      </trkpt>
      <trkpt lat="45.0898" lon="5.47">
        <ele>718</ele>
        <time>2020-05-21T09:13:18Z</time>
      </trkpt>
      <trkpt lat="45.08973" lon="5.46953">
        <ele>717</ele>
        <time>2020-05-21T09:13:21Z</time>
      </trkpt>
      <trkpt lat="45.08958" lon="5.46921">
        <ele>716</ele>
        <time>2020-05-21T09:13:24Z</time>
      </trkpt>
      <trkpt lat="45.08922" lon="5.46886">
        <ele>716</ele>
        <time>2020-05-21T09:13:27Z</time>
      </trkpt>
      <trkpt lat="45.08893" lon="5.46866">
        <ele>715</ele>
        <time>2020-05-21T09:13:30Z</time>
      </trkpt>
      <trkpt lat="45.0887" lon="5.46856">
        <ele>714</ele>
        <time>2020-05-21T09:13:34Z</time>
      </trkpt>
      <trkpt lat="45.08847" lon="5.46844">
        <ele>714</ele>
        <time>2020-05-21T09:13:37Z</time>
      </trkpt>
      <trkpt lat="45.0883" lon="5.46822">
        <ele>713</ele>
        <time>2020-05-21T09:13:40Z</time>
      </trkpt>
      <trkpt lat="45.08823" lon="5.46806">
        <ele>713</ele>
        <time>2020-05-21T09:13:43Z</time>
      </trkpt>
      <trkpt lat="45.08815" lon="5.46785">
        <ele>712</ele>
        <time>2020-05-21T09:13:46Z</time>
      </trkpt>
      <trkpt lat="45.08799" lon="5.46738">
        <ele>712</ele>
        <time>2020-05-21T09:13:49Z</time>
      </trkpt>
      <trkpt lat="45.08782" lon="5.46686">
        <ele>712</ele>
        <time>2020-05-21T09:13:53Z</time>
      </trkpt>
      <trkpt lat="45.08771" lon="5.46659">
        <ele>712</ele>
        <time>2020-05-21T09:13:56Z</time>
      </trkpt>
      <trkpt lat="45.08753" lon="5.46621">
        <ele>711</ele>
        <time>2020-05-21T09:13:59Z</time>
      </trkpt>
      <trkpt lat="45.08735" lon="5.46581">
        <ele>710</ele>
        <time>2020-05-21T09:14:02Z</time>
      </trkpt>
      <trkpt lat="45.08729" lon="5.46531">
        <ele>710</ele>
        <time>2020-05-21T09:14:05Z</time>
      </trkpt>
      <trkpt lat="45.08732" lon="5.46475">
        <ele>709</ele>
        <time>2020-05-21T09:14:08Z</time>
      </trkpt>
      <trkpt lat="45.08728" lon="5.46417">
        <ele>709</ele>
        <time>2020-05-21T09:14:12Z</time>
      </trkpt>
      <trkpt lat="45.08712" lon="5.4635">
        <ele>709</ele>
        <time>2020-05-21T09:14:15Z</time>
      </trkpt>
      <trkpt lat="45.08694" lon="5.463">
        <ele>708</ele>
        <time>2020-05-21T09:14:18Z</time>
      </trkpt>
      <trkpt lat="45.08683" lon="5.46252">
        <ele>707</ele>
        <time>2020-05-21T09:14:21Z</time>
      </trkpt>
      <trkpt lat="45.08681" lon="5.462">
        <ele>706</ele>
        <time>2020-05-21T09:14:24Z</time>
      </trkpt>
      <trkpt lat="45.08679" lon="5.46164">
        <ele>706</ele>
        <time>2020-05-21T09:14:27Z</time>
      </trkpt>
      <trkpt lat="45.08665" lon="5.46117">
        <ele>707</ele>
        <time>2020-05-21T09:14:30Z</time>
      </trkpt>
      <trkpt lat="45.08643" lon="5.46069">
        <ele>706</ele>
        <time>2020-05-21T09:14:33Z</time>
      </trkpt>
      <trkpt lat="45.08611" lon="5.46036">
        <ele>706</ele>
        <time>2020-05-21T09:14:36Z</time>
      </trkpt>
      <trkpt lat="45.08575" lon="5.46013">
        <ele>706</ele>
        <time>2020-05-21T09:14:39Z</time>
      </trkpt>
      <trkpt lat="45.0854" lon="5.45987">
        <ele>705</ele>
        <time>2020-05-21T09:14:43Z</time>
      </trkpt>
      <trkpt lat="45.08506" lon="5.45959">
        <ele>705</ele>
        <time>2020-05-21T09:14:46Z</time>
      </trkpt>
      <trkpt lat="45.08477" lon="5.45928">
        <ele>703</ele>
        <time>2020-05-21T09:14:49Z</time>
      </trkpt>
      <trkpt lat="45.08436" lon="5.45885">
        <ele>702</ele>
        <time>2020-05-21T09:14:52Z</time>
      </trkpt>
      <trkpt lat="45.08406" lon="5.45853">
        <ele>702</ele>
        <time>2020-05-21T09:14:55Z</time>
      </trkpt>
      <trkpt lat="45.08388" lon="5.45834">
        <ele>702</ele>
        <time>2020-05-21T09:14:58Z</time>
      </trkpt>
      <trkpt lat="45.0836" lon="5.45805">
        <ele>701</ele>
        <time>2020-05-21T09:15:01Z</time>
      </trkpt>
      <trkpt lat="45.08333" lon="5.45775">
        <ele>700</ele>
        <time>2020-05-21T09:15:04Z</time>
      </trkpt>
      <trkpt lat="45.0831" lon="5.45758">
        <ele>699</ele>
        <time>2020-05-21T09:15:07Z</time>
      </trkpt>
      <trkpt lat="45.08288" lon="5.45761">
        <ele>698</ele>
        <time>2020-05-21T09:15:10Z</time>
      </trkpt>
      <trkpt lat="45.08254" lon="5.45769">
        <ele>698</ele>
        <time>2020-05-21T09:15:13Z</time>
      </trkpt>
      <trkpt lat="45.08219" lon="5.45756">
        <ele>697</ele>
        <time>2020-05-21T09:15:16Z</time>
      </trkpt>
      <trkpt lat="45.08193" lon="5.45727">
        <ele>698</ele>
        <time>2020-05-21T09:15:19Z</time>
      </trkpt>
      <trkpt lat="45.08178" lon="5.45706">
        <ele>698</ele>
        <time>2020-05-21T09:15:22Z</time>
      </trkpt>
      <trkpt lat="45.08159" lon="5.45687">
        <ele>699</ele>
        <time>2020-05-21T09:15:26Z</time>
      </trkpt>
      <trkpt lat="45.08144" lon="5.45675">
        <ele>698</ele>
        <time>2020-05-21T09:15:29Z</time>
      </trkpt>
      <trkpt lat="45.08104" lon="5.4564">
        <ele>697</ele>
        <time>2020-05-21T09:15:32Z</time>
      </trkpt>
      <trkpt lat="45.08071" lon="5.45611">
        <ele>695</ele>
        <time>2020-05-21T09:15:35Z</time>
      </trkpt>
      <trkpt lat="45.08044" lon="5.45586">
        <ele>693</ele>
        <time>2020-05-21T09:15:38Z</time>
      </trkpt>
      <trkpt lat="45.08022" lon="5.45565">
        <ele>692</ele>
        <time>2020-05-21T09:15:41Z</time>
      </trkpt>
      <trkpt lat="45.07996" lon="5.4554">
        <ele>690</ele>
        <time>2020-05-21T09:15:44Z</time>
      </trkpt>
      <trkpt lat="45.07964" lon="5.4551">
        <ele>688</ele>
        <time>2020-05-21T09:15:48Z</time>
      </trkpt>
      <trkpt lat="45.07932" lon="5.45479">
        <ele>686</ele>
        <time>2020-05-21T09:15:51Z</time>
      </trkpt>
      <trkpt lat="45.07891" lon="5.45446">
        <ele>682</ele>
        <time>2020-05-21T09:15:54Z</time>
      </trkpt>
      <trkpt lat="45.07861" lon="5.45421">
        <ele>679</ele>
        <time>2020-05-21T09:15:58Z</time>
      </trkpt>
      <trkpt lat="45.07832" lon="5.45393">
        <ele>675</ele>
        <time>2020-05-21T09:16:01Z</time>
      </trkpt>
      <trkpt lat="45.07803" lon="5.45363">
        <ele>673</ele>
        <time>2020-05-21T09:16:04Z</time>
      </trkpt>
      <trkpt lat="45.07781" lon="5.4533">
        <ele>670</ele>
        <time>2020-05-21T09:16:07Z</time>
      </trkpt>
      <trkpt lat="45.07772" lon="5.45296">
        <ele>668</ele>
        <time>2020-05-21T09:16:10Z</time>
      </trkpt>
      <trkpt lat="45.07772" lon="5.45266">
        <ele>668</ele>
        <time>2020-05-21T09:16:13Z</time>
      </trkpt>
      <trkpt lat="45.07776" lon="5.45232">
        <ele>668</ele>
        <time>2020-05-21T09:16:16Z</time>
      </trkpt>
      <trkpt lat="45.07779" lon="5.45194">
        <ele>668</ele>
        <time>2020-05-21T09:16:19Z</time>
      </trkpt>
      <trkpt lat="45.07775" lon="5.45166">
        <ele>668</ele>
        <time>2020-05-21T09:16:22Z</time>
      </trkpt>
      <trkpt lat="45.07742" lon="5.45089">
        <ele>662</ele>
        <time>2020-05-21T09:16:27Z</time>
      </trkpt>
      <trkpt lat="45.0767" lon="5.4502">
        <ele>656</ele>
        <time>2020-05-21T09:16:30Z</time>
      </trkpt>
      <trkpt lat="45.07643" lon="5.44998">
        <ele>649</ele>
        <time>2020-05-21T09:16:33Z</time>
      </trkpt>
      <trkpt lat="45.07623" lon="5.44981">
        <ele>644</ele>
        <time>2020-05-21T09:16:36Z</time>
      </trkpt>
      <trkpt lat="45.07581" lon="5.44947">
        <ele>637</ele>
        <time>2020-05-21T09:16:39Z</time>
      </trkpt>
      <trkpt lat="45.0754" lon="5.44912">
        <ele>634</ele>
        <time>2020-05-21T09:16:43Z</time>
      </trkpt>
      <trkpt lat="45.07493" lon="5.44885">
        <ele>631</ele>
        <time>2020-05-21T09:16:46Z</time>
      </trkpt>
      <trkpt lat="45.07455" lon="5.44858">
        <ele>628</ele>
        <time>2020-05-21T09:16:49Z</time>
      </trkpt>
      <trkpt lat="45.07434" lon="5.44827">
        <ele>627</ele>
        <time>2020-05-21T09:16:52Z</time>
      </trkpt>
      <trkpt lat="45.07421" lon="5.44787">
        <ele>626</ele>
        <time>2020-05-21T09:16:55Z</time>
      </trkpt>
      <trkpt lat="45.07404" lon="5.44763">
        <ele>625</ele>
        <time>2020-05-21T09:16:58Z</time>
      </trkpt>
      <trkpt lat="45.07351" lon="5.44733">
        <ele>624</ele>
        <time>2020-05-21T09:17:01Z</time>
      </trkpt>
      <trkpt lat="45.07322" lon="5.44723">
        <ele>623</ele>
        <time>2020-05-21T09:17:04Z</time>
      </trkpt>
      <trkpt lat="45.07297" lon="5.44707">
        <ele>623</ele>
        <time>2020-05-21T09:17:08Z</time>
      </trkpt>
      <trkpt lat="45.07286" lon="5.44689">
        <ele>622</ele>
        <time>2020-05-21T09:17:11Z</time>
      </trkpt>
      <trkpt lat="45.07277" lon="5.44662">
        <ele>621</ele>
        <time>2020-05-21T09:17:14Z</time>
      </trkpt>
      <trkpt lat="45.07274" lon="5.44635">
        <ele>621</ele>
        <time>2020-05-21T09:17:17Z</time>
      </trkpt>
      <trkpt lat="45.07269" lon="5.44603">
        <ele>620</ele>
        <time>2020-05-21T09:17:20Z</time>
      </trkpt>
      <trkpt lat="45.07248" lon="5.44532">
        <ele>620</ele>
        <time>2020-05-21T09:17:23Z</time>
      </trkpt>
      <trkpt lat="45.07236" lon="5.44492">
        <ele>620</ele>
        <time>2020-05-21T09:17:26Z</time>
      </trkpt>
      <trkpt lat="45.07203" lon="5.44455">
        <ele>620</ele>
        <time>2020-05-21T09:17:30Z</time>
      </trkpt>
      <trkpt lat="45.07177" lon="5.44432">
        <ele>617</ele>
        <time>2020-05-21T09:17:33Z</time>
      </trkpt>
      <trkpt lat="45.07166" lon="5.44404">
        <ele>615</ele>
        <time>2020-05-21T09:17:36Z</time>
      </trkpt>
      <trkpt lat="45.07164" lon="5.44388">
        <ele>617</ele>
        <time>2020-05-21T09:17:39Z</time>
      </trkpt>
      <trkpt lat="45.07162" lon="5.4437">
        <ele>622</ele>
        <time>2020-05-21T09:17:43Z</time>
      </trkpt>
      <trkpt lat="45.07157" lon="5.44344">
        <ele>624</ele>
        <time>2020-05-21T09:17:46Z</time>
      </trkpt>
      <trkpt lat="45.07147" lon="5.44319">
        <ele>627</ele>
        <time>2020-05-21T09:17:49Z</time>
      </trkpt>
      <trkpt lat="45.07128" lon="5.44242">
        <ele>627</ele>
        <time>2020-05-21T09:17:52Z</time>
      </trkpt>
      <trkpt lat="45.07122" lon="5.44206">
        <ele>627</ele>
        <time>2020-05-21T09:17:55Z</time>
      </trkpt>
      <trkpt lat="45.07105" lon="5.44138">
        <ele>627</ele>
        <time>2020-05-21T09:17:58Z</time>
      </trkpt>
      <trkpt lat="45.07085" lon="5.44082">
        <ele>625</ele>
        <time>2020-05-21T09:18:01Z</time>
      </trkpt>
      <trkpt lat="45.07054" lon="5.44034">
        <ele>615</ele>
        <time>2020-05-21T09:18:04Z</time>
      </trkpt>
      <trkpt lat="45.07027" lon="5.43998">
        <ele>604</ele>
        <time>2020-05-21T09:18:07Z</time>
      </trkpt>
      <trkpt lat="45.07007" lon="5.4397">
        <ele>595</ele>
        <time>2020-05-21T09:18:11Z</time>
      </trkpt>
      <trkpt lat="45.06972" lon="5.43904">
        <ele>586</ele>
        <time>2020-05-21T09:18:14Z</time>
      </trkpt>
      <trkpt lat="45.06953" lon="5.43847">
        <ele>582</ele>
        <time>2020-05-21T09:18:18Z</time>
      </trkpt>
      <trkpt lat="45.06926" lon="5.43775">
        <ele>578</ele>
        <time>2020-05-21T09:18:21Z</time>
      </trkpt>
      <trkpt lat="45.06899" lon="5.43709">
        <ele>574</ele>
        <time>2020-05-21T09:18:24Z</time>
      </trkpt>
      <trkpt lat="45.06869" lon="5.43632">
        <ele>570</ele>
        <time>2020-05-21T09:18:27Z</time>
      </trkpt>
      <trkpt lat="45.06848" lon="5.43574">
        <ele>568</ele>
        <time>2020-05-21T09:18:31Z</time>
      </trkpt>
      <trkpt lat="45.06834" lon="5.43509">
        <ele>566</ele>
        <time>2020-05-21T09:18:34Z</time>
      </trkpt>
      <trkpt lat="45.06829" lon="5.43425">
        <ele>563</ele>
        <time>2020-05-21T09:18:37Z</time>
      </trkpt>
      <trkpt lat="45.06822" lon="5.43332">
        <ele>560</ele>
        <time>2020-05-21T09:18:41Z</time>
      </trkpt>
      <trkpt lat="45.06804" lon="5.43273">
        <ele>559</ele>
        <time>2020-05-21T09:18:44Z</time>
      </trkpt>
      <trkpt lat="45.06782" lon="5.43219">
        <ele>558</ele>
        <time>2020-05-21T09:18:48Z</time>
      </trkpt>
      <trkpt lat="45.0676" lon="5.43168">
        <ele>557</ele>
        <time>2020-05-21T09:18:51Z</time>
      </trkpt>
      <trkpt lat="45.06732" lon="5.43118">
        <ele>556</ele>
        <time>2020-05-21T09:18:55Z</time>
      </trkpt>
      <trkpt lat="45.06703" lon="5.43078">
        <ele>554</ele>
        <time>2020-05-21T09:18:58Z</time>
      </trkpt>
      <trkpt lat="45.06681" lon="5.43035">
        <ele>553</ele>
        <time>2020-05-21T09:19:01Z</time>
      </trkpt>
      <trkpt lat="45.06654" lon="5.42992">
        <ele>552</ele>
        <time>2020-05-21T09:19:04Z</time>
      </trkpt>
      <trkpt lat="45.06598" lon="5.42936">
        <ele>549</ele>
        <time>2020-05-21T09:19:07Z</time>
      </trkpt>
      <trkpt lat="45.06559" lon="5.42889">
        <ele>546</ele>
        <time>2020-05-21T09:19:11Z</time>
      </trkpt>
      <trkpt lat="45.06534" lon="5.42847">
        <ele>543</ele>
        <time>2020-05-21T09:19:14Z</time>
      </trkpt>
      <trkpt lat="45.06505" lon="5.42775">
        <ele>538</ele>
        <time>2020-05-21T09:19:17Z</time>
      </trkpt>
      <trkpt lat="45.0648" lon="5.42746">
        <ele>535</ele>
        <time>2020-05-21T09:19:20Z</time>
      </trkpt>
      <trkpt lat="45.06441" lon="5.42725">
        <ele>532</ele>
        <time>2020-05-21T09:19:24Z</time>
      </trkpt>
      <trkpt lat="45.06412" lon="5.42705">
        <ele>532</ele>
        <time>2020-05-21T09:19:27Z</time>
      </trkpt>
      <trkpt lat="45.06384" lon="5.42669">
        <ele>531</ele>
        <time>2020-05-21T09:19:31Z</time>
      </trkpt>
      <trkpt lat="45.06369" lon="5.42614">
        <ele>529</ele>
        <time>2020-05-21T09:19:34Z</time>
      </trkpt>
      <trkpt lat="45.06352" lon="5.42514">
        <ele>523</ele>
        <time>2020-05-21T09:19:37Z</time>
      </trkpt>
      <trkpt lat="45.06341" lon="5.42442">
        <ele>518</ele>
        <time>2020-05-21T09:19:41Z</time>
      </trkpt>
      <trkpt lat="45.06333" lon="5.42351">
        <ele>514</ele>
        <time>2020-05-21T09:19:44Z</time>
      </trkpt>
      <trkpt lat="45.06324" lon="5.42256">
        <ele>510</ele>
        <time>2020-05-21T09:19:47Z</time>
      </trkpt>
      <trkpt lat="45.06316" lon="5.42163">
        <ele>506</ele>
        <time>2020-05-21T09:19:50Z</time>
      </trkpt>
      <trkpt lat="45.06308" lon="5.42119">
        <ele>503</ele>
        <time>2020-05-21T09:19:53Z</time>
      </trkpt>
      <trkpt lat="45.06288" lon="5.42076">
        <ele>500</ele>
        <time>2020-05-21T09:19:56Z</time>
      </trkpt>
      <trkpt lat="45.06239" lon="5.42021">
        <ele>496</ele>
        <time>2020-05-21T09:19:59Z</time>
      </trkpt>
      <trkpt lat="45.06202" lon="5.4198">
        <ele>494</ele>
        <time>2020-05-21T09:20:02Z</time>
      </trkpt>
      <trkpt lat="45.06158" lon="5.41923">
        <ele>492</ele>
        <time>2020-05-21T09:20:06Z</time>
      </trkpt>
      <trkpt lat="45.06132" lon="5.41879">
        <ele>492</ele>
        <time>2020-05-21T09:20:09Z</time>
      </trkpt>
      <trkpt lat="45.06115" lon="5.4182">
        <ele>490</ele>
        <time>2020-05-21T09:20:12Z</time>
      </trkpt>
      <trkpt lat="45.06109" lon="5.41777">
        <ele>488</ele>
        <time>2020-05-21T09:20:15Z</time>
      </trkpt>
      <trkpt lat="45.06097" lon="5.41713">
        <ele>484</ele>
        <time>2020-05-21T09:20:18Z</time>
      </trkpt>
      <trkpt lat="45.06082" lon="5.41649">
        <ele>481</ele>
        <time>2020-05-21T09:20:22Z</time>
      </trkpt>
      <trkpt lat="45.06082" lon="5.41595">
        <ele>478</ele>
        <time>2020-05-21T09:20:25Z</time>
      </trkpt>
      <trkpt lat="45.06085" lon="5.4154">
        <ele>475</ele>
        <time>2020-05-21T09:20:28Z</time>
      </trkpt>
      <trkpt lat="45.06073" lon="5.41507">
        <ele>472</ele>
        <time>2020-05-21T09:20:31Z</time>
      </trkpt>
      <trkpt lat="45.06046" lon="5.41477">
        <ele>471</ele>
        <time>2020-05-21T09:20:34Z</time>
      </trkpt>
      <trkpt lat="45.06028" lon="5.41444">
        <ele>470</ele>
        <time>2020-05-21T09:20:37Z</time>
      </trkpt>
      <trkpt lat="45.06026" lon="5.41387">
        <ele>468</ele>
        <time>2020-05-21T09:20:40Z</time>
      </trkpt>
      <trkpt lat="45.06015" lon="5.41339">
        <ele>467</ele>
        <time>2020-05-21T09:20:43Z</time>
      </trkpt>
      <trkpt lat="45.05996" lon="5.41289">
        <ele>466</ele>
        <time>2020-05-21T09:20:46Z</time>
      </trkpt>
      <trkpt lat="45.05986" lon="5.41238">
        <ele>463</ele>
        <time>2020-05-21T09:20:49Z</time>
      </trkpt>
      <trkpt lat="45.05982" lon="5.41179">
        <ele>461</ele>
        <time>2020-05-21T09:20:52Z</time>
      </trkpt>
      <trkpt lat="45.05971" lon="5.41134">
        <ele>458</ele>
        <time>2020-05-21T09:20:55Z</time>
      </trkpt>
      <trkpt lat="45.0594" lon="5.41112">
        <ele>456</ele>
        <time>2020-05-21T09:20:58Z</time>
      </trkpt>
      <trkpt lat="45.05907" lon="5.41087">
        <ele>453</ele>
        <time>2020-05-21T09:21:01Z</time>
      </trkpt>
      <trkpt lat="45.05876" lon="5.41044">
        <ele>448</ele>
        <time>2020-05-21T09:21:04Z</time>
      </trkpt>
      <trkpt lat="45.05864" lon="5.41">
        <ele>445</ele>
        <time>2020-05-21T09:21:08Z</time>
      </trkpt>
      <trkpt lat="45.05881" lon="5.40958">
        <ele>442</ele>
        <time>2020-05-21T09:21:11Z</time>
      </trkpt>
      <trkpt lat="45.05896" lon="5.40912">
        <ele>438</ele>
        <time>2020-05-21T09:21:14Z</time>
      </trkpt>
      <trkpt lat="45.05901" lon="5.40866">
        <ele>434</ele>
        <time>2020-05-21T09:21:17Z</time>
      </trkpt>
      <trkpt lat="45.05934" lon="5.40823">
        <ele>432</ele>
        <time>2020-05-21T09:21:20Z</time>
      </trkpt>
      <trkpt lat="45.05975" lon="5.40788">
        <ele>430</ele>
        <time>2020-05-21T09:21:23Z</time>
      </trkpt>
      <trkpt lat="45.06013" lon="5.40753">
        <ele>427</ele>
        <time>2020-05-21T09:21:26Z</time>
      </trkpt>
      <trkpt lat="45.0604" lon="5.4071">
        <ele>425</ele>
        <time>2020-05-21T09:21:29Z</time>
      </trkpt>
      <trkpt lat="45.06065" lon="5.40665">
        <ele>423</ele>
        <time>2020-05-21T09:21:33Z</time>
      </trkpt>
      <trkpt lat="45.06092" lon="5.40651">
        <ele>421</ele>
        <time>2020-05-21T09:21:36Z</time>
      </trkpt>
      <trkpt lat="45.06127" lon="5.40649">
        <ele>420</ele>
        <time>2020-05-21T09:21:39Z</time>
      </trkpt>
      <trkpt lat="45.06143" lon="5.40624">
        <ele>419</ele>
        <time>2020-05-21T09:21:42Z</time>
      </trkpt>
      <trkpt lat="45.06161" lon="5.40582">
        <ele>417</ele>
        <time>2020-05-21T09:21:45Z</time>
      </trkpt>
      <trkpt lat="45.06168" lon="5.4054">
        <ele>415</ele>
        <time>2020-05-21T09:21:48Z</time>
      </trkpt>
      <trkpt lat="45.06163" lon="5.40496">
        <ele>412</ele>
        <time>2020-05-21T09:21:51Z</time>
      </trkpt>
      <trkpt lat="45.06169" lon="5.40437">
        <ele>410</ele>
        <time>2020-05-21T09:21:54Z</time>
      </trkpt>
      <trkpt lat="45.06183" lon="5.40384">
        <ele>407</ele>
        <time>2020-05-21T09:21:57Z</time>
      </trkpt>
      <trkpt lat="45.06194" lon="5.40351">
        <ele>404</ele>
        <time>2020-05-21T09:22:00Z</time>
      </trkpt>
      <trkpt lat="45.06219" lon="5.40305">
        <ele>402</ele>
        <time>2020-05-21T09:22:03Z</time>
      </trkpt>
      <trkpt lat="45.06235" lon="5.40254">
        <ele>398</ele>
        <time>2020-05-21T09:22:07Z</time>
      </trkpt>
      <trkpt lat="45.06235" lon="5.40175">
        <ele>394</ele>
        <time>2020-05-21T09:22:10Z</time>
      </trkpt>
      <trkpt lat="45.06244" lon="5.40111">
        <ele>391</ele>
        <time>2020-05-21T09:22:13Z</time>
      </trkpt>
      <trkpt lat="45.06266" lon="5.40049">
        <ele>388</ele>
        <time>2020-05-21T09:22:17Z</time>
      </trkpt>
      <trkpt lat="45.06296" lon="5.40012">
        <ele>386</ele>
        <time>2020-05-21T09:22:20Z</time>
      </trkpt>
      <trkpt lat="45.06335" lon="5.39978">
        <ele>383</ele>
        <time>2020-05-21T09:22:23Z</time>
      </trkpt>
      <trkpt lat="45.06385" lon="5.39927">
        <ele>379</ele>
        <time>2020-05-21T09:22:26Z</time>
      </trkpt>
      <trkpt lat="45.06422" lon="5.39892">
        <ele>377</ele>
        <time>2020-05-21T09:22:29Z</time>
      </trkpt>
      <trkpt lat="45.06442" lon="5.39863">
        <ele>374</ele>
        <time>2020-05-21T09:22:33Z</time>
      </trkpt>
      <trkpt lat="45.0648" lon="5.39788">
        <ele>371</ele>
        <time>2020-05-21T09:22:36Z</time>
      </trkpt>
      <trkpt lat="45.06506" lon="5.39735">
        <ele>369</ele>
        <time>2020-05-21T09:22:39Z</time>
      </trkpt>
      <trkpt lat="45.06534" lon="5.39682">
        <ele>367</ele>
        <time>2020-05-21T09:22:42Z</time>
      </trkpt>
      <trkpt lat="45.0655" lon="5.3964">
        <ele>364</ele>
        <time>2020-05-21T09:22:46Z</time>
      </trkpt>
      <trkpt lat="45.06547" lon="5.39553">
        <ele>360</ele>
        <time>2020-05-21T09:22:49Z</time>
      </trkpt>
      <trkpt lat="45.06544" lon="5.39491">
        <ele>358</ele>
        <time>2020-05-21T09:22:52Z</time>
      </trkpt>
      <trkpt lat="45.06549" lon="5.39441">
        <ele>356</ele>
        <time>2020-05-21T09:22:55Z</time>
      </trkpt>
      <trkpt lat="45.06569" lon="5.39392">
        <ele>353</ele>
        <time>2020-05-21T09:22:58Z</time>
      </trkpt>
      <trkpt lat="45.06594" lon="5.3935">
        <ele>351</ele>
        <time>2020-05-21T09:23:02Z</time>
      </trkpt>
      <trkpt lat="45.06616" lon="5.39313">
        <ele>350</ele>
        <time>2020-05-21T09:23:05Z</time>
      </trkpt>
      <trkpt lat="45.0663" lon="5.3929">
        <ele>346</ele>
        <time>2020-05-21T09:23:08Z</time>
      </trkpt>
      <trkpt lat="45.06659" lon="5.39269">
        <ele>343</ele>
        <time>2020-05-21T09:23:11Z</time>
      </trkpt>
      <trkpt lat="45.06686" lon="5.39272">
        <ele>341</ele>
        <time>2020-05-21T09:23:14Z</time>
      </trkpt>
      <trkpt lat="45.06696" lon="5.39255">
        <ele>340</ele>
        <time>2020-05-21T09:23:17Z</time>
      </trkpt>
      <trkpt lat="45.06695" lon="5.39227">
        <ele>342</ele>
        <time>2020-05-21T09:23:20Z</time>
      </trkpt>
      <trkpt lat="45.06686" lon="5.39172">
        <ele>344</ele>
        <time>2020-05-21T09:23:23Z</time>
      </trkpt>
      <trkpt lat="45.06686" lon="5.39134">
        <ele>343</ele>
        <time>2020-05-21T09:23:27Z</time>
      </trkpt>
      <trkpt lat="45.06677" lon="5.391">
        <ele>342</ele>
        <time>2020-05-21T09:23:30Z</time>
      </trkpt>
      <trkpt lat="45.06666" lon="5.39073">
        <ele>342</ele>
        <time>2020-05-21T09:23:33Z</time>
      </trkpt>
      <trkpt lat="45.06656" lon="5.39041">
        <ele>341</ele>
        <time>2020-05-21T09:23:36Z</time>
      </trkpt>
      <trkpt lat="45.06646" lon="5.39">
        <ele>339</ele>
        <time>2020-05-21T09:23:39Z</time>
      </trkpt>
      <trkpt lat="45.06641" lon="5.38962">
        <ele>338</ele>
        <time>2020-05-21T09:23:42Z</time>
      </trkpt>
      <trkpt lat="45.06651" lon="5.38924">
        <ele>336</ele>
        <time>2020-05-21T09:23:45Z</time>
      </trkpt>
      <trkpt lat="45.06679" lon="5.38899">
        <ele>334</ele>
        <time>2020-05-21T09:23:49Z</time>
      </trkpt>
      <trkpt lat="45.06709" lon="5.38883">
        <ele>333</ele>
        <time>2020-05-21T09:23:52Z</time>
      </trkpt>
      <trkpt lat="45.06735" lon="5.38846">
        <ele>331</ele>
        <time>2020-05-21T09:23:55Z</time>
      </trkpt>
      <trkpt lat="45.06741" lon="5.38792">
        <ele>330</ele>
        <time>2020-05-21T09:23:58Z</time>
      </trkpt>
      <trkpt lat="45.06743" lon="5.38735">
        <ele>329</ele>
        <time>2020-05-21T09:24:01Z</time>
      </trkpt>
      <trkpt lat="45.06759" lon="5.38672">
        <ele>327</ele>
        <time>2020-05-21T09:24:04Z</time>
      </trkpt>
      <trkpt lat="45.06776" lon="5.38606">
        <ele>326</ele>
        <time>2020-05-21T09:24:07Z</time>
      </trkpt>
      <trkpt lat="45.06797" lon="5.38545">
        <ele>324</ele>
        <time>2020-05-21T09:24:10Z</time>
      </trkpt>
      <trkpt lat="45.06806" lon="5.38456">
        <ele>322</ele>
        <time>2020-05-21T09:24:14Z</time>
      </trkpt>
      <trkpt lat="45.0679" lon="5.38371">
        <ele>320</ele>
        <time>2020-05-21T09:24:18Z</time>
      </trkpt>
      <trkpt lat="45.06779" lon="5.38304">
        <ele>319</ele>
        <time>2020-05-21T09:24:21Z</time>
      </trkpt>
      <trkpt lat="45.06774" lon="5.38239">
        <ele>318</ele>
        <time>2020-05-21T09:24:25Z</time>
      </trkpt>
      <trkpt lat="45.0677" lon="5.38178">
        <ele>317</ele>
        <time>2020-05-21T09:24:28Z</time>
      </trkpt>
      <trkpt lat="45.06754" lon="5.38112">
        <ele>316</ele>
        <time>2020-05-21T09:24:31Z</time>
      </trkpt>
      <trkpt lat="45.06734" lon="5.38023">
        <ele>314</ele>
        <time>2020-05-21T09:24:34Z</time>
      </trkpt>
      <trkpt lat="45.06727" lon="5.37955">
        <ele>312</ele>
        <time>2020-05-21T09:24:38Z</time>
      </trkpt>
      <trkpt lat="45.06722" lon="5.37877">
        <ele>311</ele>
        <time>2020-05-21T09:24:41Z</time>
      </trkpt>
      <trkpt lat="45.06719" lon="5.37829">
        <ele>310</ele>
        <time>2020-05-21T09:24:44Z</time>
      </trkpt>
      <trkpt lat="45.06722" lon="5.37758">
        <ele>309</ele>
        <time>2020-05-21T09:24:47Z</time>
      </trkpt>
      <trkpt lat="45.06717" lon="5.37688">
        <ele>308</ele>
        <time>2020-05-21T09:24:50Z</time>
      </trkpt>
      <trkpt lat="45.06709" lon="5.37587">
        <ele>306</ele>
        <time>2020-05-21T09:24:53Z</time>
      </trkpt>
      <trkpt lat="45.06712" lon="5.37511">
        <ele>305</ele>
        <time>2020-05-21T09:24:57Z</time>
      </trkpt>
      <trkpt lat="45.06708" lon="5.37438">
        <ele>304</ele>
        <time>2020-05-21T09:25:00Z</time>
      </trkpt>
      <trkpt lat="45.06694" lon="5.37377">
        <ele>302</ele>
        <time>2020-05-21T09:25:03Z</time>
      </trkpt>
      <trkpt lat="45.06668" lon="5.37336">
        <ele>301</ele>
        <time>2020-05-21T09:25:06Z</time>
      </trkpt>
      <trkpt lat="45.06604" lon="5.37308">
        <ele>299</ele>
        <time>2020-05-21T09:25:09Z</time>
      </trkpt>
      <trkpt lat="45.06559" lon="5.37291">
        <ele>299</ele>
        <time>2020-05-21T09:25:12Z</time>
      </trkpt>
      <trkpt lat="45.06531" lon="5.37278">
        <ele>298</ele>
        <time>2020-05-21T09:25:15Z</time>
      </trkpt>
      <trkpt lat="45.06494" lon="5.37242">
        <ele>297</ele>
        <time>2020-05-21T09:25:18Z</time>
      </trkpt>
      <trkpt lat="45.06477" lon="5.37196">
        <ele>297</ele>
        <time>2020-05-21T09:25:21Z</time>
      </trkpt>
      <trkpt lat="45.0648" lon="5.37152">
        <ele>295</ele>
        <time>2020-05-21T09:25:25Z</time>
      </trkpt>
      <trkpt lat="45.0651" lon="5.37111">
        <ele>294</ele>
        <time>2020-05-21T09:25:28Z</time>
      </trkpt>
      <trkpt lat="45.0655" lon="5.37062">
        <ele>294</ele>
        <time>2020-05-21T09:25:31Z</time>
      </trkpt>
      <trkpt lat="45.06585" lon="5.37011">
        <ele>293</ele>
        <time>2020-05-21T09:25:34Z</time>
      </trkpt>
      <trkpt lat="45.0662" lon="5.36949">
        <ele>293</ele>
        <time>2020-05-21T09:25:37Z</time>
      </trkpt>
      <trkpt lat="45.06668" lon="5.36871">
        <ele>292</ele>
        <time>2020-05-21T09:25:40Z</time>
      </trkpt>
      <trkpt lat="45.06697" lon="5.36823">
        <ele>291</ele>
        <time>2020-05-21T09:25:44Z</time>
      </trkpt>
      <trkpt lat="45.06722" lon="5.36757">
        <ele>291</ele>
        <time>2020-05-21T09:25:47Z</time>
      </trkpt>
      <trkpt lat="45.06722" lon="5.36663">
        <ele>290</ele>
        <time>2020-05-21T09:25:50Z</time>
      </trkpt>
      <trkpt lat="45.06708" lon="5.36618">
        <ele>289</ele>
        <time>2020-05-21T09:25:53Z</time>
      </trkpt>
      <trkpt lat="45.06674" lon="5.36564">
        <ele>288</ele>
        <time>2020-05-21T09:25:57Z</time>
      </trkpt>
      <trkpt lat="45.0664" lon="5.36531">
        <ele>288</ele>
        <time>2020-05-21T09:26:00Z</time>
      </trkpt>
      <trkpt lat="45.0663" lon="5.36505">
        <ele>288</ele>
        <time>2020-05-21T09:26:03Z</time>
      </trkpt>
      <trkpt lat="45.06618" lon="5.36444">
        <ele>288</ele>
        <time>2020-05-21T09:26:06Z</time>
      </trkpt>
      <trkpt lat="45.06611" lon="5.36382">
        <ele>288</ele>
        <time>2020-05-21T09:26:09Z</time>
      </trkpt>
      <trkpt lat="45.06613" lon="5.3632">
        <ele>288</ele>
        <time>2020-05-21T09:26:12Z</time>
      </trkpt>
      <trkpt lat="45.06625" lon="5.36242">
        <ele>288</ele>
        <time>2020-05-21T09:26:15Z</time>
      </trkpt>
      <trkpt lat="45.06642" lon="5.36164">
        <ele>287</ele>
        <time>2020-05-21T09:26:18Z</time>
      </trkpt>
      <trkpt lat="45.06653" lon="5.36096">
        <ele>287</ele>
        <time>2020-05-21T09:26:21Z</time>
      </trkpt>
      <trkpt lat="45.06659" lon="5.36021">
        <ele>287</ele>
        <time>2020-05-21T09:26:24Z</time>
      </trkpt>
      <trkpt lat="45.06658" lon="5.3596">
        <ele>287</ele>
        <time>2020-05-21T09:26:27Z</time>
      </trkpt>
      <trkpt lat="45.06655" lon="5.35889">
        <ele>286</ele>
        <time>2020-05-21T09:26:30Z</time>
      </trkpt>
      <trkpt lat="45.06639" lon="5.35819">
        <ele>286</ele>
        <time>2020-05-21T09:26:33Z</time>
      </trkpt>
      <trkpt lat="45.06611" lon="5.35779">
        <ele>286</ele>
        <time>2020-05-21T09:26:36Z</time>
      </trkpt>
      <trkpt lat="45.06567" lon="5.3576">
        <ele>286</ele>
        <time>2020-05-21T09:26:39Z</time>
      </trkpt>
      <trkpt lat="45.06521" lon="5.35734">
        <ele>286</ele>
        <time>2020-05-21T09:26:43Z</time>
      </trkpt>
      <trkpt lat="45.06503" lon="5.35683">
        <ele>286</ele>
        <time>2020-05-21T09:26:46Z</time>
      </trkpt>
      <trkpt lat="45.06506" lon="5.35628">
        <ele>286</ele>
        <time>2020-05-21T09:26:49Z</time>
      </trkpt>
      <trkpt lat="45.0652" lon="5.35565">
        <ele>286</ele>
        <time>2020-05-21T09:26:52Z</time>
      </trkpt>
      <trkpt lat="45.06533" lon="5.35502">
        <ele>285</ele>
        <time>2020-05-21T09:26:55Z</time>
      </trkpt>
      <trkpt lat="45.06537" lon="5.35468">
        <ele>285</ele>
        <time>2020-05-21T09:26:58Z</time>
      </trkpt>
      <trkpt lat="45.06537" lon="5.35426">
        <ele>285</ele>
        <time>2020-05-21T09:27:01Z</time>
      </trkpt>
      <trkpt lat="45.06512" lon="5.35407">
        <ele>284</ele>
        <time>2020-05-21T09:27:04Z</time>
      </trkpt>
      <trkpt lat="45.06487" lon="5.35386">
        <ele>283</ele>
        <time>2020-05-21T09:27:07Z</time>
      </trkpt>
      <trkpt lat="45.06475" lon="5.35305">
        <ele>282</ele>
        <time>2020-05-21T09:27:11Z</time>
      </trkpt>
      <trkpt lat="45.06456" lon="5.35244">
        <ele>280</ele>
        <time>2020-05-21T09:27:14Z</time>
      </trkpt>
      <trkpt lat="45.06439" lon="5.35185">
        <ele>278</ele>
        <time>2020-05-21T09:27:17Z</time>
      </trkpt>
      <trkpt lat="45.06415" lon="5.35106">
        <ele>277</ele>
        <time>2020-05-21T09:27:20Z</time>
      </trkpt>
      <trkpt lat="45.06394" lon="5.35046">
        <ele>276</ele>
        <time>2020-05-21T09:27:23Z</time>
      </trkpt>
      <trkpt lat="45.06364" lon="5.34999">
        <ele>276</ele>
        <time>2020-05-21T09:27:26Z</time>
      </trkpt>
      <trkpt lat="45.06333" lon="5.3497">
        <ele>274</ele>
        <time>2020-05-21T09:27:29Z</time>
      </trkpt>
      <trkpt lat="45.06289" lon="5.34943">
        <ele>273</ele>
        <time>2020-05-21T09:27:32Z</time>
      </trkpt>
      <trkpt lat="45.06235" lon="5.34919">
        <ele>272</ele>
        <time>2020-05-21T09:27:35Z</time>
      </trkpt>
      <trkpt lat="45.06194" lon="5.34904">
        <ele>271</ele>
        <time>2020-05-21T09:27:38Z</time>
      </trkpt>
      <trkpt lat="45.06152" lon="5.34867">
        <ele>270</ele>
        <time>2020-05-21T09:27:41Z</time>
      </trkpt>
      <trkpt lat="45.06128" lon="5.34831">
        <ele>269</ele>
        <time>2020-05-21T09:27:44Z</time>
      </trkpt>
      <trkpt lat="45.06104" lon="5.34802">
        <ele>267</ele>
        <time>2020-05-21T09:27:48Z</time>
      </trkpt>
      <trkpt lat="45.06081" lon="5.34773">
        <ele>265</ele>
        <time>2020-05-21T09:27:51Z</time>
      </trkpt>
      <trkpt lat="45.06062" lon="5.3475">
        <ele>263</ele>
        <time>2020-05-21T09:27:54Z</time>
      </trkpt>
      <trkpt lat="45.0605" lon="5.34731">
        <ele>262</ele>
        <time>2020-05-21T09:27:57Z</time>
      </trkpt>
      <trkpt lat="45.0604" lon="5.34708">
        <ele>262</ele>
        <time>2020-05-21T09:28:00Z</time>
      </trkpt>
      <trkpt lat="45.06037" lon="5.34693">
        <ele>261</ele>
        <time>2020-05-21T09:28:04Z</time>
      </trkpt>
      <trkpt lat="45.06047" lon="5.34663">
        <ele>260</ele>
        <time>2020-05-21T09:28:08Z</time>
      </trkpt>
      <trkpt lat="45.06022" lon="5.34643">
        <ele>260</ele>
        <time>2020-05-21T09:28:11Z</time>
      </trkpt>
      <trkpt lat="45.0601" lon="5.34615">
        <ele>260</ele>
        <time>2020-05-21T09:28:14Z</time>
      </trkpt>
      <trkpt lat="45.06009" lon="5.34569">
        <ele>260</ele>
        <time>2020-05-21T09:28:18Z</time>
      </trkpt>
      <trkpt lat="45.0601" lon="5.34533">
        <ele>260</ele>
        <time>2020-05-21T09:28:21Z</time>
      </trkpt>
      <trkpt lat="45.06004" lon="5.345">
        <ele>260</ele>
        <time>2020-05-21T09:28:24Z</time>
      </trkpt>
      <trkpt lat="45.05998" lon="5.34472">
        <ele>260</ele>
        <time>2020-05-21T09:28:27Z</time>
      </trkpt>
      <trkpt lat="45.0599" lon="5.34446">
        <ele>260</ele>
        <time>2020-05-21T09:28:30Z</time>
      </trkpt>
      <trkpt lat="45.05977" lon="5.34428">
        <ele>261</ele>
        <time>2020-05-21T09:28:34Z</time>
      </trkpt>
      <trkpt lat="45.05958" lon="5.34416">
        <ele>261</ele>
        <time>2020-05-21T09:28:37Z</time>
      </trkpt>
      <trkpt lat="45.05937" lon="5.34409">
        <ele>261</ele>
        <time>2020-05-21T09:28:40Z</time>
      </trkpt>
      <trkpt lat="45.05917" lon="5.34409">
        <ele>261</ele>
        <time>2020-05-21T09:28:43Z</time>
      </trkpt>
      <trkpt lat="45.05893" lon="5.34409">
        <ele>261</ele>
        <time>2020-05-21T09:28:46Z</time>
      </trkpt>
      <trkpt lat="45.0587" lon="5.34406">
        <ele>260</ele>
        <time>2020-05-21T09:28:49Z</time>
      </trkpt>
      <trkpt lat="45.05843" lon="5.34398">
        <ele>260</ele>
        <time>2020-05-21T09:28:53Z</time>
      </trkpt>
      <trkpt lat="45.05823" lon="5.34388">
        <ele>260</ele>
        <time>2020-05-21T09:28:56Z</time>
      </trkpt>
      <trkpt lat="45.05809" lon="5.34379">
        <ele>260</ele>
        <time>2020-05-21T09:28:59Z</time>
      </trkpt>
      <trkpt lat="45.05787" lon="5.34366">
        <ele>260</ele>
        <time>2020-05-21T09:29:02Z</time>
      </trkpt>
      <trkpt lat="45.05768" lon="5.3436">
        <ele>260</ele>
        <time>2020-05-21T09:29:05Z</time>
      </trkpt>
      <trkpt lat="45.05745" lon="5.34364">
        <ele>260</ele>
        <time>2020-05-21T09:29:08Z</time>
      </trkpt>
      <trkpt lat="45.05723" lon="5.34372">
        <ele>260</ele>
        <time>2020-05-21T09:29:11Z</time>
      </trkpt>
      <trkpt lat="45.05695" lon="5.34383">
        <ele>260</ele>
        <time>2020-05-21T09:29:15Z</time>
      </trkpt>
      <trkpt lat="45.05673" lon="5.34392">
        <ele>260</ele>
        <time>2020-05-21T09:29:18Z</time>
      </trkpt>
      <trkpt lat="45.05647" lon="5.34391">
        <ele>259</ele>
        <time>2020-05-21T09:29:22Z</time>
      </trkpt>
      <trkpt lat="45.05622" lon="5.34379">
        <ele>259</ele>
        <time>2020-05-21T09:29:25Z</time>
      </trkpt>
      <trkpt lat="45.05581" lon="5.3435">
        <ele>260</ele>
        <time>2020-05-21T09:29:28Z</time>
      </trkpt>
      <trkpt lat="45.05566" lon="5.34337">
        <ele>260</ele>
        <time>2020-05-21T09:29:31Z</time>
      </trkpt>
      <trkpt lat="45.05555" lon="5.34312">
        <ele>261</ele>
        <time>2020-05-21T09:29:34Z</time>
      </trkpt>
      <trkpt lat="45.05567" lon="5.34279">
        <ele>261</ele>
        <time>2020-05-21T09:29:37Z</time>
      </trkpt>
      <trkpt lat="45.05593" lon="5.34262">
        <ele>263</ele>
        <time>2020-05-21T09:29:40Z</time>
      </trkpt>
      <trkpt lat="45.05619" lon="5.34246">
        <ele>265</ele>
        <time>2020-05-21T09:29:43Z</time>
      </trkpt>
      <trkpt lat="45.05646" lon="5.34202">
        <ele>266</ele>
        <time>2020-05-21T09:29:46Z</time>
      </trkpt>
      <trkpt lat="45.05669" lon="5.3414">
        <ele>267</ele>
        <time>2020-05-21T09:29:49Z</time>
      </trkpt>
      <trkpt lat="45.05697" lon="5.34096">
        <ele>269</ele>
        <time>2020-05-21T09:29:52Z</time>
      </trkpt>
      <trkpt lat="45.05724" lon="5.34068">
        <ele>270</ele>
        <time>2020-05-21T09:29:55Z</time>
      </trkpt>
      <trkpt lat="45.05727" lon="5.34046">
        <ele>270</ele>
        <time>2020-05-21T09:29:58Z</time>
      </trkpt>
      <trkpt lat="45.05714" lon="5.34051">
        <ele>272</ele>
        <time>2020-05-21T09:30:04Z</time>
      </trkpt>
      <trkpt lat="45.05678" lon="5.34096">
        <ele>273</ele>
        <time>2020-05-21T09:30:08Z</time>
      </trkpt>
      <trkpt lat="45.05658" lon="5.34129">
        <ele>275</ele>
        <time>2020-05-21T09:30:11Z</time>
      </trkpt>
      <trkpt lat="45.05627" lon="5.34177">
        <ele>277</ele>
        <time>2020-05-21T09:30:14Z</time>
      </trkpt>
      <trkpt lat="45.05597" lon="5.34207">
        <ele>278</ele>
        <time>2020-05-21T09:30:17Z</time>
      </trkpt>
      <trkpt lat="45.05553" lon="5.34228">
        <ele>280</ele>
        <time>2020-05-21T09:30:21Z</time>
      </trkpt>
      <trkpt lat="45.05524" lon="5.34229">
        <ele>281</ele>
        <time>2020-05-21T09:30:24Z</time>
      </trkpt>
      <trkpt lat="45.05487" lon="5.34228">
        <ele>282</ele>
        <time>2020-05-21T09:30:27Z</time>
      </trkpt>
      <trkpt lat="45.05437" lon="5.34226">
        <ele>284</ele>
        <time>2020-05-21T09:30:30Z</time>
      </trkpt>
      <trkpt lat="45.05388" lon="5.34229">
        <ele>285</ele>
        <time>2020-05-21T09:30:33Z</time>
      </trkpt>
      <trkpt lat="45.05341" lon="5.34246">
        <ele>286</ele>
        <time>2020-05-21T09:30:36Z</time>
      </trkpt>
      <trkpt lat="45.05298" lon="5.34273">
        <ele>288</ele>
        <time>2020-05-21T09:30:40Z</time>
      </trkpt>
      <trkpt lat="45.05256" lon="5.34294">
        <ele>289</ele>
        <time>2020-05-21T09:30:43Z</time>
      </trkpt>
      <trkpt lat="45.05216" lon="5.34296">
        <ele>291</ele>
        <time>2020-05-21T09:30:46Z</time>
      </trkpt>
      <trkpt lat="45.05181" lon="5.34274">
        <ele>293</ele>
        <time>2020-05-21T09:30:50Z</time>
      </trkpt>
      <trkpt lat="45.05142" lon="5.34226">
        <ele>295</ele>
        <time>2020-05-21T09:30:53Z</time>
      </trkpt>
      <trkpt lat="45.05087" lon="5.34152">
        <ele>297</ele>
        <time>2020-05-21T09:30:56Z</time>
      </trkpt>
      <trkpt lat="45.0504" lon="5.34087">
        <ele>299</ele>
        <time>2020-05-21T09:30:59Z</time>
      </trkpt>
      <trkpt lat="45.05002" lon="5.34035">
        <ele>300</ele>
        <time>2020-05-21T09:31:02Z</time>
      </trkpt>
      <trkpt lat="45.04968" lon="5.34">
        <ele>302</ele>
        <time>2020-05-21T09:31:05Z</time>
      </trkpt>
      <trkpt lat="45.04924" lon="5.3399">
        <ele>304</ele>
        <time>2020-05-21T09:31:08Z</time>
      </trkpt>
      <trkpt lat="45.04901" lon="5.34002">
        <ele>306</ele>
        <time>2020-05-21T09:31:11Z</time>
      </trkpt>
      <trkpt lat="45.04866" lon="5.34038">
        <ele>308</ele>
        <time>2020-05-21T09:31:14Z</time>
      </trkpt>
      <trkpt lat="45.04822" lon="5.34084">
        <ele>310</ele>
        <time>2020-05-21T09:31:17Z</time>
      </trkpt>
      <trkpt lat="45.04798" lon="5.34101">
        <ele>311</ele>
        <time>2020-05-21T09:31:21Z</time>
      </trkpt>
      <trkpt lat="45.04772" lon="5.34095">
        <ele>313</ele>
        <time>2020-05-21T09:31:24Z</time>
      </trkpt>
      <trkpt lat="45.04756" lon="5.34085">
        <ele>315</ele>
        <time>2020-05-21T09:31:27Z</time>
      </trkpt>
      <trkpt lat="45.04736" lon="5.34067">
        <ele>317</ele>
        <time>2020-05-21T09:31:30Z</time>
      </trkpt>
      <trkpt lat="45.0471" lon="5.34045">
        <ele>318</ele>
        <time>2020-05-21T09:31:33Z</time>
      </trkpt>
      <trkpt lat="45.04683" lon="5.34027">
        <ele>319</ele>
        <time>2020-05-21T09:31:36Z</time>
      </trkpt>
      <trkpt lat="45.04655" lon="5.34009">
        <ele>319</ele>
        <time>2020-05-21T09:31:39Z</time>
      </trkpt>
      <trkpt lat="45.04638" lon="5.33999">
        <ele>320</ele>
        <time>2020-05-21T09:31:42Z</time>
      </trkpt>
      <trkpt lat="45.04598" lon="5.33975">
        <ele>320</ele>
        <time>2020-05-21T09:31:45Z</time>
      </trkpt>
      <trkpt lat="45.0456" lon="5.33952">
        <ele>320</ele>
        <time>2020-05-21T09:31:48Z</time>
      </trkpt>
      <trkpt lat="45.04524" lon="5.33931">
        <ele>321</ele>
        <time>2020-05-21T09:31:51Z</time>
      </trkpt>
      <trkpt lat="45.04495" lon="5.33914">
        <ele>321</ele>
        <time>2020-05-21T09:31:54Z</time>
      </trkpt>
      <trkpt lat="45.04474" lon="5.33902">
        <ele>322</ele>
        <time>2020-05-21T09:31:57Z</time>
      </trkpt>
      <trkpt lat="45.0444" lon="5.33888">
        <ele>322</ele>
        <time>2020-05-21T09:32:00Z</time>
      </trkpt>
      <trkpt lat="45.04394" lon="5.33869">
        <ele>322</ele>
        <time>2020-05-21T09:32:03Z</time>
      </trkpt>
      <trkpt lat="45.04347" lon="5.33851">
        <ele>322</ele>
        <time>2020-05-21T09:32:06Z</time>
      </trkpt>
      <trkpt lat="45.04283" lon="5.33821">
        <ele>322</ele>
        <time>2020-05-21T09:32:09Z</time>
      </trkpt>
      <trkpt lat="45.04237" lon="5.33793">
        <ele>322</ele>
        <time>2020-05-21T09:32:12Z</time>
      </trkpt>
      <trkpt lat="45.0418" lon="5.33761">
        <ele>322</ele>
        <time>2020-05-21T09:32:15Z</time>
      </trkpt>
      <trkpt lat="45.04113" lon="5.33735">
        <ele>322</ele>
        <time>2020-05-21T09:32:18Z</time>
      </trkpt>
      <trkpt lat="45.04052" lon="5.33718">
        <ele>323</ele>
        <time>2020-05-21T09:32:22Z</time>
      </trkpt>
      <trkpt lat="45.03995" lon="5.33702">
        <ele>323</ele>
        <time>2020-05-21T09:32:25Z</time>
      </trkpt>
      <trkpt lat="45.03941" lon="5.33676">
        <ele>324</ele>
        <time>2020-05-21T09:32:28Z</time>
      </trkpt>
      <trkpt lat="45.03892" lon="5.33626">
        <ele>324</ele>
        <time>2020-05-21T09:32:31Z</time>
      </trkpt>
      <trkpt lat="45.03851" lon="5.33541">
        <ele>324</ele>
        <time>2020-05-21T09:32:34Z</time>
      </trkpt>
      <trkpt lat="45.03822" lon="5.33473">
        <ele>324</ele>
        <time>2020-05-21T09:32:37Z</time>
      </trkpt>
      <trkpt lat="45.03766" lon="5.33395">
        <ele>325</ele>
        <time>2020-05-21T09:32:40Z</time>
      </trkpt>
      <trkpt lat="45.03735" lon="5.33359">
        <ele>326</ele>
        <time>2020-05-21T09:32:43Z</time>
      </trkpt>
      <trkpt lat="45.03667" lon="5.3329">
        <ele>326</ele>
        <time>2020-05-21T09:32:47Z</time>
      </trkpt>
      <trkpt lat="45.0363" lon="5.3326">
        <ele>327</ele>
        <time>2020-05-21T09:32:50Z</time>
      </trkpt>
      <trkpt lat="45.03602" lon="5.33241">
        <ele>328</ele>
        <time>2020-05-21T09:32:53Z</time>
      </trkpt>
      <trkpt lat="45.03489" lon="5.3321">
        <ele>329</ele>
        <time>2020-05-21T09:32:56Z</time>
      </trkpt>
      <trkpt lat="45.03423" lon="5.33206">
        <ele>330</ele>
        <time>2020-05-21T09:32:59Z</time>
      </trkpt>
      <trkpt lat="45.03347" lon="5.33212">
        <ele>331</ele>
        <time>2020-05-21T09:33:02Z</time>
      </trkpt>
      <trkpt lat="45.03281" lon="5.33213">
        <ele>333</ele>
        <time>2020-05-21T09:33:05Z</time>
      </trkpt>
      <trkpt lat="45.03223" lon="5.33209">
        <ele>334</ele>
        <time>2020-05-21T09:33:08Z</time>
      </trkpt>
      <trkpt lat="45.0319" lon="5.33198">
        <ele>335</ele>
        <time>2020-05-21T09:33:11Z</time>
      </trkpt>
      <trkpt lat="45.03152" lon="5.33179">
        <ele>335</ele>
        <time>2020-05-21T09:33:14Z</time>
      </trkpt>
      <trkpt lat="45.03117" lon="5.33159">
        <ele>336</ele>
        <time>2020-05-21T09:33:17Z</time>
      </trkpt>
      <trkpt lat="45.03076" lon="5.33123">
        <ele>338</ele>
        <time>2020-05-21T09:33:21Z</time>
      </trkpt>
      <trkpt lat="45.03054" lon="5.33079">
        <ele>339</ele>
        <time>2020-05-21T09:33:24Z</time>
      </trkpt>
      <trkpt lat="45.03039" lon="5.33042">
        <ele>340</ele>
        <time>2020-05-21T09:33:27Z</time>
      </trkpt>
      <trkpt lat="45.03023" lon="5.33">
        <ele>341</ele>
        <time>2020-05-21T09:33:30Z</time>
      </trkpt>
      <trkpt lat="45.03003" lon="5.32954">
        <ele>342</ele>
        <time>2020-05-21T09:33:33Z</time>
      </trkpt>
      <trkpt lat="45.02978" lon="5.329">
        <ele>344</ele>
        <time>2020-05-21T09:33:36Z</time>
      </trkpt>
      <trkpt lat="45.02958" lon="5.32861">
        <ele>345</ele>
        <time>2020-05-21T09:33:39Z</time>
      </trkpt>
      <trkpt lat="45.02942" lon="5.32831">
        <ele>345</ele>
        <time>2020-05-21T09:33:43Z</time>
      </trkpt>
      <trkpt lat="45.02929" lon="5.32805">
        <ele>346</ele>
        <time>2020-05-21T09:33:46Z</time>
      </trkpt>
      <trkpt lat="45.02906" lon="5.32757">
        <ele>347</ele>
        <time>2020-05-21T09:33:49Z</time>
      </trkpt>
      <trkpt lat="45.02894" lon="5.32742">
        <ele>348</ele>
        <time>2020-05-21T09:33:52Z</time>
      </trkpt>
      <trkpt lat="45.02858" lon="5.32705">
        <ele>348</ele>
        <time>2020-05-21T09:33:55Z</time>
      </trkpt>
      <trkpt lat="45.02833" lon="5.32676">
        <ele>349</ele>
        <time>2020-05-21T09:33:58Z</time>
      </trkpt>
      <trkpt lat="45.02813" lon="5.32647">
        <ele>350</ele>
        <time>2020-05-21T09:34:01Z</time>
      </trkpt>
      <trkpt lat="45.02803" lon="5.3263">
        <ele>350</ele>
        <time>2020-05-21T09:34:04Z</time>
      </trkpt>
      <trkpt lat="45.02793" lon="5.32629">
        <ele>351</ele>
        <time>2020-05-21T09:34:07Z</time>
      </trkpt>
      <trkpt lat="45.02776" lon="5.32655">
        <ele>351</ele>
        <time>2020-05-21T09:34:10Z</time>
      </trkpt>
      <trkpt lat="45.02766" lon="5.32704">
        <ele>352</ele>
        <time>2020-05-21T09:34:13Z</time>
      </trkpt>
      <trkpt lat="45.02757" lon="5.32749">
        <ele>354</ele>
        <time>2020-05-21T09:34:16Z</time>
      </trkpt>
      <trkpt lat="45.02743" lon="5.32809">
        <ele>356</ele>
        <time>2020-05-21T09:34:20Z</time>
      </trkpt>
      <trkpt lat="45.0273" lon="5.32851">
        <ele>357</ele>
        <time>2020-05-21T09:34:23Z</time>
      </trkpt>
      <trkpt lat="45.02712" lon="5.32877">
        <ele>358</ele>
        <time>2020-05-21T09:34:27Z</time>
      </trkpt>
      <trkpt lat="45.02678" lon="5.32879">
        <ele>360</ele>
        <time>2020-05-21T09:34:30Z</time>
      </trkpt>
      <trkpt lat="45.02646" lon="5.32876">
        <ele>361</ele>
        <time>2020-05-21T09:34:33Z</time>
      </trkpt>
      <trkpt lat="45.0261" lon="5.32872">
        <ele>362</ele>
        <time>2020-05-21T09:34:37Z</time>
      </trkpt>
      <trkpt lat="45.02551" lon="5.32882">
        <ele>363</ele>
        <time>2020-05-21T09:34:40Z</time>
      </trkpt>
      <trkpt lat="45.02509" lon="5.32888">
        <ele>365</ele>
        <time>2020-05-21T09:34:44Z</time>
      </trkpt>
      <trkpt lat="45.0247" lon="5.32897">
        <ele>366</ele>
        <time>2020-05-21T09:34:47Z</time>
      </trkpt>
      <trkpt lat="45.02434" lon="5.32914">
        <ele>368</ele>
        <time>2020-05-21T09:34:50Z</time>
      </trkpt>
      <trkpt lat="45.02397" lon="5.32919">
        <ele>369</ele>
        <time>2020-05-21T09:34:53Z</time>
      </trkpt>
      <trkpt lat="45.02353" lon="5.32943">
        <ele>371</ele>
        <time>2020-05-21T09:34:56Z</time>
      </trkpt>
      <trkpt lat="45.02306" lon="5.32905">
        <ele>373</ele>
        <time>2020-05-21T09:34:59Z</time>
      </trkpt>
      <trkpt lat="45.02277" lon="5.32885">
        <ele>374</ele>
        <time>2020-05-21T09:35:02Z</time>
      </trkpt>
      <trkpt lat="45.02236" lon="5.32858">
        <ele>375</ele>
        <time>2020-05-21T09:35:05Z</time>
      </trkpt>
      <trkpt lat="45.02197" lon="5.32839">
        <ele>376</ele>
        <time>2020-05-21T09:35:08Z</time>
      </trkpt>
      <trkpt lat="45.02158" lon="5.32833">
        <ele>378</ele>
        <time>2020-05-21T09:35:11Z</time>
      </trkpt>
      <trkpt lat="45.02142" lon="5.32809">
        <ele>379</ele>
        <time>2020-05-21T09:35:14Z</time>
      </trkpt>
      <trkpt lat="45.02132" lon="5.32792">
        <ele>381</ele>
        <time>2020-05-21T09:35:18Z</time>
      </trkpt>
      <trkpt lat="45.02148" lon="5.32835">
        <ele>382</ele>
        <time>2020-05-21T09:35:21Z</time>
      </trkpt>
      <trkpt lat="45.02186" lon="5.32882">
        <ele>385</ele>
        <time>2020-05-21T09:35:25Z</time>
      </trkpt>
      <trkpt lat="45.02237" lon="5.32936">
        <ele>387</ele>
        <time>2020-05-21T09:35:29Z</time>
      </trkpt>
      <trkpt lat="45.02261" lon="5.32963">
        <ele>389</ele>
        <time>2020-05-21T09:35:32Z</time>
      </trkpt>
      <trkpt lat="45.02298" lon="5.33001">
        <ele>391</ele>
        <time>2020-05-21T09:35:35Z</time>
      </trkpt>
      <trkpt lat="45.02327" lon="5.33044">
        <ele>392</ele>
        <time>2020-05-21T09:35:38Z</time>
      </trkpt>
      <trkpt lat="45.02357" lon="5.33069">
        <ele>394</ele>
        <time>2020-05-21T09:35:41Z</time>
      </trkpt>
      <trkpt lat="45.02363" lon="5.33126">
        <ele>396</ele>
        <time>2020-05-21T09:35:44Z</time>
      </trkpt>
      <trkpt lat="45.02371" lon="5.33163">
        <ele>398</ele>
        <time>2020-05-21T09:35:47Z</time>
      </trkpt>
      <trkpt lat="45.02345" lon="5.3318">
        <ele>399</ele>
        <time>2020-05-21T09:35:50Z</time>
      </trkpt>
      <trkpt lat="45.02293" lon="5.33149">
        <ele>402</ele>
        <time>2020-05-21T09:35:53Z</time>
      </trkpt>
      <trkpt lat="45.0226" lon="5.33117">
        <ele>404</ele>
        <time>2020-05-21T09:35:56Z</time>
      </trkpt>
      <trkpt lat="45.02229" lon="5.33085">
        <ele>407</ele>
        <time>2020-05-21T09:35:59Z</time>
      </trkpt>
      <trkpt lat="45.02209" lon="5.33066">
        <ele>410</ele>
        <time>2020-05-21T09:36:02Z</time>
      </trkpt>
      <trkpt lat="45.02171" lon="5.33045">
        <ele>413</ele>
        <time>2020-05-21T09:36:05Z</time>
      </trkpt>
      <trkpt lat="45.02133" lon="5.33025">
        <ele>415</ele>
        <time>2020-05-21T09:36:08Z</time>
      </trkpt>
      <trkpt lat="45.02094" lon="5.33003">
        <ele>418</ele>
        <time>2020-05-21T09:36:11Z</time>
      </trkpt>
      <trkpt lat="45.02042" lon="5.32972">
        <ele>421</ele>
        <time>2020-05-21T09:36:14Z</time>
      </trkpt>
      <trkpt lat="45.02019" lon="5.32956">
        <ele>423</ele>
        <time>2020-05-21T09:36:17Z</time>
      </trkpt>
      <trkpt lat="45.01975" lon="5.32942">
        <ele>427</ele>
        <time>2020-05-21T09:36:20Z</time>
      </trkpt>
      <trkpt lat="45.01927" lon="5.32965">
        <ele>430</ele>
        <time>2020-05-21T09:36:23Z</time>
      </trkpt>
      <trkpt lat="45.01889" lon="5.32986">
        <ele>432</ele>
        <time>2020-05-21T09:36:26Z</time>
      </trkpt>
      <trkpt lat="45.0187" lon="5.33">
        <ele>435</ele>
        <time>2020-05-21T09:36:29Z</time>
      </trkpt>
      <trkpt lat="45.01871" lon="5.33022">
        <ele>438</ele>
        <time>2020-05-21T09:36:32Z</time>
      </trkpt>
      <trkpt lat="45.01904" lon="5.33023">
        <ele>440</ele>
        <time>2020-05-21T09:36:36Z</time>
      </trkpt>
      <trkpt lat="45.01941" lon="5.33019">
        <ele>443</ele>
        <time>2020-05-21T09:36:39Z</time>
      </trkpt>
      <trkpt lat="45.01977" lon="5.33045">
        <ele>448</ele>
        <time>2020-05-21T09:36:42Z</time>
      </trkpt>
      <trkpt lat="45.02025" lon="5.33104">
        <ele>452</ele>
        <time>2020-05-21T09:36:45Z</time>
      </trkpt>
      <trkpt lat="45.02055" lon="5.33138">
        <ele>456</ele>
        <time>2020-05-21T09:36:48Z</time>
      </trkpt>
      <trkpt lat="45.021" lon="5.33168">
        <ele>460</ele>
        <time>2020-05-21T09:36:51Z</time>
      </trkpt>
      <trkpt lat="45.02129" lon="5.33187">
        <ele>463</ele>
        <time>2020-05-21T09:36:54Z</time>
      </trkpt>
      <trkpt lat="45.02142" lon="5.33239">
        <ele>466</ele>
        <time>2020-05-21T09:36:57Z</time>
      </trkpt>
      <trkpt lat="45.02142" lon="5.33303">
        <ele>469</ele>
        <time>2020-05-21T09:37:00Z</time>
      </trkpt>
      <trkpt lat="45.02143" lon="5.33347">
        <ele>473</ele>
        <time>2020-05-21T09:37:03Z</time>
      </trkpt>
      <trkpt lat="45.02158" lon="5.33402">
        <ele>475</ele>
        <time>2020-05-21T09:37:06Z</time>
      </trkpt>
      <trkpt lat="45.02172" lon="5.33449">
        <ele>477</ele>
        <time>2020-05-21T09:37:09Z</time>
      </trkpt>
      <trkpt lat="45.02186" lon="5.33521">
        <ele>480</ele>
        <time>2020-05-21T09:37:12Z</time>
      </trkpt>
      <trkpt lat="45.02206" lon="5.33581">
        <ele>483</ele>
        <time>2020-05-21T09:37:15Z</time>
      </trkpt>
      <trkpt lat="45.02221" lon="5.33643">
        <ele>486</ele>
        <time>2020-05-21T09:37:18Z</time>
      </trkpt>
      <trkpt lat="45.0225" lon="5.33699">
        <ele>488</ele>
        <time>2020-05-21T09:37:21Z</time>
      </trkpt>
      <trkpt lat="45.0231" lon="5.33715">
        <ele>491</ele>
        <time>2020-05-21T09:37:24Z</time>
      </trkpt>
      <trkpt lat="45.02348" lon="5.33729">
        <ele>496</ele>
        <time>2020-05-21T09:37:28Z</time>
      </trkpt>
      <trkpt lat="45.02384" lon="5.33761">
        <ele>500</ele>
        <time>2020-05-21T09:37:31Z</time>
      </trkpt>
      <trkpt lat="45.02401" lon="5.33791">
        <ele>504</ele>
        <time>2020-05-21T09:37:34Z</time>
      </trkpt>
      <trkpt lat="45.02426" lon="5.3384">
        <ele>508</ele>
        <time>2020-05-21T09:37:37Z</time>
      </trkpt>
      <trkpt lat="45.02463" lon="5.33852">
        <ele>511</ele>
        <time>2020-05-21T09:37:40Z</time>
      </trkpt>
      <trkpt lat="45.0251" lon="5.33841">
        <ele>514</ele>
        <time>2020-05-21T09:37:43Z</time>
      </trkpt>
      <trkpt lat="45.02552" lon="5.33842">
        <ele>519</ele>
        <time>2020-05-21T09:37:46Z</time>
      </trkpt>
      <trkpt lat="45.02609" lon="5.3387">
        <ele>524</ele>
        <time>2020-05-21T09:37:49Z</time>
      </trkpt>
      <trkpt lat="45.02663" lon="5.33907">
        <ele>532</ele>
        <time>2020-05-21T09:37:52Z</time>
      </trkpt>
      <trkpt lat="45.02728" lon="5.3397">
        <ele>539</ele>
        <time>2020-05-21T09:37:55Z</time>
      </trkpt>
      <trkpt lat="45.02784" lon="5.34028">
        <ele>543</ele>
        <time>2020-05-21T09:37:58Z</time>
      </trkpt>
      <trkpt lat="45.02827" lon="5.34072">
        <ele>547</ele>
        <time>2020-05-21T09:38:01Z</time>
      </trkpt>
      <trkpt lat="45.0286" lon="5.34103">
        <ele>550</ele>
        <time>2020-05-21T09:38:05Z</time>
      </trkpt>
      <trkpt lat="45.02878" lon="5.34125">
        <ele>554</ele>
        <time>2020-05-21T09:38:08Z</time>
      </trkpt>
      <trkpt lat="45.02891" lon="5.34142">
        <ele>559</ele>
        <time>2020-05-21T09:38:12Z</time>
      </trkpt>
      <trkpt lat="45.02907" lon="5.3416">
        <ele>559</ele>
        <time>2020-05-21T09:38:15Z</time>
      </trkpt>
      <trkpt lat="45.0292" lon="5.34177">
        <ele>559</ele>
        <time>2020-05-21T09:38:19Z</time>
      </trkpt>
      <trkpt lat="45.02936" lon="5.34197">
        <ele>559</ele>
        <time>2020-05-21T09:38:22Z</time>
      </trkpt>
      <trkpt lat="45.0296" lon="5.34225">
        <ele>564</ele>
        <time>2020-05-21T09:38:25Z</time>
      </trkpt>
      <trkpt lat="45.0299" lon="5.34258">
        <ele>567</ele>
        <time>2020-05-21T09:38:28Z</time>
      </trkpt>
      <trkpt lat="45.03034" lon="5.34322">
        <ele>573</ele>
        <time>2020-05-21T09:38:32Z</time>
      </trkpt>
      <trkpt lat="45.03055" lon="5.34368">
        <ele>578</ele>
        <time>2020-05-21T09:38:35Z</time>
      </trkpt>
      <trkpt lat="45.03073" lon="5.3439">
        <ele>580</ele>
        <time>2020-05-21T09:38:38Z</time>
      </trkpt>
      <trkpt lat="45.03104" lon="5.34427">
        <ele>581</ele>
        <time>2020-05-21T09:38:41Z</time>
      </trkpt>
      <trkpt lat="45.03126" lon="5.34452">
        <ele>581</ele>
        <time>2020-05-21T09:38:44Z</time>
      </trkpt>
      <trkpt lat="45.03159" lon="5.34491">
        <ele>581</ele>
        <time>2020-05-21T09:38:48Z</time>
      </trkpt>
      <trkpt lat="45.03186" lon="5.34522">
        <ele>581</ele>
        <time>2020-05-21T09:38:51Z</time>
      </trkpt>
      <trkpt lat="45.03211" lon="5.34552">
        <ele>581</ele>
        <time>2020-05-21T09:38:54Z</time>
      </trkpt>
      <trkpt lat="45.03239" lon="5.34584">
        <ele>581</ele>
        <time>2020-05-21T09:38:57Z</time>
      </trkpt>
      <trkpt lat="45.03256" lon="5.34607">
        <ele>581</ele>
        <time>2020-05-21T09:39:00Z</time>
      </trkpt>
      <trkpt lat="45.0327" lon="5.34641">
        <ele>593</ele>
        <time>2020-05-21T09:39:04Z</time>
      </trkpt>
      <trkpt lat="45.03295" lon="5.34703">
        <ele>607</ele>
        <time>2020-05-21T09:39:07Z</time>
      </trkpt>
      <trkpt lat="45.03308" lon="5.34708">
        <ele>619</ele>
        <time>2020-05-21T09:39:11Z</time>
      </trkpt>
      <trkpt lat="45.03326" lon="5.3471">
        <ele>627</ele>
        <time>2020-05-21T09:39:14Z</time>
      </trkpt>
      <trkpt lat="45.0333" lon="5.34733">
        <ele>634</ele>
        <time>2020-05-21T09:39:17Z</time>
      </trkpt>
      <trkpt lat="45.03295" lon="5.34741">
        <ele>637</ele>
        <time>2020-05-21T09:39:20Z</time>
      </trkpt>
      <trkpt lat="45.03264" lon="5.34732">
        <ele>646</ele>
        <time>2020-05-21T09:39:23Z</time>
      </trkpt>
      <trkpt lat="45.03257" lon="5.34702">
        <ele>650</ele>
        <time>2020-05-21T09:39:26Z</time>
      </trkpt>
      <trkpt lat="45.03241" lon="5.34687">
        <ele>653</ele>
        <time>2020-05-21T09:39:29Z</time>
      </trkpt>
      <trkpt lat="45.03235" lon="5.34716">
        <ele>658</ele>
        <time>2020-05-21T09:39:32Z</time>
      </trkpt>
      <trkpt lat="45.03241" lon="5.34769">
        <ele>663</ele>
        <time>2020-05-21T09:39:35Z</time>
      </trkpt>
      <trkpt lat="45.03259" lon="5.3479">
        <ele>666</ele>
        <time>2020-05-21T09:39:38Z</time>
      </trkpt>
      <trkpt lat="45.0328" lon="5.34792">
        <ele>669</ele>
        <time>2020-05-21T09:39:42Z</time>
      </trkpt>
      <trkpt lat="45.03298" lon="5.348">
        <ele>670</ele>
        <time>2020-05-21T09:39:45Z</time>
      </trkpt>
      <trkpt lat="45.03259" lon="5.34824">
        <ele>671</ele>
        <time>2020-05-21T09:39:48Z</time>
      </trkpt>
      <trkpt lat="45.03222" lon="5.34812">
        <ele>672</ele>
        <time>2020-05-21T09:39:51Z</time>
      </trkpt>
      <trkpt lat="45.03184" lon="5.34783">
        <ele>674</ele>
        <time>2020-05-21T09:39:55Z</time>
      </trkpt>
      <trkpt lat="45.03157" lon="5.3475">
        <ele>675</ele>
        <time>2020-05-21T09:39:58Z</time>
      </trkpt>
      <trkpt lat="45.03132" lon="5.3473">
        <ele>676</ele>
        <time>2020-05-21T09:40:01Z</time>
      </trkpt>
      <trkpt lat="45.03128" lon="5.34752">
        <ele>677</ele>
        <time>2020-05-21T09:40:04Z</time>
      </trkpt>
      <trkpt lat="45.03136" lon="5.34765">
        <ele>679</ele>
        <time>2020-05-21T09:40:07Z</time>
      </trkpt>
      <trkpt lat="45.03163" lon="5.34804">
        <ele>680</ele>
        <time>2020-05-21T09:40:10Z</time>
      </trkpt>
      <trkpt lat="45.03188" lon="5.3484">
        <ele>683</ele>
        <time>2020-05-21T09:40:13Z</time>
      </trkpt>
      <trkpt lat="45.0322" lon="5.34911">
        <ele>688</ele>
        <time>2020-05-21T09:40:16Z</time>
      </trkpt>
      <trkpt lat="45.03238" lon="5.34996">
        <ele>693</ele>
        <time>2020-05-21T09:40:19Z</time>
      </trkpt>
      <trkpt lat="45.03254" lon="5.35077">
        <ele>697</ele>
        <time>2020-05-21T09:40:22Z</time>
      </trkpt>
      <trkpt lat="45.03263" lon="5.35124">
        <ele>701</ele>
        <time>2020-05-21T09:40:25Z</time>
      </trkpt>
      <trkpt lat="45.03261" lon="5.35157">
        <ele>702</ele>
        <time>2020-05-21T09:40:28Z</time>
      </trkpt>
      <trkpt lat="45.03239" lon="5.35161">
        <ele>704</ele>
        <time>2020-05-21T09:40:31Z</time>
      </trkpt>
      <trkpt lat="45.03217" lon="5.35108">
        <ele>707</ele>
        <time>2020-05-21T09:40:35Z</time>
      </trkpt>
      <trkpt lat="45.03198" lon="5.35043">
        <ele>709</ele>
        <time>2020-05-21T09:40:38Z</time>
      </trkpt>
      <trkpt lat="45.03185" lon="5.34994">
        <ele>714</ele>
        <time>2020-05-21T09:40:41Z</time>
      </trkpt>
      <trkpt lat="45.03162" lon="5.3494">
        <ele>719</ele>
        <time>2020-05-21T09:40:44Z</time>
      </trkpt>
      <trkpt lat="45.03123" lon="5.34897">
        <ele>724</ele>
        <time>2020-05-21T09:40:47Z</time>
      </trkpt>
      <trkpt lat="45.03063" lon="5.34864">
        <ele>729</ele>
        <time>2020-05-21T09:40:50Z</time>
      </trkpt>
      <trkpt lat="45.03" lon="5.34826">
        <ele>736</ele>
        <time>2020-05-21T09:40:53Z</time>
      </trkpt>
      <trkpt lat="45.02931" lon="5.3482">
        <ele>741</ele>
        <time>2020-05-21T09:40:56Z</time>
      </trkpt>
      <trkpt lat="45.02887" lon="5.34806">
        <ele>746</ele>
        <time>2020-05-21T09:40:59Z</time>
      </trkpt>
      <trkpt lat="45.02852" lon="5.34801">
        <ele>750</ele>
        <time>2020-05-21T09:41:03Z</time>
      </trkpt>
      <trkpt lat="45.02846" lon="5.34791">
        <ele>753</ele>
        <time>2020-05-21T09:41:06Z</time>
      </trkpt>
      <trkpt lat="45.0282" lon="5.3483">
        <ele>754</ele>
        <time>2020-05-21T09:41:09Z</time>
      </trkpt>
      <trkpt lat="45.02856" lon="5.34852">
        <ele>760</ele>
        <time>2020-05-21T09:41:13Z</time>
      </trkpt>
      <trkpt lat="45.0291" lon="5.34858">
        <ele>763</ele>
        <time>2020-05-21T09:41:16Z</time>
      </trkpt>
      <trkpt lat="45.02959" lon="5.34888">
        <ele>765</ele>
        <time>2020-05-21T09:41:19Z</time>
      </trkpt>
      <trkpt lat="45.02986" lon="5.34917">
        <ele>768</ele>
        <time>2020-05-21T09:41:22Z</time>
      </trkpt>
      <trkpt lat="45.02996" lon="5.34966">
        <ele>772</ele>
        <time>2020-05-21T09:41:25Z</time>
      </trkpt>
      <trkpt lat="45.02974" lon="5.35018">
        <ele>777</ele>
        <time>2020-05-21T09:41:28Z</time>
      </trkpt>
      <trkpt lat="45.02989" lon="5.35058">
        <ele>779</ele>
        <time>2020-05-21T09:41:31Z</time>
      </trkpt>
      <trkpt lat="45.03029" lon="5.35077">
        <ele>781</ele>
        <time>2020-05-21T09:41:35Z</time>
      </trkpt>
      <trkpt lat="45.03056" lon="5.35093">
        <ele>783</ele>
        <time>2020-05-21T09:41:38Z</time>
      </trkpt>
      <trkpt lat="45.03073" lon="5.35132">
        <ele>786</ele>
        <time>2020-05-21T09:41:41Z</time>
      </trkpt>
      <trkpt lat="45.03068" lon="5.35161">
        <ele>789</ele>
        <time>2020-05-21T09:41:44Z</time>
      </trkpt>
      <trkpt lat="45.03034" lon="5.35214">
        <ele>792</ele>
        <time>2020-05-21T09:41:47Z</time>
      </trkpt>
      <trkpt lat="45.03004" lon="5.35262">
        <ele>794</ele>
        <time>2020-05-21T09:41:50Z</time>
      </trkpt>
      <trkpt lat="45.02993" lon="5.3531">
        <ele>796</ele>
        <time>2020-05-21T09:41:53Z</time>
      </trkpt>
      <trkpt lat="45.03015" lon="5.35337">
        <ele>798</ele>
        <time>2020-05-21T09:41:56Z</time>
      </trkpt>
      <trkpt lat="45.03061" lon="5.35357">
        <ele>802</ele>
        <time>2020-05-21T09:41:59Z</time>
      </trkpt>
      <trkpt lat="45.03114" lon="5.35389">
        <ele>806</ele>
        <time>2020-05-21T09:42:02Z</time>
      </trkpt>
      <trkpt lat="45.03142" lon="5.35442">
        <ele>809</ele>
        <time>2020-05-21T09:42:05Z</time>
      </trkpt>
      <trkpt lat="45.03158" lon="5.35514">
        <ele>810</ele>
        <time>2020-05-21T09:42:09Z</time>
      </trkpt>
      <trkpt lat="45.03163" lon="5.35566">
        <ele>813</ele>
        <time>2020-05-21T09:42:12Z</time>
      </trkpt>
      <trkpt lat="45.03166" lon="5.35674">
        <ele>815</ele>
        <time>2020-05-21T09:42:15Z</time>
      </trkpt>
      <trkpt lat="45.03165" lon="5.35781">
        <ele>819</ele>
        <time>2020-05-21T09:42:18Z</time>
      </trkpt>
      <trkpt lat="45.03163" lon="5.35883">
        <ele>823</ele>
        <time>2020-05-21T09:42:21Z</time>
      </trkpt>
      <trkpt lat="45.03155" lon="5.35974">
        <ele>826</ele>
        <time>2020-05-21T09:42:24Z</time>
      </trkpt>
      <trkpt lat="45.03147" lon="5.3604">
        <ele>829</ele>
        <time>2020-05-21T09:42:27Z</time>
      </trkpt>
      <trkpt lat="45.03151" lon="5.3608">
        <ele>832</ele>
        <time>2020-05-21T09:42:30Z</time>
      </trkpt>
      <trkpt lat="45.03171" lon="5.36087">
        <ele>836</ele>
        <time>2020-05-21T09:42:33Z</time>
      </trkpt>
      <trkpt lat="45.03232" lon="5.36071">
        <ele>841</ele>
        <time>2020-05-21T09:42:37Z</time>
      </trkpt>
      <trkpt lat="45.03269" lon="5.36046">
        <ele>845</ele>
        <time>2020-05-21T09:42:40Z</time>
      </trkpt>
      <trkpt lat="45.0329" lon="5.36022">
        <ele>848</ele>
        <time>2020-05-21T09:42:43Z</time>
      </trkpt>
      <trkpt lat="45.03308" lon="5.36023">
        <ele>855</ele>
        <time>2020-05-21T09:42:47Z</time>
      </trkpt>
      <trkpt lat="45.03305" lon="5.36038">
        <ele>858</ele>
        <time>2020-05-21T09:42:50Z</time>
      </trkpt>
      <trkpt lat="45.03267" lon="5.36087">
        <ele>862</ele>
        <time>2020-05-21T09:42:53Z</time>
      </trkpt>
      <trkpt lat="45.03227" lon="5.36127">
        <ele>865</ele>
        <time>2020-05-21T09:42:56Z</time>
      </trkpt>
      <trkpt lat="45.03179" lon="5.36171">
        <ele>869</ele>
        <time>2020-05-21T09:42:59Z</time>
      </trkpt>
      <trkpt lat="45.03134" lon="5.36214">
        <ele>873</ele>
        <time>2020-05-21T09:43:02Z</time>
      </trkpt>
      <trkpt lat="45.03095" lon="5.36252">
        <ele>876</ele>
        <time>2020-05-21T09:43:05Z</time>
      </trkpt>
      <trkpt lat="45.03061" lon="5.36267">
        <ele>880</ele>
        <time>2020-05-21T09:43:08Z</time>
      </trkpt>
      <trkpt lat="45.03035" lon="5.36234">
        <ele>883</ele>
        <time>2020-05-21T09:43:12Z</time>
      </trkpt>
      <trkpt lat="45.03041" lon="5.36188">
        <ele>886</ele>
        <time>2020-05-21T09:43:15Z</time>
      </trkpt>
      <trkpt lat="45.03049" lon="5.36134">
        <ele>889</ele>
        <time>2020-05-21T09:43:18Z</time>
      </trkpt>
      <trkpt lat="45.03054" lon="5.36095">
        <ele>892</ele>
        <time>2020-05-21T09:43:21Z</time>
      </trkpt>
      <trkpt lat="45.0306" lon="5.36036">
        <ele>894</ele>
        <time>2020-05-21T09:43:24Z</time>
      </trkpt>
      <trkpt lat="45.03067" lon="5.35972">
        <ele>896</ele>
        <time>2020-05-21T09:43:27Z</time>
      </trkpt>
      <trkpt lat="45.03063" lon="5.35913">
        <ele>896</ele>
        <time>2020-05-21T09:43:30Z</time>
      </trkpt>
      <trkpt lat="45.03042" lon="5.35872">
        <ele>898</ele>
        <time>2020-05-21T09:43:33Z</time>
      </trkpt>
      <trkpt lat="45.03008" lon="5.35828">
        <ele>901</ele>
        <time>2020-05-21T09:43:36Z</time>
      </trkpt>
      <trkpt lat="45.02973" lon="5.35761">
        <ele>905</ele>
        <time>2020-05-21T09:43:40Z</time>
      </trkpt>
      <trkpt lat="45.02949" lon="5.35718">
        <ele>908</ele>
        <time>2020-05-21T09:43:43Z</time>
      </trkpt>
      <trkpt lat="45.0291" lon="5.35692">
        <ele>911</ele>
        <time>2020-05-21T09:43:46Z</time>
      </trkpt>
      <trkpt lat="45.02878" lon="5.35696">
        <ele>913</ele>
        <time>2020-05-21T09:43:49Z</time>
      </trkpt>
      <trkpt lat="45.02824" lon="5.35737">
        <ele>917</ele>
        <time>2020-05-21T09:43:52Z</time>
      </trkpt>
      <trkpt lat="45.02769" lon="5.35781">
        <ele>921</ele>
        <time>2020-05-21T09:43:55Z</time>
      </trkpt>
      <trkpt lat="45.0272" lon="5.35821">
        <ele>925</ele>
        <time>2020-05-21T09:43:58Z</time>
      </trkpt>
      <trkpt lat="45.02675" lon="5.35849">
        <ele>929</ele>
        <time>2020-05-21T09:44:01Z</time>
      </trkpt>
      <trkpt lat="45.02647" lon="5.3584">
        <ele>930</ele>
        <time>2020-05-21T09:44:04Z</time>
      </trkpt>
      <trkpt lat="45.02629" lon="5.35797">
        <ele>932</ele>
        <time>2020-05-21T09:44:07Z</time>
      </trkpt>
      <trkpt lat="45.02632" lon="5.35741">
        <ele>934</ele>
        <time>2020-05-21T09:44:10Z</time>
      </trkpt>
      <trkpt lat="45.02636" lon="5.35664">
        <ele>938</ele>
        <time>2020-05-21T09:44:14Z</time>
      </trkpt>
      <trkpt lat="45.02615" lon="5.35633">
        <ele>942</ele>
        <time>2020-05-21T09:44:17Z</time>
      </trkpt>
      <trkpt lat="45.0258" lon="5.35624">
        <ele>945</ele>
        <time>2020-05-21T09:44:20Z</time>
      </trkpt>
      <trkpt lat="45.02536" lon="5.35643">
        <ele>949</ele>
        <time>2020-05-21T09:44:23Z</time>
      </trkpt>
      <trkpt lat="45.02493" lon="5.35671">
        <ele>953</ele>
        <time>2020-05-21T09:44:26Z</time>
      </trkpt>
      <trkpt lat="45.02453" lon="5.35676">
        <ele>957</ele>
        <time>2020-05-21T09:44:29Z</time>
      </trkpt>
      <trkpt lat="45.0241" lon="5.35645">
        <ele>961</ele>
        <time>2020-05-21T09:44:32Z</time>
      </trkpt>
      <trkpt lat="45.02377" lon="5.35629">
        <ele>963</ele>
        <time>2020-05-21T09:44:35Z</time>
      </trkpt>
      <trkpt lat="45.02336" lon="5.3566">
        <ele>963</ele>
        <time>2020-05-21T09:44:38Z</time>
      </trkpt>
      <trkpt lat="45.0231" lon="5.35738">
        <ele>963</ele>
        <time>2020-05-21T09:44:41Z</time>
      </trkpt>
      <trkpt lat="45.02287" lon="5.35808">
        <ele>963</ele>
        <time>2020-05-21T09:44:44Z</time>
      </trkpt>
      <trkpt lat="45.02257" lon="5.35855">
        <ele>964</ele>
        <time>2020-05-21T09:44:47Z</time>
      </trkpt>
      <trkpt lat="45.02229" lon="5.35876">
        <ele>967</ele>
        <time>2020-05-21T09:44:50Z</time>
      </trkpt>
      <trkpt lat="45.02177" lon="5.35863">
        <ele>971</ele>
        <time>2020-05-21T09:44:53Z</time>
      </trkpt>
      <trkpt lat="45.02126" lon="5.35808">
        <ele>975</ele>
        <time>2020-05-21T09:44:56Z</time>
      </trkpt>
      <trkpt lat="45.02074" lon="5.35759">
        <ele>979</ele>
        <time>2020-05-21T09:44:59Z</time>
      </trkpt>
      <trkpt lat="45.0203" lon="5.35722">
        <ele>983</ele>
        <time>2020-05-21T09:45:02Z</time>
      </trkpt>
      <trkpt lat="45.01972" lon="5.35706">
        <ele>988</ele>
        <time>2020-05-21T09:45:06Z</time>
      </trkpt>
      <trkpt lat="45.01946" lon="5.35746">
        <ele>991</ele>
        <time>2020-05-21T09:45:09Z</time>
      </trkpt>
      <trkpt lat="45.0191" lon="5.35789">
        <ele>993</ele>
        <time>2020-05-21T09:45:12Z</time>
      </trkpt>
      <trkpt lat="45.01896" lon="5.35838">
        <ele>993</ele>
        <time>2020-05-21T09:45:15Z</time>
      </trkpt>
      <trkpt lat="45.01908" lon="5.35891">
        <ele>993</ele>
        <time>2020-05-21T09:45:18Z</time>
      </trkpt>
      <trkpt lat="45.01902" lon="5.35942">
        <ele>995</ele>
        <time>2020-05-21T09:45:21Z</time>
      </trkpt>
      <trkpt lat="45.01865" lon="5.35993">
        <ele>998</ele>
        <time>2020-05-21T09:45:24Z</time>
      </trkpt>
      <trkpt lat="45.01841" lon="5.36023">
        <ele>1001</ele>
        <time>2020-05-21T09:45:27Z</time>
      </trkpt>
      <trkpt lat="45.01804" lon="5.36083">
        <ele>1003</ele>
        <time>2020-05-21T09:45:30Z</time>
      </trkpt>
      <trkpt lat="45.0177" lon="5.3612">
        <ele>1005</ele>
        <time>2020-05-21T09:45:33Z</time>
      </trkpt>
      <trkpt lat="45.01725" lon="5.36096">
        <ele>1008</ele>
        <time>2020-05-21T09:45:37Z</time>
      </trkpt>
      <trkpt lat="45.01664" lon="5.36058">
        <ele>1011</ele>
        <time>2020-05-21T09:45:40Z</time>
      </trkpt>
      <trkpt lat="45.0161" lon="5.35994">
        <ele>1013</ele>
        <time>2020-05-21T09:45:43Z</time>
      </trkpt>
      <trkpt lat="45.01552" lon="5.35936">
        <ele>1016</ele>
        <time>2020-05-21T09:45:46Z</time>
      </trkpt>
      <trkpt lat="45.01484" lon="5.35882">
        <ele>1020</ele>
        <time>2020-05-21T09:45:49Z</time>
      </trkpt>
      <trkpt lat="45.01423" lon="5.35858">
        <ele>1024</ele>
        <time>2020-05-21T09:45:52Z</time>
      </trkpt>
      <trkpt lat="45.01363" lon="5.3584">
        <ele>1028</ele>
        <time>2020-05-21T09:45:55Z</time>
      </trkpt>
      <trkpt lat="45.01313" lon="5.35842">
        <ele>1031</ele>
        <time>2020-05-21T09:45:58Z</time>
      </trkpt>
      <trkpt lat="45.0128" lon="5.35858">
        <ele>1035</ele>
        <time>2020-05-21T09:46:01Z</time>
      </trkpt>
      <trkpt lat="45.01235" lon="5.35914">
        <ele>1038</ele>
        <time>2020-05-21T09:46:04Z</time>
      </trkpt>
      <trkpt lat="45.01196" lon="5.35994">
        <ele>1041</ele>
        <time>2020-05-21T09:46:08Z</time>
      </trkpt>
      <trkpt lat="45.01159" lon="5.36072">
        <ele>1044</ele>
        <time>2020-05-21T09:46:11Z</time>
      </trkpt>
      <trkpt lat="45.01121" lon="5.36153">
        <ele>1047</ele>
        <time>2020-05-21T09:46:14Z</time>
      </trkpt>
      <trkpt lat="45.01085" lon="5.3622">
        <ele>1050</ele>
        <time>2020-05-21T09:46:17Z</time>
      </trkpt>
      <trkpt lat="45.01025" lon="5.36287">
        <ele>1054</ele>
        <time>2020-05-21T09:46:20Z</time>
      </trkpt>
      <trkpt lat="45.00984" lon="5.36303">
        <ele>1057</ele>
        <time>2020-05-21T09:46:23Z</time>
      </trkpt>
      <trkpt lat="45.00943" lon="5.36282">
        <ele>1060</ele>
        <time>2020-05-21T09:46:26Z</time>
      </trkpt>
      <trkpt lat="45.00911" lon="5.36241">
        <ele>1063</ele>
        <time>2020-05-21T09:46:29Z</time>
      </trkpt>
      <trkpt lat="45.00886" lon="5.36217">
        <ele>1065</ele>
        <time>2020-05-21T09:46:32Z</time>
      </trkpt>
      <trkpt lat="45.00838" lon="5.3621">
        <ele>1067</ele>
        <time>2020-05-21T09:46:35Z</time>
      </trkpt>
      <trkpt lat="45.00806" lon="5.36219">
        <ele>1069</ele>
        <time>2020-05-21T09:46:38Z</time>
      </trkpt>
      <trkpt lat="45.00744" lon="5.36212">
        <ele>1075</ele>
        <time>2020-05-21T09:46:41Z</time>
      </trkpt>
      <trkpt lat="45.00707" lon="5.36171">
        <ele>1080</ele>
        <time>2020-05-21T09:46:44Z</time>
      </trkpt>
      <trkpt lat="45.00669" lon="5.36141">
        <ele>1085</ele>
        <time>2020-05-21T09:46:47Z</time>
      </trkpt>
      <trkpt lat="45.00626" lon="5.36144">
        <ele>1089</ele>
        <time>2020-05-21T09:46:50Z</time>
      </trkpt>
      <trkpt lat="45.00582" lon="5.36184">
        <ele>1093</ele>
        <time>2020-05-21T09:46:53Z</time>
      </trkpt>
      <trkpt lat="45.00553" lon="5.36215">
        <ele>1095</ele>
        <time>2020-05-21T09:46:57Z</time>
      </trkpt>
      <trkpt lat="45.00513" lon="5.36255">
        <ele>1096</ele>
        <time>2020-05-21T09:47:00Z</time>
      </trkpt>
      <trkpt lat="45.0048" lon="5.36258">
        <ele>1097</ele>
        <time>2020-05-21T09:47:03Z</time>
      </trkpt>
      <trkpt lat="45.00426" lon="5.36262">
        <ele>1098</ele>
        <time>2020-05-21T09:47:06Z</time>
      </trkpt>
      <trkpt lat="45.00365" lon="5.36253">
        <ele>1098</ele>
        <time>2020-05-21T09:47:09Z</time>
      </trkpt>
      <trkpt lat="45.00307" lon="5.36241">
        <ele>1098</ele>
        <time>2020-05-21T09:47:12Z</time>
      </trkpt>
      <trkpt lat="45.0022" lon="5.36214">
        <ele>1098</ele>
        <time>2020-05-21T09:47:15Z</time>
      </trkpt>
      <trkpt lat="45.00156" lon="5.36196">
        <ele>1098</ele>
        <time>2020-05-21T09:47:18Z</time>
      </trkpt>
      <trkpt lat="45.00102" lon="5.36193">
        <ele>1098</ele>
        <time>2020-05-21T09:47:21Z</time>
      </trkpt>
      <trkpt lat="45.00048" lon="5.36216">
        <ele>1098</ele>
        <time>2020-05-21T09:47:24Z</time>
      </trkpt>
      <trkpt lat="44.99993" lon="5.3626">
        <ele>1098</ele>
        <time>2020-05-21T09:47:27Z</time>
      </trkpt>
      <trkpt lat="44.99953" lon="5.36297">
        <ele>1098</ele>
        <time>2020-05-21T09:47:30Z</time>
      </trkpt>
      <trkpt lat="44.99894" lon="5.36347">
        <ele>1098</ele>
        <time>2020-05-21T09:47:33Z</time>
      </trkpt>
      <trkpt lat="44.99844" lon="5.36396">
        <ele>1097</ele>
        <time>2020-05-21T09:47:37Z</time>
      </trkpt>
      <trkpt lat="44.99808" lon="5.36462">
        <ele>1097</ele>
        <time>2020-05-21T09:47:40Z</time>
      </trkpt>
      <trkpt lat="44.99783" lon="5.36522">
        <ele>1096</ele>
        <time>2020-05-21T09:47:43Z</time>
      </trkpt>
      <trkpt lat="44.99752" lon="5.36561">
        <ele>1095</ele>
        <time>2020-05-21T09:47:46Z</time>
      </trkpt>
      <trkpt lat="44.99715" lon="5.36557">
        <ele>1095</ele>
        <time>2020-05-21T09:47:49Z</time>
      </trkpt>
      <trkpt lat="44.99693" lon="5.36505">
        <ele>1095</ele>
        <time>2020-05-21T09:47:52Z</time>
      </trkpt>
      <trkpt lat="44.99677" lon="5.36434">
        <ele>1096</ele>
        <time>2020-05-21T09:47:55Z</time>
      </trkpt>
      <trkpt lat="44.99659" lon="5.36376">
        <ele>1096</ele>
        <time>2020-05-21T09:47:58Z</time>
      </trkpt>
      <trkpt lat="44.99635" lon="5.36368">
        <ele>1096</ele>
        <time>2020-05-21T09:48:01Z</time>
      </trkpt>
      <trkpt lat="44.99579" lon="5.36374">
        <ele>1096</ele>
        <time>2020-05-21T09:48:04Z</time>
      </trkpt>
      <trkpt lat="44.99529" lon="5.3638">
        <ele>1097</ele>
        <time>2020-05-21T09:48:07Z</time>
      </trkpt>
      <trkpt lat="44.99488" lon="5.3638">
        <ele>1098</ele>
        <time>2020-05-21T09:48:10Z</time>
      </trkpt>
      <trkpt lat="44.99457" lon="5.36334">
        <ele>1098</ele>
        <time>2020-05-21T09:48:13Z</time>
      </trkpt>
      <trkpt lat="44.99436" lon="5.36268">
        <ele>1099</ele>
        <time>2020-05-21T09:48:17Z</time>
      </trkpt>
      <trkpt lat="44.99419" lon="5.36211">
        <ele>1099</ele>
        <time>2020-05-21T09:48:20Z</time>
      </trkpt>
      <trkpt lat="44.9937" lon="5.36186">
        <ele>1099</ele>
        <time>2020-05-21T09:48:23Z</time>
      </trkpt>
      <trkpt lat="44.99323" lon="5.36203">
        <ele>1099</ele>
        <time>2020-05-21T09:48:26Z</time>
      </trkpt>
      <trkpt lat="44.99289" lon="5.36216">
        <ele>1098</ele>
        <time>2020-05-21T09:48:29Z</time>
      </trkpt>
      <trkpt lat="44.99238" lon="5.3623">
        <ele>1096</ele>
        <time>2020-05-21T09:48:32Z</time>
      </trkpt>
      <trkpt lat="44.99176" lon="5.3622">
        <ele>1094</ele>
        <time>2020-05-21T09:48:35Z</time>
      </trkpt>
      <trkpt lat="44.99107" lon="5.3619">
        <ele>1092</ele>
        <time>2020-05-21T09:48:38Z</time>
      </trkpt>
      <trkpt lat="44.99045" lon="5.36154">
        <ele>1089</ele>
        <time>2020-05-21T09:48:41Z</time>
      </trkpt>
      <trkpt lat="44.98965" lon="5.36083">
        <ele>1085</ele>
        <time>2020-05-21T09:48:44Z</time>
      </trkpt>
      <trkpt lat="44.98892" lon="5.36011">
        <ele>1082</ele>
        <time>2020-05-21T09:48:47Z</time>
      </trkpt>
      <trkpt lat="44.98832" lon="5.35944">
        <ele>1081</ele>
        <time>2020-05-21T09:48:50Z</time>
      </trkpt>
      <trkpt lat="44.9879" lon="5.35878">
        <ele>1081</ele>
        <time>2020-05-21T09:48:53Z</time>
      </trkpt>
      <trkpt lat="44.98766" lon="5.35803">
        <ele>1082</ele>
        <time>2020-05-21T09:48:57Z</time>
      </trkpt>
      <trkpt lat="44.98759" lon="5.35687">
        <ele>1083</ele>
        <time>2020-05-21T09:49:00Z</time>
      </trkpt>
      <trkpt lat="44.98758" lon="5.35634">
        <ele>1083</ele>
        <time>2020-05-21T09:49:03Z</time>
      </trkpt>
      <trkpt lat="44.98744" lon="5.35573">
        <ele>1082</ele>
        <time>2020-05-21T09:49:06Z</time>
      </trkpt>
      <trkpt lat="44.98708" lon="5.35533">
        <ele>1082</ele>
        <time>2020-05-21T09:49:09Z</time>
      </trkpt>
      <trkpt lat="44.98647" lon="5.35496">
        <ele>1082</ele>
        <time>2020-05-21T09:49:12Z</time>
      </trkpt>
      <trkpt lat="44.98564" lon="5.35447">
        <ele>1083</ele>
        <time>2020-05-21T09:49:16Z</time>
      </trkpt>
      <trkpt lat="44.985" lon="5.35409">
        <ele>1085</ele>
        <time>2020-05-21T09:49:19Z</time>
      </trkpt>
      <trkpt lat="44.98437" lon="5.3537">
        <ele>1087</ele>
        <time>2020-05-21T09:49:22Z</time>
      </trkpt>
      <trkpt lat="44.98396" lon="5.35338">
        <ele>1091</ele>
        <time>2020-05-21T09:49:26Z</time>
      </trkpt>
      <trkpt lat="44.98382" lon="5.35294">
        <ele>1095</ele>
        <time>2020-05-21T09:49:29Z</time>
      </trkpt>
      <trkpt lat="44.98411" lon="5.35206">
        <ele>1099</ele>
        <time>2020-05-21T09:49:32Z</time>
      </trkpt>
      <trkpt lat="44.9844" lon="5.35149">
        <ele>1104</ele>
        <time>2020-05-21T09:49:35Z</time>
      </trkpt>
      <trkpt lat="44.98456" lon="5.35102">
        <ele>1110</ele>
        <time>2020-05-21T09:49:38Z</time>
      </trkpt>
      <trkpt lat="44.98456" lon="5.3507">
        <ele>1113</ele>
        <time>2020-05-21T09:49:41Z</time>
      </trkpt>
      <trkpt lat="44.98434" lon="5.35028">
        <ele>1116</ele>
        <time>2020-05-21T09:49:44Z</time>
      </trkpt>
      <trkpt lat="44.98388" lon="5.3501">
        <ele>1118</ele>
        <time>2020-05-21T09:49:47Z</time>
      </trkpt>
      <trkpt lat="44.98333" lon="5.35007">
        <ele>1121</ele>
        <time>2020-05-21T09:49:50Z</time>
      </trkpt>
      <trkpt lat="44.98278" lon="5.34996">
        <ele>1124</ele>
        <time>2020-05-21T09:49:54Z</time>
      </trkpt>
      <trkpt lat="44.98228" lon="5.34964">
        <ele>1126</ele>
        <time>2020-05-21T09:49:57Z</time>
      </trkpt>
      <trkpt lat="44.98185" lon="5.34904">
        <ele>1129</ele>
        <time>2020-05-21T09:50:00Z</time>
      </trkpt>
      <trkpt lat="44.98146" lon="5.34823">
        <ele>1131</ele>
        <time>2020-05-21T09:50:03Z</time>
      </trkpt>
      <trkpt lat="44.98116" lon="5.34755">
        <ele>1133</ele>
        <time>2020-05-21T09:50:06Z</time>
      </trkpt>
      <trkpt lat="44.98093" lon="5.34688">
        <ele>1134</ele>
        <time>2020-05-21T09:50:09Z</time>
      </trkpt>
      <trkpt lat="44.98077" lon="5.34632">
        <ele>1135</ele>
        <time>2020-05-21T09:50:12Z</time>
      </trkpt>
      <trkpt lat="44.98064" lon="5.34597">
        <ele>1136</ele>
        <time>2020-05-21T09:50:15Z</time>
      </trkpt>
      <trkpt lat="44.98027" lon="5.3455">
        <ele>1137</ele>
        <time>2020-05-21T09:50:18Z</time>
      </trkpt>
      <trkpt lat="44.9798" lon="5.34511">
        <ele>1138</ele>
        <time>2020-05-21T09:50:21Z</time>
      </trkpt>
      <trkpt lat="44.97928" lon="5.34464">
        <ele>1135</ele>
        <time>2020-05-21T09:50:24Z</time>
      </trkpt>
      <trkpt lat="44.979" lon="5.34403">
        <ele>1133</ele>
        <time>2020-05-21T09:50:27Z</time>
      </trkpt>
      <trkpt lat="44.97873" lon="5.34348">
        <ele>1132</ele>
        <time>2020-05-21T09:50:30Z</time>
      </trkpt>
      <trkpt lat="44.97833" lon="5.34306">
        <ele>1132</ele>
        <time>2020-05-21T09:50:34Z</time>
      </trkpt>
      <trkpt lat="44.97756" lon="5.34268">
        <ele>1132</ele>
        <time>2020-05-21T09:50:37Z</time>
      </trkpt>
      <trkpt lat="44.97696" lon="5.34236">
        <ele>1131</ele>
        <time>2020-05-21T09:50:40Z</time>
      </trkpt>
      <trkpt lat="44.97625" lon="5.34186">
        <ele>1129</ele>
        <time>2020-05-21T09:50:43Z</time>
      </trkpt>
      <trkpt lat="44.97561" lon="5.34138">
        <ele>1127</ele>
        <time>2020-05-21T09:50:46Z</time>
      </trkpt>
      <trkpt lat="44.97497" lon="5.34103">
        <ele>1125</ele>
        <time>2020-05-21T09:50:49Z</time>
      </trkpt>
      <trkpt lat="44.9745" lon="5.34084">
        <ele>1123</ele>
        <time>2020-05-21T09:50:52Z</time>
      </trkpt>
      <trkpt lat="44.97373" lon="5.34056">
        <ele>1121</ele>
        <time>2020-05-21T09:50:55Z</time>
      </trkpt>
      <trkpt lat="44.97302" lon="5.34033">
        <ele>1120</ele>
        <time>2020-05-21T09:50:58Z</time>
      </trkpt>
      <trkpt lat="44.97229" lon="5.34009">
        <ele>1117</ele>
        <time>2020-05-21T09:51:01Z</time>
      </trkpt>
      <trkpt lat="44.97159" lon="5.33982">
        <ele>1115</ele>
        <time>2020-05-21T09:51:04Z</time>
      </trkpt>
      <trkpt lat="44.97102" lon="5.33951">
        <ele>1112</ele>
        <time>2020-05-21T09:51:07Z</time>
      </trkpt>
      <trkpt lat="44.97062" lon="5.33904">
        <ele>1110</ele>
        <time>2020-05-21T09:51:10Z</time>
      </trkpt>
      <trkpt lat="44.97053" lon="5.33855">
        <ele>1109</ele>
        <time>2020-05-21T09:51:13Z</time>
      </trkpt>
      <trkpt lat="44.97073" lon="5.33807">
        <ele>1108</ele>
        <time>2020-05-21T09:51:17Z</time>
      </trkpt>
      <trkpt lat="44.97118" lon="5.33782">
        <ele>1108</ele>
        <time>2020-05-21T09:51:20Z</time>
      </trkpt>
      <trkpt lat="44.97158" lon="5.33763">
        <ele>1106</ele>
        <time>2020-05-21T09:51:23Z</time>
      </trkpt>
      <trkpt lat="44.97225" lon="5.33732">
        <ele>1104</ele>
        <time>2020-05-21T09:51:26Z</time>
      </trkpt>
      <trkpt lat="44.97297" lon="5.33704">
        <ele>1102</ele>
        <time>2020-05-21T09:51:29Z</time>
      </trkpt>
      <trkpt lat="44.97356" lon="5.33668">
        <ele>1099</ele>
        <time>2020-05-21T09:51:32Z</time>
      </trkpt>
      <trkpt lat="44.97399" lon="5.33617">
        <ele>1098</ele>
        <time>2020-05-21T09:51:35Z</time>
      </trkpt>
      <trkpt lat="44.97423" lon="5.33573">
        <ele>1096</ele>
        <time>2020-05-21T09:51:38Z</time>
      </trkpt>
      <trkpt lat="44.9744" lon="5.33538">
        <ele>1094</ele>
        <time>2020-05-21T09:51:41Z</time>
      </trkpt>
      <trkpt lat="44.97456" lon="5.33508">
        <ele>1092</ele>
        <time>2020-05-21T09:51:44Z</time>
      </trkpt>
      <trkpt lat="44.97466" lon="5.33489">
        <ele>1091</ele>
        <time>2020-05-21T09:51:47Z</time>
      </trkpt>
      <trkpt lat="44.97476" lon="5.33478">
        <ele>1090</ele>
        <time>2020-05-21T09:51:50Z</time>
      </trkpt>
      <trkpt lat="44.97518" lon="5.3346">
        <ele>1089</ele>
        <time>2020-05-21T09:51:53Z</time>
      </trkpt>
      <trkpt lat="44.97532" lon="5.33452">
        <ele>1087</ele>
        <time>2020-05-21T09:51:56Z</time>
      </trkpt>
      <trkpt lat="44.97575" lon="5.33419">
        <ele>1084</ele>
        <time>2020-05-21T09:51:59Z</time>
      </trkpt>
      <trkpt lat="44.97616" lon="5.3339">
        <ele>1082</ele>
        <time>2020-05-21T09:52:02Z</time>
      </trkpt>
      <trkpt lat="44.97652" lon="5.33366">
        <ele>1079</ele>
        <time>2020-05-21T09:52:05Z</time>
      </trkpt>
      <trkpt lat="44.97691" lon="5.33348">
        <ele>1077</ele>
        <time>2020-05-21T09:52:08Z</time>
      </trkpt>
      <trkpt lat="44.97722" lon="5.33345">
        <ele>1076</ele>
        <time>2020-05-21T09:52:11Z</time>
      </trkpt>
      <trkpt lat="44.97747" lon="5.33343">
        <ele>1074</ele>
        <time>2020-05-21T09:52:14Z</time>
      </trkpt>
      <trkpt lat="44.97775" lon="5.3333">
        <ele>1073</ele>
        <time>2020-05-21T09:52:17Z</time>
      </trkpt>
      <trkpt lat="44.97793" lon="5.33315">
        <ele>1071</ele>
        <time>2020-05-21T09:52:20Z</time>
      </trkpt>
      <trkpt lat="44.97816" lon="5.33294">
        <ele>1071</ele>
        <time>2020-05-21T09:52:23Z</time>
      </trkpt>
      <trkpt lat="44.97832" lon="5.33287">
        <ele>1072</ele>
        <time>2020-05-21T09:52:27Z</time>
      </trkpt>
      <trkpt lat="44.97851" lon="5.3328">
        <ele>1072</ele>
        <time>2020-05-21T09:52:30Z</time>
      </trkpt>
      <trkpt lat="44.97874" lon="5.33271">
        <ele>1072</ele>
        <time>2020-05-21T09:52:33Z</time>
      </trkpt>
      <trkpt lat="44.97899" lon="5.33262">
        <ele>1072</ele>
        <time>2020-05-21T09:52:36Z</time>
      </trkpt>
      <trkpt lat="44.97931" lon="5.3325">
        <ele>1072</ele>
        <time>2020-05-21T09:52:40Z</time>
      </trkpt>
      <trkpt lat="44.9797" lon="5.3325">
        <ele>1071</ele>
        <time>2020-05-21T09:52:44Z</time>
      </trkpt>
      <trkpt lat="44.98002" lon="5.33286">
        <ele>1070</ele>
        <time>2020-05-21T09:52:47Z</time>
      </trkpt>
      <trkpt lat="44.98022" lon="5.33294">
        <ele>1068</ele>
        <time>2020-05-21T09:52:50Z</time>
      </trkpt>
      <trkpt lat="44.98039" lon="5.33292">
        <ele>1064</ele>
        <time>2020-05-21T09:52:53Z</time>
      </trkpt>
      <trkpt lat="44.98059" lon="5.33292">
        <ele>1059</ele>
        <time>2020-05-21T09:52:57Z</time>
      </trkpt>
      <trkpt lat="44.98078" lon="5.33301">
        <ele>1054</ele>
        <time>2020-05-21T09:53:00Z</time>
      </trkpt>
      <trkpt lat="44.98103" lon="5.33307">
        <ele>1051</ele>
        <time>2020-05-21T09:53:03Z</time>
      </trkpt>
      <trkpt lat="44.98127" lon="5.33305">
        <ele>1049</ele>
        <time>2020-05-21T09:53:06Z</time>
      </trkpt>
      <trkpt lat="44.98158" lon="5.33301">
        <ele>1047</ele>
        <time>2020-05-21T09:53:09Z</time>
      </trkpt>
      <trkpt lat="44.98198" lon="5.33308">
        <ele>1046</ele>
        <time>2020-05-21T09:53:13Z</time>
      </trkpt>
      <trkpt lat="44.98229" lon="5.33316">
        <ele>1045</ele>
        <time>2020-05-21T09:53:16Z</time>
      </trkpt>
      <trkpt lat="44.98262" lon="5.33306">
        <ele>1045</ele>
        <time>2020-05-21T09:53:20Z</time>
      </trkpt>
      <trkpt lat="44.98283" lon="5.33299">
        <ele>1045</ele>
        <time>2020-05-21T09:53:23Z</time>
      </trkpt>
      <trkpt lat="44.9831" lon="5.33293">
        <ele>1045</ele>
        <time>2020-05-21T09:53:27Z</time>
      </trkpt>
      <trkpt lat="44.98338" lon="5.33291">
        <ele>1044</ele>
        <time>2020-05-21T09:53:30Z</time>
      </trkpt>
      <trkpt lat="44.9836" lon="5.33277">
        <ele>1043</ele>
        <time>2020-05-21T09:53:33Z</time>
      </trkpt>
      <trkpt lat="44.9839" lon="5.33259">
        <ele>1041</ele>
        <time>2020-05-21T09:53:36Z</time>
      </trkpt>
      <trkpt lat="44.98431" lon="5.33259">
        <ele>1041</ele>
        <time>2020-05-21T09:53:40Z</time>
      </trkpt>
      <trkpt lat="44.98464" lon="5.33256">
        <ele>1039</ele>
        <time>2020-05-21T09:53:43Z</time>
      </trkpt>
      <trkpt lat="44.98504" lon="5.33253">
        <ele>1039</ele>
        <time>2020-05-21T09:53:46Z</time>
      </trkpt>
      <trkpt lat="44.98559" lon="5.33258">
        <ele>1037</ele>
        <time>2020-05-21T09:53:49Z</time>
      </trkpt>
      <trkpt lat="44.98596" lon="5.33282">
        <ele>1036</ele>
        <time>2020-05-21T09:53:52Z</time>
      </trkpt>
      <trkpt lat="44.98633" lon="5.3329">
        <ele>1034</ele>
        <time>2020-05-21T09:53:55Z</time>
      </trkpt>
      <trkpt lat="44.98672" lon="5.333">
        <ele>1033</ele>
        <time>2020-05-21T09:53:59Z</time>
      </trkpt>
      <trkpt lat="44.98721" lon="5.3332">
        <ele>1031</ele>
        <time>2020-05-21T09:54:02Z</time>
      </trkpt>
      <trkpt lat="44.98755" lon="5.33341">
        <ele>1030</ele>
        <time>2020-05-21T09:54:05Z</time>
      </trkpt>
      <trkpt lat="44.98776" lon="5.33354">
        <ele>1029</ele>
        <time>2020-05-21T09:54:08Z</time>
      </trkpt>
      <trkpt lat="44.98814" lon="5.33356">
        <ele>1028</ele>
        <time>2020-05-21T09:54:12Z</time>
      </trkpt>
      <trkpt lat="44.98839" lon="5.33328">
        <ele>1028</ele>
        <time>2020-05-21T09:54:15Z</time>
      </trkpt>
      <trkpt lat="44.98858" lon="5.33291">
        <ele>1028</ele>
        <time>2020-05-21T09:54:18Z</time>
      </trkpt>
      <trkpt lat="44.98881" lon="5.33265">
        <ele>1029</ele>
        <time>2020-05-21T09:54:22Z</time>
      </trkpt>
      <trkpt lat="44.98902" lon="5.33268">
        <ele>1029</ele>
        <time>2020-05-21T09:54:25Z</time>
      </trkpt>
      <trkpt lat="44.98927" lon="5.33299">
        <ele>1027</ele>
        <time>2020-05-21T09:54:29Z</time>
      </trkpt>
      <trkpt lat="44.98954" lon="5.33341">
        <ele>1023</ele>
        <time>2020-05-21T09:54:32Z</time>
      </trkpt>
      <trkpt lat="44.98978" lon="5.33359">
        <ele>1020</ele>
        <time>2020-05-21T09:54:35Z</time>
      </trkpt>
      <trkpt lat="44.98996" lon="5.3337">
        <ele>1019</ele>
        <time>2020-05-21T09:54:38Z</time>
      </trkpt>
      <trkpt lat="44.99029" lon="5.33381">
        <ele>1018</ele>
        <time>2020-05-21T09:54:41Z</time>
      </trkpt>
      <trkpt lat="44.99066" lon="5.33378">
        <ele>1017</ele>
        <time>2020-05-21T09:54:44Z</time>
      </trkpt>
      <trkpt lat="44.99101" lon="5.3337">
        <ele>1017</ele>
        <time>2020-05-21T09:54:47Z</time>
      </trkpt>
      <trkpt lat="44.99152" lon="5.33359">
        <ele>1016</ele>
        <time>2020-05-21T09:54:51Z</time>
      </trkpt>
      <trkpt lat="44.99194" lon="5.33375">
        <ele>1014</ele>
        <time>2020-05-21T09:54:54Z</time>
      </trkpt>
      <trkpt lat="44.9923" lon="5.33392">
        <ele>1012</ele>
        <time>2020-05-21T09:54:57Z</time>
      </trkpt>
      <trkpt lat="44.99262" lon="5.33397">
        <ele>1010</ele>
        <time>2020-05-21T09:55:00Z</time>
      </trkpt>
      <trkpt lat="44.99302" lon="5.33403">
        <ele>1008</ele>
        <time>2020-05-21T09:55:04Z</time>
      </trkpt>
      <trkpt lat="44.99325" lon="5.33406">
        <ele>1006</ele>
        <time>2020-05-21T09:55:08Z</time>
      </trkpt>
      <trkpt lat="44.99371" lon="5.33392">
        <ele>1005</ele>
        <time>2020-05-21T09:55:11Z</time>
      </trkpt>
      <trkpt lat="44.99405" lon="5.33383">
        <ele>1005</ele>
        <time>2020-05-21T09:55:14Z</time>
      </trkpt>
      <trkpt lat="44.99446" lon="5.33388">
        <ele>1004</ele>
        <time>2020-05-21T09:55:17Z</time>
      </trkpt>
      <trkpt lat="44.99485" lon="5.33383">
        <ele>1003</ele>
        <time>2020-05-21T09:55:20Z</time>
      </trkpt>
      <trkpt lat="44.99526" lon="5.33392">
        <ele>1002</ele>
        <time>2020-05-21T09:55:23Z</time>
      </trkpt>
      <trkpt lat="44.99568" lon="5.3341">
        <ele>999</ele>
        <time>2020-05-21T09:55:26Z</time>
      </trkpt>
      <trkpt lat="44.99609" lon="5.33427">
        <ele>994</ele>
        <time>2020-05-21T09:55:29Z</time>
      </trkpt>
      <trkpt lat="44.99646" lon="5.33442">
        <ele>989</ele>
        <time>2020-05-21T09:55:33Z</time>
      </trkpt>
      <trkpt lat="44.99677" lon="5.3346">
        <ele>986</ele>
        <time>2020-05-21T09:55:36Z</time>
      </trkpt>
      <trkpt lat="44.99704" lon="5.33466">
        <ele>982</ele>
        <time>2020-05-21T09:55:39Z</time>
      </trkpt>
      <trkpt lat="44.99735" lon="5.33462">
        <ele>980</ele>
        <time>2020-05-21T09:55:42Z</time>
      </trkpt>
      <trkpt lat="44.99764" lon="5.33459">
        <ele>979</ele>
        <time>2020-05-21T09:55:46Z</time>
      </trkpt>
      <trkpt lat="44.99786" lon="5.33456">
        <ele>978</ele>
        <time>2020-05-21T09:55:49Z</time>
      </trkpt>
      <trkpt lat="44.9982" lon="5.33444">
        <ele>977</ele>
        <time>2020-05-21T09:55:52Z</time>
      </trkpt>
      <trkpt lat="44.99842" lon="5.33431">
        <ele>976</ele>
        <time>2020-05-21T09:55:55Z</time>
      </trkpt>
      <trkpt lat="44.99859" lon="5.33416">
        <ele>976</ele>
        <time>2020-05-21T09:55:58Z</time>
      </trkpt>
      <trkpt lat="44.99878" lon="5.33402">
        <ele>976</ele>
        <time>2020-05-21T09:56:01Z</time>
      </trkpt>
      <trkpt lat="44.99898" lon="5.33391">
        <ele>976</ele>
        <time>2020-05-21T09:56:04Z</time>
      </trkpt>
      <trkpt lat="44.99921" lon="5.33395">
        <ele>975</ele>
        <time>2020-05-21T09:56:07Z</time>
      </trkpt>
      <trkpt lat="44.99937" lon="5.33396">
        <ele>973</ele>
        <time>2020-05-21T09:56:10Z</time>
      </trkpt>
      <trkpt lat="44.99959" lon="5.33388">
        <ele>973</ele>
        <time>2020-05-21T09:56:14Z</time>
      </trkpt>
      <trkpt lat="44.99974" lon="5.3337">
        <ele>972</ele>
        <time>2020-05-21T09:56:17Z</time>
      </trkpt>
      <trkpt lat="44.99986" lon="5.33355">
        <ele>972</ele>
        <time>2020-05-21T09:56:20Z</time>
      </trkpt>
      <trkpt lat="44.99998" lon="5.33344">
        <ele>971</ele>
        <time>2020-05-21T09:56:23Z</time>
      </trkpt>
      <trkpt lat="45.00014" lon="5.33328">
        <ele>971</ele>
        <time>2020-05-21T09:56:26Z</time>
      </trkpt>
      <trkpt lat="45.00033" lon="5.33295">
        <ele>972</ele>
        <time>2020-05-21T09:56:30Z</time>
      </trkpt>
      <trkpt lat="45.00053" lon="5.33268">
        <ele>974</ele>
        <time>2020-05-21T09:56:33Z</time>
      </trkpt>
      <trkpt lat="45.00071" lon="5.33252">
        <ele>973</ele>
        <time>2020-05-21T09:56:36Z</time>
      </trkpt>
      <trkpt lat="45.00092" lon="5.33245">
        <ele>972</ele>
        <time>2020-05-21T09:56:39Z</time>
      </trkpt>
      <trkpt lat="45.00104" lon="5.33245">
        <ele>971</ele>
        <time>2020-05-21T09:56:43Z</time>
      </trkpt>
      <trkpt lat="45.00115" lon="5.33247">
        <ele>971</ele>
        <time>2020-05-21T09:56:47Z</time>
      </trkpt>
      <trkpt lat="45.00141" lon="5.33243">
        <ele>971</ele>
        <time>2020-05-21T09:56:50Z</time>
      </trkpt>
      <trkpt lat="45.00161" lon="5.33227">
        <ele>972</ele>
        <time>2020-05-21T09:56:53Z</time>
      </trkpt>
      <trkpt lat="45.00176" lon="5.33208">
        <ele>972</ele>
        <time>2020-05-21T09:56:56Z</time>
      </trkpt>
      <trkpt lat="45.00188" lon="5.33175">
        <ele>973</ele>
        <time>2020-05-21T09:56:59Z</time>
      </trkpt>
      <trkpt lat="45.00188" lon="5.33156">
        <ele>973</ele>
        <time>2020-05-21T09:57:02Z</time>
      </trkpt>
      <trkpt lat="45.00188" lon="5.33134">
        <ele>973</ele>
        <time>2020-05-21T09:57:13Z</time>
      </trkpt>
      <trkpt lat="45.00186" lon="5.33102">
        <ele>972</ele>
        <time>2020-05-21T09:57:16Z</time>
      </trkpt>
      <trkpt lat="45.00183" lon="5.33083">
        <ele>971</ele>
        <time>2020-05-21T09:57:20Z</time>
      </trkpt>
      <trkpt lat="45.00181" lon="5.33067">
        <ele>971</ele>
        <time>2020-05-21T09:57:23Z</time>
      </trkpt>
      <trkpt lat="45.00184" lon="5.33083">
        <ele>969</ele>
        <time>2020-05-21T09:57:38Z</time>
      </trkpt>
      <trkpt lat="45.00188" lon="5.33115">
        <ele>967</ele>
        <time>2020-05-21T09:57:41Z</time>
      </trkpt>
      <trkpt lat="45.00188" lon="5.33152">
        <ele>965</ele>
        <time>2020-05-21T09:57:44Z</time>
      </trkpt>
      <trkpt lat="45.00186" lon="5.33184">
        <ele>964</ele>
        <time>2020-05-21T09:57:47Z</time>
      </trkpt>
      <trkpt lat="45.0018" lon="5.33202">
        <ele>963</ele>
        <time>2020-05-21T09:57:51Z</time>
      </trkpt>
      <trkpt lat="45.00162" lon="5.33226">
        <ele>963</ele>
        <time>2020-05-21T09:57:54Z</time>
      </trkpt>
      <trkpt lat="45.00144" lon="5.33241">
        <ele>963</ele>
        <time>2020-05-21T09:57:57Z</time>
      </trkpt>
      <trkpt lat="45.00125" lon="5.33247">
        <ele>962</ele>
        <time>2020-05-21T09:58:00Z</time>
      </trkpt>
      <trkpt lat="45.00101" lon="5.33245">
        <ele>962</ele>
        <time>2020-05-21T09:58:04Z</time>
      </trkpt>
      <trkpt lat="45.00079" lon="5.33249">
        <ele>962</ele>
        <time>2020-05-21T09:58:07Z</time>
      </trkpt>
      <trkpt lat="45.00049" lon="5.33271">
        <ele>962</ele>
        <time>2020-05-21T09:58:10Z</time>
      </trkpt>
      <trkpt lat="45.0003" lon="5.33302">
        <ele>962</ele>
        <time>2020-05-21T09:58:13Z</time>
      </trkpt>
      <trkpt lat="45.00013" lon="5.33329">
        <ele>961</ele>
        <time>2020-05-21T09:58:16Z</time>
      </trkpt>
      <trkpt lat="44.99999" lon="5.33343">
        <ele>960</ele>
        <time>2020-05-21T09:58:19Z</time>
      </trkpt>
      <trkpt lat="44.99987" lon="5.33355">
        <ele>960</ele>
        <time>2020-05-21T09:58:22Z</time>
      </trkpt>
      <trkpt lat="44.99972" lon="5.33373">
        <ele>960</ele>
        <time>2020-05-21T09:58:26Z</time>
      </trkpt>
      <trkpt lat="44.99958" lon="5.33388">
        <ele>959</ele>
        <time>2020-05-21T09:58:29Z</time>
      </trkpt>
      <trkpt lat="44.99939" lon="5.33396">
        <ele>959</ele>
        <time>2020-05-21T09:58:32Z</time>
      </trkpt>
      <trkpt lat="44.99915" lon="5.33393">
        <ele>959</ele>
        <time>2020-05-21T09:58:36Z</time>
      </trkpt>
      <trkpt lat="44.99891" lon="5.33393">
        <ele>960</ele>
        <time>2020-05-21T09:58:39Z</time>
      </trkpt>
      <trkpt lat="44.99872" lon="5.33407">
        <ele>961</ele>
        <time>2020-05-21T09:58:42Z</time>
      </trkpt>
      <trkpt lat="44.9985" lon="5.33424">
        <ele>961</ele>
        <time>2020-05-21T09:58:45Z</time>
      </trkpt>
      <trkpt lat="44.99836" lon="5.33435">
        <ele>960</ele>
        <time>2020-05-21T09:58:48Z</time>
      </trkpt>
      <trkpt lat="44.99831" lon="5.33438">
        <ele>954</ele>
        <time>2020-05-21T10:06:02Z</time>
      </trkpt>
      <trkpt lat="44.99818" lon="5.33445">
        <ele>953</ele>
        <time>2020-05-21T10:06:06Z</time>
      </trkpt>
      <trkpt lat="44.99793" lon="5.33454">
        <ele>951</ele>
        <time>2020-05-21T10:06:09Z</time>
      </trkpt>
      <trkpt lat="44.99762" lon="5.33459">
        <ele>950</ele>
        <time>2020-05-21T10:06:12Z</time>
      </trkpt>
      <trkpt lat="44.99734" lon="5.33462">
        <ele>949</ele>
        <time>2020-05-21T10:06:15Z</time>
      </trkpt>
      <trkpt lat="44.99704" lon="5.33466">
        <ele>948</ele>
        <time>2020-05-21T10:06:19Z</time>
      </trkpt>
      <trkpt lat="44.99676" lon="5.33459">
        <ele>948</ele>
        <time>2020-05-21T10:06:22Z</time>
      </trkpt>
      <trkpt lat="44.99633" lon="5.33437">
        <ele>949</ele>
        <time>2020-05-21T10:06:25Z</time>
      </trkpt>
      <trkpt lat="44.99587" lon="5.33418">
        <ele>950</ele>
        <time>2020-05-21T10:06:28Z</time>
      </trkpt>
      <trkpt lat="44.99545" lon="5.334">
        <ele>951</ele>
        <time>2020-05-21T10:06:31Z</time>
      </trkpt>
      <trkpt lat="44.99504" lon="5.33384">
        <ele>951</ele>
        <time>2020-05-21T10:06:34Z</time>
      </trkpt>
      <trkpt lat="44.99464" lon="5.33386">
        <ele>951</ele>
        <time>2020-05-21T10:06:38Z</time>
      </trkpt>
      <trkpt lat="44.99414" lon="5.33385">
        <ele>951</ele>
        <time>2020-05-21T10:06:41Z</time>
      </trkpt>
      <trkpt lat="44.99372" lon="5.33391">
        <ele>952</ele>
        <time>2020-05-21T10:06:44Z</time>
      </trkpt>
      <trkpt lat="44.99332" lon="5.33406">
        <ele>952</ele>
        <time>2020-05-21T10:06:47Z</time>
      </trkpt>
      <trkpt lat="44.99281" lon="5.33398">
        <ele>953</ele>
        <time>2020-05-21T10:06:50Z</time>
      </trkpt>
      <trkpt lat="44.99243" lon="5.33395">
        <ele>954</ele>
        <time>2020-05-21T10:06:53Z</time>
      </trkpt>
      <trkpt lat="44.99197" lon="5.33377">
        <ele>957</ele>
        <time>2020-05-21T10:06:56Z</time>
      </trkpt>
      <trkpt lat="44.99171" lon="5.33363">
        <ele>960</ele>
        <time>2020-05-21T10:06:59Z</time>
      </trkpt>
      <trkpt lat="44.99127" lon="5.33363">
        <ele>962</ele>
        <time>2020-05-21T10:07:02Z</time>
      </trkpt>
      <trkpt lat="44.9908" lon="5.33375">
        <ele>966</ele>
        <time>2020-05-21T10:07:06Z</time>
      </trkpt>
      <trkpt lat="44.99033" lon="5.33382">
        <ele>969</ele>
        <time>2020-05-21T10:07:09Z</time>
      </trkpt>
      <trkpt lat="44.98994" lon="5.33369">
        <ele>972</ele>
        <time>2020-05-21T10:07:12Z</time>
      </trkpt>
      <trkpt lat="44.98952" lon="5.33338">
        <ele>976</ele>
        <time>2020-05-21T10:07:15Z</time>
      </trkpt>
      <trkpt lat="44.98931" lon="5.33306">
        <ele>979</ele>
        <time>2020-05-21T10:07:18Z</time>
      </trkpt>
      <trkpt lat="44.98906" lon="5.33272">
        <ele>983</ele>
        <time>2020-05-21T10:07:21Z</time>
      </trkpt>
      <trkpt lat="44.98885" lon="5.33265">
        <ele>986</ele>
        <time>2020-05-21T10:07:24Z</time>
      </trkpt>
      <trkpt lat="44.9886" lon="5.33287">
        <ele>988</ele>
        <time>2020-05-21T10:07:28Z</time>
      </trkpt>
      <trkpt lat="44.98841" lon="5.33324">
        <ele>986</ele>
        <time>2020-05-21T10:07:31Z</time>
      </trkpt>
      <trkpt lat="44.98825" lon="5.33347">
        <ele>985</ele>
        <time>2020-05-21T10:07:34Z</time>
      </trkpt>
      <trkpt lat="44.98787" lon="5.33359">
        <ele>986</ele>
        <time>2020-05-21T10:07:37Z</time>
      </trkpt>
      <trkpt lat="44.98743" lon="5.33334">
        <ele>987</ele>
        <time>2020-05-21T10:07:40Z</time>
      </trkpt>
      <trkpt lat="44.98705" lon="5.33311">
        <ele>988</ele>
        <time>2020-05-21T10:07:43Z</time>
      </trkpt>
      <trkpt lat="44.98666" lon="5.33298">
        <ele>990</ele>
        <time>2020-05-21T10:07:46Z</time>
      </trkpt>
      <trkpt lat="44.98631" lon="5.3329">
        <ele>991</ele>
        <time>2020-05-21T10:07:49Z</time>
      </trkpt>
      <trkpt lat="44.9859" lon="5.3328">
        <ele>993</ele>
        <time>2020-05-21T10:07:52Z</time>
      </trkpt>
      <trkpt lat="44.98547" lon="5.33256">
        <ele>995</ele>
        <time>2020-05-21T10:07:55Z</time>
      </trkpt>
      <trkpt lat="44.98501" lon="5.33253">
        <ele>996</ele>
        <time>2020-05-21T10:07:58Z</time>
      </trkpt>
      <trkpt lat="44.98454" lon="5.33257">
        <ele>998</ele>
        <time>2020-05-21T10:08:01Z</time>
      </trkpt>
      <trkpt lat="44.98428" lon="5.33259">
        <ele>1000</ele>
        <time>2020-05-21T10:08:04Z</time>
      </trkpt>
      <trkpt lat="44.98389" lon="5.33259">
        <ele>1001</ele>
        <time>2020-05-21T10:08:07Z</time>
      </trkpt>
      <trkpt lat="44.9836" lon="5.33277">
        <ele>1003</ele>
        <time>2020-05-21T10:08:11Z</time>
      </trkpt>
      <trkpt lat="44.98321" lon="5.33292">
        <ele>1004</ele>
        <time>2020-05-21T10:08:14Z</time>
      </trkpt>
      <trkpt lat="44.98289" lon="5.33297">
        <ele>1006</ele>
        <time>2020-05-21T10:08:17Z</time>
      </trkpt>
      <trkpt lat="44.98268" lon="5.33303">
        <ele>1008</ele>
        <time>2020-05-21T10:08:20Z</time>
      </trkpt>
      <trkpt lat="44.98244" lon="5.33314">
        <ele>1009</ele>
        <time>2020-05-21T10:08:23Z</time>
      </trkpt>
      <trkpt lat="44.9821" lon="5.33311">
        <ele>1011</ele>
        <time>2020-05-21T10:08:26Z</time>
      </trkpt>
      <trkpt lat="44.98182" lon="5.33304">
        <ele>1013</ele>
        <time>2020-05-21T10:08:30Z</time>
      </trkpt>
      <trkpt lat="44.98152" lon="5.33302">
        <ele>1015</ele>
        <time>2020-05-21T10:08:33Z</time>
      </trkpt>
      <trkpt lat="44.98123" lon="5.33305">
        <ele>1016</ele>
        <time>2020-05-21T10:08:36Z</time>
      </trkpt>
      <trkpt lat="44.98108" lon="5.33307">
        <ele>1017</ele>
        <time>2020-05-21T10:08:39Z</time>
      </trkpt>
      <trkpt lat="44.98077" lon="5.33301">
        <ele>1018</ele>
        <time>2020-05-21T10:08:42Z</time>
      </trkpt>
      <trkpt lat="44.98047" lon="5.33292">
        <ele>1018</ele>
        <time>2020-05-21T10:08:45Z</time>
      </trkpt>
      <trkpt lat="44.98025" lon="5.33294">
        <ele>1019</ele>
        <time>2020-05-21T10:08:48Z</time>
      </trkpt>
      <trkpt lat="44.98001" lon="5.33284">
        <ele>1019</ele>
        <time>2020-05-21T10:08:51Z</time>
      </trkpt>
      <trkpt lat="44.97972" lon="5.33252">
        <ele>1020</ele>
        <time>2020-05-21T10:08:54Z</time>
      </trkpt>
      <trkpt lat="44.97949" lon="5.33246">
        <ele>1020</ele>
        <time>2020-05-21T10:08:57Z</time>
      </trkpt>
      <trkpt lat="44.97934" lon="5.33249">
        <ele>1021</ele>
        <time>2020-05-21T10:09:00Z</time>
      </trkpt>
      <trkpt lat="44.97783" lon="5.33324">
        <ele>1021</ele>
        <time>2020-05-21T10:09:24Z</time>
      </trkpt>
      <trkpt lat="44.97763" lon="5.33337">
        <ele>1027</ele>
        <time>2020-05-21T10:09:27Z</time>
      </trkpt>
      <trkpt lat="44.97741" lon="5.33344">
        <ele>1032</ele>
        <time>2020-05-21T10:09:30Z</time>
      </trkpt>
      <trkpt lat="44.97719" lon="5.33345">
        <ele>1036</ele>
        <time>2020-05-21T10:09:34Z</time>
      </trkpt>
      <trkpt lat="44.97693" lon="5.33348">
        <ele>1039</ele>
        <time>2020-05-21T10:09:37Z</time>
      </trkpt>
      <trkpt lat="44.97684" lon="5.3335">
        <ele>1040</ele>
        <time>2020-05-21T10:09:42Z</time>
      </trkpt>
      <trkpt lat="44.97669" lon="5.33356">
        <ele>1043</ele>
        <time>2020-05-21T10:09:51Z</time>
      </trkpt>
      <trkpt lat="44.97653" lon="5.33365">
        <ele>1046</ele>
        <time>2020-05-21T10:09:55Z</time>
      </trkpt>
      <trkpt lat="44.97601" lon="5.334">
        <ele>1047</ele>
        <time>2020-05-21T10:09:58Z</time>
      </trkpt>
      <trkpt lat="44.97567" lon="5.33425">
        <ele>1050</ele>
        <time>2020-05-21T10:10:01Z</time>
      </trkpt>
      <trkpt lat="44.97513" lon="5.33463">
        <ele>1054</ele>
        <time>2020-05-21T10:10:04Z</time>
      </trkpt>
      <trkpt lat="44.97489" lon="5.33475">
        <ele>1056</ele>
        <time>2020-05-21T10:10:07Z</time>
      </trkpt>
      <trkpt lat="44.97443" lon="5.33469">
        <ele>1059</ele>
        <time>2020-05-21T10:10:10Z</time>
      </trkpt>
      <trkpt lat="44.97399" lon="5.33453">
        <ele>1062</ele>
        <time>2020-05-21T10:10:13Z</time>
      </trkpt>
      <trkpt lat="44.97354" lon="5.33445">
        <ele>1064</ele>
        <time>2020-05-21T10:10:16Z</time>
      </trkpt>
      <trkpt lat="44.97302" lon="5.33452">
        <ele>1066</ele>
        <time>2020-05-21T10:10:19Z</time>
      </trkpt>
      <trkpt lat="44.9725" lon="5.33463">
        <ele>1067</ele>
        <time>2020-05-21T10:10:22Z</time>
      </trkpt>
      <trkpt lat="44.97194" lon="5.33482">
        <ele>1068</ele>
        <time>2020-05-21T10:10:25Z</time>
      </trkpt>
      <trkpt lat="44.97143" lon="5.33501">
        <ele>1069</ele>
        <time>2020-05-21T10:10:28Z</time>
      </trkpt>
      <trkpt lat="44.97101" lon="5.33526">
        <ele>1069</ele>
        <time>2020-05-21T10:10:31Z</time>
      </trkpt>
      <trkpt lat="44.97072" lon="5.33573">
        <ele>1070</ele>
        <time>2020-05-21T10:10:34Z</time>
      </trkpt>
      <trkpt lat="44.97053" lon="5.33611">
        <ele>1071</ele>
        <time>2020-05-21T10:10:38Z</time>
      </trkpt>
      <trkpt lat="44.97038" lon="5.33633">
        <ele>1072</ele>
        <time>2020-05-21T10:10:41Z</time>
      </trkpt>
      <trkpt lat="44.97004" lon="5.33649">
        <ele>1073</ele>
        <time>2020-05-21T10:10:44Z</time>
      </trkpt>
      <trkpt lat="44.96962" lon="5.3365">
        <ele>1074</ele>
        <time>2020-05-21T10:10:47Z</time>
      </trkpt>
      <trkpt lat="44.96912" lon="5.33632">
        <ele>1075</ele>
        <time>2020-05-21T10:10:50Z</time>
      </trkpt>
      <trkpt lat="44.96863" lon="5.33616">
        <ele>1076</ele>
        <time>2020-05-21T10:10:53Z</time>
      </trkpt>
      <trkpt lat="44.96813" lon="5.33618">
        <ele>1077</ele>
        <time>2020-05-21T10:10:56Z</time>
      </trkpt>
      <trkpt lat="44.96776" lon="5.33613">
        <ele>1078</ele>
        <time>2020-05-21T10:10:59Z</time>
      </trkpt>
      <trkpt lat="44.96735" lon="5.33573">
        <ele>1081</ele>
        <time>2020-05-21T10:11:02Z</time>
      </trkpt>
      <trkpt lat="44.96702" lon="5.33529">
        <ele>1085</ele>
        <time>2020-05-21T10:11:05Z</time>
      </trkpt>
      <trkpt lat="44.9666" lon="5.33488">
        <ele>1089</ele>
        <time>2020-05-21T10:11:08Z</time>
      </trkpt>
      <trkpt lat="44.96593" lon="5.33469">
        <ele>1091</ele>
        <time>2020-05-21T10:11:11Z</time>
      </trkpt>
      <trkpt lat="44.96545" lon="5.3345">
        <ele>1092</ele>
        <time>2020-05-21T10:11:14Z</time>
      </trkpt>
      <trkpt lat="44.96517" lon="5.33426">
        <ele>1091</ele>
        <time>2020-05-21T10:11:17Z</time>
      </trkpt>
      <trkpt lat="44.96465" lon="5.3339">
        <ele>1088</ele>
        <time>2020-05-21T10:11:21Z</time>
      </trkpt>
      <trkpt lat="44.96423" lon="5.33394">
        <ele>1087</ele>
        <time>2020-05-21T10:11:24Z</time>
      </trkpt>
      <trkpt lat="44.9638" lon="5.33394">
        <ele>1087</ele>
        <time>2020-05-21T10:11:27Z</time>
      </trkpt>
      <trkpt lat="44.96312" lon="5.33356">
        <ele>1088</ele>
        <time>2020-05-21T10:11:31Z</time>
      </trkpt>
      <trkpt lat="44.9627" lon="5.33325">
        <ele>1089</ele>
        <time>2020-05-21T10:11:34Z</time>
      </trkpt>
      <trkpt lat="44.96236" lon="5.33277">
        <ele>1090</ele>
        <time>2020-05-21T10:11:38Z</time>
      </trkpt>
      <trkpt lat="44.9621" lon="5.33225">
        <ele>1093</ele>
        <time>2020-05-21T10:11:41Z</time>
      </trkpt>
      <trkpt lat="44.96178" lon="5.33157">
        <ele>1096</ele>
        <time>2020-05-21T10:11:44Z</time>
      </trkpt>
      <trkpt lat="44.96161" lon="5.33101">
        <ele>1098</ele>
        <time>2020-05-21T10:11:48Z</time>
      </trkpt>
      <trkpt lat="44.96145" lon="5.33045">
        <ele>1100</ele>
        <time>2020-05-21T10:11:51Z</time>
      </trkpt>
      <trkpt lat="44.96116" lon="5.33007">
        <ele>1101</ele>
        <time>2020-05-21T10:11:54Z</time>
      </trkpt>
      <trkpt lat="44.96077" lon="5.32977">
        <ele>1102</ele>
        <time>2020-05-21T10:11:57Z</time>
      </trkpt>
      <trkpt lat="44.96036" lon="5.32961">
        <ele>1102</ele>
        <time>2020-05-21T10:12:00Z</time>
      </trkpt>
      <trkpt lat="44.95994" lon="5.32966">
        <ele>1102</ele>
        <time>2020-05-21T10:12:03Z</time>
      </trkpt>
      <trkpt lat="44.95935" lon="5.32993">
        <ele>1101</ele>
        <time>2020-05-21T10:12:07Z</time>
      </trkpt>
      <trkpt lat="44.95893" lon="5.33018">
        <ele>1101</ele>
        <time>2020-05-21T10:12:10Z</time>
      </trkpt>
      <trkpt lat="44.95851" lon="5.33046">
        <ele>1100</ele>
        <time>2020-05-21T10:12:13Z</time>
      </trkpt>
      <trkpt lat="44.9581" lon="5.3306">
        <ele>1099</ele>
        <time>2020-05-21T10:12:16Z</time>
      </trkpt>
      <trkpt lat="44.95756" lon="5.33052">
        <ele>1099</ele>
        <time>2020-05-21T10:12:19Z</time>
      </trkpt>
      <trkpt lat="44.95707" lon="5.33041">
        <ele>1099</ele>
        <time>2020-05-21T10:12:23Z</time>
      </trkpt>
      <trkpt lat="44.95665" lon="5.33026">
        <ele>1099</ele>
        <time>2020-05-21T10:12:26Z</time>
      </trkpt>
      <trkpt lat="44.95645" lon="5.33">
        <ele>1100</ele>
        <time>2020-05-21T10:12:29Z</time>
      </trkpt>
      <trkpt lat="44.9563" lon="5.32944">
        <ele>1102</ele>
        <time>2020-05-21T10:12:32Z</time>
      </trkpt>
      <trkpt lat="44.95593" lon="5.32858">
        <ele>1105</ele>
        <time>2020-05-21T10:12:35Z</time>
      </trkpt>
      <trkpt lat="44.95552" lon="5.32814">
        <ele>1107</ele>
        <time>2020-05-21T10:12:38Z</time>
      </trkpt>
      <trkpt lat="44.95516" lon="5.3277">
        <ele>1109</ele>
        <time>2020-05-21T10:12:41Z</time>
      </trkpt>
      <trkpt lat="44.95488" lon="5.32688">
        <ele>1110</ele>
        <time>2020-05-21T10:12:45Z</time>
      </trkpt>
      <trkpt lat="44.95461" lon="5.32631">
        <ele>1111</ele>
        <time>2020-05-21T10:12:48Z</time>
      </trkpt>
      <trkpt lat="44.95416" lon="5.32587">
        <ele>1112</ele>
        <time>2020-05-21T10:12:51Z</time>
      </trkpt>
      <trkpt lat="44.95365" lon="5.3254">
        <ele>1112</ele>
        <time>2020-05-21T10:12:54Z</time>
      </trkpt>
      <trkpt lat="44.95332" lon="5.32511">
        <ele>1111</ele>
        <time>2020-05-21T10:12:57Z</time>
      </trkpt>
      <trkpt lat="44.95274" lon="5.32481">
        <ele>1111</ele>
        <time>2020-05-21T10:13:00Z</time>
      </trkpt>
      <trkpt lat="44.95199" lon="5.32432">
        <ele>1111</ele>
        <time>2020-05-21T10:13:04Z</time>
      </trkpt>
      <trkpt lat="44.95146" lon="5.32387">
        <ele>1111</ele>
        <time>2020-05-21T10:13:07Z</time>
      </trkpt>
      <trkpt lat="44.95092" lon="5.32344">
        <ele>1111</ele>
        <time>2020-05-21T10:13:10Z</time>
      </trkpt>
      <trkpt lat="44.95039" lon="5.32304">
        <ele>1112</ele>
        <time>2020-05-21T10:13:13Z</time>
      </trkpt>
      <trkpt lat="44.94986" lon="5.32263">
        <ele>1112</ele>
        <time>2020-05-21T10:13:16Z</time>
      </trkpt>
      <trkpt lat="44.94938" lon="5.32215">
        <ele>1113</ele>
        <time>2020-05-21T10:13:20Z</time>
      </trkpt>
      <trkpt lat="44.94888" lon="5.32121">
        <ele>1114</ele>
        <time>2020-05-21T10:13:23Z</time>
      </trkpt>
      <trkpt lat="44.94841" lon="5.32068">
        <ele>1116</ele>
        <time>2020-05-21T10:13:26Z</time>
      </trkpt>
      <trkpt lat="44.94766" lon="5.32024">
        <ele>1118</ele>
        <time>2020-05-21T10:13:30Z</time>
      </trkpt>
      <trkpt lat="44.94731" lon="5.32005">
        <ele>1120</ele>
        <time>2020-05-21T10:13:34Z</time>
      </trkpt>
      <trkpt lat="44.94683" lon="5.31957">
        <ele>1121</ele>
        <time>2020-05-21T10:13:37Z</time>
      </trkpt>
      <trkpt lat="44.94651" lon="5.31901">
        <ele>1122</ele>
        <time>2020-05-21T10:13:40Z</time>
      </trkpt>
      <trkpt lat="44.94642" lon="5.31845">
        <ele>1123</ele>
        <time>2020-05-21T10:13:43Z</time>
      </trkpt>
      <trkpt lat="44.94647" lon="5.31774">
        <ele>1124</ele>
        <time>2020-05-21T10:13:46Z</time>
      </trkpt>
      <trkpt lat="44.94655" lon="5.31651">
        <ele>1124</ele>
        <time>2020-05-21T10:13:49Z</time>
      </trkpt>
      <trkpt lat="44.9466" lon="5.31557">
        <ele>1124</ele>
        <time>2020-05-21T10:13:52Z</time>
      </trkpt>
      <trkpt lat="44.94666" lon="5.31471">
        <ele>1125</ele>
        <time>2020-05-21T10:13:55Z</time>
      </trkpt>
      <trkpt lat="44.94671" lon="5.31394">
        <ele>1126</ele>
        <time>2020-05-21T10:13:58Z</time>
      </trkpt>
      <trkpt lat="44.94668" lon="5.31327">
        <ele>1127</ele>
        <time>2020-05-21T10:14:01Z</time>
      </trkpt>
      <trkpt lat="44.94656" lon="5.31277">
        <ele>1127</ele>
        <time>2020-05-21T10:14:05Z</time>
      </trkpt>
      <trkpt lat="44.9462" lon="5.31221">
        <ele>1128</ele>
        <time>2020-05-21T10:14:08Z</time>
      </trkpt>
      <trkpt lat="44.94566" lon="5.31192">
        <ele>1130</ele>
        <time>2020-05-21T10:14:11Z</time>
      </trkpt>
      <trkpt lat="44.94494" lon="5.31133">
        <ele>1131</ele>
        <time>2020-05-21T10:14:14Z</time>
      </trkpt>
      <trkpt lat="44.94444" lon="5.3108">
        <ele>1131</ele>
        <time>2020-05-21T10:14:17Z</time>
      </trkpt>
      <trkpt lat="44.94399" lon="5.31027">
        <ele>1133</ele>
        <time>2020-05-21T10:14:21Z</time>
      </trkpt>
      <trkpt lat="44.94336" lon="5.30971">
        <ele>1134</ele>
        <time>2020-05-21T10:14:24Z</time>
      </trkpt>
      <trkpt lat="44.94288" lon="5.30939">
        <ele>1136</ele>
        <time>2020-05-21T10:14:28Z</time>
      </trkpt>
      <trkpt lat="44.94239" lon="5.30908">
        <ele>1138</ele>
        <time>2020-05-21T10:14:31Z</time>
      </trkpt>
      <trkpt lat="44.94197" lon="5.30899">
        <ele>1140</ele>
        <time>2020-05-21T10:14:34Z</time>
      </trkpt>
      <trkpt lat="44.94153" lon="5.30895">
        <ele>1141</ele>
        <time>2020-05-21T10:14:37Z</time>
      </trkpt>
      <trkpt lat="44.94104" lon="5.30885">
        <ele>1143</ele>
        <time>2020-05-21T10:14:40Z</time>
      </trkpt>
      <trkpt lat="44.94054" lon="5.30869">
        <ele>1146</ele>
        <time>2020-05-21T10:14:44Z</time>
      </trkpt>
      <trkpt lat="44.94004" lon="5.30865">
        <ele>1148</ele>
        <time>2020-05-21T10:14:47Z</time>
      </trkpt>
      <trkpt lat="44.93957" lon="5.30881">
        <ele>1150</ele>
        <time>2020-05-21T10:14:50Z</time>
      </trkpt>
      <trkpt lat="44.93924" lon="5.309">
        <ele>1151</ele>
        <time>2020-05-21T10:14:53Z</time>
      </trkpt>
      <trkpt lat="44.93872" lon="5.30886">
        <ele>1154</ele>
        <time>2020-05-21T10:14:56Z</time>
      </trkpt>
      <trkpt lat="44.93841" lon="5.3083">
        <ele>1157</ele>
        <time>2020-05-21T10:14:59Z</time>
      </trkpt>
      <trkpt lat="44.93806" lon="5.30785">
        <ele>1162</ele>
        <time>2020-05-21T10:15:02Z</time>
      </trkpt>
      <trkpt lat="44.93759" lon="5.30736">
        <ele>1165</ele>
        <time>2020-05-21T10:15:06Z</time>
      </trkpt>
      <trkpt lat="44.93729" lon="5.30708">
        <ele>1168</ele>
        <time>2020-05-21T10:15:09Z</time>
      </trkpt>
      <trkpt lat="44.93689" lon="5.3068">
        <ele>1170</ele>
        <time>2020-05-21T10:15:12Z</time>
      </trkpt>
      <trkpt lat="44.93644" lon="5.30692">
        <ele>1171</ele>
        <time>2020-05-21T10:15:15Z</time>
      </trkpt>
      <trkpt lat="44.93596" lon="5.30719">
        <ele>1172</ele>
        <time>2020-05-21T10:15:18Z</time>
      </trkpt>
      <trkpt lat="44.93534" lon="5.30756">
        <ele>1173</ele>
        <time>2020-05-21T10:15:21Z</time>
      </trkpt>
      <trkpt lat="44.93499" lon="5.30779">
        <ele>1175</ele>
        <time>2020-05-21T10:15:24Z</time>
      </trkpt>
      <trkpt lat="44.9348" lon="5.30807">
        <ele>1177</ele>
        <time>2020-05-21T10:15:27Z</time>
      </trkpt>
      <trkpt lat="44.93461" lon="5.30858">
        <ele>1179</ele>
        <time>2020-05-21T10:15:30Z</time>
      </trkpt>
      <trkpt lat="44.93443" lon="5.30906">
        <ele>1182</ele>
        <time>2020-05-21T10:15:33Z</time>
      </trkpt>
      <trkpt lat="44.9344" lon="5.30948">
        <ele>1185</ele>
        <time>2020-05-21T10:15:36Z</time>
      </trkpt>
      <trkpt lat="44.93461" lon="5.30989">
        <ele>1187</ele>
        <time>2020-05-21T10:15:39Z</time>
      </trkpt>
      <trkpt lat="44.93476" lon="5.31016">
        <ele>1189</ele>
        <time>2020-05-21T10:15:43Z</time>
      </trkpt>
      <trkpt lat="44.93498" lon="5.31085">
        <ele>1192</ele>
        <time>2020-05-21T10:15:46Z</time>
      </trkpt>
      <trkpt lat="44.9351" lon="5.31136">
        <ele>1193</ele>
        <time>2020-05-21T10:15:49Z</time>
      </trkpt>
      <trkpt lat="44.93515" lon="5.31185">
        <ele>1194</ele>
        <time>2020-05-21T10:15:52Z</time>
      </trkpt>
      <trkpt lat="44.93508" lon="5.31246">
        <ele>1197</ele>
        <time>2020-05-21T10:15:55Z</time>
      </trkpt>
      <trkpt lat="44.93501" lon="5.31302">
        <ele>1199</ele>
        <time>2020-05-21T10:15:59Z</time>
      </trkpt>
      <trkpt lat="44.93493" lon="5.31352">
        <ele>1199</ele>
        <time>2020-05-21T10:16:02Z</time>
      </trkpt>
      <trkpt lat="44.93473" lon="5.31381">
        <ele>1199</ele>
        <time>2020-05-21T10:16:05Z</time>
      </trkpt>
      <trkpt lat="44.93452" lon="5.3139">
        <ele>1199</ele>
        <time>2020-05-21T10:16:08Z</time>
      </trkpt>
      <trkpt lat="44.93402" lon="5.31404">
        <ele>1200</ele>
        <time>2020-05-21T10:16:11Z</time>
      </trkpt>
      <trkpt lat="44.93373" lon="5.31435">
        <ele>1200</ele>
        <time>2020-05-21T10:16:14Z</time>
      </trkpt>
      <trkpt lat="44.93358" lon="5.31486">
        <ele>1200</ele>
        <time>2020-05-21T10:16:17Z</time>
      </trkpt>
      <trkpt lat="44.93347" lon="5.31534">
        <ele>1200</ele>
        <time>2020-05-21T10:16:21Z</time>
      </trkpt>
      <trkpt lat="44.93356" lon="5.31573">
        <ele>1200</ele>
        <time>2020-05-21T10:16:24Z</time>
      </trkpt>
      <trkpt lat="44.93374" lon="5.31606">
        <ele>1200</ele>
        <time>2020-05-21T10:16:27Z</time>
      </trkpt>
      <trkpt lat="44.93386" lon="5.31644">
        <ele>1200</ele>
        <time>2020-05-21T10:16:30Z</time>
      </trkpt>
      <trkpt lat="44.93367" lon="5.31692">
        <ele>1200</ele>
        <time>2020-05-21T10:16:33Z</time>
      </trkpt>
      <trkpt lat="44.93351" lon="5.31699">
        <ele>1201</ele>
        <time>2020-05-21T10:16:36Z</time>
      </trkpt>
      <trkpt lat="44.93317" lon="5.31713">
        <ele>1202</ele>
        <time>2020-05-21T10:16:39Z</time>
      </trkpt>
      <trkpt lat="44.93285" lon="5.31743">
        <ele>1202</ele>
        <time>2020-05-21T10:16:42Z</time>
      </trkpt>
      <trkpt lat="44.9326" lon="5.31784">
        <ele>1203</ele>
        <time>2020-05-21T10:16:45Z</time>
      </trkpt>
      <trkpt lat="44.9323" lon="5.31834">
        <ele>1204</ele>
        <time>2020-05-21T10:16:48Z</time>
      </trkpt>
      <trkpt lat="44.93206" lon="5.31873">
        <ele>1206</ele>
        <time>2020-05-21T10:16:51Z</time>
      </trkpt>
      <trkpt lat="44.93169" lon="5.31887">
        <ele>1208</ele>
        <time>2020-05-21T10:16:55Z</time>
      </trkpt>
      <trkpt lat="44.93123" lon="5.31888">
        <ele>1210</ele>
        <time>2020-05-21T10:16:58Z</time>
      </trkpt>
      <trkpt lat="44.93086" lon="5.31887">
        <ele>1211</ele>
        <time>2020-05-21T10:17:01Z</time>
      </trkpt>
      <trkpt lat="44.93048" lon="5.31887">
        <ele>1212</ele>
        <time>2020-05-21T10:17:04Z</time>
      </trkpt>
      <trkpt lat="44.93002" lon="5.31887">
        <ele>1213</ele>
        <time>2020-05-21T10:17:08Z</time>
      </trkpt>
      <trkpt lat="44.92973" lon="5.3189">
        <ele>1213</ele>
        <time>2020-05-21T10:17:11Z</time>
      </trkpt>
      <trkpt lat="44.92927" lon="5.31905">
        <ele>1213</ele>
        <time>2020-05-21T10:17:14Z</time>
      </trkpt>
      <trkpt lat="44.92885" lon="5.31931">
        <ele>1214</ele>
        <time>2020-05-21T10:17:17Z</time>
      </trkpt>
      <trkpt lat="44.92842" lon="5.31982">
        <ele>1214</ele>
        <time>2020-05-21T10:17:20Z</time>
      </trkpt>
      <trkpt lat="44.92809" lon="5.32022">
        <ele>1215</ele>
        <time>2020-05-21T10:17:23Z</time>
      </trkpt>
      <trkpt lat="44.92779" lon="5.32058">
        <ele>1215</ele>
        <time>2020-05-21T10:17:26Z</time>
      </trkpt>
      <trkpt lat="44.92768" lon="5.3209">
        <ele>1216</ele>
        <time>2020-05-21T10:17:29Z</time>
      </trkpt>
      <trkpt lat="44.9278" lon="5.32119">
        <ele>1217</ele>
        <time>2020-05-21T10:17:32Z</time>
      </trkpt>
      <trkpt lat="44.92803" lon="5.32121">
        <ele>1219</ele>
        <time>2020-05-21T10:17:35Z</time>
      </trkpt>
      <trkpt lat="44.92839" lon="5.32099">
        <ele>1223</ele>
        <time>2020-05-21T10:17:39Z</time>
      </trkpt>
      <trkpt lat="44.92868" lon="5.32081">
        <ele>1227</ele>
        <time>2020-05-21T10:17:42Z</time>
      </trkpt>
      <trkpt lat="44.92909" lon="5.32066">
        <ele>1232</ele>
        <time>2020-05-21T10:17:45Z</time>
      </trkpt>
      <trkpt lat="44.9297" lon="5.32072">
        <ele>1236</ele>
        <time>2020-05-21T10:17:48Z</time>
      </trkpt>
      <trkpt lat="44.93018" lon="5.32081">
        <ele>1239</ele>
        <time>2020-05-21T10:17:51Z</time>
      </trkpt>
      <trkpt lat="44.93063" lon="5.32096">
        <ele>1241</ele>
        <time>2020-05-21T10:17:54Z</time>
      </trkpt>
      <trkpt lat="44.93106" lon="5.32121">
        <ele>1242</ele>
        <time>2020-05-21T10:17:57Z</time>
      </trkpt>
      <trkpt lat="44.93141" lon="5.32149">
        <ele>1243</ele>
        <time>2020-05-21T10:18:00Z</time>
      </trkpt>
      <trkpt lat="44.93153" lon="5.32196">
        <ele>1243</ele>
        <time>2020-05-21T10:18:03Z</time>
      </trkpt>
      <trkpt lat="44.93164" lon="5.32257">
        <ele>1243</ele>
        <time>2020-05-21T10:18:07Z</time>
      </trkpt>
      <trkpt lat="44.93183" lon="5.32306">
        <ele>1244</ele>
        <time>2020-05-21T10:18:10Z</time>
      </trkpt>
      <trkpt lat="44.93203" lon="5.32318">
        <ele>1245</ele>
        <time>2020-05-21T10:18:13Z</time>
      </trkpt>
      <trkpt lat="44.93244" lon="5.32314">
        <ele>1246</ele>
        <time>2020-05-21T10:18:16Z</time>
      </trkpt>
      <trkpt lat="44.93286" lon="5.32306">
        <ele>1247</ele>
        <time>2020-05-21T10:18:19Z</time>
      </trkpt>
      <trkpt lat="44.93314" lon="5.32313">
        <ele>1249</ele>
        <time>2020-05-21T10:18:22Z</time>
      </trkpt>
      <trkpt lat="44.93332" lon="5.32332">
        <ele>1250</ele>
        <time>2020-05-21T10:18:26Z</time>
      </trkpt>
      <trkpt lat="44.93305" lon="5.32348">
        <ele>1251</ele>
        <time>2020-05-21T10:18:29Z</time>
      </trkpt>
      <trkpt lat="44.93273" lon="5.32347">
        <ele>1252</ele>
        <time>2020-05-21T10:18:32Z</time>
      </trkpt>
      <trkpt lat="44.93245" lon="5.32349">
        <ele>1253</ele>
        <time>2020-05-21T10:18:35Z</time>
      </trkpt>
      <trkpt lat="44.93205" lon="5.32351">
        <ele>1253</ele>
        <time>2020-05-21T10:18:38Z</time>
      </trkpt>
      <trkpt lat="44.93162" lon="5.3234">
        <ele>1254</ele>
        <time>2020-05-21T10:18:41Z</time>
      </trkpt>
      <trkpt lat="44.93129" lon="5.3232">
        <ele>1255</ele>
        <time>2020-05-21T10:18:44Z</time>
      </trkpt>
      <trkpt lat="44.93116" lon="5.32302">
        <ele>1257</ele>
        <time>2020-05-21T10:18:47Z</time>
      </trkpt>
      <trkpt lat="44.93091" lon="5.32266">
        <ele>1259</ele>
        <time>2020-05-21T10:18:50Z</time>
      </trkpt>
      <trkpt lat="44.93065" lon="5.32237">
        <ele>1262</ele>
        <time>2020-05-21T10:18:53Z</time>
      </trkpt>
      <trkpt lat="44.93023" lon="5.32234">
        <ele>1266</ele>
        <time>2020-05-21T10:18:57Z</time>
      </trkpt>
      <trkpt lat="44.92994" lon="5.32246">
        <ele>1267</ele>
        <time>2020-05-21T10:19:00Z</time>
      </trkpt>
      <trkpt lat="44.92946" lon="5.32261">
        <ele>1269</ele>
        <time>2020-05-21T10:19:03Z</time>
      </trkpt>
      <trkpt lat="44.92904" lon="5.32273">
        <ele>1270</ele>
        <time>2020-05-21T10:19:06Z</time>
      </trkpt>
      <trkpt lat="44.9286" lon="5.32284">
        <ele>1272</ele>
        <time>2020-05-21T10:19:09Z</time>
      </trkpt>
      <trkpt lat="44.92821" lon="5.32305">
        <ele>1274</ele>
        <time>2020-05-21T10:19:12Z</time>
      </trkpt>
      <trkpt lat="44.92782" lon="5.32346">
        <ele>1276</ele>
        <time>2020-05-21T10:19:15Z</time>
      </trkpt>
      <trkpt lat="44.92759" lon="5.3238">
        <ele>1278</ele>
        <time>2020-05-21T10:19:18Z</time>
      </trkpt>
      <trkpt lat="44.92728" lon="5.32424">
        <ele>1281</ele>
        <time>2020-05-21T10:19:21Z</time>
      </trkpt>
      <trkpt lat="44.92698" lon="5.32472">
        <ele>1284</ele>
        <time>2020-05-21T10:19:24Z</time>
      </trkpt>
      <trkpt lat="44.92671" lon="5.32494">
        <ele>1288</ele>
        <time>2020-05-21T10:19:27Z</time>
      </trkpt>
      <trkpt lat="44.92638" lon="5.32483">
        <ele>1291</ele>
        <time>2020-05-21T10:19:30Z</time>
      </trkpt>
      <trkpt lat="44.92595" lon="5.32482">
        <ele>1294</ele>
        <time>2020-05-21T10:19:33Z</time>
      </trkpt>
      <trkpt lat="44.92539" lon="5.32491">
        <ele>1297</ele>
        <time>2020-05-21T10:19:37Z</time>
      </trkpt>
      <trkpt lat="44.92497" lon="5.3248">
        <ele>1301</ele>
        <time>2020-05-21T10:19:40Z</time>
      </trkpt>
      <trkpt lat="44.92458" lon="5.32458">
        <ele>1305</ele>
        <time>2020-05-21T10:19:43Z</time>
      </trkpt>
      <trkpt lat="44.92415" lon="5.32445">
        <ele>1310</ele>
        <time>2020-05-21T10:19:46Z</time>
      </trkpt>
      <trkpt lat="44.92357" lon="5.32439">
        <ele>1315</ele>
        <time>2020-05-21T10:19:50Z</time>
      </trkpt>
      <trkpt lat="44.92329" lon="5.32438">
        <ele>1317</ele>
        <time>2020-05-21T10:19:53Z</time>
      </trkpt>
      <trkpt lat="44.92291" lon="5.32436">
        <ele>1318</ele>
        <time>2020-05-21T10:19:56Z</time>
      </trkpt>
      <trkpt lat="44.92239" lon="5.32432">
        <ele>1320</ele>
        <time>2020-05-21T10:20:00Z</time>
      </trkpt>
      <trkpt lat="44.92195" lon="5.32415">
        <ele>1322</ele>
        <time>2020-05-21T10:20:03Z</time>
      </trkpt>
      <trkpt lat="44.92154" lon="5.32399">
        <ele>1324</ele>
        <time>2020-05-21T10:20:06Z</time>
      </trkpt>
      <trkpt lat="44.92114" lon="5.32391">
        <ele>1325</ele>
        <time>2020-05-21T10:20:09Z</time>
      </trkpt>
      <trkpt lat="44.92083" lon="5.32385">
        <ele>1327</ele>
        <time>2020-05-21T10:20:12Z</time>
      </trkpt>
      <trkpt lat="44.92058" lon="5.32381">
        <ele>1328</ele>
        <time>2020-05-21T10:20:15Z</time>
      </trkpt>
      <trkpt lat="44.9204" lon="5.32405">
        <ele>1329</ele>
        <time>2020-05-21T10:20:18Z</time>
      </trkpt>
      <trkpt lat="44.92023" lon="5.32454">
        <ele>1330</ele>
        <time>2020-05-21T10:20:21Z</time>
      </trkpt>
      <trkpt lat="44.91999" lon="5.32492">
        <ele>1330</ele>
        <time>2020-05-21T10:20:24Z</time>
      </trkpt>
      <trkpt lat="44.91956" lon="5.32518">
        <ele>1332</ele>
        <time>2020-05-21T10:20:27Z</time>
      </trkpt>
      <trkpt lat="44.9193" lon="5.32527">
        <ele>1333</ele>
        <time>2020-05-21T10:20:30Z</time>
      </trkpt>
      <trkpt lat="44.9188" lon="5.32516">
        <ele>1335</ele>
        <time>2020-05-21T10:20:34Z</time>
      </trkpt>
      <trkpt lat="44.91841" lon="5.32502">
        <ele>1337</ele>
        <time>2020-05-21T10:20:37Z</time>
      </trkpt>
      <trkpt lat="44.91802" lon="5.32501">
        <ele>1340</ele>
        <time>2020-05-21T10:20:40Z</time>
      </trkpt>
      <trkpt lat="44.91765" lon="5.32514">
        <ele>1343</ele>
        <time>2020-05-21T10:20:43Z</time>
      </trkpt>
      <trkpt lat="44.91733" lon="5.32534">
        <ele>1344</ele>
        <time>2020-05-21T10:20:46Z</time>
      </trkpt>
      <trkpt lat="44.91697" lon="5.32523">
        <ele>1347</ele>
        <time>2020-05-21T10:20:49Z</time>
      </trkpt>
      <trkpt lat="44.91659" lon="5.32493">
        <ele>1350</ele>
        <time>2020-05-21T10:20:52Z</time>
      </trkpt>
      <trkpt lat="44.91622" lon="5.32484">
        <ele>1353</ele>
        <time>2020-05-21T10:20:55Z</time>
      </trkpt>
      <trkpt lat="44.91585" lon="5.32499">
        <ele>1356</ele>
        <time>2020-05-21T10:20:58Z</time>
      </trkpt>
      <trkpt lat="44.9155" lon="5.32518">
        <ele>1359</ele>
        <time>2020-05-21T10:21:01Z</time>
      </trkpt>
      <trkpt lat="44.91521" lon="5.32528">
        <ele>1361</ele>
        <time>2020-05-21T10:21:04Z</time>
      </trkpt>
      <trkpt lat="44.91479" lon="5.3254">
        <ele>1363</ele>
        <time>2020-05-21T10:21:07Z</time>
      </trkpt>
      <trkpt lat="44.91438" lon="5.32553">
        <ele>1365</ele>
        <time>2020-05-21T10:21:11Z</time>
      </trkpt>
      <trkpt lat="44.91403" lon="5.32553">
        <ele>1366</ele>
        <time>2020-05-21T10:21:14Z</time>
      </trkpt>
      <trkpt lat="44.91353" lon="5.32527">
        <ele>1369</ele>
        <time>2020-05-21T10:21:17Z</time>
      </trkpt>
      <trkpt lat="44.91311" lon="5.3252">
        <ele>1372</ele>
        <time>2020-05-21T10:21:20Z</time>
      </trkpt>
      <trkpt lat="44.91272" lon="5.32525">
        <ele>1374</ele>
        <time>2020-05-21T10:21:23Z</time>
      </trkpt>
      <trkpt lat="44.91215" lon="5.32523">
        <ele>1376</ele>
        <time>2020-05-21T10:21:27Z</time>
      </trkpt>
      <trkpt lat="44.91187" lon="5.32522">
        <ele>1376</ele>
        <time>2020-05-21T10:21:30Z</time>
      </trkpt>
      <trkpt lat="44.91144" lon="5.32521">
        <ele>1377</ele>
        <time>2020-05-21T10:21:33Z</time>
      </trkpt>
      <trkpt lat="44.91098" lon="5.32519">
        <ele>1379</ele>
        <time>2020-05-21T10:21:36Z</time>
      </trkpt>
      <trkpt lat="44.91064" lon="5.32519">
        <ele>1383</ele>
        <time>2020-05-21T10:21:39Z</time>
      </trkpt>
      <trkpt lat="44.91037" lon="5.32525">
        <ele>1386</ele>
        <time>2020-05-21T10:21:42Z</time>
      </trkpt>
      <trkpt lat="44.91012" lon="5.32548">
        <ele>1390</ele>
        <time>2020-05-21T10:21:45Z</time>
      </trkpt>
      <trkpt lat="44.90993" lon="5.32586">
        <ele>1394</ele>
        <time>2020-05-21T10:21:48Z</time>
      </trkpt>
      <trkpt lat="44.90973" lon="5.32628">
        <ele>1397</ele>
        <time>2020-05-21T10:21:51Z</time>
      </trkpt>
      <trkpt lat="44.90962" lon="5.32673">
        <ele>1399</ele>
        <time>2020-05-21T10:21:54Z</time>
      </trkpt>
      <trkpt lat="44.90974" lon="5.32728">
        <ele>1402</ele>
        <time>2020-05-21T10:21:58Z</time>
      </trkpt>
      <trkpt lat="44.90997" lon="5.32769">
        <ele>1404</ele>
        <time>2020-05-21T10:22:01Z</time>
      </trkpt>
      <trkpt lat="44.91022" lon="5.32808">
        <ele>1406</ele>
        <time>2020-05-21T10:22:04Z</time>
      </trkpt>
      <trkpt lat="44.9104" lon="5.32854">
        <ele>1408</ele>
        <time>2020-05-21T10:22:07Z</time>
      </trkpt>
      <trkpt lat="44.91062" lon="5.32923">
        <ele>1411</ele>
        <time>2020-05-21T10:22:10Z</time>
      </trkpt>
      <trkpt lat="44.9108" lon="5.32982">
        <ele>1413</ele>
        <time>2020-05-21T10:22:13Z</time>
      </trkpt>
      <trkpt lat="44.91095" lon="5.33038">
        <ele>1417</ele>
        <time>2020-05-21T10:22:17Z</time>
      </trkpt>
      <trkpt lat="44.91095" lon="5.33081">
        <ele>1419</ele>
        <time>2020-05-21T10:22:20Z</time>
      </trkpt>
      <trkpt lat="44.91086" lon="5.33131">
        <ele>1423</ele>
        <time>2020-05-21T10:22:24Z</time>
      </trkpt>
      <trkpt lat="44.91072" lon="5.33164">
        <ele>1425</ele>
        <time>2020-05-21T10:22:27Z</time>
      </trkpt>
      <trkpt lat="44.91053" lon="5.33179">
        <ele>1427</ele>
        <time>2020-05-21T10:22:30Z</time>
      </trkpt>
      <trkpt lat="44.91021" lon="5.33194">
        <ele>1429</ele>
        <time>2020-05-21T10:22:34Z</time>
      </trkpt>
      <trkpt lat="44.90996" lon="5.3323">
        <ele>1431</ele>
        <time>2020-05-21T10:22:37Z</time>
      </trkpt>
      <trkpt lat="44.90975" lon="5.33257">
        <ele>1432</ele>
        <time>2020-05-21T10:22:40Z</time>
      </trkpt>
      <trkpt lat="44.90946" lon="5.3326">
        <ele>1433</ele>
        <time>2020-05-21T10:22:43Z</time>
      </trkpt>
      <trkpt lat="44.90912" lon="5.33261">
        <ele>1435</ele>
        <time>2020-05-21T10:22:46Z</time>
      </trkpt>
      <trkpt lat="44.90891" lon="5.33281">
        <ele>1436</ele>
        <time>2020-05-21T10:22:49Z</time>
      </trkpt>
      <trkpt lat="44.90878" lon="5.3331">
        <ele>1438</ele>
        <time>2020-05-21T10:22:52Z</time>
      </trkpt>
      <trkpt lat="44.90868" lon="5.3334">
        <ele>1438</ele>
        <time>2020-05-21T10:22:55Z</time>
      </trkpt>
      <trkpt lat="44.9085" lon="5.33377">
        <ele>1440</ele>
        <time>2020-05-21T10:22:59Z</time>
      </trkpt>
      <trkpt lat="44.90827" lon="5.33404">
        <ele>1441</ele>
        <time>2020-05-21T10:23:02Z</time>
      </trkpt>
      <trkpt lat="44.90799" lon="5.33436">
        <ele>1443</ele>
        <time>2020-05-21T10:23:05Z</time>
      </trkpt>
      <trkpt lat="44.90764" lon="5.33472">
        <ele>1445</ele>
        <time>2020-05-21T10:23:08Z</time>
      </trkpt>
      <trkpt lat="44.90731" lon="5.33495">
        <ele>1447</ele>
        <time>2020-05-21T10:23:11Z</time>
      </trkpt>
      <trkpt lat="44.90683" lon="5.33496">
        <ele>1450</ele>
        <time>2020-05-21T10:23:15Z</time>
      </trkpt>
      <trkpt lat="44.90649" lon="5.33498">
        <ele>1451</ele>
        <time>2020-05-21T10:23:18Z</time>
      </trkpt>
      <trkpt lat="44.90624" lon="5.335">
        <ele>1453</ele>
        <time>2020-05-21T10:23:21Z</time>
      </trkpt>
      <trkpt lat="44.906" lon="5.33512">
        <ele>1455</ele>
        <time>2020-05-21T10:23:24Z</time>
      </trkpt>
      <trkpt lat="44.90582" lon="5.33539">
        <ele>1456</ele>
        <time>2020-05-21T10:23:27Z</time>
      </trkpt>
      <trkpt lat="44.90572" lon="5.33585">
        <ele>1457</ele>
        <time>2020-05-21T10:23:30Z</time>
      </trkpt>
      <trkpt lat="44.90568" lon="5.33615">
        <ele>1458</ele>
        <time>2020-05-21T10:23:33Z</time>
      </trkpt>
      <trkpt lat="44.90563" lon="5.3367">
        <ele>1458</ele>
        <time>2020-05-21T10:23:36Z</time>
      </trkpt>
      <trkpt lat="44.90559" lon="5.33726">
        <ele>1459</ele>
        <time>2020-05-21T10:23:39Z</time>
      </trkpt>
      <trkpt lat="44.90559" lon="5.33774">
        <ele>1459</ele>
        <time>2020-05-21T10:23:42Z</time>
      </trkpt>
      <trkpt lat="44.9056" lon="5.33823">
        <ele>1460</ele>
        <time>2020-05-21T10:23:45Z</time>
      </trkpt>
      <trkpt lat="44.90563" lon="5.33868">
        <ele>1462</ele>
        <time>2020-05-21T10:23:48Z</time>
      </trkpt>
      <trkpt lat="44.90566" lon="5.33913">
        <ele>1462</ele>
        <time>2020-05-21T10:23:51Z</time>
      </trkpt>
      <trkpt lat="44.90577" lon="5.33955">
        <ele>1464</ele>
        <time>2020-05-21T10:23:54Z</time>
      </trkpt>
      <trkpt lat="44.90618" lon="5.33972">
        <ele>1466</ele>
        <time>2020-05-21T10:23:57Z</time>
      </trkpt>
      <trkpt lat="44.9064" lon="5.33993">
        <ele>1466</ele>
        <time>2020-05-21T10:24:01Z</time>
      </trkpt>
      <trkpt lat="44.90623" lon="5.34045">
        <ele>1467</ele>
        <time>2020-05-21T10:24:04Z</time>
      </trkpt>
      <trkpt lat="44.90603" lon="5.34062">
        <ele>1467</ele>
        <time>2020-05-21T10:24:07Z</time>
      </trkpt>
      <trkpt lat="44.90574" lon="5.34079">
        <ele>1468</ele>
        <time>2020-05-21T10:24:10Z</time>
      </trkpt>
      <trkpt lat="44.90541" lon="5.34117">
        <ele>1468</ele>
        <time>2020-05-21T10:24:13Z</time>
      </trkpt>
      <trkpt lat="44.9053" lon="5.3416">
        <ele>1468</ele>
        <time>2020-05-21T10:24:16Z</time>
      </trkpt>
      <trkpt lat="44.90532" lon="5.34199">
        <ele>1466</ele>
        <time>2020-05-21T10:24:20Z</time>
      </trkpt>
      <trkpt lat="44.90554" lon="5.34231">
        <ele>1465</ele>
        <time>2020-05-21T10:24:23Z</time>
      </trkpt>
      <trkpt lat="44.90592" lon="5.34258">
        <ele>1463</ele>
        <time>2020-05-21T10:24:26Z</time>
      </trkpt>
      <trkpt lat="44.90633" lon="5.34288">
        <ele>1462</ele>
        <time>2020-05-21T10:24:29Z</time>
      </trkpt>
      <trkpt lat="44.90673" lon="5.34317">
        <ele>1460</ele>
        <time>2020-05-21T10:24:32Z</time>
      </trkpt>
      <trkpt lat="44.90713" lon="5.34349">
        <ele>1458</ele>
        <time>2020-05-21T10:24:35Z</time>
      </trkpt>
      <trkpt lat="44.90748" lon="5.34392">
        <ele>1455</ele>
        <time>2020-05-21T10:24:38Z</time>
      </trkpt>
      <trkpt lat="44.90768" lon="5.34446">
        <ele>1454</ele>
        <time>2020-05-21T10:24:41Z</time>
      </trkpt>
      <trkpt lat="44.90778" lon="5.34505">
        <ele>1454</ele>
        <time>2020-05-21T10:24:44Z</time>
      </trkpt>
      <trkpt lat="44.90804" lon="5.34543">
        <ele>1453</ele>
        <time>2020-05-21T10:24:47Z</time>
      </trkpt>
      <trkpt lat="44.90832" lon="5.34572">
        <ele>1451</ele>
        <time>2020-05-21T10:24:50Z</time>
      </trkpt>
      <trkpt lat="44.90851" lon="5.34613">
        <ele>1449</ele>
        <time>2020-05-21T10:24:54Z</time>
      </trkpt>
      <trkpt lat="44.90872" lon="5.3464">
        <ele>1446</ele>
        <time>2020-05-21T10:24:57Z</time>
      </trkpt>
      <trkpt lat="44.90906" lon="5.34637">
        <ele>1445</ele>
        <time>2020-05-21T10:25:00Z</time>
      </trkpt>
      <trkpt lat="44.90947" lon="5.34636">
        <ele>1445</ele>
        <time>2020-05-21T10:25:03Z</time>
      </trkpt>
      <trkpt lat="44.90966" lon="5.34664">
        <ele>1443</ele>
        <time>2020-05-21T10:25:06Z</time>
      </trkpt>
      <trkpt lat="44.90974" lon="5.34717">
        <ele>1442</ele>
        <time>2020-05-21T10:25:10Z</time>
      </trkpt>
      <trkpt lat="44.90979" lon="5.34788">
        <ele>1441</ele>
        <time>2020-05-21T10:25:13Z</time>
      </trkpt>
      <trkpt lat="44.9099" lon="5.34838">
        <ele>1439</ele>
        <time>2020-05-21T10:25:16Z</time>
      </trkpt>
      <trkpt lat="44.90997" lon="5.34888">
        <ele>1438</ele>
        <time>2020-05-21T10:25:20Z</time>
      </trkpt>
      <trkpt lat="44.90992" lon="5.34965">
        <ele>1437</ele>
        <time>2020-05-21T10:25:23Z</time>
      </trkpt>
      <trkpt lat="44.90993" lon="5.35029">
        <ele>1436</ele>
        <time>2020-05-21T10:25:26Z</time>
      </trkpt>
      <trkpt lat="44.91002" lon="5.35093">
        <ele>1435</ele>
        <time>2020-05-21T10:25:29Z</time>
      </trkpt>
      <trkpt lat="44.91009" lon="5.35153">
        <ele>1435</ele>
        <time>2020-05-21T10:25:32Z</time>
      </trkpt>
      <trkpt lat="44.91009" lon="5.35194">
        <ele>1434</ele>
        <time>2020-05-21T10:25:35Z</time>
      </trkpt>
      <trkpt lat="44.91003" lon="5.35275">
        <ele>1433</ele>
        <time>2020-05-21T10:25:38Z</time>
      </trkpt>
      <trkpt lat="44.91003" lon="5.35333">
        <ele>1431</ele>
        <time>2020-05-21T10:25:41Z</time>
      </trkpt>
      <trkpt lat="44.91009" lon="5.3537">
        <ele>1429</ele>
        <time>2020-05-21T10:25:44Z</time>
      </trkpt>
      <trkpt lat="44.91021" lon="5.35426">
        <ele>1428</ele>
        <time>2020-05-21T10:25:48Z</time>
      </trkpt>
      <trkpt lat="44.91015" lon="5.35495">
        <ele>1427</ele>
        <time>2020-05-21T10:25:51Z</time>
      </trkpt>
      <trkpt lat="44.90983" lon="5.35536">
        <ele>1426</ele>
        <time>2020-05-21T10:25:54Z</time>
      </trkpt>
      <trkpt lat="44.90935" lon="5.3555">
        <ele>1426</ele>
        <time>2020-05-21T10:25:58Z</time>
      </trkpt>
      <trkpt lat="44.90894" lon="5.35565">
        <ele>1427</ele>
        <time>2020-05-21T10:26:01Z</time>
      </trkpt>
      <trkpt lat="44.90857" lon="5.35578">
        <ele>1426</ele>
        <time>2020-05-21T10:26:04Z</time>
      </trkpt>
      <trkpt lat="44.90815" lon="5.35574">
        <ele>1424</ele>
        <time>2020-05-21T10:26:07Z</time>
      </trkpt>
      <trkpt lat="44.90787" lon="5.35596">
        <ele>1420</ele>
        <time>2020-05-21T10:26:10Z</time>
      </trkpt>
      <trkpt lat="44.90759" lon="5.35621">
        <ele>1416</ele>
        <time>2020-05-21T10:26:13Z</time>
      </trkpt>
      <trkpt lat="44.90743" lon="5.35637">
        <ele>1413</ele>
        <time>2020-05-21T10:26:16Z</time>
      </trkpt>
      <trkpt lat="44.90726" lon="5.35676">
        <ele>1409</ele>
        <time>2020-05-21T10:26:19Z</time>
      </trkpt>
      <trkpt lat="44.90726" lon="5.35727">
        <ele>1407</ele>
        <time>2020-05-21T10:26:23Z</time>
      </trkpt>
      <trkpt lat="44.90735" lon="5.35779">
        <ele>1406</ele>
        <time>2020-05-21T10:26:26Z</time>
      </trkpt>
      <trkpt lat="44.90745" lon="5.35821">
        <ele>1405</ele>
        <time>2020-05-21T10:26:29Z</time>
      </trkpt>
      <trkpt lat="44.90733" lon="5.35878">
        <ele>1403</ele>
        <time>2020-05-21T10:26:32Z</time>
      </trkpt>
      <trkpt lat="44.90733" lon="5.35925">
        <ele>1401</ele>
        <time>2020-05-21T10:26:35Z</time>
      </trkpt>
      <trkpt lat="44.9073" lon="5.35973">
        <ele>1400</ele>
        <time>2020-05-21T10:26:38Z</time>
      </trkpt>
      <trkpt lat="44.90722" lon="5.36016">
        <ele>1399</ele>
        <time>2020-05-21T10:26:41Z</time>
      </trkpt>
      <trkpt lat="44.90724" lon="5.36057">
        <ele>1398</ele>
        <time>2020-05-21T10:26:44Z</time>
      </trkpt>
      <trkpt lat="44.9074" lon="5.36104">
        <ele>1394</ele>
        <time>2020-05-21T10:26:47Z</time>
      </trkpt>
      <trkpt lat="44.90755" lon="5.36128">
        <ele>1390</ele>
        <time>2020-05-21T10:26:50Z</time>
      </trkpt>
      <trkpt lat="44.90784" lon="5.36186">
        <ele>1384</ele>
        <time>2020-05-21T10:26:54Z</time>
      </trkpt>
      <trkpt lat="44.908" lon="5.3622">
        <ele>1381</ele>
        <time>2020-05-21T10:26:58Z</time>
      </trkpt>
      <trkpt lat="44.90827" lon="5.36254">
        <ele>1376</ele>
        <time>2020-05-21T10:27:01Z</time>
      </trkpt>
      <trkpt lat="44.90869" lon="5.363">
        <ele>1370</ele>
        <time>2020-05-21T10:27:04Z</time>
      </trkpt>
      <trkpt lat="44.90899" lon="5.36331">
        <ele>1366</ele>
        <time>2020-05-21T10:27:07Z</time>
      </trkpt>
      <trkpt lat="44.90936" lon="5.36362">
        <ele>1364</ele>
        <time>2020-05-21T10:27:10Z</time>
      </trkpt>
      <trkpt lat="44.90979" lon="5.36392">
        <ele>1361</ele>
        <time>2020-05-21T10:27:13Z</time>
      </trkpt>
      <trkpt lat="44.91041" lon="5.36436">
        <ele>1357</ele>
        <time>2020-05-21T10:27:17Z</time>
      </trkpt>
      <trkpt lat="44.91083" lon="5.36476">
        <ele>1354</ele>
        <time>2020-05-21T10:27:20Z</time>
      </trkpt>
      <trkpt lat="44.9112" lon="5.36515">
        <ele>1350</ele>
        <time>2020-05-21T10:27:23Z</time>
      </trkpt>
      <trkpt lat="44.91156" lon="5.36548">
        <ele>1346</ele>
        <time>2020-05-21T10:27:26Z</time>
      </trkpt>
      <trkpt lat="44.91179" lon="5.36569">
        <ele>1343</ele>
        <time>2020-05-21T10:27:29Z</time>
      </trkpt>
      <trkpt lat="44.91228" lon="5.36616">
        <ele>1336</ele>
        <time>2020-05-21T10:27:33Z</time>
      </trkpt>
      <trkpt lat="44.91272" lon="5.36656">
        <ele>1333</ele>
        <time>2020-05-21T10:27:36Z</time>
      </trkpt>
      <trkpt lat="44.91312" lon="5.36692">
        <ele>1330</ele>
        <time>2020-05-21T10:27:40Z</time>
      </trkpt>
      <trkpt lat="44.91371" lon="5.36746">
        <ele>1326</ele>
        <time>2020-05-21T10:27:43Z</time>
      </trkpt>
      <trkpt lat="44.91405" lon="5.36799">
        <ele>1320</ele>
        <time>2020-05-21T10:27:46Z</time>
      </trkpt>
      <trkpt lat="44.91455" lon="5.36863">
        <ele>1313</ele>
        <time>2020-05-21T10:27:50Z</time>
      </trkpt>
      <trkpt lat="44.91482" lon="5.36888">
        <ele>1309</ele>
        <time>2020-05-21T10:27:53Z</time>
      </trkpt>
      <trkpt lat="44.91518" lon="5.36931">
        <ele>1305</ele>
        <time>2020-05-21T10:27:57Z</time>
      </trkpt>
      <trkpt lat="44.91566" lon="5.36992">
        <ele>1299</ele>
        <time>2020-05-21T10:28:00Z</time>
      </trkpt>
      <trkpt lat="44.91604" lon="5.37033">
        <ele>1294</ele>
        <time>2020-05-21T10:28:03Z</time>
      </trkpt>
      <trkpt lat="44.91641" lon="5.37062">
        <ele>1291</ele>
        <time>2020-05-21T10:28:07Z</time>
      </trkpt>
      <trkpt lat="44.9168" lon="5.37082">
        <ele>1288</ele>
        <time>2020-05-21T10:28:10Z</time>
      </trkpt>
      <trkpt lat="44.91734" lon="5.37125">
        <ele>1286</ele>
        <time>2020-05-21T10:28:13Z</time>
      </trkpt>
      <trkpt lat="44.91765" lon="5.37134">
        <ele>1282</ele>
        <time>2020-05-21T10:28:17Z</time>
      </trkpt>
      <trkpt lat="44.91797" lon="5.37134">
        <ele>1280</ele>
        <time>2020-05-21T10:28:20Z</time>
      </trkpt>
      <trkpt lat="44.91812" lon="5.37136">
        <ele>1278</ele>
        <time>2020-05-21T10:28:23Z</time>
      </trkpt>
      <trkpt lat="44.91817" lon="5.37156">
        <ele>1277</ele>
        <time>2020-05-21T10:28:26Z</time>
      </trkpt>
      <trkpt lat="44.9178" lon="5.37165">
        <ele>1275</ele>
        <time>2020-05-21T10:28:29Z</time>
      </trkpt>
      <trkpt lat="44.91754" lon="5.37164">
        <ele>1272</ele>
        <time>2020-05-21T10:28:32Z</time>
      </trkpt>
      <trkpt lat="44.91705" lon="5.3715">
        <ele>1268</ele>
        <time>2020-05-21T10:28:36Z</time>
      </trkpt>
      <trkpt lat="44.91649" lon="5.37129">
        <ele>1264</ele>
        <time>2020-05-21T10:28:39Z</time>
      </trkpt>
      <trkpt lat="44.91588" lon="5.37118">
        <ele>1258</ele>
        <time>2020-05-21T10:28:43Z</time>
      </trkpt>
      <trkpt lat="44.91542" lon="5.37096">
        <ele>1254</ele>
        <time>2020-05-21T10:28:46Z</time>
      </trkpt>
      <trkpt lat="44.91502" lon="5.37063">
        <ele>1251</ele>
        <time>2020-05-21T10:28:49Z</time>
      </trkpt>
      <trkpt lat="44.91476" lon="5.37038">
        <ele>1247</ele>
        <time>2020-05-21T10:28:52Z</time>
      </trkpt>
      <trkpt lat="44.91438" lon="5.37005">
        <ele>1244</ele>
        <time>2020-05-21T10:28:55Z</time>
      </trkpt>
      <trkpt lat="44.91402" lon="5.36985">
        <ele>1242</ele>
        <time>2020-05-21T10:28:59Z</time>
      </trkpt>
      <trkpt lat="44.91364" lon="5.36982">
        <ele>1239</ele>
        <time>2020-05-21T10:29:02Z</time>
      </trkpt>
      <trkpt lat="44.91317" lon="5.36991">
        <ele>1235</ele>
        <time>2020-05-21T10:29:05Z</time>
      </trkpt>
      <trkpt lat="44.91281" lon="5.37002">
        <ele>1229</ele>
        <time>2020-05-21T10:29:08Z</time>
      </trkpt>
      <trkpt lat="44.91227" lon="5.36977">
        <ele>1225</ele>
        <time>2020-05-21T10:29:11Z</time>
      </trkpt>
      <trkpt lat="44.91198" lon="5.36926">
        <ele>1222</ele>
        <time>2020-05-21T10:29:14Z</time>
      </trkpt>
      <trkpt lat="44.91161" lon="5.36896">
        <ele>1220</ele>
        <time>2020-05-21T10:29:17Z</time>
      </trkpt>
      <trkpt lat="44.91123" lon="5.36884">
        <ele>1218</ele>
        <time>2020-05-21T10:29:20Z</time>
      </trkpt>
      <trkpt lat="44.91085" lon="5.36872">
        <ele>1216</ele>
        <time>2020-05-21T10:29:23Z</time>
      </trkpt>
      <trkpt lat="44.91054" lon="5.36858">
        <ele>1211</ele>
        <time>2020-05-21T10:29:27Z</time>
      </trkpt>
      <trkpt lat="44.91004" lon="5.36836">
        <ele>1206</ele>
        <time>2020-05-21T10:29:30Z</time>
      </trkpt>
      <trkpt lat="44.90958" lon="5.36829">
        <ele>1203</ele>
        <time>2020-05-21T10:29:33Z</time>
      </trkpt>
      <trkpt lat="44.90912" lon="5.36831">
        <ele>1200</ele>
        <time>2020-05-21T10:29:36Z</time>
      </trkpt>
      <trkpt lat="44.90865" lon="5.36829">
        <ele>1198</ele>
        <time>2020-05-21T10:29:39Z</time>
      </trkpt>
      <trkpt lat="44.90831" lon="5.36795">
        <ele>1195</ele>
        <time>2020-05-21T10:29:42Z</time>
      </trkpt>
      <trkpt lat="44.9079" lon="5.36752">
        <ele>1192</ele>
        <time>2020-05-21T10:29:46Z</time>
      </trkpt>
      <trkpt lat="44.9076" lon="5.36724">
        <ele>1189</ele>
        <time>2020-05-21T10:29:50Z</time>
      </trkpt>
      <trkpt lat="44.9072" lon="5.36693">
        <ele>1186</ele>
        <time>2020-05-21T10:29:53Z</time>
      </trkpt>
      <trkpt lat="44.907" lon="5.36693">
        <ele>1182</ele>
        <time>2020-05-21T10:29:56Z</time>
      </trkpt>
      <trkpt lat="44.90674" lon="5.36721">
        <ele>1178</ele>
        <time>2020-05-21T10:29:59Z</time>
      </trkpt>
      <trkpt lat="44.90647" lon="5.36757">
        <ele>1174</ele>
        <time>2020-05-21T10:30:03Z</time>
      </trkpt>
      <trkpt lat="44.90624" lon="5.36788">
        <ele>1170</ele>
        <time>2020-05-21T10:30:06Z</time>
      </trkpt>
      <trkpt lat="44.90601" lon="5.36819">
        <ele>1167</ele>
        <time>2020-05-21T10:30:09Z</time>
      </trkpt>
      <trkpt lat="44.90561" lon="5.36873">
        <ele>1162</ele>
        <time>2020-05-21T10:30:12Z</time>
      </trkpt>
      <trkpt lat="44.9053" lon="5.36916">
        <ele>1159</ele>
        <time>2020-05-21T10:30:15Z</time>
      </trkpt>
      <trkpt lat="44.90497" lon="5.36961">
        <ele>1157</ele>
        <time>2020-05-21T10:30:18Z</time>
      </trkpt>
      <trkpt lat="44.90466" lon="5.37005">
        <ele>1155</ele>
        <time>2020-05-21T10:30:22Z</time>
      </trkpt>
      <trkpt lat="44.90436" lon="5.37047">
        <ele>1153</ele>
        <time>2020-05-21T10:30:25Z</time>
      </trkpt>
      <trkpt lat="44.90417" lon="5.37075">
        <ele>1151</ele>
        <time>2020-05-21T10:30:28Z</time>
      </trkpt>
      <trkpt lat="44.90392" lon="5.3711">
        <ele>1149</ele>
        <time>2020-05-21T10:30:31Z</time>
      </trkpt>
      <trkpt lat="44.90371" lon="5.37139">
        <ele>1147</ele>
        <time>2020-05-21T10:30:34Z</time>
      </trkpt>
      <trkpt lat="44.90362" lon="5.37152">
        <ele>1146</ele>
        <time>2020-05-21T10:30:37Z</time>
      </trkpt>
      <trkpt lat="44.90338" lon="5.3716">
        <ele>1144</ele>
        <time>2020-05-21T10:30:40Z</time>
      </trkpt>
      <trkpt lat="44.90302" lon="5.37159">
        <ele>1142</ele>
        <time>2020-05-21T10:30:43Z</time>
      </trkpt>
      <trkpt lat="44.90246" lon="5.37157">
        <ele>1140</ele>
        <time>2020-05-21T10:30:46Z</time>
      </trkpt>
      <trkpt lat="44.90185" lon="5.37155">
        <ele>1137</ele>
        <time>2020-05-21T10:30:49Z</time>
      </trkpt>
      <trkpt lat="44.90133" lon="5.37152">
        <ele>1134</ele>
        <time>2020-05-21T10:30:52Z</time>
      </trkpt>
      <trkpt lat="44.90089" lon="5.37122">
        <ele>1132</ele>
        <time>2020-05-21T10:30:55Z</time>
      </trkpt>
      <trkpt lat="44.90052" lon="5.3708">
        <ele>1130</ele>
        <time>2020-05-21T10:30:58Z</time>
      </trkpt>
      <trkpt lat="44.90014" lon="5.37034">
        <ele>1128</ele>
        <time>2020-05-21T10:31:01Z</time>
      </trkpt>
      <trkpt lat="44.89968" lon="5.3699">
        <ele>1126</ele>
        <time>2020-05-21T10:31:04Z</time>
      </trkpt>
      <trkpt lat="44.89909" lon="5.36951">
        <ele>1124</ele>
        <time>2020-05-21T10:31:07Z</time>
      </trkpt>
      <trkpt lat="44.89839" lon="5.36907">
        <ele>1122</ele>
        <time>2020-05-21T10:31:11Z</time>
      </trkpt>
      <trkpt lat="44.89782" lon="5.369">
        <ele>1120</ele>
        <time>2020-05-21T10:31:15Z</time>
      </trkpt>
      <trkpt lat="44.89725" lon="5.36911">
        <ele>1119</ele>
        <time>2020-05-21T10:31:18Z</time>
      </trkpt>
      <trkpt lat="44.89675" lon="5.36928">
        <ele>1117</ele>
        <time>2020-05-21T10:31:21Z</time>
      </trkpt>
      <trkpt lat="44.89641" lon="5.36958">
        <ele>1116</ele>
        <time>2020-05-21T10:31:24Z</time>
      </trkpt>
      <trkpt lat="44.89625" lon="5.3701">
        <ele>1114</ele>
        <time>2020-05-21T10:31:27Z</time>
      </trkpt>
      <trkpt lat="44.8961" lon="5.37045">
        <ele>1113</ele>
        <time>2020-05-21T10:31:30Z</time>
      </trkpt>
      <trkpt lat="44.89586" lon="5.37069">
        <ele>1111</ele>
        <time>2020-05-21T10:31:33Z</time>
      </trkpt>
      <trkpt lat="44.89569" lon="5.37074">
        <ele>1110</ele>
        <time>2020-05-21T10:31:37Z</time>
      </trkpt>
      <trkpt lat="44.89556" lon="5.37075">
        <ele>1109</ele>
        <time>2020-05-21T10:31:40Z</time>
      </trkpt>
      <trkpt lat="44.8954" lon="5.37072">
        <ele>1108</ele>
        <time>2020-05-21T10:31:43Z</time>
      </trkpt>
      <trkpt lat="44.89532" lon="5.37094">
        <ele>1108</ele>
        <time>2020-05-21T10:31:46Z</time>
      </trkpt>
      <trkpt lat="44.89508" lon="5.37138">
        <ele>1107</ele>
        <time>2020-05-21T10:31:49Z</time>
      </trkpt>
      <trkpt lat="44.89494" lon="5.37164">
        <ele>1107</ele>
        <time>2020-05-21T10:31:52Z</time>
      </trkpt>
      <trkpt lat="44.89485" lon="5.37181">
        <ele>1107</ele>
        <time>2020-05-21T10:31:55Z</time>
      </trkpt>
      <trkpt lat="44.89472" lon="5.37193">
        <ele>1123</ele>
        <time>2020-05-21T10:36:44Z</time>
      </trkpt>
      <trkpt lat="44.89459" lon="5.3723">
        <ele>1122</ele>
        <time>2020-05-21T10:36:47Z</time>
      </trkpt>
      <trkpt lat="44.89445" lon="5.37256">
        <ele>1120</ele>
        <time>2020-05-21T10:36:50Z</time>
      </trkpt>
      <trkpt lat="44.89429" lon="5.37285">
        <ele>1118</ele>
        <time>2020-05-21T10:36:54Z</time>
      </trkpt>
      <trkpt lat="44.89408" lon="5.37324">
        <ele>1117</ele>
        <time>2020-05-21T10:36:57Z</time>
      </trkpt>
      <trkpt lat="44.89383" lon="5.3737">
        <ele>1116</ele>
        <time>2020-05-21T10:37:00Z</time>
      </trkpt>
      <trkpt lat="44.89356" lon="5.37421">
        <ele>1116</ele>
        <time>2020-05-21T10:37:03Z</time>
      </trkpt>
      <trkpt lat="44.89338" lon="5.37454">
        <ele>1115</ele>
        <time>2020-05-21T10:37:06Z</time>
      </trkpt>
      <trkpt lat="44.89308" lon="5.37507">
        <ele>1115</ele>
        <time>2020-05-21T10:37:09Z</time>
      </trkpt>
      <trkpt lat="44.89277" lon="5.37562">
        <ele>1114</ele>
        <time>2020-05-21T10:37:12Z</time>
      </trkpt>
      <trkpt lat="44.89236" lon="5.37639">
        <ele>1113</ele>
        <time>2020-05-21T10:37:15Z</time>
      </trkpt>
      <trkpt lat="44.89213" lon="5.37698">
        <ele>1113</ele>
        <time>2020-05-21T10:37:18Z</time>
      </trkpt>
      <trkpt lat="44.89204" lon="5.37759">
        <ele>1112</ele>
        <time>2020-05-21T10:37:21Z</time>
      </trkpt>
      <trkpt lat="44.89187" lon="5.37817">
        <ele>1112</ele>
        <time>2020-05-21T10:37:24Z</time>
      </trkpt>
      <trkpt lat="44.89157" lon="5.37875">
        <ele>1112</ele>
        <time>2020-05-21T10:37:27Z</time>
      </trkpt>
      <trkpt lat="44.89139" lon="5.37941">
        <ele>1111</ele>
        <time>2020-05-21T10:37:30Z</time>
      </trkpt>
      <trkpt lat="44.89136" lon="5.38011">
        <ele>1111</ele>
        <time>2020-05-21T10:37:34Z</time>
      </trkpt>
      <trkpt lat="44.89121" lon="5.38068">
        <ele>1111</ele>
        <time>2020-05-21T10:37:37Z</time>
      </trkpt>
      <trkpt lat="44.89098" lon="5.38126">
        <ele>1110</ele>
        <time>2020-05-21T10:37:40Z</time>
      </trkpt>
      <trkpt lat="44.89069" lon="5.38194">
        <ele>1110</ele>
        <time>2020-05-21T10:37:43Z</time>
      </trkpt>
      <trkpt lat="44.8904" lon="5.38264">
        <ele>1109</ele>
        <time>2020-05-21T10:37:46Z</time>
      </trkpt>
      <trkpt lat="44.89016" lon="5.38323">
        <ele>1110</ele>
        <time>2020-05-21T10:37:49Z</time>
      </trkpt>
      <trkpt lat="44.88986" lon="5.38389">
        <ele>1110</ele>
        <time>2020-05-21T10:37:52Z</time>
      </trkpt>
      <trkpt lat="44.88946" lon="5.38439">
        <ele>1110</ele>
        <time>2020-05-21T10:37:55Z</time>
      </trkpt>
      <trkpt lat="44.889" lon="5.38479">
        <ele>1109</ele>
        <time>2020-05-21T10:37:58Z</time>
      </trkpt>
      <trkpt lat="44.88832" lon="5.38518">
        <ele>1109</ele>
        <time>2020-05-21T10:38:02Z</time>
      </trkpt>
      <trkpt lat="44.88779" lon="5.38548">
        <ele>1109</ele>
        <time>2020-05-21T10:38:05Z</time>
      </trkpt>
      <trkpt lat="44.88733" lon="5.38588">
        <ele>1110</ele>
        <time>2020-05-21T10:38:08Z</time>
      </trkpt>
      <trkpt lat="44.88694" lon="5.38638">
        <ele>1110</ele>
        <time>2020-05-21T10:38:12Z</time>
      </trkpt>
      <trkpt lat="44.88644" lon="5.38703">
        <ele>1111</ele>
        <time>2020-05-21T10:38:15Z</time>
      </trkpt>
      <trkpt lat="44.88618" lon="5.38738">
        <ele>1112</ele>
        <time>2020-05-21T10:38:18Z</time>
      </trkpt>
      <trkpt lat="44.88579" lon="5.38789">
        <ele>1112</ele>
        <time>2020-05-21T10:38:22Z</time>
      </trkpt>
      <trkpt lat="44.88538" lon="5.38843">
        <ele>1113</ele>
        <time>2020-05-21T10:38:25Z</time>
      </trkpt>
      <trkpt lat="44.88497" lon="5.38891">
        <ele>1112</ele>
        <time>2020-05-21T10:38:28Z</time>
      </trkpt>
      <trkpt lat="44.88433" lon="5.38962">
        <ele>1112</ele>
        <time>2020-05-21T10:38:31Z</time>
      </trkpt>
      <trkpt lat="44.8838" lon="5.39017">
        <ele>1113</ele>
        <time>2020-05-21T10:38:34Z</time>
      </trkpt>
      <trkpt lat="44.88331" lon="5.39066">
        <ele>1113</ele>
        <time>2020-05-21T10:38:38Z</time>
      </trkpt>
      <trkpt lat="44.88281" lon="5.39136">
        <ele>1115</ele>
        <time>2020-05-21T10:38:41Z</time>
      </trkpt>
      <trkpt lat="44.88243" lon="5.39226">
        <ele>1118</ele>
        <time>2020-05-21T10:38:45Z</time>
      </trkpt>
      <trkpt lat="44.8823" lon="5.39294">
        <ele>1120</ele>
        <time>2020-05-21T10:38:48Z</time>
      </trkpt>
      <trkpt lat="44.88227" lon="5.39344">
        <ele>1122</ele>
        <time>2020-05-21T10:38:51Z</time>
      </trkpt>
      <trkpt lat="44.88224" lon="5.39414">
        <ele>1124</ele>
        <time>2020-05-21T10:38:55Z</time>
      </trkpt>
      <trkpt lat="44.88203" lon="5.39491">
        <ele>1127</ele>
        <time>2020-05-21T10:38:58Z</time>
      </trkpt>
      <trkpt lat="44.88162" lon="5.39536">
        <ele>1129</ele>
        <time>2020-05-21T10:39:01Z</time>
      </trkpt>
      <trkpt lat="44.88115" lon="5.39571">
        <ele>1132</ele>
        <time>2020-05-21T10:39:04Z</time>
      </trkpt>
      <trkpt lat="44.88069" lon="5.39613">
        <ele>1136</ele>
        <time>2020-05-21T10:39:07Z</time>
      </trkpt>
      <trkpt lat="44.88027" lon="5.39654">
        <ele>1141</ele>
        <time>2020-05-21T10:39:10Z</time>
      </trkpt>
      <trkpt lat="44.87989" lon="5.39703">
        <ele>1144</ele>
        <time>2020-05-21T10:39:13Z</time>
      </trkpt>
      <trkpt lat="44.87937" lon="5.39772">
        <ele>1148</ele>
        <time>2020-05-21T10:39:17Z</time>
      </trkpt>
      <trkpt lat="44.87892" lon="5.3982">
        <ele>1151</ele>
        <time>2020-05-21T10:39:20Z</time>
      </trkpt>
      <trkpt lat="44.87849" lon="5.39865">
        <ele>1153</ele>
        <time>2020-05-21T10:39:23Z</time>
      </trkpt>
      <trkpt lat="44.87823" lon="5.3989">
        <ele>1156</ele>
        <time>2020-05-21T10:39:26Z</time>
      </trkpt>
      <trkpt lat="44.87772" lon="5.39916">
        <ele>1158</ele>
        <time>2020-05-21T10:39:29Z</time>
      </trkpt>
      <trkpt lat="44.87719" lon="5.39922">
        <ele>1161</ele>
        <time>2020-05-21T10:39:33Z</time>
      </trkpt>
      <trkpt lat="44.87667" lon="5.39928">
        <ele>1164</ele>
        <time>2020-05-21T10:39:36Z</time>
      </trkpt>
      <trkpt lat="44.87611" lon="5.39954">
        <ele>1168</ele>
        <time>2020-05-21T10:39:39Z</time>
      </trkpt>
      <trkpt lat="44.87557" lon="5.39986">
        <ele>1172</ele>
        <time>2020-05-21T10:39:43Z</time>
      </trkpt>
      <trkpt lat="44.87529" lon="5.39988">
        <ele>1175</ele>
        <time>2020-05-21T10:39:46Z</time>
      </trkpt>
      <trkpt lat="44.87501" lon="5.39949">
        <ele>1177</ele>
        <time>2020-05-21T10:39:49Z</time>
      </trkpt>
      <trkpt lat="44.87487" lon="5.39905">
        <ele>1181</ele>
        <time>2020-05-21T10:39:52Z</time>
      </trkpt>
      <trkpt lat="44.87472" lon="5.39899">
        <ele>1185</ele>
        <time>2020-05-21T10:39:55Z</time>
      </trkpt>
      <trkpt lat="44.8746" lon="5.39942">
        <ele>1191</ele>
        <time>2020-05-21T10:39:59Z</time>
      </trkpt>
      <trkpt lat="44.87449" lon="5.39979">
        <ele>1194</ele>
        <time>2020-05-21T10:40:02Z</time>
      </trkpt>
      <trkpt lat="44.8743" lon="5.40033">
        <ele>1197</ele>
        <time>2020-05-21T10:40:05Z</time>
      </trkpt>
      <trkpt lat="44.87432" lon="5.40088">
        <ele>1198</ele>
        <time>2020-05-21T10:40:08Z</time>
      </trkpt>
      <trkpt lat="44.87449" lon="5.40129">
        <ele>1200</ele>
        <time>2020-05-21T10:40:11Z</time>
      </trkpt>
      <trkpt lat="44.8748" lon="5.40186">
        <ele>1202</ele>
        <time>2020-05-21T10:40:15Z</time>
      </trkpt>
      <trkpt lat="44.87473" lon="5.40253">
        <ele>1204</ele>
        <time>2020-05-21T10:40:18Z</time>
      </trkpt>
      <trkpt lat="44.87459" lon="5.40315">
        <ele>1206</ele>
        <time>2020-05-21T10:40:21Z</time>
      </trkpt>
      <trkpt lat="44.87458" lon="5.4036">
        <ele>1209</ele>
        <time>2020-05-21T10:40:24Z</time>
      </trkpt>
      <trkpt lat="44.87469" lon="5.40391">
        <ele>1211</ele>
        <time>2020-05-21T10:40:27Z</time>
      </trkpt>
      <trkpt lat="44.8749" lon="5.40459">
        <ele>1214</ele>
        <time>2020-05-21T10:40:31Z</time>
      </trkpt>
      <trkpt lat="44.87518" lon="5.40501">
        <ele>1216</ele>
        <time>2020-05-21T10:40:34Z</time>
      </trkpt>
      <trkpt lat="44.8755" lon="5.40535">
        <ele>1220</ele>
        <time>2020-05-21T10:40:37Z</time>
      </trkpt>
      <trkpt lat="44.87588" lon="5.40565">
        <ele>1225</ele>
        <time>2020-05-21T10:40:40Z</time>
      </trkpt>
      <trkpt lat="44.87629" lon="5.40582">
        <ele>1229</ele>
        <time>2020-05-21T10:40:43Z</time>
      </trkpt>
      <trkpt lat="44.87661" lon="5.40605">
        <ele>1231</ele>
        <time>2020-05-21T10:40:46Z</time>
      </trkpt>
      <trkpt lat="44.87672" lon="5.40619">
        <ele>1232</ele>
        <time>2020-05-21T10:40:49Z</time>
      </trkpt>
      <trkpt lat="44.87636" lon="5.40625">
        <ele>1235</ele>
        <time>2020-05-21T10:40:52Z</time>
      </trkpt>
      <trkpt lat="44.87609" lon="5.40607">
        <ele>1238</ele>
        <time>2020-05-21T10:40:55Z</time>
      </trkpt>
      <trkpt lat="44.87582" lon="5.406">
        <ele>1241</ele>
        <time>2020-05-21T10:40:58Z</time>
      </trkpt>
      <trkpt lat="44.87543" lon="5.40591">
        <ele>1243</ele>
        <time>2020-05-21T10:41:01Z</time>
      </trkpt>
      <trkpt lat="44.87498" lon="5.40583">
        <ele>1245</ele>
        <time>2020-05-21T10:41:04Z</time>
      </trkpt>
      <trkpt lat="44.87452" lon="5.40598">
        <ele>1247</ele>
        <time>2020-05-21T10:41:07Z</time>
      </trkpt>
      <trkpt lat="44.87392" lon="5.40601">
        <ele>1251</ele>
        <time>2020-05-21T10:41:11Z</time>
      </trkpt>
      <trkpt lat="44.87346" lon="5.4062">
        <ele>1254</ele>
        <time>2020-05-21T10:41:14Z</time>
      </trkpt>
      <trkpt lat="44.87304" lon="5.40646">
        <ele>1256</ele>
        <time>2020-05-21T10:41:17Z</time>
      </trkpt>
      <trkpt lat="44.87259" lon="5.40689">
        <ele>1258</ele>
        <time>2020-05-21T10:41:21Z</time>
      </trkpt>
      <trkpt lat="44.87226" lon="5.40719">
        <ele>1259</ele>
        <time>2020-05-21T10:41:24Z</time>
      </trkpt>
      <trkpt lat="44.87182" lon="5.40729">
        <ele>1261</ele>
        <time>2020-05-21T10:41:27Z</time>
      </trkpt>
      <trkpt lat="44.87155" lon="5.40738">
        <ele>1261</ele>
        <time>2020-05-21T10:41:30Z</time>
      </trkpt>
      <trkpt lat="44.87116" lon="5.40746">
        <ele>1260</ele>
        <time>2020-05-21T10:41:33Z</time>
      </trkpt>
      <trkpt lat="44.87054" lon="5.40738">
        <ele>1260</ele>
        <time>2020-05-21T10:41:37Z</time>
      </trkpt>
      <trkpt lat="44.87004" lon="5.40732">
        <ele>1260</ele>
        <time>2020-05-21T10:41:40Z</time>
      </trkpt>
      <trkpt lat="44.86956" lon="5.40724">
        <ele>1261</ele>
        <time>2020-05-21T10:41:43Z</time>
      </trkpt>
      <trkpt lat="44.86908" lon="5.40716">
        <ele>1261</ele>
        <time>2020-05-21T10:41:46Z</time>
      </trkpt>
      <trkpt lat="44.86863" lon="5.40699">
        <ele>1262</ele>
        <time>2020-05-21T10:41:49Z</time>
      </trkpt>
      <trkpt lat="44.86823" lon="5.40673">
        <ele>1262</ele>
        <time>2020-05-21T10:41:52Z</time>
      </trkpt>
      <trkpt lat="44.86787" lon="5.40656">
        <ele>1262</ele>
        <time>2020-05-21T10:41:55Z</time>
      </trkpt>
      <trkpt lat="44.86751" lon="5.40658">
        <ele>1262</ele>
        <time>2020-05-21T10:41:58Z</time>
      </trkpt>
      <trkpt lat="44.86729" lon="5.40662">
        <ele>1262</ele>
        <time>2020-05-21T10:42:02Z</time>
      </trkpt>
      <trkpt lat="44.86685" lon="5.40666">
        <ele>1261</ele>
        <time>2020-05-21T10:42:05Z</time>
      </trkpt>
      <trkpt lat="44.86619" lon="5.4066">
        <ele>1262</ele>
        <time>2020-05-21T10:42:08Z</time>
      </trkpt>
      <trkpt lat="44.86574" lon="5.40643">
        <ele>1262</ele>
        <time>2020-05-21T10:42:11Z</time>
      </trkpt>
      <trkpt lat="44.86526" lon="5.40613">
        <ele>1263</ele>
        <time>2020-05-21T10:42:14Z</time>
      </trkpt>
      <trkpt lat="44.86465" lon="5.40597">
        <ele>1264</ele>
        <time>2020-05-21T10:42:18Z</time>
      </trkpt>
      <trkpt lat="44.86416" lon="5.40597">
        <ele>1266</ele>
        <time>2020-05-21T10:42:21Z</time>
      </trkpt>
      <trkpt lat="44.86363" lon="5.40583">
        <ele>1266</ele>
        <time>2020-05-21T10:42:24Z</time>
      </trkpt>
      <trkpt lat="44.86311" lon="5.40571">
        <ele>1265</ele>
        <time>2020-05-21T10:42:27Z</time>
      </trkpt>
      <trkpt lat="44.86251" lon="5.40557">
        <ele>1264</ele>
        <time>2020-05-21T10:42:31Z</time>
      </trkpt>
      <trkpt lat="44.86193" lon="5.40542">
        <ele>1265</ele>
        <time>2020-05-21T10:42:34Z</time>
      </trkpt>
      <trkpt lat="44.86135" lon="5.40521">
        <ele>1265</ele>
        <time>2020-05-21T10:42:37Z</time>
      </trkpt>
      <trkpt lat="44.86083" lon="5.40506">
        <ele>1265</ele>
        <time>2020-05-21T10:42:40Z</time>
      </trkpt>
      <trkpt lat="44.86038" lon="5.40498">
        <ele>1266</ele>
        <time>2020-05-21T10:42:43Z</time>
      </trkpt>
      <trkpt lat="44.85996" lon="5.40471">
        <ele>1266</ele>
        <time>2020-05-21T10:42:46Z</time>
      </trkpt>
      <trkpt lat="44.85952" lon="5.40454">
        <ele>1267</ele>
        <time>2020-05-21T10:42:49Z</time>
      </trkpt>
      <trkpt lat="44.85903" lon="5.40455">
        <ele>1267</ele>
        <time>2020-05-21T10:42:52Z</time>
      </trkpt>
      <trkpt lat="44.85855" lon="5.40453">
        <ele>1268</ele>
        <time>2020-05-21T10:42:55Z</time>
      </trkpt>
      <trkpt lat="44.85815" lon="5.4044">
        <ele>1268</ele>
        <time>2020-05-21T10:42:58Z</time>
      </trkpt>
      <trkpt lat="44.85769" lon="5.40442">
        <ele>1268</ele>
        <time>2020-05-21T10:43:01Z</time>
      </trkpt>
      <trkpt lat="44.85743" lon="5.40445">
        <ele>1268</ele>
        <time>2020-05-21T10:43:04Z</time>
      </trkpt>
      <trkpt lat="44.85705" lon="5.40432">
        <ele>1268</ele>
        <time>2020-05-21T10:43:07Z</time>
      </trkpt>
      <trkpt lat="44.85668" lon="5.40405">
        <ele>1267</ele>
        <time>2020-05-21T10:43:11Z</time>
      </trkpt>
      <trkpt lat="44.85632" lon="5.40401">
        <ele>1267</ele>
        <time>2020-05-21T10:43:14Z</time>
      </trkpt>
      <trkpt lat="44.85586" lon="5.40419">
        <ele>1268</ele>
        <time>2020-05-21T10:43:17Z</time>
      </trkpt>
      <trkpt lat="44.85541" lon="5.40438">
        <ele>1269</ele>
        <time>2020-05-21T10:43:20Z</time>
      </trkpt>
      <trkpt lat="44.85473" lon="5.4045">
        <ele>1270</ele>
        <time>2020-05-21T10:43:23Z</time>
      </trkpt>
      <trkpt lat="44.85421" lon="5.40446">
        <ele>1270</ele>
        <time>2020-05-21T10:43:26Z</time>
      </trkpt>
      <trkpt lat="44.85372" lon="5.4043">
        <ele>1270</ele>
        <time>2020-05-21T10:43:29Z</time>
      </trkpt>
      <trkpt lat="44.85339" lon="5.40426">
        <ele>1271</ele>
        <time>2020-05-21T10:43:32Z</time>
      </trkpt>
      <trkpt lat="44.853" lon="5.40418">
        <ele>1271</ele>
        <time>2020-05-21T10:43:35Z</time>
      </trkpt>
      <trkpt lat="44.85267" lon="5.40405">
        <ele>1271</ele>
        <time>2020-05-21T10:43:38Z</time>
      </trkpt>
      <trkpt lat="44.85228" lon="5.40405">
        <ele>1272</ele>
        <time>2020-05-21T10:43:42Z</time>
      </trkpt>
      <trkpt lat="44.85194" lon="5.40426">
        <ele>1272</ele>
        <time>2020-05-21T10:43:45Z</time>
      </trkpt>
      <trkpt lat="44.85153" lon="5.40445">
        <ele>1271</ele>
        <time>2020-05-21T10:43:48Z</time>
      </trkpt>
      <trkpt lat="44.85103" lon="5.40447">
        <ele>1269</ele>
        <time>2020-05-21T10:43:51Z</time>
      </trkpt>
      <trkpt lat="44.85034" lon="5.40446">
        <ele>1267</ele>
        <time>2020-05-21T10:43:54Z</time>
      </trkpt>
      <trkpt lat="44.84982" lon="5.40445">
        <ele>1266</ele>
        <time>2020-05-21T10:43:57Z</time>
      </trkpt>
      <trkpt lat="44.84932" lon="5.40444">
        <ele>1265</ele>
        <time>2020-05-21T10:44:00Z</time>
      </trkpt>
      <trkpt lat="44.84884" lon="5.40433">
        <ele>1264</ele>
        <time>2020-05-21T10:44:03Z</time>
      </trkpt>
      <trkpt lat="44.84834" lon="5.4044">
        <ele>1262</ele>
        <time>2020-05-21T10:44:06Z</time>
      </trkpt>
      <trkpt lat="44.84802" lon="5.40442">
        <ele>1261</ele>
        <time>2020-05-21T10:44:09Z</time>
      </trkpt>
      <trkpt lat="44.84761" lon="5.40437">
        <ele>1261</ele>
        <time>2020-05-21T10:44:12Z</time>
      </trkpt>
      <trkpt lat="44.84718" lon="5.40455">
        <ele>1261</ele>
        <time>2020-05-21T10:44:16Z</time>
      </trkpt>
      <trkpt lat="44.84687" lon="5.40464">
        <ele>1262</ele>
        <time>2020-05-21T10:44:19Z</time>
      </trkpt>
      <trkpt lat="44.84668" lon="5.40468">
        <ele>1263</ele>
        <time>2020-05-21T10:44:22Z</time>
      </trkpt>
      <trkpt lat="44.84653" lon="5.40471">
        <ele>1264</ele>
        <time>2020-05-21T10:44:25Z</time>
      </trkpt>
      <trkpt lat="44.84615" lon="5.40479">
        <ele>1265</ele>
        <time>2020-05-21T10:44:28Z</time>
      </trkpt>
      <trkpt lat="44.84579" lon="5.40486">
        <ele>1265</ele>
        <time>2020-05-21T10:44:31Z</time>
      </trkpt>
      <trkpt lat="44.84529" lon="5.40494">
        <ele>1266</ele>
        <time>2020-05-21T10:44:34Z</time>
      </trkpt>
      <trkpt lat="44.8448" lon="5.40496">
        <ele>1266</ele>
        <time>2020-05-21T10:44:37Z</time>
      </trkpt>
      <trkpt lat="44.84423" lon="5.40504">
        <ele>1270</ele>
        <time>2020-05-21T10:44:41Z</time>
      </trkpt>
      <trkpt lat="44.84369" lon="5.4051">
        <ele>1271</ele>
        <time>2020-05-21T10:44:44Z</time>
      </trkpt>
      <trkpt lat="44.84315" lon="5.40511">
        <ele>1272</ele>
        <time>2020-05-21T10:44:47Z</time>
      </trkpt>
      <trkpt lat="44.84262" lon="5.40521">
        <ele>1274</ele>
        <time>2020-05-21T10:44:50Z</time>
      </trkpt>
      <trkpt lat="44.84213" lon="5.40535">
        <ele>1275</ele>
        <time>2020-05-21T10:44:53Z</time>
      </trkpt>
      <trkpt lat="44.84166" lon="5.40551">
        <ele>1276</ele>
        <time>2020-05-21T10:44:56Z</time>
      </trkpt>
      <trkpt lat="44.84123" lon="5.40571">
        <ele>1278</ele>
        <time>2020-05-21T10:44:59Z</time>
      </trkpt>
      <trkpt lat="44.84095" lon="5.40585">
        <ele>1279</ele>
        <time>2020-05-21T10:45:03Z</time>
      </trkpt>
      <trkpt lat="44.84075" lon="5.40594">
        <ele>1281</ele>
        <time>2020-05-21T10:45:06Z</time>
      </trkpt>
      <trkpt lat="44.84051" lon="5.40587">
        <ele>1283</ele>
        <time>2020-05-21T10:45:09Z</time>
      </trkpt>
      <trkpt lat="44.84036" lon="5.40536">
        <ele>1285</ele>
        <time>2020-05-21T10:45:12Z</time>
      </trkpt>
      <trkpt lat="44.84032" lon="5.40512">
        <ele>1286</ele>
        <time>2020-05-21T10:45:15Z</time>
      </trkpt>
      <trkpt lat="44.84023" lon="5.40478">
        <ele>1286</ele>
        <time>2020-05-21T10:45:18Z</time>
      </trkpt>
      <trkpt lat="44.84012" lon="5.40437">
        <ele>1286</ele>
        <time>2020-05-21T10:45:21Z</time>
      </trkpt>
      <trkpt lat="44.83997" lon="5.40382">
        <ele>1286</ele>
        <time>2020-05-21T10:45:24Z</time>
      </trkpt>
      <trkpt lat="44.83985" lon="5.40339">
        <ele>1286</ele>
        <time>2020-05-21T10:45:27Z</time>
      </trkpt>
      <trkpt lat="44.83973" lon="5.40295">
        <ele>1286</ele>
        <time>2020-05-21T10:45:30Z</time>
      </trkpt>
      <trkpt lat="44.8396" lon="5.40249">
        <ele>1286</ele>
        <time>2020-05-21T10:45:33Z</time>
      </trkpt>
      <trkpt lat="44.83948" lon="5.40202">
        <ele>1286</ele>
        <time>2020-05-21T10:45:37Z</time>
      </trkpt>
      <trkpt lat="44.8393" lon="5.40139">
        <ele>1286</ele>
        <time>2020-05-21T10:45:40Z</time>
      </trkpt>
      <trkpt lat="44.83917" lon="5.4009">
        <ele>1286</ele>
        <time>2020-05-21T10:45:43Z</time>
      </trkpt>
      <trkpt lat="44.83903" lon="5.40042">
        <ele>1286</ele>
        <time>2020-05-21T10:45:46Z</time>
      </trkpt>
      <trkpt lat="44.83889" lon="5.3999">
        <ele>1286</ele>
        <time>2020-05-21T10:45:49Z</time>
      </trkpt>
      <trkpt lat="44.83879" lon="5.39957">
        <ele>1286</ele>
        <time>2020-05-21T10:45:52Z</time>
      </trkpt>
      <trkpt lat="44.8381" lon="5.39685">
        <ele>1289</ele>
        <time>2020-05-21T10:45:55Z</time>
      </trkpt>
      <trkpt lat="44.83816" lon="5.39631">
        <ele>1289</ele>
        <time>2020-05-21T10:45:59Z</time>
      </trkpt>
      <trkpt lat="44.8383" lon="5.39588">
        <ele>1290</ele>
        <time>2020-05-21T10:46:02Z</time>
      </trkpt>
      <trkpt lat="44.83847" lon="5.39544">
        <ele>1291</ele>
        <time>2020-05-21T10:46:05Z</time>
      </trkpt>
      <trkpt lat="44.83869" lon="5.39498">
        <ele>1291</ele>
        <time>2020-05-21T10:46:08Z</time>
      </trkpt>
      <trkpt lat="44.83904" lon="5.39436">
        <ele>1289</ele>
        <time>2020-05-21T10:46:11Z</time>
      </trkpt>
      <trkpt lat="44.83918" lon="5.39389">
        <ele>1287</ele>
        <time>2020-05-21T10:46:14Z</time>
      </trkpt>
      <trkpt lat="44.8391" lon="5.39342">
        <ele>1286</ele>
        <time>2020-05-21T10:46:17Z</time>
      </trkpt>
      <trkpt lat="44.83888" lon="5.39302">
        <ele>1284</ele>
        <time>2020-05-21T10:46:20Z</time>
      </trkpt>
      <trkpt lat="44.83857" lon="5.39264">
        <ele>1284</ele>
        <time>2020-05-21T10:46:24Z</time>
      </trkpt>
      <trkpt lat="44.83822" lon="5.3923">
        <ele>1283</ele>
        <time>2020-05-21T10:46:27Z</time>
      </trkpt>
      <trkpt lat="44.83789" lon="5.39201">
        <ele>1283</ele>
        <time>2020-05-21T10:46:30Z</time>
      </trkpt>
      <trkpt lat="44.83755" lon="5.39172">
        <ele>1282</ele>
        <time>2020-05-21T10:46:33Z</time>
      </trkpt>
      <trkpt lat="44.83726" lon="5.39143">
        <ele>1282</ele>
        <time>2020-05-21T10:46:36Z</time>
      </trkpt>
      <trkpt lat="44.83704" lon="5.39116">
        <ele>1280</ele>
        <time>2020-05-21T10:46:39Z</time>
      </trkpt>
      <trkpt lat="44.83688" lon="5.39115">
        <ele>1279</ele>
        <time>2020-05-21T10:46:42Z</time>
      </trkpt>
      <trkpt lat="44.8369" lon="5.39141">
        <ele>1278</ele>
        <time>2020-05-21T10:46:45Z</time>
      </trkpt>
      <trkpt lat="44.83717" lon="5.39166">
        <ele>1276</ele>
        <time>2020-05-21T10:46:48Z</time>
      </trkpt>
      <trkpt lat="44.83747" lon="5.39194">
        <ele>1274</ele>
        <time>2020-05-21T10:46:51Z</time>
      </trkpt>
      <trkpt lat="44.83771" lon="5.39219">
        <ele>1273</ele>
        <time>2020-05-21T10:46:54Z</time>
      </trkpt>
      <trkpt lat="44.83816" lon="5.39271">
        <ele>1272</ele>
        <time>2020-05-21T10:46:58Z</time>
      </trkpt>
      <trkpt lat="44.83845" lon="5.39315">
        <ele>1271</ele>
        <time>2020-05-21T10:47:01Z</time>
      </trkpt>
      <trkpt lat="44.8386" lon="5.39364">
        <ele>1270</ele>
        <time>2020-05-21T10:47:04Z</time>
      </trkpt>
      <trkpt lat="44.83849" lon="5.39408">
        <ele>1268</ele>
        <time>2020-05-21T10:47:07Z</time>
      </trkpt>
      <trkpt lat="44.83819" lon="5.39456">
        <ele>1266</ele>
        <time>2020-05-21T10:47:10Z</time>
      </trkpt>
      <trkpt lat="44.83785" lon="5.39502">
        <ele>1265</ele>
        <time>2020-05-21T10:47:13Z</time>
      </trkpt>
      <trkpt lat="44.83755" lon="5.39545">
        <ele>1264</ele>
        <time>2020-05-21T10:47:16Z</time>
      </trkpt>
      <trkpt lat="44.83729" lon="5.39596">
        <ele>1262</ele>
        <time>2020-05-21T10:47:19Z</time>
      </trkpt>
      <trkpt lat="44.83718" lon="5.3964">
        <ele>1260</ele>
        <time>2020-05-21T10:47:23Z</time>
      </trkpt>
      <trkpt lat="44.83709" lon="5.39695">
        <ele>1259</ele>
        <time>2020-05-21T10:47:26Z</time>
      </trkpt>
      <trkpt lat="44.83691" lon="5.39728">
        <ele>1259</ele>
        <time>2020-05-21T10:47:29Z</time>
      </trkpt>
      <trkpt lat="44.83678" lon="5.39752">
        <ele>1258</ele>
        <time>2020-05-21T10:47:32Z</time>
      </trkpt>
      <trkpt lat="44.83666" lon="5.39767">
        <ele>1258</ele>
        <time>2020-05-21T10:47:35Z</time>
      </trkpt>
      <trkpt lat="44.83662" lon="5.39748">
        <ele>1258</ele>
        <time>2020-05-21T10:47:38Z</time>
      </trkpt>
      <trkpt lat="44.83681" lon="5.39716">
        <ele>1257</ele>
        <time>2020-05-21T10:47:41Z</time>
      </trkpt>
      <trkpt lat="44.83697" lon="5.39672">
        <ele>1255</ele>
        <time>2020-05-21T10:47:44Z</time>
      </trkpt>
      <trkpt lat="44.83702" lon="5.396">
        <ele>1253</ele>
        <time>2020-05-21T10:47:47Z</time>
      </trkpt>
      <trkpt lat="44.83717" lon="5.39547">
        <ele>1251</ele>
        <time>2020-05-21T10:47:50Z</time>
      </trkpt>
      <trkpt lat="44.83733" lon="5.39508">
        <ele>1249</ele>
        <time>2020-05-21T10:47:53Z</time>
      </trkpt>
      <trkpt lat="44.83759" lon="5.39455">
        <ele>1247</ele>
        <time>2020-05-21T10:47:56Z</time>
      </trkpt>
      <trkpt lat="44.8378" lon="5.39403">
        <ele>1245</ele>
        <time>2020-05-21T10:47:59Z</time>
      </trkpt>
      <trkpt lat="44.83786" lon="5.39355">
        <ele>1244</ele>
        <time>2020-05-21T10:48:02Z</time>
      </trkpt>
      <trkpt lat="44.83759" lon="5.39313">
        <ele>1243</ele>
        <time>2020-05-21T10:48:06Z</time>
      </trkpt>
      <trkpt lat="44.83704" lon="5.3926">
        <ele>1242</ele>
        <time>2020-05-21T10:48:09Z</time>
      </trkpt>
      <trkpt lat="44.83663" lon="5.39222">
        <ele>1240</ele>
        <time>2020-05-21T10:48:12Z</time>
      </trkpt>
      <trkpt lat="44.83623" lon="5.39182">
        <ele>1239</ele>
        <time>2020-05-21T10:48:15Z</time>
      </trkpt>
      <trkpt lat="44.83581" lon="5.39138">
        <ele>1237</ele>
        <time>2020-05-21T10:48:18Z</time>
      </trkpt>
      <trkpt lat="44.83539" lon="5.39092">
        <ele>1235</ele>
        <time>2020-05-21T10:48:21Z</time>
      </trkpt>
      <trkpt lat="44.8351" lon="5.39064">
        <ele>1233</ele>
        <time>2020-05-21T10:48:24Z</time>
      </trkpt>
      <trkpt lat="44.83471" lon="5.39024">
        <ele>1230</ele>
        <time>2020-05-21T10:48:27Z</time>
      </trkpt>
      <trkpt lat="44.83434" lon="5.38995">
        <ele>1227</ele>
        <time>2020-05-21T10:48:30Z</time>
      </trkpt>
      <trkpt lat="44.83397" lon="5.38997">
        <ele>1224</ele>
        <time>2020-05-21T10:48:34Z</time>
      </trkpt>
      <trkpt lat="44.83377" lon="5.39017">
        <ele>1221</ele>
        <time>2020-05-21T10:48:37Z</time>
      </trkpt>
      <trkpt lat="44.83352" lon="5.39039">
        <ele>1219</ele>
        <time>2020-05-21T10:48:40Z</time>
      </trkpt>
      <trkpt lat="44.83311" lon="5.39023">
        <ele>1216</ele>
        <time>2020-05-21T10:48:43Z</time>
      </trkpt>
      <trkpt lat="44.83283" lon="5.39012">
        <ele>1214</ele>
        <time>2020-05-21T10:48:46Z</time>
      </trkpt>
      <trkpt lat="44.83236" lon="5.39034">
        <ele>1212</ele>
        <time>2020-05-21T10:48:49Z</time>
      </trkpt>
      <trkpt lat="44.83192" lon="5.39054">
        <ele>1209</ele>
        <time>2020-05-21T10:48:52Z</time>
      </trkpt>
      <trkpt lat="44.83161" lon="5.39063">
        <ele>1205</ele>
        <time>2020-05-21T10:48:55Z</time>
      </trkpt>
      <trkpt lat="44.83118" lon="5.39063">
        <ele>1201</ele>
        <time>2020-05-21T10:48:58Z</time>
      </trkpt>
      <trkpt lat="44.83072" lon="5.39058">
        <ele>1198</ele>
        <time>2020-05-21T10:49:01Z</time>
      </trkpt>
      <trkpt lat="44.83026" lon="5.39049">
        <ele>1194</ele>
        <time>2020-05-21T10:49:04Z</time>
      </trkpt>
      <trkpt lat="44.82974" lon="5.39034">
        <ele>1191</ele>
        <time>2020-05-21T10:49:07Z</time>
      </trkpt>
      <trkpt lat="44.82902" lon="5.39017">
        <ele>1188</ele>
        <time>2020-05-21T10:49:11Z</time>
      </trkpt>
      <trkpt lat="44.82848" lon="5.39016">
        <ele>1187</ele>
        <time>2020-05-21T10:49:14Z</time>
      </trkpt>
      <trkpt lat="44.828" lon="5.39011">
        <ele>1186</ele>
        <time>2020-05-21T10:49:17Z</time>
      </trkpt>
      <trkpt lat="44.82753" lon="5.38999">
        <ele>1184</ele>
        <time>2020-05-21T10:49:20Z</time>
      </trkpt>
      <trkpt lat="44.82707" lon="5.38974">
        <ele>1182</ele>
        <time>2020-05-21T10:49:24Z</time>
      </trkpt>
      <trkpt lat="44.82676" lon="5.38939">
        <ele>1180</ele>
        <time>2020-05-21T10:49:27Z</time>
      </trkpt>
      <trkpt lat="44.82647" lon="5.38887">
        <ele>1178</ele>
        <time>2020-05-21T10:49:30Z</time>
      </trkpt>
      <trkpt lat="44.8262" lon="5.38835">
        <ele>1177</ele>
        <time>2020-05-21T10:49:33Z</time>
      </trkpt>
      <trkpt lat="44.82603" lon="5.38793">
        <ele>1175</ele>
        <time>2020-05-21T10:49:36Z</time>
      </trkpt>
      <trkpt lat="44.82598" lon="5.38741">
        <ele>1173</ele>
        <time>2020-05-21T10:49:39Z</time>
      </trkpt>
      <trkpt lat="44.82594" lon="5.38678">
        <ele>1170</ele>
        <time>2020-05-21T10:49:42Z</time>
      </trkpt>
      <trkpt lat="44.82582" lon="5.38619">
        <ele>1168</ele>
        <time>2020-05-21T10:49:45Z</time>
      </trkpt>
      <trkpt lat="44.82571" lon="5.38564">
        <ele>1166</ele>
        <time>2020-05-21T10:49:48Z</time>
      </trkpt>
      <trkpt lat="44.82558" lon="5.3852">
        <ele>1164</ele>
        <time>2020-05-21T10:49:51Z</time>
      </trkpt>
      <trkpt lat="44.82536" lon="5.38481">
        <ele>1162</ele>
        <time>2020-05-21T10:49:54Z</time>
      </trkpt>
      <trkpt lat="44.82508" lon="5.38458">
        <ele>1159</ele>
        <time>2020-05-21T10:49:57Z</time>
      </trkpt>
      <trkpt lat="44.82484" lon="5.38438">
        <ele>1156</ele>
        <time>2020-05-21T10:50:01Z</time>
      </trkpt>
      <trkpt lat="44.8247" lon="5.38426">
        <ele>1154</ele>
        <time>2020-05-21T10:50:04Z</time>
      </trkpt>
      <trkpt lat="44.82457" lon="5.38437">
        <ele>1152</ele>
        <time>2020-05-21T10:50:07Z</time>
      </trkpt>
      <trkpt lat="44.82468" lon="5.38455">
        <ele>1150</ele>
        <time>2020-05-21T10:50:10Z</time>
      </trkpt>
      <trkpt lat="44.82501" lon="5.3848">
        <ele>1148</ele>
        <time>2020-05-21T10:50:13Z</time>
      </trkpt>
      <trkpt lat="44.82533" lon="5.38512">
        <ele>1146</ele>
        <time>2020-05-21T10:50:16Z</time>
      </trkpt>
      <trkpt lat="44.82551" lon="5.38573">
        <ele>1144</ele>
        <time>2020-05-21T10:50:19Z</time>
      </trkpt>
      <trkpt lat="44.82562" lon="5.38648">
        <ele>1142</ele>
        <time>2020-05-21T10:50:22Z</time>
      </trkpt>
      <trkpt lat="44.82566" lon="5.38713">
        <ele>1139</ele>
        <time>2020-05-21T10:50:25Z</time>
      </trkpt>
      <trkpt lat="44.82559" lon="5.38766">
        <ele>1137</ele>
        <time>2020-05-21T10:50:28Z</time>
      </trkpt>
      <trkpt lat="44.82554" lon="5.38819">
        <ele>1134</ele>
        <time>2020-05-21T10:50:31Z</time>
      </trkpt>
      <trkpt lat="44.82563" lon="5.38852">
        <ele>1131</ele>
        <time>2020-05-21T10:50:34Z</time>
      </trkpt>
      <trkpt lat="44.82588" lon="5.38905">
        <ele>1128</ele>
        <time>2020-05-21T10:50:38Z</time>
      </trkpt>
      <trkpt lat="44.82619" lon="5.38981">
        <ele>1125</ele>
        <time>2020-05-21T10:50:41Z</time>
      </trkpt>
      <trkpt lat="44.82644" lon="5.39031">
        <ele>1123</ele>
        <time>2020-05-21T10:50:44Z</time>
      </trkpt>
      <trkpt lat="44.8268" lon="5.39065">
        <ele>1121</ele>
        <time>2020-05-21T10:50:47Z</time>
      </trkpt>
      <trkpt lat="44.82722" lon="5.39089">
        <ele>1119</ele>
        <time>2020-05-21T10:50:50Z</time>
      </trkpt>
      <trkpt lat="44.82763" lon="5.39113">
        <ele>1118</ele>
        <time>2020-05-21T10:50:53Z</time>
      </trkpt>
      <trkpt lat="44.82802" lon="5.39139">
        <ele>1117</ele>
        <time>2020-05-21T10:50:56Z</time>
      </trkpt>
      <trkpt lat="44.82838" lon="5.3916">
        <ele>1115</ele>
        <time>2020-05-21T10:50:59Z</time>
      </trkpt>
      <trkpt lat="44.82877" lon="5.39167">
        <ele>1112</ele>
        <time>2020-05-21T10:51:02Z</time>
      </trkpt>
      <trkpt lat="44.82905" lon="5.39174">
        <ele>1109</ele>
        <time>2020-05-21T10:51:06Z</time>
      </trkpt>
      <trkpt lat="44.82962" lon="5.39206">
        <ele>1106</ele>
        <time>2020-05-21T10:51:09Z</time>
      </trkpt>
      <trkpt lat="44.83004" lon="5.39233">
        <ele>1103</ele>
        <time>2020-05-21T10:51:12Z</time>
      </trkpt>
      <trkpt lat="44.8306" lon="5.39257">
        <ele>1100</ele>
        <time>2020-05-21T10:51:16Z</time>
      </trkpt>
      <trkpt lat="44.83103" lon="5.39274">
        <ele>1098</ele>
        <time>2020-05-21T10:51:19Z</time>
      </trkpt>
      <trkpt lat="44.83146" lon="5.3929">
        <ele>1097</ele>
        <time>2020-05-21T10:51:22Z</time>
      </trkpt>
      <trkpt lat="44.8319" lon="5.393">
        <ele>1096</ele>
        <time>2020-05-21T10:51:25Z</time>
      </trkpt>
      <trkpt lat="44.83226" lon="5.39304">
        <ele>1096</ele>
        <time>2020-05-21T10:51:29Z</time>
      </trkpt>
      <trkpt lat="44.83256" lon="5.39292">
        <ele>1093</ele>
        <time>2020-05-21T10:51:32Z</time>
      </trkpt>
      <trkpt lat="44.83311" lon="5.39297">
        <ele>1089</ele>
        <time>2020-05-21T10:51:35Z</time>
      </trkpt>
      <trkpt lat="44.83335" lon="5.39305">
        <ele>1086</ele>
        <time>2020-05-21T10:51:38Z</time>
      </trkpt>
      <trkpt lat="44.8337" lon="5.3931">
        <ele>1083</ele>
        <time>2020-05-21T10:51:41Z</time>
      </trkpt>
      <trkpt lat="44.83396" lon="5.3935">
        <ele>1080</ele>
        <time>2020-05-21T10:51:44Z</time>
      </trkpt>
      <trkpt lat="44.83393" lon="5.3942">
        <ele>1076</ele>
        <time>2020-05-21T10:51:47Z</time>
      </trkpt>
      <trkpt lat="44.83372" lon="5.39481">
        <ele>1072</ele>
        <time>2020-05-21T10:51:50Z</time>
      </trkpt>
      <trkpt lat="44.83338" lon="5.39536">
        <ele>1070</ele>
        <time>2020-05-21T10:51:53Z</time>
      </trkpt>
      <trkpt lat="44.83302" lon="5.39583">
        <ele>1069</ele>
        <time>2020-05-21T10:51:57Z</time>
      </trkpt>
      <trkpt lat="44.83267" lon="5.39634">
        <ele>1067</ele>
        <time>2020-05-21T10:52:00Z</time>
      </trkpt>
      <trkpt lat="44.83229" lon="5.39669">
        <ele>1065</ele>
        <time>2020-05-21T10:52:03Z</time>
      </trkpt>
      <trkpt lat="44.83193" lon="5.39702">
        <ele>1063</ele>
        <time>2020-05-21T10:52:06Z</time>
      </trkpt>
      <trkpt lat="44.83154" lon="5.39714">
        <ele>1062</ele>
        <time>2020-05-21T10:52:09Z</time>
      </trkpt>
      <trkpt lat="44.8311" lon="5.39732">
        <ele>1059</ele>
        <time>2020-05-21T10:52:12Z</time>
      </trkpt>
      <trkpt lat="44.83064" lon="5.39767">
        <ele>1057</ele>
        <time>2020-05-21T10:52:15Z</time>
      </trkpt>
      <trkpt lat="44.83017" lon="5.39796">
        <ele>1053</ele>
        <time>2020-05-21T10:52:18Z</time>
      </trkpt>
      <trkpt lat="44.82972" lon="5.39815">
        <ele>1049</ele>
        <time>2020-05-21T10:52:21Z</time>
      </trkpt>
      <trkpt lat="44.82943" lon="5.39832">
        <ele>1045</ele>
        <time>2020-05-21T10:52:24Z</time>
      </trkpt>
      <trkpt lat="44.82922" lon="5.39838">
        <ele>1042</ele>
        <time>2020-05-21T10:52:27Z</time>
      </trkpt>
      <trkpt lat="44.82919" lon="5.3982">
        <ele>1041</ele>
        <time>2020-05-21T10:52:30Z</time>
      </trkpt>
      <trkpt lat="44.82944" lon="5.39808">
        <ele>1040</ele>
        <time>2020-05-21T10:52:33Z</time>
      </trkpt>
      <trkpt lat="44.82978" lon="5.39792">
        <ele>1039</ele>
        <time>2020-05-21T10:52:36Z</time>
      </trkpt>
      <trkpt lat="44.83018" lon="5.39765">
        <ele>1038</ele>
        <time>2020-05-21T10:52:39Z</time>
      </trkpt>
      <trkpt lat="44.83047" lon="5.39741">
        <ele>1036</ele>
        <time>2020-05-21T10:52:42Z</time>
      </trkpt>
      <trkpt lat="44.8309" lon="5.39699">
        <ele>1034</ele>
        <time>2020-05-21T10:52:45Z</time>
      </trkpt>
      <trkpt lat="44.83145" lon="5.39652">
        <ele>1032</ele>
        <time>2020-05-21T10:52:49Z</time>
      </trkpt>
      <trkpt lat="44.83186" lon="5.39614">
        <ele>1030</ele>
        <time>2020-05-21T10:52:53Z</time>
      </trkpt>
      <trkpt lat="44.83218" lon="5.39571">
        <ele>1029</ele>
        <time>2020-05-21T10:52:56Z</time>
      </trkpt>
      <trkpt lat="44.83237" lon="5.39523">
        <ele>1027</ele>
        <time>2020-05-21T10:52:59Z</time>
      </trkpt>
      <trkpt lat="44.83218" lon="5.39475">
        <ele>1026</ele>
        <time>2020-05-21T10:53:02Z</time>
      </trkpt>
      <trkpt lat="44.83171" lon="5.39457">
        <ele>1025</ele>
        <time>2020-05-21T10:53:05Z</time>
      </trkpt>
      <trkpt lat="44.83124" lon="5.39445">
        <ele>1023</ele>
        <time>2020-05-21T10:53:08Z</time>
      </trkpt>
      <trkpt lat="44.8307" lon="5.39424">
        <ele>1021</ele>
        <time>2020-05-21T10:53:12Z</time>
      </trkpt>
      <trkpt lat="44.82996" lon="5.39398">
        <ele>1018</ele>
        <time>2020-05-21T10:53:15Z</time>
      </trkpt>
      <trkpt lat="44.82943" lon="5.39389">
        <ele>1015</ele>
        <time>2020-05-21T10:53:18Z</time>
      </trkpt>
      <trkpt lat="44.82894" lon="5.39381">
        <ele>1012</ele>
        <time>2020-05-21T10:53:22Z</time>
      </trkpt>
      <trkpt lat="44.82851" lon="5.39371">
        <ele>1011</ele>
        <time>2020-05-21T10:53:25Z</time>
      </trkpt>
      <trkpt lat="44.82811" lon="5.39368">
        <ele>1008</ele>
        <time>2020-05-21T10:53:28Z</time>
      </trkpt>
      <trkpt lat="44.82753" lon="5.39341">
        <ele>1005</ele>
        <time>2020-05-21T10:53:31Z</time>
      </trkpt>
      <trkpt lat="44.82716" lon="5.39314">
        <ele>1001</ele>
        <time>2020-05-21T10:53:35Z</time>
      </trkpt>
      <trkpt lat="44.82677" lon="5.39318">
        <ele>999</ele>
        <time>2020-05-21T10:53:38Z</time>
      </trkpt>
      <trkpt lat="44.82637" lon="5.39334">
        <ele>996</ele>
        <time>2020-05-21T10:53:41Z</time>
      </trkpt>
      <trkpt lat="44.82609" lon="5.39321">
        <ele>994</ele>
        <time>2020-05-21T10:53:44Z</time>
      </trkpt>
      <trkpt lat="44.82569" lon="5.3929">
        <ele>991</ele>
        <time>2020-05-21T10:53:48Z</time>
      </trkpt>
      <trkpt lat="44.82532" lon="5.39254">
        <ele>989</ele>
        <time>2020-05-21T10:53:51Z</time>
      </trkpt>
      <trkpt lat="44.82489" lon="5.39216">
        <ele>986</ele>
        <time>2020-05-21T10:53:54Z</time>
      </trkpt>
      <trkpt lat="44.82452" lon="5.39192">
        <ele>984</ele>
        <time>2020-05-21T10:53:58Z</time>
      </trkpt>
      <trkpt lat="44.82412" lon="5.39143">
        <ele>983</ele>
        <time>2020-05-21T10:54:01Z</time>
      </trkpt>
      <trkpt lat="44.8236" lon="5.39079">
        <ele>981</ele>
        <time>2020-05-21T10:54:04Z</time>
      </trkpt>
      <trkpt lat="44.82332" lon="5.39026">
        <ele>979</ele>
        <time>2020-05-21T10:54:07Z</time>
      </trkpt>
      <trkpt lat="44.82328" lon="5.38967">
        <ele>976</ele>
        <time>2020-05-21T10:54:10Z</time>
      </trkpt>
      <trkpt lat="44.82338" lon="5.38904">
        <ele>973</ele>
        <time>2020-05-21T10:54:13Z</time>
      </trkpt>
      <trkpt lat="44.82334" lon="5.38866">
        <ele>970</ele>
        <time>2020-05-21T10:54:17Z</time>
      </trkpt>
      <trkpt lat="44.82328" lon="5.38819">
        <ele>968</ele>
        <time>2020-05-21T10:54:20Z</time>
      </trkpt>
      <trkpt lat="44.8232" lon="5.38793">
        <ele>967</ele>
        <time>2020-05-21T10:54:23Z</time>
      </trkpt>
      <trkpt lat="44.82307" lon="5.38802">
        <ele>965</ele>
        <time>2020-05-21T10:54:26Z</time>
      </trkpt>
      <trkpt lat="44.82315" lon="5.38841">
        <ele>963</ele>
        <time>2020-05-21T10:54:29Z</time>
      </trkpt>
      <trkpt lat="44.82323" lon="5.38882">
        <ele>962</ele>
        <time>2020-05-21T10:54:32Z</time>
      </trkpt>
      <trkpt lat="44.82307" lon="5.3896">
        <ele>960</ele>
        <time>2020-05-21T10:54:35Z</time>
      </trkpt>
      <trkpt lat="44.82293" lon="5.39009">
        <ele>958</ele>
        <time>2020-05-21T10:54:38Z</time>
      </trkpt>
      <trkpt lat="44.82301" lon="5.39064">
        <ele>955</ele>
        <time>2020-05-21T10:54:41Z</time>
      </trkpt>
      <trkpt lat="44.82319" lon="5.39101">
        <ele>952</ele>
        <time>2020-05-21T10:54:45Z</time>
      </trkpt>
      <trkpt lat="44.82356" lon="5.39176">
        <ele>949</ele>
        <time>2020-05-21T10:54:48Z</time>
      </trkpt>
      <trkpt lat="44.82385" lon="5.39231">
        <ele>946</ele>
        <time>2020-05-21T10:54:51Z</time>
      </trkpt>
      <trkpt lat="44.82431" lon="5.39287">
        <ele>943</ele>
        <time>2020-05-21T10:54:55Z</time>
      </trkpt>
      <trkpt lat="44.8247" lon="5.39323">
        <ele>941</ele>
        <time>2020-05-21T10:54:58Z</time>
      </trkpt>
      <trkpt lat="44.82506" lon="5.39365">
        <ele>939</ele>
        <time>2020-05-21T10:55:01Z</time>
      </trkpt>
      <trkpt lat="44.82543" lon="5.39401">
        <ele>938</ele>
        <time>2020-05-21T10:55:05Z</time>
      </trkpt>
      <trkpt lat="44.82592" lon="5.39436">
        <ele>937</ele>
        <time>2020-05-21T10:55:08Z</time>
      </trkpt>
      <trkpt lat="44.82615" lon="5.39445">
        <ele>935</ele>
        <time>2020-05-21T10:55:11Z</time>
      </trkpt>
      <trkpt lat="44.82655" lon="5.39456">
        <ele>933</ele>
        <time>2020-05-21T10:55:15Z</time>
      </trkpt>
      <trkpt lat="44.82696" lon="5.39466">
        <ele>931</ele>
        <time>2020-05-21T10:55:18Z</time>
      </trkpt>
      <trkpt lat="44.82744" lon="5.39482">
        <ele>930</ele>
        <time>2020-05-21T10:55:21Z</time>
      </trkpt>
      <trkpt lat="44.82779" lon="5.39495">
        <ele>928</ele>
        <time>2020-05-21T10:55:24Z</time>
      </trkpt>
      <trkpt lat="44.82809" lon="5.39512">
        <ele>927</ele>
        <time>2020-05-21T10:55:27Z</time>
      </trkpt>
      <trkpt lat="44.82817" lon="5.39562">
        <ele>925</ele>
        <time>2020-05-21T10:55:30Z</time>
      </trkpt>
      <trkpt lat="44.82773" lon="5.39604">
        <ele>923</ele>
        <time>2020-05-21T10:55:33Z</time>
      </trkpt>
      <trkpt lat="44.82732" lon="5.39639">
        <ele>921</ele>
        <time>2020-05-21T10:55:37Z</time>
      </trkpt>
      <trkpt lat="44.8269" lon="5.3967">
        <ele>919</ele>
        <time>2020-05-21T10:55:40Z</time>
      </trkpt>
      <trkpt lat="44.82652" lon="5.39703">
        <ele>917</ele>
        <time>2020-05-21T10:55:43Z</time>
      </trkpt>
      <trkpt lat="44.8262" lon="5.39739">
        <ele>916</ele>
        <time>2020-05-21T10:55:46Z</time>
      </trkpt>
      <trkpt lat="44.82591" lon="5.3977">
        <ele>912</ele>
        <time>2020-05-21T10:55:49Z</time>
      </trkpt>
      <trkpt lat="44.82565" lon="5.39786">
        <ele>909</ele>
        <time>2020-05-21T10:55:52Z</time>
      </trkpt>
      <trkpt lat="44.82557" lon="5.39772">
        <ele>907</ele>
        <time>2020-05-21T10:55:55Z</time>
      </trkpt>
      <trkpt lat="44.82566" lon="5.39761">
        <ele>905</ele>
        <time>2020-05-21T10:55:58Z</time>
      </trkpt>
      <trkpt lat="44.82594" lon="5.39743">
        <ele>902</ele>
        <time>2020-05-21T10:56:02Z</time>
      </trkpt>
      <trkpt lat="44.82635" lon="5.39688">
        <ele>900</ele>
        <time>2020-05-21T10:56:05Z</time>
      </trkpt>
      <trkpt lat="44.82667" lon="5.39643">
        <ele>897</ele>
        <time>2020-05-21T10:56:09Z</time>
      </trkpt>
      <trkpt lat="44.82699" lon="5.39614">
        <ele>896</ele>
        <time>2020-05-21T10:56:12Z</time>
      </trkpt>
      <trkpt lat="44.82724" lon="5.39583">
        <ele>894</ele>
        <time>2020-05-21T10:56:15Z</time>
      </trkpt>
      <trkpt lat="44.82715" lon="5.39537">
        <ele>893</ele>
        <time>2020-05-21T10:56:18Z</time>
      </trkpt>
      <trkpt lat="44.82665" lon="5.39513">
        <ele>892</ele>
        <time>2020-05-21T10:56:21Z</time>
      </trkpt>
      <trkpt lat="44.82613" lon="5.39505">
        <ele>890</ele>
        <time>2020-05-21T10:56:24Z</time>
      </trkpt>
      <trkpt lat="44.82569" lon="5.395">
        <ele>887</ele>
        <time>2020-05-21T10:56:27Z</time>
      </trkpt>
      <trkpt lat="44.82527" lon="5.39499">
        <ele>884</ele>
        <time>2020-05-21T10:56:31Z</time>
      </trkpt>
      <trkpt lat="44.82486" lon="5.39495">
        <ele>882</ele>
        <time>2020-05-21T10:56:34Z</time>
      </trkpt>
      <trkpt lat="44.82426" lon="5.39461">
        <ele>878</ele>
        <time>2020-05-21T10:56:37Z</time>
      </trkpt>
      <trkpt lat="44.82378" lon="5.39445">
        <ele>876</ele>
        <time>2020-05-21T10:56:41Z</time>
      </trkpt>
      <trkpt lat="44.82348" lon="5.39437">
        <ele>874</ele>
        <time>2020-05-21T10:56:44Z</time>
      </trkpt>
      <trkpt lat="44.82286" lon="5.39404">
        <ele>871</ele>
        <time>2020-05-21T10:56:47Z</time>
      </trkpt>
      <trkpt lat="44.82243" lon="5.39362">
        <ele>868</ele>
        <time>2020-05-21T10:56:50Z</time>
      </trkpt>
      <trkpt lat="44.82199" lon="5.39303">
        <ele>864</ele>
        <time>2020-05-21T10:56:54Z</time>
      </trkpt>
      <trkpt lat="44.82175" lon="5.39243">
        <ele>862</ele>
        <time>2020-05-21T10:56:57Z</time>
      </trkpt>
      <trkpt lat="44.82159" lon="5.39196">
        <ele>860</ele>
        <time>2020-05-21T10:57:01Z</time>
      </trkpt>
      <trkpt lat="44.82145" lon="5.39187">
        <ele>858</ele>
        <time>2020-05-21T10:57:04Z</time>
      </trkpt>
      <trkpt lat="44.82147" lon="5.39202">
        <ele>856</ele>
        <time>2020-05-21T10:57:07Z</time>
      </trkpt>
      <trkpt lat="44.82159" lon="5.39235">
        <ele>854</ele>
        <time>2020-05-21T10:57:10Z</time>
      </trkpt>
      <trkpt lat="44.82168" lon="5.39263">
        <ele>850</ele>
        <time>2020-05-21T10:57:13Z</time>
      </trkpt>
      <trkpt lat="44.82183" lon="5.39339">
        <ele>847</ele>
        <time>2020-05-21T10:57:16Z</time>
      </trkpt>
      <trkpt lat="44.82201" lon="5.39388">
        <ele>845</ele>
        <time>2020-05-21T10:57:19Z</time>
      </trkpt>
      <trkpt lat="44.82237" lon="5.39432">
        <ele>843</ele>
        <time>2020-05-21T10:57:22Z</time>
      </trkpt>
      <trkpt lat="44.82278" lon="5.39466">
        <ele>842</ele>
        <time>2020-05-21T10:57:25Z</time>
      </trkpt>
      <trkpt lat="44.82316" lon="5.39491">
        <ele>841</ele>
        <time>2020-05-21T10:57:28Z</time>
      </trkpt>
      <trkpt lat="44.82353" lon="5.39506">
        <ele>839</ele>
        <time>2020-05-21T10:57:31Z</time>
      </trkpt>
      <trkpt lat="44.82384" lon="5.39516">
        <ele>837</ele>
        <time>2020-05-21T10:57:34Z</time>
      </trkpt>
      <trkpt lat="44.824" lon="5.39521">
        <ele>835</ele>
        <time>2020-05-21T10:57:37Z</time>
      </trkpt>
      <trkpt lat="44.82398" lon="5.39538">
        <ele>833</ele>
        <time>2020-05-21T10:57:40Z</time>
      </trkpt>
      <trkpt lat="44.82351" lon="5.39527">
        <ele>829</ele>
        <time>2020-05-21T10:57:44Z</time>
      </trkpt>
      <trkpt lat="44.82324" lon="5.3952">
        <ele>826</ele>
        <time>2020-05-21T10:57:47Z</time>
      </trkpt>
      <trkpt lat="44.82267" lon="5.39503">
        <ele>822</ele>
        <time>2020-05-21T10:57:50Z</time>
      </trkpt>
      <trkpt lat="44.82221" lon="5.39496">
        <ele>820</ele>
        <time>2020-05-21T10:57:53Z</time>
      </trkpt>
      <trkpt lat="44.82177" lon="5.39513">
        <ele>817</ele>
        <time>2020-05-21T10:57:56Z</time>
      </trkpt>
      <trkpt lat="44.82137" lon="5.39537">
        <ele>815</ele>
        <time>2020-05-21T10:57:59Z</time>
      </trkpt>
      <trkpt lat="44.82097" lon="5.3956">
        <ele>812</ele>
        <time>2020-05-21T10:58:03Z</time>
      </trkpt>
      <trkpt lat="44.82054" lon="5.39556">
        <ele>810</ele>
        <time>2020-05-21T10:58:06Z</time>
      </trkpt>
      <trkpt lat="44.82026" lon="5.39533">
        <ele>808</ele>
        <time>2020-05-21T10:58:09Z</time>
      </trkpt>
      <trkpt lat="44.82019" lon="5.39494">
        <ele>807</ele>
        <time>2020-05-21T10:58:12Z</time>
      </trkpt>
      <trkpt lat="44.82045" lon="5.39452">
        <ele>805</ele>
        <time>2020-05-21T10:58:15Z</time>
      </trkpt>
      <trkpt lat="44.82066" lon="5.39427">
        <ele>802</ele>
        <time>2020-05-21T10:58:18Z</time>
      </trkpt>
      <trkpt lat="44.82084" lon="5.39367">
        <ele>798</ele>
        <time>2020-05-21T10:58:21Z</time>
      </trkpt>
      <trkpt lat="44.82068" lon="5.3931">
        <ele>795</ele>
        <time>2020-05-21T10:58:24Z</time>
      </trkpt>
      <trkpt lat="44.82043" lon="5.39276">
        <ele>792</ele>
        <time>2020-05-21T10:58:27Z</time>
      </trkpt>
      <trkpt lat="44.82009" lon="5.39246">
        <ele>789</ele>
        <time>2020-05-21T10:58:30Z</time>
      </trkpt>
      <trkpt lat="44.81984" lon="5.39207">
        <ele>789</ele>
        <time>2020-05-21T10:58:33Z</time>
      </trkpt>
      <trkpt lat="44.81959" lon="5.39195">
        <ele>787</ele>
        <time>2020-05-21T10:58:36Z</time>
      </trkpt>
      <trkpt lat="44.8193" lon="5.39223">
        <ele>785</ele>
        <time>2020-05-21T10:58:40Z</time>
      </trkpt>
      <trkpt lat="44.81893" lon="5.39259">
        <ele>781</ele>
        <time>2020-05-21T10:58:43Z</time>
      </trkpt>
      <trkpt lat="44.81861" lon="5.39273">
        <ele>778</ele>
        <time>2020-05-21T10:58:47Z</time>
      </trkpt>
      <trkpt lat="44.81837" lon="5.39274">
        <ele>776</ele>
        <time>2020-05-21T10:58:50Z</time>
      </trkpt>
      <trkpt lat="44.81787" lon="5.39268">
        <ele>775</ele>
        <time>2020-05-21T10:58:53Z</time>
      </trkpt>
      <trkpt lat="44.81718" lon="5.39257">
        <ele>772</ele>
        <time>2020-05-21T10:58:56Z</time>
      </trkpt>
      <trkpt lat="44.81663" lon="5.39243">
        <ele>770</ele>
        <time>2020-05-21T10:58:59Z</time>
      </trkpt>
      <trkpt lat="44.81607" lon="5.39235">
        <ele>769</ele>
        <time>2020-05-21T10:59:02Z</time>
      </trkpt>
      <trkpt lat="44.81549" lon="5.3924">
        <ele>767</ele>
        <time>2020-05-21T10:59:05Z</time>
      </trkpt>
      <trkpt lat="44.81491" lon="5.39255">
        <ele>765</ele>
        <time>2020-05-21T10:59:08Z</time>
      </trkpt>
      <trkpt lat="44.81436" lon="5.39267">
        <ele>762</ele>
        <time>2020-05-21T10:59:11Z</time>
      </trkpt>
      <trkpt lat="44.81391" lon="5.39275">
        <ele>760</ele>
        <time>2020-05-21T10:59:14Z</time>
      </trkpt>
      <trkpt lat="44.81372" lon="5.39261">
        <ele>759</ele>
        <time>2020-05-21T10:59:17Z</time>
      </trkpt>
      <trkpt lat="44.81359" lon="5.39243">
        <ele>757</ele>
        <time>2020-05-21T10:59:20Z</time>
      </trkpt>
      <trkpt lat="44.81329" lon="5.39229">
        <ele>754</ele>
        <time>2020-05-21T10:59:23Z</time>
      </trkpt>
      <trkpt lat="44.81294" lon="5.39262">
        <ele>749</ele>
        <time>2020-05-21T10:59:26Z</time>
      </trkpt>
      <trkpt lat="44.81261" lon="5.39302">
        <ele>743</ele>
        <time>2020-05-21T10:59:29Z</time>
      </trkpt>
      <trkpt lat="44.81235" lon="5.39355">
        <ele>737</ele>
        <time>2020-05-21T10:59:32Z</time>
      </trkpt>
      <trkpt lat="44.81217" lon="5.39409">
        <ele>733</ele>
        <time>2020-05-21T10:59:36Z</time>
      </trkpt>
      <trkpt lat="44.81189" lon="5.39434">
        <ele>729</ele>
        <time>2020-05-21T10:59:39Z</time>
      </trkpt>
      <trkpt lat="44.8115" lon="5.3943">
        <ele>727</ele>
        <time>2020-05-21T10:59:42Z</time>
      </trkpt>
      <trkpt lat="44.81101" lon="5.3941">
        <ele>725</ele>
        <time>2020-05-21T10:59:45Z</time>
      </trkpt>
      <trkpt lat="44.81049" lon="5.39387">
        <ele>723</ele>
        <time>2020-05-21T10:59:48Z</time>
      </trkpt>
      <trkpt lat="44.80989" lon="5.39378">
        <ele>721</ele>
        <time>2020-05-21T10:59:51Z</time>
      </trkpt>
      <trkpt lat="44.80928" lon="5.39373">
        <ele>719</ele>
        <time>2020-05-21T10:59:54Z</time>
      </trkpt>
      <trkpt lat="44.80872" lon="5.3936">
        <ele>717</ele>
        <time>2020-05-21T10:59:57Z</time>
      </trkpt>
      <trkpt lat="44.80822" lon="5.39353">
        <ele>715</ele>
        <time>2020-05-21T11:00:01Z</time>
      </trkpt>
      <trkpt lat="44.80768" lon="5.39322">
        <ele>712</ele>
        <time>2020-05-21T11:00:04Z</time>
      </trkpt>
      <trkpt lat="44.80725" lon="5.39313">
        <ele>711</ele>
        <time>2020-05-21T11:00:07Z</time>
      </trkpt>
      <trkpt lat="44.80693" lon="5.39299">
        <ele>708</ele>
        <time>2020-05-21T11:00:10Z</time>
      </trkpt>
      <trkpt lat="44.80668" lon="5.39258">
        <ele>706</ele>
        <time>2020-05-21T11:00:13Z</time>
      </trkpt>
      <trkpt lat="44.80652" lon="5.39207">
        <ele>704</ele>
        <time>2020-05-21T11:00:16Z</time>
      </trkpt>
      <trkpt lat="44.80644" lon="5.39167">
        <ele>701</ele>
        <time>2020-05-21T11:00:19Z</time>
      </trkpt>
      <trkpt lat="44.80646" lon="5.39112">
        <ele>697</ele>
        <time>2020-05-21T11:00:22Z</time>
      </trkpt>
      <trkpt lat="44.80657" lon="5.39069">
        <ele>693</ele>
        <time>2020-05-21T11:00:25Z</time>
      </trkpt>
      <trkpt lat="44.80643" lon="5.39043">
        <ele>688</ele>
        <time>2020-05-21T11:00:28Z</time>
      </trkpt>
      <trkpt lat="44.80616" lon="5.3905">
        <ele>683</ele>
        <time>2020-05-21T11:00:31Z</time>
      </trkpt>
      <trkpt lat="44.8058" lon="5.39071">
        <ele>679</ele>
        <time>2020-05-21T11:00:34Z</time>
      </trkpt>
      <trkpt lat="44.80542" lon="5.39097">
        <ele>677</ele>
        <time>2020-05-21T11:00:38Z</time>
      </trkpt>
      <trkpt lat="44.80485" lon="5.39119">
        <ele>673</ele>
        <time>2020-05-21T11:00:41Z</time>
      </trkpt>
      <trkpt lat="44.8044" lon="5.39122">
        <ele>671</ele>
        <time>2020-05-21T11:00:44Z</time>
      </trkpt>
      <trkpt lat="44.80395" lon="5.3911">
        <ele>669</ele>
        <time>2020-05-21T11:00:47Z</time>
      </trkpt>
      <trkpt lat="44.80361" lon="5.39073">
        <ele>667</ele>
        <time>2020-05-21T11:00:51Z</time>
      </trkpt>
      <trkpt lat="44.80334" lon="5.39024">
        <ele>665</ele>
        <time>2020-05-21T11:00:54Z</time>
      </trkpt>
      <trkpt lat="44.80312" lon="5.38974">
        <ele>663</ele>
        <time>2020-05-21T11:00:57Z</time>
      </trkpt>
      <trkpt lat="44.80284" lon="5.38936">
        <ele>661</ele>
        <time>2020-05-21T11:01:00Z</time>
      </trkpt>
      <trkpt lat="44.80259" lon="5.38882">
        <ele>658</ele>
        <time>2020-05-21T11:01:03Z</time>
      </trkpt>
      <trkpt lat="44.80234" lon="5.38832">
        <ele>656</ele>
        <time>2020-05-21T11:01:06Z</time>
      </trkpt>
      <trkpt lat="44.80218" lon="5.38778">
        <ele>654</ele>
        <time>2020-05-21T11:01:10Z</time>
      </trkpt>
      <trkpt lat="44.80231" lon="5.38727">
        <ele>654</ele>
        <time>2020-05-21T11:01:13Z</time>
      </trkpt>
      <trkpt lat="44.80238" lon="5.38702">
        <ele>652</ele>
        <time>2020-05-21T11:01:16Z</time>
      </trkpt>
      <trkpt lat="44.80222" lon="5.38685">
        <ele>649</ele>
        <time>2020-05-21T11:01:19Z</time>
      </trkpt>
      <trkpt lat="44.80187" lon="5.3869">
        <ele>647</ele>
        <time>2020-05-21T11:01:22Z</time>
      </trkpt>
      <trkpt lat="44.80136" lon="5.3868">
        <ele>646</ele>
        <time>2020-05-21T11:01:25Z</time>
      </trkpt>
      <trkpt lat="44.80103" lon="5.38657">
        <ele>645</ele>
        <time>2020-05-21T11:01:28Z</time>
      </trkpt>
      <trkpt lat="44.80061" lon="5.38619">
        <ele>643</ele>
        <time>2020-05-21T11:01:31Z</time>
      </trkpt>
      <trkpt lat="44.80021" lon="5.38573">
        <ele>641</ele>
        <time>2020-05-21T11:01:34Z</time>
      </trkpt>
      <trkpt lat="44.79985" lon="5.38534">
        <ele>638</ele>
        <time>2020-05-21T11:01:37Z</time>
      </trkpt>
      <trkpt lat="44.79955" lon="5.38498">
        <ele>635</ele>
        <time>2020-05-21T11:01:41Z</time>
      </trkpt>
      <trkpt lat="44.7993" lon="5.38469">
        <ele>632</ele>
        <time>2020-05-21T11:01:44Z</time>
      </trkpt>
      <trkpt lat="44.79921" lon="5.38448">
        <ele>629</ele>
        <time>2020-05-21T11:01:47Z</time>
      </trkpt>
      <trkpt lat="44.7991" lon="5.38423">
        <ele>626</ele>
        <time>2020-05-21T11:01:50Z</time>
      </trkpt>
      <trkpt lat="44.79896" lon="5.38406">
        <ele>625</ele>
        <time>2020-05-21T11:01:53Z</time>
      </trkpt>
      <trkpt lat="44.79866" lon="5.38373">
        <ele>622</ele>
        <time>2020-05-21T11:01:56Z</time>
      </trkpt>
      <trkpt lat="44.79843" lon="5.38352">
        <ele>620</ele>
        <time>2020-05-21T11:01:59Z</time>
      </trkpt>
      <trkpt lat="44.79822" lon="5.38341">
        <ele>617</ele>
        <time>2020-05-21T11:02:02Z</time>
      </trkpt>
      <trkpt lat="44.79794" lon="5.38331">
        <ele>616</ele>
        <time>2020-05-21T11:02:05Z</time>
      </trkpt>
      <trkpt lat="44.79763" lon="5.38324">
        <ele>614</ele>
        <time>2020-05-21T11:02:08Z</time>
      </trkpt>
      <trkpt lat="44.7972" lon="5.38315">
        <ele>612</ele>
        <time>2020-05-21T11:02:11Z</time>
      </trkpt>
      <trkpt lat="44.79683" lon="5.38304">
        <ele>610</ele>
        <time>2020-05-21T11:02:14Z</time>
      </trkpt>
      <trkpt lat="44.7965" lon="5.38296">
        <ele>608</ele>
        <time>2020-05-21T11:02:17Z</time>
      </trkpt>
      <trkpt lat="44.79609" lon="5.38294">
        <ele>606</ele>
        <time>2020-05-21T11:02:21Z</time>
      </trkpt>
      <trkpt lat="44.79584" lon="5.38296">
        <ele>605</ele>
        <time>2020-05-21T11:02:24Z</time>
      </trkpt>
      <trkpt lat="44.79543" lon="5.38299">
        <ele>604</ele>
        <time>2020-05-21T11:02:27Z</time>
      </trkpt>
      <trkpt lat="44.79516" lon="5.38284">
        <ele>602</ele>
        <time>2020-05-21T11:02:30Z</time>
      </trkpt>
      <trkpt lat="44.79497" lon="5.38233">
        <ele>599</ele>
        <time>2020-05-21T11:02:33Z</time>
      </trkpt>
      <trkpt lat="44.79475" lon="5.38177">
        <ele>597</ele>
        <time>2020-05-21T11:02:36Z</time>
      </trkpt>
      <trkpt lat="44.79443" lon="5.38088">
        <ele>597</ele>
        <time>2020-05-21T11:02:39Z</time>
      </trkpt>
      <trkpt lat="44.79424" lon="5.38021">
        <ele>597</ele>
        <time>2020-05-21T11:02:43Z</time>
      </trkpt>
      <trkpt lat="44.79413" lon="5.3796">
        <ele>596</ele>
        <time>2020-05-21T11:02:46Z</time>
      </trkpt>
      <trkpt lat="44.79413" lon="5.379">
        <ele>595</ele>
        <time>2020-05-21T11:02:49Z</time>
      </trkpt>
      <trkpt lat="44.79413" lon="5.37838">
        <ele>594</ele>
        <time>2020-05-21T11:02:52Z</time>
      </trkpt>
      <trkpt lat="44.79411" lon="5.37768">
        <ele>593</ele>
        <time>2020-05-21T11:02:56Z</time>
      </trkpt>
      <trkpt lat="44.79397" lon="5.37699">
        <ele>593</ele>
        <time>2020-05-21T11:02:59Z</time>
      </trkpt>
      <trkpt lat="44.79375" lon="5.37625">
        <ele>593</ele>
        <time>2020-05-21T11:03:02Z</time>
      </trkpt>
      <trkpt lat="44.79356" lon="5.37523">
        <ele>592</ele>
        <time>2020-05-21T11:03:06Z</time>
      </trkpt>
      <trkpt lat="44.79346" lon="5.37421">
        <ele>592</ele>
        <time>2020-05-21T11:03:10Z</time>
      </trkpt>
      <trkpt lat="44.79338" lon="5.37338">
        <ele>592</ele>
        <time>2020-05-21T11:03:13Z</time>
      </trkpt>
      <trkpt lat="44.79324" lon="5.37257">
        <ele>591</ele>
        <time>2020-05-21T11:03:16Z</time>
      </trkpt>
      <trkpt lat="44.79306" lon="5.3718">
        <ele>590</ele>
        <time>2020-05-21T11:03:19Z</time>
      </trkpt>
      <trkpt lat="44.7928" lon="5.37112">
        <ele>590</ele>
        <time>2020-05-21T11:03:22Z</time>
      </trkpt>
      <trkpt lat="44.79256" lon="5.37066">
        <ele>590</ele>
        <time>2020-05-21T11:03:25Z</time>
      </trkpt>
      <trkpt lat="44.79203" lon="5.3698">
        <ele>590</ele>
        <time>2020-05-21T11:03:29Z</time>
      </trkpt>
      <trkpt lat="44.79163" lon="5.36927">
        <ele>589</ele>
        <time>2020-05-21T11:03:32Z</time>
      </trkpt>
      <trkpt lat="44.79115" lon="5.36878">
        <ele>589</ele>
        <time>2020-05-21T11:03:35Z</time>
      </trkpt>
      <trkpt lat="44.79062" lon="5.36797">
        <ele>590</ele>
        <time>2020-05-21T11:03:39Z</time>
      </trkpt>
      <trkpt lat="44.7903" lon="5.36731">
        <ele>590</ele>
        <time>2020-05-21T11:03:42Z</time>
      </trkpt>
      <trkpt lat="44.78996" lon="5.36687">
        <ele>589</ele>
        <time>2020-05-21T11:03:45Z</time>
      </trkpt>
      <trkpt lat="44.7895" lon="5.36651">
        <ele>588</ele>
        <time>2020-05-21T11:03:48Z</time>
      </trkpt>
      <trkpt lat="44.78901" lon="5.3663">
        <ele>587</ele>
        <time>2020-05-21T11:03:51Z</time>
      </trkpt>
      <trkpt lat="44.78863" lon="5.36623">
        <ele>586</ele>
        <time>2020-05-21T11:03:54Z</time>
      </trkpt>
      <trkpt lat="44.78827" lon="5.36633">
        <ele>586</ele>
        <time>2020-05-21T11:03:57Z</time>
      </trkpt>
      <trkpt lat="44.78767" lon="5.3664">
        <ele>584</ele>
        <time>2020-05-21T11:04:01Z</time>
      </trkpt>
      <trkpt lat="44.78723" lon="5.36641">
        <ele>583</ele>
        <time>2020-05-21T11:04:04Z</time>
      </trkpt>
      <trkpt lat="44.78686" lon="5.3666">
        <ele>581</ele>
        <time>2020-05-21T11:04:07Z</time>
      </trkpt>
      <trkpt lat="44.78654" lon="5.36717">
        <ele>580</ele>
        <time>2020-05-21T11:04:10Z</time>
      </trkpt>
      <trkpt lat="44.78617" lon="5.36765">
        <ele>578</ele>
        <time>2020-05-21T11:04:13Z</time>
      </trkpt>
      <trkpt lat="44.78571" lon="5.36793">
        <ele>575</ele>
        <time>2020-05-21T11:04:16Z</time>
      </trkpt>
      <trkpt lat="44.78529" lon="5.36816">
        <ele>573</ele>
        <time>2020-05-21T11:04:19Z</time>
      </trkpt>
      <trkpt lat="44.78501" lon="5.36862">
        <ele>570</ele>
        <time>2020-05-21T11:04:22Z</time>
      </trkpt>
      <trkpt lat="44.7847" lon="5.36872">
        <ele>569</ele>
        <time>2020-05-21T11:04:25Z</time>
      </trkpt>
      <trkpt lat="44.78452" lon="5.36843">
        <ele>568</ele>
        <time>2020-05-21T11:04:28Z</time>
      </trkpt>
      <trkpt lat="44.78423" lon="5.3679">
        <ele>566</ele>
        <time>2020-05-21T11:04:31Z</time>
      </trkpt>
      <trkpt lat="44.78396" lon="5.36758">
        <ele>565</ele>
        <time>2020-05-21T11:04:34Z</time>
      </trkpt>
      <trkpt lat="44.7837" lon="5.36766">
        <ele>563</ele>
        <time>2020-05-21T11:04:37Z</time>
      </trkpt>
      <trkpt lat="44.78317" lon="5.36775">
        <ele>562</ele>
        <time>2020-05-21T11:04:41Z</time>
      </trkpt>
      <trkpt lat="44.78277" lon="5.36748">
        <ele>560</ele>
        <time>2020-05-21T11:04:44Z</time>
      </trkpt>
      <trkpt lat="44.78236" lon="5.36736">
        <ele>559</ele>
        <time>2020-05-21T11:04:47Z</time>
      </trkpt>
      <trkpt lat="44.78189" lon="5.36708">
        <ele>556</ele>
        <time>2020-05-21T11:04:50Z</time>
      </trkpt>
      <trkpt lat="44.78141" lon="5.36699">
        <ele>554</ele>
        <time>2020-05-21T11:04:53Z</time>
      </trkpt>
      <trkpt lat="44.78074" lon="5.36682">
        <ele>550</ele>
        <time>2020-05-21T11:04:57Z</time>
      </trkpt>
      <trkpt lat="44.7804" lon="5.36673">
        <ele>547</ele>
        <time>2020-05-21T11:05:00Z</time>
      </trkpt>
      <trkpt lat="44.77987" lon="5.36666">
        <ele>544</ele>
        <time>2020-05-21T11:05:03Z</time>
      </trkpt>
      <trkpt lat="44.77942" lon="5.36657">
        <ele>542</ele>
        <time>2020-05-21T11:05:06Z</time>
      </trkpt>
      <trkpt lat="44.77885" lon="5.36605">
        <ele>539</ele>
        <time>2020-05-21T11:05:10Z</time>
      </trkpt>
      <trkpt lat="44.77844" lon="5.36566">
        <ele>536</ele>
        <time>2020-05-21T11:05:13Z</time>
      </trkpt>
      <trkpt lat="44.77804" lon="5.36537">
        <ele>534</ele>
        <time>2020-05-21T11:05:16Z</time>
      </trkpt>
      <trkpt lat="44.77758" lon="5.36525">
        <ele>530</ele>
        <time>2020-05-21T11:05:19Z</time>
      </trkpt>
      <trkpt lat="44.77709" lon="5.36503">
        <ele>529</ele>
        <time>2020-05-21T11:05:23Z</time>
      </trkpt>
      <trkpt lat="44.77657" lon="5.36471">
        <ele>524</ele>
        <time>2020-05-21T11:05:26Z</time>
      </trkpt>
      <trkpt lat="44.7761" lon="5.3645">
        <ele>520</ele>
        <time>2020-05-21T11:05:29Z</time>
      </trkpt>
      <trkpt lat="44.77565" lon="5.36405">
        <ele>517</ele>
        <time>2020-05-21T11:05:32Z</time>
      </trkpt>
      <trkpt lat="44.7751" lon="5.3634">
        <ele>512</ele>
        <time>2020-05-21T11:05:36Z</time>
      </trkpt>
      <trkpt lat="44.77467" lon="5.36295">
        <ele>509</ele>
        <time>2020-05-21T11:05:39Z</time>
      </trkpt>
      <trkpt lat="44.77415" lon="5.36271">
        <ele>507</ele>
        <time>2020-05-21T11:05:42Z</time>
      </trkpt>
      <trkpt lat="44.7736" lon="5.36253">
        <ele>505</ele>
        <time>2020-05-21T11:05:45Z</time>
      </trkpt>
      <trkpt lat="44.77303" lon="5.36232">
        <ele>504</ele>
        <time>2020-05-21T11:05:48Z</time>
      </trkpt>
      <trkpt lat="44.77248" lon="5.36206">
        <ele>501</ele>
        <time>2020-05-21T11:05:51Z</time>
      </trkpt>
      <trkpt lat="44.77196" lon="5.36168">
        <ele>499</ele>
        <time>2020-05-21T11:05:54Z</time>
      </trkpt>
      <trkpt lat="44.77145" lon="5.36131">
        <ele>496</ele>
        <time>2020-05-21T11:05:57Z</time>
      </trkpt>
      <trkpt lat="44.77111" lon="5.36113">
        <ele>494</ele>
        <time>2020-05-21T11:06:00Z</time>
      </trkpt>
      <trkpt lat="44.77057" lon="5.36099">
        <ele>492</ele>
        <time>2020-05-21T11:06:03Z</time>
      </trkpt>
      <trkpt lat="44.76994" lon="5.36117">
        <ele>490</ele>
        <time>2020-05-21T11:06:06Z</time>
      </trkpt>
      <trkpt lat="44.76927" lon="5.36136">
        <ele>487</ele>
        <time>2020-05-21T11:06:09Z</time>
      </trkpt>
      <trkpt lat="44.76869" lon="5.36154">
        <ele>486</ele>
        <time>2020-05-21T11:06:12Z</time>
      </trkpt>
      <trkpt lat="44.76816" lon="5.36178">
        <ele>485</ele>
        <time>2020-05-21T11:06:15Z</time>
      </trkpt>
      <trkpt lat="44.76755" lon="5.36213">
        <ele>484</ele>
        <time>2020-05-21T11:06:19Z</time>
      </trkpt>
      <trkpt lat="44.76706" lon="5.36242">
        <ele>482</ele>
        <time>2020-05-21T11:06:22Z</time>
      </trkpt>
      <trkpt lat="44.76652" lon="5.36256">
        <ele>482</ele>
        <time>2020-05-21T11:06:25Z</time>
      </trkpt>
      <trkpt lat="44.76601" lon="5.36253">
        <ele>480</ele>
        <time>2020-05-21T11:06:28Z</time>
      </trkpt>
      <trkpt lat="44.76512" lon="5.36245">
        <ele>478</ele>
        <time>2020-05-21T11:06:31Z</time>
      </trkpt>
      <trkpt lat="44.76468" lon="5.3624">
        <ele>477</ele>
        <time>2020-05-21T11:06:34Z</time>
      </trkpt>
      <trkpt lat="44.76413" lon="5.36234">
        <ele>476</ele>
        <time>2020-05-21T11:06:37Z</time>
      </trkpt>
      <trkpt lat="44.76368" lon="5.36228">
        <ele>474</ele>
        <time>2020-05-21T11:06:40Z</time>
      </trkpt>
      <trkpt lat="44.76324" lon="5.36202">
        <ele>473</ele>
        <time>2020-05-21T11:06:43Z</time>
      </trkpt>
      <trkpt lat="44.76282" lon="5.36174">
        <ele>471</ele>
        <time>2020-05-21T11:06:46Z</time>
      </trkpt>
      <trkpt lat="44.76217" lon="5.36129">
        <ele>468</ele>
        <time>2020-05-21T11:06:50Z</time>
      </trkpt>
      <trkpt lat="44.76169" lon="5.36086">
        <ele>467</ele>
        <time>2020-05-21T11:06:53Z</time>
      </trkpt>
      <trkpt lat="44.76132" lon="5.36048">
        <ele>466</ele>
        <time>2020-05-21T11:06:56Z</time>
      </trkpt>
      <trkpt lat="44.76105" lon="5.36022">
        <ele>465</ele>
        <time>2020-05-21T11:06:59Z</time>
      </trkpt>
      <trkpt lat="44.76092" lon="5.36014">
        <ele>464</ele>
        <time>2020-05-21T11:07:02Z</time>
      </trkpt>
      <trkpt lat="44.76082" lon="5.36013">
        <ele>464</ele>
        <time>2020-05-21T11:07:06Z</time>
      </trkpt>
      <trkpt lat="44.76058" lon="5.36034">
        <ele>463</ele>
        <time>2020-05-21T11:07:09Z</time>
      </trkpt>
      <trkpt lat="44.76035" lon="5.36064">
        <ele>461</ele>
        <time>2020-05-21T11:07:12Z</time>
      </trkpt>
      <trkpt lat="44.76003" lon="5.36104">
        <ele>460</ele>
        <time>2020-05-21T11:07:16Z</time>
      </trkpt>
      <trkpt lat="44.75982" lon="5.36132">
        <ele>460</ele>
        <time>2020-05-21T11:07:19Z</time>
      </trkpt>
      <trkpt lat="44.75965" lon="5.36152">
        <ele>459</ele>
        <time>2020-05-21T11:07:22Z</time>
      </trkpt>
      <trkpt lat="44.75958" lon="5.36161">
        <ele>459</ele>
        <time>2020-05-21T11:07:25Z</time>
      </trkpt>
      <trkpt lat="44.75944" lon="5.36161">
        <ele>457</ele>
        <time>2020-05-21T11:07:44Z</time>
      </trkpt>
      <trkpt lat="44.75932" lon="5.36192">
        <ele>456</ele>
        <time>2020-05-21T11:07:47Z</time>
      </trkpt>
      <trkpt lat="44.75915" lon="5.36234">
        <ele>455</ele>
        <time>2020-05-21T11:07:51Z</time>
      </trkpt>
      <trkpt lat="44.75899" lon="5.36272">
        <ele>455</ele>
        <time>2020-05-21T11:07:54Z</time>
      </trkpt>
      <trkpt lat="44.75877" lon="5.36315">
        <ele>454</ele>
        <time>2020-05-21T11:07:57Z</time>
      </trkpt>
      <trkpt lat="44.75848" lon="5.36366">
        <ele>454</ele>
        <time>2020-05-21T11:08:00Z</time>
      </trkpt>
      <trkpt lat="44.75824" lon="5.36408">
        <ele>453</ele>
        <time>2020-05-21T11:08:03Z</time>
      </trkpt>
      <trkpt lat="44.75801" lon="5.36448">
        <ele>453</ele>
        <time>2020-05-21T11:08:06Z</time>
      </trkpt>
      <trkpt lat="44.75786" lon="5.36475">
        <ele>453</ele>
        <time>2020-05-21T11:08:09Z</time>
      </trkpt>
      <trkpt lat="44.75762" lon="5.36514">
        <ele>453</ele>
        <time>2020-05-21T11:08:12Z</time>
      </trkpt>
      <trkpt lat="44.75741" lon="5.36551">
        <ele>454</ele>
        <time>2020-05-21T11:08:15Z</time>
      </trkpt>
      <trkpt lat="44.75723" lon="5.36583">
        <ele>454</ele>
        <time>2020-05-21T11:08:18Z</time>
      </trkpt>
      <trkpt lat="44.75709" lon="5.36608">
        <ele>455</ele>
        <time>2020-05-21T11:08:21Z</time>
      </trkpt>
      <trkpt lat="44.75693" lon="5.36636">
        <ele>455</ele>
        <time>2020-05-21T11:08:24Z</time>
      </trkpt>
      <trkpt lat="44.75668" lon="5.36678">
        <ele>456</ele>
        <time>2020-05-21T11:08:27Z</time>
      </trkpt>
      <trkpt lat="44.75648" lon="5.36714">
        <ele>456</ele>
        <time>2020-05-21T11:08:30Z</time>
      </trkpt>
      <trkpt lat="44.75626" lon="5.36752">
        <ele>457</ele>
        <time>2020-05-21T11:08:33Z</time>
      </trkpt>
      <trkpt lat="44.75607" lon="5.36786">
        <ele>458</ele>
        <time>2020-05-21T11:08:36Z</time>
      </trkpt>
      <trkpt lat="44.75594" lon="5.36809">
        <ele>458</ele>
        <time>2020-05-21T11:08:39Z</time>
      </trkpt>
      <trkpt lat="44.75587" lon="5.3682">
        <ele>458</ele>
        <time>2020-05-21T11:08:42Z</time>
      </trkpt>
      <trkpt lat="44.75577" lon="5.36839">
        <ele>458</ele>
        <time>2020-05-21T11:08:45Z</time>
      </trkpt>
      <trkpt lat="44.75563" lon="5.36863">
        <ele>459</ele>
        <time>2020-05-21T11:08:48Z</time>
      </trkpt>
      <trkpt lat="44.7555" lon="5.36886">
        <ele>459</ele>
        <time>2020-05-21T11:08:52Z</time>
      </trkpt>
      <trkpt lat="44.75538" lon="5.36907">
        <ele>460</ele>
        <time>2020-05-21T11:08:55Z</time>
      </trkpt>
      <trkpt lat="44.7553" lon="5.36917">
        <ele>460</ele>
        <time>2020-05-21T11:08:58Z</time>
      </trkpt>
      <trkpt lat="44.75513" lon="5.36881">
        <ele>460</ele>
        <time>2020-05-21T11:09:01Z</time>
      </trkpt>
      <trkpt lat="44.75493" lon="5.36831">
        <ele>461</ele>
        <time>2020-05-21T11:09:04Z</time>
      </trkpt>
      <trkpt lat="44.75488" lon="5.36818">
        <ele>461</ele>
        <time>2020-05-21T11:09:08Z</time>
      </trkpt>
      <trkpt lat="44.75468" lon="5.36775">
        <ele>461</ele>
        <time>2020-05-21T11:09:11Z</time>
      </trkpt>
      <trkpt lat="44.75459" lon="5.36771">
        <ele>462</ele>
        <time>2020-05-21T11:09:19Z</time>
      </trkpt>
      <trkpt lat="44.75438" lon="5.36774">
        <ele>463</ele>
        <time>2020-05-21T11:09:22Z</time>
      </trkpt>
      <trkpt lat="44.75415" lon="5.36779">
        <ele>463</ele>
        <time>2020-05-21T11:09:25Z</time>
      </trkpt>
      <trkpt lat="44.75393" lon="5.36782">
        <ele>463</ele>
        <time>2020-05-21T11:09:28Z</time>
      </trkpt>
      <trkpt lat="44.75371" lon="5.36783">
        <ele>462</ele>
        <time>2020-05-21T11:09:31Z</time>
      </trkpt>
      <trkpt lat="44.75347" lon="5.36784">
        <ele>462</ele>
        <time>2020-05-21T11:09:34Z</time>
      </trkpt>
      <trkpt lat="44.75318" lon="5.36784">
        <ele>461</ele>
        <time>2020-05-21T11:09:38Z</time>
      </trkpt>
      <trkpt lat="44.75301" lon="5.36793">
        <ele>461</ele>
        <time>2020-05-21T11:09:41Z</time>
      </trkpt>
      <trkpt lat="44.75285" lon="5.368">
        <ele>461</ele>
        <time>2020-05-21T11:09:44Z</time>
      </trkpt>
      <trkpt lat="44.75259" lon="5.36795">
        <ele>461</ele>
        <time>2020-05-21T11:09:47Z</time>
      </trkpt>
      <trkpt lat="44.75238" lon="5.36807">
        <ele>461</ele>
        <time>2020-05-21T11:09:50Z</time>
      </trkpt>
      <trkpt lat="44.75214" lon="5.36823">
        <ele>461</ele>
        <time>2020-05-21T11:09:53Z</time>
      </trkpt>
      <trkpt lat="44.75192" lon="5.36843">
        <ele>461</ele>
        <time>2020-05-21T11:09:57Z</time>
      </trkpt>
      <trkpt lat="44.7517" lon="5.36873">
        <ele>462</ele>
        <time>2020-05-21T11:10:00Z</time>
      </trkpt>
      <trkpt lat="44.75151" lon="5.36897">
        <ele>462</ele>
        <time>2020-05-21T11:10:03Z</time>
      </trkpt>
      <trkpt lat="44.75143" lon="5.36909">
        <ele>462</ele>
        <time>2020-05-21T11:10:06Z</time>
      </trkpt>
      <trkpt lat="44.75136" lon="5.36918">
        <ele>462</ele>
        <time>2020-05-21T11:10:09Z</time>
      </trkpt>
      <trkpt lat="44.75124" lon="5.36943">
        <ele>462</ele>
        <time>2020-05-21T11:10:12Z</time>
      </trkpt>
      <trkpt lat="44.75113" lon="5.36973">
        <ele>461</ele>
        <time>2020-05-21T11:10:15Z</time>
      </trkpt>
      <trkpt lat="44.75098" lon="5.37011">
        <ele>460</ele>
        <time>2020-05-21T11:10:18Z</time>
      </trkpt>
      <trkpt lat="44.75088" lon="5.3706">
        <ele>460</ele>
        <time>2020-05-21T11:10:21Z</time>
      </trkpt>
      <trkpt lat="44.75085" lon="5.37106">
        <ele>459</ele>
        <time>2020-05-21T11:10:24Z</time>
      </trkpt>
      <trkpt lat="44.75103" lon="5.37156">
        <ele>459</ele>
        <time>2020-05-21T11:10:28Z</time>
      </trkpt>
      <trkpt lat="44.75123" lon="5.37192">
        <ele>459</ele>
        <time>2020-05-21T11:10:31Z</time>
      </trkpt>
      <trkpt lat="44.75145" lon="5.37235">
        <ele>460</ele>
        <time>2020-05-21T11:10:35Z</time>
      </trkpt>
      <trkpt lat="44.7514" lon="5.37264">
        <ele>459</ele>
        <time>2020-05-21T11:10:38Z</time>
      </trkpt>
      <trkpt lat="44.7512" lon="5.37274">
        <ele>458</ele>
        <time>2020-05-21T11:10:41Z</time>
      </trkpt>
      <trkpt lat="44.751" lon="5.37283">
        <ele>458</ele>
        <time>2020-05-21T11:10:44Z</time>
      </trkpt>
      <trkpt lat="44.75083" lon="5.37289">
        <ele>458</ele>
        <time>2020-05-21T11:10:54Z</time>
      </trkpt>
      <trkpt lat="44.75062" lon="5.37298">
        <ele>459</ele>
        <time>2020-05-21T11:10:57Z</time>
      </trkpt>
      <trkpt lat="44.75038" lon="5.37317">
        <ele>458</ele>
        <time>2020-05-21T11:11:01Z</time>
      </trkpt>
      <trkpt lat="44.75016" lon="5.37351">
        <ele>458</ele>
        <time>2020-05-21T11:11:04Z</time>
      </trkpt>
      <trkpt lat="44.74991" lon="5.37389">
        <ele>458</ele>
        <time>2020-05-21T11:11:07Z</time>
      </trkpt>
      <trkpt lat="44.74951" lon="5.37438">
        <ele>458</ele>
        <time>2020-05-21T11:11:10Z</time>
      </trkpt>
      <trkpt lat="44.7493" lon="5.3748">
        <ele>458</ele>
        <time>2020-05-21T11:11:13Z</time>
      </trkpt>
      <trkpt lat="44.74925" lon="5.37514">
        <ele>458</ele>
        <time>2020-05-21T11:11:16Z</time>
      </trkpt>
      <trkpt lat="44.74917" lon="5.37563">
        <ele>458</ele>
        <time>2020-05-21T11:11:20Z</time>
      </trkpt>
      <trkpt lat="44.74906" lon="5.37615">
        <ele>457</ele>
        <time>2020-05-21T11:11:23Z</time>
      </trkpt>
      <trkpt lat="44.74887" lon="5.37686">
        <ele>457</ele>
        <time>2020-05-21T11:11:26Z</time>
      </trkpt>
      <trkpt lat="44.74863" lon="5.37739">
        <ele>457</ele>
        <time>2020-05-21T11:11:29Z</time>
      </trkpt>
      <trkpt lat="44.74836" lon="5.37794">
        <ele>457</ele>
        <time>2020-05-21T11:11:32Z</time>
      </trkpt>
      <trkpt lat="44.74824" lon="5.37848">
        <ele>457</ele>
        <time>2020-05-21T11:11:35Z</time>
      </trkpt>
      <trkpt lat="44.74827" lon="5.37883">
        <ele>457</ele>
        <time>2020-05-21T11:11:38Z</time>
      </trkpt>
      <trkpt lat="44.74832" lon="5.37916">
        <ele>457</ele>
        <time>2020-05-21T11:11:41Z</time>
      </trkpt>
      <trkpt lat="44.74814" lon="5.37959">
        <ele>457</ele>
        <time>2020-05-21T11:11:44Z</time>
      </trkpt>
      <trkpt lat="44.74828" lon="5.37975">
        <ele>457</ele>
        <time>2020-05-21T11:11:47Z</time>
      </trkpt>
      <trkpt lat="44.74828" lon="5.38025">
        <ele>457</ele>
        <time>2020-05-21T11:11:50Z</time>
      </trkpt>
      <trkpt lat="44.74823" lon="5.3807">
        <ele>457</ele>
        <time>2020-05-21T11:11:54Z</time>
      </trkpt>
      <trkpt lat="44.74802" lon="5.3811">
        <ele>457</ele>
        <time>2020-05-21T11:11:57Z</time>
      </trkpt>
      <trkpt lat="44.74776" lon="5.38155">
        <ele>457</ele>
        <time>2020-05-21T11:12:00Z</time>
      </trkpt>
      <trkpt lat="44.74758" lon="5.38187">
        <ele>456</ele>
        <time>2020-05-21T11:12:03Z</time>
      </trkpt>
      <trkpt lat="44.74743" lon="5.38212">
        <ele>456</ele>
        <time>2020-05-21T11:12:06Z</time>
      </trkpt>
      <trkpt lat="44.74739" lon="5.3822">
        <ele>457</ele>
        <time>2020-05-21T11:18:19Z</time>
      </trkpt>
      <trkpt lat="44.74763" lon="5.382">
        <ele>465</ele>
        <time>2020-05-21T11:20:41Z</time>
      </trkpt>
      <trkpt lat="44.74752" lon="5.38196">
        <ele>463</ele>
        <time>2020-05-21T11:21:02Z</time>
      </trkpt>
      <trkpt lat="44.74739" lon="5.38219">
        <ele>461</ele>
        <time>2020-05-21T11:21:05Z</time>
      </trkpt>
      <trkpt lat="44.74725" lon="5.38244">
        <ele>459</ele>
        <time>2020-05-21T11:21:08Z</time>
      </trkpt>
      <trkpt lat="44.74701" lon="5.38285">
        <ele>459</ele>
        <time>2020-05-21T11:21:11Z</time>
      </trkpt>
      <trkpt lat="44.74673" lon="5.38334">
        <ele>458</ele>
        <time>2020-05-21T11:21:14Z</time>
      </trkpt>
      <trkpt lat="44.74636" lon="5.38388">
        <ele>458</ele>
        <time>2020-05-21T11:21:18Z</time>
      </trkpt>
      <trkpt lat="44.74597" lon="5.38437">
        <ele>458</ele>
        <time>2020-05-21T11:21:21Z</time>
      </trkpt>
      <trkpt lat="44.74547" lon="5.38486">
        <ele>458</ele>
        <time>2020-05-21T11:21:24Z</time>
      </trkpt>
      <trkpt lat="44.7449" lon="5.38527">
        <ele>458</ele>
        <time>2020-05-21T11:21:27Z</time>
      </trkpt>
      <trkpt lat="44.74412" lon="5.38559">
        <ele>459</ele>
        <time>2020-05-21T11:21:30Z</time>
      </trkpt>
      <trkpt lat="44.74325" lon="5.38584">
        <ele>459</ele>
        <time>2020-05-21T11:21:33Z</time>
      </trkpt>
      <trkpt lat="44.74249" lon="5.38605">
        <ele>460</ele>
        <time>2020-05-21T11:21:36Z</time>
      </trkpt>
      <trkpt lat="44.74182" lon="5.38623">
        <ele>460</ele>
        <time>2020-05-21T11:21:39Z</time>
      </trkpt>
      <trkpt lat="44.741" lon="5.38646">
        <ele>461</ele>
        <time>2020-05-21T11:21:43Z</time>
      </trkpt>
      <trkpt lat="44.74037" lon="5.38666">
        <ele>461</ele>
        <time>2020-05-21T11:21:46Z</time>
      </trkpt>
      <trkpt lat="44.73975" lon="5.38697">
        <ele>461</ele>
        <time>2020-05-21T11:21:49Z</time>
      </trkpt>
      <trkpt lat="44.73915" lon="5.38729">
        <ele>462</ele>
        <time>2020-05-21T11:21:52Z</time>
      </trkpt>
      <trkpt lat="44.73858" lon="5.3876">
        <ele>462</ele>
        <time>2020-05-21T11:21:55Z</time>
      </trkpt>
      <trkpt lat="44.73799" lon="5.38792">
        <ele>463</ele>
        <time>2020-05-21T11:21:59Z</time>
      </trkpt>
      <trkpt lat="44.73725" lon="5.38833">
        <ele>463</ele>
        <time>2020-05-21T11:22:03Z</time>
      </trkpt>
      <trkpt lat="44.7367" lon="5.38863">
        <ele>464</ele>
        <time>2020-05-21T11:22:06Z</time>
      </trkpt>
      <trkpt lat="44.73617" lon="5.38891">
        <ele>464</ele>
        <time>2020-05-21T11:22:09Z</time>
      </trkpt>
      <trkpt lat="44.73561" lon="5.38921">
        <ele>464</ele>
        <time>2020-05-21T11:22:12Z</time>
      </trkpt>
      <trkpt lat="44.73487" lon="5.38962">
        <ele>465</ele>
        <time>2020-05-21T11:22:16Z</time>
      </trkpt>
      <trkpt lat="44.7343" lon="5.38993">
        <ele>465</ele>
        <time>2020-05-21T11:22:19Z</time>
      </trkpt>
      <trkpt lat="44.73356" lon="5.39031">
        <ele>466</ele>
        <time>2020-05-21T11:22:23Z</time>
      </trkpt>
      <trkpt lat="44.73281" lon="5.39071">
        <ele>467</ele>
        <time>2020-05-21T11:22:27Z</time>
      </trkpt>
      <trkpt lat="44.73226" lon="5.39102">
        <ele>467</ele>
        <time>2020-05-21T11:22:30Z</time>
      </trkpt>
      <trkpt lat="44.73189" lon="5.39122">
        <ele>468</ele>
        <time>2020-05-21T11:22:33Z</time>
      </trkpt>
      <trkpt lat="44.73135" lon="5.39152">
        <ele>468</ele>
        <time>2020-05-21T11:22:36Z</time>
      </trkpt>
      <trkpt lat="44.73078" lon="5.39181">
        <ele>469</ele>
        <time>2020-05-21T11:22:39Z</time>
      </trkpt>
      <trkpt lat="44.73002" lon="5.39214">
        <ele>470</ele>
        <time>2020-05-21T11:22:43Z</time>
      </trkpt>
      <trkpt lat="44.72946" lon="5.39212">
        <ele>471</ele>
        <time>2020-05-21T11:22:47Z</time>
      </trkpt>
      <trkpt lat="44.72892" lon="5.39201">
        <ele>471</ele>
        <time>2020-05-21T11:22:50Z</time>
      </trkpt>
      <trkpt lat="44.72827" lon="5.39224">
        <ele>471</ele>
        <time>2020-05-21T11:22:53Z</time>
      </trkpt>
      <trkpt lat="44.72794" lon="5.39278">
        <ele>471</ele>
        <time>2020-05-21T11:22:56Z</time>
      </trkpt>
      <trkpt lat="44.72762" lon="5.39333">
        <ele>472</ele>
        <time>2020-05-21T11:22:59Z</time>
      </trkpt>
      <trkpt lat="44.72735" lon="5.39384">
        <ele>472</ele>
        <time>2020-05-21T11:23:03Z</time>
      </trkpt>
      <trkpt lat="44.72715" lon="5.3942">
        <ele>473</ele>
        <time>2020-05-21T11:23:06Z</time>
      </trkpt>
      <trkpt lat="44.72699" lon="5.3947">
        <ele>473</ele>
        <time>2020-05-21T11:23:09Z</time>
      </trkpt>
      <trkpt lat="44.72687" lon="5.39517">
        <ele>474</ele>
        <time>2020-05-21T11:23:12Z</time>
      </trkpt>
      <trkpt lat="44.72661" lon="5.39535">
        <ele>475</ele>
        <time>2020-05-21T11:23:15Z</time>
      </trkpt>
      <trkpt lat="44.72634" lon="5.39565">
        <ele>475</ele>
        <time>2020-05-21T11:23:18Z</time>
      </trkpt>
      <trkpt lat="44.72608" lon="5.39613">
        <ele>476</ele>
        <time>2020-05-21T11:23:21Z</time>
      </trkpt>
      <trkpt lat="44.72576" lon="5.39666">
        <ele>476</ele>
        <time>2020-05-21T11:23:24Z</time>
      </trkpt>
      <trkpt lat="44.72524" lon="5.39734">
        <ele>476</ele>
        <time>2020-05-21T11:23:27Z</time>
      </trkpt>
      <trkpt lat="44.72473" lon="5.39777">
        <ele>477</ele>
        <time>2020-05-21T11:23:30Z</time>
      </trkpt>
      <trkpt lat="44.72415" lon="5.39808">
        <ele>477</ele>
        <time>2020-05-21T11:23:33Z</time>
      </trkpt>
      <trkpt lat="44.72356" lon="5.39827">
        <ele>477</ele>
        <time>2020-05-21T11:23:37Z</time>
      </trkpt>
      <trkpt lat="44.72298" lon="5.39843">
        <ele>478</ele>
        <time>2020-05-21T11:23:40Z</time>
      </trkpt>
      <trkpt lat="44.7224" lon="5.39857">
        <ele>478</ele>
        <time>2020-05-21T11:23:43Z</time>
      </trkpt>
      <trkpt lat="44.72184" lon="5.39872">
        <ele>479</ele>
        <time>2020-05-21T11:23:46Z</time>
      </trkpt>
      <trkpt lat="44.72125" lon="5.39887">
        <ele>479</ele>
        <time>2020-05-21T11:23:49Z</time>
      </trkpt>
      <trkpt lat="44.72053" lon="5.39907">
        <ele>480</ele>
        <time>2020-05-21T11:23:53Z</time>
      </trkpt>
      <trkpt lat="44.72" lon="5.39923">
        <ele>480</ele>
        <time>2020-05-21T11:23:57Z</time>
      </trkpt>
      <trkpt lat="44.71926" lon="5.39947">
        <ele>481</ele>
        <time>2020-05-21T11:24:00Z</time>
      </trkpt>
      <trkpt lat="44.7187" lon="5.39965">
        <ele>481</ele>
        <time>2020-05-21T11:24:03Z</time>
      </trkpt>
      <trkpt lat="44.718" lon="5.39988">
        <ele>482</ele>
        <time>2020-05-21T11:24:07Z</time>
      </trkpt>
      <trkpt lat="44.71745" lon="5.40003">
        <ele>482</ele>
        <time>2020-05-21T11:24:10Z</time>
      </trkpt>
      <trkpt lat="44.7171" lon="5.40015">
        <ele>483</ele>
        <time>2020-05-21T11:24:13Z</time>
      </trkpt>
      <trkpt lat="44.71658" lon="5.40032">
        <ele>483</ele>
        <time>2020-05-21T11:24:16Z</time>
      </trkpt>
      <trkpt lat="44.71609" lon="5.40051">
        <ele>484</ele>
        <time>2020-05-21T11:24:19Z</time>
      </trkpt>
      <trkpt lat="44.71541" lon="5.40073">
        <ele>484</ele>
        <time>2020-05-21T11:24:23Z</time>
      </trkpt>
      <trkpt lat="44.71491" lon="5.40089">
        <ele>485</ele>
        <time>2020-05-21T11:24:26Z</time>
      </trkpt>
      <trkpt lat="44.7144" lon="5.40106">
        <ele>485</ele>
        <time>2020-05-21T11:24:29Z</time>
      </trkpt>
      <trkpt lat="44.71392" lon="5.40122">
        <ele>485</ele>
        <time>2020-05-21T11:24:32Z</time>
      </trkpt>
      <trkpt lat="44.71346" lon="5.40137">
        <ele>486</ele>
        <time>2020-05-21T11:24:35Z</time>
      </trkpt>
      <trkpt lat="44.71304" lon="5.4015">
        <ele>487</ele>
        <time>2020-05-21T11:24:38Z</time>
      </trkpt>
      <trkpt lat="44.71279" lon="5.40158">
        <ele>487</ele>
        <time>2020-05-21T11:24:41Z</time>
      </trkpt>
      <trkpt lat="44.7125" lon="5.40167">
        <ele>488</ele>
        <time>2020-05-21T11:24:44Z</time>
      </trkpt>
      <trkpt lat="44.71229" lon="5.40171">
        <ele>488</ele>
        <time>2020-05-21T11:24:48Z</time>
      </trkpt>
      <trkpt lat="44.71198" lon="5.40181">
        <ele>488</ele>
        <time>2020-05-21T11:24:51Z</time>
      </trkpt>
      <trkpt lat="44.71154" lon="5.40192">
        <ele>489</ele>
        <time>2020-05-21T11:24:54Z</time>
      </trkpt>
      <trkpt lat="44.711" lon="5.40198">
        <ele>489</ele>
        <time>2020-05-21T11:24:57Z</time>
      </trkpt>
      <trkpt lat="44.71059" lon="5.40194">
        <ele>490</ele>
        <time>2020-05-21T11:25:00Z</time>
      </trkpt>
      <trkpt lat="44.71021" lon="5.40188">
        <ele>490</ele>
        <time>2020-05-21T11:25:03Z</time>
      </trkpt>
      <trkpt lat="44.7098" lon="5.40177">
        <ele>490</ele>
        <time>2020-05-21T11:25:07Z</time>
      </trkpt>
      <trkpt lat="44.70934" lon="5.40162">
        <ele>491</ele>
        <time>2020-05-21T11:25:10Z</time>
      </trkpt>
      <trkpt lat="44.70911" lon="5.40153">
        <ele>491</ele>
        <time>2020-05-21T11:25:13Z</time>
      </trkpt>
      <trkpt lat="44.70883" lon="5.40142">
        <ele>491</ele>
        <time>2020-05-21T11:25:16Z</time>
      </trkpt>
      <trkpt lat="44.70862" lon="5.40133">
        <ele>491</ele>
        <time>2020-05-21T11:25:19Z</time>
      </trkpt>
      <trkpt lat="44.70831" lon="5.40117">
        <ele>491</ele>
        <time>2020-05-21T11:25:23Z</time>
      </trkpt>
      <trkpt lat="44.70812" lon="5.40089">
        <ele>491</ele>
        <time>2020-05-21T11:25:26Z</time>
      </trkpt>
      <trkpt lat="44.70798" lon="5.4005">
        <ele>491</ele>
        <time>2020-05-21T11:25:29Z</time>
      </trkpt>
      <trkpt lat="44.70769" lon="5.40014">
        <ele>491</ele>
        <time>2020-05-21T11:25:33Z</time>
      </trkpt>
      <trkpt lat="44.70715" lon="5.39993">
        <ele>491</ele>
        <time>2020-05-21T11:25:36Z</time>
      </trkpt>
      <trkpt lat="44.7067" lon="5.39977">
        <ele>491</ele>
        <time>2020-05-21T11:25:39Z</time>
      </trkpt>
      <trkpt lat="44.70613" lon="5.39958">
        <ele>491</ele>
        <time>2020-05-21T11:25:42Z</time>
      </trkpt>
      <trkpt lat="44.70553" lon="5.39937">
        <ele>491</ele>
        <time>2020-05-21T11:25:45Z</time>
      </trkpt>
      <trkpt lat="44.70494" lon="5.39917">
        <ele>491</ele>
        <time>2020-05-21T11:25:49Z</time>
      </trkpt>
      <trkpt lat="44.70435" lon="5.39896">
        <ele>491</ele>
        <time>2020-05-21T11:25:52Z</time>
      </trkpt>
      <trkpt lat="44.70378" lon="5.39866">
        <ele>492</ele>
        <time>2020-05-21T11:25:55Z</time>
      </trkpt>
      <trkpt lat="44.70301" lon="5.39809">
        <ele>492</ele>
        <time>2020-05-21T11:25:58Z</time>
      </trkpt>
      <trkpt lat="44.70242" lon="5.39764">
        <ele>492</ele>
        <time>2020-05-21T11:26:01Z</time>
      </trkpt>
      <trkpt lat="44.70182" lon="5.3972">
        <ele>493</ele>
        <time>2020-05-21T11:26:04Z</time>
      </trkpt>
      <trkpt lat="44.70117" lon="5.39689">
        <ele>493</ele>
        <time>2020-05-21T11:26:07Z</time>
      </trkpt>
      <trkpt lat="44.70044" lon="5.39663">
        <ele>494</ele>
        <time>2020-05-21T11:26:11Z</time>
      </trkpt>
      <trkpt lat="44.69971" lon="5.39637">
        <ele>495</ele>
        <time>2020-05-21T11:26:14Z</time>
      </trkpt>
      <trkpt lat="44.699" lon="5.39612">
        <ele>496</ele>
        <time>2020-05-21T11:26:17Z</time>
      </trkpt>
      <trkpt lat="44.69834" lon="5.39588">
        <ele>497</ele>
        <time>2020-05-21T11:26:20Z</time>
      </trkpt>
      <trkpt lat="44.69771" lon="5.39551">
        <ele>498</ele>
        <time>2020-05-21T11:26:23Z</time>
      </trkpt>
      <trkpt lat="44.69705" lon="5.3951">
        <ele>498</ele>
        <time>2020-05-21T11:26:26Z</time>
      </trkpt>
      <trkpt lat="44.69639" lon="5.39468">
        <ele>499</ele>
        <time>2020-05-21T11:26:29Z</time>
      </trkpt>
      <trkpt lat="44.69565" lon="5.39421">
        <ele>500</ele>
        <time>2020-05-21T11:26:32Z</time>
      </trkpt>
      <trkpt lat="44.69491" lon="5.39375">
        <ele>501</ele>
        <time>2020-05-21T11:26:36Z</time>
      </trkpt>
      <trkpt lat="44.69419" lon="5.39335">
        <ele>502</ele>
        <time>2020-05-21T11:26:39Z</time>
      </trkpt>
      <trkpt lat="44.6935" lon="5.39301">
        <ele>502</ele>
        <time>2020-05-21T11:26:42Z</time>
      </trkpt>
      <trkpt lat="44.69253" lon="5.39262">
        <ele>503</ele>
        <time>2020-05-21T11:26:45Z</time>
      </trkpt>
      <trkpt lat="44.69181" lon="5.39233">
        <ele>503</ele>
        <time>2020-05-21T11:26:49Z</time>
      </trkpt>
      <trkpt lat="44.6911" lon="5.39205">
        <ele>504</ele>
        <time>2020-05-21T11:26:52Z</time>
      </trkpt>
      <trkpt lat="44.69058" lon="5.39184">
        <ele>504</ele>
        <time>2020-05-21T11:26:55Z</time>
      </trkpt>
      <trkpt lat="44.68987" lon="5.39156">
        <ele>505</ele>
        <time>2020-05-21T11:26:58Z</time>
      </trkpt>
      <trkpt lat="44.68915" lon="5.39133">
        <ele>505</ele>
        <time>2020-05-21T11:27:01Z</time>
      </trkpt>
      <trkpt lat="44.68822" lon="5.39113">
        <ele>506</ele>
        <time>2020-05-21T11:27:04Z</time>
      </trkpt>
      <trkpt lat="44.68749" lon="5.39109">
        <ele>507</ele>
        <time>2020-05-21T11:27:07Z</time>
      </trkpt>
      <trkpt lat="44.68669" lon="5.39119">
        <ele>507</ele>
        <time>2020-05-21T11:27:10Z</time>
      </trkpt>
      <trkpt lat="44.68591" lon="5.39132">
        <ele>508</ele>
        <time>2020-05-21T11:27:13Z</time>
      </trkpt>
      <trkpt lat="44.68489" lon="5.39149">
        <ele>508</ele>
        <time>2020-05-21T11:27:17Z</time>
      </trkpt>
      <trkpt lat="44.68438" lon="5.39161">
        <ele>509</ele>
        <time>2020-05-21T11:27:20Z</time>
      </trkpt>
      <trkpt lat="44.6836" lon="5.39179">
        <ele>509</ele>
        <time>2020-05-21T11:27:23Z</time>
      </trkpt>
      <trkpt lat="44.68288" lon="5.39196">
        <ele>509</ele>
        <time>2020-05-21T11:27:26Z</time>
      </trkpt>
      <trkpt lat="44.68217" lon="5.39211">
        <ele>510</ele>
        <time>2020-05-21T11:27:29Z</time>
      </trkpt>
      <trkpt lat="44.68144" lon="5.39227">
        <ele>511</ele>
        <time>2020-05-21T11:27:33Z</time>
      </trkpt>
      <trkpt lat="44.68068" lon="5.39244">
        <ele>512</ele>
        <time>2020-05-21T11:27:36Z</time>
      </trkpt>
      <trkpt lat="44.67993" lon="5.3926">
        <ele>513</ele>
        <time>2020-05-21T11:27:39Z</time>
      </trkpt>
      <trkpt lat="44.67914" lon="5.39282">
        <ele>513</ele>
        <time>2020-05-21T11:27:42Z</time>
      </trkpt>
      <trkpt lat="44.67829" lon="5.39323">
        <ele>514</ele>
        <time>2020-05-21T11:27:45Z</time>
      </trkpt>
      <trkpt lat="44.67779" lon="5.39351">
        <ele>514</ele>
        <time>2020-05-21T11:27:48Z</time>
      </trkpt>
      <trkpt lat="44.6771" lon="5.3939">
        <ele>515</ele>
        <time>2020-05-21T11:27:51Z</time>
      </trkpt>
      <trkpt lat="44.6765" lon="5.3944">
        <ele>515</ele>
        <time>2020-05-21T11:27:54Z</time>
      </trkpt>
      <trkpt lat="44.67587" lon="5.39537">
        <ele>516</ele>
        <time>2020-05-21T11:27:57Z</time>
      </trkpt>
      <trkpt lat="44.67534" lon="5.39657">
        <ele>516</ele>
        <time>2020-05-21T11:28:01Z</time>
      </trkpt>
      <trkpt lat="44.67494" lon="5.39748">
        <ele>516</ele>
        <time>2020-05-21T11:28:04Z</time>
      </trkpt>
      <trkpt lat="44.67457" lon="5.39835">
        <ele>517</ele>
        <time>2020-05-21T11:28:07Z</time>
      </trkpt>
      <trkpt lat="44.6742" lon="5.39921">
        <ele>518</ele>
        <time>2020-05-21T11:28:10Z</time>
      </trkpt>
      <trkpt lat="44.67373" lon="5.4003">
        <ele>519</ele>
        <time>2020-05-21T11:28:14Z</time>
      </trkpt>
      <trkpt lat="44.67351" lon="5.40083">
        <ele>520</ele>
        <time>2020-05-21T11:28:17Z</time>
      </trkpt>
      <trkpt lat="44.67319" lon="5.4016">
        <ele>520</ele>
        <time>2020-05-21T11:28:20Z</time>
      </trkpt>
      <trkpt lat="44.67258" lon="5.40244">
        <ele>520</ele>
        <time>2020-05-21T11:28:24Z</time>
      </trkpt>
      <trkpt lat="44.67195" lon="5.4027">
        <ele>520</ele>
        <time>2020-05-21T11:28:27Z</time>
      </trkpt>
      <trkpt lat="44.67132" lon="5.4029">
        <ele>521</ele>
        <time>2020-05-21T11:28:30Z</time>
      </trkpt>
      <trkpt lat="44.67047" lon="5.40317">
        <ele>521</ele>
        <time>2020-05-21T11:28:34Z</time>
      </trkpt>
      <trkpt lat="44.66962" lon="5.40343">
        <ele>522</ele>
        <time>2020-05-21T11:28:38Z</time>
      </trkpt>
      <trkpt lat="44.66897" lon="5.40363">
        <ele>523</ele>
        <time>2020-05-21T11:28:41Z</time>
      </trkpt>
      <trkpt lat="44.66832" lon="5.40383">
        <ele>524</ele>
        <time>2020-05-21T11:28:44Z</time>
      </trkpt>
      <trkpt lat="44.66745" lon="5.4041">
        <ele>524</ele>
        <time>2020-05-21T11:28:48Z</time>
      </trkpt>
      <trkpt lat="44.66702" lon="5.40423">
        <ele>525</ele>
        <time>2020-05-21T11:28:51Z</time>
      </trkpt>
      <trkpt lat="44.66617" lon="5.40453">
        <ele>525</ele>
        <time>2020-05-21T11:28:55Z</time>
      </trkpt>
      <trkpt lat="44.66558" lon="5.40496">
        <ele>526</ele>
        <time>2020-05-21T11:28:58Z</time>
      </trkpt>
      <trkpt lat="44.66499" lon="5.4054">
        <ele>526</ele>
        <time>2020-05-21T11:29:02Z</time>
      </trkpt>
      <trkpt lat="44.66418" lon="5.40602">
        <ele>527</ele>
        <time>2020-05-21T11:29:05Z</time>
      </trkpt>
      <trkpt lat="44.66352" lon="5.40651">
        <ele>527</ele>
        <time>2020-05-21T11:29:08Z</time>
      </trkpt>
      <trkpt lat="44.6629" lon="5.40698">
        <ele>528</ele>
        <time>2020-05-21T11:29:12Z</time>
      </trkpt>
      <trkpt lat="44.66217" lon="5.40754">
        <ele>528</ele>
        <time>2020-05-21T11:29:15Z</time>
      </trkpt>
      <trkpt lat="44.66161" lon="5.40797">
        <ele>529</ele>
        <time>2020-05-21T11:29:18Z</time>
      </trkpt>
      <trkpt lat="44.66109" lon="5.40837">
        <ele>530</ele>
        <time>2020-05-21T11:29:21Z</time>
      </trkpt>
      <trkpt lat="44.66076" lon="5.40862">
        <ele>530</ele>
        <time>2020-05-21T11:29:24Z</time>
      </trkpt>
      <trkpt lat="44.66025" lon="5.409">
        <ele>531</ele>
        <time>2020-05-21T11:29:28Z</time>
      </trkpt>
      <trkpt lat="44.65957" lon="5.40952">
        <ele>531</ele>
        <time>2020-05-21T11:29:31Z</time>
      </trkpt>
      <trkpt lat="44.65905" lon="5.40991">
        <ele>532</ele>
        <time>2020-05-21T11:29:35Z</time>
      </trkpt>
      <trkpt lat="44.65833" lon="5.41046">
        <ele>533</ele>
        <time>2020-05-21T11:29:38Z</time>
      </trkpt>
      <trkpt lat="44.65783" lon="5.41084">
        <ele>534</ele>
        <time>2020-05-21T11:29:41Z</time>
      </trkpt>
      <trkpt lat="44.65737" lon="5.41111">
        <ele>535</ele>
        <time>2020-05-21T11:29:44Z</time>
      </trkpt>
      <trkpt lat="44.65685" lon="5.41135">
        <ele>535</ele>
        <time>2020-05-21T11:29:48Z</time>
      </trkpt>
      <trkpt lat="44.65652" lon="5.4115">
        <ele>536</ele>
        <time>2020-05-21T11:29:51Z</time>
      </trkpt>
      <trkpt lat="44.6561" lon="5.4117">
        <ele>536</ele>
        <time>2020-05-21T11:29:54Z</time>
      </trkpt>
      <trkpt lat="44.65572" lon="5.41185">
        <ele>537</ele>
        <time>2020-05-21T11:29:57Z</time>
      </trkpt>
      <trkpt lat="44.65546" lon="5.41192">
        <ele>537</ele>
        <time>2020-05-21T11:30:00Z</time>
      </trkpt>
      <trkpt lat="44.65527" lon="5.41196">
        <ele>538</ele>
        <time>2020-05-21T11:30:03Z</time>
      </trkpt>
      <trkpt lat="44.65486" lon="5.41229">
        <ele>539</ele>
        <time>2020-05-21T11:30:06Z</time>
      </trkpt>
      <trkpt lat="44.65446" lon="5.41248">
        <ele>541</ele>
        <time>2020-05-21T11:30:09Z</time>
      </trkpt>
      <trkpt lat="44.65403" lon="5.41268">
        <ele>542</ele>
        <time>2020-05-21T11:30:12Z</time>
      </trkpt>
      <trkpt lat="44.6535" lon="5.41293">
        <ele>543</ele>
        <time>2020-05-21T11:30:15Z</time>
      </trkpt>
      <trkpt lat="44.6531" lon="5.41311">
        <ele>544</ele>
        <time>2020-05-21T11:30:18Z</time>
      </trkpt>
      <trkpt lat="44.65285" lon="5.41323">
        <ele>545</ele>
        <time>2020-05-21T11:30:22Z</time>
      </trkpt>
      <trkpt lat="44.6524" lon="5.41344">
        <ele>546</ele>
        <time>2020-05-21T11:30:25Z</time>
      </trkpt>
      <trkpt lat="44.65198" lon="5.41368">
        <ele>547</ele>
        <time>2020-05-21T11:30:28Z</time>
      </trkpt>
      <trkpt lat="44.65148" lon="5.41414">
        <ele>548</ele>
        <time>2020-05-21T11:30:31Z</time>
      </trkpt>
      <trkpt lat="44.65117" lon="5.41453">
        <ele>549</ele>
        <time>2020-05-21T11:30:34Z</time>
      </trkpt>
      <trkpt lat="44.65081" lon="5.415">
        <ele>549</ele>
        <time>2020-05-21T11:30:37Z</time>
      </trkpt>
      <trkpt lat="44.65041" lon="5.41553">
        <ele>549</ele>
        <time>2020-05-21T11:30:40Z</time>
      </trkpt>
      <trkpt lat="44.65003" lon="5.41601">
        <ele>548</ele>
        <time>2020-05-21T11:30:43Z</time>
      </trkpt>
      <trkpt lat="44.64951" lon="5.41643">
        <ele>549</ele>
        <time>2020-05-21T11:30:46Z</time>
      </trkpt>
      <trkpt lat="44.64879" lon="5.41678">
        <ele>549</ele>
        <time>2020-05-21T11:30:49Z</time>
      </trkpt>
      <trkpt lat="44.64814" lon="5.41718">
        <ele>550</ele>
        <time>2020-05-21T11:30:52Z</time>
      </trkpt>
      <trkpt lat="44.64742" lon="5.41768">
        <ele>551</ele>
        <time>2020-05-21T11:30:55Z</time>
      </trkpt>
      <trkpt lat="44.64677" lon="5.41807">
        <ele>553</ele>
        <time>2020-05-21T11:30:58Z</time>
      </trkpt>
      <trkpt lat="44.64612" lon="5.41851">
        <ele>554</ele>
        <time>2020-05-21T11:31:01Z</time>
      </trkpt>
      <trkpt lat="44.64551" lon="5.41898">
        <ele>555</ele>
        <time>2020-05-21T11:31:04Z</time>
      </trkpt>
      <trkpt lat="44.64493" lon="5.41942">
        <ele>556</ele>
        <time>2020-05-21T11:31:08Z</time>
      </trkpt>
      <trkpt lat="44.64435" lon="5.41983">
        <ele>557</ele>
        <time>2020-05-21T11:31:11Z</time>
      </trkpt>
      <trkpt lat="44.64377" lon="5.42023">
        <ele>557</ele>
        <time>2020-05-21T11:31:14Z</time>
      </trkpt>
      <trkpt lat="44.64308" lon="5.42072">
        <ele>558</ele>
        <time>2020-05-21T11:31:17Z</time>
      </trkpt>
      <trkpt lat="44.64234" lon="5.42124">
        <ele>558</ele>
        <time>2020-05-21T11:31:20Z</time>
      </trkpt>
      <trkpt lat="44.64164" lon="5.42173">
        <ele>558</ele>
        <time>2020-05-21T11:31:23Z</time>
      </trkpt>
      <trkpt lat="44.64101" lon="5.42227">
        <ele>559</ele>
        <time>2020-05-21T11:31:26Z</time>
      </trkpt>
      <trkpt lat="44.64042" lon="5.42293">
        <ele>559</ele>
        <time>2020-05-21T11:31:29Z</time>
      </trkpt>
      <trkpt lat="44.63984" lon="5.42358">
        <ele>560</ele>
        <time>2020-05-21T11:31:33Z</time>
      </trkpt>
      <trkpt lat="44.63906" lon="5.42441">
        <ele>560</ele>
        <time>2020-05-21T11:31:36Z</time>
      </trkpt>
      <trkpt lat="44.63841" lon="5.42496">
        <ele>561</ele>
        <time>2020-05-21T11:31:39Z</time>
      </trkpt>
      <trkpt lat="44.63777" lon="5.42543">
        <ele>561</ele>
        <time>2020-05-21T11:31:42Z</time>
      </trkpt>
      <trkpt lat="44.63688" lon="5.42607">
        <ele>562</ele>
        <time>2020-05-21T11:31:46Z</time>
      </trkpt>
      <trkpt lat="44.63627" lon="5.42643">
        <ele>562</ele>
        <time>2020-05-21T11:31:49Z</time>
      </trkpt>
      <trkpt lat="44.63578" lon="5.42672">
        <ele>563</ele>
        <time>2020-05-21T11:31:53Z</time>
      </trkpt>
      <trkpt lat="44.63528" lon="5.42705">
        <ele>563</ele>
        <time>2020-05-21T11:31:56Z</time>
      </trkpt>
      <trkpt lat="44.63477" lon="5.42742">
        <ele>564</ele>
        <time>2020-05-21T11:31:59Z</time>
      </trkpt>
      <trkpt lat="44.63426" lon="5.42779">
        <ele>564</ele>
        <time>2020-05-21T11:32:02Z</time>
      </trkpt>
      <trkpt lat="44.63376" lon="5.42816">
        <ele>565</ele>
        <time>2020-05-21T11:32:05Z</time>
      </trkpt>
      <trkpt lat="44.63333" lon="5.42849">
        <ele>566</ele>
        <time>2020-05-21T11:32:08Z</time>
      </trkpt>
      <trkpt lat="44.63292" lon="5.42883">
        <ele>566</ele>
        <time>2020-05-21T11:32:12Z</time>
      </trkpt>
      <trkpt lat="44.63239" lon="5.42926">
        <ele>567</ele>
        <time>2020-05-21T11:32:15Z</time>
      </trkpt>
      <trkpt lat="44.63203" lon="5.42958">
        <ele>568</ele>
        <time>2020-05-21T11:32:18Z</time>
      </trkpt>
      <trkpt lat="44.6317" lon="5.42993">
        <ele>568</ele>
        <time>2020-05-21T11:32:21Z</time>
      </trkpt>
      <trkpt lat="44.63131" lon="5.43034">
        <ele>569</ele>
        <time>2020-05-21T11:32:24Z</time>
      </trkpt>
      <trkpt lat="44.63096" lon="5.43072">
        <ele>570</ele>
        <time>2020-05-21T11:32:27Z</time>
      </trkpt>
      <trkpt lat="44.63073" lon="5.43097">
        <ele>571</ele>
        <time>2020-05-21T11:32:30Z</time>
      </trkpt>
      <trkpt lat="44.6304" lon="5.43133">
        <ele>571</ele>
        <time>2020-05-21T11:32:34Z</time>
      </trkpt>
      <trkpt lat="44.62993" lon="5.43182">
        <ele>571</ele>
        <time>2020-05-21T11:32:37Z</time>
      </trkpt>
      <trkpt lat="44.62957" lon="5.43221">
        <ele>572</ele>
        <time>2020-05-21T11:32:40Z</time>
      </trkpt>
      <trkpt lat="44.62921" lon="5.4326">
        <ele>572</ele>
        <time>2020-05-21T11:32:43Z</time>
      </trkpt>
      <trkpt lat="44.62879" lon="5.43304">
        <ele>573</ele>
        <time>2020-05-21T11:32:46Z</time>
      </trkpt>
      <trkpt lat="44.62823" lon="5.43364">
        <ele>573</ele>
        <time>2020-05-21T11:32:49Z</time>
      </trkpt>
      <trkpt lat="44.62765" lon="5.43426">
        <ele>574</ele>
        <time>2020-05-21T11:32:53Z</time>
      </trkpt>
      <trkpt lat="44.62691" lon="5.43505">
        <ele>574</ele>
        <time>2020-05-21T11:32:56Z</time>
      </trkpt>
      <trkpt lat="44.62635" lon="5.43565">
        <ele>575</ele>
        <time>2020-05-21T11:32:59Z</time>
      </trkpt>
      <trkpt lat="44.62576" lon="5.43628">
        <ele>575</ele>
        <time>2020-05-21T11:33:02Z</time>
      </trkpt>
      <trkpt lat="44.62508" lon="5.437">
        <ele>576</ele>
        <time>2020-05-21T11:33:05Z</time>
      </trkpt>
      <trkpt lat="44.62456" lon="5.43756">
        <ele>577</ele>
        <time>2020-05-21T11:33:08Z</time>
      </trkpt>
      <trkpt lat="44.62397" lon="5.4382">
        <ele>577</ele>
        <time>2020-05-21T11:33:11Z</time>
      </trkpt>
      <trkpt lat="44.62339" lon="5.43882">
        <ele>577</ele>
        <time>2020-05-21T11:33:14Z</time>
      </trkpt>
      <trkpt lat="44.62282" lon="5.43944">
        <ele>577</ele>
        <time>2020-05-21T11:33:17Z</time>
      </trkpt>
      <trkpt lat="44.62225" lon="5.44005">
        <ele>578</ele>
        <time>2020-05-21T11:33:20Z</time>
      </trkpt>
      <trkpt lat="44.62169" lon="5.44065">
        <ele>579</ele>
        <time>2020-05-21T11:33:23Z</time>
      </trkpt>
      <trkpt lat="44.62112" lon="5.44126">
        <ele>580</ele>
        <time>2020-05-21T11:33:27Z</time>
      </trkpt>
      <trkpt lat="44.62071" lon="5.44171">
        <ele>579</ele>
        <time>2020-05-21T11:33:30Z</time>
      </trkpt>
      <trkpt lat="44.62008" lon="5.44239">
        <ele>580</ele>
        <time>2020-05-21T11:33:33Z</time>
      </trkpt>
      <trkpt lat="44.61951" lon="5.44301">
        <ele>580</ele>
        <time>2020-05-21T11:33:36Z</time>
      </trkpt>
      <trkpt lat="44.61904" lon="5.44357">
        <ele>580</ele>
        <time>2020-05-21T11:33:39Z</time>
      </trkpt>
      <trkpt lat="44.6188" lon="5.44424">
        <ele>581</ele>
        <time>2020-05-21T11:33:42Z</time>
      </trkpt>
      <trkpt lat="44.61867" lon="5.44499">
        <ele>581</ele>
        <time>2020-05-21T11:33:45Z</time>
      </trkpt>
      <trkpt lat="44.61835" lon="5.4458">
        <ele>582</ele>
        <time>2020-05-21T11:33:48Z</time>
      </trkpt>
      <trkpt lat="44.61807" lon="5.44645">
        <ele>582</ele>
        <time>2020-05-21T11:33:51Z</time>
      </trkpt>
      <trkpt lat="44.61785" lon="5.44699">
        <ele>583</ele>
        <time>2020-05-21T11:33:54Z</time>
      </trkpt>
      <trkpt lat="44.61767" lon="5.44743">
        <ele>584</ele>
        <time>2020-05-21T11:33:57Z</time>
      </trkpt>
      <trkpt lat="44.61748" lon="5.44788">
        <ele>586</ele>
        <time>2020-05-21T11:34:00Z</time>
      </trkpt>
      <trkpt lat="44.61737" lon="5.44816">
        <ele>588</ele>
        <time>2020-05-21T11:34:03Z</time>
      </trkpt>
      <trkpt lat="44.6171" lon="5.44878">
        <ele>590</ele>
        <time>2020-05-21T11:34:06Z</time>
      </trkpt>
      <trkpt lat="44.61691" lon="5.44926">
        <ele>591</ele>
        <time>2020-05-21T11:34:09Z</time>
      </trkpt>
      <trkpt lat="44.61663" lon="5.44992">
        <ele>592</ele>
        <time>2020-05-21T11:34:13Z</time>
      </trkpt>
      <trkpt lat="44.61643" lon="5.4504">
        <ele>593</ele>
        <time>2020-05-21T11:34:16Z</time>
      </trkpt>
      <trkpt lat="44.61629" lon="5.45075">
        <ele>594</ele>
        <time>2020-05-21T11:34:19Z</time>
      </trkpt>
      <trkpt lat="44.61616" lon="5.45105">
        <ele>595</ele>
        <time>2020-05-21T11:34:23Z</time>
      </trkpt>
      <trkpt lat="44.61595" lon="5.45137">
        <ele>596</ele>
        <time>2020-05-21T11:34:26Z</time>
      </trkpt>
      <trkpt lat="44.6157" lon="5.45169">
        <ele>597</ele>
        <time>2020-05-21T11:34:29Z</time>
      </trkpt>
      <trkpt lat="44.61549" lon="5.45196">
        <ele>598</ele>
        <time>2020-05-21T11:34:32Z</time>
      </trkpt>
      <trkpt lat="44.61524" lon="5.45225">
        <ele>599</ele>
        <time>2020-05-21T11:34:35Z</time>
      </trkpt>
      <trkpt lat="44.61505" lon="5.45251">
        <ele>600</ele>
        <time>2020-05-21T11:34:38Z</time>
      </trkpt>
      <trkpt lat="44.61471" lon="5.45269">
        <ele>600</ele>
        <time>2020-05-21T11:34:41Z</time>
      </trkpt>
      <trkpt lat="44.61444" lon="5.4528">
        <ele>599</ele>
        <time>2020-05-21T11:34:44Z</time>
      </trkpt>
      <trkpt lat="44.61416" lon="5.4529">
        <ele>599</ele>
        <time>2020-05-21T11:34:47Z</time>
      </trkpt>
      <trkpt lat="44.61386" lon="5.45296">
        <ele>597</ele>
        <time>2020-05-21T11:34:51Z</time>
      </trkpt>
      <trkpt lat="44.61355" lon="5.453">
        <ele>597</ele>
        <time>2020-05-21T11:34:54Z</time>
      </trkpt>
      <trkpt lat="44.6132" lon="5.45304">
        <ele>598</ele>
        <time>2020-05-21T11:34:57Z</time>
      </trkpt>
      <trkpt lat="44.61288" lon="5.45305">
        <ele>598</ele>
        <time>2020-05-21T11:35:00Z</time>
      </trkpt>
      <trkpt lat="44.61253" lon="5.45299">
        <ele>599</ele>
        <time>2020-05-21T11:35:03Z</time>
      </trkpt>
      <trkpt lat="44.61207" lon="5.45286">
        <ele>600</ele>
        <time>2020-05-21T11:35:07Z</time>
      </trkpt>
      <trkpt lat="44.61173" lon="5.45274">
        <ele>601</ele>
        <time>2020-05-21T11:35:10Z</time>
      </trkpt>
      <trkpt lat="44.61136" lon="5.45258">
        <ele>602</ele>
        <time>2020-05-21T11:35:13Z</time>
      </trkpt>
      <trkpt lat="44.61091" lon="5.4523">
        <ele>604</ele>
        <time>2020-05-21T11:35:17Z</time>
      </trkpt>
      <trkpt lat="44.61044" lon="5.45222">
        <ele>605</ele>
        <time>2020-05-21T11:35:21Z</time>
      </trkpt>
      <trkpt lat="44.61008" lon="5.45235">
        <ele>606</ele>
        <time>2020-05-21T11:35:24Z</time>
      </trkpt>
      <trkpt lat="44.60982" lon="5.45277">
        <ele>606</ele>
        <time>2020-05-21T11:35:27Z</time>
      </trkpt>
      <trkpt lat="44.60969" lon="5.4531">
        <ele>607</ele>
        <time>2020-05-21T11:35:30Z</time>
      </trkpt>
      <trkpt lat="44.60941" lon="5.45349">
        <ele>607</ele>
        <time>2020-05-21T11:35:33Z</time>
      </trkpt>
      <trkpt lat="44.60893" lon="5.45374">
        <ele>608</ele>
        <time>2020-05-21T11:35:36Z</time>
      </trkpt>
      <trkpt lat="44.60847" lon="5.45375">
        <ele>608</ele>
        <time>2020-05-21T11:35:39Z</time>
      </trkpt>
      <trkpt lat="44.60804" lon="5.45365">
        <ele>609</ele>
        <time>2020-05-21T11:35:42Z</time>
      </trkpt>
      <trkpt lat="44.60748" lon="5.45383">
        <ele>610</ele>
        <time>2020-05-21T11:35:45Z</time>
      </trkpt>
      <trkpt lat="44.60698" lon="5.45418">
        <ele>612</ele>
        <time>2020-05-21T11:35:49Z</time>
      </trkpt>
      <trkpt lat="44.60651" lon="5.4547">
        <ele>613</ele>
        <time>2020-05-21T11:35:52Z</time>
      </trkpt>
      <trkpt lat="44.60601" lon="5.45504">
        <ele>614</ele>
        <time>2020-05-21T11:35:55Z</time>
      </trkpt>
      <trkpt lat="44.6054" lon="5.45533">
        <ele>615</ele>
        <time>2020-05-21T11:35:58Z</time>
      </trkpt>
      <trkpt lat="44.60505" lon="5.45554">
        <ele>615</ele>
        <time>2020-05-21T11:36:01Z</time>
      </trkpt>
      <trkpt lat="44.6045" lon="5.45612">
        <ele>617</ele>
        <time>2020-05-21T11:36:04Z</time>
      </trkpt>
      <trkpt lat="44.60381" lon="5.45698">
        <ele>620</ele>
        <time>2020-05-21T11:36:07Z</time>
      </trkpt>
      <trkpt lat="44.60336" lon="5.45752">
        <ele>621</ele>
        <time>2020-05-21T11:36:10Z</time>
      </trkpt>
      <trkpt lat="44.60293" lon="5.45796">
        <ele>622</ele>
        <time>2020-05-21T11:36:13Z</time>
      </trkpt>
      <trkpt lat="44.60258" lon="5.45827">
        <ele>623</ele>
        <time>2020-05-21T11:36:16Z</time>
      </trkpt>
      <trkpt lat="44.60237" lon="5.45862">
        <ele>624</ele>
        <time>2020-05-21T11:36:19Z</time>
      </trkpt>
      <trkpt lat="44.60206" lon="5.45886">
        <ele>625</ele>
        <time>2020-05-21T11:36:22Z</time>
      </trkpt>
      <trkpt lat="44.60178" lon="5.45898">
        <ele>626</ele>
        <time>2020-05-21T11:36:25Z</time>
      </trkpt>
      <trkpt lat="44.6015" lon="5.45884">
        <ele>625</ele>
        <time>2020-05-21T11:36:28Z</time>
      </trkpt>
      <trkpt lat="44.60134" lon="5.45864">
        <ele>626</ele>
        <time>2020-05-21T11:36:31Z</time>
      </trkpt>
      <trkpt lat="44.60105" lon="5.45843">
        <ele>627</ele>
        <time>2020-05-21T11:36:34Z</time>
      </trkpt>
      <trkpt lat="44.60052" lon="5.45849">
        <ele>629</ele>
        <time>2020-05-21T11:36:38Z</time>
      </trkpt>
      <trkpt lat="44.60016" lon="5.45872">
        <ele>630</ele>
        <time>2020-05-21T11:36:41Z</time>
      </trkpt>
      <trkpt lat="44.59982" lon="5.45895">
        <ele>632</ele>
        <time>2020-05-21T11:36:45Z</time>
      </trkpt>
      <trkpt lat="44.59934" lon="5.459">
        <ele>632</ele>
        <time>2020-05-21T11:36:48Z</time>
      </trkpt>
      <trkpt lat="44.59873" lon="5.45895">
        <ele>634</ele>
        <time>2020-05-21T11:36:51Z</time>
      </trkpt>
      <trkpt lat="44.59833" lon="5.45911">
        <ele>635</ele>
        <time>2020-05-21T11:36:54Z</time>
      </trkpt>
      <trkpt lat="44.59802" lon="5.45955">
        <ele>638</ele>
        <time>2020-05-21T11:36:57Z</time>
      </trkpt>
      <trkpt lat="44.59792" lon="5.46039">
        <ele>642</ele>
        <time>2020-05-21T11:37:00Z</time>
      </trkpt>
      <trkpt lat="44.59789" lon="5.46102">
        <ele>644</ele>
        <time>2020-05-21T11:37:03Z</time>
      </trkpt>
      <trkpt lat="44.59795" lon="5.46178">
        <ele>647</ele>
        <time>2020-05-21T11:37:06Z</time>
      </trkpt>
      <trkpt lat="44.59824" lon="5.46257">
        <ele>649</ele>
        <time>2020-05-21T11:37:09Z</time>
      </trkpt>
      <trkpt lat="44.59866" lon="5.46318">
        <ele>650</ele>
        <time>2020-05-21T11:37:13Z</time>
      </trkpt>
      <trkpt lat="44.59907" lon="5.46351">
        <ele>651</ele>
        <time>2020-05-21T11:37:16Z</time>
      </trkpt>
      <trkpt lat="44.59953" lon="5.46352">
        <ele>652</ele>
        <time>2020-05-21T11:37:19Z</time>
      </trkpt>
      <trkpt lat="44.6" lon="5.46333">
        <ele>653</ele>
        <time>2020-05-21T11:37:22Z</time>
      </trkpt>
      <trkpt lat="44.60048" lon="5.46287">
        <ele>655</ele>
        <time>2020-05-21T11:37:25Z</time>
      </trkpt>
      <trkpt lat="44.60089" lon="5.46247">
        <ele>656</ele>
        <time>2020-05-21T11:37:28Z</time>
      </trkpt>
      <trkpt lat="44.60134" lon="5.46217">
        <ele>658</ele>
        <time>2020-05-21T11:37:31Z</time>
      </trkpt>
      <trkpt lat="44.60168" lon="5.46223">
        <ele>659</ele>
        <time>2020-05-21T11:37:34Z</time>
      </trkpt>
      <trkpt lat="44.6021" lon="5.46237">
        <ele>660</ele>
        <time>2020-05-21T11:37:37Z</time>
      </trkpt>
      <trkpt lat="44.60239" lon="5.46255">
        <ele>660</ele>
        <time>2020-05-21T11:37:40Z</time>
      </trkpt>
      <trkpt lat="44.60271" lon="5.46301">
        <ele>660</ele>
        <time>2020-05-21T11:37:43Z</time>
      </trkpt>
      <trkpt lat="44.60283" lon="5.4638">
        <ele>661</ele>
        <time>2020-05-21T11:37:46Z</time>
      </trkpt>
      <trkpt lat="44.60268" lon="5.46448">
        <ele>662</ele>
        <time>2020-05-21T11:37:50Z</time>
      </trkpt>
      <trkpt lat="44.6023" lon="5.46507">
        <ele>663</ele>
        <time>2020-05-21T11:37:53Z</time>
      </trkpt>
      <trkpt lat="44.60177" lon="5.46558">
        <ele>664</ele>
        <time>2020-05-21T11:37:56Z</time>
      </trkpt>
      <trkpt lat="44.60087" lon="5.46637">
        <ele>665</ele>
        <time>2020-05-21T11:37:59Z</time>
      </trkpt>
      <trkpt lat="44.60022" lon="5.46694">
        <ele>665</ele>
        <time>2020-05-21T11:38:02Z</time>
      </trkpt>
      <trkpt lat="44.59948" lon="5.4676">
        <ele>666</ele>
        <time>2020-05-21T11:38:05Z</time>
      </trkpt>
      <trkpt lat="44.59857" lon="5.46842">
        <ele>667</ele>
        <time>2020-05-21T11:38:08Z</time>
      </trkpt>
      <trkpt lat="44.59813" lon="5.4688">
        <ele>668</ele>
        <time>2020-05-21T11:38:11Z</time>
      </trkpt>
      <trkpt lat="44.59743" lon="5.46942">
        <ele>670</ele>
        <time>2020-05-21T11:38:14Z</time>
      </trkpt>
      <trkpt lat="44.59679" lon="5.46999">
        <ele>671</ele>
        <time>2020-05-21T11:38:17Z</time>
      </trkpt>
      <trkpt lat="44.5961" lon="5.47061">
        <ele>672</ele>
        <time>2020-05-21T11:38:20Z</time>
      </trkpt>
      <trkpt lat="44.59552" lon="5.4711">
        <ele>674</ele>
        <time>2020-05-21T11:38:23Z</time>
      </trkpt>
      <trkpt lat="44.59501" lon="5.47145">
        <ele>675</ele>
        <time>2020-05-21T11:38:26Z</time>
      </trkpt>
      <trkpt lat="44.59461" lon="5.4717">
        <ele>677</ele>
        <time>2020-05-21T11:38:29Z</time>
      </trkpt>
      <trkpt lat="44.59405" lon="5.47234">
        <ele>677</ele>
        <time>2020-05-21T11:38:32Z</time>
      </trkpt>
      <trkpt lat="44.59338" lon="5.47307">
        <ele>677</ele>
        <time>2020-05-21T11:38:35Z</time>
      </trkpt>
      <trkpt lat="44.59258" lon="5.47379">
        <ele>678</ele>
        <time>2020-05-21T11:38:38Z</time>
      </trkpt>
      <trkpt lat="44.59165" lon="5.47462">
        <ele>679</ele>
        <time>2020-05-21T11:38:41Z</time>
      </trkpt>
      <trkpt lat="44.59091" lon="5.47528">
        <ele>680</ele>
        <time>2020-05-21T11:38:44Z</time>
      </trkpt>
      <trkpt lat="44.59048" lon="5.47566">
        <ele>681</ele>
        <time>2020-05-21T11:38:47Z</time>
      </trkpt>
      <trkpt lat="44.58978" lon="5.47629">
        <ele>682</ele>
        <time>2020-05-21T11:38:50Z</time>
      </trkpt>
      <trkpt lat="44.58907" lon="5.47691">
        <ele>682</ele>
        <time>2020-05-21T11:38:54Z</time>
      </trkpt>
      <trkpt lat="44.58829" lon="5.47756">
        <ele>683</ele>
        <time>2020-05-21T11:38:57Z</time>
      </trkpt>
      <trkpt lat="44.5872" lon="5.47842">
        <ele>682</ele>
        <time>2020-05-21T11:39:00Z</time>
      </trkpt>
      <trkpt lat="44.58652" lon="5.47895">
        <ele>681</ele>
        <time>2020-05-21T11:39:03Z</time>
      </trkpt>
      <trkpt lat="44.58571" lon="5.47959">
        <ele>681</ele>
        <time>2020-05-21T11:39:06Z</time>
      </trkpt>
      <trkpt lat="44.58502" lon="5.48013">
        <ele>681</ele>
        <time>2020-05-21T11:39:09Z</time>
      </trkpt>
      <trkpt lat="44.58405" lon="5.48088">
        <ele>682</ele>
        <time>2020-05-21T11:39:13Z</time>
      </trkpt>
      <trkpt lat="44.58356" lon="5.48124">
        <ele>683</ele>
        <time>2020-05-21T11:39:16Z</time>
      </trkpt>
      <trkpt lat="44.58286" lon="5.48165">
        <ele>684</ele>
        <time>2020-05-21T11:39:20Z</time>
      </trkpt>
      <trkpt lat="44.58218" lon="5.48196">
        <ele>685</ele>
        <time>2020-05-21T11:39:23Z</time>
      </trkpt>
      <trkpt lat="44.58126" lon="5.48268">
        <ele>686</ele>
        <time>2020-05-21T11:39:26Z</time>
      </trkpt>
      <trkpt lat="44.58061" lon="5.48331">
        <ele>686</ele>
        <time>2020-05-21T11:39:29Z</time>
      </trkpt>
      <trkpt lat="44.58007" lon="5.48394">
        <ele>687</ele>
        <time>2020-05-21T11:39:33Z</time>
      </trkpt>
      <trkpt lat="44.5796" lon="5.48453">
        <ele>688</ele>
        <time>2020-05-21T11:39:36Z</time>
      </trkpt>
      <trkpt lat="44.57918" lon="5.48531">
        <ele>689</ele>
        <time>2020-05-21T11:39:39Z</time>
      </trkpt>
      <trkpt lat="44.5788" lon="5.48625">
        <ele>689</ele>
        <time>2020-05-21T11:39:42Z</time>
      </trkpt>
      <trkpt lat="44.5784" lon="5.48726">
        <ele>689</ele>
        <time>2020-05-21T11:39:45Z</time>
      </trkpt>
      <trkpt lat="44.57794" lon="5.48841">
        <ele>689</ele>
        <time>2020-05-21T11:39:48Z</time>
      </trkpt>
      <trkpt lat="44.57746" lon="5.48965">
        <ele>689</ele>
        <time>2020-05-21T11:39:51Z</time>
      </trkpt>
      <trkpt lat="44.57694" lon="5.49099">
        <ele>689</ele>
        <time>2020-05-21T11:39:54Z</time>
      </trkpt>
      <trkpt lat="44.57639" lon="5.49241">
        <ele>690</ele>
        <time>2020-05-21T11:39:57Z</time>
      </trkpt>
      <trkpt lat="44.57591" lon="5.49364">
        <ele>690</ele>
        <time>2020-05-21T11:40:00Z</time>
      </trkpt>
      <trkpt lat="44.5754" lon="5.49496">
        <ele>690</ele>
        <time>2020-05-21T11:40:03Z</time>
      </trkpt>
      <trkpt lat="44.5747" lon="5.49675">
        <ele>690</ele>
        <time>2020-05-21T11:40:07Z</time>
      </trkpt>
      <trkpt lat="44.57419" lon="5.49808">
        <ele>690</ele>
        <time>2020-05-21T11:40:10Z</time>
      </trkpt>
      <trkpt lat="44.57373" lon="5.49923">
        <ele>690</ele>
        <time>2020-05-21T11:40:13Z</time>
      </trkpt>
      <trkpt lat="44.57325" lon="5.5002">
        <ele>691</ele>
        <time>2020-05-21T11:40:16Z</time>
      </trkpt>
      <trkpt lat="44.57268" lon="5.501">
        <ele>692</ele>
        <time>2020-05-21T11:40:19Z</time>
      </trkpt>
      <trkpt lat="44.5723" lon="5.50139">
        <ele>692</ele>
        <time>2020-05-21T11:40:23Z</time>
      </trkpt>
      <trkpt lat="44.57139" lon="5.50209">
        <ele>692</ele>
        <time>2020-05-21T11:40:26Z</time>
      </trkpt>
      <trkpt lat="44.57069" lon="5.50247">
        <ele>692</ele>
        <time>2020-05-21T11:40:29Z</time>
      </trkpt>
      <trkpt lat="44.56996" lon="5.50266">
        <ele>693</ele>
        <time>2020-05-21T11:40:33Z</time>
      </trkpt>
      <trkpt lat="44.56916" lon="5.50276">
        <ele>693</ele>
        <time>2020-05-21T11:40:36Z</time>
      </trkpt>
      <trkpt lat="44.5685" lon="5.50285">
        <ele>693</ele>
        <time>2020-05-21T11:40:39Z</time>
      </trkpt>
      <trkpt lat="44.56802" lon="5.50304">
        <ele>694</ele>
        <time>2020-05-21T11:40:42Z</time>
      </trkpt>
      <trkpt lat="44.56779" lon="5.50342">
        <ele>694</ele>
        <time>2020-05-21T11:40:45Z</time>
      </trkpt>
      <trkpt lat="44.56765" lon="5.50408">
        <ele>694</ele>
        <time>2020-05-21T11:40:48Z</time>
      </trkpt>
      <trkpt lat="44.56751" lon="5.50488">
        <ele>694</ele>
        <time>2020-05-21T11:40:51Z</time>
      </trkpt>
      <trkpt lat="44.56728" lon="5.50581">
        <ele>694</ele>
        <time>2020-05-21T11:40:54Z</time>
      </trkpt>
      <trkpt lat="44.56687" lon="5.50705">
        <ele>695</ele>
        <time>2020-05-21T11:40:57Z</time>
      </trkpt>
      <trkpt lat="44.56655" lon="5.50776">
        <ele>695</ele>
        <time>2020-05-21T11:41:00Z</time>
      </trkpt>
      <trkpt lat="44.56597" lon="5.5088">
        <ele>696</ele>
        <time>2020-05-21T11:41:03Z</time>
      </trkpt>
      <trkpt lat="44.56531" lon="5.5099">
        <ele>696</ele>
        <time>2020-05-21T11:41:06Z</time>
      </trkpt>
      <trkpt lat="44.56476" lon="5.51081">
        <ele>697</ele>
        <time>2020-05-21T11:41:09Z</time>
      </trkpt>
      <trkpt lat="44.5643" lon="5.51156">
        <ele>698</ele>
        <time>2020-05-21T11:41:12Z</time>
      </trkpt>
      <trkpt lat="44.56391" lon="5.51218">
        <ele>698</ele>
        <time>2020-05-21T11:41:15Z</time>
      </trkpt>
      <trkpt lat="44.56331" lon="5.51319">
        <ele>699</ele>
        <time>2020-05-21T11:41:19Z</time>
      </trkpt>
      <trkpt lat="44.56276" lon="5.51409">
        <ele>699</ele>
        <time>2020-05-21T11:41:22Z</time>
      </trkpt>
      <trkpt lat="44.56222" lon="5.51488">
        <ele>699</ele>
        <time>2020-05-21T11:41:25Z</time>
      </trkpt>
      <trkpt lat="44.56162" lon="5.51564">
        <ele>700</ele>
        <time>2020-05-21T11:41:29Z</time>
      </trkpt>
      <trkpt lat="44.56105" lon="5.51635">
        <ele>700</ele>
        <time>2020-05-21T11:41:32Z</time>
      </trkpt>
      <trkpt lat="44.56039" lon="5.51717">
        <ele>701</ele>
        <time>2020-05-21T11:41:35Z</time>
      </trkpt>
      <trkpt lat="44.5598" lon="5.5179">
        <ele>701</ele>
        <time>2020-05-21T11:41:38Z</time>
      </trkpt>
      <trkpt lat="44.55912" lon="5.51874">
        <ele>702</ele>
        <time>2020-05-21T11:41:41Z</time>
      </trkpt>
      <trkpt lat="44.55848" lon="5.51954">
        <ele>702</ele>
        <time>2020-05-21T11:41:44Z</time>
      </trkpt>
      <trkpt lat="44.5578" lon="5.52039">
        <ele>703</ele>
        <time>2020-05-21T11:41:47Z</time>
      </trkpt>
      <trkpt lat="44.55715" lon="5.52123">
        <ele>703</ele>
        <time>2020-05-21T11:41:50Z</time>
      </trkpt>
      <trkpt lat="44.55655" lon="5.52199">
        <ele>704</ele>
        <time>2020-05-21T11:41:53Z</time>
      </trkpt>
      <trkpt lat="44.55615" lon="5.52249">
        <ele>704</ele>
        <time>2020-05-21T11:41:57Z</time>
      </trkpt>
      <trkpt lat="44.55551" lon="5.52319">
        <ele>704</ele>
        <time>2020-05-21T11:42:00Z</time>
      </trkpt>
      <trkpt lat="44.55471" lon="5.52387">
        <ele>705</ele>
        <time>2020-05-21T11:42:03Z</time>
      </trkpt>
      <trkpt lat="44.55399" lon="5.52443">
        <ele>705</ele>
        <time>2020-05-21T11:42:06Z</time>
      </trkpt>
      <trkpt lat="44.55338" lon="5.52491">
        <ele>705</ele>
        <time>2020-05-21T11:42:09Z</time>
      </trkpt>
      <trkpt lat="44.55279" lon="5.52557">
        <ele>705</ele>
        <time>2020-05-21T11:42:12Z</time>
      </trkpt>
      <trkpt lat="44.55256" lon="5.52635">
        <ele>705</ele>
        <time>2020-05-21T11:42:15Z</time>
      </trkpt>
      <trkpt lat="44.55252" lon="5.52759">
        <ele>706</ele>
        <time>2020-05-21T11:42:18Z</time>
      </trkpt>
      <trkpt lat="44.55252" lon="5.52872">
        <ele>706</ele>
        <time>2020-05-21T11:42:21Z</time>
      </trkpt>
      <trkpt lat="44.55252" lon="5.52969">
        <ele>707</ele>
        <time>2020-05-21T11:42:24Z</time>
      </trkpt>
      <trkpt lat="44.55237" lon="5.53057">
        <ele>708</ele>
        <time>2020-05-21T11:42:27Z</time>
      </trkpt>
      <trkpt lat="44.55218" lon="5.53118">
        <ele>710</ele>
        <time>2020-05-21T11:42:30Z</time>
      </trkpt>
      <trkpt lat="44.55188" lon="5.53213">
        <ele>711</ele>
        <time>2020-05-21T11:42:33Z</time>
      </trkpt>
      <trkpt lat="44.55147" lon="5.53328">
        <ele>712</ele>
        <time>2020-05-21T11:42:37Z</time>
      </trkpt>
      <trkpt lat="44.55105" lon="5.5341">
        <ele>713</ele>
        <time>2020-05-21T11:42:40Z</time>
      </trkpt>
      <trkpt lat="44.55056" lon="5.53486">
        <ele>714</ele>
        <time>2020-05-21T11:42:43Z</time>
      </trkpt>
      <trkpt lat="44.55009" lon="5.53554">
        <ele>715</ele>
        <time>2020-05-21T11:42:46Z</time>
      </trkpt>
      <trkpt lat="44.54969" lon="5.53612">
        <ele>716</ele>
        <time>2020-05-21T11:42:49Z</time>
      </trkpt>
      <trkpt lat="44.54953" lon="5.53665">
        <ele>717</ele>
        <time>2020-05-21T11:42:53Z</time>
      </trkpt>
      <trkpt lat="44.54963" lon="5.53712">
        <ele>718</ele>
        <time>2020-05-21T11:42:56Z</time>
      </trkpt>
      <trkpt lat="44.54987" lon="5.5374">
        <ele>719</ele>
        <time>2020-05-21T11:42:59Z</time>
      </trkpt>
      <trkpt lat="44.55042" lon="5.53766">
        <ele>720</ele>
        <time>2020-05-21T11:43:02Z</time>
      </trkpt>
      <trkpt lat="44.551" lon="5.53795">
        <ele>721</ele>
        <time>2020-05-21T11:43:05Z</time>
      </trkpt>
      <trkpt lat="44.55184" lon="5.53835">
        <ele>722</ele>
        <time>2020-05-21T11:43:08Z</time>
      </trkpt>
      <trkpt lat="44.55244" lon="5.53865">
        <ele>723</ele>
        <time>2020-05-21T11:43:12Z</time>
      </trkpt>
      <trkpt lat="44.55318" lon="5.53904">
        <ele>724</ele>
        <time>2020-05-21T11:43:15Z</time>
      </trkpt>
      <trkpt lat="44.55374" lon="5.53947">
        <ele>725</ele>
        <time>2020-05-21T11:43:18Z</time>
      </trkpt>
      <trkpt lat="44.55432" lon="5.53999">
        <ele>725</ele>
        <time>2020-05-21T11:43:21Z</time>
      </trkpt>
      <trkpt lat="44.55492" lon="5.54052">
        <ele>726</ele>
        <time>2020-05-21T11:43:24Z</time>
      </trkpt>
      <trkpt lat="44.55556" lon="5.54109">
        <ele>727</ele>
        <time>2020-05-21T11:43:27Z</time>
      </trkpt>
      <trkpt lat="44.55617" lon="5.54163">
        <ele>728</ele>
        <time>2020-05-21T11:43:30Z</time>
      </trkpt>
      <trkpt lat="44.55651" lon="5.54192">
        <ele>728</ele>
        <time>2020-05-21T11:43:33Z</time>
      </trkpt>
      <trkpt lat="44.55696" lon="5.54205">
        <ele>729</ele>
        <time>2020-05-21T11:43:36Z</time>
      </trkpt>
      <trkpt lat="44.55749" lon="5.54178">
        <ele>730</ele>
        <time>2020-05-21T11:43:39Z</time>
      </trkpt>
      <trkpt lat="44.55809" lon="5.54141">
        <ele>730</ele>
        <time>2020-05-21T11:43:42Z</time>
      </trkpt>
      <trkpt lat="44.5586" lon="5.5411">
        <ele>730</ele>
        <time>2020-05-21T11:43:45Z</time>
      </trkpt>
      <trkpt lat="44.55912" lon="5.54104">
        <ele>730</ele>
        <time>2020-05-21T11:43:49Z</time>
      </trkpt>
      <trkpt lat="44.55986" lon="5.54145">
        <ele>731</ele>
        <time>2020-05-21T11:43:52Z</time>
      </trkpt>
      <trkpt lat="44.56048" lon="5.54183">
        <ele>733</ele>
        <time>2020-05-21T11:43:55Z</time>
      </trkpt>
      <trkpt lat="44.56114" lon="5.54224">
        <ele>734</ele>
        <time>2020-05-21T11:43:58Z</time>
      </trkpt>
      <trkpt lat="44.56166" lon="5.54248">
        <ele>735</ele>
        <time>2020-05-21T11:44:01Z</time>
      </trkpt>
      <trkpt lat="44.5621" lon="5.54248">
        <ele>736</ele>
        <time>2020-05-21T11:44:04Z</time>
      </trkpt>
      <trkpt lat="44.56271" lon="5.54256">
        <ele>737</ele>
        <time>2020-05-21T11:44:07Z</time>
      </trkpt>
      <trkpt lat="44.5632" lon="5.54271">
        <ele>738</ele>
        <time>2020-05-21T11:44:10Z</time>
      </trkpt>
      <trkpt lat="44.56365" lon="5.54319">
        <ele>739</ele>
        <time>2020-05-21T11:44:13Z</time>
      </trkpt>
      <trkpt lat="44.56424" lon="5.54398">
        <ele>740</ele>
        <time>2020-05-21T11:44:16Z</time>
      </trkpt>
      <trkpt lat="44.56483" lon="5.54477">
        <ele>741</ele>
        <time>2020-05-21T11:44:19Z</time>
      </trkpt>
      <trkpt lat="44.56552" lon="5.54568">
        <ele>742</ele>
        <time>2020-05-21T11:44:22Z</time>
      </trkpt>
      <trkpt lat="44.56632" lon="5.54675">
        <ele>744</ele>
        <time>2020-05-21T11:44:26Z</time>
      </trkpt>
      <trkpt lat="44.56678" lon="5.54744">
        <ele>746</ele>
        <time>2020-05-21T11:44:29Z</time>
      </trkpt>
      <trkpt lat="44.56703" lon="5.54807">
        <ele>747</ele>
        <time>2020-05-21T11:44:32Z</time>
      </trkpt>
      <trkpt lat="44.56738" lon="5.54914">
        <ele>748</ele>
        <time>2020-05-21T11:44:35Z</time>
      </trkpt>
      <trkpt lat="44.56774" lon="5.55024">
        <ele>750</ele>
        <time>2020-05-21T11:44:38Z</time>
      </trkpt>
      <trkpt lat="44.56806" lon="5.55122">
        <ele>751</ele>
        <time>2020-05-21T11:44:41Z</time>
      </trkpt>
      <trkpt lat="44.56837" lon="5.55217">
        <ele>752</ele>
        <time>2020-05-21T11:44:45Z</time>
      </trkpt>
      <trkpt lat="44.56867" lon="5.5531">
        <ele>753</ele>
        <time>2020-05-21T11:44:48Z</time>
      </trkpt>
      <trkpt lat="44.56907" lon="5.55432">
        <ele>755</ele>
        <time>2020-05-21T11:44:51Z</time>
      </trkpt>
      <trkpt lat="44.56937" lon="5.55522">
        <ele>757</ele>
        <time>2020-05-21T11:44:54Z</time>
      </trkpt>
      <trkpt lat="44.56961" lon="5.55594">
        <ele>758</ele>
        <time>2020-05-21T11:44:57Z</time>
      </trkpt>
      <trkpt lat="44.56984" lon="5.55655">
        <ele>759</ele>
        <time>2020-05-21T11:45:00Z</time>
      </trkpt>
      <trkpt lat="44.57012" lon="5.55699">
        <ele>760</ele>
        <time>2020-05-21T11:45:03Z</time>
      </trkpt>
      <trkpt lat="44.57024" lon="5.55725">
        <ele>761</ele>
        <time>2020-05-21T11:45:06Z</time>
      </trkpt>
      <trkpt lat="44.57031" lon="5.55775">
        <ele>762</ele>
        <time>2020-05-21T11:45:09Z</time>
      </trkpt>
      <trkpt lat="44.57033" lon="5.55856">
        <ele>763</ele>
        <time>2020-05-21T11:45:13Z</time>
      </trkpt>
      <trkpt lat="44.57034" lon="5.55917">
        <ele>765</ele>
        <time>2020-05-21T11:45:16Z</time>
      </trkpt>
      <trkpt lat="44.57035" lon="5.55973">
        <ele>766</ele>
        <time>2020-05-21T11:45:20Z</time>
      </trkpt>
      <trkpt lat="44.57035" lon="5.56024">
        <ele>768</ele>
        <time>2020-05-21T11:45:23Z</time>
      </trkpt>
      <trkpt lat="44.57022" lon="5.561">
        <ele>770</ele>
        <time>2020-05-21T11:45:26Z</time>
      </trkpt>
      <trkpt lat="44.5701" lon="5.5616">
        <ele>772</ele>
        <time>2020-05-21T11:45:29Z</time>
      </trkpt>
      <trkpt lat="44.56998" lon="5.56217">
        <ele>774</ele>
        <time>2020-05-21T11:45:32Z</time>
      </trkpt>
      <trkpt lat="44.56983" lon="5.56259">
        <ele>776</ele>
        <time>2020-05-21T11:45:35Z</time>
      </trkpt>
      <trkpt lat="44.56963" lon="5.56266">
        <ele>778</ele>
        <time>2020-05-21T11:45:38Z</time>
      </trkpt>
      <trkpt lat="44.56925" lon="5.56291">
        <ele>779</ele>
        <time>2020-05-21T11:45:41Z</time>
      </trkpt>
      <trkpt lat="44.56885" lon="5.56346">
        <ele>780</ele>
        <time>2020-05-21T11:45:44Z</time>
      </trkpt>
      <trkpt lat="44.56834" lon="5.56394">
        <ele>781</ele>
        <time>2020-05-21T11:45:47Z</time>
      </trkpt>
      <trkpt lat="44.56787" lon="5.56435">
        <ele>784</ele>
        <time>2020-05-21T11:45:50Z</time>
      </trkpt>
      <trkpt lat="44.56729" lon="5.56485">
        <ele>786</ele>
        <time>2020-05-21T11:45:54Z</time>
      </trkpt>
      <trkpt lat="44.56697" lon="5.56559">
        <ele>788</ele>
        <time>2020-05-21T11:45:57Z</time>
      </trkpt>
      <trkpt lat="44.56665" lon="5.56642">
        <ele>791</ele>
        <time>2020-05-21T11:46:00Z</time>
      </trkpt>
      <trkpt lat="44.56647" lon="5.56701">
        <ele>794</ele>
        <time>2020-05-21T11:46:04Z</time>
      </trkpt>
      <trkpt lat="44.56617" lon="5.56775">
        <ele>797</ele>
        <time>2020-05-21T11:46:07Z</time>
      </trkpt>
      <trkpt lat="44.56588" lon="5.56847">
        <ele>800</ele>
        <time>2020-05-21T11:46:10Z</time>
      </trkpt>
      <trkpt lat="44.5656" lon="5.56912">
        <ele>802</ele>
        <time>2020-05-21T11:46:13Z</time>
      </trkpt>
      <trkpt lat="44.56547" lon="5.56983">
        <ele>803</ele>
        <time>2020-05-21T11:46:16Z</time>
      </trkpt>
      <trkpt lat="44.56532" lon="5.57004">
        <ele>805</ele>
        <time>2020-05-21T11:46:19Z</time>
      </trkpt>
      <trkpt lat="44.56518" lon="5.56983">
        <ele>806</ele>
        <time>2020-05-21T11:46:23Z</time>
      </trkpt>
      <trkpt lat="44.56536" lon="5.56934">
        <ele>808</ele>
        <time>2020-05-21T11:46:26Z</time>
      </trkpt>
      <trkpt lat="44.56544" lon="5.56878">
        <ele>810</ele>
        <time>2020-05-21T11:46:29Z</time>
      </trkpt>
      <trkpt lat="44.56554" lon="5.56796">
        <ele>813</ele>
        <time>2020-05-21T11:46:32Z</time>
      </trkpt>
      <trkpt lat="44.56549" lon="5.56736">
        <ele>815</ele>
        <time>2020-05-21T11:46:35Z</time>
      </trkpt>
      <trkpt lat="44.56541" lon="5.56664">
        <ele>818</ele>
        <time>2020-05-21T11:46:38Z</time>
      </trkpt>
      <trkpt lat="44.5652" lon="5.56597">
        <ele>821</ele>
        <time>2020-05-21T11:46:41Z</time>
      </trkpt>
      <trkpt lat="44.56474" lon="5.56538">
        <ele>825</ele>
        <time>2020-05-21T11:46:44Z</time>
      </trkpt>
      <trkpt lat="44.56467" lon="5.56503">
        <ele>827</ele>
        <time>2020-05-21T11:46:47Z</time>
      </trkpt>
      <trkpt lat="44.56478" lon="5.56443">
        <ele>829</ele>
        <time>2020-05-21T11:46:50Z</time>
      </trkpt>
      <trkpt lat="44.56479" lon="5.5636">
        <ele>830</ele>
        <time>2020-05-21T11:46:53Z</time>
      </trkpt>
      <trkpt lat="44.56475" lon="5.56286">
        <ele>832</ele>
        <time>2020-05-21T11:46:57Z</time>
      </trkpt>
      <trkpt lat="44.56474" lon="5.56228">
        <ele>835</ele>
        <time>2020-05-21T11:47:00Z</time>
      </trkpt>
      <trkpt lat="44.56501" lon="5.56184">
        <ele>839</ele>
        <time>2020-05-21T11:47:03Z</time>
      </trkpt>
      <trkpt lat="44.56541" lon="5.56176">
        <ele>841</ele>
        <time>2020-05-21T11:47:06Z</time>
      </trkpt>
      <trkpt lat="44.56585" lon="5.56166">
        <ele>844</ele>
        <time>2020-05-21T11:47:09Z</time>
      </trkpt>
      <trkpt lat="44.56604" lon="5.56142">
        <ele>846</ele>
        <time>2020-05-21T11:47:12Z</time>
      </trkpt>
      <trkpt lat="44.56608" lon="5.56056">
        <ele>849</ele>
        <time>2020-05-21T11:47:15Z</time>
      </trkpt>
      <trkpt lat="44.56582" lon="5.56015">
        <ele>850</ele>
        <time>2020-05-21T11:47:18Z</time>
      </trkpt>
      <trkpt lat="44.56559" lon="5.55979">
        <ele>854</ele>
        <time>2020-05-21T11:47:22Z</time>
      </trkpt>
      <trkpt lat="44.56572" lon="5.55938">
        <ele>855</ele>
        <time>2020-05-21T11:47:25Z</time>
      </trkpt>
      <trkpt lat="44.56579" lon="5.55885">
        <ele>858</ele>
        <time>2020-05-21T11:47:28Z</time>
      </trkpt>
      <trkpt lat="44.56574" lon="5.55827">
        <ele>859</ele>
        <time>2020-05-21T11:47:31Z</time>
      </trkpt>
      <trkpt lat="44.56569" lon="5.55791">
        <ele>862</ele>
        <time>2020-05-21T11:47:34Z</time>
      </trkpt>
      <trkpt lat="44.56548" lon="5.558">
        <ele>864</ele>
        <time>2020-05-21T11:47:37Z</time>
      </trkpt>
      <trkpt lat="44.56554" lon="5.55848">
        <ele>866</ele>
        <time>2020-05-21T11:47:40Z</time>
      </trkpt>
      <trkpt lat="44.56528" lon="5.55922">
        <ele>869</ele>
        <time>2020-05-21T11:47:43Z</time>
      </trkpt>
      <trkpt lat="44.56504" lon="5.55946">
        <ele>871</ele>
        <time>2020-05-21T11:47:46Z</time>
      </trkpt>
      <trkpt lat="44.56481" lon="5.5598">
        <ele>874</ele>
        <time>2020-05-21T11:47:49Z</time>
      </trkpt>
      <trkpt lat="44.56485" lon="5.56032">
        <ele>877</ele>
        <time>2020-05-21T11:47:52Z</time>
      </trkpt>
      <trkpt lat="44.56472" lon="5.56063">
        <ele>877</ele>
        <time>2020-05-21T11:47:56Z</time>
      </trkpt>
      <trkpt lat="44.56437" lon="5.56062">
        <ele>882</ele>
        <time>2020-05-21T11:47:59Z</time>
      </trkpt>
      <trkpt lat="44.56381" lon="5.56083">
        <ele>885</ele>
        <time>2020-05-21T11:48:02Z</time>
      </trkpt>
      <trkpt lat="44.56368" lon="5.56141">
        <ele>886</ele>
        <time>2020-05-21T11:48:05Z</time>
      </trkpt>
      <trkpt lat="44.56357" lon="5.56212">
        <ele>888</ele>
        <time>2020-05-21T11:48:08Z</time>
      </trkpt>
      <trkpt lat="44.56346" lon="5.56279">
        <ele>891</ele>
        <time>2020-05-21T11:48:11Z</time>
      </trkpt>
      <trkpt lat="44.56331" lon="5.56327">
        <ele>894</ele>
        <time>2020-05-21T11:48:14Z</time>
      </trkpt>
      <trkpt lat="44.56299" lon="5.56361">
        <ele>897</ele>
        <time>2020-05-21T11:48:17Z</time>
      </trkpt>
      <trkpt lat="44.56273" lon="5.56382">
        <ele>900</ele>
        <time>2020-05-21T11:48:21Z</time>
      </trkpt>
      <trkpt lat="44.56236" lon="5.56429">
        <ele>902</ele>
        <time>2020-05-21T11:48:24Z</time>
      </trkpt>
      <trkpt lat="44.56227" lon="5.56472">
        <ele>904</ele>
        <time>2020-05-21T11:48:27Z</time>
      </trkpt>
      <trkpt lat="44.56239" lon="5.56532">
        <ele>908</ele>
        <time>2020-05-21T11:48:30Z</time>
      </trkpt>
      <trkpt lat="44.56276" lon="5.56577">
        <ele>910</ele>
        <time>2020-05-21T11:48:33Z</time>
      </trkpt>
      <trkpt lat="44.56302" lon="5.56651">
        <ele>913</ele>
        <time>2020-05-21T11:48:36Z</time>
      </trkpt>
      <trkpt lat="44.56292" lon="5.56724">
        <ele>914</ele>
        <time>2020-05-21T11:48:39Z</time>
      </trkpt>
      <trkpt lat="44.56267" lon="5.56789">
        <ele>916</ele>
        <time>2020-05-21T11:48:42Z</time>
      </trkpt>
      <trkpt lat="44.56251" lon="5.56858">
        <ele>919</ele>
        <time>2020-05-21T11:48:45Z</time>
      </trkpt>
      <trkpt lat="44.56245" lon="5.56902">
        <ele>921</ele>
        <time>2020-05-21T11:48:48Z</time>
      </trkpt>
      <trkpt lat="44.56219" lon="5.56948">
        <ele>923</ele>
        <time>2020-05-21T11:48:51Z</time>
      </trkpt>
      <trkpt lat="44.56168" lon="5.56983">
        <ele>925</ele>
        <time>2020-05-21T11:48:54Z</time>
      </trkpt>
      <trkpt lat="44.56125" lon="5.57017">
        <ele>927</ele>
        <time>2020-05-21T11:48:57Z</time>
      </trkpt>
      <trkpt lat="44.56067" lon="5.57061">
        <ele>930</ele>
        <time>2020-05-21T11:49:00Z</time>
      </trkpt>
      <trkpt lat="44.56034" lon="5.57098">
        <ele>931</ele>
        <time>2020-05-21T11:49:04Z</time>
      </trkpt>
      <trkpt lat="44.56011" lon="5.57156">
        <ele>933</ele>
        <time>2020-05-21T11:49:07Z</time>
      </trkpt>
      <trkpt lat="44.56007" lon="5.57212">
        <ele>934</ele>
        <time>2020-05-21T11:49:10Z</time>
      </trkpt>
      <trkpt lat="44.56024" lon="5.57283">
        <ele>936</ele>
        <time>2020-05-21T11:49:13Z</time>
      </trkpt>
      <trkpt lat="44.56054" lon="5.57325">
        <ele>937</ele>
        <time>2020-05-21T11:49:16Z</time>
      </trkpt>
      <trkpt lat="44.5608" lon="5.57339">
        <ele>938</ele>
        <time>2020-05-21T11:49:19Z</time>
      </trkpt>
      <trkpt lat="44.56101" lon="5.5738">
        <ele>941</ele>
        <time>2020-05-21T11:49:22Z</time>
      </trkpt>
      <trkpt lat="44.5609" lon="5.57436">
        <ele>943</ele>
        <time>2020-05-21T11:49:25Z</time>
      </trkpt>
      <trkpt lat="44.56049" lon="5.57538">
        <ele>947</ele>
        <time>2020-05-21T11:49:28Z</time>
      </trkpt>
      <trkpt lat="44.56022" lon="5.57614">
        <ele>951</ele>
        <time>2020-05-21T11:49:31Z</time>
      </trkpt>
      <trkpt lat="44.55994" lon="5.57704">
        <ele>955</ele>
        <time>2020-05-21T11:49:34Z</time>
      </trkpt>
      <trkpt lat="44.5597" lon="5.57793">
        <ele>959</ele>
        <time>2020-05-21T11:49:38Z</time>
      </trkpt>
      <trkpt lat="44.55955" lon="5.57883">
        <ele>964</ele>
        <time>2020-05-21T11:49:41Z</time>
      </trkpt>
      <trkpt lat="44.55936" lon="5.57969">
        <ele>967</ele>
        <time>2020-05-21T11:49:44Z</time>
      </trkpt>
      <trkpt lat="44.55917" lon="5.58025">
        <ele>969</ele>
        <time>2020-05-21T11:49:47Z</time>
      </trkpt>
      <trkpt lat="44.55883" lon="5.58091">
        <ele>972</ele>
        <time>2020-05-21T11:49:50Z</time>
      </trkpt>
      <trkpt lat="44.55853" lon="5.58142">
        <ele>976</ele>
        <time>2020-05-21T11:49:53Z</time>
      </trkpt>
      <trkpt lat="44.55833" lon="5.58152">
        <ele>977</ele>
        <time>2020-05-21T11:49:56Z</time>
      </trkpt>
      <trkpt lat="44.55829" lon="5.58121">
        <ele>977</ele>
        <time>2020-05-21T11:49:59Z</time>
      </trkpt>
      <trkpt lat="44.5585" lon="5.58086">
        <ele>978</ele>
        <time>2020-05-21T11:50:02Z</time>
      </trkpt>
      <trkpt lat="44.55873" lon="5.58028">
        <ele>981</ele>
        <time>2020-05-21T11:50:05Z</time>
      </trkpt>
      <trkpt lat="44.5589" lon="5.57944">
        <ele>983</ele>
        <time>2020-05-21T11:50:08Z</time>
      </trkpt>
      <trkpt lat="44.55897" lon="5.57853">
        <ele>986</ele>
        <time>2020-05-21T11:50:11Z</time>
      </trkpt>
      <trkpt lat="44.55904" lon="5.57741">
        <ele>989</ele>
        <time>2020-05-21T11:50:14Z</time>
      </trkpt>
      <trkpt lat="44.55908" lon="5.57637">
        <ele>991</ele>
        <time>2020-05-21T11:50:17Z</time>
      </trkpt>
      <trkpt lat="44.55914" lon="5.5757">
        <ele>993</ele>
        <time>2020-05-21T11:50:21Z</time>
      </trkpt>
      <trkpt lat="44.55922" lon="5.57477">
        <ele>996</ele>
        <time>2020-05-21T11:50:24Z</time>
      </trkpt>
      <trkpt lat="44.55931" lon="5.57397">
        <ele>999</ele>
        <time>2020-05-21T11:50:27Z</time>
      </trkpt>
      <trkpt lat="44.55938" lon="5.57344">
        <ele>1000</ele>
        <time>2020-05-21T11:50:30Z</time>
      </trkpt>
      <trkpt lat="44.55925" lon="5.57328">
        <ele>1003</ele>
        <time>2020-05-21T11:50:33Z</time>
      </trkpt>
      <trkpt lat="44.55912" lon="5.5735">
        <ele>1006</ele>
        <time>2020-05-21T11:50:36Z</time>
      </trkpt>
      <trkpt lat="44.55906" lon="5.57414">
        <ele>1010</ele>
        <time>2020-05-21T11:50:39Z</time>
      </trkpt>
      <trkpt lat="44.55888" lon="5.57491">
        <ele>1014</ele>
        <time>2020-05-21T11:50:42Z</time>
      </trkpt>
      <trkpt lat="44.55869" lon="5.57566">
        <ele>1018</ele>
        <time>2020-05-21T11:50:45Z</time>
      </trkpt>
      <trkpt lat="44.55849" lon="5.57657">
        <ele>1022</ele>
        <time>2020-05-21T11:50:48Z</time>
      </trkpt>
      <trkpt lat="44.55839" lon="5.57708">
        <ele>1026</ele>
        <time>2020-05-21T11:50:51Z</time>
      </trkpt>
      <trkpt lat="44.55819" lon="5.57784">
        <ele>1030</ele>
        <time>2020-05-21T11:50:54Z</time>
      </trkpt>
      <trkpt lat="44.5578" lon="5.57853">
        <ele>1033</ele>
        <time>2020-05-21T11:50:57Z</time>
      </trkpt>
      <trkpt lat="44.55732" lon="5.57909">
        <ele>1036</ele>
        <time>2020-05-21T11:51:00Z</time>
      </trkpt>
      <trkpt lat="44.55688" lon="5.57941">
        <ele>1039</ele>
        <time>2020-05-21T11:51:03Z</time>
      </trkpt>
      <trkpt lat="44.55615" lon="5.57931">
        <ele>1041</ele>
        <time>2020-05-21T11:51:06Z</time>
      </trkpt>
      <trkpt lat="44.55563" lon="5.57918">
        <ele>1042</ele>
        <time>2020-05-21T11:51:09Z</time>
      </trkpt>
      <trkpt lat="44.55516" lon="5.5791">
        <ele>1043</ele>
        <time>2020-05-21T11:51:13Z</time>
      </trkpt>
      <trkpt lat="44.55479" lon="5.57933">
        <ele>1047</ele>
        <time>2020-05-21T11:51:16Z</time>
      </trkpt>
      <trkpt lat="44.55458" lon="5.57962">
        <ele>1051</ele>
        <time>2020-05-21T11:51:19Z</time>
      </trkpt>
      <trkpt lat="44.55418" lon="5.58042">
        <ele>1054</ele>
        <time>2020-05-21T11:51:22Z</time>
      </trkpt>
      <trkpt lat="44.55392" lon="5.581">
        <ele>1057</ele>
        <time>2020-05-21T11:51:25Z</time>
      </trkpt>
      <trkpt lat="44.55351" lon="5.5816">
        <ele>1061</ele>
        <time>2020-05-21T11:51:28Z</time>
      </trkpt>
      <trkpt lat="44.55318" lon="5.58223">
        <ele>1064</ele>
        <time>2020-05-21T11:51:31Z</time>
      </trkpt>
      <trkpt lat="44.55305" lon="5.58295">
        <ele>1067</ele>
        <time>2020-05-21T11:51:34Z</time>
      </trkpt>
      <trkpt lat="44.55295" lon="5.58377">
        <ele>1071</ele>
        <time>2020-05-21T11:51:37Z</time>
      </trkpt>
      <trkpt lat="44.5527" lon="5.58458">
        <ele>1075</ele>
        <time>2020-05-21T11:51:40Z</time>
      </trkpt>
      <trkpt lat="44.55238" lon="5.58518">
        <ele>1079</ele>
        <time>2020-05-21T11:51:43Z</time>
      </trkpt>
      <trkpt lat="44.55186" lon="5.58571">
        <ele>1082</ele>
        <time>2020-05-21T11:51:47Z</time>
      </trkpt>
      <trkpt lat="44.55135" lon="5.58626">
        <ele>1085</ele>
        <time>2020-05-21T11:51:50Z</time>
      </trkpt>
      <trkpt lat="44.5511" lon="5.58659">
        <ele>1089</ele>
        <time>2020-05-21T11:51:53Z</time>
      </trkpt>
      <trkpt lat="44.55084" lon="5.58725">
        <ele>1092</ele>
        <time>2020-05-21T11:51:56Z</time>
      </trkpt>
      <trkpt lat="44.55065" lon="5.58817">
        <ele>1095</ele>
        <time>2020-05-21T11:51:59Z</time>
      </trkpt>
      <trkpt lat="44.55052" lon="5.58909">
        <ele>1098</ele>
        <time>2020-05-21T11:52:02Z</time>
      </trkpt>
      <trkpt lat="44.55049" lon="5.58997">
        <ele>1100</ele>
        <time>2020-05-21T11:52:05Z</time>
      </trkpt>
      <trkpt lat="44.55047" lon="5.59093">
        <ele>1103</ele>
        <time>2020-05-21T11:52:08Z</time>
      </trkpt>
      <trkpt lat="44.55041" lon="5.59177">
        <ele>1105</ele>
        <time>2020-05-21T11:52:11Z</time>
      </trkpt>
      <trkpt lat="44.55024" lon="5.59258">
        <ele>1108</ele>
        <time>2020-05-21T11:52:14Z</time>
      </trkpt>
      <trkpt lat="44.55011" lon="5.59318">
        <ele>1113</ele>
        <time>2020-05-21T11:52:17Z</time>
      </trkpt>
      <trkpt lat="44.55016" lon="5.59368">
        <ele>1118</ele>
        <time>2020-05-21T11:52:20Z</time>
      </trkpt>
      <trkpt lat="44.55031" lon="5.59371">
        <ele>1121</ele>
        <time>2020-05-21T11:52:23Z</time>
      </trkpt>
      <trkpt lat="44.55062" lon="5.5935">
        <ele>1124</ele>
        <time>2020-05-21T11:52:26Z</time>
      </trkpt>
      <trkpt lat="44.55112" lon="5.59339">
        <ele>1127</ele>
        <time>2020-05-21T11:52:29Z</time>
      </trkpt>
      <trkpt lat="44.55159" lon="5.5932">
        <ele>1129</ele>
        <time>2020-05-21T11:52:32Z</time>
      </trkpt>
      <trkpt lat="44.55192" lon="5.59278">
        <ele>1131</ele>
        <time>2020-05-21T11:52:35Z</time>
      </trkpt>
      <trkpt lat="44.55206" lon="5.59212">
        <ele>1133</ele>
        <time>2020-05-21T11:52:38Z</time>
      </trkpt>
      <trkpt lat="44.55228" lon="5.5915">
        <ele>1135</ele>
        <time>2020-05-21T11:52:41Z</time>
      </trkpt>
      <trkpt lat="44.55257" lon="5.59114">
        <ele>1137</ele>
        <time>2020-05-21T11:52:44Z</time>
      </trkpt>
      <trkpt lat="44.55283" lon="5.59109">
        <ele>1138</ele>
        <time>2020-05-21T11:52:47Z</time>
      </trkpt>
      <trkpt lat="44.55292" lon="5.5913">
        <ele>1138</ele>
        <time>2020-05-21T11:52:50Z</time>
      </trkpt>
      <trkpt lat="44.55263" lon="5.59155">
        <ele>1140</ele>
        <time>2020-05-21T11:52:53Z</time>
      </trkpt>
      <trkpt lat="44.55233" lon="5.59191">
        <ele>1141</ele>
        <time>2020-05-21T11:52:56Z</time>
      </trkpt>
      <trkpt lat="44.55227" lon="5.59222">
        <ele>1142</ele>
        <time>2020-05-21T11:52:59Z</time>
      </trkpt>
      <trkpt lat="44.55224" lon="5.59286">
        <ele>1145</ele>
        <time>2020-05-21T11:53:03Z</time>
      </trkpt>
      <trkpt lat="44.55198" lon="5.59342">
        <ele>1148</ele>
        <time>2020-05-21T11:53:06Z</time>
      </trkpt>
      <trkpt lat="44.55158" lon="5.59384">
        <ele>1149</ele>
        <time>2020-05-21T11:53:09Z</time>
      </trkpt>
      <trkpt lat="44.55114" lon="5.59404">
        <ele>1151</ele>
        <time>2020-05-21T11:53:12Z</time>
      </trkpt>
      <trkpt lat="44.55081" lon="5.59433">
        <ele>1153</ele>
        <time>2020-05-21T11:53:16Z</time>
      </trkpt>
      <trkpt lat="44.55056" lon="5.59484">
        <ele>1156</ele>
        <time>2020-05-21T11:53:19Z</time>
      </trkpt>
      <trkpt lat="44.55027" lon="5.59538">
        <ele>1162</ele>
        <time>2020-05-21T11:53:22Z</time>
      </trkpt>
      <trkpt lat="44.54991" lon="5.59595">
        <ele>1167</ele>
        <time>2020-05-21T11:53:25Z</time>
      </trkpt>
      <trkpt lat="44.54961" lon="5.59631">
        <ele>1171</ele>
        <time>2020-05-21T11:53:28Z</time>
      </trkpt>
      <trkpt lat="44.54944" lon="5.59646">
        <ele>1173</ele>
        <time>2020-05-21T11:53:31Z</time>
      </trkpt>
      <trkpt lat="44.54918" lon="5.59636">
        <ele>1175</ele>
        <time>2020-05-21T11:53:34Z</time>
      </trkpt>
      <trkpt lat="44.54903" lon="5.59586">
        <ele>1176</ele>
        <time>2020-05-21T11:53:37Z</time>
      </trkpt>
      <trkpt lat="44.54897" lon="5.59507">
        <ele>1177</ele>
        <time>2020-05-21T11:53:40Z</time>
      </trkpt>
      <trkpt lat="44.549" lon="5.59437">
        <ele>1179</ele>
        <time>2020-05-21T11:53:43Z</time>
      </trkpt>
      <trkpt lat="44.54901" lon="5.59378">
        <ele>1180</ele>
        <time>2020-05-21T11:53:46Z</time>
      </trkpt>
      <trkpt lat="44.54899" lon="5.59325">
        <ele>1180</ele>
        <time>2020-05-21T11:53:49Z</time>
      </trkpt>
      <trkpt lat="44.54879" lon="5.59331">
        <ele>1180</ele>
        <time>2020-05-21T11:53:52Z</time>
      </trkpt>
      <trkpt lat="44.54883" lon="5.59374">
        <ele>1180</ele>
        <time>2020-05-21T11:53:55Z</time>
      </trkpt>
      <trkpt lat="44.54882" lon="5.59454">
        <ele>1181</ele>
        <time>2020-05-21T11:53:58Z</time>
      </trkpt>
      <trkpt lat="44.54868" lon="5.59541">
        <ele>1184</ele>
        <time>2020-05-21T11:54:01Z</time>
      </trkpt>
      <trkpt lat="44.5486" lon="5.59607">
        <ele>1187</ele>
        <time>2020-05-21T11:54:04Z</time>
      </trkpt>
      <trkpt lat="44.5485" lon="5.59699">
        <ele>1191</ele>
        <time>2020-05-21T11:54:08Z</time>
      </trkpt>
      <trkpt lat="44.5484" lon="5.59764">
        <ele>1194</ele>
        <time>2020-05-21T11:54:11Z</time>
      </trkpt>
      <trkpt lat="44.54855" lon="5.59808">
        <ele>1196</ele>
        <time>2020-05-21T11:54:14Z</time>
      </trkpt>
      <trkpt lat="44.54888" lon="5.59808">
        <ele>1199</ele>
        <time>2020-05-21T11:54:17Z</time>
      </trkpt>
      <trkpt lat="44.54926" lon="5.59807">
        <ele>1201</ele>
        <time>2020-05-21T11:54:20Z</time>
      </trkpt>
      <trkpt lat="44.54955" lon="5.59825">
        <ele>1203</ele>
        <time>2020-05-21T11:54:23Z</time>
      </trkpt>
      <trkpt lat="44.54976" lon="5.5986">
        <ele>1203</ele>
        <time>2020-05-21T11:54:26Z</time>
      </trkpt>
      <trkpt lat="44.54989" lon="5.59914">
        <ele>1204</ele>
        <time>2020-05-21T11:54:29Z</time>
      </trkpt>
      <trkpt lat="44.55001" lon="5.59994">
        <ele>1202</ele>
        <time>2020-05-21T11:54:32Z</time>
      </trkpt>
      <trkpt lat="44.55011" lon="5.60027">
        <ele>1201</ele>
        <time>2020-05-21T11:54:36Z</time>
      </trkpt>
      <trkpt lat="44.55042" lon="5.60076">
        <ele>1201</ele>
        <time>2020-05-21T11:54:39Z</time>
      </trkpt>
      <trkpt lat="44.55053" lon="5.60132">
        <ele>1201</ele>
        <time>2020-05-21T11:54:42Z</time>
      </trkpt>
      <trkpt lat="44.5504" lon="5.60202">
        <ele>1202</ele>
        <time>2020-05-21T11:54:45Z</time>
      </trkpt>
      <trkpt lat="44.55034" lon="5.60262">
        <ele>1203</ele>
        <time>2020-05-21T11:54:48Z</time>
      </trkpt>
      <trkpt lat="44.55002" lon="5.60323">
        <ele>1204</ele>
        <time>2020-05-21T11:54:51Z</time>
      </trkpt>
      <trkpt lat="44.55016" lon="5.60364">
        <ele>1204</ele>
        <time>2020-05-21T11:54:54Z</time>
      </trkpt>
      <trkpt lat="44.55043" lon="5.60408">
        <ele>1204</ele>
        <time>2020-05-21T11:54:58Z</time>
      </trkpt>
      <trkpt lat="44.55047" lon="5.60468">
        <ele>1204</ele>
        <time>2020-05-21T11:55:01Z</time>
      </trkpt>
      <trkpt lat="44.55038" lon="5.60501">
        <ele>1204</ele>
        <time>2020-05-21T11:55:04Z</time>
      </trkpt>
      <trkpt lat="44.55046" lon="5.60534">
        <ele>1203</ele>
        <time>2020-05-21T11:55:07Z</time>
      </trkpt>
      <trkpt lat="44.5507" lon="5.60596">
        <ele>1203</ele>
        <time>2020-05-21T11:55:10Z</time>
      </trkpt>
      <trkpt lat="44.55095" lon="5.60644">
        <ele>1202</ele>
        <time>2020-05-21T11:55:13Z</time>
      </trkpt>
      <trkpt lat="44.5512" lon="5.60679">
        <ele>1201</ele>
        <time>2020-05-21T11:55:16Z</time>
      </trkpt>
      <trkpt lat="44.55141" lon="5.60665">
        <ele>1200</ele>
        <time>2020-05-21T11:55:19Z</time>
      </trkpt>
      <trkpt lat="44.55158" lon="5.60621">
        <ele>1199</ele>
        <time>2020-05-21T11:55:22Z</time>
      </trkpt>
      <trkpt lat="44.55199" lon="5.60555">
        <ele>1198</ele>
        <time>2020-05-21T11:55:25Z</time>
      </trkpt>
      <trkpt lat="44.55237" lon="5.60528">
        <ele>1197</ele>
        <time>2020-05-21T11:55:28Z</time>
      </trkpt>
      <trkpt lat="44.55284" lon="5.60527">
        <ele>1196</ele>
        <time>2020-05-21T11:55:32Z</time>
      </trkpt>
      <trkpt lat="44.55323" lon="5.60543">
        <ele>1195</ele>
        <time>2020-05-21T11:55:35Z</time>
      </trkpt>
      <trkpt lat="44.55361" lon="5.60577">
        <ele>1193</ele>
        <time>2020-05-21T11:55:38Z</time>
      </trkpt>
      <trkpt lat="44.55386" lon="5.60596">
        <ele>1191</ele>
        <time>2020-05-21T11:55:41Z</time>
      </trkpt>
      <trkpt lat="44.55436" lon="5.60671">
        <ele>1189</ele>
        <time>2020-05-21T11:55:44Z</time>
      </trkpt>
      <trkpt lat="44.55467" lon="5.6073">
        <ele>1186</ele>
        <time>2020-05-21T11:55:47Z</time>
      </trkpt>
      <trkpt lat="44.55474" lon="5.60792">
        <ele>1183</ele>
        <time>2020-05-21T11:55:51Z</time>
      </trkpt>
      <trkpt lat="44.55466" lon="5.60855">
        <ele>1181</ele>
        <time>2020-05-21T11:55:54Z</time>
      </trkpt>
      <trkpt lat="44.55473" lon="5.60921">
        <ele>1178</ele>
        <time>2020-05-21T11:55:57Z</time>
      </trkpt>
      <trkpt lat="44.55493" lon="5.60959">
        <ele>1175</ele>
        <time>2020-05-21T11:56:00Z</time>
      </trkpt>
      <trkpt lat="44.55533" lon="5.60956">
        <ele>1172</ele>
        <time>2020-05-21T11:56:03Z</time>
      </trkpt>
      <trkpt lat="44.55582" lon="5.60941">
        <ele>1170</ele>
        <time>2020-05-21T11:56:06Z</time>
      </trkpt>
      <trkpt lat="44.55617" lon="5.60928">
        <ele>1168</ele>
        <time>2020-05-21T11:56:09Z</time>
      </trkpt>
      <trkpt lat="44.55689" lon="5.60909">
        <ele>1166</ele>
        <time>2020-05-21T11:56:12Z</time>
      </trkpt>
      <trkpt lat="44.55743" lon="5.6091">
        <ele>1165</ele>
        <time>2020-05-21T11:56:15Z</time>
      </trkpt>
      <trkpt lat="44.55789" lon="5.60926">
        <ele>1163</ele>
        <time>2020-05-21T11:56:18Z</time>
      </trkpt>
      <trkpt lat="44.55826" lon="5.60958">
        <ele>1162</ele>
        <time>2020-05-21T11:56:21Z</time>
      </trkpt>
      <trkpt lat="44.55852" lon="5.61028">
        <ele>1158</ele>
        <time>2020-05-21T11:56:25Z</time>
      </trkpt>
      <trkpt lat="44.55841" lon="5.61083">
        <ele>1155</ele>
        <time>2020-05-21T11:56:28Z</time>
      </trkpt>
      <trkpt lat="44.55797" lon="5.61117">
        <ele>1152</ele>
        <time>2020-05-21T11:56:32Z</time>
      </trkpt>
      <trkpt lat="44.55753" lon="5.61133">
        <ele>1148</ele>
        <time>2020-05-21T11:56:35Z</time>
      </trkpt>
      <trkpt lat="44.55717" lon="5.6117">
        <ele>1144</ele>
        <time>2020-05-21T11:56:39Z</time>
      </trkpt>
      <trkpt lat="44.55693" lon="5.61235">
        <ele>1140</ele>
        <time>2020-05-21T11:56:42Z</time>
      </trkpt>
      <trkpt lat="44.5565" lon="5.61283">
        <ele>1137</ele>
        <time>2020-05-21T11:56:45Z</time>
      </trkpt>
      <trkpt lat="44.55606" lon="5.61331">
        <ele>1133</ele>
        <time>2020-05-21T11:56:48Z</time>
      </trkpt>
      <trkpt lat="44.5556" lon="5.61393">
        <ele>1129</ele>
        <time>2020-05-21T11:56:52Z</time>
      </trkpt>
      <trkpt lat="44.55538" lon="5.61453">
        <ele>1127</ele>
        <time>2020-05-21T11:56:55Z</time>
      </trkpt>
      <trkpt lat="44.55519" lon="5.61527">
        <ele>1123</ele>
        <time>2020-05-21T11:56:58Z</time>
      </trkpt>
      <trkpt lat="44.55499" lon="5.61607">
        <ele>1120</ele>
        <time>2020-05-21T11:57:01Z</time>
      </trkpt>
      <trkpt lat="44.55478" lon="5.61684">
        <ele>1115</ele>
        <time>2020-05-21T11:57:04Z</time>
      </trkpt>
      <trkpt lat="44.55461" lon="5.61759">
        <ele>1109</ele>
        <time>2020-05-21T11:57:07Z</time>
      </trkpt>
      <trkpt lat="44.5545" lon="5.61831">
        <ele>1105</ele>
        <time>2020-05-21T11:57:10Z</time>
      </trkpt>
      <trkpt lat="44.55451" lon="5.61878">
        <ele>1101</ele>
        <time>2020-05-21T11:57:13Z</time>
      </trkpt>
      <trkpt lat="44.55435" lon="5.61937">
        <ele>1098</ele>
        <time>2020-05-21T11:57:16Z</time>
      </trkpt>
      <trkpt lat="44.55422" lon="5.61981">
        <ele>1096</ele>
        <time>2020-05-21T11:57:20Z</time>
      </trkpt>
      <trkpt lat="44.5545" lon="5.62035">
        <ele>1093</ele>
        <time>2020-05-21T11:57:23Z</time>
      </trkpt>
      <trkpt lat="44.55462" lon="5.62078">
        <ele>1090</ele>
        <time>2020-05-21T11:57:26Z</time>
      </trkpt>
      <trkpt lat="44.55478" lon="5.62104">
        <ele>1087</ele>
        <time>2020-05-21T11:57:29Z</time>
      </trkpt>
      <trkpt lat="44.55501" lon="5.62138">
        <ele>1085</ele>
        <time>2020-05-21T11:57:32Z</time>
      </trkpt>
      <trkpt lat="44.55511" lon="5.62154">
        <ele>1082</ele>
        <time>2020-05-21T11:57:35Z</time>
      </trkpt>
      <trkpt lat="44.55511" lon="5.62229">
        <ele>1080</ele>
        <time>2020-05-21T11:57:38Z</time>
      </trkpt>
      <trkpt lat="44.55498" lon="5.62288">
        <ele>1076</ele>
        <time>2020-05-21T11:57:41Z</time>
      </trkpt>
      <trkpt lat="44.55483" lon="5.62357">
        <ele>1073</ele>
        <time>2020-05-21T11:57:44Z</time>
      </trkpt>
      <trkpt lat="44.55473" lon="5.62418">
        <ele>1069</ele>
        <time>2020-05-21T11:57:47Z</time>
      </trkpt>
      <trkpt lat="44.5547" lon="5.62482">
        <ele>1065</ele>
        <time>2020-05-21T11:57:51Z</time>
      </trkpt>
      <trkpt lat="44.55463" lon="5.6257">
        <ele>1060</ele>
        <time>2020-05-21T11:57:54Z</time>
      </trkpt>
      <trkpt lat="44.55476" lon="5.62649">
        <ele>1057</ele>
        <time>2020-05-21T11:57:57Z</time>
      </trkpt>
      <trkpt lat="44.55475" lon="5.62721">
        <ele>1053</ele>
        <time>2020-05-21T11:58:00Z</time>
      </trkpt>
      <trkpt lat="44.55479" lon="5.62791">
        <ele>1050</ele>
        <time>2020-05-21T11:58:03Z</time>
      </trkpt>
      <trkpt lat="44.55498" lon="5.62882">
        <ele>1046</ele>
        <time>2020-05-21T11:58:07Z</time>
      </trkpt>
      <trkpt lat="44.55492" lon="5.62927">
        <ele>1041</ele>
        <time>2020-05-21T11:58:10Z</time>
      </trkpt>
      <trkpt lat="44.5549" lon="5.6298">
        <ele>1038</ele>
        <time>2020-05-21T11:58:13Z</time>
      </trkpt>
      <trkpt lat="44.55487" lon="5.63012">
        <ele>1034</ele>
        <time>2020-05-21T11:58:16Z</time>
      </trkpt>
      <trkpt lat="44.55469" lon="5.6301">
        <ele>1032</ele>
        <time>2020-05-21T11:58:20Z</time>
      </trkpt>
      <trkpt lat="44.5546" lon="5.62953">
        <ele>1030</ele>
        <time>2020-05-21T11:58:23Z</time>
      </trkpt>
      <trkpt lat="44.55447" lon="5.62896">
        <ele>1028</ele>
        <time>2020-05-21T11:58:26Z</time>
      </trkpt>
      <trkpt lat="44.55438" lon="5.62829">
        <ele>1026</ele>
        <time>2020-05-21T11:58:29Z</time>
      </trkpt>
      <trkpt lat="44.55431" lon="5.62798">
        <ele>1024</ele>
        <time>2020-05-21T11:58:32Z</time>
      </trkpt>
      <trkpt lat="44.55412" lon="5.62818">
        <ele>1021</ele>
        <time>2020-05-21T11:58:35Z</time>
      </trkpt>
      <trkpt lat="44.55412" lon="5.62869">
        <ele>1019</ele>
        <time>2020-05-21T11:58:38Z</time>
      </trkpt>
      <trkpt lat="44.55414" lon="5.62929">
        <ele>1014</ele>
        <time>2020-05-21T11:58:41Z</time>
      </trkpt>
      <trkpt lat="44.5541" lon="5.6298">
        <ele>1008</ele>
        <time>2020-05-21T11:58:44Z</time>
      </trkpt>
      <trkpt lat="44.55411" lon="5.63048">
        <ele>1004</ele>
        <time>2020-05-21T11:58:47Z</time>
      </trkpt>
      <trkpt lat="44.55394" lon="5.63131">
        <ele>999</ele>
        <time>2020-05-21T11:58:51Z</time>
      </trkpt>
      <trkpt lat="44.55385" lon="5.63204">
        <ele>995</ele>
        <time>2020-05-21T11:58:54Z</time>
      </trkpt>
      <trkpt lat="44.5537" lon="5.63274">
        <ele>992</ele>
        <time>2020-05-21T11:58:57Z</time>
      </trkpt>
      <trkpt lat="44.55358" lon="5.63335">
        <ele>990</ele>
        <time>2020-05-21T11:59:00Z</time>
      </trkpt>
      <trkpt lat="44.55361" lon="5.63372">
        <ele>988</ele>
        <time>2020-05-21T11:59:03Z</time>
      </trkpt>
      <trkpt lat="44.55355" lon="5.63387">
        <ele>985</ele>
        <time>2020-05-21T11:59:06Z</time>
      </trkpt>
      <trkpt lat="44.55344" lon="5.63368">
        <ele>985</ele>
        <time>2020-05-21T11:59:09Z</time>
      </trkpt>
      <trkpt lat="44.55336" lon="5.63324">
        <ele>985</ele>
        <time>2020-05-21T11:59:12Z</time>
      </trkpt>
      <trkpt lat="44.55332" lon="5.63287">
        <ele>983</ele>
        <time>2020-05-21T11:59:15Z</time>
      </trkpt>
      <trkpt lat="44.55322" lon="5.63279">
        <ele>982</ele>
        <time>2020-05-21T11:59:18Z</time>
      </trkpt>
      <trkpt lat="44.55314" lon="5.63301">
        <ele>979</ele>
        <time>2020-05-21T11:59:21Z</time>
      </trkpt>
      <trkpt lat="44.5531" lon="5.63353">
        <ele>977</ele>
        <time>2020-05-21T11:59:24Z</time>
      </trkpt>
      <trkpt lat="44.55306" lon="5.63413">
        <ele>974</ele>
        <time>2020-05-21T11:59:27Z</time>
      </trkpt>
      <trkpt lat="44.55301" lon="5.63472">
        <ele>971</ele>
        <time>2020-05-21T11:59:30Z</time>
      </trkpt>
      <trkpt lat="44.55296" lon="5.63528">
        <ele>969</ele>
        <time>2020-05-21T11:59:33Z</time>
      </trkpt>
      <trkpt lat="44.55286" lon="5.63595">
        <ele>965</ele>
        <time>2020-05-21T11:59:37Z</time>
      </trkpt>
      <trkpt lat="44.5526" lon="5.63632">
        <ele>963</ele>
        <time>2020-05-21T11:59:40Z</time>
      </trkpt>
      <trkpt lat="44.55218" lon="5.63676">
        <ele>960</ele>
        <time>2020-05-21T11:59:43Z</time>
      </trkpt>
      <trkpt lat="44.55174" lon="5.6372">
        <ele>959</ele>
        <time>2020-05-21T11:59:46Z</time>
      </trkpt>
      <trkpt lat="44.55132" lon="5.63778">
        <ele>958</ele>
        <time>2020-05-21T11:59:49Z</time>
      </trkpt>
      <trkpt lat="44.55105" lon="5.63827">
        <ele>955</ele>
        <time>2020-05-21T11:59:52Z</time>
      </trkpt>
      <trkpt lat="44.55064" lon="5.639">
        <ele>953</ele>
        <time>2020-05-21T11:59:55Z</time>
      </trkpt>
      <trkpt lat="44.5504" lon="5.63969">
        <ele>950</ele>
        <time>2020-05-21T11:59:58Z</time>
      </trkpt>
      <trkpt lat="44.55017" lon="5.64067">
        <ele>947</ele>
        <time>2020-05-21T12:00:01Z</time>
      </trkpt>
      <trkpt lat="44.5499" lon="5.64194">
        <ele>944</ele>
        <time>2020-05-21T12:00:05Z</time>
      </trkpt>
      <trkpt lat="44.5497" lon="5.64287">
        <ele>942</ele>
        <time>2020-05-21T12:00:08Z</time>
      </trkpt>
      <trkpt lat="44.54947" lon="5.64395">
        <ele>939</ele>
        <time>2020-05-21T12:00:11Z</time>
      </trkpt>
      <trkpt lat="44.5492" lon="5.64519">
        <ele>937</ele>
        <time>2020-05-21T12:00:14Z</time>
      </trkpt>
      <trkpt lat="44.54896" lon="5.64628">
        <ele>934</ele>
        <time>2020-05-21T12:00:17Z</time>
      </trkpt>
      <trkpt lat="44.54863" lon="5.64778">
        <ele>931</ele>
        <time>2020-05-21T12:00:21Z</time>
      </trkpt>
      <trkpt lat="44.54838" lon="5.64883">
        <ele>928</ele>
        <time>2020-05-21T12:00:24Z</time>
      </trkpt>
      <trkpt lat="44.5482" lon="5.64955">
        <ele>926</ele>
        <time>2020-05-21T12:00:27Z</time>
      </trkpt>
      <trkpt lat="44.54794" lon="5.65066">
        <ele>923</ele>
        <time>2020-05-21T12:00:30Z</time>
      </trkpt>
      <trkpt lat="44.54769" lon="5.65172">
        <ele>921</ele>
        <time>2020-05-21T12:00:33Z</time>
      </trkpt>
      <trkpt lat="44.54746" lon="5.6527">
        <ele>918</ele>
        <time>2020-05-21T12:00:36Z</time>
      </trkpt>
      <trkpt lat="44.54722" lon="5.65372">
        <ele>917</ele>
        <time>2020-05-21T12:00:40Z</time>
      </trkpt>
      <trkpt lat="44.54699" lon="5.65468">
        <ele>915</ele>
        <time>2020-05-21T12:00:43Z</time>
      </trkpt>
      <trkpt lat="44.54665" lon="5.65611">
        <ele>913</ele>
        <time>2020-05-21T12:00:46Z</time>
      </trkpt>
      <trkpt lat="44.54641" lon="5.65711">
        <ele>911</ele>
        <time>2020-05-21T12:00:49Z</time>
      </trkpt>
      <trkpt lat="44.54621" lon="5.65795">
        <ele>909</ele>
        <time>2020-05-21T12:00:52Z</time>
      </trkpt>
      <trkpt lat="44.54593" lon="5.65838">
        <ele>907</ele>
        <time>2020-05-21T12:00:55Z</time>
      </trkpt>
      <trkpt lat="44.54582" lon="5.65865">
        <ele>906</ele>
        <time>2020-05-21T12:00:58Z</time>
      </trkpt>
      <trkpt lat="44.54585" lon="5.65933">
        <ele>905</ele>
        <time>2020-05-21T12:01:01Z</time>
      </trkpt>
      <trkpt lat="44.54579" lon="5.66001">
        <ele>903</ele>
        <time>2020-05-21T12:01:04Z</time>
      </trkpt>
      <trkpt lat="44.54553" lon="5.66087">
        <ele>902</ele>
        <time>2020-05-21T12:01:07Z</time>
      </trkpt>
      <trkpt lat="44.54526" lon="5.66154">
        <ele>900</ele>
        <time>2020-05-21T12:01:10Z</time>
      </trkpt>
      <trkpt lat="44.5448" lon="5.66208">
        <ele>899</ele>
        <time>2020-05-21T12:01:13Z</time>
      </trkpt>
      <trkpt lat="44.54425" lon="5.66266">
        <ele>898</ele>
        <time>2020-05-21T12:01:16Z</time>
      </trkpt>
      <trkpt lat="44.54361" lon="5.66328">
        <ele>896</ele>
        <time>2020-05-21T12:01:19Z</time>
      </trkpt>
      <trkpt lat="44.54277" lon="5.6641">
        <ele>893</ele>
        <time>2020-05-21T12:01:23Z</time>
      </trkpt>
      <trkpt lat="44.54206" lon="5.66479">
        <ele>891</ele>
        <time>2020-05-21T12:01:26Z</time>
      </trkpt>
      <trkpt lat="44.54134" lon="5.66549">
        <ele>890</ele>
        <time>2020-05-21T12:01:29Z</time>
      </trkpt>
      <trkpt lat="44.54068" lon="5.66614">
        <ele>888</ele>
        <time>2020-05-21T12:01:32Z</time>
      </trkpt>
      <trkpt lat="44.54028" lon="5.66654">
        <ele>887</ele>
        <time>2020-05-21T12:01:35Z</time>
      </trkpt>
      <trkpt lat="44.53976" lon="5.66708">
        <ele>886</ele>
        <time>2020-05-21T12:01:39Z</time>
      </trkpt>
      <trkpt lat="44.53935" lon="5.66766">
        <ele>884</ele>
        <time>2020-05-21T12:01:42Z</time>
      </trkpt>
      <trkpt lat="44.5389" lon="5.66847">
        <ele>882</ele>
        <time>2020-05-21T12:01:45Z</time>
      </trkpt>
      <trkpt lat="44.53837" lon="5.66941">
        <ele>879</ele>
        <time>2020-05-21T12:01:48Z</time>
      </trkpt>
      <trkpt lat="44.53794" lon="5.67017">
        <ele>877</ele>
        <time>2020-05-21T12:01:51Z</time>
      </trkpt>
      <trkpt lat="44.53752" lon="5.67093">
        <ele>876</ele>
        <time>2020-05-21T12:01:54Z</time>
      </trkpt>
      <trkpt lat="44.5371" lon="5.67168">
        <ele>874</ele>
        <time>2020-05-21T12:01:57Z</time>
      </trkpt>
      <trkpt lat="44.5367" lon="5.67241">
        <ele>873</ele>
        <time>2020-05-21T12:02:01Z</time>
      </trkpt>
      <trkpt lat="44.53625" lon="5.67323">
        <ele>870</ele>
        <time>2020-05-21T12:02:04Z</time>
      </trkpt>
      <trkpt lat="44.53584" lon="5.67397">
        <ele>869</ele>
        <time>2020-05-21T12:02:07Z</time>
      </trkpt>
      <trkpt lat="44.53521" lon="5.6751">
        <ele>867</ele>
        <time>2020-05-21T12:02:11Z</time>
      </trkpt>
      <trkpt lat="44.53476" lon="5.67591">
        <ele>865</ele>
        <time>2020-05-21T12:02:14Z</time>
      </trkpt>
      <trkpt lat="44.53432" lon="5.67671">
        <ele>864</ele>
        <time>2020-05-21T12:02:17Z</time>
      </trkpt>
      <trkpt lat="44.5339" lon="5.67748">
        <ele>863</ele>
        <time>2020-05-21T12:02:21Z</time>
      </trkpt>
      <trkpt lat="44.53349" lon="5.6782">
        <ele>862</ele>
        <time>2020-05-21T12:02:24Z</time>
      </trkpt>
      <trkpt lat="44.53316" lon="5.67882">
        <ele>861</ele>
        <time>2020-05-21T12:02:27Z</time>
      </trkpt>
      <trkpt lat="44.53315" lon="5.6793">
        <ele>860</ele>
        <time>2020-05-21T12:02:30Z</time>
      </trkpt>
      <trkpt lat="44.53333" lon="5.68004">
        <ele>859</ele>
        <time>2020-05-21T12:02:33Z</time>
      </trkpt>
      <trkpt lat="44.53316" lon="5.68061">
        <ele>858</ele>
        <time>2020-05-21T12:02:36Z</time>
      </trkpt>
      <trkpt lat="44.53284" lon="5.68096">
        <ele>857</ele>
        <time>2020-05-21T12:02:39Z</time>
      </trkpt>
      <trkpt lat="44.53234" lon="5.68147">
        <ele>856</ele>
        <time>2020-05-21T12:02:42Z</time>
      </trkpt>
      <trkpt lat="44.53178" lon="5.68206">
        <ele>854</ele>
        <time>2020-05-21T12:02:45Z</time>
      </trkpt>
      <trkpt lat="44.53115" lon="5.68271">
        <ele>854</ele>
        <time>2020-05-21T12:02:48Z</time>
      </trkpt>
      <trkpt lat="44.53062" lon="5.68335">
        <ele>853</ele>
        <time>2020-05-21T12:02:51Z</time>
      </trkpt>
      <trkpt lat="44.53011" lon="5.68424">
        <ele>852</ele>
        <time>2020-05-21T12:02:54Z</time>
      </trkpt>
      <trkpt lat="44.52952" lon="5.68529">
        <ele>851</ele>
        <time>2020-05-21T12:02:58Z</time>
      </trkpt>
      <trkpt lat="44.52908" lon="5.68608">
        <ele>850</ele>
        <time>2020-05-21T12:03:01Z</time>
      </trkpt>
      <trkpt lat="44.52867" lon="5.68683">
        <ele>848</ele>
        <time>2020-05-21T12:03:04Z</time>
      </trkpt>
      <trkpt lat="44.52822" lon="5.68764">
        <ele>848</ele>
        <time>2020-05-21T12:03:07Z</time>
      </trkpt>
      <trkpt lat="44.52766" lon="5.68863">
        <ele>847</ele>
        <time>2020-05-21T12:03:10Z</time>
      </trkpt>
      <trkpt lat="44.52734" lon="5.68922">
        <ele>846</ele>
        <time>2020-05-21T12:03:13Z</time>
      </trkpt>
      <trkpt lat="44.52679" lon="5.6902">
        <ele>844</ele>
        <time>2020-05-21T12:03:16Z</time>
      </trkpt>
      <trkpt lat="44.52626" lon="5.69115">
        <ele>843</ele>
        <time>2020-05-21T12:03:19Z</time>
      </trkpt>
      <trkpt lat="44.52571" lon="5.69211">
        <ele>842</ele>
        <time>2020-05-21T12:03:22Z</time>
      </trkpt>
      <trkpt lat="44.52519" lon="5.69305">
        <ele>843</ele>
        <time>2020-05-21T12:03:25Z</time>
      </trkpt>
      <trkpt lat="44.5245" lon="5.6943">
        <ele>842</ele>
        <time>2020-05-21T12:03:29Z</time>
      </trkpt>
      <trkpt lat="44.52382" lon="5.69551">
        <ele>841</ele>
        <time>2020-05-21T12:03:33Z</time>
      </trkpt>
      <trkpt lat="44.52328" lon="5.69649">
        <ele>841</ele>
        <time>2020-05-21T12:03:36Z</time>
      </trkpt>
      <trkpt lat="44.52272" lon="5.69749">
        <ele>840</ele>
        <time>2020-05-21T12:03:39Z</time>
      </trkpt>
      <trkpt lat="44.52225" lon="5.69835">
        <ele>840</ele>
        <time>2020-05-21T12:03:42Z</time>
      </trkpt>
      <trkpt lat="44.52184" lon="5.69909">
        <ele>840</ele>
        <time>2020-05-21T12:03:45Z</time>
      </trkpt>
      <trkpt lat="44.5216" lon="5.69952">
        <ele>840</ele>
        <time>2020-05-21T12:03:48Z</time>
      </trkpt>
      <trkpt lat="44.52128" lon="5.70011">
        <ele>839</ele>
        <time>2020-05-21T12:03:51Z</time>
      </trkpt>
      <trkpt lat="44.52098" lon="5.70064">
        <ele>839</ele>
        <time>2020-05-21T12:03:54Z</time>
      </trkpt>
      <trkpt lat="44.5207" lon="5.70114">
        <ele>839</ele>
        <time>2020-05-21T12:03:57Z</time>
      </trkpt>
      <trkpt lat="44.52031" lon="5.70189">
        <ele>839</ele>
        <time>2020-05-21T12:04:01Z</time>
      </trkpt>
      <trkpt lat="44.52012" lon="5.70244">
        <ele>839</ele>
        <time>2020-05-21T12:04:04Z</time>
      </trkpt>
      <trkpt lat="44.51995" lon="5.70303">
        <ele>839</ele>
        <time>2020-05-21T12:04:07Z</time>
      </trkpt>
      <trkpt lat="44.5199" lon="5.70376">
        <ele>839</ele>
        <time>2020-05-21T12:04:10Z</time>
      </trkpt>
      <trkpt lat="44.51994" lon="5.70474">
        <ele>839</ele>
        <time>2020-05-21T12:04:13Z</time>
      </trkpt>
      <trkpt lat="44.51997" lon="5.70572">
        <ele>841</ele>
        <time>2020-05-21T12:04:16Z</time>
      </trkpt>
      <trkpt lat="44.52" lon="5.70653">
        <ele>842</ele>
        <time>2020-05-21T12:04:19Z</time>
      </trkpt>
      <trkpt lat="44.52001" lon="5.70723">
        <ele>842</ele>
        <time>2020-05-21T12:04:22Z</time>
      </trkpt>
      <trkpt lat="44.51969" lon="5.70765">
        <ele>842</ele>
        <time>2020-05-21T12:04:25Z</time>
      </trkpt>
      <trkpt lat="44.51938" lon="5.70793">
        <ele>843</ele>
        <time>2020-05-21T12:04:28Z</time>
      </trkpt>
      <trkpt lat="44.51909" lon="5.70867">
        <ele>843</ele>
        <time>2020-05-21T12:04:31Z</time>
      </trkpt>
      <trkpt lat="44.51883" lon="5.70951">
        <ele>844</ele>
        <time>2020-05-21T12:04:34Z</time>
      </trkpt>
      <trkpt lat="44.51859" lon="5.71027">
        <ele>844</ele>
        <time>2020-05-21T12:04:37Z</time>
      </trkpt>
      <trkpt lat="44.51833" lon="5.7111">
        <ele>845</ele>
        <time>2020-05-21T12:04:40Z</time>
      </trkpt>
      <trkpt lat="44.51803" lon="5.71205">
        <ele>844</ele>
        <time>2020-05-21T12:04:43Z</time>
      </trkpt>
      <trkpt lat="44.5177" lon="5.7131">
        <ele>844</ele>
        <time>2020-05-21T12:04:46Z</time>
      </trkpt>
      <trkpt lat="44.51738" lon="5.71414">
        <ele>844</ele>
        <time>2020-05-21T12:04:49Z</time>
      </trkpt>
      <trkpt lat="44.51705" lon="5.71519">
        <ele>844</ele>
        <time>2020-05-21T12:04:52Z</time>
      </trkpt>
      <trkpt lat="44.51672" lon="5.71622">
        <ele>844</ele>
        <time>2020-05-21T12:04:55Z</time>
      </trkpt>
      <trkpt lat="44.51651" lon="5.71689">
        <ele>844</ele>
        <time>2020-05-21T12:04:58Z</time>
      </trkpt>
      <trkpt lat="44.51621" lon="5.71785">
        <ele>845</ele>
        <time>2020-05-21T12:05:01Z</time>
      </trkpt>
      <trkpt lat="44.51594" lon="5.7187">
        <ele>846</ele>
        <time>2020-05-21T12:05:04Z</time>
      </trkpt>
      <trkpt lat="44.51578" lon="5.71947">
        <ele>846</ele>
        <time>2020-05-21T12:05:07Z</time>
      </trkpt>
      <trkpt lat="44.51577" lon="5.72035">
        <ele>844</ele>
        <time>2020-05-21T12:05:10Z</time>
      </trkpt>
      <trkpt lat="44.51586" lon="5.72097">
        <ele>843</ele>
        <time>2020-05-21T12:05:13Z</time>
      </trkpt>
      <trkpt lat="44.51624" lon="5.72141">
        <ele>842</ele>
        <time>2020-05-21T12:05:16Z</time>
      </trkpt>
      <trkpt lat="44.51652" lon="5.72202">
        <ele>842</ele>
        <time>2020-05-21T12:05:19Z</time>
      </trkpt>
      <trkpt lat="44.51646" lon="5.72272">
        <ele>842</ele>
        <time>2020-05-21T12:05:22Z</time>
      </trkpt>
      <trkpt lat="44.51637" lon="5.72347">
        <ele>843</ele>
        <time>2020-05-21T12:05:25Z</time>
      </trkpt>
      <trkpt lat="44.51631" lon="5.72398">
        <ele>845</ele>
        <time>2020-05-21T12:05:29Z</time>
      </trkpt>
      <trkpt lat="44.51588" lon="5.72489">
        <ele>847</ele>
        <time>2020-05-21T12:05:32Z</time>
      </trkpt>
      <trkpt lat="44.5156" lon="5.72541">
        <ele>848</ele>
        <time>2020-05-21T12:05:35Z</time>
      </trkpt>
      <trkpt lat="44.51557" lon="5.72603">
        <ele>849</ele>
        <time>2020-05-21T12:05:39Z</time>
      </trkpt>
      <trkpt lat="44.51587" lon="5.72641">
        <ele>848</ele>
        <time>2020-05-21T12:05:42Z</time>
      </trkpt>
      <trkpt lat="44.51634" lon="5.72645">
        <ele>847</ele>
        <time>2020-05-21T12:05:45Z</time>
      </trkpt>
      <trkpt lat="44.51688" lon="5.72643">
        <ele>846</ele>
        <time>2020-05-21T12:05:48Z</time>
      </trkpt>
      <trkpt lat="44.51744" lon="5.72676">
        <ele>846</ele>
        <time>2020-05-21T12:05:51Z</time>
      </trkpt>
      <trkpt lat="44.51803" lon="5.72717">
        <ele>846</ele>
        <time>2020-05-21T12:05:54Z</time>
      </trkpt>
      <trkpt lat="44.51854" lon="5.72753">
        <ele>846</ele>
        <time>2020-05-21T12:05:57Z</time>
      </trkpt>
      <trkpt lat="44.51892" lon="5.72801">
        <ele>846</ele>
        <time>2020-05-21T12:06:00Z</time>
      </trkpt>
      <trkpt lat="44.51926" lon="5.72861">
        <ele>846</ele>
        <time>2020-05-21T12:06:03Z</time>
      </trkpt>
      <trkpt lat="44.51959" lon="5.72889">
        <ele>847</ele>
        <time>2020-05-21T12:06:06Z</time>
      </trkpt>
      <trkpt lat="44.52007" lon="5.72888">
        <ele>848</ele>
        <time>2020-05-21T12:06:09Z</time>
      </trkpt>
      <trkpt lat="44.52055" lon="5.72886">
        <ele>849</ele>
        <time>2020-05-21T12:06:12Z</time>
      </trkpt>
      <trkpt lat="44.52111" lon="5.72883">
        <ele>851</ele>
        <time>2020-05-21T12:06:15Z</time>
      </trkpt>
      <trkpt lat="44.5216" lon="5.72882">
        <ele>852</ele>
        <time>2020-05-21T12:06:19Z</time>
      </trkpt>
      <trkpt lat="44.52229" lon="5.72888">
        <ele>852</ele>
        <time>2020-05-21T12:06:22Z</time>
      </trkpt>
      <trkpt lat="44.52269" lon="5.72927">
        <ele>852</ele>
        <time>2020-05-21T12:06:25Z</time>
      </trkpt>
      <trkpt lat="44.52287" lon="5.72977">
        <ele>852</ele>
        <time>2020-05-21T12:06:28Z</time>
      </trkpt>
      <trkpt lat="44.52296" lon="5.73069">
        <ele>851</ele>
        <time>2020-05-21T12:06:31Z</time>
      </trkpt>
      <trkpt lat="44.52304" lon="5.73174">
        <ele>851</ele>
        <time>2020-05-21T12:06:34Z</time>
      </trkpt>
      <trkpt lat="44.52313" lon="5.73269">
        <ele>850</ele>
        <time>2020-05-21T12:06:37Z</time>
      </trkpt>
      <trkpt lat="44.52323" lon="5.73393">
        <ele>850</ele>
        <time>2020-05-21T12:06:40Z</time>
      </trkpt>
      <trkpt lat="44.52333" lon="5.73512">
        <ele>849</ele>
        <time>2020-05-21T12:06:43Z</time>
      </trkpt>
      <trkpt lat="44.52343" lon="5.73636">
        <ele>849</ele>
        <time>2020-05-21T12:06:46Z</time>
      </trkpt>
      <trkpt lat="44.52353" lon="5.7376">
        <ele>848</ele>
        <time>2020-05-21T12:06:49Z</time>
      </trkpt>
      <trkpt lat="44.52363" lon="5.7387">
        <ele>847</ele>
        <time>2020-05-21T12:06:52Z</time>
      </trkpt>
      <trkpt lat="44.52371" lon="5.7397">
        <ele>847</ele>
        <time>2020-05-21T12:06:55Z</time>
      </trkpt>
      <trkpt lat="44.52377" lon="5.74051">
        <ele>847</ele>
        <time>2020-05-21T12:06:58Z</time>
      </trkpt>
      <trkpt lat="44.52387" lon="5.74158">
        <ele>847</ele>
        <time>2020-05-21T12:07:01Z</time>
      </trkpt>
      <trkpt lat="44.52395" lon="5.74265">
        <ele>849</ele>
        <time>2020-05-21T12:07:04Z</time>
      </trkpt>
      <trkpt lat="44.52403" lon="5.74362">
        <ele>849</ele>
        <time>2020-05-21T12:07:08Z</time>
      </trkpt>
      <trkpt lat="44.5241" lon="5.74447">
        <ele>848</ele>
        <time>2020-05-21T12:07:11Z</time>
      </trkpt>
      <trkpt lat="44.52417" lon="5.74533">
        <ele>847</ele>
        <time>2020-05-21T12:07:14Z</time>
      </trkpt>
      <trkpt lat="44.52424" lon="5.74604">
        <ele>846</ele>
        <time>2020-05-21T12:07:17Z</time>
      </trkpt>
      <trkpt lat="44.52427" lon="5.74668">
        <ele>846</ele>
        <time>2020-05-21T12:07:20Z</time>
      </trkpt>
      <trkpt lat="44.5241" lon="5.74728">
        <ele>845</ele>
        <time>2020-05-21T12:07:23Z</time>
      </trkpt>
      <trkpt lat="44.52383" lon="5.7477">
        <ele>844</ele>
        <time>2020-05-21T12:07:26Z</time>
      </trkpt>
      <trkpt lat="44.52329" lon="5.74801">
        <ele>843</ele>
        <time>2020-05-21T12:07:29Z</time>
      </trkpt>
      <trkpt lat="44.52288" lon="5.74823">
        <ele>842</ele>
        <time>2020-05-21T12:07:32Z</time>
      </trkpt>
      <trkpt lat="44.5226" lon="5.74839">
        <ele>841</ele>
        <time>2020-05-21T12:07:35Z</time>
      </trkpt>
      <trkpt lat="44.52218" lon="5.74862">
        <ele>840</ele>
        <time>2020-05-21T12:07:38Z</time>
      </trkpt>
      <trkpt lat="44.52177" lon="5.74884">
        <ele>839</ele>
        <time>2020-05-21T12:07:41Z</time>
      </trkpt>
      <trkpt lat="44.52138" lon="5.74909">
        <ele>838</ele>
        <time>2020-05-21T12:07:44Z</time>
      </trkpt>
      <trkpt lat="44.52105" lon="5.74944">
        <ele>837</ele>
        <time>2020-05-21T12:07:47Z</time>
      </trkpt>
      <trkpt lat="44.52077" lon="5.74986">
        <ele>837</ele>
        <time>2020-05-21T12:07:50Z</time>
      </trkpt>
      <trkpt lat="44.52059" lon="5.75011">
        <ele>835</ele>
        <time>2020-05-21T12:07:53Z</time>
      </trkpt>
      <trkpt lat="44.52046" lon="5.75026">
        <ele>835</ele>
        <time>2020-05-21T12:07:56Z</time>
      </trkpt>
      <trkpt lat="44.52042" lon="5.75039">
        <ele>834</ele>
        <time>2020-05-21T12:08:08Z</time>
      </trkpt>
      <trkpt lat="44.52057" lon="5.75076">
        <ele>832</ele>
        <time>2020-05-21T12:08:11Z</time>
      </trkpt>
      <trkpt lat="44.5206" lon="5.75108">
        <ele>831</ele>
        <time>2020-05-21T12:08:14Z</time>
      </trkpt>
      <trkpt lat="44.52058" lon="5.75152">
        <ele>830</ele>
        <time>2020-05-21T12:08:18Z</time>
      </trkpt>
      <trkpt lat="44.52053" lon="5.75219">
        <ele>829</ele>
        <time>2020-05-21T12:08:21Z</time>
      </trkpt>
      <trkpt lat="44.52037" lon="5.75258">
        <ele>828</ele>
        <time>2020-05-21T12:08:24Z</time>
      </trkpt>
      <trkpt lat="44.51993" lon="5.75288">
        <ele>827</ele>
        <time>2020-05-21T12:08:27Z</time>
      </trkpt>
      <trkpt lat="44.51936" lon="5.75323">
        <ele>825</ele>
        <time>2020-05-21T12:08:31Z</time>
      </trkpt>
      <trkpt lat="44.51878" lon="5.75359">
        <ele>822</ele>
        <time>2020-05-21T12:08:34Z</time>
      </trkpt>
      <trkpt lat="44.51828" lon="5.7539">
        <ele>820</ele>
        <time>2020-05-21T12:08:37Z</time>
      </trkpt>
      <trkpt lat="44.51794" lon="5.7541">
        <ele>818</ele>
        <time>2020-05-21T12:08:40Z</time>
      </trkpt>
      <trkpt lat="44.51743" lon="5.75441">
        <ele>818</ele>
        <time>2020-05-21T12:08:43Z</time>
      </trkpt>
      <trkpt lat="44.5168" lon="5.7548">
        <ele>818</ele>
        <time>2020-05-21T12:08:46Z</time>
      </trkpt>
      <trkpt lat="44.51627" lon="5.75519">
        <ele>818</ele>
        <time>2020-05-21T12:08:49Z</time>
      </trkpt>
      <trkpt lat="44.51584" lon="5.75583">
        <ele>819</ele>
        <time>2020-05-21T12:08:53Z</time>
      </trkpt>
      <trkpt lat="44.5151" lon="5.75597">
        <ele>820</ele>
        <time>2020-05-21T12:08:56Z</time>
      </trkpt>
      <trkpt lat="44.51443" lon="5.75639">
        <ele>821</ele>
        <time>2020-05-21T12:08:59Z</time>
      </trkpt>
      <trkpt lat="44.51388" lon="5.75673">
        <ele>821</ele>
        <time>2020-05-21T12:09:02Z</time>
      </trkpt>
      <trkpt lat="44.51335" lon="5.75726">
        <ele>822</ele>
        <time>2020-05-21T12:09:05Z</time>
      </trkpt>
      <trkpt lat="44.51283" lon="5.7578">
        <ele>823</ele>
        <time>2020-05-21T12:09:09Z</time>
      </trkpt>
      <trkpt lat="44.51216" lon="5.75809">
        <ele>823</ele>
        <time>2020-05-21T12:09:12Z</time>
      </trkpt>
      <trkpt lat="44.51141" lon="5.75814">
        <ele>822</ele>
        <time>2020-05-21T12:09:15Z</time>
      </trkpt>
      <trkpt lat="44.51036" lon="5.75806">
        <ele>823</ele>
        <time>2020-05-21T12:09:18Z</time>
      </trkpt>
      <trkpt lat="44.50964" lon="5.75799">
        <ele>823</ele>
        <time>2020-05-21T12:09:21Z</time>
      </trkpt>
      <trkpt lat="44.50887" lon="5.75792">
        <ele>824</ele>
        <time>2020-05-21T12:09:24Z</time>
      </trkpt>
      <trkpt lat="44.50815" lon="5.75792">
        <ele>824</ele>
        <time>2020-05-21T12:09:27Z</time>
      </trkpt>
      <trkpt lat="44.50746" lon="5.75814">
        <ele>825</ele>
        <time>2020-05-21T12:09:31Z</time>
      </trkpt>
      <trkpt lat="44.50686" lon="5.75853">
        <ele>827</ele>
        <time>2020-05-21T12:09:34Z</time>
      </trkpt>
      <trkpt lat="44.50651" lon="5.75889">
        <ele>828</ele>
        <time>2020-05-21T12:09:37Z</time>
      </trkpt>
      <trkpt lat="44.50605" lon="5.75944">
        <ele>829</ele>
        <time>2020-05-21T12:09:40Z</time>
      </trkpt>
      <trkpt lat="44.50573" lon="5.75998">
        <ele>830</ele>
        <time>2020-05-21T12:09:43Z</time>
      </trkpt>
      <trkpt lat="44.50567" lon="5.76088">
        <ele>831</ele>
        <time>2020-05-21T12:09:46Z</time>
      </trkpt>
      <trkpt lat="44.50594" lon="5.76148">
        <ele>832</ele>
        <time>2020-05-21T12:09:50Z</time>
      </trkpt>
      <trkpt lat="44.50644" lon="5.76198">
        <ele>833</ele>
        <time>2020-05-21T12:09:53Z</time>
      </trkpt>
      <trkpt lat="44.50695" lon="5.76248">
        <ele>835</ele>
        <time>2020-05-21T12:09:56Z</time>
      </trkpt>
      <trkpt lat="44.5074" lon="5.76291">
        <ele>837</ele>
        <time>2020-05-21T12:09:59Z</time>
      </trkpt>
      <trkpt lat="44.50792" lon="5.76355">
        <ele>840</ele>
        <time>2020-05-21T12:10:02Z</time>
      </trkpt>
      <trkpt lat="44.50809" lon="5.76409">
        <ele>842</ele>
        <time>2020-05-21T12:10:05Z</time>
      </trkpt>
      <trkpt lat="44.50826" lon="5.76439">
        <ele>843</ele>
        <time>2020-05-21T12:10:08Z</time>
      </trkpt>
      <trkpt lat="44.50868" lon="5.76467">
        <ele>843</ele>
        <time>2020-05-21T12:10:11Z</time>
      </trkpt>
      <trkpt lat="44.50912" lon="5.76491">
        <ele>843</ele>
        <time>2020-05-21T12:10:15Z</time>
      </trkpt>
      <trkpt lat="44.50945" lon="5.76548">
        <ele>843</ele>
        <time>2020-05-21T12:10:18Z</time>
      </trkpt>
      <trkpt lat="44.50962" lon="5.76624">
        <ele>843</ele>
        <time>2020-05-21T12:10:21Z</time>
      </trkpt>
      <trkpt lat="44.5098" lon="5.76702">
        <ele>844</ele>
        <time>2020-05-21T12:10:24Z</time>
      </trkpt>
      <trkpt lat="44.50993" lon="5.76797">
        <ele>844</ele>
        <time>2020-05-21T12:10:27Z</time>
      </trkpt>
      <trkpt lat="44.50991" lon="5.76873">
        <ele>844</ele>
        <time>2020-05-21T12:10:30Z</time>
      </trkpt>
      <trkpt lat="44.51015" lon="5.76946">
        <ele>844</ele>
        <time>2020-05-21T12:10:33Z</time>
      </trkpt>
      <trkpt lat="44.5104" lon="5.77025">
        <ele>843</ele>
        <time>2020-05-21T12:10:36Z</time>
      </trkpt>
      <trkpt lat="44.51054" lon="5.77086">
        <ele>843</ele>
        <time>2020-05-21T12:10:39Z</time>
      </trkpt>
      <trkpt lat="44.51087" lon="5.77184">
        <ele>842</ele>
        <time>2020-05-21T12:10:42Z</time>
      </trkpt>
      <trkpt lat="44.51118" lon="5.77278">
        <ele>841</ele>
        <time>2020-05-21T12:10:46Z</time>
      </trkpt>
      <trkpt lat="44.51149" lon="5.7737">
        <ele>841</ele>
        <time>2020-05-21T12:10:49Z</time>
      </trkpt>
      <trkpt lat="44.5118" lon="5.77459">
        <ele>841</ele>
        <time>2020-05-21T12:10:52Z</time>
      </trkpt>
      <trkpt lat="44.51193" lon="5.77563">
        <ele>841</ele>
        <time>2020-05-21T12:10:55Z</time>
      </trkpt>
      <trkpt lat="44.51167" lon="5.77641">
        <ele>840</ele>
        <time>2020-05-21T12:10:58Z</time>
      </trkpt>
      <trkpt lat="44.51132" lon="5.77711">
        <ele>840</ele>
        <time>2020-05-21T12:11:01Z</time>
      </trkpt>
      <trkpt lat="44.51105" lon="5.77767">
        <ele>840</ele>
        <time>2020-05-21T12:11:04Z</time>
      </trkpt>
      <trkpt lat="44.51084" lon="5.77805">
        <ele>840</ele>
        <time>2020-05-21T12:11:07Z</time>
      </trkpt>
      <trkpt lat="44.51077" lon="5.77818">
        <ele>839</ele>
        <time>2020-05-21T12:11:11Z</time>
      </trkpt>
      <trkpt lat="44.51069" lon="5.77829">
        <ele>838</ele>
        <time>2020-05-21T12:11:14Z</time>
      </trkpt>
      <trkpt lat="44.51086" lon="5.77861">
        <ele>837</ele>
        <time>2020-05-21T12:11:17Z</time>
      </trkpt>
      <trkpt lat="44.51116" lon="5.77911">
        <ele>836</ele>
        <time>2020-05-21T12:11:20Z</time>
      </trkpt>
      <trkpt lat="44.51156" lon="5.7797">
        <ele>836</ele>
        <time>2020-05-21T12:11:23Z</time>
      </trkpt>
      <trkpt lat="44.51198" lon="5.78027">
        <ele>835</ele>
        <time>2020-05-21T12:11:26Z</time>
      </trkpt>
      <trkpt lat="44.5124" lon="5.78096">
        <ele>834</ele>
        <time>2020-05-21T12:11:29Z</time>
      </trkpt>
      <trkpt lat="44.51291" lon="5.78185">
        <ele>832</ele>
        <time>2020-05-21T12:11:32Z</time>
      </trkpt>
      <trkpt lat="44.51317" lon="5.78231">
        <ele>831</ele>
        <time>2020-05-21T12:11:35Z</time>
      </trkpt>
      <trkpt lat="44.51358" lon="5.78302">
        <ele>831</ele>
        <time>2020-05-21T12:11:38Z</time>
      </trkpt>
      <trkpt lat="44.51411" lon="5.78393">
        <ele>831</ele>
        <time>2020-05-21T12:11:42Z</time>
      </trkpt>
      <trkpt lat="44.5145" lon="5.78462">
        <ele>831</ele>
        <time>2020-05-21T12:11:45Z</time>
      </trkpt>
      <trkpt lat="44.51491" lon="5.78532">
        <ele>831</ele>
        <time>2020-05-21T12:11:48Z</time>
      </trkpt>
      <trkpt lat="44.5153" lon="5.78601">
        <ele>830</ele>
        <time>2020-05-21T12:11:51Z</time>
      </trkpt>
      <trkpt lat="44.51583" lon="5.78693">
        <ele>830</ele>
        <time>2020-05-21T12:11:55Z</time>
      </trkpt>
      <trkpt lat="44.51622" lon="5.78762">
        <ele>830</ele>
        <time>2020-05-21T12:11:58Z</time>
      </trkpt>
      <trkpt lat="44.51662" lon="5.7883">
        <ele>831</ele>
        <time>2020-05-21T12:12:01Z</time>
      </trkpt>
      <trkpt lat="44.51688" lon="5.78876">
        <ele>832</ele>
        <time>2020-05-21T12:12:04Z</time>
      </trkpt>
      <trkpt lat="44.51726" lon="5.78945">
        <ele>832</ele>
        <time>2020-05-21T12:12:07Z</time>
      </trkpt>
      <trkpt lat="44.51774" lon="5.79037">
        <ele>831</ele>
        <time>2020-05-21T12:12:11Z</time>
      </trkpt>
      <trkpt lat="44.51822" lon="5.79133">
        <ele>831</ele>
        <time>2020-05-21T12:12:15Z</time>
      </trkpt>
      <trkpt lat="44.51869" lon="5.79228">
        <ele>831</ele>
        <time>2020-05-21T12:12:19Z</time>
      </trkpt>
      <trkpt lat="44.51904" lon="5.79298">
        <ele>831</ele>
        <time>2020-05-21T12:12:22Z</time>
      </trkpt>
      <trkpt lat="44.51941" lon="5.7937">
        <ele>830</ele>
        <time>2020-05-21T12:12:25Z</time>
      </trkpt>
      <trkpt lat="44.51976" lon="5.7944">
        <ele>830</ele>
        <time>2020-05-21T12:12:28Z</time>
      </trkpt>
      <trkpt lat="44.52024" lon="5.79536">
        <ele>830</ele>
        <time>2020-05-21T12:12:32Z</time>
      </trkpt>
      <trkpt lat="44.52059" lon="5.79606">
        <ele>830</ele>
        <time>2020-05-21T12:12:35Z</time>
      </trkpt>
      <trkpt lat="44.52106" lon="5.79699">
        <ele>830</ele>
        <time>2020-05-21T12:12:39Z</time>
      </trkpt>
      <trkpt lat="44.52141" lon="5.7977">
        <ele>830</ele>
        <time>2020-05-21T12:12:43Z</time>
      </trkpt>
      <trkpt lat="44.52176" lon="5.7984">
        <ele>831</ele>
        <time>2020-05-21T12:12:46Z</time>
      </trkpt>
      <trkpt lat="44.52213" lon="5.79911">
        <ele>832</ele>
        <time>2020-05-21T12:12:50Z</time>
      </trkpt>
      <trkpt lat="44.52262" lon="5.80007">
        <ele>832</ele>
        <time>2020-05-21T12:12:53Z</time>
      </trkpt>
      <trkpt lat="44.5231" lon="5.801">
        <ele>832</ele>
        <time>2020-05-21T12:12:57Z</time>
      </trkpt>
      <trkpt lat="44.52347" lon="5.80171">
        <ele>833</ele>
        <time>2020-05-21T12:13:00Z</time>
      </trkpt>
      <trkpt lat="44.52396" lon="5.80267">
        <ele>834</ele>
        <time>2020-05-21T12:13:04Z</time>
      </trkpt>
      <trkpt lat="44.52433" lon="5.80338">
        <ele>834</ele>
        <time>2020-05-21T12:13:07Z</time>
      </trkpt>
      <trkpt lat="44.5247" lon="5.80407">
        <ele>836</ele>
        <time>2020-05-21T12:13:11Z</time>
      </trkpt>
      <trkpt lat="44.52518" lon="5.805">
        <ele>837</ele>
        <time>2020-05-21T12:13:15Z</time>
      </trkpt>
      <trkpt lat="44.52554" lon="5.80568">
        <ele>837</ele>
        <time>2020-05-21T12:13:18Z</time>
      </trkpt>
      <trkpt lat="44.52604" lon="5.80664">
        <ele>839</ele>
        <time>2020-05-21T12:13:22Z</time>
      </trkpt>
      <trkpt lat="44.5264" lon="5.80734">
        <ele>839</ele>
        <time>2020-05-21T12:13:25Z</time>
      </trkpt>
      <trkpt lat="44.52689" lon="5.80827">
        <ele>840</ele>
        <time>2020-05-21T12:13:29Z</time>
      </trkpt>
      <trkpt lat="44.52738" lon="5.80921">
        <ele>840</ele>
        <time>2020-05-21T12:13:33Z</time>
      </trkpt>
      <trkpt lat="44.52773" lon="5.80989">
        <ele>840</ele>
        <time>2020-05-21T12:13:36Z</time>
      </trkpt>
      <trkpt lat="44.52822" lon="5.81084">
        <ele>840</ele>
        <time>2020-05-21T12:13:40Z</time>
      </trkpt>
      <trkpt lat="44.52847" lon="5.81131">
        <ele>841</ele>
        <time>2020-05-21T12:13:44Z</time>
      </trkpt>
      <trkpt lat="44.52883" lon="5.81202">
        <ele>842</ele>
        <time>2020-05-21T12:13:47Z</time>
      </trkpt>
      <trkpt lat="44.52932" lon="5.81297">
        <ele>843</ele>
        <time>2020-05-21T12:13:50Z</time>
      </trkpt>
      <trkpt lat="44.52965" lon="5.81361">
        <ele>843</ele>
        <time>2020-05-21T12:13:53Z</time>
      </trkpt>
      <trkpt lat="44.52991" lon="5.81419">
        <ele>843</ele>
        <time>2020-05-21T12:13:57Z</time>
      </trkpt>
      <trkpt lat="44.53026" lon="5.8149">
        <ele>843</ele>
        <time>2020-05-21T12:14:00Z</time>
      </trkpt>
      <trkpt lat="44.53055" lon="5.81546">
        <ele>843</ele>
        <time>2020-05-21T12:14:03Z</time>
      </trkpt>
      <trkpt lat="44.53082" lon="5.81594">
        <ele>844</ele>
        <time>2020-05-21T12:14:06Z</time>
      </trkpt>
      <trkpt lat="44.53108" lon="5.81636">
        <ele>844</ele>
        <time>2020-05-21T12:14:09Z</time>
      </trkpt>
      <trkpt lat="44.53136" lon="5.81681">
        <ele>845</ele>
        <time>2020-05-21T12:14:13Z</time>
      </trkpt>
      <trkpt lat="44.53161" lon="5.81729">
        <ele>846</ele>
        <time>2020-05-21T12:14:16Z</time>
      </trkpt>
      <trkpt lat="44.53184" lon="5.81779">
        <ele>847</ele>
        <time>2020-05-21T12:14:19Z</time>
      </trkpt>
      <trkpt lat="44.53202" lon="5.81835">
        <ele>847</ele>
        <time>2020-05-21T12:14:22Z</time>
      </trkpt>
      <trkpt lat="44.53217" lon="5.81885">
        <ele>848</ele>
        <time>2020-05-21T12:14:25Z</time>
      </trkpt>
      <trkpt lat="44.53238" lon="5.81924">
        <ele>849</ele>
        <time>2020-05-21T12:14:28Z</time>
      </trkpt>
      <trkpt lat="44.53271" lon="5.8196">
        <ele>849</ele>
        <time>2020-05-21T12:14:32Z</time>
      </trkpt>
      <trkpt lat="44.53292" lon="5.81988">
        <ele>849</ele>
        <time>2020-05-21T12:14:35Z</time>
      </trkpt>
      <trkpt lat="44.53308" lon="5.82019">
        <ele>850</ele>
        <time>2020-05-21T12:14:38Z</time>
      </trkpt>
      <trkpt lat="44.53315" lon="5.82033">
        <ele>850</ele>
        <time>2020-05-21T12:14:41Z</time>
      </trkpt>
      <trkpt lat="44.53322" lon="5.82049">
        <ele>851</ele>
        <time>2020-05-21T12:14:44Z</time>
      </trkpt>
      <trkpt lat="44.53327" lon="5.8206">
        <ele>852</ele>
        <time>2020-05-21T12:14:47Z</time>
      </trkpt>
      <trkpt lat="44.53317" lon="5.82115">
        <ele>852</ele>
        <time>2020-05-21T12:14:51Z</time>
      </trkpt>
      <trkpt lat="44.53314" lon="5.82165">
        <ele>852</ele>
        <time>2020-05-21T12:14:54Z</time>
      </trkpt>
      <trkpt lat="44.53324" lon="5.82222">
        <ele>853</ele>
        <time>2020-05-21T12:14:57Z</time>
      </trkpt>
      <trkpt lat="44.53332" lon="5.82272">
        <ele>853</ele>
        <time>2020-05-21T12:15:00Z</time>
      </trkpt>
      <trkpt lat="44.53338" lon="5.82305">
        <ele>855</ele>
        <time>2020-05-21T12:15:03Z</time>
      </trkpt>
      <trkpt lat="44.53341" lon="5.82323">
        <ele>856</ele>
        <time>2020-05-21T12:15:06Z</time>
      </trkpt>
      <trkpt lat="44.53356" lon="5.82385">
        <ele>858</ele>
        <time>2020-05-21T12:15:09Z</time>
      </trkpt>
      <trkpt lat="44.53368" lon="5.82421">
        <ele>858</ele>
        <time>2020-05-21T12:15:12Z</time>
      </trkpt>
      <trkpt lat="44.53383" lon="5.82464">
        <ele>860</ele>
        <time>2020-05-21T12:15:15Z</time>
      </trkpt>
      <trkpt lat="44.534" lon="5.82509">
        <ele>860</ele>
        <time>2020-05-21T12:15:18Z</time>
      </trkpt>
      <trkpt lat="44.53415" lon="5.82553">
        <ele>861</ele>
        <time>2020-05-21T12:15:22Z</time>
      </trkpt>
      <trkpt lat="44.53431" lon="5.82596">
        <ele>862</ele>
        <time>2020-05-21T12:15:25Z</time>
      </trkpt>
      <trkpt lat="44.53449" lon="5.82646">
        <ele>863</ele>
        <time>2020-05-21T12:15:28Z</time>
      </trkpt>
      <trkpt lat="44.53462" lon="5.82683">
        <ele>863</ele>
        <time>2020-05-21T12:15:32Z</time>
      </trkpt>
      <trkpt lat="44.53478" lon="5.82723">
        <ele>864</ele>
        <time>2020-05-21T12:15:35Z</time>
      </trkpt>
      <trkpt lat="44.53502" lon="5.82776">
        <ele>864</ele>
        <time>2020-05-21T12:15:38Z</time>
      </trkpt>
      <trkpt lat="44.53516" lon="5.82806">
        <ele>865</ele>
        <time>2020-05-21T12:15:41Z</time>
      </trkpt>
      <trkpt lat="44.53529" lon="5.82833">
        <ele>865</ele>
        <time>2020-05-21T12:15:44Z</time>
      </trkpt>
      <trkpt lat="44.53544" lon="5.82861">
        <ele>866</ele>
        <time>2020-05-21T12:15:47Z</time>
      </trkpt>
      <trkpt lat="44.53568" lon="5.82904">
        <ele>866</ele>
        <time>2020-05-21T12:15:51Z</time>
      </trkpt>
      <trkpt lat="44.53588" lon="5.82933">
        <ele>866</ele>
        <time>2020-05-21T12:15:55Z</time>
      </trkpt>
      <trkpt lat="44.53607" lon="5.82962">
        <ele>867</ele>
        <time>2020-05-21T12:15:58Z</time>
      </trkpt>
      <trkpt lat="44.53621" lon="5.83">
        <ele>867</ele>
        <time>2020-05-21T12:16:01Z</time>
      </trkpt>
      <trkpt lat="44.53636" lon="5.83057">
        <ele>867</ele>
        <time>2020-05-21T12:16:04Z</time>
      </trkpt>
      <trkpt lat="44.53653" lon="5.83127">
        <ele>867</ele>
        <time>2020-05-21T12:16:07Z</time>
      </trkpt>
      <trkpt lat="44.53667" lon="5.83189">
        <ele>867</ele>
        <time>2020-05-21T12:16:10Z</time>
      </trkpt>
      <trkpt lat="44.53681" lon="5.83233">
        <ele>867</ele>
        <time>2020-05-21T12:16:14Z</time>
      </trkpt>
      <trkpt lat="44.53693" lon="5.8328">
        <ele>866</ele>
        <time>2020-05-21T12:16:17Z</time>
      </trkpt>
      <trkpt lat="44.53705" lon="5.83326">
        <ele>867</ele>
        <time>2020-05-21T12:16:20Z</time>
      </trkpt>
      <trkpt lat="44.5372" lon="5.83381">
        <ele>867</ele>
        <time>2020-05-21T12:16:23Z</time>
      </trkpt>
      <trkpt lat="44.53734" lon="5.83435">
        <ele>868</ele>
        <time>2020-05-21T12:16:26Z</time>
      </trkpt>
      <trkpt lat="44.53753" lon="5.83501">
        <ele>868</ele>
        <time>2020-05-21T12:16:30Z</time>
      </trkpt>
      <trkpt lat="44.53775" lon="5.83548">
        <ele>869</ele>
        <time>2020-05-21T12:16:33Z</time>
      </trkpt>
      <trkpt lat="44.538" lon="5.83596">
        <ele>869</ele>
        <time>2020-05-21T12:16:36Z</time>
      </trkpt>
      <trkpt lat="44.53825" lon="5.83645">
        <ele>869</ele>
        <time>2020-05-21T12:16:40Z</time>
      </trkpt>
      <trkpt lat="44.53853" lon="5.83699">
        <ele>870</ele>
        <time>2020-05-21T12:16:43Z</time>
      </trkpt>
      <trkpt lat="44.53879" lon="5.8375">
        <ele>870</ele>
        <time>2020-05-21T12:16:46Z</time>
      </trkpt>
      <trkpt lat="44.53905" lon="5.838">
        <ele>870</ele>
        <time>2020-05-21T12:16:49Z</time>
      </trkpt>
      <trkpt lat="44.53933" lon="5.83852">
        <ele>871</ele>
        <time>2020-05-21T12:16:52Z</time>
      </trkpt>
      <trkpt lat="44.53959" lon="5.83903">
        <ele>871</ele>
        <time>2020-05-21T12:16:55Z</time>
      </trkpt>
      <trkpt lat="44.53993" lon="5.83967">
        <ele>872</ele>
        <time>2020-05-21T12:16:58Z</time>
      </trkpt>
      <trkpt lat="44.54027" lon="5.84031">
        <ele>873</ele>
        <time>2020-05-21T12:17:01Z</time>
      </trkpt>
      <trkpt lat="44.54055" lon="5.84087">
        <ele>874</ele>
        <time>2020-05-21T12:17:04Z</time>
      </trkpt>
      <trkpt lat="44.54093" lon="5.8416">
        <ele>875</ele>
        <time>2020-05-21T12:17:08Z</time>
      </trkpt>
      <trkpt lat="44.54123" lon="5.84218">
        <ele>875</ele>
        <time>2020-05-21T12:17:11Z</time>
      </trkpt>
      <trkpt lat="44.54153" lon="5.84274">
        <ele>876</ele>
        <time>2020-05-21T12:17:14Z</time>
      </trkpt>
      <trkpt lat="44.54183" lon="5.84333">
        <ele>876</ele>
        <time>2020-05-21T12:17:17Z</time>
      </trkpt>
      <trkpt lat="44.54205" lon="5.84374">
        <ele>877</ele>
        <time>2020-05-21T12:17:21Z</time>
      </trkpt>
      <trkpt lat="44.54236" lon="5.84436">
        <ele>878</ele>
        <time>2020-05-21T12:17:24Z</time>
      </trkpt>
      <trkpt lat="44.54273" lon="5.84506">
        <ele>878</ele>
        <time>2020-05-21T12:17:27Z</time>
      </trkpt>
      <trkpt lat="44.54304" lon="5.84572">
        <ele>878</ele>
        <time>2020-05-21T12:17:30Z</time>
      </trkpt>
      <trkpt lat="44.54357" lon="5.84671">
        <ele>879</ele>
        <time>2020-05-21T12:17:33Z</time>
      </trkpt>
      <trkpt lat="44.544" lon="5.8475">
        <ele>879</ele>
        <time>2020-05-21T12:17:36Z</time>
      </trkpt>
      <trkpt lat="44.54458" lon="5.84863">
        <ele>879</ele>
        <time>2020-05-21T12:17:40Z</time>
      </trkpt>
      <trkpt lat="44.54502" lon="5.84947">
        <ele>880</ele>
        <time>2020-05-21T12:17:43Z</time>
      </trkpt>
      <trkpt lat="44.54548" lon="5.85035">
        <ele>880</ele>
        <time>2020-05-21T12:17:47Z</time>
      </trkpt>
      <trkpt lat="44.5459" lon="5.85116">
        <ele>881</ele>
        <time>2020-05-21T12:17:50Z</time>
      </trkpt>
      <trkpt lat="44.54633" lon="5.85198">
        <ele>882</ele>
        <time>2020-05-21T12:17:53Z</time>
      </trkpt>
      <trkpt lat="44.54674" lon="5.85277">
        <ele>883</ele>
        <time>2020-05-21T12:17:56Z</time>
      </trkpt>
      <trkpt lat="44.54715" lon="5.85356">
        <ele>884</ele>
        <time>2020-05-21T12:18:00Z</time>
      </trkpt>
      <trkpt lat="44.54757" lon="5.85436">
        <ele>885</ele>
        <time>2020-05-21T12:18:03Z</time>
      </trkpt>
      <trkpt lat="44.54811" lon="5.85546">
        <ele>886</ele>
        <time>2020-05-21T12:18:06Z</time>
      </trkpt>
      <trkpt lat="44.54846" lon="5.85633">
        <ele>887</ele>
        <time>2020-05-21T12:18:10Z</time>
      </trkpt>
      <trkpt lat="44.54893" lon="5.85747">
        <ele>887</ele>
        <time>2020-05-21T12:18:13Z</time>
      </trkpt>
      <trkpt lat="44.54927" lon="5.85833">
        <ele>888</ele>
        <time>2020-05-21T12:18:16Z</time>
      </trkpt>
      <trkpt lat="44.54963" lon="5.85922">
        <ele>888</ele>
        <time>2020-05-21T12:18:19Z</time>
      </trkpt>
      <trkpt lat="44.54997" lon="5.86009">
        <ele>889</ele>
        <time>2020-05-21T12:18:22Z</time>
      </trkpt>
      <trkpt lat="44.55021" lon="5.86068">
        <ele>889</ele>
        <time>2020-05-21T12:18:25Z</time>
      </trkpt>
      <trkpt lat="44.55057" lon="5.86157">
        <ele>890</ele>
        <time>2020-05-21T12:18:29Z</time>
      </trkpt>
      <trkpt lat="44.5509" lon="5.8624">
        <ele>890</ele>
        <time>2020-05-21T12:18:32Z</time>
      </trkpt>
      <trkpt lat="44.55123" lon="5.86314">
        <ele>890</ele>
        <time>2020-05-21T12:18:35Z</time>
      </trkpt>
      <trkpt lat="44.55147" lon="5.8638">
        <ele>891</ele>
        <time>2020-05-21T12:18:38Z</time>
      </trkpt>
      <trkpt lat="44.55164" lon="5.86426">
        <ele>891</ele>
        <time>2020-05-21T12:18:41Z</time>
      </trkpt>
      <trkpt lat="44.55175" lon="5.86455">
        <ele>892</ele>
        <time>2020-05-21T12:18:44Z</time>
      </trkpt>
      <trkpt lat="44.55214" lon="5.86451">
        <ele>892</ele>
        <time>2020-05-21T12:18:47Z</time>
      </trkpt>
      <trkpt lat="44.55255" lon="5.86431">
        <ele>893</ele>
        <time>2020-05-21T12:18:50Z</time>
      </trkpt>
      <trkpt lat="44.55299" lon="5.86436">
        <ele>894</ele>
        <time>2020-05-21T12:18:53Z</time>
      </trkpt>
      <trkpt lat="44.55352" lon="5.86443">
        <ele>895</ele>
        <time>2020-05-21T12:18:56Z</time>
      </trkpt>
      <trkpt lat="44.55387" lon="5.86447">
        <ele>896</ele>
        <time>2020-05-21T12:18:59Z</time>
      </trkpt>
      <trkpt lat="44.55448" lon="5.86454">
        <ele>897</ele>
        <time>2020-05-21T12:19:02Z</time>
      </trkpt>
      <trkpt lat="44.55515" lon="5.86463">
        <ele>898</ele>
        <time>2020-05-21T12:19:05Z</time>
      </trkpt>
      <trkpt lat="44.55595" lon="5.86464">
        <ele>899</ele>
        <time>2020-05-21T12:19:09Z</time>
      </trkpt>
      <trkpt lat="44.55642" lon="5.86425">
        <ele>899</ele>
        <time>2020-05-21T12:19:12Z</time>
      </trkpt>
      <trkpt lat="44.55674" lon="5.86354">
        <ele>900</ele>
        <time>2020-05-21T12:19:15Z</time>
      </trkpt>
      <trkpt lat="44.55703" lon="5.86278">
        <ele>901</ele>
        <time>2020-05-21T12:19:18Z</time>
      </trkpt>
      <trkpt lat="44.5575" lon="5.86185">
        <ele>903</ele>
        <time>2020-05-21T12:19:22Z</time>
      </trkpt>
      <trkpt lat="44.55806" lon="5.86135">
        <ele>905</ele>
        <time>2020-05-21T12:19:25Z</time>
      </trkpt>
      <trkpt lat="44.55874" lon="5.86118">
        <ele>906</ele>
        <time>2020-05-21T12:19:28Z</time>
      </trkpt>
      <trkpt lat="44.55946" lon="5.86134">
        <ele>908</ele>
        <time>2020-05-21T12:19:31Z</time>
      </trkpt>
      <trkpt lat="44.55994" lon="5.86147">
        <ele>910</ele>
        <time>2020-05-21T12:19:34Z</time>
      </trkpt>
      <trkpt lat="44.5607" lon="5.86168">
        <ele>911</ele>
        <time>2020-05-21T12:19:37Z</time>
      </trkpt>
      <trkpt lat="44.56173" lon="5.86195">
        <ele>912</ele>
        <time>2020-05-21T12:19:41Z</time>
      </trkpt>
      <trkpt lat="44.56258" lon="5.86219">
        <ele>913</ele>
        <time>2020-05-21T12:19:44Z</time>
      </trkpt>
      <trkpt lat="44.56333" lon="5.8624">
        <ele>915</ele>
        <time>2020-05-21T12:19:47Z</time>
      </trkpt>
      <trkpt lat="44.56405" lon="5.86258">
        <ele>916</ele>
        <time>2020-05-21T12:19:50Z</time>
      </trkpt>
      <trkpt lat="44.56474" lon="5.86264">
        <ele>917</ele>
        <time>2020-05-21T12:19:53Z</time>
      </trkpt>
      <trkpt lat="44.56541" lon="5.86253">
        <ele>918</ele>
        <time>2020-05-21T12:19:56Z</time>
      </trkpt>
      <trkpt lat="44.56622" lon="5.86211">
        <ele>921</ele>
        <time>2020-05-21T12:20:00Z</time>
      </trkpt>
      <trkpt lat="44.56658" lon="5.86183">
        <ele>923</ele>
        <time>2020-05-21T12:20:03Z</time>
      </trkpt>
      <trkpt lat="44.5671" lon="5.86129">
        <ele>924</ele>
        <time>2020-05-21T12:20:06Z</time>
      </trkpt>
      <trkpt lat="44.56767" lon="5.86068">
        <ele>925</ele>
        <time>2020-05-21T12:20:09Z</time>
      </trkpt>
      <trkpt lat="44.56828" lon="5.86013">
        <ele>927</ele>
        <time>2020-05-21T12:20:12Z</time>
      </trkpt>
      <trkpt lat="44.569" lon="5.85961">
        <ele>929</ele>
        <time>2020-05-21T12:20:15Z</time>
      </trkpt>
      <trkpt lat="44.56967" lon="5.85928">
        <ele>931</ele>
        <time>2020-05-21T12:20:18Z</time>
      </trkpt>
      <trkpt lat="44.57042" lon="5.85898">
        <ele>933</ele>
        <time>2020-05-21T12:20:22Z</time>
      </trkpt>
      <trkpt lat="44.57147" lon="5.85856">
        <ele>935</ele>
        <time>2020-05-21T12:20:25Z</time>
      </trkpt>
      <trkpt lat="44.57228" lon="5.85826">
        <ele>937</ele>
        <time>2020-05-21T12:20:28Z</time>
      </trkpt>
      <trkpt lat="44.57304" lon="5.85797">
        <ele>939</ele>
        <time>2020-05-21T12:20:32Z</time>
      </trkpt>
      <trkpt lat="44.57378" lon="5.8577">
        <ele>941</ele>
        <time>2020-05-21T12:20:35Z</time>
      </trkpt>
      <trkpt lat="44.57445" lon="5.8573">
        <ele>943</ele>
        <time>2020-05-21T12:20:38Z</time>
      </trkpt>
      <trkpt lat="44.57503" lon="5.85671">
        <ele>945</ele>
        <time>2020-05-21T12:20:41Z</time>
      </trkpt>
      <trkpt lat="44.57566" lon="5.85608">
        <ele>947</ele>
        <time>2020-05-21T12:20:45Z</time>
      </trkpt>
      <trkpt lat="44.57661" lon="5.85517">
        <ele>950</ele>
        <time>2020-05-21T12:20:48Z</time>
      </trkpt>
      <trkpt lat="44.57735" lon="5.85459">
        <ele>953</ele>
        <time>2020-05-21T12:20:51Z</time>
      </trkpt>
      <trkpt lat="44.57795" lon="5.85423">
        <ele>955</ele>
        <time>2020-05-21T12:20:54Z</time>
      </trkpt>
      <trkpt lat="44.57855" lon="5.85404">
        <ele>957</ele>
        <time>2020-05-21T12:20:57Z</time>
      </trkpt>
      <trkpt lat="44.57901" lon="5.85416">
        <ele>959</ele>
        <time>2020-05-21T12:21:00Z</time>
      </trkpt>
      <trkpt lat="44.57971" lon="5.85466">
        <ele>961</ele>
        <time>2020-05-21T12:21:03Z</time>
      </trkpt>
      <trkpt lat="44.58045" lon="5.8549">
        <ele>963</ele>
        <time>2020-05-21T12:21:06Z</time>
      </trkpt>
      <trkpt lat="44.58124" lon="5.85505">
        <ele>965</ele>
        <time>2020-05-21T12:21:09Z</time>
      </trkpt>
      <trkpt lat="44.58202" lon="5.85519">
        <ele>967</ele>
        <time>2020-05-21T12:21:13Z</time>
      </trkpt>
      <trkpt lat="44.58284" lon="5.85534">
        <ele>969</ele>
        <time>2020-05-21T12:21:16Z</time>
      </trkpt>
      <trkpt lat="44.58404" lon="5.85556">
        <ele>972</ele>
        <time>2020-05-21T12:21:19Z</time>
      </trkpt>
      <trkpt lat="44.58461" lon="5.85567">
        <ele>973</ele>
        <time>2020-05-21T12:21:22Z</time>
      </trkpt>
      <trkpt lat="44.5855" lon="5.85583">
        <ele>976</ele>
        <time>2020-05-21T12:21:25Z</time>
      </trkpt>
      <trkpt lat="44.58633" lon="5.85598">
        <ele>979</ele>
        <time>2020-05-21T12:21:28Z</time>
      </trkpt>
      <trkpt lat="44.58719" lon="5.85609">
        <ele>982</ele>
        <time>2020-05-21T12:21:31Z</time>
      </trkpt>
      <trkpt lat="44.58781" lon="5.85604">
        <ele>985</ele>
        <time>2020-05-21T12:21:34Z</time>
      </trkpt>
      <trkpt lat="44.58907" lon="5.8558">
        <ele>988</ele>
        <time>2020-05-21T12:21:37Z</time>
      </trkpt>
      <trkpt lat="44.59006" lon="5.85559">
        <ele>991</ele>
        <time>2020-05-21T12:21:40Z</time>
      </trkpt>
      <trkpt lat="44.59087" lon="5.85543">
        <ele>992</ele>
        <time>2020-05-21T12:21:43Z</time>
      </trkpt>
      <trkpt lat="44.59162" lon="5.85529">
        <ele>993</ele>
        <time>2020-05-21T12:21:46Z</time>
      </trkpt>
      <trkpt lat="44.59234" lon="5.85535">
        <ele>994</ele>
        <time>2020-05-21T12:21:49Z</time>
      </trkpt>
      <trkpt lat="44.59289" lon="5.85571">
        <ele>997</ele>
        <time>2020-05-21T12:21:52Z</time>
      </trkpt>
      <trkpt lat="44.59344" lon="5.85641">
        <ele>1000</ele>
        <time>2020-05-21T12:21:55Z</time>
      </trkpt>
      <trkpt lat="44.59398" lon="5.85713">
        <ele>1003</ele>
        <time>2020-05-21T12:21:58Z</time>
      </trkpt>
      <trkpt lat="44.59432" lon="5.85757">
        <ele>1006</ele>
        <time>2020-05-21T12:22:02Z</time>
      </trkpt>
      <trkpt lat="44.59514" lon="5.85809">
        <ele>1009</ele>
        <time>2020-05-21T12:22:05Z</time>
      </trkpt>
      <trkpt lat="44.59584" lon="5.85811">
        <ele>1012</ele>
        <time>2020-05-21T12:22:08Z</time>
      </trkpt>
      <trkpt lat="44.59665" lon="5.85808">
        <ele>1015</ele>
        <time>2020-05-21T12:22:11Z</time>
      </trkpt>
      <trkpt lat="44.59781" lon="5.85803">
        <ele>1018</ele>
        <time>2020-05-21T12:22:15Z</time>
      </trkpt>
      <trkpt lat="44.59873" lon="5.858">
        <ele>1021</ele>
        <time>2020-05-21T12:22:18Z</time>
      </trkpt>
      <trkpt lat="44.59991" lon="5.85798">
        <ele>1025</ele>
        <time>2020-05-21T12:22:22Z</time>
      </trkpt>
      <trkpt lat="44.60076" lon="5.85797">
        <ele>1028</ele>
        <time>2020-05-21T12:22:25Z</time>
      </trkpt>
      <trkpt lat="44.60163" lon="5.85798">
        <ele>1031</ele>
        <time>2020-05-21T12:22:28Z</time>
      </trkpt>
      <trkpt lat="44.60219" lon="5.85798">
        <ele>1035</ele>
        <time>2020-05-21T12:22:31Z</time>
      </trkpt>
      <trkpt lat="44.603" lon="5.85797">
        <ele>1039</ele>
        <time>2020-05-21T12:22:34Z</time>
      </trkpt>
      <trkpt lat="44.60379" lon="5.85796">
        <ele>1044</ele>
        <time>2020-05-21T12:22:37Z</time>
      </trkpt>
      <trkpt lat="44.60454" lon="5.85795">
        <ele>1049</ele>
        <time>2020-05-21T12:22:40Z</time>
      </trkpt>
      <trkpt lat="44.60526" lon="5.85795">
        <ele>1052</ele>
        <time>2020-05-21T12:22:43Z</time>
      </trkpt>
      <trkpt lat="44.60591" lon="5.85782">
        <ele>1057</ele>
        <time>2020-05-21T12:22:46Z</time>
      </trkpt>
      <trkpt lat="44.60648" lon="5.85758">
        <ele>1061</ele>
        <time>2020-05-21T12:22:49Z</time>
      </trkpt>
      <trkpt lat="44.60691" lon="5.85747">
        <ele>1060</ele>
        <time>2020-05-21T12:22:53Z</time>
      </trkpt>
      <trkpt lat="44.60741" lon="5.85757">
        <ele>1062</ele>
        <time>2020-05-21T12:22:56Z</time>
      </trkpt>
      <trkpt lat="44.60781" lon="5.85744">
        <ele>1066</ele>
        <time>2020-05-21T12:22:59Z</time>
      </trkpt>
      <trkpt lat="44.60829" lon="5.85732">
        <ele>1071</ele>
        <time>2020-05-21T12:23:02Z</time>
      </trkpt>
      <trkpt lat="44.60848" lon="5.85733">
        <ele>1075</ele>
        <time>2020-05-21T12:23:05Z</time>
      </trkpt>
      <trkpt lat="44.60882" lon="5.85739">
        <ele>1075</ele>
        <time>2020-05-21T12:23:09Z</time>
      </trkpt>
      <trkpt lat="44.60909" lon="5.85746">
        <ele>1075</ele>
        <time>2020-05-21T12:23:12Z</time>
      </trkpt>
      <trkpt lat="44.60939" lon="5.85749">
        <ele>1075</ele>
        <time>2020-05-21T12:23:15Z</time>
      </trkpt>
      <trkpt lat="44.6097" lon="5.85758">
        <ele>1075</ele>
        <time>2020-05-21T12:23:18Z</time>
      </trkpt>
      <trkpt lat="44.60998" lon="5.85781">
        <ele>1075</ele>
        <time>2020-05-21T12:23:21Z</time>
      </trkpt>
      <trkpt lat="44.61025" lon="5.85807">
        <ele>1081</ele>
        <time>2020-05-21T12:23:25Z</time>
      </trkpt>
      <trkpt lat="44.6107" lon="5.85844">
        <ele>1084</ele>
        <time>2020-05-21T12:23:28Z</time>
      </trkpt>
      <trkpt lat="44.61102" lon="5.85842">
        <ele>1088</ele>
        <time>2020-05-21T12:23:31Z</time>
      </trkpt>
      <trkpt lat="44.61161" lon="5.85825">
        <ele>1097</ele>
        <time>2020-05-21T12:23:34Z</time>
      </trkpt>
      <trkpt lat="44.61219" lon="5.85802">
        <ele>1106</ele>
        <time>2020-05-21T12:23:37Z</time>
      </trkpt>
      <trkpt lat="44.61289" lon="5.85779">
        <ele>1113</ele>
        <time>2020-05-21T12:23:40Z</time>
      </trkpt>
      <trkpt lat="44.61328" lon="5.85748">
        <ele>1117</ele>
        <time>2020-05-21T12:23:43Z</time>
      </trkpt>
      <trkpt lat="44.61361" lon="5.85697">
        <ele>1120</ele>
        <time>2020-05-21T12:23:46Z</time>
      </trkpt>
      <trkpt lat="44.61408" lon="5.85667">
        <ele>1122</ele>
        <time>2020-05-21T12:23:49Z</time>
      </trkpt>
      <trkpt lat="44.61492" lon="5.85672">
        <ele>1125</ele>
        <time>2020-05-21T12:23:53Z</time>
      </trkpt>
      <trkpt lat="44.61554" lon="5.85673">
        <ele>1126</ele>
        <time>2020-05-21T12:23:56Z</time>
      </trkpt>
      <trkpt lat="44.61622" lon="5.85657">
        <ele>1126</ele>
        <time>2020-05-21T12:23:59Z</time>
      </trkpt>
      <trkpt lat="44.61663" lon="5.85642">
        <ele>1127</ele>
        <time>2020-05-21T12:24:02Z</time>
      </trkpt>
      <trkpt lat="44.61729" lon="5.8561">
        <ele>1128</ele>
        <time>2020-05-21T12:24:05Z</time>
      </trkpt>
      <trkpt lat="44.61794" lon="5.85575">
        <ele>1130</ele>
        <time>2020-05-21T12:24:08Z</time>
      </trkpt>
      <trkpt lat="44.61867" lon="5.85545">
        <ele>1131</ele>
        <time>2020-05-21T12:24:11Z</time>
      </trkpt>
      <trkpt lat="44.61946" lon="5.85514">
        <ele>1133</ele>
        <time>2020-05-21T12:24:14Z</time>
      </trkpt>
      <trkpt lat="44.62023" lon="5.85484">
        <ele>1135</ele>
        <time>2020-05-21T12:24:17Z</time>
      </trkpt>
      <trkpt lat="44.621" lon="5.85456">
        <ele>1137</ele>
        <time>2020-05-21T12:24:20Z</time>
      </trkpt>
      <trkpt lat="44.62198" lon="5.8541">
        <ele>1139</ele>
        <time>2020-05-21T12:24:24Z</time>
      </trkpt>
      <trkpt lat="44.62271" lon="5.85374">
        <ele>1140</ele>
        <time>2020-05-21T12:24:27Z</time>
      </trkpt>
      <trkpt lat="44.6234" lon="5.85338">
        <ele>1142</ele>
        <time>2020-05-21T12:24:30Z</time>
      </trkpt>
      <trkpt lat="44.62405" lon="5.85301">
        <ele>1144</ele>
        <time>2020-05-21T12:24:33Z</time>
      </trkpt>
      <trkpt lat="44.62472" lon="5.85282">
        <ele>1146</ele>
        <time>2020-05-21T12:24:36Z</time>
      </trkpt>
      <trkpt lat="44.62518" lon="5.8526">
        <ele>1147</ele>
        <time>2020-05-21T12:24:39Z</time>
      </trkpt>
      <trkpt lat="44.62575" lon="5.8523">
        <ele>1148</ele>
        <time>2020-05-21T12:24:42Z</time>
      </trkpt>
      <trkpt lat="44.6263" lon="5.85201">
        <ele>1149</ele>
        <time>2020-05-21T12:24:45Z</time>
      </trkpt>
      <trkpt lat="44.62687" lon="5.85196">
        <ele>1151</ele>
        <time>2020-05-21T12:24:48Z</time>
      </trkpt>
      <trkpt lat="44.62741" lon="5.85188">
        <ele>1154</ele>
        <time>2020-05-21T12:24:51Z</time>
      </trkpt>
      <trkpt lat="44.62796" lon="5.85162">
        <ele>1156</ele>
        <time>2020-05-21T12:24:54Z</time>
      </trkpt>
      <trkpt lat="44.62848" lon="5.85128">
        <ele>1158</ele>
        <time>2020-05-21T12:24:57Z</time>
      </trkpt>
      <trkpt lat="44.62915" lon="5.85091">
        <ele>1160</ele>
        <time>2020-05-21T12:25:01Z</time>
      </trkpt>
      <trkpt lat="44.62969" lon="5.85073">
        <ele>1163</ele>
        <time>2020-05-21T12:25:04Z</time>
      </trkpt>
      <trkpt lat="44.63004" lon="5.85066">
        <ele>1166</ele>
        <time>2020-05-21T12:25:07Z</time>
      </trkpt>
      <trkpt lat="44.63061" lon="5.85065">
        <ele>1169</ele>
        <time>2020-05-21T12:25:11Z</time>
      </trkpt>
      <trkpt lat="44.63117" lon="5.85063">
        <ele>1172</ele>
        <time>2020-05-21T12:25:14Z</time>
      </trkpt>
      <trkpt lat="44.63173" lon="5.85058">
        <ele>1176</ele>
        <time>2020-05-21T12:25:17Z</time>
      </trkpt>
      <trkpt lat="44.63217" lon="5.85049">
        <ele>1179</ele>
        <time>2020-05-21T12:25:20Z</time>
      </trkpt>
      <trkpt lat="44.63273" lon="5.8503">
        <ele>1183</ele>
        <time>2020-05-21T12:25:23Z</time>
      </trkpt>
      <trkpt lat="44.63314" lon="5.85038">
        <ele>1186</ele>
        <time>2020-05-21T12:25:26Z</time>
      </trkpt>
      <trkpt lat="44.63352" lon="5.85055">
        <ele>1189</ele>
        <time>2020-05-21T12:25:29Z</time>
      </trkpt>
      <trkpt lat="44.6339" lon="5.85048">
        <ele>1192</ele>
        <time>2020-05-21T12:25:32Z</time>
      </trkpt>
      <trkpt lat="44.63433" lon="5.85039">
        <ele>1195</ele>
        <time>2020-05-21T12:25:35Z</time>
      </trkpt>
      <trkpt lat="44.63476" lon="5.85063">
        <ele>1199</ele>
        <time>2020-05-21T12:25:38Z</time>
      </trkpt>
      <trkpt lat="44.63503" lon="5.85084">
        <ele>1202</ele>
        <time>2020-05-21T12:25:41Z</time>
      </trkpt>
      <trkpt lat="44.63548" lon="5.851">
        <ele>1206</ele>
        <time>2020-05-21T12:25:45Z</time>
      </trkpt>
      <trkpt lat="44.63613" lon="5.85108">
        <ele>1210</ele>
        <time>2020-05-21T12:25:48Z</time>
      </trkpt>
      <trkpt lat="44.63659" lon="5.85106">
        <ele>1214</ele>
        <time>2020-05-21T12:25:51Z</time>
      </trkpt>
      <trkpt lat="44.63702" lon="5.85074">
        <ele>1217</ele>
        <time>2020-05-21T12:25:54Z</time>
      </trkpt>
      <trkpt lat="44.63737" lon="5.85027">
        <ele>1221</ele>
        <time>2020-05-21T12:25:57Z</time>
      </trkpt>
      <trkpt lat="44.6377" lon="5.84977">
        <ele>1225</ele>
        <time>2020-05-21T12:26:01Z</time>
      </trkpt>
      <trkpt lat="44.6382" lon="5.8493">
        <ele>1230</ele>
        <time>2020-05-21T12:26:04Z</time>
      </trkpt>
      <trkpt lat="44.6386" lon="5.84929">
        <ele>1233</ele>
        <time>2020-05-21T12:26:07Z</time>
      </trkpt>
      <trkpt lat="44.63908" lon="5.8495">
        <ele>1236</ele>
        <time>2020-05-21T12:26:10Z</time>
      </trkpt>
      <trkpt lat="44.63955" lon="5.84973">
        <ele>1240</ele>
        <time>2020-05-21T12:26:14Z</time>
      </trkpt>
      <trkpt lat="44.64001" lon="5.84996">
        <ele>1243</ele>
        <time>2020-05-21T12:26:17Z</time>
      </trkpt>
      <trkpt lat="44.6405" lon="5.85018">
        <ele>1249</ele>
        <time>2020-05-21T12:26:20Z</time>
      </trkpt>
      <trkpt lat="44.64089" lon="5.85066">
        <ele>1254</ele>
        <time>2020-05-21T12:26:23Z</time>
      </trkpt>
      <trkpt lat="44.64117" lon="5.85131">
        <ele>1259</ele>
        <time>2020-05-21T12:26:26Z</time>
      </trkpt>
      <trkpt lat="44.64141" lon="5.8518">
        <ele>1263</ele>
        <time>2020-05-21T12:26:29Z</time>
      </trkpt>
      <trkpt lat="44.6418" lon="5.85208">
        <ele>1265</ele>
        <time>2020-05-21T12:26:33Z</time>
      </trkpt>
      <trkpt lat="44.64227" lon="5.85218">
        <ele>1268</ele>
        <time>2020-05-21T12:26:37Z</time>
      </trkpt>
      <trkpt lat="44.64258" lon="5.85229">
        <ele>1272</ele>
        <time>2020-05-21T12:26:41Z</time>
      </trkpt>
      <trkpt lat="44.64283" lon="5.85227">
        <ele>1281</ele>
        <time>2020-05-21T12:26:44Z</time>
      </trkpt>
      <trkpt lat="44.64295" lon="5.85191">
        <ele>1288</ele>
        <time>2020-05-21T12:26:47Z</time>
      </trkpt>
      <trkpt lat="44.64274" lon="5.8516">
        <ele>1294</ele>
        <time>2020-05-21T12:26:51Z</time>
      </trkpt>
      <trkpt lat="44.64242" lon="5.85132">
        <ele>1299</ele>
        <time>2020-05-21T12:26:54Z</time>
      </trkpt>
      <trkpt lat="44.64214" lon="5.85104">
        <ele>1303</ele>
        <time>2020-05-21T12:26:57Z</time>
      </trkpt>
      <trkpt lat="44.64208" lon="5.85061">
        <ele>1308</ele>
        <time>2020-05-21T12:27:00Z</time>
      </trkpt>
      <trkpt lat="44.64234" lon="5.85054">
        <ele>1310</ele>
        <time>2020-05-21T12:27:03Z</time>
      </trkpt>
      <trkpt lat="44.64259" lon="5.85101">
        <ele>1313</ele>
        <time>2020-05-21T12:27:06Z</time>
      </trkpt>
      <trkpt lat="44.64287" lon="5.85132">
        <ele>1315</ele>
        <time>2020-05-21T12:27:09Z</time>
      </trkpt>
      <trkpt lat="44.64335" lon="5.85155">
        <ele>1317</ele>
        <time>2020-05-21T12:27:12Z</time>
      </trkpt>
      <trkpt lat="44.64365" lon="5.85168">
        <ele>1319</ele>
        <time>2020-05-21T12:27:15Z</time>
      </trkpt>
      <trkpt lat="44.6441" lon="5.85195">
        <ele>1321</ele>
        <time>2020-05-21T12:27:18Z</time>
      </trkpt>
      <trkpt lat="44.64451" lon="5.85229">
        <ele>1323</ele>
        <time>2020-05-21T12:27:22Z</time>
      </trkpt>
      <trkpt lat="44.64498" lon="5.85247">
        <ele>1325</ele>
        <time>2020-05-21T12:27:25Z</time>
      </trkpt>
      <trkpt lat="44.6455" lon="5.85267">
        <ele>1327</ele>
        <time>2020-05-21T12:27:28Z</time>
      </trkpt>
      <trkpt lat="44.64602" lon="5.85286">
        <ele>1329</ele>
        <time>2020-05-21T12:27:31Z</time>
      </trkpt>
      <trkpt lat="44.64652" lon="5.85305">
        <ele>1331</ele>
        <time>2020-05-21T12:27:34Z</time>
      </trkpt>
      <trkpt lat="44.64723" lon="5.85326">
        <ele>1334</ele>
        <time>2020-05-21T12:27:37Z</time>
      </trkpt>
      <trkpt lat="44.64778" lon="5.85339">
        <ele>1337</ele>
        <time>2020-05-21T12:27:41Z</time>
      </trkpt>
      <trkpt lat="44.64832" lon="5.85351">
        <ele>1340</ele>
        <time>2020-05-21T12:27:44Z</time>
      </trkpt>
      <trkpt lat="44.64867" lon="5.8536">
        <ele>1344</ele>
        <time>2020-05-21T12:27:47Z</time>
      </trkpt>
      <trkpt lat="44.64944" lon="5.85389">
        <ele>1350</ele>
        <time>2020-05-21T12:27:50Z</time>
      </trkpt>
      <trkpt lat="44.64997" lon="5.85427">
        <ele>1358</ele>
        <time>2020-05-21T12:27:53Z</time>
      </trkpt>
      <trkpt lat="44.65068" lon="5.85484">
        <ele>1367</ele>
        <time>2020-05-21T12:27:57Z</time>
      </trkpt>
      <trkpt lat="44.6512" lon="5.85525">
        <ele>1373</ele>
        <time>2020-05-21T12:28:00Z</time>
      </trkpt>
      <trkpt lat="44.65171" lon="5.85565">
        <ele>1377</ele>
        <time>2020-05-21T12:28:03Z</time>
      </trkpt>
      <trkpt lat="44.65221" lon="5.85604">
        <ele>1379</ele>
        <time>2020-05-21T12:28:06Z</time>
      </trkpt>
      <trkpt lat="44.65278" lon="5.85634">
        <ele>1381</ele>
        <time>2020-05-21T12:28:09Z</time>
      </trkpt>
      <trkpt lat="44.65347" lon="5.85641">
        <ele>1384</ele>
        <time>2020-05-21T12:28:12Z</time>
      </trkpt>
      <trkpt lat="44.65424" lon="5.85624">
        <ele>1386</ele>
        <time>2020-05-21T12:28:16Z</time>
      </trkpt>
      <trkpt lat="44.65471" lon="5.85617">
        <ele>1389</ele>
        <time>2020-05-21T12:28:19Z</time>
      </trkpt>
      <trkpt lat="44.65542" lon="5.85604">
        <ele>1393</ele>
        <time>2020-05-21T12:28:22Z</time>
      </trkpt>
      <trkpt lat="44.65585" lon="5.85568">
        <ele>1395</ele>
        <time>2020-05-21T12:28:25Z</time>
      </trkpt>
      <trkpt lat="44.65619" lon="5.8552">
        <ele>1398</ele>
        <time>2020-05-21T12:28:29Z</time>
      </trkpt>
      <trkpt lat="44.65658" lon="5.85483">
        <ele>1400</ele>
        <time>2020-05-21T12:28:32Z</time>
      </trkpt>
      <trkpt lat="44.65711" lon="5.85471">
        <ele>1402</ele>
        <time>2020-05-21T12:28:35Z</time>
      </trkpt>
      <trkpt lat="44.65776" lon="5.85476">
        <ele>1406</ele>
        <time>2020-05-21T12:28:38Z</time>
      </trkpt>
      <trkpt lat="44.65824" lon="5.85485">
        <ele>1409</ele>
        <time>2020-05-21T12:28:41Z</time>
      </trkpt>
      <trkpt lat="44.65869" lon="5.85496">
        <ele>1412</ele>
        <time>2020-05-21T12:28:44Z</time>
      </trkpt>
      <trkpt lat="44.65913" lon="5.85501">
        <ele>1415</ele>
        <time>2020-05-21T12:28:47Z</time>
      </trkpt>
      <trkpt lat="44.65966" lon="5.85489">
        <ele>1418</ele>
        <time>2020-05-21T12:28:50Z</time>
      </trkpt>
      <trkpt lat="44.66011" lon="5.85462">
        <ele>1420</ele>
        <time>2020-05-21T12:28:53Z</time>
      </trkpt>
      <trkpt lat="44.6604" lon="5.85446">
        <ele>1422</ele>
        <time>2020-05-21T12:28:56Z</time>
      </trkpt>
      <trkpt lat="44.66087" lon="5.85442">
        <ele>1428</ele>
        <time>2020-05-21T12:28:59Z</time>
      </trkpt>
      <trkpt lat="44.66146" lon="5.85442">
        <ele>1432</ele>
        <time>2020-05-21T12:29:03Z</time>
      </trkpt>
      <trkpt lat="44.66203" lon="5.85441">
        <ele>1434</ele>
        <time>2020-05-21T12:29:06Z</time>
      </trkpt>
      <trkpt lat="44.66266" lon="5.8544">
        <ele>1437</ele>
        <time>2020-05-21T12:29:09Z</time>
      </trkpt>
      <trkpt lat="44.66323" lon="5.85434">
        <ele>1440</ele>
        <time>2020-05-21T12:29:12Z</time>
      </trkpt>
      <trkpt lat="44.66397" lon="5.85445">
        <ele>1442</ele>
        <time>2020-05-21T12:29:15Z</time>
      </trkpt>
      <trkpt lat="44.66452" lon="5.85481">
        <ele>1445</ele>
        <time>2020-05-21T12:29:19Z</time>
      </trkpt>
      <trkpt lat="44.66512" lon="5.85522">
        <ele>1450</ele>
        <time>2020-05-21T12:29:22Z</time>
      </trkpt>
      <trkpt lat="44.66538" lon="5.8554">
        <ele>1451</ele>
        <time>2020-05-21T12:29:25Z</time>
      </trkpt>
      <trkpt lat="44.66572" lon="5.85567">
        <ele>1455</ele>
        <time>2020-05-21T12:29:28Z</time>
      </trkpt>
      <trkpt lat="44.66596" lon="5.85593">
        <ele>1456</ele>
        <time>2020-05-21T12:29:31Z</time>
      </trkpt>
      <trkpt lat="44.66608" lon="5.85642">
        <ele>1457</ele>
        <time>2020-05-21T12:29:34Z</time>
      </trkpt>
      <trkpt lat="44.66616" lon="5.85694">
        <ele>1458</ele>
        <time>2020-05-21T12:29:37Z</time>
      </trkpt>
      <trkpt lat="44.66629" lon="5.85742">
        <ele>1459</ele>
        <time>2020-05-21T12:29:40Z</time>
      </trkpt>
      <trkpt lat="44.66663" lon="5.85776">
        <ele>1460</ele>
        <time>2020-05-21T12:29:44Z</time>
      </trkpt>
      <trkpt lat="44.66695" lon="5.85791">
        <ele>1461</ele>
        <time>2020-05-21T12:29:47Z</time>
      </trkpt>
      <trkpt lat="44.6672" lon="5.85799">
        <ele>1462</ele>
        <time>2020-05-21T12:29:51Z</time>
      </trkpt>
      <trkpt lat="44.66751" lon="5.85821">
        <ele>1463</ele>
        <time>2020-05-21T12:29:54Z</time>
      </trkpt>
      <trkpt lat="44.66768" lon="5.85852">
        <ele>1464</ele>
        <time>2020-05-21T12:29:57Z</time>
      </trkpt>
      <trkpt lat="44.66784" lon="5.85884">
        <ele>1465</ele>
        <time>2020-05-21T12:30:00Z</time>
      </trkpt>
      <trkpt lat="44.66795" lon="5.85906">
        <ele>1467</ele>
        <time>2020-05-21T12:30:04Z</time>
      </trkpt>
      <trkpt lat="44.66817" lon="5.85951">
        <ele>1469</ele>
        <time>2020-05-21T12:30:07Z</time>
      </trkpt>
      <trkpt lat="44.66828" lon="5.85974">
        <ele>1470</ele>
        <time>2020-05-21T12:30:10Z</time>
      </trkpt>
      <trkpt lat="44.66842" lon="5.86">
        <ele>1471</ele>
        <time>2020-05-21T12:30:13Z</time>
      </trkpt>
      <trkpt lat="44.66837" lon="5.86045">
        <ele>1472</ele>
        <time>2020-05-21T12:30:16Z</time>
      </trkpt>
      <trkpt lat="44.66822" lon="5.86093">
        <ele>1472</ele>
        <time>2020-05-21T12:30:20Z</time>
      </trkpt>
      <trkpt lat="44.66808" lon="5.8615">
        <ele>1472</ele>
        <time>2020-05-21T12:30:23Z</time>
      </trkpt>
      <trkpt lat="44.66787" lon="5.86188">
        <ele>1473</ele>
        <time>2020-05-21T12:30:26Z</time>
      </trkpt>
      <trkpt lat="44.66783" lon="5.86232">
        <ele>1473</ele>
        <time>2020-05-21T12:30:29Z</time>
      </trkpt>
      <trkpt lat="44.66796" lon="5.86275">
        <ele>1473</ele>
        <time>2020-05-21T12:30:32Z</time>
      </trkpt>
      <trkpt lat="44.66806" lon="5.86302">
        <ele>1473</ele>
        <time>2020-05-21T12:30:36Z</time>
      </trkpt>
      <trkpt lat="44.66814" lon="5.86323">
        <ele>1473</ele>
        <time>2020-05-21T12:30:39Z</time>
      </trkpt>
      <trkpt lat="44.66821" lon="5.86338">
        <ele>1473</ele>
        <time>2020-05-21T12:30:42Z</time>
      </trkpt>
      <trkpt lat="44.66784" lon="5.8635">
        <ele>1474</ele>
        <time>2020-05-21T12:30:45Z</time>
      </trkpt>
      <trkpt lat="44.66783" lon="5.86369">
        <ele>1474</ele>
        <time>2020-05-21T12:30:48Z</time>
      </trkpt>
      <trkpt lat="44.66792" lon="5.86375">
        <ele>1474</ele>
        <time>2020-05-21T12:30:53Z</time>
      </trkpt>
      <trkpt lat="44.66789" lon="5.86388">
        <ele>1437</ele>
        <time>2020-05-21T12:43:39Z</time>
      </trkpt>
      <trkpt lat="44.6679" lon="5.8637">
        <ele>1442</ele>
        <time>2020-05-21T12:43:44Z</time>
      </trkpt>
      <trkpt lat="44.66798" lon="5.86346">
        <ele>1445</ele>
        <time>2020-05-21T12:43:47Z</time>
      </trkpt>
      <trkpt lat="44.66811" lon="5.86334">
        <ele>1447</ele>
        <time>2020-05-21T12:43:50Z</time>
      </trkpt>
      <trkpt lat="44.66824" lon="5.86343">
        <ele>1449</ele>
        <time>2020-05-21T12:43:59Z</time>
      </trkpt>
      <trkpt lat="44.66842" lon="5.86372">
        <ele>1450</ele>
        <time>2020-05-21T12:44:02Z</time>
      </trkpt>
      <trkpt lat="44.66873" lon="5.864">
        <ele>1451</ele>
        <time>2020-05-21T12:44:05Z</time>
      </trkpt>
      <trkpt lat="44.66917" lon="5.86418">
        <ele>1451</ele>
        <time>2020-05-21T12:44:08Z</time>
      </trkpt>
      <trkpt lat="44.66965" lon="5.86434">
        <ele>1451</ele>
        <time>2020-05-21T12:44:11Z</time>
      </trkpt>
      <trkpt lat="44.67005" lon="5.86466">
        <ele>1450</ele>
        <time>2020-05-21T12:44:15Z</time>
      </trkpt>
      <trkpt lat="44.67053" lon="5.86519">
        <ele>1448</ele>
        <time>2020-05-21T12:44:19Z</time>
      </trkpt>
      <trkpt lat="44.67094" lon="5.86548">
        <ele>1447</ele>
        <time>2020-05-21T12:44:23Z</time>
      </trkpt>
      <trkpt lat="44.67124" lon="5.8659">
        <ele>1446</ele>
        <time>2020-05-21T12:44:26Z</time>
      </trkpt>
      <trkpt lat="44.67153" lon="5.86641">
        <ele>1445</ele>
        <time>2020-05-21T12:44:29Z</time>
      </trkpt>
      <trkpt lat="44.67217" lon="5.86685">
        <ele>1443</ele>
        <time>2020-05-21T12:44:32Z</time>
      </trkpt>
      <trkpt lat="44.67271" lon="5.86702">
        <ele>1441</ele>
        <time>2020-05-21T12:44:35Z</time>
      </trkpt>
      <trkpt lat="44.67333" lon="5.86717">
        <ele>1440</ele>
        <time>2020-05-21T12:44:38Z</time>
      </trkpt>
      <trkpt lat="44.67374" lon="5.86734">
        <ele>1438</ele>
        <time>2020-05-21T12:44:42Z</time>
      </trkpt>
      <trkpt lat="44.67457" lon="5.86759">
        <ele>1435</ele>
        <time>2020-05-21T12:44:45Z</time>
      </trkpt>
      <trkpt lat="44.67515" lon="5.86756">
        <ele>1433</ele>
        <time>2020-05-21T12:44:48Z</time>
      </trkpt>
      <trkpt lat="44.67564" lon="5.86738">
        <ele>1431</ele>
        <time>2020-05-21T12:44:51Z</time>
      </trkpt>
      <trkpt lat="44.6761" lon="5.86723">
        <ele>1429</ele>
        <time>2020-05-21T12:44:54Z</time>
      </trkpt>
      <trkpt lat="44.67644" lon="5.86735">
        <ele>1426</ele>
        <time>2020-05-21T12:44:58Z</time>
      </trkpt>
      <trkpt lat="44.67674" lon="5.8679">
        <ele>1424</ele>
        <time>2020-05-21T12:45:01Z</time>
      </trkpt>
      <trkpt lat="44.67702" lon="5.86855">
        <ele>1421</ele>
        <time>2020-05-21T12:45:04Z</time>
      </trkpt>
      <trkpt lat="44.6773" lon="5.86914">
        <ele>1417</ele>
        <time>2020-05-21T12:45:07Z</time>
      </trkpt>
      <trkpt lat="44.67779" lon="5.86973">
        <ele>1415</ele>
        <time>2020-05-21T12:45:10Z</time>
      </trkpt>
      <trkpt lat="44.67818" lon="5.8701">
        <ele>1414</ele>
        <time>2020-05-21T12:45:13Z</time>
      </trkpt>
      <trkpt lat="44.67845" lon="5.87034">
        <ele>1413</ele>
        <time>2020-05-21T12:45:16Z</time>
      </trkpt>
      <trkpt lat="44.67884" lon="5.8708">
        <ele>1412</ele>
        <time>2020-05-21T12:45:19Z</time>
      </trkpt>
      <trkpt lat="44.67916" lon="5.87133">
        <ele>1409</ele>
        <time>2020-05-21T12:45:22Z</time>
      </trkpt>
      <trkpt lat="44.67945" lon="5.87186">
        <ele>1406</ele>
        <time>2020-05-21T12:45:25Z</time>
      </trkpt>
      <trkpt lat="44.67978" lon="5.87235">
        <ele>1404</ele>
        <time>2020-05-21T12:45:28Z</time>
      </trkpt>
      <trkpt lat="44.68016" lon="5.87283">
        <ele>1401</ele>
        <time>2020-05-21T12:45:31Z</time>
      </trkpt>
      <trkpt lat="44.68054" lon="5.87327">
        <ele>1399</ele>
        <time>2020-05-21T12:45:34Z</time>
      </trkpt>
      <trkpt lat="44.68093" lon="5.87373">
        <ele>1397</ele>
        <time>2020-05-21T12:45:37Z</time>
      </trkpt>
      <trkpt lat="44.68129" lon="5.87416">
        <ele>1395</ele>
        <time>2020-05-21T12:45:41Z</time>
      </trkpt>
      <trkpt lat="44.68182" lon="5.87476">
        <ele>1394</ele>
        <time>2020-05-21T12:45:44Z</time>
      </trkpt>
      <trkpt lat="44.68221" lon="5.87516">
        <ele>1392</ele>
        <time>2020-05-21T12:45:47Z</time>
      </trkpt>
      <trkpt lat="44.68262" lon="5.8755">
        <ele>1391</ele>
        <time>2020-05-21T12:45:50Z</time>
      </trkpt>
      <trkpt lat="44.68291" lon="5.87572">
        <ele>1389</ele>
        <time>2020-05-21T12:45:53Z</time>
      </trkpt>
      <trkpt lat="44.6834" lon="5.876">
        <ele>1387</ele>
        <time>2020-05-21T12:45:56Z</time>
      </trkpt>
      <trkpt lat="44.68381" lon="5.87626">
        <ele>1385</ele>
        <time>2020-05-21T12:45:59Z</time>
      </trkpt>
      <trkpt lat="44.68407" lon="5.87648">
        <ele>1384</ele>
        <time>2020-05-21T12:46:02Z</time>
      </trkpt>
      <trkpt lat="44.68424" lon="5.87665">
        <ele>1383</ele>
        <time>2020-05-21T12:46:05Z</time>
      </trkpt>
      <trkpt lat="44.68414" lon="5.87655">
        <ele>1380</ele>
        <time>2020-05-21T12:46:21Z</time>
      </trkpt>
      <trkpt lat="44.68397" lon="5.87638">
        <ele>1378</ele>
        <time>2020-05-21T12:46:24Z</time>
      </trkpt>
      <trkpt lat="44.68378" lon="5.87624">
        <ele>1376</ele>
        <time>2020-05-21T12:46:27Z</time>
      </trkpt>
      <trkpt lat="44.68335" lon="5.87597">
        <ele>1375</ele>
        <time>2020-05-21T12:46:31Z</time>
      </trkpt>
      <trkpt lat="44.68294" lon="5.87573">
        <ele>1375</ele>
        <time>2020-05-21T12:46:34Z</time>
      </trkpt>
      <trkpt lat="44.68249" lon="5.87539">
        <ele>1375</ele>
        <time>2020-05-21T12:46:37Z</time>
      </trkpt>
      <trkpt lat="44.68202" lon="5.87497">
        <ele>1375</ele>
        <time>2020-05-21T12:46:40Z</time>
      </trkpt>
      <trkpt lat="44.68143" lon="5.87432">
        <ele>1374</ele>
        <time>2020-05-21T12:46:43Z</time>
      </trkpt>
      <trkpt lat="44.681" lon="5.87381">
        <ele>1374</ele>
        <time>2020-05-21T12:46:46Z</time>
      </trkpt>
      <trkpt lat="44.68058" lon="5.87332">
        <ele>1374</ele>
        <time>2020-05-21T12:46:50Z</time>
      </trkpt>
      <trkpt lat="44.68031" lon="5.87301">
        <ele>1374</ele>
        <time>2020-05-21T12:46:53Z</time>
      </trkpt>
      <trkpt lat="44.67999" lon="5.87262">
        <ele>1375</ele>
        <time>2020-05-21T12:46:56Z</time>
      </trkpt>
      <trkpt lat="44.67959" lon="5.87208">
        <ele>1375</ele>
        <time>2020-05-21T12:46:59Z</time>
      </trkpt>
      <trkpt lat="44.67936" lon="5.8717">
        <ele>1375</ele>
        <time>2020-05-21T12:47:02Z</time>
      </trkpt>
      <trkpt lat="44.67914" lon="5.87131">
        <ele>1375</ele>
        <time>2020-05-21T12:47:05Z</time>
      </trkpt>
      <trkpt lat="44.67898" lon="5.87101">
        <ele>1375</ele>
        <time>2020-05-21T12:47:08Z</time>
      </trkpt>
      <trkpt lat="44.67881" lon="5.87076">
        <ele>1375</ele>
        <time>2020-05-21T12:47:11Z</time>
      </trkpt>
      <trkpt lat="44.67892" lon="5.87046">
        <ele>1376</ele>
        <time>2020-05-21T12:47:15Z</time>
      </trkpt>
      <trkpt lat="44.67914" lon="5.87037">
        <ele>1375</ele>
        <time>2020-05-21T12:47:19Z</time>
      </trkpt>
      <trkpt lat="44.67941" lon="5.87068">
        <ele>1374</ele>
        <time>2020-05-21T12:47:22Z</time>
      </trkpt>
      <trkpt lat="44.67969" lon="5.87106">
        <ele>1373</ele>
        <time>2020-05-21T12:47:25Z</time>
      </trkpt>
      <trkpt lat="44.67999" lon="5.87135">
        <ele>1372</ele>
        <time>2020-05-21T12:47:28Z</time>
      </trkpt>
      <trkpt lat="44.68063" lon="5.87115">
        <ele>1369</ele>
        <time>2020-05-21T12:47:31Z</time>
      </trkpt>
      <trkpt lat="44.68124" lon="5.87193">
        <ele>1366</ele>
        <time>2020-05-21T12:47:34Z</time>
      </trkpt>
      <trkpt lat="44.68172" lon="5.87264">
        <ele>1364</ele>
        <time>2020-05-21T12:47:37Z</time>
      </trkpt>
      <trkpt lat="44.68222" lon="5.87302">
        <ele>1363</ele>
        <time>2020-05-21T12:47:40Z</time>
      </trkpt>
      <trkpt lat="44.68259" lon="5.87354">
        <ele>1363</ele>
        <time>2020-05-21T12:47:43Z</time>
      </trkpt>
      <trkpt lat="44.68293" lon="5.87385">
        <ele>1363</ele>
        <time>2020-05-21T12:47:47Z</time>
      </trkpt>
      <trkpt lat="44.68328" lon="5.87396">
        <ele>1362</ele>
        <time>2020-05-21T12:47:50Z</time>
      </trkpt>
      <trkpt lat="44.68368" lon="5.87423">
        <ele>1361</ele>
        <time>2020-05-21T12:47:53Z</time>
      </trkpt>
      <trkpt lat="44.68409" lon="5.87449">
        <ele>1360</ele>
        <time>2020-05-21T12:47:56Z</time>
      </trkpt>
      <trkpt lat="44.68455" lon="5.8747">
        <ele>1359</ele>
        <time>2020-05-21T12:47:59Z</time>
      </trkpt>
      <trkpt lat="44.68487" lon="5.87485">
        <ele>1359</ele>
        <time>2020-05-21T12:48:02Z</time>
      </trkpt>
      <trkpt lat="44.68564" lon="5.87525">
        <ele>1358</ele>
        <time>2020-05-21T12:48:05Z</time>
      </trkpt>
      <trkpt lat="44.68613" lon="5.87571">
        <ele>1358</ele>
        <time>2020-05-21T12:48:08Z</time>
      </trkpt>
      <trkpt lat="44.68663" lon="5.87608">
        <ele>1357</ele>
        <time>2020-05-21T12:48:11Z</time>
      </trkpt>
      <trkpt lat="44.68718" lon="5.87643">
        <ele>1355</ele>
        <time>2020-05-21T12:48:14Z</time>
      </trkpt>
      <trkpt lat="44.68779" lon="5.87695">
        <ele>1353</ele>
        <time>2020-05-21T12:48:18Z</time>
      </trkpt>
      <trkpt lat="44.68827" lon="5.87733">
        <ele>1351</ele>
        <time>2020-05-21T12:48:21Z</time>
      </trkpt>
      <trkpt lat="44.68882" lon="5.87753">
        <ele>1349</ele>
        <time>2020-05-21T12:48:25Z</time>
      </trkpt>
      <trkpt lat="44.6892" lon="5.8777">
        <ele>1346</ele>
        <time>2020-05-21T12:48:28Z</time>
      </trkpt>
      <trkpt lat="44.68996" lon="5.87826">
        <ele>1343</ele>
        <time>2020-05-21T12:48:31Z</time>
      </trkpt>
      <trkpt lat="44.69056" lon="5.87875">
        <ele>1341</ele>
        <time>2020-05-21T12:48:34Z</time>
      </trkpt>
      <trkpt lat="44.69111" lon="5.87918">
        <ele>1340</ele>
        <time>2020-05-21T12:48:37Z</time>
      </trkpt>
      <trkpt lat="44.69157" lon="5.8796">
        <ele>1340</ele>
        <time>2020-05-21T12:48:40Z</time>
      </trkpt>
      <trkpt lat="44.69196" lon="5.88">
        <ele>1340</ele>
        <time>2020-05-21T12:48:43Z</time>
      </trkpt>
      <trkpt lat="44.69228" lon="5.88036">
        <ele>1340</ele>
        <time>2020-05-21T12:48:46Z</time>
      </trkpt>
      <trkpt lat="44.69255" lon="5.88067">
        <ele>1340</ele>
        <time>2020-05-21T12:48:49Z</time>
      </trkpt>
      <trkpt lat="44.6928" lon="5.88092">
        <ele>1339</ele>
        <time>2020-05-21T12:48:52Z</time>
      </trkpt>
      <trkpt lat="44.69299" lon="5.88109">
        <ele>1338</ele>
        <time>2020-05-21T12:48:56Z</time>
      </trkpt>
      <trkpt lat="44.69312" lon="5.88119">
        <ele>1338</ele>
        <time>2020-05-21T12:48:59Z</time>
      </trkpt>
      <trkpt lat="44.6933" lon="5.88133">
        <ele>1337</ele>
        <time>2020-05-21T12:49:02Z</time>
      </trkpt>
      <trkpt lat="44.69352" lon="5.88148">
        <ele>1335</ele>
        <time>2020-05-21T12:49:05Z</time>
      </trkpt>
      <trkpt lat="44.69365" lon="5.88157">
        <ele>1334</ele>
        <time>2020-05-21T12:49:09Z</time>
      </trkpt>
      <trkpt lat="44.69379" lon="5.88168">
        <ele>1333</ele>
        <time>2020-05-21T12:49:12Z</time>
      </trkpt>
      <trkpt lat="44.69406" lon="5.88179">
        <ele>1330</ele>
        <time>2020-05-21T12:49:15Z</time>
      </trkpt>
      <trkpt lat="44.6942" lon="5.88194">
        <ele>1328</ele>
        <time>2020-05-21T12:49:18Z</time>
      </trkpt>
      <trkpt lat="44.6944" lon="5.88214">
        <ele>1326</ele>
        <time>2020-05-21T12:49:22Z</time>
      </trkpt>
      <trkpt lat="44.69466" lon="5.88227">
        <ele>1324</ele>
        <time>2020-05-21T12:49:25Z</time>
      </trkpt>
      <trkpt lat="44.69506" lon="5.88233">
        <ele>1322</ele>
        <time>2020-05-21T12:49:28Z</time>
      </trkpt>
      <trkpt lat="44.69522" lon="5.88234">
        <ele>1321</ele>
        <time>2020-05-21T12:49:31Z</time>
      </trkpt>
      <trkpt lat="44.69546" lon="5.88238">
        <ele>1320</ele>
        <time>2020-05-21T12:49:34Z</time>
      </trkpt>
      <trkpt lat="44.69562" lon="5.88231">
        <ele>1318</ele>
        <time>2020-05-21T12:49:38Z</time>
      </trkpt>
      <trkpt lat="44.69555" lon="5.88215">
        <ele>1317</ele>
        <time>2020-05-21T12:49:41Z</time>
      </trkpt>
      <trkpt lat="44.69534" lon="5.88204">
        <ele>1316</ele>
        <time>2020-05-21T12:49:44Z</time>
      </trkpt>
      <trkpt lat="44.69513" lon="5.8817">
        <ele>1314</ele>
        <time>2020-05-21T12:49:47Z</time>
      </trkpt>
      <trkpt lat="44.69501" lon="5.88149">
        <ele>1312</ele>
        <time>2020-05-21T12:49:50Z</time>
      </trkpt>
      <trkpt lat="44.69492" lon="5.88123">
        <ele>1311</ele>
        <time>2020-05-21T12:49:53Z</time>
      </trkpt>
      <trkpt lat="44.6949" lon="5.88099">
        <ele>1310</ele>
        <time>2020-05-21T12:49:56Z</time>
      </trkpt>
      <trkpt lat="44.69506" lon="5.88092">
        <ele>1309</ele>
        <time>2020-05-21T12:49:59Z</time>
      </trkpt>
      <trkpt lat="44.69521" lon="5.88093">
        <ele>1309</ele>
        <time>2020-05-21T12:50:02Z</time>
      </trkpt>
      <trkpt lat="44.69546" lon="5.88093">
        <ele>1308</ele>
        <time>2020-05-21T12:50:05Z</time>
      </trkpt>
      <trkpt lat="44.69587" lon="5.88093">
        <ele>1307</ele>
        <time>2020-05-21T12:50:09Z</time>
      </trkpt>
      <trkpt lat="44.69621" lon="5.88093">
        <ele>1306</ele>
        <time>2020-05-21T12:50:12Z</time>
      </trkpt>
      <trkpt lat="44.69648" lon="5.88093">
        <ele>1305</ele>
        <time>2020-05-21T12:50:16Z</time>
      </trkpt>
      <trkpt lat="44.6967" lon="5.88095">
        <ele>1304</ele>
        <time>2020-05-21T12:50:19Z</time>
      </trkpt>
      <trkpt lat="44.69698" lon="5.881">
        <ele>1304</ele>
        <time>2020-05-21T12:50:22Z</time>
      </trkpt>
      <trkpt lat="44.69732" lon="5.88108">
        <ele>1303</ele>
        <time>2020-05-21T12:50:25Z</time>
      </trkpt>
      <trkpt lat="44.69786" lon="5.88129">
        <ele>1302</ele>
        <time>2020-05-21T12:50:28Z</time>
      </trkpt>
      <trkpt lat="44.69825" lon="5.88156">
        <ele>1301</ele>
        <time>2020-05-21T12:50:31Z</time>
      </trkpt>
      <trkpt lat="44.69854" lon="5.88177">
        <ele>1300</ele>
        <time>2020-05-21T12:50:34Z</time>
      </trkpt>
      <trkpt lat="44.69895" lon="5.88207">
        <ele>1299</ele>
        <time>2020-05-21T12:50:37Z</time>
      </trkpt>
      <trkpt lat="44.69945" lon="5.88239">
        <ele>1298</ele>
        <time>2020-05-21T12:50:40Z</time>
      </trkpt>
      <trkpt lat="44.69994" lon="5.88272">
        <ele>1298</ele>
        <time>2020-05-21T12:50:44Z</time>
      </trkpt>
      <trkpt lat="44.70041" lon="5.88304">
        <ele>1297</ele>
        <time>2020-05-21T12:50:47Z</time>
      </trkpt>
      <trkpt lat="44.70107" lon="5.88334">
        <ele>1296</ele>
        <time>2020-05-21T12:50:50Z</time>
      </trkpt>
      <trkpt lat="44.70157" lon="5.88347">
        <ele>1296</ele>
        <time>2020-05-21T12:50:53Z</time>
      </trkpt>
      <trkpt lat="44.70211" lon="5.8836">
        <ele>1295</ele>
        <time>2020-05-21T12:50:56Z</time>
      </trkpt>
      <trkpt lat="44.70263" lon="5.88383">
        <ele>1294</ele>
        <time>2020-05-21T12:50:59Z</time>
      </trkpt>
      <trkpt lat="44.70318" lon="5.88411">
        <ele>1293</ele>
        <time>2020-05-21T12:51:02Z</time>
      </trkpt>
      <trkpt lat="44.70374" lon="5.88437">
        <ele>1293</ele>
        <time>2020-05-21T12:51:06Z</time>
      </trkpt>
      <trkpt lat="44.70422" lon="5.88479">
        <ele>1292</ele>
        <time>2020-05-21T12:51:09Z</time>
      </trkpt>
      <trkpt lat="44.70454" lon="5.88528">
        <ele>1290</ele>
        <time>2020-05-21T12:51:12Z</time>
      </trkpt>
      <trkpt lat="44.70476" lon="5.88588">
        <ele>1290</ele>
        <time>2020-05-21T12:51:15Z</time>
      </trkpt>
      <trkpt lat="44.70504" lon="5.88636">
        <ele>1290</ele>
        <time>2020-05-21T12:51:19Z</time>
      </trkpt>
      <trkpt lat="44.70528" lon="5.88683">
        <ele>1289</ele>
        <time>2020-05-21T12:51:22Z</time>
      </trkpt>
      <trkpt lat="44.70561" lon="5.88735">
        <ele>1289</ele>
        <time>2020-05-21T12:51:25Z</time>
      </trkpt>
      <trkpt lat="44.70594" lon="5.88781">
        <ele>1290</ele>
        <time>2020-05-21T12:51:28Z</time>
      </trkpt>
      <trkpt lat="44.70619" lon="5.88801">
        <ele>1290</ele>
        <time>2020-05-21T12:51:31Z</time>
      </trkpt>
      <trkpt lat="44.70636" lon="5.88838">
        <ele>1289</ele>
        <time>2020-05-21T12:51:34Z</time>
      </trkpt>
      <trkpt lat="44.70646" lon="5.88883">
        <ele>1288</ele>
        <time>2020-05-21T12:51:37Z</time>
      </trkpt>
      <trkpt lat="44.70701" lon="5.88885">
        <ele>1287</ele>
        <time>2020-05-21T12:51:40Z</time>
      </trkpt>
      <trkpt lat="44.70745" lon="5.88897">
        <ele>1284</ele>
        <time>2020-05-21T12:51:43Z</time>
      </trkpt>
      <trkpt lat="44.70801" lon="5.88875">
        <ele>1282</ele>
        <time>2020-05-21T12:51:47Z</time>
      </trkpt>
      <trkpt lat="44.70863" lon="5.88886">
        <ele>1278</ele>
        <time>2020-05-21T12:51:50Z</time>
      </trkpt>
      <trkpt lat="44.709" lon="5.88944">
        <ele>1276</ele>
        <time>2020-05-21T12:51:53Z</time>
      </trkpt>
      <trkpt lat="44.70938" lon="5.89003">
        <ele>1274</ele>
        <time>2020-05-21T12:51:57Z</time>
      </trkpt>
      <trkpt lat="44.70949" lon="5.89044">
        <ele>1271</ele>
        <time>2020-05-21T12:52:00Z</time>
      </trkpt>
      <trkpt lat="44.71016" lon="5.89084">
        <ele>1267</ele>
        <time>2020-05-21T12:52:03Z</time>
      </trkpt>
      <trkpt lat="44.71053" lon="5.89143">
        <ele>1264</ele>
        <time>2020-05-21T12:52:06Z</time>
      </trkpt>
      <trkpt lat="44.71093" lon="5.89148">
        <ele>1262</ele>
        <time>2020-05-21T12:52:10Z</time>
      </trkpt>
      <trkpt lat="44.7112" lon="5.8914">
        <ele>1259</ele>
        <time>2020-05-21T12:52:13Z</time>
      </trkpt>
      <trkpt lat="44.71161" lon="5.89121">
        <ele>1257</ele>
        <time>2020-05-21T12:52:16Z</time>
      </trkpt>
      <trkpt lat="44.71203" lon="5.89112">
        <ele>1254</ele>
        <time>2020-05-21T12:52:19Z</time>
      </trkpt>
      <trkpt lat="44.71251" lon="5.891">
        <ele>1251</ele>
        <time>2020-05-21T12:52:22Z</time>
      </trkpt>
      <trkpt lat="44.71287" lon="5.89073">
        <ele>1250</ele>
        <time>2020-05-21T12:52:25Z</time>
      </trkpt>
      <trkpt lat="44.71328" lon="5.89061">
        <ele>1247</ele>
        <time>2020-05-21T12:52:28Z</time>
      </trkpt>
      <trkpt lat="44.71367" lon="5.8906">
        <ele>1245</ele>
        <time>2020-05-21T12:52:31Z</time>
      </trkpt>
      <trkpt lat="44.71393" lon="5.89039">
        <ele>1242</ele>
        <time>2020-05-21T12:52:35Z</time>
      </trkpt>
      <trkpt lat="44.7142" lon="5.88985">
        <ele>1240</ele>
        <time>2020-05-21T12:52:38Z</time>
      </trkpt>
      <trkpt lat="44.71443" lon="5.88928">
        <ele>1239</ele>
        <time>2020-05-21T12:52:41Z</time>
      </trkpt>
      <trkpt lat="44.71449" lon="5.88888">
        <ele>1237</ele>
        <time>2020-05-21T12:52:44Z</time>
      </trkpt>
      <trkpt lat="44.71448" lon="5.88837">
        <ele>1235</ele>
        <time>2020-05-21T12:52:47Z</time>
      </trkpt>
      <trkpt lat="44.71425" lon="5.88776">
        <ele>1232</ele>
        <time>2020-05-21T12:52:51Z</time>
      </trkpt>
      <trkpt lat="44.71407" lon="5.88716">
        <ele>1230</ele>
        <time>2020-05-21T12:52:54Z</time>
      </trkpt>
      <trkpt lat="44.71386" lon="5.8866">
        <ele>1229</ele>
        <time>2020-05-21T12:52:57Z</time>
      </trkpt>
      <trkpt lat="44.71373" lon="5.88636">
        <ele>1226</ele>
        <time>2020-05-21T12:53:00Z</time>
      </trkpt>
      <trkpt lat="44.71358" lon="5.88605">
        <ele>1223</ele>
        <time>2020-05-21T12:53:03Z</time>
      </trkpt>
      <trkpt lat="44.71386" lon="5.88584">
        <ele>1222</ele>
        <time>2020-05-21T12:53:09Z</time>
      </trkpt>
      <trkpt lat="44.71419" lon="5.88607">
        <ele>1220</ele>
        <time>2020-05-21T12:53:12Z</time>
      </trkpt>
      <trkpt lat="44.7146" lon="5.88604">
        <ele>1215</ele>
        <time>2020-05-21T12:53:15Z</time>
      </trkpt>
      <trkpt lat="44.7145" lon="5.88578">
        <ele>1210</ele>
        <time>2020-05-21T12:53:18Z</time>
      </trkpt>
      <trkpt lat="44.71525" lon="5.88616">
        <ele>1207</ele>
        <time>2020-05-21T12:53:21Z</time>
      </trkpt>
      <trkpt lat="44.7158" lon="5.88663">
        <ele>1206</ele>
        <time>2020-05-21T12:53:24Z</time>
      </trkpt>
      <trkpt lat="44.71608" lon="5.88667">
        <ele>1204</ele>
        <time>2020-05-21T12:53:27Z</time>
      </trkpt>
      <trkpt lat="44.71621" lon="5.88648">
        <ele>1201</ele>
        <time>2020-05-21T12:53:30Z</time>
      </trkpt>
      <trkpt lat="44.71667" lon="5.88704">
        <ele>1197</ele>
        <time>2020-05-21T12:53:34Z</time>
      </trkpt>
      <trkpt lat="44.71712" lon="5.88762">
        <ele>1193</ele>
        <time>2020-05-21T12:53:38Z</time>
      </trkpt>
      <trkpt lat="44.71752" lon="5.88797">
        <ele>1191</ele>
        <time>2020-05-21T12:53:41Z</time>
      </trkpt>
      <trkpt lat="44.71776" lon="5.88831">
        <ele>1190</ele>
        <time>2020-05-21T12:53:44Z</time>
      </trkpt>
      <trkpt lat="44.71818" lon="5.88825">
        <ele>1190</ele>
        <time>2020-05-21T12:53:47Z</time>
      </trkpt>
      <trkpt lat="44.71843" lon="5.8883">
        <ele>1189</ele>
        <time>2020-05-21T12:53:50Z</time>
      </trkpt>
      <trkpt lat="44.71856" lon="5.88856">
        <ele>1187</ele>
        <time>2020-05-21T12:53:53Z</time>
      </trkpt>
      <trkpt lat="44.71877" lon="5.88899">
        <ele>1184</ele>
        <time>2020-05-21T12:53:56Z</time>
      </trkpt>
      <trkpt lat="44.71933" lon="5.88919">
        <ele>1182</ele>
        <time>2020-05-21T12:53:59Z</time>
      </trkpt>
      <trkpt lat="44.71953" lon="5.8899">
        <ele>1179</ele>
        <time>2020-05-21T12:54:03Z</time>
      </trkpt>
      <trkpt lat="44.71968" lon="5.89077">
        <ele>1177</ele>
        <time>2020-05-21T12:54:06Z</time>
      </trkpt>
      <trkpt lat="44.72003" lon="5.89135">
        <ele>1176</ele>
        <time>2020-05-21T12:54:09Z</time>
      </trkpt>
      <trkpt lat="44.72044" lon="5.89192">
        <ele>1175</ele>
        <time>2020-05-21T12:54:12Z</time>
      </trkpt>
      <trkpt lat="44.72087" lon="5.89239">
        <ele>1175</ele>
        <time>2020-05-21T12:54:15Z</time>
      </trkpt>
      <trkpt lat="44.7213" lon="5.89284">
        <ele>1174</ele>
        <time>2020-05-21T12:54:19Z</time>
      </trkpt>
      <trkpt lat="44.72182" lon="5.89334">
        <ele>1175</ele>
        <time>2020-05-21T12:54:22Z</time>
      </trkpt>
      <trkpt lat="44.72215" lon="5.89385">
        <ele>1175</ele>
        <time>2020-05-21T12:54:25Z</time>
      </trkpt>
      <trkpt lat="44.72239" lon="5.89444">
        <ele>1173</ele>
        <time>2020-05-21T12:54:28Z</time>
      </trkpt>
      <trkpt lat="44.72272" lon="5.89505">
        <ele>1171</ele>
        <time>2020-05-21T12:54:31Z</time>
      </trkpt>
      <trkpt lat="44.72304" lon="5.89552">
        <ele>1169</ele>
        <time>2020-05-21T12:54:34Z</time>
      </trkpt>
      <trkpt lat="44.72344" lon="5.8958">
        <ele>1167</ele>
        <time>2020-05-21T12:54:37Z</time>
      </trkpt>
      <trkpt lat="44.72375" lon="5.89594">
        <ele>1164</ele>
        <time>2020-05-21T12:54:40Z</time>
      </trkpt>
      <trkpt lat="44.72427" lon="5.89625">
        <ele>1163</ele>
        <time>2020-05-21T12:54:43Z</time>
      </trkpt>
      <trkpt lat="44.72497" lon="5.89657">
        <ele>1161</ele>
        <time>2020-05-21T12:54:47Z</time>
      </trkpt>
      <trkpt lat="44.72549" lon="5.89674">
        <ele>1160</ele>
        <time>2020-05-21T12:54:50Z</time>
      </trkpt>
      <trkpt lat="44.72595" lon="5.89699">
        <ele>1158</ele>
        <time>2020-05-21T12:54:53Z</time>
      </trkpt>
      <trkpt lat="44.72643" lon="5.89718">
        <ele>1156</ele>
        <time>2020-05-21T12:54:56Z</time>
      </trkpt>
      <trkpt lat="44.72692" lon="5.89725">
        <ele>1155</ele>
        <time>2020-05-21T12:54:59Z</time>
      </trkpt>
      <trkpt lat="44.72741" lon="5.89732">
        <ele>1154</ele>
        <time>2020-05-21T12:55:02Z</time>
      </trkpt>
      <trkpt lat="44.72788" lon="5.89737">
        <ele>1153</ele>
        <time>2020-05-21T12:55:06Z</time>
      </trkpt>
      <trkpt lat="44.7283" lon="5.89722">
        <ele>1151</ele>
        <time>2020-05-21T12:55:09Z</time>
      </trkpt>
      <trkpt lat="44.72876" lon="5.89732">
        <ele>1150</ele>
        <time>2020-05-21T12:55:12Z</time>
      </trkpt>
      <trkpt lat="44.72917" lon="5.89727">
        <ele>1149</ele>
        <time>2020-05-21T12:55:15Z</time>
      </trkpt>
      <trkpt lat="44.72941" lon="5.89709">
        <ele>1147</ele>
        <time>2020-05-21T12:55:18Z</time>
      </trkpt>
      <trkpt lat="44.72967" lon="5.89689">
        <ele>1145</ele>
        <time>2020-05-21T12:55:21Z</time>
      </trkpt>
      <trkpt lat="44.73002" lon="5.8967">
        <ele>1142</ele>
        <time>2020-05-21T12:55:24Z</time>
      </trkpt>
      <trkpt lat="44.73024" lon="5.8966">
        <ele>1141</ele>
        <time>2020-05-21T12:55:27Z</time>
      </trkpt>
      <trkpt lat="44.7307" lon="5.89645">
        <ele>1140</ele>
        <time>2020-05-21T12:55:30Z</time>
      </trkpt>
      <trkpt lat="44.73114" lon="5.89639">
        <ele>1138</ele>
        <time>2020-05-21T12:55:33Z</time>
      </trkpt>
      <trkpt lat="44.73156" lon="5.89631">
        <ele>1137</ele>
        <time>2020-05-21T12:55:36Z</time>
      </trkpt>
      <trkpt lat="44.73179" lon="5.89629">
        <ele>1135</ele>
        <time>2020-05-21T12:55:39Z</time>
      </trkpt>
      <trkpt lat="44.73193" lon="5.89627">
        <ele>1134</ele>
        <time>2020-05-21T12:55:43Z</time>
      </trkpt>
      <trkpt lat="44.73207" lon="5.89623">
        <ele>1132</ele>
        <time>2020-05-21T12:55:46Z</time>
      </trkpt>
      <trkpt lat="44.73228" lon="5.89611">
        <ele>1130</ele>
        <time>2020-05-21T12:55:49Z</time>
      </trkpt>
      <trkpt lat="44.73257" lon="5.89586">
        <ele>1127</ele>
        <time>2020-05-21T12:55:52Z</time>
      </trkpt>
      <trkpt lat="44.73279" lon="5.89559">
        <ele>1125</ele>
        <time>2020-05-21T12:55:55Z</time>
      </trkpt>
      <trkpt lat="44.7331" lon="5.89542">
        <ele>1123</ele>
        <time>2020-05-21T12:55:58Z</time>
      </trkpt>
      <trkpt lat="44.73335" lon="5.89551">
        <ele>1122</ele>
        <time>2020-05-21T12:56:01Z</time>
      </trkpt>
      <trkpt lat="44.7337" lon="5.89568">
        <ele>1120</ele>
        <time>2020-05-21T12:56:04Z</time>
      </trkpt>
      <trkpt lat="44.73402" lon="5.89571">
        <ele>1118</ele>
        <time>2020-05-21T12:56:07Z</time>
      </trkpt>
      <trkpt lat="44.73425" lon="5.8955">
        <ele>1116</ele>
        <time>2020-05-21T12:56:10Z</time>
      </trkpt>
      <trkpt lat="44.73437" lon="5.89511">
        <ele>1113</ele>
        <time>2020-05-21T12:56:13Z</time>
      </trkpt>
      <trkpt lat="44.73453" lon="5.89484">
        <ele>1111</ele>
        <time>2020-05-21T12:56:16Z</time>
      </trkpt>
      <trkpt lat="44.73478" lon="5.89468">
        <ele>1109</ele>
        <time>2020-05-21T12:56:19Z</time>
      </trkpt>
      <trkpt lat="44.7349" lon="5.89459">
        <ele>1107</ele>
        <time>2020-05-21T12:56:22Z</time>
      </trkpt>
      <trkpt lat="44.73524" lon="5.8944">
        <ele>1106</ele>
        <time>2020-05-21T12:56:25Z</time>
      </trkpt>
      <trkpt lat="44.73553" lon="5.8944">
        <ele>1103</ele>
        <time>2020-05-21T12:56:28Z</time>
      </trkpt>
      <trkpt lat="44.73599" lon="5.89476">
        <ele>1101</ele>
        <time>2020-05-21T12:56:31Z</time>
      </trkpt>
      <trkpt lat="44.73628" lon="5.89476">
        <ele>1099</ele>
        <time>2020-05-21T12:56:34Z</time>
      </trkpt>
      <trkpt lat="44.73637" lon="5.8945">
        <ele>1096</ele>
        <time>2020-05-21T12:56:37Z</time>
      </trkpt>
      <trkpt lat="44.7364" lon="5.89405">
        <ele>1094</ele>
        <time>2020-05-21T12:56:41Z</time>
      </trkpt>
      <trkpt lat="44.73648" lon="5.8936">
        <ele>1093</ele>
        <time>2020-05-21T12:56:44Z</time>
      </trkpt>
      <trkpt lat="44.73672" lon="5.89307">
        <ele>1094</ele>
        <time>2020-05-21T12:56:47Z</time>
      </trkpt>
      <trkpt lat="44.73704" lon="5.89238">
        <ele>1094</ele>
        <time>2020-05-21T12:56:50Z</time>
      </trkpt>
      <trkpt lat="44.73731" lon="5.89187">
        <ele>1093</ele>
        <time>2020-05-21T12:56:53Z</time>
      </trkpt>
      <trkpt lat="44.73759" lon="5.89146">
        <ele>1094</ele>
        <time>2020-05-21T12:56:56Z</time>
      </trkpt>
      <trkpt lat="44.73783" lon="5.89131">
        <ele>1095</ele>
        <time>2020-05-21T12:56:59Z</time>
      </trkpt>
      <trkpt lat="44.73823" lon="5.89137">
        <ele>1094</ele>
        <time>2020-05-21T12:57:02Z</time>
      </trkpt>
      <trkpt lat="44.73858" lon="5.89178">
        <ele>1092</ele>
        <time>2020-05-21T12:57:05Z</time>
      </trkpt>
      <trkpt lat="44.73895" lon="5.892">
        <ele>1091</ele>
        <time>2020-05-21T12:57:08Z</time>
      </trkpt>
      <trkpt lat="44.73932" lon="5.89203">
        <ele>1090</ele>
        <time>2020-05-21T12:57:11Z</time>
      </trkpt>
      <trkpt lat="44.73973" lon="5.89192">
        <ele>1090</ele>
        <time>2020-05-21T12:57:14Z</time>
      </trkpt>
      <trkpt lat="44.74021" lon="5.89177">
        <ele>1091</ele>
        <time>2020-05-21T12:57:17Z</time>
      </trkpt>
      <trkpt lat="44.74088" lon="5.8916">
        <ele>1090</ele>
        <time>2020-05-21T12:57:21Z</time>
      </trkpt>
      <trkpt lat="44.74139" lon="5.89144">
        <ele>1089</ele>
        <time>2020-05-21T12:57:25Z</time>
      </trkpt>
      <trkpt lat="44.7419" lon="5.89117">
        <ele>1087</ele>
        <time>2020-05-21T12:57:28Z</time>
      </trkpt>
      <trkpt lat="44.74232" lon="5.89081">
        <ele>1083</ele>
        <time>2020-05-21T12:57:31Z</time>
      </trkpt>
      <trkpt lat="44.74262" lon="5.8906">
        <ele>1076</ele>
        <time>2020-05-21T12:57:34Z</time>
      </trkpt>
      <trkpt lat="44.7428" lon="5.89068">
        <ele>1071</ele>
        <time>2020-05-21T12:57:37Z</time>
      </trkpt>
      <trkpt lat="44.74293" lon="5.8908">
        <ele>1068</ele>
        <time>2020-05-21T12:57:40Z</time>
      </trkpt>
      <trkpt lat="44.74333" lon="5.89069">
        <ele>1062</ele>
        <time>2020-05-21T12:57:43Z</time>
      </trkpt>
      <trkpt lat="44.74335" lon="5.88999">
        <ele>1058</ele>
        <time>2020-05-21T12:57:46Z</time>
      </trkpt>
      <trkpt lat="44.74382" lon="5.88966">
        <ele>1056</ele>
        <time>2020-05-21T12:57:49Z</time>
      </trkpt>
      <trkpt lat="44.74399" lon="5.88929">
        <ele>1054</ele>
        <time>2020-05-21T12:57:53Z</time>
      </trkpt>
      <trkpt lat="44.7441" lon="5.88867">
        <ele>1050</ele>
        <time>2020-05-21T12:57:56Z</time>
      </trkpt>
      <trkpt lat="44.74427" lon="5.88799">
        <ele>1047</ele>
        <time>2020-05-21T12:57:59Z</time>
      </trkpt>
      <trkpt lat="44.74456" lon="5.88769">
        <ele>1044</ele>
        <time>2020-05-21T12:58:02Z</time>
      </trkpt>
      <trkpt lat="44.74487" lon="5.88755">
        <ele>1042</ele>
        <time>2020-05-21T12:58:05Z</time>
      </trkpt>
      <trkpt lat="44.74523" lon="5.88739">
        <ele>1040</ele>
        <time>2020-05-21T12:58:08Z</time>
      </trkpt>
      <trkpt lat="44.74577" lon="5.88717">
        <ele>1038</ele>
        <time>2020-05-21T12:58:11Z</time>
      </trkpt>
      <trkpt lat="44.74612" lon="5.88677">
        <ele>1036</ele>
        <time>2020-05-21T12:58:15Z</time>
      </trkpt>
      <trkpt lat="44.74658" lon="5.8868">
        <ele>1033</ele>
        <time>2020-05-21T12:58:18Z</time>
      </trkpt>
      <trkpt lat="44.74688" lon="5.88644">
        <ele>1032</ele>
        <time>2020-05-21T12:58:21Z</time>
      </trkpt>
      <trkpt lat="44.74708" lon="5.88606">
        <ele>1031</ele>
        <time>2020-05-21T12:58:24Z</time>
      </trkpt>
      <trkpt lat="44.74726" lon="5.88575">
        <ele>1031</ele>
        <time>2020-05-21T12:58:27Z</time>
      </trkpt>
      <trkpt lat="44.74739" lon="5.88554">
        <ele>1030</ele>
        <time>2020-05-21T12:58:30Z</time>
      </trkpt>
      <trkpt lat="44.74753" lon="5.88546">
        <ele>1027</ele>
        <time>2020-05-21T12:58:34Z</time>
      </trkpt>
      <trkpt lat="44.74767" lon="5.88542">
        <ele>1024</ele>
        <time>2020-05-21T12:58:37Z</time>
      </trkpt>
      <trkpt lat="44.74795" lon="5.88528">
        <ele>1020</ele>
        <time>2020-05-21T12:58:40Z</time>
      </trkpt>
      <trkpt lat="44.74824" lon="5.88525">
        <ele>1017</ele>
        <time>2020-05-21T12:58:43Z</time>
      </trkpt>
      <trkpt lat="44.74873" lon="5.8853">
        <ele>1015</ele>
        <time>2020-05-21T12:58:46Z</time>
      </trkpt>
      <trkpt lat="44.74921" lon="5.88507">
        <ele>1015</ele>
        <time>2020-05-21T12:58:50Z</time>
      </trkpt>
      <trkpt lat="44.74961" lon="5.88492">
        <ele>1015</ele>
        <time>2020-05-21T12:58:53Z</time>
      </trkpt>
      <trkpt lat="44.74999" lon="5.88505">
        <ele>1015</ele>
        <time>2020-05-21T12:58:56Z</time>
      </trkpt>
      <trkpt lat="44.75039" lon="5.88502">
        <ele>1013</ele>
        <time>2020-05-21T12:58:59Z</time>
      </trkpt>
      <trkpt lat="44.75075" lon="5.88497">
        <ele>1010</ele>
        <time>2020-05-21T12:59:02Z</time>
      </trkpt>
      <trkpt lat="44.75097" lon="5.88432">
        <ele>1007</ele>
        <time>2020-05-21T12:59:05Z</time>
      </trkpt>
      <trkpt lat="44.75099" lon="5.88387">
        <ele>1005</ele>
        <time>2020-05-21T12:59:08Z</time>
      </trkpt>
      <trkpt lat="44.75112" lon="5.88357">
        <ele>1003</ele>
        <time>2020-05-21T12:59:12Z</time>
      </trkpt>
      <trkpt lat="44.75143" lon="5.8835">
        <ele>1002</ele>
        <time>2020-05-21T12:59:15Z</time>
      </trkpt>
      <trkpt lat="44.75163" lon="5.88355">
        <ele>1002</ele>
        <time>2020-05-21T12:59:18Z</time>
      </trkpt>
      <trkpt lat="44.75189" lon="5.88361">
        <ele>1000</ele>
        <time>2020-05-21T12:59:21Z</time>
      </trkpt>
      <trkpt lat="44.7523" lon="5.8837">
        <ele>995</ele>
        <time>2020-05-21T12:59:24Z</time>
      </trkpt>
      <trkpt lat="44.75274" lon="5.88379">
        <ele>994</ele>
        <time>2020-05-21T12:59:27Z</time>
      </trkpt>
      <trkpt lat="44.75306" lon="5.88381">
        <ele>992</ele>
        <time>2020-05-21T12:59:31Z</time>
      </trkpt>
      <trkpt lat="44.75349" lon="5.8838">
        <ele>991</ele>
        <time>2020-05-21T12:59:34Z</time>
      </trkpt>
      <trkpt lat="44.75381" lon="5.88386">
        <ele>990</ele>
        <time>2020-05-21T12:59:37Z</time>
      </trkpt>
      <trkpt lat="44.7542" lon="5.88385">
        <ele>989</ele>
        <time>2020-05-21T12:59:41Z</time>
      </trkpt>
      <trkpt lat="44.75451" lon="5.88386">
        <ele>987</ele>
        <time>2020-05-21T12:59:44Z</time>
      </trkpt>
      <trkpt lat="44.75482" lon="5.88388">
        <ele>986</ele>
        <time>2020-05-21T12:59:47Z</time>
      </trkpt>
      <trkpt lat="44.75506" lon="5.88429">
        <ele>986</ele>
        <time>2020-05-21T12:59:50Z</time>
      </trkpt>
      <trkpt lat="44.75519" lon="5.88468">
        <ele>986</ele>
        <time>2020-05-21T12:59:53Z</time>
      </trkpt>
      <trkpt lat="44.75539" lon="5.88509">
        <ele>986</ele>
        <time>2020-05-21T12:59:56Z</time>
      </trkpt>
      <trkpt lat="44.75567" lon="5.88535">
        <ele>985</ele>
        <time>2020-05-21T12:59:59Z</time>
      </trkpt>
      <trkpt lat="44.7562" lon="5.88564">
        <ele>986</ele>
        <time>2020-05-21T13:00:03Z</time>
      </trkpt>
      <trkpt lat="44.75672" lon="5.88556">
        <ele>987</ele>
        <time>2020-05-21T13:00:07Z</time>
      </trkpt>
      <trkpt lat="44.75706" lon="5.88525">
        <ele>987</ele>
        <time>2020-05-21T13:00:10Z</time>
      </trkpt>
      <trkpt lat="44.75724" lon="5.88497">
        <ele>988</ele>
        <time>2020-05-21T13:00:13Z</time>
      </trkpt>
      <trkpt lat="44.75747" lon="5.88476">
        <ele>988</ele>
        <time>2020-05-21T13:00:16Z</time>
      </trkpt>
      <trkpt lat="44.75789" lon="5.88458">
        <ele>988</ele>
        <time>2020-05-21T13:00:19Z</time>
      </trkpt>
      <trkpt lat="44.75822" lon="5.88446">
        <ele>989</ele>
        <time>2020-05-21T13:00:22Z</time>
      </trkpt>
      <trkpt lat="44.75871" lon="5.88457">
        <ele>990</ele>
        <time>2020-05-21T13:00:25Z</time>
      </trkpt>
      <trkpt lat="44.75933" lon="5.88493">
        <ele>992</ele>
        <time>2020-05-21T13:00:28Z</time>
      </trkpt>
      <trkpt lat="44.75975" lon="5.88511">
        <ele>994</ele>
        <time>2020-05-21T13:00:32Z</time>
      </trkpt>
      <trkpt lat="44.76025" lon="5.88524">
        <ele>997</ele>
        <time>2020-05-21T13:00:35Z</time>
      </trkpt>
      <trkpt lat="44.76061" lon="5.88533">
        <ele>999</ele>
        <time>2020-05-21T13:00:38Z</time>
      </trkpt>
      <trkpt lat="44.7608" lon="5.8855">
        <ele>1000</ele>
        <time>2020-05-21T13:00:41Z</time>
      </trkpt>
      <trkpt lat="44.7609" lon="5.88566">
        <ele>1001</ele>
        <time>2020-05-21T13:00:44Z</time>
      </trkpt>
      <trkpt lat="44.76107" lon="5.88602">
        <ele>1001</ele>
        <time>2020-05-21T13:00:47Z</time>
      </trkpt>
      <trkpt lat="44.76124" lon="5.88632">
        <ele>1001</ele>
        <time>2020-05-21T13:00:50Z</time>
      </trkpt>
      <trkpt lat="44.7618" lon="5.88631">
        <ele>1001</ele>
        <time>2020-05-21T13:00:53Z</time>
      </trkpt>
      <trkpt lat="44.7621" lon="5.88662">
        <ele>1000</ele>
        <time>2020-05-21T13:00:57Z</time>
      </trkpt>
      <trkpt lat="44.76239" lon="5.88708">
        <ele>1001</ele>
        <time>2020-05-21T13:01:00Z</time>
      </trkpt>
      <trkpt lat="44.76251" lon="5.88744">
        <ele>1001</ele>
        <time>2020-05-21T13:01:03Z</time>
      </trkpt>
      <trkpt lat="44.76266" lon="5.88783">
        <ele>1002</ele>
        <time>2020-05-21T13:01:07Z</time>
      </trkpt>
      <trkpt lat="44.76274" lon="5.88833">
        <ele>1004</ele>
        <time>2020-05-21T13:01:10Z</time>
      </trkpt>
      <trkpt lat="44.76298" lon="5.88858">
        <ele>1004</ele>
        <time>2020-05-21T13:01:13Z</time>
      </trkpt>
      <trkpt lat="44.76324" lon="5.88865">
        <ele>1004</ele>
        <time>2020-05-21T13:01:16Z</time>
      </trkpt>
      <trkpt lat="44.76345" lon="5.8888">
        <ele>1003</ele>
        <time>2020-05-21T13:01:19Z</time>
      </trkpt>
      <trkpt lat="44.76374" lon="5.88915">
        <ele>1002</ele>
        <time>2020-05-21T13:01:22Z</time>
      </trkpt>
      <trkpt lat="44.76398" lon="5.88958">
        <ele>1003</ele>
        <time>2020-05-21T13:01:26Z</time>
      </trkpt>
      <trkpt lat="44.76411" lon="5.89004">
        <ele>1003</ele>
        <time>2020-05-21T13:01:29Z</time>
      </trkpt>
      <trkpt lat="44.76432" lon="5.89046">
        <ele>1005</ele>
        <time>2020-05-21T13:01:32Z</time>
      </trkpt>
      <trkpt lat="44.76454" lon="5.89076">
        <ele>1005</ele>
        <time>2020-05-21T13:01:35Z</time>
      </trkpt>
      <trkpt lat="44.76481" lon="5.89137">
        <ele>1006</ele>
        <time>2020-05-21T13:01:38Z</time>
      </trkpt>
      <trkpt lat="44.76519" lon="5.89182">
        <ele>1008</ele>
        <time>2020-05-21T13:01:41Z</time>
      </trkpt>
      <trkpt lat="44.76559" lon="5.89232">
        <ele>1011</ele>
        <time>2020-05-21T13:01:44Z</time>
      </trkpt>
      <trkpt lat="44.76588" lon="5.89268">
        <ele>1013</ele>
        <time>2020-05-21T13:01:47Z</time>
      </trkpt>
      <trkpt lat="44.76612" lon="5.89286">
        <ele>1016</ele>
        <time>2020-05-21T13:01:50Z</time>
      </trkpt>
      <trkpt lat="44.76663" lon="5.89327">
        <ele>1019</ele>
        <time>2020-05-21T13:01:54Z</time>
      </trkpt>
      <trkpt lat="44.767" lon="5.89366">
        <ele>1020</ele>
        <time>2020-05-21T13:01:57Z</time>
      </trkpt>
      <trkpt lat="44.76735" lon="5.89397">
        <ele>1021</ele>
        <time>2020-05-21T13:02:00Z</time>
      </trkpt>
      <trkpt lat="44.76774" lon="5.89401">
        <ele>1023</ele>
        <time>2020-05-21T13:02:03Z</time>
      </trkpt>
      <trkpt lat="44.76816" lon="5.89407">
        <ele>1025</ele>
        <time>2020-05-21T13:02:06Z</time>
      </trkpt>
      <trkpt lat="44.76863" lon="5.89417">
        <ele>1026</ele>
        <time>2020-05-21T13:02:10Z</time>
      </trkpt>
      <trkpt lat="44.76884" lon="5.89408">
        <ele>1026</ele>
        <time>2020-05-21T13:02:13Z</time>
      </trkpt>
      <trkpt lat="44.76905" lon="5.89403">
        <ele>1027</ele>
        <time>2020-05-21T13:02:16Z</time>
      </trkpt>
      <trkpt lat="44.76923" lon="5.89423">
        <ele>1027</ele>
        <time>2020-05-21T13:02:19Z</time>
      </trkpt>
      <trkpt lat="44.76929" lon="5.8945">
        <ele>1026</ele>
        <time>2020-05-21T13:02:22Z</time>
      </trkpt>
      <trkpt lat="44.76932" lon="5.89506">
        <ele>1024</ele>
        <time>2020-05-21T13:02:26Z</time>
      </trkpt>
      <trkpt lat="44.76999" lon="5.89527">
        <ele>1022</ele>
        <time>2020-05-21T13:02:29Z</time>
      </trkpt>
      <trkpt lat="44.77035" lon="5.89527">
        <ele>1020</ele>
        <time>2020-05-21T13:02:32Z</time>
      </trkpt>
      <trkpt lat="44.77076" lon="5.8957">
        <ele>1018</ele>
        <time>2020-05-21T13:02:35Z</time>
      </trkpt>
      <trkpt lat="44.77098" lon="5.8964">
        <ele>1017</ele>
        <time>2020-05-21T13:02:38Z</time>
      </trkpt>
      <trkpt lat="44.77067" lon="5.89727">
        <ele>1018</ele>
        <time>2020-05-21T13:02:41Z</time>
      </trkpt>
      <trkpt lat="44.77043" lon="5.89773">
        <ele>1019</ele>
        <time>2020-05-21T13:02:44Z</time>
      </trkpt>
      <trkpt lat="44.77026" lon="5.89824">
        <ele>1020</ele>
        <time>2020-05-21T13:02:47Z</time>
      </trkpt>
      <trkpt lat="44.77025" lon="5.89852">
        <ele>1022</ele>
        <time>2020-05-21T13:02:50Z</time>
      </trkpt>
      <trkpt lat="44.77042" lon="5.89882">
        <ele>1023</ele>
        <time>2020-05-21T13:02:53Z</time>
      </trkpt>
      <trkpt lat="44.77065" lon="5.89903">
        <ele>1024</ele>
        <time>2020-05-21T13:02:56Z</time>
      </trkpt>
      <trkpt lat="44.77103" lon="5.89936">
        <ele>1024</ele>
        <time>2020-05-21T13:03:00Z</time>
      </trkpt>
      <trkpt lat="44.77134" lon="5.8996">
        <ele>1024</ele>
        <time>2020-05-21T13:03:03Z</time>
      </trkpt>
      <trkpt lat="44.77166" lon="5.89966">
        <ele>1024</ele>
        <time>2020-05-21T13:03:06Z</time>
      </trkpt>
      <trkpt lat="44.77209" lon="5.89926">
        <ele>1024</ele>
        <time>2020-05-21T13:03:10Z</time>
      </trkpt>
      <trkpt lat="44.77257" lon="5.89882">
        <ele>1025</ele>
        <time>2020-05-21T13:03:14Z</time>
      </trkpt>
      <trkpt lat="44.77296" lon="5.89863">
        <ele>1025</ele>
        <time>2020-05-21T13:03:17Z</time>
      </trkpt>
      <trkpt lat="44.77339" lon="5.89863">
        <ele>1025</ele>
        <time>2020-05-21T13:03:20Z</time>
      </trkpt>
      <trkpt lat="44.77366" lon="5.89869">
        <ele>1024</ele>
        <time>2020-05-21T13:03:23Z</time>
      </trkpt>
      <trkpt lat="44.774" lon="5.89877">
        <ele>1023</ele>
        <time>2020-05-21T13:03:26Z</time>
      </trkpt>
      <trkpt lat="44.77428" lon="5.89858">
        <ele>1022</ele>
        <time>2020-05-21T13:03:29Z</time>
      </trkpt>
      <trkpt lat="44.77443" lon="5.89819">
        <ele>1022</ele>
        <time>2020-05-21T13:03:32Z</time>
      </trkpt>
      <trkpt lat="44.77454" lon="5.89788">
        <ele>1021</ele>
        <time>2020-05-21T13:03:35Z</time>
      </trkpt>
      <trkpt lat="44.77477" lon="5.89795">
        <ele>1021</ele>
        <time>2020-05-21T13:03:38Z</time>
      </trkpt>
      <trkpt lat="44.7749" lon="5.89801">
        <ele>1021</ele>
        <time>2020-05-21T13:03:41Z</time>
      </trkpt>
      <trkpt lat="44.77517" lon="5.89793">
        <ele>1020</ele>
        <time>2020-05-21T13:03:45Z</time>
      </trkpt>
      <trkpt lat="44.77548" lon="5.89789">
        <ele>1015</ele>
        <time>2020-05-21T13:03:48Z</time>
      </trkpt>
      <trkpt lat="44.77591" lon="5.89809">
        <ele>1012</ele>
        <time>2020-05-21T13:03:51Z</time>
      </trkpt>
      <trkpt lat="44.7762" lon="5.89853">
        <ele>1010</ele>
        <time>2020-05-21T13:03:54Z</time>
      </trkpt>
      <trkpt lat="44.7762" lon="5.89875">
        <ele>1010</ele>
        <time>2020-05-21T13:03:58Z</time>
      </trkpt>
      <trkpt lat="44.77604" lon="5.89894">
        <ele>1010</ele>
        <time>2020-05-21T13:04:01Z</time>
      </trkpt>
      <trkpt lat="44.77571" lon="5.89903">
        <ele>1007</ele>
        <time>2020-05-21T13:04:04Z</time>
      </trkpt>
      <trkpt lat="44.77565" lon="5.89941">
        <ele>1002</ele>
        <time>2020-05-21T13:04:07Z</time>
      </trkpt>
      <trkpt lat="44.7755" lon="5.89954">
        <ele>998</ele>
        <time>2020-05-21T13:04:10Z</time>
      </trkpt>
      <trkpt lat="44.77527" lon="5.89993">
        <ele>993</ele>
        <time>2020-05-21T13:04:14Z</time>
      </trkpt>
      <trkpt lat="44.77531" lon="5.90025">
        <ele>983</ele>
        <time>2020-05-21T13:04:17Z</time>
      </trkpt>
      <trkpt lat="44.77509" lon="5.90095">
        <ele>977</ele>
        <time>2020-05-21T13:04:21Z</time>
      </trkpt>
      <trkpt lat="44.77499" lon="5.9012">
        <ele>976</ele>
        <time>2020-05-21T13:04:24Z</time>
      </trkpt>
      <trkpt lat="44.7747" lon="5.90167">
        <ele>980</ele>
        <time>2020-05-21T13:04:28Z</time>
      </trkpt>
      <trkpt lat="44.77457" lon="5.90204">
        <ele>982</ele>
        <time>2020-05-21T13:04:31Z</time>
      </trkpt>
      <trkpt lat="44.77438" lon="5.90241">
        <ele>986</ele>
        <time>2020-05-21T13:04:35Z</time>
      </trkpt>
      <trkpt lat="44.77427" lon="5.90284">
        <ele>988</ele>
        <time>2020-05-21T13:04:39Z</time>
      </trkpt>
      <trkpt lat="44.77413" lon="5.90333">
        <ele>991</ele>
        <time>2020-05-21T13:04:42Z</time>
      </trkpt>
      <trkpt lat="44.77398" lon="5.90379">
        <ele>993</ele>
        <time>2020-05-21T13:04:46Z</time>
      </trkpt>
      <trkpt lat="44.77393" lon="5.90405">
        <ele>994</ele>
        <time>2020-05-21T13:04:49Z</time>
      </trkpt>
      <trkpt lat="44.77395" lon="5.90419">
        <ele>996</ele>
        <time>2020-05-21T13:04:54Z</time>
      </trkpt>
      <trkpt lat="44.77398" lon="5.90439">
        <ele>999</ele>
        <time>2020-05-21T13:04:57Z</time>
      </trkpt>
      <trkpt lat="44.77407" lon="5.90483">
        <ele>1000</ele>
        <time>2020-05-21T13:05:00Z</time>
      </trkpt>
      <trkpt lat="44.77419" lon="5.90535">
        <ele>1002</ele>
        <time>2020-05-21T13:05:04Z</time>
      </trkpt>
      <trkpt lat="44.7743" lon="5.90597">
        <ele>1003</ele>
        <time>2020-05-21T13:05:07Z</time>
      </trkpt>
      <trkpt lat="44.77433" lon="5.90649">
        <ele>1004</ele>
        <time>2020-05-21T13:05:10Z</time>
      </trkpt>
      <trkpt lat="44.77453" lon="5.90691">
        <ele>1005</ele>
        <time>2020-05-21T13:05:13Z</time>
      </trkpt>
      <trkpt lat="44.77477" lon="5.90688">
        <ele>1005</ele>
        <time>2020-05-21T13:05:16Z</time>
      </trkpt>
      <trkpt lat="44.77506" lon="5.90683">
        <ele>1005</ele>
        <time>2020-05-21T13:05:19Z</time>
      </trkpt>
      <trkpt lat="44.77544" lon="5.90696">
        <ele>1005</ele>
        <time>2020-05-21T13:05:22Z</time>
      </trkpt>
      <trkpt lat="44.77601" lon="5.90709">
        <ele>1005</ele>
        <time>2020-05-21T13:05:25Z</time>
      </trkpt>
      <trkpt lat="44.77664" lon="5.90721">
        <ele>1004</ele>
        <time>2020-05-21T13:05:28Z</time>
      </trkpt>
      <trkpt lat="44.7773" lon="5.90735">
        <ele>1003</ele>
        <time>2020-05-21T13:05:31Z</time>
      </trkpt>
      <trkpt lat="44.77778" lon="5.90745">
        <ele>1003</ele>
        <time>2020-05-21T13:05:34Z</time>
      </trkpt>
      <trkpt lat="44.77863" lon="5.90761">
        <ele>1002</ele>
        <time>2020-05-21T13:05:38Z</time>
      </trkpt>
      <trkpt lat="44.77928" lon="5.90772">
        <ele>1002</ele>
        <time>2020-05-21T13:05:41Z</time>
      </trkpt>
      <trkpt lat="44.77992" lon="5.90783">
        <ele>1002</ele>
        <time>2020-05-21T13:05:44Z</time>
      </trkpt>
      <trkpt lat="44.78055" lon="5.90794">
        <ele>1002</ele>
        <time>2020-05-21T13:05:48Z</time>
      </trkpt>
      <trkpt lat="44.78118" lon="5.90806">
        <ele>1001</ele>
        <time>2020-05-21T13:05:51Z</time>
      </trkpt>
      <trkpt lat="44.78188" lon="5.9082">
        <ele>1001</ele>
        <time>2020-05-21T13:05:54Z</time>
      </trkpt>
      <trkpt lat="44.78293" lon="5.90841">
        <ele>1000</ele>
        <time>2020-05-21T13:05:57Z</time>
      </trkpt>
      <trkpt lat="44.78364" lon="5.90857">
        <ele>1000</ele>
        <time>2020-05-21T13:06:00Z</time>
      </trkpt>
      <trkpt lat="44.78411" lon="5.9087">
        <ele>999</ele>
        <time>2020-05-21T13:06:03Z</time>
      </trkpt>
      <trkpt lat="44.78458" lon="5.9088">
        <ele>999</ele>
        <time>2020-05-21T13:06:06Z</time>
      </trkpt>
      <trkpt lat="44.78552" lon="5.90897">
        <ele>998</ele>
        <time>2020-05-21T13:06:09Z</time>
      </trkpt>
      <trkpt lat="44.78621" lon="5.90909">
        <ele>998</ele>
        <time>2020-05-21T13:06:12Z</time>
      </trkpt>
      <trkpt lat="44.78714" lon="5.90926">
        <ele>997</ele>
        <time>2020-05-21T13:06:16Z</time>
      </trkpt>
      <trkpt lat="44.78784" lon="5.9094">
        <ele>996</ele>
        <time>2020-05-21T13:06:19Z</time>
      </trkpt>
      <trkpt lat="44.78853" lon="5.90952">
        <ele>995</ele>
        <time>2020-05-21T13:06:23Z</time>
      </trkpt>
      <trkpt lat="44.7895" lon="5.90971">
        <ele>994</ele>
        <time>2020-05-21T13:06:26Z</time>
      </trkpt>
      <trkpt lat="44.7902" lon="5.90984">
        <ele>993</ele>
        <time>2020-05-21T13:06:29Z</time>
      </trkpt>
      <trkpt lat="44.79113" lon="5.90996">
        <ele>992</ele>
        <time>2020-05-21T13:06:33Z</time>
      </trkpt>
      <trkpt lat="44.79183" lon="5.91006">
        <ele>991</ele>
        <time>2020-05-21T13:06:36Z</time>
      </trkpt>
      <trkpt lat="44.79227" lon="5.91012">
        <ele>990</ele>
        <time>2020-05-21T13:06:39Z</time>
      </trkpt>
      <trkpt lat="44.7931" lon="5.91021">
        <ele>989</ele>
        <time>2020-05-21T13:06:43Z</time>
      </trkpt>
      <trkpt lat="44.79362" lon="5.91028">
        <ele>989</ele>
        <time>2020-05-21T13:06:46Z</time>
      </trkpt>
      <trkpt lat="44.7941" lon="5.91035">
        <ele>988</ele>
        <time>2020-05-21T13:06:49Z</time>
      </trkpt>
      <trkpt lat="44.79457" lon="5.91038">
        <ele>988</ele>
        <time>2020-05-21T13:06:52Z</time>
      </trkpt>
      <trkpt lat="44.79504" lon="5.91046">
        <ele>987</ele>
        <time>2020-05-21T13:06:55Z</time>
      </trkpt>
      <trkpt lat="44.79574" lon="5.91051">
        <ele>986</ele>
        <time>2020-05-21T13:06:59Z</time>
      </trkpt>
      <trkpt lat="44.79612" lon="5.91054">
        <ele>986</ele>
        <time>2020-05-21T13:07:02Z</time>
      </trkpt>
      <trkpt lat="44.79645" lon="5.91056">
        <ele>985</ele>
        <time>2020-05-21T13:07:05Z</time>
      </trkpt>
      <trkpt lat="44.79712" lon="5.91065">
        <ele>985</ele>
        <time>2020-05-21T13:07:09Z</time>
      </trkpt>
      <trkpt lat="44.79737" lon="5.91068">
        <ele>984</ele>
        <time>2020-05-21T13:07:12Z</time>
      </trkpt>
      <trkpt lat="44.79779" lon="5.91075">
        <ele>983</ele>
        <time>2020-05-21T13:07:15Z</time>
      </trkpt>
      <trkpt lat="44.79821" lon="5.91081">
        <ele>983</ele>
        <time>2020-05-21T13:07:18Z</time>
      </trkpt>
      <trkpt lat="44.79867" lon="5.91088">
        <ele>982</ele>
        <time>2020-05-21T13:07:21Z</time>
      </trkpt>
      <trkpt lat="44.79936" lon="5.91097">
        <ele>981</ele>
        <time>2020-05-21T13:07:25Z</time>
      </trkpt>
      <trkpt lat="44.79959" lon="5.911">
        <ele>980</ele>
        <time>2020-05-21T13:07:28Z</time>
      </trkpt>
      <trkpt lat="44.80061" lon="5.9111">
        <ele>979</ele>
        <time>2020-05-21T13:07:32Z</time>
      </trkpt>
      <trkpt lat="44.80116" lon="5.91116">
        <ele>978</ele>
        <time>2020-05-21T13:07:35Z</time>
      </trkpt>
      <trkpt lat="44.80152" lon="5.91121">
        <ele>977</ele>
        <time>2020-05-21T13:07:38Z</time>
      </trkpt>
      <trkpt lat="44.80211" lon="5.91127">
        <ele>976</ele>
        <time>2020-05-21T13:07:41Z</time>
      </trkpt>
      <trkpt lat="44.80271" lon="5.91134">
        <ele>976</ele>
        <time>2020-05-21T13:07:44Z</time>
      </trkpt>
      <trkpt lat="44.8033" lon="5.91144">
        <ele>975</ele>
        <time>2020-05-21T13:07:47Z</time>
      </trkpt>
      <trkpt lat="44.80394" lon="5.91151">
        <ele>974</ele>
        <time>2020-05-21T13:07:51Z</time>
      </trkpt>
      <trkpt lat="44.80452" lon="5.91158">
        <ele>973</ele>
        <time>2020-05-21T13:07:54Z</time>
      </trkpt>
      <trkpt lat="44.80531" lon="5.91167">
        <ele>972</ele>
        <time>2020-05-21T13:07:57Z</time>
      </trkpt>
      <trkpt lat="44.80585" lon="5.91174">
        <ele>972</ele>
        <time>2020-05-21T13:08:00Z</time>
      </trkpt>
      <trkpt lat="44.80629" lon="5.91179">
        <ele>971</ele>
        <time>2020-05-21T13:08:03Z</time>
      </trkpt>
      <trkpt lat="44.80671" lon="5.91177">
        <ele>970</ele>
        <time>2020-05-21T13:08:06Z</time>
      </trkpt>
      <trkpt lat="44.80718" lon="5.91157">
        <ele>969</ele>
        <time>2020-05-21T13:08:10Z</time>
      </trkpt>
      <trkpt lat="44.80769" lon="5.91152">
        <ele>967</ele>
        <time>2020-05-21T13:08:13Z</time>
      </trkpt>
      <trkpt lat="44.80822" lon="5.91143">
        <ele>965</ele>
        <time>2020-05-21T13:08:16Z</time>
      </trkpt>
      <trkpt lat="44.80876" lon="5.91135">
        <ele>963</ele>
        <time>2020-05-21T13:08:19Z</time>
      </trkpt>
      <trkpt lat="44.80932" lon="5.91133">
        <ele>962</ele>
        <time>2020-05-21T13:08:23Z</time>
      </trkpt>
      <trkpt lat="44.80981" lon="5.91147">
        <ele>960</ele>
        <time>2020-05-21T13:08:26Z</time>
      </trkpt>
      <trkpt lat="44.81048" lon="5.91186">
        <ele>957</ele>
        <time>2020-05-21T13:08:29Z</time>
      </trkpt>
      <trkpt lat="44.8109" lon="5.91215">
        <ele>955</ele>
        <time>2020-05-21T13:08:32Z</time>
      </trkpt>
      <trkpt lat="44.8113" lon="5.91256">
        <ele>953</ele>
        <time>2020-05-21T13:08:35Z</time>
      </trkpt>
      <trkpt lat="44.81168" lon="5.91305">
        <ele>952</ele>
        <time>2020-05-21T13:08:38Z</time>
      </trkpt>
      <trkpt lat="44.81192" lon="5.91338">
        <ele>951</ele>
        <time>2020-05-21T13:08:42Z</time>
      </trkpt>
      <trkpt lat="44.81234" lon="5.9137">
        <ele>950</ele>
        <time>2020-05-21T13:08:45Z</time>
      </trkpt>
      <trkpt lat="44.81273" lon="5.91361">
        <ele>945</ele>
        <time>2020-05-21T13:08:48Z</time>
      </trkpt>
      <trkpt lat="44.81307" lon="5.91342">
        <ele>941</ele>
        <time>2020-05-21T13:08:51Z</time>
      </trkpt>
      <trkpt lat="44.8134" lon="5.91321">
        <ele>937</ele>
        <time>2020-05-21T13:08:54Z</time>
      </trkpt>
      <trkpt lat="44.81355" lon="5.91281">
        <ele>935</ele>
        <time>2020-05-21T13:08:57Z</time>
      </trkpt>
      <trkpt lat="44.81388" lon="5.91252">
        <ele>933</ele>
        <time>2020-05-21T13:09:00Z</time>
      </trkpt>
      <trkpt lat="44.81414" lon="5.9122">
        <ele>931</ele>
        <time>2020-05-21T13:09:03Z</time>
      </trkpt>
      <trkpt lat="44.8144" lon="5.91196">
        <ele>928</ele>
        <time>2020-05-21T13:09:06Z</time>
      </trkpt>
      <trkpt lat="44.81462" lon="5.91164">
        <ele>924</ele>
        <time>2020-05-21T13:09:09Z</time>
      </trkpt>
      <trkpt lat="44.81459" lon="5.91117">
        <ele>920</ele>
        <time>2020-05-21T13:09:13Z</time>
      </trkpt>
      <trkpt lat="44.81464" lon="5.91093">
        <ele>916</ele>
        <time>2020-05-21T13:09:16Z</time>
      </trkpt>
      <trkpt lat="44.81449" lon="5.91078">
        <ele>913</ele>
        <time>2020-05-21T13:09:20Z</time>
      </trkpt>
      <trkpt lat="44.8146" lon="5.91125">
        <ele>904</ele>
        <time>2020-05-21T13:09:23Z</time>
      </trkpt>
      <trkpt lat="44.81463" lon="5.9114">
        <ele>891</ele>
        <time>2020-05-21T13:09:26Z</time>
      </trkpt>
      <trkpt lat="44.81513" lon="5.91047">
        <ele>873</ele>
        <time>2020-05-21T13:09:29Z</time>
      </trkpt>
      <trkpt lat="44.81533" lon="5.90963">
        <ele>863</ele>
        <time>2020-05-21T13:09:32Z</time>
      </trkpt>
      <trkpt lat="44.81573" lon="5.90878">
        <ele>863</ele>
        <time>2020-05-21T13:09:36Z</time>
      </trkpt>
      <trkpt lat="44.81589" lon="5.90836">
        <ele>869</ele>
        <time>2020-05-21T13:09:40Z</time>
      </trkpt>
      <trkpt lat="44.81612" lon="5.90776">
        <ele>879</ele>
        <time>2020-05-21T13:09:43Z</time>
      </trkpt>
      <trkpt lat="44.81613" lon="5.90738">
        <ele>883</ele>
        <time>2020-05-21T13:09:46Z</time>
      </trkpt>
      <trkpt lat="44.81626" lon="5.90719">
        <ele>884</ele>
        <time>2020-05-21T13:09:49Z</time>
      </trkpt>
      <trkpt lat="44.81644" lon="5.90745">
        <ele>880</ele>
        <time>2020-05-21T13:09:52Z</time>
      </trkpt>
      <trkpt lat="44.81688" lon="5.90743">
        <ele>876</ele>
        <time>2020-05-21T13:09:56Z</time>
      </trkpt>
      <trkpt lat="44.81725" lon="5.90761">
        <ele>875</ele>
        <time>2020-05-21T13:09:59Z</time>
      </trkpt>
      <trkpt lat="44.81735" lon="5.90766">
        <ele>874</ele>
        <time>2020-05-21T13:10:02Z</time>
      </trkpt>
      <trkpt lat="44.81748" lon="5.90755">
        <ele>871</ele>
        <time>2020-05-21T13:10:07Z</time>
      </trkpt>
      <trkpt lat="44.81764" lon="5.90744">
        <ele>868</ele>
        <time>2020-05-21T13:10:10Z</time>
      </trkpt>
      <trkpt lat="44.81784" lon="5.90747">
        <ele>866</ele>
        <time>2020-05-21T13:10:13Z</time>
      </trkpt>
      <trkpt lat="44.81806" lon="5.90776">
        <ele>864</ele>
        <time>2020-05-21T13:10:16Z</time>
      </trkpt>
      <trkpt lat="44.81824" lon="5.90812">
        <ele>861</ele>
        <time>2020-05-21T13:10:19Z</time>
      </trkpt>
      <trkpt lat="44.81832" lon="5.90847">
        <ele>858</ele>
        <time>2020-05-21T13:10:23Z</time>
      </trkpt>
      <trkpt lat="44.81825" lon="5.90909">
        <ele>855</ele>
        <time>2020-05-21T13:10:26Z</time>
      </trkpt>
      <trkpt lat="44.81819" lon="5.90956">
        <ele>853</ele>
        <time>2020-05-21T13:10:29Z</time>
      </trkpt>
      <trkpt lat="44.81818" lon="5.91">
        <ele>851</ele>
        <time>2020-05-21T13:10:32Z</time>
      </trkpt>
      <trkpt lat="44.81823" lon="5.91037">
        <ele>850</ele>
        <time>2020-05-21T13:10:35Z</time>
      </trkpt>
      <trkpt lat="44.81835" lon="5.91084">
        <ele>849</ele>
        <time>2020-05-21T13:10:38Z</time>
      </trkpt>
      <trkpt lat="44.81829" lon="5.91129">
        <ele>848</ele>
        <time>2020-05-21T13:10:41Z</time>
      </trkpt>
      <trkpt lat="44.81809" lon="5.91178">
        <ele>846</ele>
        <time>2020-05-21T13:10:44Z</time>
      </trkpt>
      <trkpt lat="44.81796" lon="5.91241">
        <ele>845</ele>
        <time>2020-05-21T13:10:48Z</time>
      </trkpt>
      <trkpt lat="44.81815" lon="5.91328">
        <ele>843</ele>
        <time>2020-05-21T13:10:51Z</time>
      </trkpt>
      <trkpt lat="44.81832" lon="5.91375">
        <ele>843</ele>
        <time>2020-05-21T13:10:54Z</time>
      </trkpt>
      <trkpt lat="44.81853" lon="5.91421">
        <ele>844</ele>
        <time>2020-05-21T13:10:57Z</time>
      </trkpt>
      <trkpt lat="44.81876" lon="5.91444">
        <ele>845</ele>
        <time>2020-05-21T13:11:00Z</time>
      </trkpt>
      <trkpt lat="44.81917" lon="5.91477">
        <ele>845</ele>
        <time>2020-05-21T13:11:04Z</time>
      </trkpt>
      <trkpt lat="44.81932" lon="5.91502">
        <ele>844</ele>
        <time>2020-05-21T13:11:07Z</time>
      </trkpt>
      <trkpt lat="44.81937" lon="5.91536">
        <ele>843</ele>
        <time>2020-05-21T13:11:10Z</time>
      </trkpt>
      <trkpt lat="44.81924" lon="5.91564">
        <ele>842</ele>
        <time>2020-05-21T13:11:14Z</time>
      </trkpt>
      <trkpt lat="44.81897" lon="5.91575">
        <ele>840</ele>
        <time>2020-05-21T13:11:17Z</time>
      </trkpt>
      <trkpt lat="44.81847" lon="5.91585">
        <ele>837</ele>
        <time>2020-05-21T13:11:20Z</time>
      </trkpt>
      <trkpt lat="44.81813" lon="5.91606">
        <ele>835</ele>
        <time>2020-05-21T13:11:24Z</time>
      </trkpt>
      <trkpt lat="44.81766" lon="5.91656">
        <ele>833</ele>
        <time>2020-05-21T13:11:27Z</time>
      </trkpt>
      <trkpt lat="44.8173" lon="5.91683">
        <ele>832</ele>
        <time>2020-05-21T13:11:30Z</time>
      </trkpt>
      <trkpt lat="44.81708" lon="5.91704">
        <ele>832</ele>
        <time>2020-05-21T13:11:34Z</time>
      </trkpt>
      <trkpt lat="44.81696" lon="5.91735">
        <ele>832</ele>
        <time>2020-05-21T13:11:37Z</time>
      </trkpt>
      <trkpt lat="44.81711" lon="5.91761">
        <ele>832</ele>
        <time>2020-05-21T13:11:40Z</time>
      </trkpt>
      <trkpt lat="44.81742" lon="5.91785">
        <ele>832</ele>
        <time>2020-05-21T13:11:43Z</time>
      </trkpt>
      <trkpt lat="44.8178" lon="5.91822">
        <ele>832</ele>
        <time>2020-05-21T13:11:46Z</time>
      </trkpt>
      <trkpt lat="44.81804" lon="5.91886">
        <ele>832</ele>
        <time>2020-05-21T13:11:50Z</time>
      </trkpt>
      <trkpt lat="44.81816" lon="5.91941">
        <ele>832</ele>
        <time>2020-05-21T13:11:53Z</time>
      </trkpt>
      <trkpt lat="44.81818" lon="5.91992">
        <ele>833</ele>
        <time>2020-05-21T13:11:56Z</time>
      </trkpt>
      <trkpt lat="44.81826" lon="5.92066">
        <ele>834</ele>
        <time>2020-05-21T13:12:00Z</time>
      </trkpt>
      <trkpt lat="44.81831" lon="5.92122">
        <ele>836</ele>
        <time>2020-05-21T13:12:04Z</time>
      </trkpt>
      <trkpt lat="44.81825" lon="5.92189">
        <ele>838</ele>
        <time>2020-05-21T13:12:07Z</time>
      </trkpt>
      <trkpt lat="44.81819" lon="5.92253">
        <ele>839</ele>
        <time>2020-05-21T13:12:10Z</time>
      </trkpt>
      <trkpt lat="44.81818" lon="5.92324">
        <ele>841</ele>
        <time>2020-05-21T13:12:13Z</time>
      </trkpt>
      <trkpt lat="44.81824" lon="5.92393">
        <ele>844</ele>
        <time>2020-05-21T13:12:16Z</time>
      </trkpt>
      <trkpt lat="44.81823" lon="5.92456">
        <ele>847</ele>
        <time>2020-05-21T13:12:19Z</time>
      </trkpt>
      <trkpt lat="44.81819" lon="5.92515">
        <ele>850</ele>
        <time>2020-05-21T13:12:22Z</time>
      </trkpt>
      <trkpt lat="44.81817" lon="5.92571">
        <ele>852</ele>
        <time>2020-05-21T13:12:25Z</time>
      </trkpt>
      <trkpt lat="44.81827" lon="5.9262">
        <ele>854</ele>
        <time>2020-05-21T13:12:28Z</time>
      </trkpt>
      <trkpt lat="44.81851" lon="5.92659">
        <ele>856</ele>
        <time>2020-05-21T13:12:31Z</time>
      </trkpt>
      <trkpt lat="44.81856" lon="5.92687">
        <ele>858</ele>
        <time>2020-05-21T13:12:34Z</time>
      </trkpt>
      <trkpt lat="44.81848" lon="5.92739">
        <ele>862</ele>
        <time>2020-05-21T13:12:37Z</time>
      </trkpt>
      <trkpt lat="44.81848" lon="5.92832">
        <ele>865</ele>
        <time>2020-05-21T13:12:41Z</time>
      </trkpt>
      <trkpt lat="44.81853" lon="5.929">
        <ele>869</ele>
        <time>2020-05-21T13:12:44Z</time>
      </trkpt>
      <trkpt lat="44.81853" lon="5.92968">
        <ele>875</ele>
        <time>2020-05-21T13:12:48Z</time>
      </trkpt>
      <trkpt lat="44.81848" lon="5.93031">
        <ele>879</ele>
        <time>2020-05-21T13:12:51Z</time>
      </trkpt>
      <trkpt lat="44.81856" lon="5.93101">
        <ele>885</ele>
        <time>2020-05-21T13:12:54Z</time>
      </trkpt>
      <trkpt lat="44.8186" lon="5.93146">
        <ele>889</ele>
        <time>2020-05-21T13:12:57Z</time>
      </trkpt>
      <trkpt lat="44.81854" lon="5.9319">
        <ele>890</ele>
        <time>2020-05-21T13:13:00Z</time>
      </trkpt>
      <trkpt lat="44.81847" lon="5.93224">
        <ele>893</ele>
        <time>2020-05-21T13:13:04Z</time>
      </trkpt>
      <trkpt lat="44.81853" lon="5.93275">
        <ele>895</ele>
        <time>2020-05-21T13:13:08Z</time>
      </trkpt>
      <trkpt lat="44.81864" lon="5.93305">
        <ele>898</ele>
        <time>2020-05-21T13:13:11Z</time>
      </trkpt>
      <trkpt lat="44.81881" lon="5.93317">
        <ele>900</ele>
        <time>2020-05-21T13:13:14Z</time>
      </trkpt>
      <trkpt lat="44.81904" lon="5.9331">
        <ele>903</ele>
        <time>2020-05-21T13:13:17Z</time>
      </trkpt>
      <trkpt lat="44.81923" lon="5.9328">
        <ele>905</ele>
        <time>2020-05-21T13:13:21Z</time>
      </trkpt>
      <trkpt lat="44.81933" lon="5.93243">
        <ele>906</ele>
        <time>2020-05-21T13:13:24Z</time>
      </trkpt>
      <trkpt lat="44.81942" lon="5.93218">
        <ele>908</ele>
        <time>2020-05-21T13:13:27Z</time>
      </trkpt>
      <trkpt lat="44.81954" lon="5.93218">
        <ele>909</ele>
        <time>2020-05-21T13:13:30Z</time>
      </trkpt>
      <trkpt lat="44.81957" lon="5.93239">
        <ele>911</ele>
        <time>2020-05-21T13:13:33Z</time>
      </trkpt>
      <trkpt lat="44.81958" lon="5.93276">
        <ele>912</ele>
        <time>2020-05-21T13:13:36Z</time>
      </trkpt>
      <trkpt lat="44.81961" lon="5.93302">
        <ele>914</ele>
        <time>2020-05-21T13:13:39Z</time>
      </trkpt>
      <trkpt lat="44.81965" lon="5.93345">
        <ele>916</ele>
        <time>2020-05-21T13:13:42Z</time>
      </trkpt>
      <trkpt lat="44.81971" lon="5.93395">
        <ele>918</ele>
        <time>2020-05-21T13:13:45Z</time>
      </trkpt>
      <trkpt lat="44.81975" lon="5.93444">
        <ele>921</ele>
        <time>2020-05-21T13:13:48Z</time>
      </trkpt>
      <trkpt lat="44.81974" lon="5.93494">
        <ele>923</ele>
        <time>2020-05-21T13:13:51Z</time>
      </trkpt>
      <trkpt lat="44.81954" lon="5.93551">
        <ele>926</ele>
        <time>2020-05-21T13:13:54Z</time>
      </trkpt>
      <trkpt lat="44.81932" lon="5.93587">
        <ele>928</ele>
        <time>2020-05-21T13:13:57Z</time>
      </trkpt>
      <trkpt lat="44.81912" lon="5.93625">
        <ele>930</ele>
        <time>2020-05-21T13:14:00Z</time>
      </trkpt>
      <trkpt lat="44.81897" lon="5.93674">
        <ele>931</ele>
        <time>2020-05-21T13:14:03Z</time>
      </trkpt>
      <trkpt lat="44.8189" lon="5.93725">
        <ele>933</ele>
        <time>2020-05-21T13:14:06Z</time>
      </trkpt>
      <trkpt lat="44.81892" lon="5.93758">
        <ele>936</ele>
        <time>2020-05-21T13:14:09Z</time>
      </trkpt>
      <trkpt lat="44.81898" lon="5.9382">
        <ele>938</ele>
        <time>2020-05-21T13:14:13Z</time>
      </trkpt>
      <trkpt lat="44.81898" lon="5.9387">
        <ele>940</ele>
        <time>2020-05-21T13:14:16Z</time>
      </trkpt>
      <trkpt lat="44.81896" lon="5.93917">
        <ele>943</ele>
        <time>2020-05-21T13:14:19Z</time>
      </trkpt>
      <trkpt lat="44.81897" lon="5.93962">
        <ele>945</ele>
        <time>2020-05-21T13:14:22Z</time>
      </trkpt>
      <trkpt lat="44.81905" lon="5.9401">
        <ele>947</ele>
        <time>2020-05-21T13:14:26Z</time>
      </trkpt>
      <trkpt lat="44.81912" lon="5.94054">
        <ele>948</ele>
        <time>2020-05-21T13:14:29Z</time>
      </trkpt>
      <trkpt lat="44.81919" lon="5.94086">
        <ele>950</ele>
        <time>2020-05-21T13:14:32Z</time>
      </trkpt>
      <trkpt lat="44.81922" lon="5.94122">
        <ele>951</ele>
        <time>2020-05-21T13:14:35Z</time>
      </trkpt>
      <trkpt lat="44.81916" lon="5.94166">
        <ele>952</ele>
        <time>2020-05-21T13:14:38Z</time>
      </trkpt>
      <trkpt lat="44.81907" lon="5.94197">
        <ele>953</ele>
        <time>2020-05-21T13:14:41Z</time>
      </trkpt>
      <trkpt lat="44.81902" lon="5.94212">
        <ele>954</ele>
        <time>2020-05-21T13:14:44Z</time>
      </trkpt>
      <trkpt lat="44.81895" lon="5.94253">
        <ele>955</ele>
        <time>2020-05-21T13:14:47Z</time>
      </trkpt>
      <trkpt lat="44.81897" lon="5.94311">
        <ele>957</ele>
        <time>2020-05-21T13:14:50Z</time>
      </trkpt>
      <trkpt lat="44.81899" lon="5.94373">
        <ele>959</ele>
        <time>2020-05-21T13:14:54Z</time>
      </trkpt>
      <trkpt lat="44.819" lon="5.9442">
        <ele>960</ele>
        <time>2020-05-21T13:14:57Z</time>
      </trkpt>
      <trkpt lat="44.819" lon="5.94452">
        <ele>961</ele>
        <time>2020-05-21T13:15:00Z</time>
      </trkpt>
      <trkpt lat="44.81901" lon="5.94465">
        <ele>962</ele>
        <time>2020-05-21T13:15:03Z</time>
      </trkpt>
      <trkpt lat="44.81901" lon="5.94499">
        <ele>963</ele>
        <time>2020-05-21T13:15:06Z</time>
      </trkpt>
      <trkpt lat="44.81902" lon="5.94543">
        <ele>964</ele>
        <time>2020-05-21T13:15:09Z</time>
      </trkpt>
      <trkpt lat="44.81902" lon="5.9457">
        <ele>965</ele>
        <time>2020-05-21T13:15:12Z</time>
      </trkpt>
      <trkpt lat="44.81922" lon="5.94589">
        <ele>966</ele>
        <time>2020-05-21T13:15:15Z</time>
      </trkpt>
      <trkpt lat="44.81945" lon="5.94602">
        <ele>968</ele>
        <time>2020-05-21T13:15:18Z</time>
      </trkpt>
      <trkpt lat="44.81962" lon="5.94612">
        <ele>969</ele>
        <time>2020-05-21T13:15:21Z</time>
      </trkpt>
      <trkpt lat="44.81972" lon="5.94622">
        <ele>969</ele>
        <time>2020-05-21T13:15:25Z</time>
      </trkpt>
      <trkpt lat="44.81979" lon="5.94631">
        <ele>970</ele>
        <time>2020-05-21T13:15:28Z</time>
      </trkpt>
      <trkpt lat="44.82002" lon="5.94624">
        <ele>971</ele>
        <time>2020-05-21T13:15:32Z</time>
      </trkpt>
      <trkpt lat="44.82019" lon="5.94632">
        <ele>972</ele>
        <time>2020-05-21T13:15:35Z</time>
      </trkpt>
      <trkpt lat="44.82033" lon="5.94677">
        <ele>970</ele>
        <time>2020-05-21T13:15:38Z</time>
      </trkpt>
      <trkpt lat="44.82048" lon="5.94727">
        <ele>967</ele>
        <time>2020-05-21T13:15:42Z</time>
      </trkpt>
      <trkpt lat="44.82068" lon="5.94787">
        <ele>965</ele>
        <time>2020-05-21T13:15:45Z</time>
      </trkpt>
      <trkpt lat="44.82089" lon="5.94852">
        <ele>964</ele>
        <time>2020-05-21T13:15:48Z</time>
      </trkpt>
      <trkpt lat="44.82113" lon="5.94912">
        <ele>965</ele>
        <time>2020-05-21T13:15:51Z</time>
      </trkpt>
      <trkpt lat="44.82146" lon="5.94961">
        <ele>965</ele>
        <time>2020-05-21T13:15:54Z</time>
      </trkpt>
      <trkpt lat="44.82181" lon="5.95015">
        <ele>965</ele>
        <time>2020-05-21T13:15:57Z</time>
      </trkpt>
      <trkpt lat="44.82208" lon="5.95078">
        <ele>964</ele>
        <time>2020-05-21T13:16:00Z</time>
      </trkpt>
      <trkpt lat="44.82233" lon="5.95144">
        <ele>963</ele>
        <time>2020-05-21T13:16:03Z</time>
      </trkpt>
      <trkpt lat="44.82249" lon="5.95208">
        <ele>962</ele>
        <time>2020-05-21T13:16:06Z</time>
      </trkpt>
      <trkpt lat="44.82269" lon="5.95256">
        <ele>961</ele>
        <time>2020-05-21T13:16:09Z</time>
      </trkpt>
      <trkpt lat="44.82297" lon="5.95259">
        <ele>961</ele>
        <time>2020-05-21T13:16:12Z</time>
      </trkpt>
      <trkpt lat="44.82312" lon="5.95237">
        <ele>960</ele>
        <time>2020-05-21T13:16:15Z</time>
      </trkpt>
      <trkpt lat="44.82311" lon="5.95197">
        <ele>959</ele>
        <time>2020-05-21T13:16:18Z</time>
      </trkpt>
      <trkpt lat="44.82301" lon="5.95141">
        <ele>958</ele>
        <time>2020-05-21T13:16:21Z</time>
      </trkpt>
      <trkpt lat="44.82296" lon="5.95064">
        <ele>956</ele>
        <time>2020-05-21T13:16:24Z</time>
      </trkpt>
      <trkpt lat="44.82293" lon="5.94955">
        <ele>953</ele>
        <time>2020-05-21T13:16:28Z</time>
      </trkpt>
      <trkpt lat="44.82295" lon="5.94872">
        <ele>951</ele>
        <time>2020-05-21T13:16:31Z</time>
      </trkpt>
      <trkpt lat="44.82305" lon="5.94786">
        <ele>949</ele>
        <time>2020-05-21T13:16:34Z</time>
      </trkpt>
      <trkpt lat="44.82306" lon="5.94698">
        <ele>947</ele>
        <time>2020-05-21T13:16:37Z</time>
      </trkpt>
      <trkpt lat="44.8232" lon="5.94614">
        <ele>946</ele>
        <time>2020-05-21T13:16:40Z</time>
      </trkpt>
      <trkpt lat="44.82332" lon="5.94562">
        <ele>944</ele>
        <time>2020-05-21T13:16:43Z</time>
      </trkpt>
      <trkpt lat="44.82359" lon="5.94484">
        <ele>943</ele>
        <time>2020-05-21T13:16:46Z</time>
      </trkpt>
      <trkpt lat="44.82398" lon="5.94415">
        <ele>942</ele>
        <time>2020-05-21T13:16:49Z</time>
      </trkpt>
      <trkpt lat="44.82422" lon="5.94341">
        <ele>941</ele>
        <time>2020-05-21T13:16:52Z</time>
      </trkpt>
      <trkpt lat="44.82441" lon="5.94245">
        <ele>940</ele>
        <time>2020-05-21T13:16:55Z</time>
      </trkpt>
      <trkpt lat="44.82454" lon="5.94153">
        <ele>939</ele>
        <time>2020-05-21T13:16:58Z</time>
      </trkpt>
      <trkpt lat="44.82459" lon="5.94047">
        <ele>937</ele>
        <time>2020-05-21T13:17:02Z</time>
      </trkpt>
      <trkpt lat="44.82467" lon="5.93884">
        <ele>935</ele>
        <time>2020-05-21T13:17:05Z</time>
      </trkpt>
      <trkpt lat="44.82471" lon="5.93803">
        <ele>933</ele>
        <time>2020-05-21T13:17:08Z</time>
      </trkpt>
      <trkpt lat="44.82478" lon="5.93684">
        <ele>932</ele>
        <time>2020-05-21T13:17:11Z</time>
      </trkpt>
      <trkpt lat="44.82493" lon="5.93555">
        <ele>931</ele>
        <time>2020-05-21T13:17:14Z</time>
      </trkpt>
      <trkpt lat="44.8251" lon="5.93449">
        <ele>930</ele>
        <time>2020-05-21T13:17:17Z</time>
      </trkpt>
      <trkpt lat="44.82538" lon="5.93345">
        <ele>929</ele>
        <time>2020-05-21T13:17:21Z</time>
      </trkpt>
      <trkpt lat="44.82566" lon="5.93262">
        <ele>928</ele>
        <time>2020-05-21T13:17:24Z</time>
      </trkpt>
      <trkpt lat="44.8262" lon="5.93207">
        <ele>926</ele>
        <time>2020-05-21T13:17:27Z</time>
      </trkpt>
      <trkpt lat="44.8267" lon="5.93164">
        <ele>924</ele>
        <time>2020-05-21T13:17:30Z</time>
      </trkpt>
      <trkpt lat="44.82699" lon="5.93085">
        <ele>924</ele>
        <time>2020-05-21T13:17:33Z</time>
      </trkpt>
      <trkpt lat="44.82725" lon="5.93003">
        <ele>924</ele>
        <time>2020-05-21T13:17:36Z</time>
      </trkpt>
      <trkpt lat="44.82747" lon="5.92933">
        <ele>925</ele>
        <time>2020-05-21T13:17:39Z</time>
      </trkpt>
      <trkpt lat="44.82768" lon="5.92838">
        <ele>927</ele>
        <time>2020-05-21T13:17:42Z</time>
      </trkpt>
      <trkpt lat="44.82786" lon="5.9275">
        <ele>927</ele>
        <time>2020-05-21T13:17:45Z</time>
      </trkpt>
      <trkpt lat="44.82819" lon="5.92684">
        <ele>928</ele>
        <time>2020-05-21T13:17:48Z</time>
      </trkpt>
      <trkpt lat="44.82851" lon="5.92614">
        <ele>928</ele>
        <time>2020-05-21T13:17:51Z</time>
      </trkpt>
      <trkpt lat="44.82861" lon="5.9253">
        <ele>928</ele>
        <time>2020-05-21T13:17:54Z</time>
      </trkpt>
      <trkpt lat="44.82878" lon="5.92428">
        <ele>929</ele>
        <time>2020-05-21T13:17:58Z</time>
      </trkpt>
      <trkpt lat="44.82902" lon="5.92334">
        <ele>931</ele>
        <time>2020-05-21T13:18:01Z</time>
      </trkpt>
      <trkpt lat="44.82932" lon="5.92233">
        <ele>932</ele>
        <time>2020-05-21T13:18:04Z</time>
      </trkpt>
      <trkpt lat="44.82969" lon="5.92118">
        <ele>934</ele>
        <time>2020-05-21T13:18:07Z</time>
      </trkpt>
      <trkpt lat="44.82995" lon="5.92052">
        <ele>935</ele>
        <time>2020-05-21T13:18:10Z</time>
      </trkpt>
      <trkpt lat="44.83029" lon="5.92014">
        <ele>936</ele>
        <time>2020-05-21T13:18:13Z</time>
      </trkpt>
      <trkpt lat="44.83078" lon="5.91972">
        <ele>938</ele>
        <time>2020-05-21T13:18:17Z</time>
      </trkpt>
      <trkpt lat="44.83109" lon="5.91909">
        <ele>939</ele>
        <time>2020-05-21T13:18:20Z</time>
      </trkpt>
      <trkpt lat="44.8315" lon="5.91845">
        <ele>941</ele>
        <time>2020-05-21T13:18:23Z</time>
      </trkpt>
      <trkpt lat="44.83179" lon="5.91774">
        <ele>943</ele>
        <time>2020-05-21T13:18:26Z</time>
      </trkpt>
      <trkpt lat="44.83184" lon="5.91671">
        <ele>946</ele>
        <time>2020-05-21T13:18:29Z</time>
      </trkpt>
      <trkpt lat="44.83186" lon="5.91568">
        <ele>948</ele>
        <time>2020-05-21T13:18:32Z</time>
      </trkpt>
      <trkpt lat="44.8319" lon="5.91466">
        <ele>949</ele>
        <time>2020-05-21T13:18:36Z</time>
      </trkpt>
      <trkpt lat="44.83193" lon="5.91363">
        <ele>951</ele>
        <time>2020-05-21T13:18:39Z</time>
      </trkpt>
      <trkpt lat="44.83196" lon="5.91269">
        <ele>952</ele>
        <time>2020-05-21T13:18:42Z</time>
      </trkpt>
      <trkpt lat="44.832" lon="5.9118">
        <ele>952</ele>
        <time>2020-05-21T13:18:46Z</time>
      </trkpt>
      <trkpt lat="44.83203" lon="5.91122">
        <ele>952</ele>
        <time>2020-05-21T13:18:49Z</time>
      </trkpt>
      <trkpt lat="44.83211" lon="5.91087">
        <ele>953</ele>
        <time>2020-05-21T13:18:52Z</time>
      </trkpt>
      <trkpt lat="44.83235" lon="5.91091">
        <ele>955</ele>
        <time>2020-05-21T13:18:55Z</time>
      </trkpt>
      <trkpt lat="44.83236" lon="5.9114">
        <ele>956</ele>
        <time>2020-05-21T13:18:58Z</time>
      </trkpt>
      <trkpt lat="44.83247" lon="5.91194">
        <ele>956</ele>
        <time>2020-05-21T13:19:01Z</time>
      </trkpt>
      <trkpt lat="44.83281" lon="5.91241">
        <ele>956</ele>
        <time>2020-05-21T13:19:05Z</time>
      </trkpt>
      <trkpt lat="44.83338" lon="5.91286">
        <ele>956</ele>
        <time>2020-05-21T13:19:08Z</time>
      </trkpt>
      <trkpt lat="44.83362" lon="5.9132">
        <ele>955</ele>
        <time>2020-05-21T13:19:12Z</time>
      </trkpt>
      <trkpt lat="44.834" lon="5.91403">
        <ele>955</ele>
        <time>2020-05-21T13:19:15Z</time>
      </trkpt>
      <trkpt lat="44.83429" lon="5.91442">
        <ele>953</ele>
        <time>2020-05-21T13:19:18Z</time>
      </trkpt>
      <trkpt lat="44.83457" lon="5.9146">
        <ele>953</ele>
        <time>2020-05-21T13:19:22Z</time>
      </trkpt>
      <trkpt lat="44.83491" lon="5.91434">
        <ele>953</ele>
        <time>2020-05-21T13:19:25Z</time>
      </trkpt>
      <trkpt lat="44.83495" lon="5.91384">
        <ele>953</ele>
        <time>2020-05-21T13:19:28Z</time>
      </trkpt>
      <trkpt lat="44.83466" lon="5.91298">
        <ele>951</ele>
        <time>2020-05-21T13:19:31Z</time>
      </trkpt>
      <trkpt lat="44.83445" lon="5.91217">
        <ele>951</ele>
        <time>2020-05-21T13:19:34Z</time>
      </trkpt>
      <trkpt lat="44.83433" lon="5.91138">
        <ele>950</ele>
        <time>2020-05-21T13:19:37Z</time>
      </trkpt>
      <trkpt lat="44.83438" lon="5.91051">
        <ele>949</ele>
        <time>2020-05-21T13:19:40Z</time>
      </trkpt>
      <trkpt lat="44.83442" lon="5.90997">
        <ele>948</ele>
        <time>2020-05-21T13:19:43Z</time>
      </trkpt>
      <trkpt lat="44.83435" lon="5.90892">
        <ele>946</ele>
        <time>2020-05-21T13:19:46Z</time>
      </trkpt>
      <trkpt lat="44.83429" lon="5.90806">
        <ele>945</ele>
        <time>2020-05-21T13:19:50Z</time>
      </trkpt>
      <trkpt lat="44.83421" lon="5.90731">
        <ele>944</ele>
        <time>2020-05-21T13:19:53Z</time>
      </trkpt>
      <trkpt lat="44.83378" lon="5.90643">
        <ele>943</ele>
        <time>2020-05-21T13:19:56Z</time>
      </trkpt>
      <trkpt lat="44.83346" lon="5.90567">
        <ele>943</ele>
        <time>2020-05-21T13:20:00Z</time>
      </trkpt>
      <trkpt lat="44.8332" lon="5.90492">
        <ele>943</ele>
        <time>2020-05-21T13:20:03Z</time>
      </trkpt>
      <trkpt lat="44.83307" lon="5.90409">
        <ele>943</ele>
        <time>2020-05-21T13:20:06Z</time>
      </trkpt>
      <trkpt lat="44.83304" lon="5.90319">
        <ele>942</ele>
        <time>2020-05-21T13:20:09Z</time>
      </trkpt>
      <trkpt lat="44.83306" lon="5.90227">
        <ele>942</ele>
        <time>2020-05-21T13:20:12Z</time>
      </trkpt>
      <trkpt lat="44.83304" lon="5.90131">
        <ele>942</ele>
        <time>2020-05-21T13:20:15Z</time>
      </trkpt>
      <trkpt lat="44.83274" lon="5.90034">
        <ele>942</ele>
        <time>2020-05-21T13:20:18Z</time>
      </trkpt>
      <trkpt lat="44.83235" lon="5.89929">
        <ele>943</ele>
        <time>2020-05-21T13:20:22Z</time>
      </trkpt>
      <trkpt lat="44.83192" lon="5.89805">
        <ele>944</ele>
        <time>2020-05-21T13:20:25Z</time>
      </trkpt>
      <trkpt lat="44.83181" lon="5.89731">
        <ele>945</ele>
        <time>2020-05-21T13:20:28Z</time>
      </trkpt>
      <trkpt lat="44.832" lon="5.89667">
        <ele>946</ele>
        <time>2020-05-21T13:20:31Z</time>
      </trkpt>
      <trkpt lat="44.83243" lon="5.89603">
        <ele>947</ele>
        <time>2020-05-21T13:20:35Z</time>
      </trkpt>
      <trkpt lat="44.83271" lon="5.89559">
        <ele>948</ele>
        <time>2020-05-21T13:20:38Z</time>
      </trkpt>
      <trkpt lat="44.83307" lon="5.89481">
        <ele>948</ele>
        <time>2020-05-21T13:20:41Z</time>
      </trkpt>
      <trkpt lat="44.83333" lon="5.89418">
        <ele>948</ele>
        <time>2020-05-21T13:20:44Z</time>
      </trkpt>
      <trkpt lat="44.8333" lon="5.89361">
        <ele>948</ele>
        <time>2020-05-21T13:20:47Z</time>
      </trkpt>
      <trkpt lat="44.83293" lon="5.89299">
        <ele>949</ele>
        <time>2020-05-21T13:20:50Z</time>
      </trkpt>
      <trkpt lat="44.83262" lon="5.89244">
        <ele>949</ele>
        <time>2020-05-21T13:20:53Z</time>
      </trkpt>
      <trkpt lat="44.83245" lon="5.89152">
        <ele>949</ele>
        <time>2020-05-21T13:20:56Z</time>
      </trkpt>
      <trkpt lat="44.83238" lon="5.8908">
        <ele>948</ele>
        <time>2020-05-21T13:20:59Z</time>
      </trkpt>
      <trkpt lat="44.83259" lon="5.89015">
        <ele>948</ele>
        <time>2020-05-21T13:21:02Z</time>
      </trkpt>
      <trkpt lat="44.83289" lon="5.88973">
        <ele>948</ele>
        <time>2020-05-21T13:21:05Z</time>
      </trkpt>
      <trkpt lat="44.83346" lon="5.88897">
        <ele>948</ele>
        <time>2020-05-21T13:21:08Z</time>
      </trkpt>
      <trkpt lat="44.83397" lon="5.88831">
        <ele>948</ele>
        <time>2020-05-21T13:21:11Z</time>
      </trkpt>
      <trkpt lat="44.83476" lon="5.88743">
        <ele>948</ele>
        <time>2020-05-21T13:21:14Z</time>
      </trkpt>
      <trkpt lat="44.83542" lon="5.8869">
        <ele>947</ele>
        <time>2020-05-21T13:21:17Z</time>
      </trkpt>
      <trkpt lat="44.83597" lon="5.88643">
        <ele>947</ele>
        <time>2020-05-21T13:21:20Z</time>
      </trkpt>
      <trkpt lat="44.83634" lon="5.8857">
        <ele>947</ele>
        <time>2020-05-21T13:21:23Z</time>
      </trkpt>
      <trkpt lat="44.8366" lon="5.88487">
        <ele>947</ele>
        <time>2020-05-21T13:21:26Z</time>
      </trkpt>
      <trkpt lat="44.83662" lon="5.88424">
        <ele>947</ele>
        <time>2020-05-21T13:21:29Z</time>
      </trkpt>
      <trkpt lat="44.83661" lon="5.88318">
        <ele>949</ele>
        <time>2020-05-21T13:21:33Z</time>
      </trkpt>
      <trkpt lat="44.83667" lon="5.88216">
        <ele>950</ele>
        <time>2020-05-21T13:21:36Z</time>
      </trkpt>
      <trkpt lat="44.83676" lon="5.88114">
        <ele>951</ele>
        <time>2020-05-21T13:21:39Z</time>
      </trkpt>
      <trkpt lat="44.8367" lon="5.88017">
        <ele>951</ele>
        <time>2020-05-21T13:21:42Z</time>
      </trkpt>
      <trkpt lat="44.83669" lon="5.87939">
        <ele>951</ele>
        <time>2020-05-21T13:21:45Z</time>
      </trkpt>
      <trkpt lat="44.83693" lon="5.87882">
        <ele>951</ele>
        <time>2020-05-21T13:21:48Z</time>
      </trkpt>
      <trkpt lat="44.83743" lon="5.87837">
        <ele>952</ele>
        <time>2020-05-21T13:21:51Z</time>
      </trkpt>
      <trkpt lat="44.83826" lon="5.87783">
        <ele>952</ele>
        <time>2020-05-21T13:21:55Z</time>
      </trkpt>
      <trkpt lat="44.83891" lon="5.8775">
        <ele>952</ele>
        <time>2020-05-21T13:21:58Z</time>
      </trkpt>
      <trkpt lat="44.8396" lon="5.87708">
        <ele>953</ele>
        <time>2020-05-21T13:22:01Z</time>
      </trkpt>
      <trkpt lat="44.84013" lon="5.87659">
        <ele>953</ele>
        <time>2020-05-21T13:22:04Z</time>
      </trkpt>
      <trkpt lat="44.84039" lon="5.8762">
        <ele>953</ele>
        <time>2020-05-21T13:22:07Z</time>
      </trkpt>
      <trkpt lat="44.84062" lon="5.87558">
        <ele>953</ele>
        <time>2020-05-21T13:22:10Z</time>
      </trkpt>
      <trkpt lat="44.84059" lon="5.87495">
        <ele>953</ele>
        <time>2020-05-21T13:22:13Z</time>
      </trkpt>
      <trkpt lat="44.8405" lon="5.87421">
        <ele>953</ele>
        <time>2020-05-21T13:22:16Z</time>
      </trkpt>
      <trkpt lat="44.84077" lon="5.87338">
        <ele>953</ele>
        <time>2020-05-21T13:22:20Z</time>
      </trkpt>
      <trkpt lat="44.84122" lon="5.87275">
        <ele>953</ele>
        <time>2020-05-21T13:22:23Z</time>
      </trkpt>
      <trkpt lat="44.84172" lon="5.87206">
        <ele>952</ele>
        <time>2020-05-21T13:22:26Z</time>
      </trkpt>
      <trkpt lat="44.8423" lon="5.87131">
        <ele>951</ele>
        <time>2020-05-21T13:22:29Z</time>
      </trkpt>
      <trkpt lat="44.84296" lon="5.87052">
        <ele>950</ele>
        <time>2020-05-21T13:22:32Z</time>
      </trkpt>
      <trkpt lat="44.84354" lon="5.8699">
        <ele>949</ele>
        <time>2020-05-21T13:22:35Z</time>
      </trkpt>
      <trkpt lat="44.844" lon="5.86914">
        <ele>949</ele>
        <time>2020-05-21T13:22:38Z</time>
      </trkpt>
      <trkpt lat="44.8443" lon="5.86825">
        <ele>949</ele>
        <time>2020-05-21T13:22:41Z</time>
      </trkpt>
      <trkpt lat="44.84441" lon="5.86757">
        <ele>948</ele>
        <time>2020-05-21T13:22:44Z</time>
      </trkpt>
      <trkpt lat="44.84453" lon="5.86638">
        <ele>948</ele>
        <time>2020-05-21T13:22:47Z</time>
      </trkpt>
      <trkpt lat="44.84466" lon="5.86522">
        <ele>947</ele>
        <time>2020-05-21T13:22:50Z</time>
      </trkpt>
      <trkpt lat="44.84482" lon="5.86422">
        <ele>946</ele>
        <time>2020-05-21T13:22:53Z</time>
      </trkpt>
      <trkpt lat="44.84507" lon="5.86322">
        <ele>945</ele>
        <time>2020-05-21T13:22:56Z</time>
      </trkpt>
      <trkpt lat="44.84547" lon="5.86214">
        <ele>944</ele>
        <time>2020-05-21T13:23:00Z</time>
      </trkpt>
      <trkpt lat="44.84585" lon="5.86157">
        <ele>943</ele>
        <time>2020-05-21T13:23:03Z</time>
      </trkpt>
      <trkpt lat="44.84634" lon="5.86124">
        <ele>941</ele>
        <time>2020-05-21T13:23:06Z</time>
      </trkpt>
      <trkpt lat="44.84686" lon="5.86085">
        <ele>940</ele>
        <time>2020-05-21T13:23:09Z</time>
      </trkpt>
      <trkpt lat="44.84724" lon="5.86019">
        <ele>939</ele>
        <time>2020-05-21T13:23:12Z</time>
      </trkpt>
      <trkpt lat="44.8475" lon="5.85991">
        <ele>938</ele>
        <time>2020-05-21T13:23:15Z</time>
      </trkpt>
      <trkpt lat="44.84809" lon="5.8596">
        <ele>936</ele>
        <time>2020-05-21T13:23:18Z</time>
      </trkpt>
      <trkpt lat="44.84874" lon="5.85929">
        <ele>935</ele>
        <time>2020-05-21T13:23:21Z</time>
      </trkpt>
      <trkpt lat="44.84944" lon="5.85892">
        <ele>934</ele>
        <time>2020-05-21T13:23:24Z</time>
      </trkpt>
      <trkpt lat="44.85011" lon="5.85855">
        <ele>933</ele>
        <time>2020-05-21T13:23:27Z</time>
      </trkpt>
      <trkpt lat="44.85099" lon="5.85818">
        <ele>931</ele>
        <time>2020-05-21T13:23:31Z</time>
      </trkpt>
      <trkpt lat="44.85162" lon="5.85792">
        <ele>929</ele>
        <time>2020-05-21T13:23:34Z</time>
      </trkpt>
      <trkpt lat="44.85219" lon="5.85782">
        <ele>927</ele>
        <time>2020-05-21T13:23:37Z</time>
      </trkpt>
      <trkpt lat="44.85302" lon="5.85811">
        <ele>928</ele>
        <time>2020-05-21T13:23:41Z</time>
      </trkpt>
      <trkpt lat="44.85355" lon="5.85839">
        <ele>928</ele>
        <time>2020-05-21T13:23:44Z</time>
      </trkpt>
      <trkpt lat="44.85407" lon="5.85844">
        <ele>927</ele>
        <time>2020-05-21T13:23:47Z</time>
      </trkpt>
      <trkpt lat="44.8544" lon="5.85825">
        <ele>925</ele>
        <time>2020-05-21T13:23:50Z</time>
      </trkpt>
      <trkpt lat="44.85483" lon="5.85767">
        <ele>924</ele>
        <time>2020-05-21T13:23:53Z</time>
      </trkpt>
      <trkpt lat="44.85521" lon="5.85713">
        <ele>922</ele>
        <time>2020-05-21T13:23:56Z</time>
      </trkpt>
      <trkpt lat="44.85566" lon="5.85686">
        <ele>919</ele>
        <time>2020-05-21T13:23:59Z</time>
      </trkpt>
      <trkpt lat="44.85624" lon="5.85696">
        <ele>915</ele>
        <time>2020-05-21T13:24:02Z</time>
      </trkpt>
      <trkpt lat="44.85685" lon="5.85708">
        <ele>912</ele>
        <time>2020-05-21T13:24:05Z</time>
      </trkpt>
      <trkpt lat="44.85738" lon="5.85707">
        <ele>909</ele>
        <time>2020-05-21T13:24:08Z</time>
      </trkpt>
      <trkpt lat="44.85777" lon="5.85734">
        <ele>907</ele>
        <time>2020-05-21T13:24:11Z</time>
      </trkpt>
      <trkpt lat="44.85802" lon="5.85806">
        <ele>904</ele>
        <time>2020-05-21T13:24:14Z</time>
      </trkpt>
      <trkpt lat="44.85845" lon="5.85884">
        <ele>900</ele>
        <time>2020-05-21T13:24:17Z</time>
      </trkpt>
      <trkpt lat="44.85885" lon="5.85945">
        <ele>897</ele>
        <time>2020-05-21T13:24:20Z</time>
      </trkpt>
      <trkpt lat="44.85914" lon="5.86034">
        <ele>893</ele>
        <time>2020-05-21T13:24:24Z</time>
      </trkpt>
      <trkpt lat="44.8595" lon="5.86114">
        <ele>890</ele>
        <time>2020-05-21T13:24:27Z</time>
      </trkpt>
      <trkpt lat="44.85993" lon="5.86182">
        <ele>886</ele>
        <time>2020-05-21T13:24:30Z</time>
      </trkpt>
      <trkpt lat="44.86042" lon="5.86235">
        <ele>884</ele>
        <time>2020-05-21T13:24:33Z</time>
      </trkpt>
      <trkpt lat="44.86102" lon="5.86284">
        <ele>881</ele>
        <time>2020-05-21T13:24:36Z</time>
      </trkpt>
      <trkpt lat="44.86162" lon="5.86331">
        <ele>879</ele>
        <time>2020-05-21T13:24:39Z</time>
      </trkpt>
      <trkpt lat="44.86223" lon="5.86371">
        <ele>877</ele>
        <time>2020-05-21T13:24:42Z</time>
      </trkpt>
      <trkpt lat="44.86277" lon="5.86403">
        <ele>875</ele>
        <time>2020-05-21T13:24:45Z</time>
      </trkpt>
      <trkpt lat="44.86328" lon="5.86433">
        <ele>874</ele>
        <time>2020-05-21T13:24:48Z</time>
      </trkpt>
      <trkpt lat="44.86389" lon="5.86455">
        <ele>871</ele>
        <time>2020-05-21T13:24:52Z</time>
      </trkpt>
      <trkpt lat="44.86419" lon="5.8644">
        <ele>869</ele>
        <time>2020-05-21T13:24:55Z</time>
      </trkpt>
      <trkpt lat="44.8645" lon="5.864">
        <ele>867</ele>
        <time>2020-05-21T13:24:58Z</time>
      </trkpt>
      <trkpt lat="44.8646" lon="5.8633">
        <ele>864</ele>
        <time>2020-05-21T13:25:01Z</time>
      </trkpt>
      <trkpt lat="44.86443" lon="5.86255">
        <ele>862</ele>
        <time>2020-05-21T13:25:04Z</time>
      </trkpt>
      <trkpt lat="44.86428" lon="5.86193">
        <ele>859</ele>
        <time>2020-05-21T13:25:07Z</time>
      </trkpt>
      <trkpt lat="44.86417" lon="5.86136">
        <ele>856</ele>
        <time>2020-05-21T13:25:10Z</time>
      </trkpt>
      <trkpt lat="44.86407" lon="5.86085">
        <ele>853</ele>
        <time>2020-05-21T13:25:13Z</time>
      </trkpt>
      <trkpt lat="44.86399" lon="5.86043">
        <ele>851</ele>
        <time>2020-05-21T13:25:16Z</time>
      </trkpt>
      <trkpt lat="44.8639" lon="5.85995">
        <ele>848</ele>
        <time>2020-05-21T13:25:19Z</time>
      </trkpt>
      <trkpt lat="44.86384" lon="5.85958">
        <ele>846</ele>
        <time>2020-05-21T13:25:22Z</time>
      </trkpt>
      <trkpt lat="44.86373" lon="5.85886">
        <ele>844</ele>
        <time>2020-05-21T13:25:26Z</time>
      </trkpt>
      <trkpt lat="44.86367" lon="5.85829">
        <ele>841</ele>
        <time>2020-05-21T13:25:29Z</time>
      </trkpt>
      <trkpt lat="44.86362" lon="5.85775">
        <ele>839</ele>
        <time>2020-05-21T13:25:32Z</time>
      </trkpt>
      <trkpt lat="44.86359" lon="5.85707">
        <ele>836</ele>
        <time>2020-05-21T13:25:36Z</time>
      </trkpt>
      <trkpt lat="44.86364" lon="5.85651">
        <ele>835</ele>
        <time>2020-05-21T13:25:39Z</time>
      </trkpt>
      <trkpt lat="44.8637" lon="5.85589">
        <ele>834</ele>
        <time>2020-05-21T13:25:42Z</time>
      </trkpt>
      <trkpt lat="44.86379" lon="5.85535">
        <ele>833</ele>
        <time>2020-05-21T13:25:45Z</time>
      </trkpt>
      <trkpt lat="44.86388" lon="5.85502">
        <ele>833</ele>
        <time>2020-05-21T13:25:48Z</time>
      </trkpt>
      <trkpt lat="44.86403" lon="5.85454">
        <ele>833</ele>
        <time>2020-05-21T13:25:51Z</time>
      </trkpt>
      <trkpt lat="44.86418" lon="5.85398">
        <ele>833</ele>
        <time>2020-05-21T13:25:54Z</time>
      </trkpt>
      <trkpt lat="44.86429" lon="5.85335">
        <ele>833</ele>
        <time>2020-05-21T13:25:58Z</time>
      </trkpt>
      <trkpt lat="44.86441" lon="5.85291">
        <ele>833</ele>
        <time>2020-05-21T13:26:01Z</time>
      </trkpt>
      <trkpt lat="44.86464" lon="5.85245">
        <ele>832</ele>
        <time>2020-05-21T13:26:04Z</time>
      </trkpt>
      <trkpt lat="44.86494" lon="5.85187">
        <ele>832</ele>
        <time>2020-05-21T13:26:07Z</time>
      </trkpt>
      <trkpt lat="44.86537" lon="5.85109">
        <ele>831</ele>
        <time>2020-05-21T13:26:10Z</time>
      </trkpt>
      <trkpt lat="44.86566" lon="5.85049">
        <ele>832</ele>
        <time>2020-05-21T13:26:14Z</time>
      </trkpt>
      <trkpt lat="44.8661" lon="5.84958">
        <ele>834</ele>
        <time>2020-05-21T13:26:17Z</time>
      </trkpt>
      <trkpt lat="44.86632" lon="5.84913">
        <ele>835</ele>
        <time>2020-05-21T13:26:20Z</time>
      </trkpt>
      <trkpt lat="44.86683" lon="5.84809">
        <ele>838</ele>
        <time>2020-05-21T13:26:23Z</time>
      </trkpt>
      <trkpt lat="44.86722" lon="5.84732">
        <ele>839</ele>
        <time>2020-05-21T13:26:26Z</time>
      </trkpt>
      <trkpt lat="44.86762" lon="5.8465">
        <ele>840</ele>
        <time>2020-05-21T13:26:29Z</time>
      </trkpt>
      <trkpt lat="44.86805" lon="5.84565">
        <ele>842</ele>
        <time>2020-05-21T13:26:32Z</time>
      </trkpt>
      <trkpt lat="44.86849" lon="5.84484">
        <ele>844</ele>
        <time>2020-05-21T13:26:35Z</time>
      </trkpt>
      <trkpt lat="44.86883" lon="5.84408">
        <ele>846</ele>
        <time>2020-05-21T13:26:38Z</time>
      </trkpt>
      <trkpt lat="44.86889" lon="5.84337">
        <ele>848</ele>
        <time>2020-05-21T13:26:41Z</time>
      </trkpt>
      <trkpt lat="44.86896" lon="5.84283">
        <ele>850</ele>
        <time>2020-05-21T13:26:44Z</time>
      </trkpt>
      <trkpt lat="44.86936" lon="5.84222">
        <ele>851</ele>
        <time>2020-05-21T13:26:48Z</time>
      </trkpt>
      <trkpt lat="44.86991" lon="5.84156">
        <ele>853</ele>
        <time>2020-05-21T13:26:51Z</time>
      </trkpt>
      <trkpt lat="44.87004" lon="5.84107">
        <ele>855</ele>
        <time>2020-05-21T13:26:54Z</time>
      </trkpt>
      <trkpt lat="44.87011" lon="5.84039">
        <ele>857</ele>
        <time>2020-05-21T13:26:57Z</time>
      </trkpt>
      <trkpt lat="44.87031" lon="5.83989">
        <ele>858</ele>
        <time>2020-05-21T13:27:00Z</time>
      </trkpt>
      <trkpt lat="44.87086" lon="5.83955">
        <ele>860</ele>
        <time>2020-05-21T13:27:03Z</time>
      </trkpt>
      <trkpt lat="44.87151" lon="5.83925">
        <ele>861</ele>
        <time>2020-05-21T13:27:06Z</time>
      </trkpt>
      <trkpt lat="44.87211" lon="5.83897">
        <ele>863</ele>
        <time>2020-05-21T13:27:09Z</time>
      </trkpt>
      <trkpt lat="44.87285" lon="5.83866">
        <ele>864</ele>
        <time>2020-05-21T13:27:13Z</time>
      </trkpt>
      <trkpt lat="44.87349" lon="5.83862">
        <ele>865</ele>
        <time>2020-05-21T13:27:16Z</time>
      </trkpt>
      <trkpt lat="44.87407" lon="5.83869">
        <ele>867</ele>
        <time>2020-05-21T13:27:19Z</time>
      </trkpt>
      <trkpt lat="44.87439" lon="5.83868">
        <ele>869</ele>
        <time>2020-05-21T13:27:22Z</time>
      </trkpt>
      <trkpt lat="44.87478" lon="5.8384">
        <ele>870</ele>
        <time>2020-05-21T13:27:25Z</time>
      </trkpt>
      <trkpt lat="44.87512" lon="5.83798">
        <ele>872</ele>
        <time>2020-05-21T13:27:28Z</time>
      </trkpt>
      <trkpt lat="44.87557" lon="5.83752">
        <ele>874</ele>
        <time>2020-05-21T13:27:32Z</time>
      </trkpt>
      <trkpt lat="44.87604" lon="5.83708">
        <ele>876</ele>
        <time>2020-05-21T13:27:36Z</time>
      </trkpt>
      <trkpt lat="44.87632" lon="5.83663">
        <ele>878</ele>
        <time>2020-05-21T13:27:39Z</time>
      </trkpt>
      <trkpt lat="44.87643" lon="5.83586">
        <ele>880</ele>
        <time>2020-05-21T13:27:43Z</time>
      </trkpt>
      <trkpt lat="44.87629" lon="5.83531">
        <ele>882</ele>
        <time>2020-05-21T13:27:46Z</time>
      </trkpt>
      <trkpt lat="44.8761" lon="5.835">
        <ele>883</ele>
        <time>2020-05-21T13:27:49Z</time>
      </trkpt>
      <trkpt lat="44.87585" lon="5.83451">
        <ele>884</ele>
        <time>2020-05-21T13:27:52Z</time>
      </trkpt>
      <trkpt lat="44.87573" lon="5.83395">
        <ele>885</ele>
        <time>2020-05-21T13:27:55Z</time>
      </trkpt>
      <trkpt lat="44.87584" lon="5.83332">
        <ele>886</ele>
        <time>2020-05-21T13:27:58Z</time>
      </trkpt>
      <trkpt lat="44.8761" lon="5.83278">
        <ele>886</ele>
        <time>2020-05-21T13:28:01Z</time>
      </trkpt>
      <trkpt lat="44.87637" lon="5.8323">
        <ele>886</ele>
        <time>2020-05-21T13:28:04Z</time>
      </trkpt>
      <trkpt lat="44.87676" lon="5.8314">
        <ele>887</ele>
        <time>2020-05-21T13:28:08Z</time>
      </trkpt>
      <trkpt lat="44.87703" lon="5.83079">
        <ele>887</ele>
        <time>2020-05-21T13:28:11Z</time>
      </trkpt>
      <trkpt lat="44.87739" lon="5.83015">
        <ele>888</ele>
        <time>2020-05-21T13:28:14Z</time>
      </trkpt>
      <trkpt lat="44.87774" lon="5.82949">
        <ele>888</ele>
        <time>2020-05-21T13:28:17Z</time>
      </trkpt>
      <trkpt lat="44.87795" lon="5.82902">
        <ele>888</ele>
        <time>2020-05-21T13:28:21Z</time>
      </trkpt>
      <trkpt lat="44.87827" lon="5.82838">
        <ele>888</ele>
        <time>2020-05-21T13:28:24Z</time>
      </trkpt>
      <trkpt lat="44.87857" lon="5.82778">
        <ele>887</ele>
        <time>2020-05-21T13:28:27Z</time>
      </trkpt>
      <trkpt lat="44.87904" lon="5.82702">
        <ele>887</ele>
        <time>2020-05-21T13:28:30Z</time>
      </trkpt>
      <trkpt lat="44.87948" lon="5.82653">
        <ele>887</ele>
        <time>2020-05-21T13:28:33Z</time>
      </trkpt>
      <trkpt lat="44.88007" lon="5.82609">
        <ele>887</ele>
        <time>2020-05-21T13:28:36Z</time>
      </trkpt>
      <trkpt lat="44.88073" lon="5.82582">
        <ele>886</ele>
        <time>2020-05-21T13:28:39Z</time>
      </trkpt>
      <trkpt lat="44.88158" lon="5.82561">
        <ele>885</ele>
        <time>2020-05-21T13:28:42Z</time>
      </trkpt>
      <trkpt lat="44.88252" lon="5.82535">
        <ele>885</ele>
        <time>2020-05-21T13:28:45Z</time>
      </trkpt>
      <trkpt lat="44.88331" lon="5.82516">
        <ele>885</ele>
        <time>2020-05-21T13:28:48Z</time>
      </trkpt>
      <trkpt lat="44.88377" lon="5.82507">
        <ele>885</ele>
        <time>2020-05-21T13:28:52Z</time>
      </trkpt>
      <trkpt lat="44.88465" lon="5.82516">
        <ele>884</ele>
        <time>2020-05-21T13:28:55Z</time>
      </trkpt>
      <trkpt lat="44.88528" lon="5.82547">
        <ele>884</ele>
        <time>2020-05-21T13:28:58Z</time>
      </trkpt>
      <trkpt lat="44.88585" lon="5.8258">
        <ele>883</ele>
        <time>2020-05-21T13:29:01Z</time>
      </trkpt>
      <trkpt lat="44.88644" lon="5.82588">
        <ele>881</ele>
        <time>2020-05-21T13:29:04Z</time>
      </trkpt>
      <trkpt lat="44.88704" lon="5.82567">
        <ele>881</ele>
        <time>2020-05-21T13:29:07Z</time>
      </trkpt>
      <trkpt lat="44.88759" lon="5.82529">
        <ele>879</ele>
        <time>2020-05-21T13:29:10Z</time>
      </trkpt>
      <trkpt lat="44.8881" lon="5.82488">
        <ele>877</ele>
        <time>2020-05-21T13:29:13Z</time>
      </trkpt>
      <trkpt lat="44.88863" lon="5.82451">
        <ele>874</ele>
        <time>2020-05-21T13:29:16Z</time>
      </trkpt>
      <trkpt lat="44.88893" lon="5.82435">
        <ele>872</ele>
        <time>2020-05-21T13:29:19Z</time>
      </trkpt>
      <trkpt lat="44.88951" lon="5.82437">
        <ele>865</ele>
        <time>2020-05-21T13:29:22Z</time>
      </trkpt>
      <trkpt lat="44.88996" lon="5.82466">
        <ele>859</ele>
        <time>2020-05-21T13:29:25Z</time>
      </trkpt>
      <trkpt lat="44.8904" lon="5.82497">
        <ele>856</ele>
        <time>2020-05-21T13:29:28Z</time>
      </trkpt>
      <trkpt lat="44.89087" lon="5.82506">
        <ele>852</ele>
        <time>2020-05-21T13:29:31Z</time>
      </trkpt>
      <trkpt lat="44.89142" lon="5.82469">
        <ele>849</ele>
        <time>2020-05-21T13:29:34Z</time>
      </trkpt>
      <trkpt lat="44.89194" lon="5.82404">
        <ele>846</ele>
        <time>2020-05-21T13:29:37Z</time>
      </trkpt>
      <trkpt lat="44.89257" lon="5.82328">
        <ele>842</ele>
        <time>2020-05-21T13:29:41Z</time>
      </trkpt>
      <trkpt lat="44.89304" lon="5.82287">
        <ele>839</ele>
        <time>2020-05-21T13:29:44Z</time>
      </trkpt>
      <trkpt lat="44.89334" lon="5.82217">
        <ele>835</ele>
        <time>2020-05-21T13:29:47Z</time>
      </trkpt>
      <trkpt lat="44.89363" lon="5.82121">
        <ele>829</ele>
        <time>2020-05-21T13:29:50Z</time>
      </trkpt>
      <trkpt lat="44.89375" lon="5.82062">
        <ele>823</ele>
        <time>2020-05-21T13:29:53Z</time>
      </trkpt>
      <trkpt lat="44.8939" lon="5.8198">
        <ele>818</ele>
        <time>2020-05-21T13:29:56Z</time>
      </trkpt>
      <trkpt lat="44.89387" lon="5.819">
        <ele>815</ele>
        <time>2020-05-21T13:29:59Z</time>
      </trkpt>
      <trkpt lat="44.89355" lon="5.81815">
        <ele>813</ele>
        <time>2020-05-21T13:30:03Z</time>
      </trkpt>
      <trkpt lat="44.89312" lon="5.81779">
        <ele>810</ele>
        <time>2020-05-21T13:30:06Z</time>
      </trkpt>
      <trkpt lat="44.89289" lon="5.81723">
        <ele>807</ele>
        <time>2020-05-21T13:30:09Z</time>
      </trkpt>
      <trkpt lat="44.89263" lon="5.81653">
        <ele>805</ele>
        <time>2020-05-21T13:30:12Z</time>
      </trkpt>
      <trkpt lat="44.89237" lon="5.81589">
        <ele>802</ele>
        <time>2020-05-21T13:30:15Z</time>
      </trkpt>
      <trkpt lat="44.892" lon="5.81518">
        <ele>798</ele>
        <time>2020-05-21T13:30:19Z</time>
      </trkpt>
      <trkpt lat="44.89169" lon="5.81476">
        <ele>795</ele>
        <time>2020-05-21T13:30:22Z</time>
      </trkpt>
      <trkpt lat="44.89164" lon="5.81451">
        <ele>790</ele>
        <time>2020-05-21T13:30:25Z</time>
      </trkpt>
      <trkpt lat="44.89171" lon="5.81443">
        <ele>783</ele>
        <time>2020-05-21T13:30:28Z</time>
      </trkpt>
      <trkpt lat="44.892" lon="5.81455">
        <ele>777</ele>
        <time>2020-05-21T13:30:31Z</time>
      </trkpt>
      <trkpt lat="44.89244" lon="5.81489">
        <ele>770</ele>
        <time>2020-05-21T13:30:34Z</time>
      </trkpt>
      <trkpt lat="44.89292" lon="5.81532">
        <ele>763</ele>
        <time>2020-05-21T13:30:37Z</time>
      </trkpt>
      <trkpt lat="44.8934" lon="5.81576">
        <ele>758</ele>
        <time>2020-05-21T13:30:41Z</time>
      </trkpt>
      <trkpt lat="44.89395" lon="5.81608">
        <ele>754</ele>
        <time>2020-05-21T13:30:44Z</time>
      </trkpt>
      <trkpt lat="44.89439" lon="5.81659">
        <ele>751</ele>
        <time>2020-05-21T13:30:47Z</time>
      </trkpt>
      <trkpt lat="44.89487" lon="5.81705">
        <ele>748</ele>
        <time>2020-05-21T13:30:50Z</time>
      </trkpt>
      <trkpt lat="44.89532" lon="5.8174">
        <ele>744</ele>
        <time>2020-05-21T13:30:53Z</time>
      </trkpt>
      <trkpt lat="44.89564" lon="5.81737">
        <ele>742</ele>
        <time>2020-05-21T13:30:56Z</time>
      </trkpt>
      <trkpt lat="44.89583" lon="5.81716">
        <ele>740</ele>
        <time>2020-05-21T13:30:59Z</time>
      </trkpt>
      <trkpt lat="44.8962" lon="5.81682">
        <ele>739</ele>
        <time>2020-05-21T13:31:02Z</time>
      </trkpt>
      <trkpt lat="44.89657" lon="5.81656">
        <ele>739</ele>
        <time>2020-05-21T13:31:05Z</time>
      </trkpt>
      <trkpt lat="44.89689" lon="5.81652">
        <ele>737</ele>
        <time>2020-05-21T13:31:09Z</time>
      </trkpt>
      <trkpt lat="44.89715" lon="5.81675">
        <ele>730</ele>
        <time>2020-05-21T13:31:12Z</time>
      </trkpt>
      <trkpt lat="44.89746" lon="5.817">
        <ele>724</ele>
        <time>2020-05-21T13:31:15Z</time>
      </trkpt>
      <trkpt lat="44.89781" lon="5.81675">
        <ele>720</ele>
        <time>2020-05-21T13:31:18Z</time>
      </trkpt>
      <trkpt lat="44.89823" lon="5.81641">
        <ele>716</ele>
        <time>2020-05-21T13:31:21Z</time>
      </trkpt>
      <trkpt lat="44.89908" lon="5.81639">
        <ele>712</ele>
        <time>2020-05-21T13:31:24Z</time>
      </trkpt>
      <trkpt lat="44.89966" lon="5.81649">
        <ele>711</ele>
        <time>2020-05-21T13:31:28Z</time>
      </trkpt>
      <trkpt lat="44.9" lon="5.81646">
        <ele>709</ele>
        <time>2020-05-21T13:31:31Z</time>
      </trkpt>
      <trkpt lat="44.90038" lon="5.81651">
        <ele>707</ele>
        <time>2020-05-21T13:31:34Z</time>
      </trkpt>
      <trkpt lat="44.90069" lon="5.81707">
        <ele>705</ele>
        <time>2020-05-21T13:31:37Z</time>
      </trkpt>
      <trkpt lat="44.90099" lon="5.8178">
        <ele>701</ele>
        <time>2020-05-21T13:31:40Z</time>
      </trkpt>
      <trkpt lat="44.90119" lon="5.81794">
        <ele>699</ele>
        <time>2020-05-21T13:31:43Z</time>
      </trkpt>
      <trkpt lat="44.90136" lon="5.8178">
        <ele>695</ele>
        <time>2020-05-21T13:31:46Z</time>
      </trkpt>
      <trkpt lat="44.90167" lon="5.81736">
        <ele>693</ele>
        <time>2020-05-21T13:31:49Z</time>
      </trkpt>
      <trkpt lat="44.9021" lon="5.81678">
        <ele>688</ele>
        <time>2020-05-21T13:31:53Z</time>
      </trkpt>
      <trkpt lat="44.90214" lon="5.81635">
        <ele>685</ele>
        <time>2020-05-21T13:31:56Z</time>
      </trkpt>
      <trkpt lat="44.90201" lon="5.81615">
        <ele>682</ele>
        <time>2020-05-21T13:31:59Z</time>
      </trkpt>
      <trkpt lat="44.9016" lon="5.81573">
        <ele>681</ele>
        <time>2020-05-21T13:32:02Z</time>
      </trkpt>
      <trkpt lat="44.90117" lon="5.81527">
        <ele>678</ele>
        <time>2020-05-21T13:32:05Z</time>
      </trkpt>
      <trkpt lat="44.90077" lon="5.81466">
        <ele>677</ele>
        <time>2020-05-21T13:32:08Z</time>
      </trkpt>
      <trkpt lat="44.90035" lon="5.81431">
        <ele>677</ele>
        <time>2020-05-21T13:32:11Z</time>
      </trkpt>
      <trkpt lat="44.90001" lon="5.81437">
        <ele>677</ele>
        <time>2020-05-21T13:32:14Z</time>
      </trkpt>
      <trkpt lat="44.89964" lon="5.81413">
        <ele>677</ele>
        <time>2020-05-21T13:32:17Z</time>
      </trkpt>
      <trkpt lat="44.89928" lon="5.81364">
        <ele>678</ele>
        <time>2020-05-21T13:32:20Z</time>
      </trkpt>
      <trkpt lat="44.89918" lon="5.81308">
        <ele>681</ele>
        <time>2020-05-21T13:32:24Z</time>
      </trkpt>
      <trkpt lat="44.89914" lon="5.81248">
        <ele>683</ele>
        <time>2020-05-21T13:32:27Z</time>
      </trkpt>
      <trkpt lat="44.89882" lon="5.81215">
        <ele>688</ele>
        <time>2020-05-21T13:32:30Z</time>
      </trkpt>
      <trkpt lat="44.89861" lon="5.8123">
        <ele>691</ele>
        <time>2020-05-21T13:32:34Z</time>
      </trkpt>
      <trkpt lat="44.89818" lon="5.81256">
        <ele>693</ele>
        <time>2020-05-21T13:32:37Z</time>
      </trkpt>
      <trkpt lat="44.898" lon="5.81256">
        <ele>695</ele>
        <time>2020-05-21T13:32:40Z</time>
      </trkpt>
      <trkpt lat="44.89799" lon="5.81241">
        <ele>696</ele>
        <time>2020-05-21T13:32:43Z</time>
      </trkpt>
      <trkpt lat="44.89833" lon="5.8123">
        <ele>698</ele>
        <time>2020-05-21T13:32:46Z</time>
      </trkpt>
      <trkpt lat="44.89847" lon="5.81205">
        <ele>700</ele>
        <time>2020-05-21T13:32:49Z</time>
      </trkpt>
      <trkpt lat="44.89873" lon="5.81143">
        <ele>702</ele>
        <time>2020-05-21T13:32:52Z</time>
      </trkpt>
      <trkpt lat="44.89913" lon="5.81068">
        <ele>704</ele>
        <time>2020-05-21T13:32:55Z</time>
      </trkpt>
      <trkpt lat="44.89931" lon="5.81022">
        <ele>705</ele>
        <time>2020-05-21T13:32:58Z</time>
      </trkpt>
      <trkpt lat="44.89947" lon="5.81007">
        <ele>707</ele>
        <time>2020-05-21T13:33:01Z</time>
      </trkpt>
      <trkpt lat="44.89967" lon="5.81059">
        <ele>710</ele>
        <time>2020-05-21T13:33:04Z</time>
      </trkpt>
      <trkpt lat="44.89983" lon="5.81109">
        <ele>713</ele>
        <time>2020-05-21T13:33:08Z</time>
      </trkpt>
      <trkpt lat="44.89989" lon="5.81137">
        <ele>717</ele>
        <time>2020-05-21T13:33:11Z</time>
      </trkpt>
      <trkpt lat="44.89973" lon="5.81195">
        <ele>721</ele>
        <time>2020-05-21T13:33:14Z</time>
      </trkpt>
      <trkpt lat="44.89988" lon="5.8127">
        <ele>725</ele>
        <time>2020-05-21T13:33:17Z</time>
      </trkpt>
      <trkpt lat="44.90008" lon="5.81289">
        <ele>728</ele>
        <time>2020-05-21T13:33:20Z</time>
      </trkpt>
      <trkpt lat="44.90009" lon="5.81267">
        <ele>730</ele>
        <time>2020-05-21T13:33:24Z</time>
      </trkpt>
      <trkpt lat="44.89994" lon="5.81241">
        <ele>732</ele>
        <time>2020-05-21T13:33:27Z</time>
      </trkpt>
      <trkpt lat="44.89997" lon="5.81201">
        <ele>734</ele>
        <time>2020-05-21T13:33:30Z</time>
      </trkpt>
      <trkpt lat="44.90021" lon="5.81119">
        <ele>736</ele>
        <time>2020-05-21T13:33:33Z</time>
      </trkpt>
      <trkpt lat="44.90017" lon="5.81065">
        <ele>737</ele>
        <time>2020-05-21T13:33:36Z</time>
      </trkpt>
      <trkpt lat="44.90033" lon="5.8102">
        <ele>739</ele>
        <time>2020-05-21T13:33:39Z</time>
      </trkpt>
      <trkpt lat="44.90057" lon="5.80957">
        <ele>741</ele>
        <time>2020-05-21T13:33:43Z</time>
      </trkpt>
      <trkpt lat="44.90058" lon="5.80901">
        <ele>744</ele>
        <time>2020-05-21T13:33:46Z</time>
      </trkpt>
      <trkpt lat="44.90033" lon="5.80835">
        <ele>746</ele>
        <time>2020-05-21T13:33:49Z</time>
      </trkpt>
      <trkpt lat="44.89991" lon="5.80785">
        <ele>749</ele>
        <time>2020-05-21T13:33:52Z</time>
      </trkpt>
      <trkpt lat="44.89948" lon="5.80748">
        <ele>753</ele>
        <time>2020-05-21T13:33:55Z</time>
      </trkpt>
      <trkpt lat="44.89906" lon="5.80747">
        <ele>757</ele>
        <time>2020-05-21T13:33:58Z</time>
      </trkpt>
      <trkpt lat="44.89859" lon="5.80777">
        <ele>761</ele>
        <time>2020-05-21T13:34:01Z</time>
      </trkpt>
      <trkpt lat="44.89806" lon="5.80798">
        <ele>764</ele>
        <time>2020-05-21T13:34:04Z</time>
      </trkpt>
      <trkpt lat="44.89762" lon="5.80808">
        <ele>766</ele>
        <time>2020-05-21T13:34:07Z</time>
      </trkpt>
      <trkpt lat="44.89738" lon="5.80812">
        <ele>767</ele>
        <time>2020-05-21T13:34:10Z</time>
      </trkpt>
      <trkpt lat="44.89728" lon="5.80803">
        <ele>768</ele>
        <time>2020-05-21T13:34:13Z</time>
      </trkpt>
      <trkpt lat="44.89741" lon="5.80774">
        <ele>770</ele>
        <time>2020-05-21T13:34:16Z</time>
      </trkpt>
      <trkpt lat="44.89784" lon="5.80719">
        <ele>772</ele>
        <time>2020-05-21T13:34:19Z</time>
      </trkpt>
      <trkpt lat="44.89823" lon="5.80661">
        <ele>775</ele>
        <time>2020-05-21T13:34:22Z</time>
      </trkpt>
      <trkpt lat="44.89851" lon="5.80604">
        <ele>777</ele>
        <time>2020-05-21T13:34:25Z</time>
      </trkpt>
      <trkpt lat="44.89879" lon="5.80509">
        <ele>780</ele>
        <time>2020-05-21T13:34:28Z</time>
      </trkpt>
      <trkpt lat="44.8989" lon="5.80392">
        <ele>783</ele>
        <time>2020-05-21T13:34:31Z</time>
      </trkpt>
      <trkpt lat="44.89893" lon="5.8031">
        <ele>788</ele>
        <time>2020-05-21T13:34:34Z</time>
      </trkpt>
      <trkpt lat="44.89919" lon="5.8022">
        <ele>793</ele>
        <time>2020-05-21T13:34:37Z</time>
      </trkpt>
      <trkpt lat="44.8995" lon="5.80144">
        <ele>797</ele>
        <time>2020-05-21T13:34:41Z</time>
      </trkpt>
      <trkpt lat="44.89983" lon="5.80099">
        <ele>802</ele>
        <time>2020-05-21T13:34:44Z</time>
      </trkpt>
      <trkpt lat="44.90033" lon="5.80071">
        <ele>806</ele>
        <time>2020-05-21T13:34:47Z</time>
      </trkpt>
      <trkpt lat="44.90072" lon="5.80044">
        <ele>808</ele>
        <time>2020-05-21T13:34:50Z</time>
      </trkpt>
      <trkpt lat="44.90111" lon="5.79995">
        <ele>811</ele>
        <time>2020-05-21T13:34:54Z</time>
      </trkpt>
      <trkpt lat="44.90142" lon="5.79954">
        <ele>813</ele>
        <time>2020-05-21T13:34:57Z</time>
      </trkpt>
      <trkpt lat="44.9016" lon="5.7992">
        <ele>817</ele>
        <time>2020-05-21T13:35:00Z</time>
      </trkpt>
      <trkpt lat="44.90179" lon="5.79889">
        <ele>821</ele>
        <time>2020-05-21T13:35:03Z</time>
      </trkpt>
      <trkpt lat="44.90215" lon="5.79869">
        <ele>823</ele>
        <time>2020-05-21T13:35:06Z</time>
      </trkpt>
      <trkpt lat="44.90273" lon="5.79829">
        <ele>825</ele>
        <time>2020-05-21T13:35:09Z</time>
      </trkpt>
      <trkpt lat="44.90327" lon="5.79804">
        <ele>828</ele>
        <time>2020-05-21T13:35:12Z</time>
      </trkpt>
      <trkpt lat="44.90381" lon="5.79789">
        <ele>834</ele>
        <time>2020-05-21T13:35:15Z</time>
      </trkpt>
      <trkpt lat="44.90416" lon="5.79781">
        <ele>839</ele>
        <time>2020-05-21T13:35:18Z</time>
      </trkpt>
      <trkpt lat="44.90461" lon="5.79769">
        <ele>843</ele>
        <time>2020-05-21T13:35:21Z</time>
      </trkpt>
      <trkpt lat="44.90504" lon="5.79737">
        <ele>847</ele>
        <time>2020-05-21T13:35:24Z</time>
      </trkpt>
      <trkpt lat="44.90525" lon="5.79691">
        <ele>850</ele>
        <time>2020-05-21T13:35:27Z</time>
      </trkpt>
      <trkpt lat="44.90526" lon="5.79626">
        <ele>852</ele>
        <time>2020-05-21T13:35:30Z</time>
      </trkpt>
      <trkpt lat="44.90528" lon="5.79566">
        <ele>854</ele>
        <time>2020-05-21T13:35:34Z</time>
      </trkpt>
      <trkpt lat="44.90529" lon="5.79515">
        <ele>856</ele>
        <time>2020-05-21T13:35:37Z</time>
      </trkpt>
      <trkpt lat="44.9053" lon="5.79461">
        <ele>859</ele>
        <time>2020-05-21T13:35:40Z</time>
      </trkpt>
      <trkpt lat="44.90533" lon="5.79387">
        <ele>862</ele>
        <time>2020-05-21T13:35:43Z</time>
      </trkpt>
      <trkpt lat="44.90535" lon="5.79332">
        <ele>864</ele>
        <time>2020-05-21T13:35:46Z</time>
      </trkpt>
      <trkpt lat="44.90536" lon="5.7928">
        <ele>866</ele>
        <time>2020-05-21T13:35:50Z</time>
      </trkpt>
      <trkpt lat="44.90538" lon="5.79223">
        <ele>868</ele>
        <time>2020-05-21T13:35:53Z</time>
      </trkpt>
      <trkpt lat="44.9054" lon="5.79168">
        <ele>871</ele>
        <time>2020-05-21T13:35:56Z</time>
      </trkpt>
      <trkpt lat="44.90541" lon="5.79091">
        <ele>875</ele>
        <time>2020-05-21T13:36:00Z</time>
      </trkpt>
      <trkpt lat="44.90542" lon="5.79035">
        <ele>877</ele>
        <time>2020-05-21T13:36:03Z</time>
      </trkpt>
      <trkpt lat="44.90544" lon="5.78979">
        <ele>880</ele>
        <time>2020-05-21T13:36:07Z</time>
      </trkpt>
      <trkpt lat="44.90546" lon="5.78927">
        <ele>882</ele>
        <time>2020-05-21T13:36:10Z</time>
      </trkpt>
      <trkpt lat="44.90548" lon="5.78871">
        <ele>885</ele>
        <time>2020-05-21T13:36:13Z</time>
      </trkpt>
      <trkpt lat="44.9055" lon="5.78811">
        <ele>886</ele>
        <time>2020-05-21T13:36:16Z</time>
      </trkpt>
      <trkpt lat="44.90551" lon="5.78781">
        <ele>888</ele>
        <time>2020-05-21T13:36:19Z</time>
      </trkpt>
      <trkpt lat="44.90554" lon="5.78752">
        <ele>891</ele>
        <time>2020-05-21T13:36:23Z</time>
      </trkpt>
      <trkpt lat="44.90564" lon="5.78749">
        <ele>894</ele>
        <time>2020-05-21T13:36:27Z</time>
      </trkpt>
      <trkpt lat="44.90601" lon="5.78768">
        <ele>897</ele>
        <time>2020-05-21T13:36:30Z</time>
      </trkpt>
      <trkpt lat="44.90624" lon="5.78778">
        <ele>899</ele>
        <time>2020-05-21T13:36:33Z</time>
      </trkpt>
      <trkpt lat="44.90639" lon="5.78781">
        <ele>901</ele>
        <time>2020-05-21T13:36:36Z</time>
      </trkpt>
      <trkpt lat="44.90654" lon="5.78766">
        <ele>903</ele>
        <time>2020-05-21T13:36:39Z</time>
      </trkpt>
      <trkpt lat="44.90672" lon="5.78725">
        <ele>904</ele>
        <time>2020-05-21T13:36:42Z</time>
      </trkpt>
      <trkpt lat="44.90685" lon="5.78672">
        <ele>906</ele>
        <time>2020-05-21T13:36:46Z</time>
      </trkpt>
      <trkpt lat="44.90692" lon="5.78615">
        <ele>908</ele>
        <time>2020-05-21T13:36:50Z</time>
      </trkpt>
      <trkpt lat="44.90688" lon="5.78589">
        <ele>910</ele>
        <time>2020-05-21T13:36:53Z</time>
      </trkpt>
      <trkpt lat="44.90681" lon="5.78554">
        <ele>913</ele>
        <time>2020-05-21T13:36:56Z</time>
      </trkpt>
      <trkpt lat="44.90674" lon="5.7852">
        <ele>915</ele>
        <time>2020-05-21T13:36:59Z</time>
      </trkpt>
      <trkpt lat="44.90668" lon="5.78482">
        <ele>916</ele>
        <time>2020-05-21T13:37:03Z</time>
      </trkpt>
      <trkpt lat="44.90679" lon="5.78448">
        <ele>918</ele>
        <time>2020-05-21T13:37:06Z</time>
      </trkpt>
      <trkpt lat="44.90699" lon="5.78435">
        <ele>920</ele>
        <time>2020-05-21T13:37:10Z</time>
      </trkpt>
      <trkpt lat="44.90726" lon="5.78424">
        <ele>921</ele>
        <time>2020-05-21T13:37:13Z</time>
      </trkpt>
      <trkpt lat="44.90747" lon="5.78416">
        <ele>922</ele>
        <time>2020-05-21T13:37:16Z</time>
      </trkpt>
      <trkpt lat="44.90776" lon="5.78404">
        <ele>924</ele>
        <time>2020-05-21T13:37:19Z</time>
      </trkpt>
      <trkpt lat="44.90795" lon="5.78396">
        <ele>926</ele>
        <time>2020-05-21T13:37:22Z</time>
      </trkpt>
      <trkpt lat="44.90825" lon="5.78389">
        <ele>928</ele>
        <time>2020-05-21T13:37:25Z</time>
      </trkpt>
      <trkpt lat="44.90852" lon="5.78391">
        <ele>929</ele>
        <time>2020-05-21T13:37:28Z</time>
      </trkpt>
      <trkpt lat="44.90894" lon="5.78395">
        <ele>931</ele>
        <time>2020-05-21T13:37:31Z</time>
      </trkpt>
      <trkpt lat="44.90926" lon="5.78398">
        <ele>932</ele>
        <time>2020-05-21T13:37:34Z</time>
      </trkpt>
      <trkpt lat="44.90954" lon="5.784">
        <ele>933</ele>
        <time>2020-05-21T13:37:37Z</time>
      </trkpt>
      <trkpt lat="44.90972" lon="5.78401">
        <ele>933</ele>
        <time>2020-05-21T13:37:41Z</time>
      </trkpt>
      <trkpt lat="44.90993" lon="5.78394">
        <ele>934</ele>
        <time>2020-05-21T13:37:44Z</time>
      </trkpt>
      <trkpt lat="44.91051" lon="5.78407">
        <ele>934</ele>
        <time>2020-05-21T13:37:47Z</time>
      </trkpt>
      <trkpt lat="44.91084" lon="5.78411">
        <ele>934</ele>
        <time>2020-05-21T13:37:50Z</time>
      </trkpt>
      <trkpt lat="44.9111" lon="5.78413">
        <ele>935</ele>
        <time>2020-05-21T13:37:53Z</time>
      </trkpt>
      <trkpt lat="44.91146" lon="5.78415">
        <ele>934</ele>
        <time>2020-05-21T13:37:56Z</time>
      </trkpt>
      <trkpt lat="44.91182" lon="5.78418">
        <ele>934</ele>
        <time>2020-05-21T13:37:59Z</time>
      </trkpt>
      <trkpt lat="44.91219" lon="5.78421">
        <ele>935</ele>
        <time>2020-05-21T13:38:02Z</time>
      </trkpt>
      <trkpt lat="44.91261" lon="5.78424">
        <ele>936</ele>
        <time>2020-05-21T13:38:05Z</time>
      </trkpt>
      <trkpt lat="44.91307" lon="5.78427">
        <ele>937</ele>
        <time>2020-05-21T13:38:08Z</time>
      </trkpt>
      <trkpt lat="44.91353" lon="5.78431">
        <ele>938</ele>
        <time>2020-05-21T13:38:11Z</time>
      </trkpt>
      <trkpt lat="44.91405" lon="5.7844">
        <ele>939</ele>
        <time>2020-05-21T13:38:14Z</time>
      </trkpt>
      <trkpt lat="44.9146" lon="5.78446">
        <ele>940</ele>
        <time>2020-05-21T13:38:17Z</time>
      </trkpt>
      <trkpt lat="44.9151" lon="5.78449">
        <ele>941</ele>
        <time>2020-05-21T13:38:20Z</time>
      </trkpt>
      <trkpt lat="44.91554" lon="5.78451">
        <ele>942</ele>
        <time>2020-05-21T13:38:23Z</time>
      </trkpt>
      <trkpt lat="44.91592" lon="5.7845">
        <ele>942</ele>
        <time>2020-05-21T13:38:26Z</time>
      </trkpt>
      <trkpt lat="44.91628" lon="5.78444">
        <ele>941</ele>
        <time>2020-05-21T13:38:29Z</time>
      </trkpt>
      <trkpt lat="44.91649" lon="5.78441">
        <ele>941</ele>
        <time>2020-05-21T13:38:32Z</time>
      </trkpt>
      <trkpt lat="44.91686" lon="5.78434">
        <ele>941</ele>
        <time>2020-05-21T13:38:36Z</time>
      </trkpt>
      <trkpt lat="44.91724" lon="5.78428">
        <ele>941</ele>
        <time>2020-05-21T13:38:39Z</time>
      </trkpt>
      <trkpt lat="44.91769" lon="5.78417">
        <ele>941</ele>
        <time>2020-05-21T13:38:42Z</time>
      </trkpt>
      <trkpt lat="44.91818" lon="5.78408">
        <ele>941</ele>
        <time>2020-05-21T13:38:45Z</time>
      </trkpt>
      <trkpt lat="44.9187" lon="5.784">
        <ele>942</ele>
        <time>2020-05-21T13:38:48Z</time>
      </trkpt>
      <trkpt lat="44.91925" lon="5.78391">
        <ele>942</ele>
        <time>2020-05-21T13:38:51Z</time>
      </trkpt>
      <trkpt lat="44.91966" lon="5.78386">
        <ele>942</ele>
        <time>2020-05-21T13:38:54Z</time>
      </trkpt>
      <trkpt lat="44.92006" lon="5.78383">
        <ele>943</ele>
        <time>2020-05-21T13:38:57Z</time>
      </trkpt>
      <trkpt lat="44.9203" lon="5.78383">
        <ele>943</ele>
        <time>2020-05-21T13:39:01Z</time>
      </trkpt>
      <trkpt lat="44.92057" lon="5.78383">
        <ele>943</ele>
        <time>2020-05-21T13:39:04Z</time>
      </trkpt>
      <trkpt lat="44.92079" lon="5.78387">
        <ele>944</ele>
        <time>2020-05-21T13:39:07Z</time>
      </trkpt>
      <trkpt lat="44.92108" lon="5.78388">
        <ele>944</ele>
        <time>2020-05-21T13:39:10Z</time>
      </trkpt>
      <trkpt lat="44.9214" lon="5.78375">
        <ele>944</ele>
        <time>2020-05-21T13:39:13Z</time>
      </trkpt>
      <trkpt lat="44.92173" lon="5.78356">
        <ele>944</ele>
        <time>2020-05-21T13:39:16Z</time>
      </trkpt>
      <trkpt lat="44.92218" lon="5.78343">
        <ele>944</ele>
        <time>2020-05-21T13:39:19Z</time>
      </trkpt>
      <trkpt lat="44.92273" lon="5.78334">
        <ele>944</ele>
        <time>2020-05-21T13:39:22Z</time>
      </trkpt>
      <trkpt lat="44.92325" lon="5.78325">
        <ele>944</ele>
        <time>2020-05-21T13:39:26Z</time>
      </trkpt>
      <trkpt lat="44.92383" lon="5.78316">
        <ele>944</ele>
        <time>2020-05-21T13:39:29Z</time>
      </trkpt>
      <trkpt lat="44.92438" lon="5.78307">
        <ele>944</ele>
        <time>2020-05-21T13:39:32Z</time>
      </trkpt>
      <trkpt lat="44.9249" lon="5.78298">
        <ele>944</ele>
        <time>2020-05-21T13:39:35Z</time>
      </trkpt>
      <trkpt lat="44.92544" lon="5.78292">
        <ele>944</ele>
        <time>2020-05-21T13:39:38Z</time>
      </trkpt>
      <trkpt lat="44.92588" lon="5.78285">
        <ele>944</ele>
        <time>2020-05-21T13:39:41Z</time>
      </trkpt>
      <trkpt lat="44.92632" lon="5.78278">
        <ele>943</ele>
        <time>2020-05-21T13:39:44Z</time>
      </trkpt>
      <trkpt lat="44.9268" lon="5.7827">
        <ele>943</ele>
        <time>2020-05-21T13:39:47Z</time>
      </trkpt>
      <trkpt lat="44.92729" lon="5.78262">
        <ele>943</ele>
        <time>2020-05-21T13:39:50Z</time>
      </trkpt>
      <trkpt lat="44.92778" lon="5.78255">
        <ele>943</ele>
        <time>2020-05-21T13:39:54Z</time>
      </trkpt>
      <trkpt lat="44.92844" lon="5.78247">
        <ele>943</ele>
        <time>2020-05-21T13:39:57Z</time>
      </trkpt>
      <trkpt lat="44.92878" lon="5.78242">
        <ele>943</ele>
        <time>2020-05-21T13:40:00Z</time>
      </trkpt>
      <trkpt lat="44.92934" lon="5.78232">
        <ele>943</ele>
        <time>2020-05-21T13:40:03Z</time>
      </trkpt>
      <trkpt lat="44.92988" lon="5.78223">
        <ele>943</ele>
        <time>2020-05-21T13:40:06Z</time>
      </trkpt>
      <trkpt lat="44.93042" lon="5.78213">
        <ele>943</ele>
        <time>2020-05-21T13:40:10Z</time>
      </trkpt>
      <trkpt lat="44.93097" lon="5.78201">
        <ele>943</ele>
        <time>2020-05-21T13:40:13Z</time>
      </trkpt>
      <trkpt lat="44.93173" lon="5.78189">
        <ele>943</ele>
        <time>2020-05-21T13:40:16Z</time>
      </trkpt>
      <trkpt lat="44.93228" lon="5.7818">
        <ele>943</ele>
        <time>2020-05-21T13:40:20Z</time>
      </trkpt>
      <trkpt lat="44.93277" lon="5.78172">
        <ele>943</ele>
        <time>2020-05-21T13:40:23Z</time>
      </trkpt>
      <trkpt lat="44.93319" lon="5.78165">
        <ele>943</ele>
        <time>2020-05-21T13:40:26Z</time>
      </trkpt>
      <trkpt lat="44.9334" lon="5.78163">
        <ele>942</ele>
        <time>2020-05-21T13:40:29Z</time>
      </trkpt>
      <trkpt lat="44.93363" lon="5.78159">
        <ele>942</ele>
        <time>2020-05-21T13:40:32Z</time>
      </trkpt>
      <trkpt lat="44.93398" lon="5.78177">
        <ele>942</ele>
        <time>2020-05-21T13:40:35Z</time>
      </trkpt>
      <trkpt lat="44.93426" lon="5.78153">
        <ele>942</ele>
        <time>2020-05-21T13:40:38Z</time>
      </trkpt>
      <trkpt lat="44.93466" lon="5.78146">
        <ele>942</ele>
        <time>2020-05-21T13:40:41Z</time>
      </trkpt>
      <trkpt lat="44.93504" lon="5.78139">
        <ele>941</ele>
        <time>2020-05-21T13:40:44Z</time>
      </trkpt>
      <trkpt lat="44.93551" lon="5.78127">
        <ele>941</ele>
        <time>2020-05-21T13:40:48Z</time>
      </trkpt>
      <trkpt lat="44.93606" lon="5.78118">
        <ele>942</ele>
        <time>2020-05-21T13:40:51Z</time>
      </trkpt>
      <trkpt lat="44.93674" lon="5.78107">
        <ele>941</ele>
        <time>2020-05-21T13:40:54Z</time>
      </trkpt>
      <trkpt lat="44.93728" lon="5.78099">
        <ele>942</ele>
        <time>2020-05-21T13:40:57Z</time>
      </trkpt>
      <trkpt lat="44.93795" lon="5.78088">
        <ele>942</ele>
        <time>2020-05-21T13:41:00Z</time>
      </trkpt>
      <trkpt lat="44.93855" lon="5.78078">
        <ele>941</ele>
        <time>2020-05-21T13:41:03Z</time>
      </trkpt>
      <trkpt lat="44.93934" lon="5.78065">
        <ele>941</ele>
        <time>2020-05-21T13:41:06Z</time>
      </trkpt>
      <trkpt lat="44.93992" lon="5.78055">
        <ele>942</ele>
        <time>2020-05-21T13:41:09Z</time>
      </trkpt>
      <trkpt lat="44.94068" lon="5.78043">
        <ele>942</ele>
        <time>2020-05-21T13:41:13Z</time>
      </trkpt>
      <trkpt lat="44.94124" lon="5.78034">
        <ele>942</ele>
        <time>2020-05-21T13:41:16Z</time>
      </trkpt>
      <trkpt lat="44.94178" lon="5.78025">
        <ele>943</ele>
        <time>2020-05-21T13:41:20Z</time>
      </trkpt>
      <trkpt lat="44.94244" lon="5.78014">
        <ele>943</ele>
        <time>2020-05-21T13:41:23Z</time>
      </trkpt>
      <trkpt lat="44.9428" lon="5.78011">
        <ele>943</ele>
        <time>2020-05-21T13:41:26Z</time>
      </trkpt>
      <trkpt lat="44.94332" lon="5.78003">
        <ele>944</ele>
        <time>2020-05-21T13:41:29Z</time>
      </trkpt>
      <trkpt lat="44.94385" lon="5.77993">
        <ele>944</ele>
        <time>2020-05-21T13:41:32Z</time>
      </trkpt>
      <trkpt lat="44.94441" lon="5.77983">
        <ele>944</ele>
        <time>2020-05-21T13:41:35Z</time>
      </trkpt>
      <trkpt lat="44.94497" lon="5.77974">
        <ele>945</ele>
        <time>2020-05-21T13:41:38Z</time>
      </trkpt>
      <trkpt lat="44.94555" lon="5.77964">
        <ele>945</ele>
        <time>2020-05-21T13:41:42Z</time>
      </trkpt>
      <trkpt lat="44.94626" lon="5.77956">
        <ele>946</ele>
        <time>2020-05-21T13:41:45Z</time>
      </trkpt>
      <trkpt lat="44.947" lon="5.77956">
        <ele>946</ele>
        <time>2020-05-21T13:41:49Z</time>
      </trkpt>
      <trkpt lat="44.94754" lon="5.77962">
        <ele>947</ele>
        <time>2020-05-21T13:41:52Z</time>
      </trkpt>
      <trkpt lat="44.94804" lon="5.77973">
        <ele>947</ele>
        <time>2020-05-21T13:41:55Z</time>
      </trkpt>
      <trkpt lat="44.94834" lon="5.77981">
        <ele>948</ele>
        <time>2020-05-21T13:41:58Z</time>
      </trkpt>
      <trkpt lat="44.94852" lon="5.77986">
        <ele>948</ele>
        <time>2020-05-21T13:42:01Z</time>
      </trkpt>
      <trkpt lat="44.94864" lon="5.77992">
        <ele>949</ele>
        <time>2020-05-21T13:42:05Z</time>
      </trkpt>
      <trkpt lat="44.94887" lon="5.77996">
        <ele>949</ele>
        <time>2020-05-21T13:42:08Z</time>
      </trkpt>
      <trkpt lat="44.9493" lon="5.78004">
        <ele>949</ele>
        <time>2020-05-21T13:42:11Z</time>
      </trkpt>
      <trkpt lat="44.94963" lon="5.78009">
        <ele>950</ele>
        <time>2020-05-21T13:42:14Z</time>
      </trkpt>
      <trkpt lat="44.95011" lon="5.78017">
        <ele>950</ele>
        <time>2020-05-21T13:42:17Z</time>
      </trkpt>
      <trkpt lat="44.95065" lon="5.78027">
        <ele>951</ele>
        <time>2020-05-21T13:42:20Z</time>
      </trkpt>
      <trkpt lat="44.95122" lon="5.78036">
        <ele>951</ele>
        <time>2020-05-21T13:42:23Z</time>
      </trkpt>
      <trkpt lat="44.95194" lon="5.78048">
        <ele>951</ele>
        <time>2020-05-21T13:42:27Z</time>
      </trkpt>
      <trkpt lat="44.95297" lon="5.78065">
        <ele>952</ele>
        <time>2020-05-21T13:42:30Z</time>
      </trkpt>
      <trkpt lat="44.95353" lon="5.78075">
        <ele>952</ele>
        <time>2020-05-21T13:42:34Z</time>
      </trkpt>
      <trkpt lat="44.95434" lon="5.78088">
        <ele>953</ele>
        <time>2020-05-21T13:42:37Z</time>
      </trkpt>
      <trkpt lat="44.95499" lon="5.78098">
        <ele>954</ele>
        <time>2020-05-21T13:42:40Z</time>
      </trkpt>
      <trkpt lat="44.95556" lon="5.78107">
        <ele>955</ele>
        <time>2020-05-21T13:42:43Z</time>
      </trkpt>
      <trkpt lat="44.9563" lon="5.78115">
        <ele>956</ele>
        <time>2020-05-21T13:42:46Z</time>
      </trkpt>
      <trkpt lat="44.95684" lon="5.78116">
        <ele>957</ele>
        <time>2020-05-21T13:42:49Z</time>
      </trkpt>
      <trkpt lat="44.95743" lon="5.7811">
        <ele>957</ele>
        <time>2020-05-21T13:42:53Z</time>
      </trkpt>
      <trkpt lat="44.95794" lon="5.78101">
        <ele>958</ele>
        <time>2020-05-21T13:42:56Z</time>
      </trkpt>
      <trkpt lat="44.9585" lon="5.78089">
        <ele>959</ele>
        <time>2020-05-21T13:42:59Z</time>
      </trkpt>
      <trkpt lat="44.95884" lon="5.78077">
        <ele>960</ele>
        <time>2020-05-21T13:43:02Z</time>
      </trkpt>
      <trkpt lat="44.95926" lon="5.78059">
        <ele>961</ele>
        <time>2020-05-21T13:43:05Z</time>
      </trkpt>
      <trkpt lat="44.95959" lon="5.78042">
        <ele>962</ele>
        <time>2020-05-21T13:43:08Z</time>
      </trkpt>
      <trkpt lat="44.95984" lon="5.7803">
        <ele>963</ele>
        <time>2020-05-21T13:43:11Z</time>
      </trkpt>
      <trkpt lat="44.96016" lon="5.78028">
        <ele>964</ele>
        <time>2020-05-21T13:43:14Z</time>
      </trkpt>
      <trkpt lat="44.96028" lon="5.78002">
        <ele>964</ele>
        <time>2020-05-21T13:43:17Z</time>
      </trkpt>
      <trkpt lat="44.96082" lon="5.77959">
        <ele>965</ele>
        <time>2020-05-21T13:43:20Z</time>
      </trkpt>
      <trkpt lat="44.96143" lon="5.77918">
        <ele>966</ele>
        <time>2020-05-21T13:43:23Z</time>
      </trkpt>
      <trkpt lat="44.96228" lon="5.7786">
        <ele>966</ele>
        <time>2020-05-21T13:43:27Z</time>
      </trkpt>
      <trkpt lat="44.96299" lon="5.77813">
        <ele>966</ele>
        <time>2020-05-21T13:43:30Z</time>
      </trkpt>
      <trkpt lat="44.96368" lon="5.77767">
        <ele>966</ele>
        <time>2020-05-21T13:43:33Z</time>
      </trkpt>
      <trkpt lat="44.96418" lon="5.77733">
        <ele>966</ele>
        <time>2020-05-21T13:43:36Z</time>
      </trkpt>
      <trkpt lat="44.96494" lon="5.77681">
        <ele>967</ele>
        <time>2020-05-21T13:43:39Z</time>
      </trkpt>
      <trkpt lat="44.96605" lon="5.77607">
        <ele>968</ele>
        <time>2020-05-21T13:43:42Z</time>
      </trkpt>
      <trkpt lat="44.96676" lon="5.77559">
        <ele>969</ele>
        <time>2020-05-21T13:43:45Z</time>
      </trkpt>
      <trkpt lat="44.9675" lon="5.77509">
        <ele>969</ele>
        <time>2020-05-21T13:43:48Z</time>
      </trkpt>
      <trkpt lat="44.96818" lon="5.77463">
        <ele>969</ele>
        <time>2020-05-21T13:43:51Z</time>
      </trkpt>
      <trkpt lat="44.96895" lon="5.77406">
        <ele>970</ele>
        <time>2020-05-21T13:43:54Z</time>
      </trkpt>
      <trkpt lat="44.96952" lon="5.77356">
        <ele>970</ele>
        <time>2020-05-21T13:43:58Z</time>
      </trkpt>
      <trkpt lat="44.96986" lon="5.77329">
        <ele>971</ele>
        <time>2020-05-21T13:44:01Z</time>
      </trkpt>
      <trkpt lat="44.9703" lon="5.77296">
        <ele>971</ele>
        <time>2020-05-21T13:44:04Z</time>
      </trkpt>
      <trkpt lat="44.97082" lon="5.77261">
        <ele>971</ele>
        <time>2020-05-21T13:44:07Z</time>
      </trkpt>
      <trkpt lat="44.97123" lon="5.77235">
        <ele>971</ele>
        <time>2020-05-21T13:44:11Z</time>
      </trkpt>
      <trkpt lat="44.97169" lon="5.77205">
        <ele>972</ele>
        <time>2020-05-21T13:44:14Z</time>
      </trkpt>
      <trkpt lat="44.97214" lon="5.77176">
        <ele>973</ele>
        <time>2020-05-21T13:44:17Z</time>
      </trkpt>
      <trkpt lat="44.97294" lon="5.77124">
        <ele>974</ele>
        <time>2020-05-21T13:44:20Z</time>
      </trkpt>
      <trkpt lat="44.97353" lon="5.77084">
        <ele>974</ele>
        <time>2020-05-21T13:44:23Z</time>
      </trkpt>
      <trkpt lat="44.97419" lon="5.7704">
        <ele>974</ele>
        <time>2020-05-21T13:44:26Z</time>
      </trkpt>
      <trkpt lat="44.97481" lon="5.77003">
        <ele>976</ele>
        <time>2020-05-21T13:44:30Z</time>
      </trkpt>
      <trkpt lat="44.97523" lon="5.76987">
        <ele>979</ele>
        <time>2020-05-21T13:44:33Z</time>
      </trkpt>
      <trkpt lat="44.97608" lon="5.76962">
        <ele>981</ele>
        <time>2020-05-21T13:44:36Z</time>
      </trkpt>
      <trkpt lat="44.97673" lon="5.7696">
        <ele>983</ele>
        <time>2020-05-21T13:44:40Z</time>
      </trkpt>
      <trkpt lat="44.9776" lon="5.76988">
        <ele>984</ele>
        <time>2020-05-21T13:44:43Z</time>
      </trkpt>
      <trkpt lat="44.97839" lon="5.77017">
        <ele>985</ele>
        <time>2020-05-21T13:44:46Z</time>
      </trkpt>
      <trkpt lat="44.97918" lon="5.77047">
        <ele>986</ele>
        <time>2020-05-21T13:44:49Z</time>
      </trkpt>
      <trkpt lat="44.98019" lon="5.77085">
        <ele>987</ele>
        <time>2020-05-21T13:44:52Z</time>
      </trkpt>
      <trkpt lat="44.98095" lon="5.77117">
        <ele>987</ele>
        <time>2020-05-21T13:44:56Z</time>
      </trkpt>
      <trkpt lat="44.98172" lon="5.77148">
        <ele>988</ele>
        <time>2020-05-21T13:44:59Z</time>
      </trkpt>
      <trkpt lat="44.98238" lon="5.77174">
        <ele>989</ele>
        <time>2020-05-21T13:45:02Z</time>
      </trkpt>
      <trkpt lat="44.98287" lon="5.7719">
        <ele>990</ele>
        <time>2020-05-21T13:45:05Z</time>
      </trkpt>
      <trkpt lat="44.98355" lon="5.77212">
        <ele>990</ele>
        <time>2020-05-21T13:45:08Z</time>
      </trkpt>
      <trkpt lat="44.98416" lon="5.77238">
        <ele>991</ele>
        <time>2020-05-21T13:45:11Z</time>
      </trkpt>
      <trkpt lat="44.98473" lon="5.77262">
        <ele>991</ele>
        <time>2020-05-21T13:45:14Z</time>
      </trkpt>
      <trkpt lat="44.98528" lon="5.77284">
        <ele>992</ele>
        <time>2020-05-21T13:45:17Z</time>
      </trkpt>
      <trkpt lat="44.98599" lon="5.7731">
        <ele>992</ele>
        <time>2020-05-21T13:45:20Z</time>
      </trkpt>
      <trkpt lat="44.98649" lon="5.77326">
        <ele>992</ele>
        <time>2020-05-21T13:45:23Z</time>
      </trkpt>
      <trkpt lat="44.98714" lon="5.77332">
        <ele>992</ele>
        <time>2020-05-21T13:45:26Z</time>
      </trkpt>
      <trkpt lat="44.98776" lon="5.7732">
        <ele>991</ele>
        <time>2020-05-21T13:45:29Z</time>
      </trkpt>
      <trkpt lat="44.98851" lon="5.77318">
        <ele>991</ele>
        <time>2020-05-21T13:45:32Z</time>
      </trkpt>
      <trkpt lat="44.989" lon="5.77318">
        <ele>990</ele>
        <time>2020-05-21T13:45:35Z</time>
      </trkpt>
      <trkpt lat="44.98979" lon="5.77316">
        <ele>987</ele>
        <time>2020-05-21T13:45:38Z</time>
      </trkpt>
      <trkpt lat="44.9905" lon="5.77316">
        <ele>986</ele>
        <time>2020-05-21T13:45:41Z</time>
      </trkpt>
      <trkpt lat="44.99119" lon="5.77314">
        <ele>985</ele>
        <time>2020-05-21T13:45:44Z</time>
      </trkpt>
      <trkpt lat="44.99191" lon="5.77312">
        <ele>984</ele>
        <time>2020-05-21T13:45:48Z</time>
      </trkpt>
      <trkpt lat="44.99296" lon="5.77311">
        <ele>984</ele>
        <time>2020-05-21T13:45:51Z</time>
      </trkpt>
      <trkpt lat="44.9937" lon="5.7731">
        <ele>983</ele>
        <time>2020-05-21T13:45:55Z</time>
      </trkpt>
      <trkpt lat="44.99439" lon="5.77309">
        <ele>983</ele>
        <time>2020-05-21T13:45:58Z</time>
      </trkpt>
      <trkpt lat="44.9951" lon="5.77308">
        <ele>984</ele>
        <time>2020-05-21T13:46:01Z</time>
      </trkpt>
      <trkpt lat="44.99566" lon="5.77308">
        <ele>985</ele>
        <time>2020-05-21T13:46:04Z</time>
      </trkpt>
      <trkpt lat="44.99612" lon="5.77308">
        <ele>986</ele>
        <time>2020-05-21T13:46:07Z</time>
      </trkpt>
      <trkpt lat="44.9965" lon="5.77307">
        <ele>986</ele>
        <time>2020-05-21T13:46:10Z</time>
      </trkpt>
      <trkpt lat="44.99687" lon="5.77305">
        <ele>987</ele>
        <time>2020-05-21T13:46:14Z</time>
      </trkpt>
      <trkpt lat="44.99725" lon="5.77304">
        <ele>988</ele>
        <time>2020-05-21T13:46:17Z</time>
      </trkpt>
      <trkpt lat="44.99759" lon="5.77303">
        <ele>988</ele>
        <time>2020-05-21T13:46:20Z</time>
      </trkpt>
      <trkpt lat="44.9979" lon="5.77302">
        <ele>988</ele>
        <time>2020-05-21T13:46:23Z</time>
      </trkpt>
      <trkpt lat="44.99819" lon="5.77302">
        <ele>989</ele>
        <time>2020-05-21T13:46:26Z</time>
      </trkpt>
      <trkpt lat="44.99854" lon="5.77301">
        <ele>989</ele>
        <time>2020-05-21T13:46:29Z</time>
      </trkpt>
      <trkpt lat="44.99872" lon="5.77299">
        <ele>989</ele>
        <time>2020-05-21T13:46:32Z</time>
      </trkpt>
      <trkpt lat="44.99901" lon="5.77285">
        <ele>988</ele>
        <time>2020-05-21T13:46:35Z</time>
      </trkpt>
      <trkpt lat="44.99953" lon="5.77257">
        <ele>987</ele>
        <time>2020-05-21T13:46:38Z</time>
      </trkpt>
      <trkpt lat="45.00024" lon="5.77237">
        <ele>986</ele>
        <time>2020-05-21T13:46:41Z</time>
      </trkpt>
      <trkpt lat="45.00053" lon="5.7723">
        <ele>984</ele>
        <time>2020-05-21T13:46:44Z</time>
      </trkpt>
      <trkpt lat="45.00125" lon="5.77215">
        <ele>981</ele>
        <time>2020-05-21T13:46:47Z</time>
      </trkpt>
      <trkpt lat="45.00197" lon="5.772">
        <ele>979</ele>
        <time>2020-05-21T13:46:50Z</time>
      </trkpt>
      <trkpt lat="45.00267" lon="5.77185">
        <ele>978</ele>
        <time>2020-05-21T13:46:53Z</time>
      </trkpt>
      <trkpt lat="45.00329" lon="5.77184">
        <ele>978</ele>
        <time>2020-05-21T13:46:56Z</time>
      </trkpt>
      <trkpt lat="45.004" lon="5.77196">
        <ele>978</ele>
        <time>2020-05-21T13:46:59Z</time>
      </trkpt>
      <trkpt lat="45.00468" lon="5.77212">
        <ele>978</ele>
        <time>2020-05-21T13:47:02Z</time>
      </trkpt>
      <trkpt lat="45.00537" lon="5.77235">
        <ele>978</ele>
        <time>2020-05-21T13:47:05Z</time>
      </trkpt>
      <trkpt lat="45.00616" lon="5.77243">
        <ele>977</ele>
        <time>2020-05-21T13:47:08Z</time>
      </trkpt>
      <trkpt lat="45.00683" lon="5.77256">
        <ele>979</ele>
        <time>2020-05-21T13:47:11Z</time>
      </trkpt>
      <trkpt lat="45.00725" lon="5.77269">
        <ele>980</ele>
        <time>2020-05-21T13:47:14Z</time>
      </trkpt>
      <trkpt lat="45.00785" lon="5.77282">
        <ele>979</ele>
        <time>2020-05-21T13:47:17Z</time>
      </trkpt>
      <trkpt lat="45.00848" lon="5.7729">
        <ele>979</ele>
        <time>2020-05-21T13:47:21Z</time>
      </trkpt>
      <trkpt lat="45.00896" lon="5.77293">
        <ele>979</ele>
        <time>2020-05-21T13:47:24Z</time>
      </trkpt>
      <trkpt lat="45.0094" lon="5.77296">
        <ele>980</ele>
        <time>2020-05-21T13:47:27Z</time>
      </trkpt>
      <trkpt lat="45.00986" lon="5.77296">
        <ele>980</ele>
        <time>2020-05-21T13:47:30Z</time>
      </trkpt>
      <trkpt lat="45.0105" lon="5.77296">
        <ele>981</ele>
        <time>2020-05-21T13:47:34Z</time>
      </trkpt>
      <trkpt lat="45.01101" lon="5.77297">
        <ele>982</ele>
        <time>2020-05-21T13:47:37Z</time>
      </trkpt>
      <trkpt lat="45.0115" lon="5.77301">
        <ele>982</ele>
        <time>2020-05-21T13:47:40Z</time>
      </trkpt>
      <trkpt lat="45.01206" lon="5.77312">
        <ele>982</ele>
        <time>2020-05-21T13:47:43Z</time>
      </trkpt>
      <trkpt lat="45.01256" lon="5.77328">
        <ele>982</ele>
        <time>2020-05-21T13:47:46Z</time>
      </trkpt>
      <trkpt lat="45.01319" lon="5.77369">
        <ele>981</ele>
        <time>2020-05-21T13:47:50Z</time>
      </trkpt>
      <trkpt lat="45.01347" lon="5.77393">
        <ele>979</ele>
        <time>2020-05-21T13:47:53Z</time>
      </trkpt>
      <trkpt lat="45.01393" lon="5.7742">
        <ele>977</ele>
        <time>2020-05-21T13:47:56Z</time>
      </trkpt>
      <trkpt lat="45.01445" lon="5.77434">
        <ele>977</ele>
        <time>2020-05-21T13:47:59Z</time>
      </trkpt>
      <trkpt lat="45.01496" lon="5.77444">
        <ele>978</ele>
        <time>2020-05-21T13:48:02Z</time>
      </trkpt>
      <trkpt lat="45.01544" lon="5.7745">
        <ele>979</ele>
        <time>2020-05-21T13:48:05Z</time>
      </trkpt>
      <trkpt lat="45.0159" lon="5.77451">
        <ele>979</ele>
        <time>2020-05-21T13:48:08Z</time>
      </trkpt>
      <trkpt lat="45.01641" lon="5.77453">
        <ele>979</ele>
        <time>2020-05-21T13:48:11Z</time>
      </trkpt>
      <trkpt lat="45.0169" lon="5.77474">
        <ele>979</ele>
        <time>2020-05-21T13:48:14Z</time>
      </trkpt>
      <trkpt lat="45.01734" lon="5.77495">
        <ele>979</ele>
        <time>2020-05-21T13:48:17Z</time>
      </trkpt>
      <trkpt lat="45.01791" lon="5.77504">
        <ele>977</ele>
        <time>2020-05-21T13:48:20Z</time>
      </trkpt>
      <trkpt lat="45.01837" lon="5.77507">
        <ele>975</ele>
        <time>2020-05-21T13:48:24Z</time>
      </trkpt>
      <trkpt lat="45.01884" lon="5.77513">
        <ele>974</ele>
        <time>2020-05-21T13:48:27Z</time>
      </trkpt>
      <trkpt lat="45.01935" lon="5.77514">
        <ele>974</ele>
        <time>2020-05-21T13:48:30Z</time>
      </trkpt>
      <trkpt lat="45.0199" lon="5.7751">
        <ele>973</ele>
        <time>2020-05-21T13:48:33Z</time>
      </trkpt>
      <trkpt lat="45.02044" lon="5.77494">
        <ele>973</ele>
        <time>2020-05-21T13:48:36Z</time>
      </trkpt>
      <trkpt lat="45.02092" lon="5.77475">
        <ele>973</ele>
        <time>2020-05-21T13:48:39Z</time>
      </trkpt>
      <trkpt lat="45.0213" lon="5.77459">
        <ele>973</ele>
        <time>2020-05-21T13:48:42Z</time>
      </trkpt>
      <trkpt lat="45.02174" lon="5.77439">
        <ele>973</ele>
        <time>2020-05-21T13:48:46Z</time>
      </trkpt>
      <trkpt lat="45.02205" lon="5.77426">
        <ele>973</ele>
        <time>2020-05-21T13:48:49Z</time>
      </trkpt>
      <trkpt lat="45.02221" lon="5.77419">
        <ele>973</ele>
        <time>2020-05-21T13:48:52Z</time>
      </trkpt>
      <trkpt lat="45.02245" lon="5.77409">
        <ele>972</ele>
        <time>2020-05-21T13:48:55Z</time>
      </trkpt>
      <trkpt lat="45.02266" lon="5.774">
        <ele>972</ele>
        <time>2020-05-21T13:48:58Z</time>
      </trkpt>
      <trkpt lat="45.02277" lon="5.77395">
        <ele>972</ele>
        <time>2020-05-21T13:49:01Z</time>
      </trkpt>
      <trkpt lat="45.02288" lon="5.7739">
        <ele>972</ele>
        <time>2020-05-21T13:49:06Z</time>
      </trkpt>
      <trkpt lat="45.02303" lon="5.77384">
        <ele>971</ele>
        <time>2020-05-21T13:49:09Z</time>
      </trkpt>
      <trkpt lat="45.02325" lon="5.77375">
        <ele>971</ele>
        <time>2020-05-21T13:49:12Z</time>
      </trkpt>
      <trkpt lat="45.0236" lon="5.7736">
        <ele>970</ele>
        <time>2020-05-21T13:49:16Z</time>
      </trkpt>
      <trkpt lat="45.02382" lon="5.7735">
        <ele>970</ele>
        <time>2020-05-21T13:49:19Z</time>
      </trkpt>
      <trkpt lat="45.02406" lon="5.7734">
        <ele>969</ele>
        <time>2020-05-21T13:49:22Z</time>
      </trkpt>
      <trkpt lat="45.02425" lon="5.77333">
        <ele>969</ele>
        <time>2020-05-21T13:49:25Z</time>
      </trkpt>
      <trkpt lat="45.02461" lon="5.77318">
        <ele>968</ele>
        <time>2020-05-21T13:49:29Z</time>
      </trkpt>
      <trkpt lat="45.02487" lon="5.77309">
        <ele>968</ele>
        <time>2020-05-21T13:49:32Z</time>
      </trkpt>
      <trkpt lat="45.02508" lon="5.77303">
        <ele>967</ele>
        <time>2020-05-21T13:49:35Z</time>
      </trkpt>
      <trkpt lat="45.0253" lon="5.77297">
        <ele>967</ele>
        <time>2020-05-21T13:49:39Z</time>
      </trkpt>
      <trkpt lat="45.02553" lon="5.77292">
        <ele>967</ele>
        <time>2020-05-21T13:49:42Z</time>
      </trkpt>
      <trkpt lat="45.0257" lon="5.77286">
        <ele>966</ele>
        <time>2020-05-21T13:49:45Z</time>
      </trkpt>
      <trkpt lat="45.02602" lon="5.77274">
        <ele>964</ele>
        <time>2020-05-21T13:49:48Z</time>
      </trkpt>
      <trkpt lat="45.0263" lon="5.77263">
        <ele>962</ele>
        <time>2020-05-21T13:49:51Z</time>
      </trkpt>
      <trkpt lat="45.0266" lon="5.77253">
        <ele>960</ele>
        <time>2020-05-21T13:49:55Z</time>
      </trkpt>
      <trkpt lat="45.02673" lon="5.77248">
        <ele>958</ele>
        <time>2020-05-21T13:49:58Z</time>
      </trkpt>
      <trkpt lat="45.02705" lon="5.77231">
        <ele>956</ele>
        <time>2020-05-21T13:50:01Z</time>
      </trkpt>
      <trkpt lat="45.02731" lon="5.77216">
        <ele>955</ele>
        <time>2020-05-21T13:50:05Z</time>
      </trkpt>
      <trkpt lat="45.0276" lon="5.77198">
        <ele>954</ele>
        <time>2020-05-21T13:50:08Z</time>
      </trkpt>
      <trkpt lat="45.02809" lon="5.77171">
        <ele>953</ele>
        <time>2020-05-21T13:50:11Z</time>
      </trkpt>
      <trkpt lat="45.0285" lon="5.77177">
        <ele>952</ele>
        <time>2020-05-21T13:50:14Z</time>
      </trkpt>
      <trkpt lat="45.02893" lon="5.7718">
        <ele>952</ele>
        <time>2020-05-21T13:50:17Z</time>
      </trkpt>
      <trkpt lat="45.02947" lon="5.77155">
        <ele>949</ele>
        <time>2020-05-21T13:50:21Z</time>
      </trkpt>
      <trkpt lat="45.02986" lon="5.77132">
        <ele>946</ele>
        <time>2020-05-21T13:50:24Z</time>
      </trkpt>
      <trkpt lat="45.03016" lon="5.77096">
        <ele>942</ele>
        <time>2020-05-21T13:50:27Z</time>
      </trkpt>
      <trkpt lat="45.03028" lon="5.7707">
        <ele>939</ele>
        <time>2020-05-21T13:50:30Z</time>
      </trkpt>
      <trkpt lat="45.03044" lon="5.77013">
        <ele>936</ele>
        <time>2020-05-21T13:50:33Z</time>
      </trkpt>
      <trkpt lat="45.03073" lon="5.76963">
        <ele>933</ele>
        <time>2020-05-21T13:50:36Z</time>
      </trkpt>
      <trkpt lat="45.03113" lon="5.76929">
        <ele>930</ele>
        <time>2020-05-21T13:50:39Z</time>
      </trkpt>
      <trkpt lat="45.03155" lon="5.76893">
        <ele>926</ele>
        <time>2020-05-21T13:50:42Z</time>
      </trkpt>
      <trkpt lat="45.03196" lon="5.76869">
        <ele>922</ele>
        <time>2020-05-21T13:50:45Z</time>
      </trkpt>
      <trkpt lat="45.03234" lon="5.76873">
        <ele>921</ele>
        <time>2020-05-21T13:50:48Z</time>
      </trkpt>
      <trkpt lat="45.03276" lon="5.76883">
        <ele>920</ele>
        <time>2020-05-21T13:50:51Z</time>
      </trkpt>
      <trkpt lat="45.03332" lon="5.76865">
        <ele>916</ele>
        <time>2020-05-21T13:50:55Z</time>
      </trkpt>
      <trkpt lat="45.03394" lon="5.76842">
        <ele>911</ele>
        <time>2020-05-21T13:50:59Z</time>
      </trkpt>
      <trkpt lat="45.03425" lon="5.76829">
        <ele>907</ele>
        <time>2020-05-21T13:51:02Z</time>
      </trkpt>
      <trkpt lat="45.03468" lon="5.76805">
        <ele>904</ele>
        <time>2020-05-21T13:51:05Z</time>
      </trkpt>
      <trkpt lat="45.03504" lon="5.76776">
        <ele>899</ele>
        <time>2020-05-21T13:51:08Z</time>
      </trkpt>
      <trkpt lat="45.03535" lon="5.76747">
        <ele>896</ele>
        <time>2020-05-21T13:51:11Z</time>
      </trkpt>
      <trkpt lat="45.03573" lon="5.76719">
        <ele>893</ele>
        <time>2020-05-21T13:51:15Z</time>
      </trkpt>
      <trkpt lat="45.03605" lon="5.76709">
        <ele>890</ele>
        <time>2020-05-21T13:51:18Z</time>
      </trkpt>
      <trkpt lat="45.03648" lon="5.76711">
        <ele>885</ele>
        <time>2020-05-21T13:51:21Z</time>
      </trkpt>
      <trkpt lat="45.03694" lon="5.76719">
        <ele>881</ele>
        <time>2020-05-21T13:51:24Z</time>
      </trkpt>
      <trkpt lat="45.0374" lon="5.76708">
        <ele>877</ele>
        <time>2020-05-21T13:51:27Z</time>
      </trkpt>
      <trkpt lat="45.03775" lon="5.76682">
        <ele>873</ele>
        <time>2020-05-21T13:51:30Z</time>
      </trkpt>
      <trkpt lat="45.03802" lon="5.7666">
        <ele>870</ele>
        <time>2020-05-21T13:51:33Z</time>
      </trkpt>
      <trkpt lat="45.03847" lon="5.76624">
        <ele>865</ele>
        <time>2020-05-21T13:51:36Z</time>
      </trkpt>
      <trkpt lat="45.0389" lon="5.76601">
        <ele>858</ele>
        <time>2020-05-21T13:51:39Z</time>
      </trkpt>
      <trkpt lat="45.03953" lon="5.76569">
        <ele>852</ele>
        <time>2020-05-21T13:51:42Z</time>
      </trkpt>
      <trkpt lat="45.04013" lon="5.76516">
        <ele>845</ele>
        <time>2020-05-21T13:51:45Z</time>
      </trkpt>
      <trkpt lat="45.04066" lon="5.76465">
        <ele>838</ele>
        <time>2020-05-21T13:51:48Z</time>
      </trkpt>
      <trkpt lat="45.04127" lon="5.76392">
        <ele>833</ele>
        <time>2020-05-21T13:51:51Z</time>
      </trkpt>
      <trkpt lat="45.04176" lon="5.7633">
        <ele>826</ele>
        <time>2020-05-21T13:51:54Z</time>
      </trkpt>
      <trkpt lat="45.04238" lon="5.76273">
        <ele>818</ele>
        <time>2020-05-21T13:51:57Z</time>
      </trkpt>
      <trkpt lat="45.04295" lon="5.76215">
        <ele>813</ele>
        <time>2020-05-21T13:52:00Z</time>
      </trkpt>
      <trkpt lat="45.04373" lon="5.76127">
        <ele>801</ele>
        <time>2020-05-21T13:52:04Z</time>
      </trkpt>
      <trkpt lat="45.04408" lon="5.76079">
        <ele>792</ele>
        <time>2020-05-21T13:52:07Z</time>
      </trkpt>
      <trkpt lat="45.04464" lon="5.76004">
        <ele>786</ele>
        <time>2020-05-21T13:52:10Z</time>
      </trkpt>
      <trkpt lat="45.0454" lon="5.75933">
        <ele>777</ele>
        <time>2020-05-21T13:52:14Z</time>
      </trkpt>
      <trkpt lat="45.04601" lon="5.75891">
        <ele>771</ele>
        <time>2020-05-21T13:52:17Z</time>
      </trkpt>
      <trkpt lat="45.04657" lon="5.75846">
        <ele>765</ele>
        <time>2020-05-21T13:52:20Z</time>
      </trkpt>
      <trkpt lat="45.04708" lon="5.75809">
        <ele>755</ele>
        <time>2020-05-21T13:52:23Z</time>
      </trkpt>
      <trkpt lat="45.04758" lon="5.75762">
        <ele>744</ele>
        <time>2020-05-21T13:52:27Z</time>
      </trkpt>
      <trkpt lat="45.04817" lon="5.75688">
        <ele>734</ele>
        <time>2020-05-21T13:52:30Z</time>
      </trkpt>
      <trkpt lat="45.0484" lon="5.75648">
        <ele>727</ele>
        <time>2020-05-21T13:52:33Z</time>
      </trkpt>
      <trkpt lat="45.0488" lon="5.75582">
        <ele>722</ele>
        <time>2020-05-21T13:52:36Z</time>
      </trkpt>
      <trkpt lat="45.04908" lon="5.75522">
        <ele>718</ele>
        <time>2020-05-21T13:52:39Z</time>
      </trkpt>
      <trkpt lat="45.04939" lon="5.75478">
        <ele>715</ele>
        <time>2020-05-21T13:52:42Z</time>
      </trkpt>
      <trkpt lat="45.04981" lon="5.75451">
        <ele>712</ele>
        <time>2020-05-21T13:52:45Z</time>
      </trkpt>
      <trkpt lat="45.05013" lon="5.7541">
        <ele>708</ele>
        <time>2020-05-21T13:52:48Z</time>
      </trkpt>
      <trkpt lat="45.05049" lon="5.75351">
        <ele>697</ele>
        <time>2020-05-21T13:52:52Z</time>
      </trkpt>
      <trkpt lat="45.05088" lon="5.75346">
        <ele>692</ele>
        <time>2020-05-21T13:52:55Z</time>
      </trkpt>
      <trkpt lat="45.05133" lon="5.75353">
        <ele>688</ele>
        <time>2020-05-21T13:52:58Z</time>
      </trkpt>
      <trkpt lat="45.05184" lon="5.75356">
        <ele>686</ele>
        <time>2020-05-21T13:53:01Z</time>
      </trkpt>
      <trkpt lat="45.05215" lon="5.75366">
        <ele>683</ele>
        <time>2020-05-21T13:53:04Z</time>
      </trkpt>
      <trkpt lat="45.05276" lon="5.7538">
        <ele>679</ele>
        <time>2020-05-21T13:53:08Z</time>
      </trkpt>
      <trkpt lat="45.05318" lon="5.7536">
        <ele>672</ele>
        <time>2020-05-21T13:53:11Z</time>
      </trkpt>
      <trkpt lat="45.05383" lon="5.75338">
        <ele>664</ele>
        <time>2020-05-21T13:53:15Z</time>
      </trkpt>
      <trkpt lat="45.05434" lon="5.75335">
        <ele>659</ele>
        <time>2020-05-21T13:53:18Z</time>
      </trkpt>
      <trkpt lat="45.0549" lon="5.75294">
        <ele>652</ele>
        <time>2020-05-21T13:53:22Z</time>
      </trkpt>
      <trkpt lat="45.05533" lon="5.75269">
        <ele>645</ele>
        <time>2020-05-21T13:53:25Z</time>
      </trkpt>
      <trkpt lat="45.05577" lon="5.75269">
        <ele>639</ele>
        <time>2020-05-21T13:53:28Z</time>
      </trkpt>
      <trkpt lat="45.05623" lon="5.75285">
        <ele>633</ele>
        <time>2020-05-21T13:53:31Z</time>
      </trkpt>
      <trkpt lat="45.05676" lon="5.75289">
        <ele>628</ele>
        <time>2020-05-21T13:53:34Z</time>
      </trkpt>
      <trkpt lat="45.05708" lon="5.75271">
        <ele>625</ele>
        <time>2020-05-21T13:53:38Z</time>
      </trkpt>
      <trkpt lat="45.0577" lon="5.75246">
        <ele>619</ele>
        <time>2020-05-21T13:53:41Z</time>
      </trkpt>
      <trkpt lat="45.05809" lon="5.75255">
        <ele>611</ele>
        <time>2020-05-21T13:53:44Z</time>
      </trkpt>
      <trkpt lat="45.05858" lon="5.75262">
        <ele>605</ele>
        <time>2020-05-21T13:53:47Z</time>
      </trkpt>
      <trkpt lat="45.05924" lon="5.75254">
        <ele>598</ele>
        <time>2020-05-21T13:53:51Z</time>
      </trkpt>
      <trkpt lat="45.05977" lon="5.75244">
        <ele>595</ele>
        <time>2020-05-21T13:53:54Z</time>
      </trkpt>
      <trkpt lat="45.06027" lon="5.75237">
        <ele>591</ele>
        <time>2020-05-21T13:53:57Z</time>
      </trkpt>
      <trkpt lat="45.0607" lon="5.75232">
        <ele>585</ele>
        <time>2020-05-21T13:54:00Z</time>
      </trkpt>
      <trkpt lat="45.06107" lon="5.75213">
        <ele>580</ele>
        <time>2020-05-21T13:54:03Z</time>
      </trkpt>
      <trkpt lat="45.06152" lon="5.75191">
        <ele>576</ele>
        <time>2020-05-21T13:54:07Z</time>
      </trkpt>
      <trkpt lat="45.06214" lon="5.75192">
        <ele>567</ele>
        <time>2020-05-21T13:54:10Z</time>
      </trkpt>
      <trkpt lat="45.06259" lon="5.75208">
        <ele>563</ele>
        <time>2020-05-21T13:54:13Z</time>
      </trkpt>
      <trkpt lat="45.06298" lon="5.75214">
        <ele>557</ele>
        <time>2020-05-21T13:54:17Z</time>
      </trkpt>
      <trkpt lat="45.06337" lon="5.75211">
        <ele>553</ele>
        <time>2020-05-21T13:54:20Z</time>
      </trkpt>
      <trkpt lat="45.0638" lon="5.75213">
        <ele>548</ele>
        <time>2020-05-21T13:54:23Z</time>
      </trkpt>
      <trkpt lat="45.06423" lon="5.75234">
        <ele>543</ele>
        <time>2020-05-21T13:54:26Z</time>
      </trkpt>
      <trkpt lat="45.06467" lon="5.75262">
        <ele>538</ele>
        <time>2020-05-21T13:54:29Z</time>
      </trkpt>
      <trkpt lat="45.06509" lon="5.75287">
        <ele>534</ele>
        <time>2020-05-21T13:54:32Z</time>
      </trkpt>
      <trkpt lat="45.06564" lon="5.75325">
        <ele>530</ele>
        <time>2020-05-21T13:54:36Z</time>
      </trkpt>
      <trkpt lat="45.06607" lon="5.7536">
        <ele>525</ele>
        <time>2020-05-21T13:54:39Z</time>
      </trkpt>
      <trkpt lat="45.06646" lon="5.75388">
        <ele>520</ele>
        <time>2020-05-21T13:54:42Z</time>
      </trkpt>
      <trkpt lat="45.06698" lon="5.75419">
        <ele>515</ele>
        <time>2020-05-21T13:54:46Z</time>
      </trkpt>
      <trkpt lat="45.06735" lon="5.75444">
        <ele>511</ele>
        <time>2020-05-21T13:54:49Z</time>
      </trkpt>
      <trkpt lat="45.0676" lon="5.75462">
        <ele>504</ele>
        <time>2020-05-21T13:54:52Z</time>
      </trkpt>
      <trkpt lat="45.06802" lon="5.75491">
        <ele>499</ele>
        <time>2020-05-21T13:54:55Z</time>
      </trkpt>
      <trkpt lat="45.06852" lon="5.75523">
        <ele>495</ele>
        <time>2020-05-21T13:54:59Z</time>
      </trkpt>
      <trkpt lat="45.06912" lon="5.75562">
        <ele>489</ele>
        <time>2020-05-21T13:55:02Z</time>
      </trkpt>
      <trkpt lat="45.06959" lon="5.75599">
        <ele>487</ele>
        <time>2020-05-21T13:55:05Z</time>
      </trkpt>
      <trkpt lat="45.07012" lon="5.75658">
        <ele>483</ele>
        <time>2020-05-21T13:55:09Z</time>
      </trkpt>
      <trkpt lat="45.07051" lon="5.757">
        <ele>478</ele>
        <time>2020-05-21T13:55:13Z</time>
      </trkpt>
      <trkpt lat="45.07102" lon="5.75736">
        <ele>470</ele>
        <time>2020-05-21T13:55:16Z</time>
      </trkpt>
      <trkpt lat="45.0716" lon="5.75782">
        <ele>464</ele>
        <time>2020-05-21T13:55:20Z</time>
      </trkpt>
      <trkpt lat="45.07187" lon="5.75803">
        <ele>460</ele>
        <time>2020-05-21T13:55:23Z</time>
      </trkpt>
      <trkpt lat="45.07228" lon="5.75834">
        <ele>457</ele>
        <time>2020-05-21T13:55:26Z</time>
      </trkpt>
      <trkpt lat="45.07275" lon="5.75888">
        <ele>450</ele>
        <time>2020-05-21T13:55:30Z</time>
      </trkpt>
      <trkpt lat="45.07307" lon="5.75936">
        <ele>447</ele>
        <time>2020-05-21T13:55:33Z</time>
      </trkpt>
      <trkpt lat="45.07359" lon="5.76005">
        <ele>441</ele>
        <time>2020-05-21T13:55:37Z</time>
      </trkpt>
      <trkpt lat="45.074" lon="5.76057">
        <ele>435</ele>
        <time>2020-05-21T13:55:40Z</time>
      </trkpt>
      <trkpt lat="45.07439" lon="5.76106">
        <ele>429</ele>
        <time>2020-05-21T13:55:43Z</time>
      </trkpt>
      <trkpt lat="45.0747" lon="5.76143">
        <ele>424</ele>
        <time>2020-05-21T13:55:46Z</time>
      </trkpt>
      <trkpt lat="45.07499" lon="5.76179">
        <ele>418</ele>
        <time>2020-05-21T13:55:49Z</time>
      </trkpt>
      <trkpt lat="45.0752" lon="5.76202">
        <ele>414</ele>
        <time>2020-05-21T13:55:52Z</time>
      </trkpt>
      <trkpt lat="45.07551" lon="5.76236">
        <ele>410</ele>
        <time>2020-05-21T13:55:55Z</time>
      </trkpt>
      <trkpt lat="45.07579" lon="5.76267">
        <ele>406</ele>
        <time>2020-05-21T13:55:59Z</time>
      </trkpt>
      <trkpt lat="45.07607" lon="5.76296">
        <ele>402</ele>
        <time>2020-05-21T13:56:02Z</time>
      </trkpt>
      <trkpt lat="45.07639" lon="5.76329">
        <ele>398</ele>
        <time>2020-05-21T13:56:05Z</time>
      </trkpt>
      <trkpt lat="45.07683" lon="5.76372">
        <ele>392</ele>
        <time>2020-05-21T13:56:08Z</time>
      </trkpt>
      <trkpt lat="45.07705" lon="5.76408">
        <ele>390</ele>
        <time>2020-05-21T13:56:11Z</time>
      </trkpt>
      <trkpt lat="45.07705" lon="5.76457">
        <ele>386</ele>
        <time>2020-05-21T13:56:15Z</time>
      </trkpt>
      <trkpt lat="45.07696" lon="5.76501">
        <ele>384</ele>
        <time>2020-05-21T13:56:18Z</time>
      </trkpt>
      <trkpt lat="45.07684" lon="5.76558">
        <ele>385</ele>
        <time>2020-05-21T13:56:21Z</time>
      </trkpt>
      <trkpt lat="45.07672" lon="5.76617">
        <ele>386</ele>
        <time>2020-05-21T13:56:25Z</time>
      </trkpt>
      <trkpt lat="45.07661" lon="5.76674">
        <ele>387</ele>
        <time>2020-05-21T13:56:28Z</time>
      </trkpt>
      <trkpt lat="45.07652" lon="5.76722">
        <ele>389</ele>
        <time>2020-05-21T13:56:31Z</time>
      </trkpt>
      <trkpt lat="45.07635" lon="5.76745">
        <ele>389</ele>
        <time>2020-05-21T13:56:34Z</time>
      </trkpt>
      <trkpt lat="45.07613" lon="5.7674">
        <ele>386</ele>
        <time>2020-05-21T13:56:37Z</time>
      </trkpt>
      <trkpt lat="45.07613" lon="5.76693">
        <ele>376</ele>
        <time>2020-05-21T13:56:40Z</time>
      </trkpt>
      <trkpt lat="45.07642" lon="5.76687">
        <ele>369</ele>
        <time>2020-05-21T13:56:43Z</time>
      </trkpt>
      <trkpt lat="45.07686" lon="5.76688">
        <ele>363</ele>
        <time>2020-05-21T13:56:46Z</time>
      </trkpt>
      <trkpt lat="45.07736" lon="5.76687">
        <ele>359</ele>
        <time>2020-05-21T13:56:49Z</time>
      </trkpt>
      <trkpt lat="45.07795" lon="5.76686">
        <ele>356</ele>
        <time>2020-05-21T13:56:52Z</time>
      </trkpt>
      <trkpt lat="45.07829" lon="5.76685">
        <ele>354</ele>
        <time>2020-05-21T13:56:55Z</time>
      </trkpt>
      <trkpt lat="45.07904" lon="5.76684">
        <ele>353</ele>
        <time>2020-05-21T13:56:59Z</time>
      </trkpt>
      <trkpt lat="45.0796" lon="5.76675">
        <ele>353</ele>
        <time>2020-05-21T13:57:02Z</time>
      </trkpt>
      <trkpt lat="45.0801" lon="5.7666">
        <ele>352</ele>
        <time>2020-05-21T13:57:05Z</time>
      </trkpt>
      <trkpt lat="45.08069" lon="5.7664">
        <ele>351</ele>
        <time>2020-05-21T13:57:08Z</time>
      </trkpt>
      <trkpt lat="45.08124" lon="5.76623">
        <ele>350</ele>
        <time>2020-05-21T13:57:11Z</time>
      </trkpt>
      <trkpt lat="45.08176" lon="5.76606">
        <ele>349</ele>
        <time>2020-05-21T13:57:14Z</time>
      </trkpt>
      <trkpt lat="45.08216" lon="5.76601">
        <ele>348</ele>
        <time>2020-05-21T13:57:17Z</time>
      </trkpt>
      <trkpt lat="45.08242" lon="5.76604">
        <ele>348</ele>
        <time>2020-05-21T13:57:20Z</time>
      </trkpt>
      <trkpt lat="45.0826" lon="5.76611">
        <ele>347</ele>
        <time>2020-05-21T13:57:23Z</time>
      </trkpt>
      <trkpt lat="45.0827" lon="5.76599">
        <ele>346</ele>
        <time>2020-05-21T13:57:27Z</time>
      </trkpt>
      <trkpt lat="45.08273" lon="5.7656">
        <ele>346</ele>
        <time>2020-05-21T13:57:30Z</time>
      </trkpt>
      <trkpt lat="45.08282" lon="5.76503">
        <ele>345</ele>
        <time>2020-05-21T13:57:33Z</time>
      </trkpt>
      <trkpt lat="45.08296" lon="5.76445">
        <ele>343</ele>
        <time>2020-05-21T13:57:36Z</time>
      </trkpt>
      <trkpt lat="45.08314" lon="5.76372">
        <ele>342</ele>
        <time>2020-05-21T13:57:39Z</time>
      </trkpt>
      <trkpt lat="45.08339" lon="5.76266">
        <ele>341</ele>
        <time>2020-05-21T13:57:42Z</time>
      </trkpt>
      <trkpt lat="45.08358" lon="5.7619">
        <ele>340</ele>
        <time>2020-05-21T13:57:45Z</time>
      </trkpt>
      <trkpt lat="45.08378" lon="5.76107">
        <ele>339</ele>
        <time>2020-05-21T13:57:48Z</time>
      </trkpt>
      <trkpt lat="45.08391" lon="5.76053">
        <ele>340</ele>
        <time>2020-05-21T13:57:51Z</time>
      </trkpt>
      <trkpt lat="45.08411" lon="5.75972">
        <ele>339</ele>
        <time>2020-05-21T13:57:55Z</time>
      </trkpt>
      <trkpt lat="45.0844" lon="5.75872">
        <ele>337</ele>
        <time>2020-05-21T13:57:58Z</time>
      </trkpt>
      <trkpt lat="45.08461" lon="5.75789">
        <ele>336</ele>
        <time>2020-05-21T13:58:01Z</time>
      </trkpt>
      <trkpt lat="45.08488" lon="5.75726">
        <ele>335</ele>
        <time>2020-05-21T13:58:04Z</time>
      </trkpt>
      <trkpt lat="45.08516" lon="5.75665">
        <ele>334</ele>
        <time>2020-05-21T13:58:07Z</time>
      </trkpt>
      <trkpt lat="45.08527" lon="5.75604">
        <ele>334</ele>
        <time>2020-05-21T13:58:10Z</time>
      </trkpt>
      <trkpt lat="45.08524" lon="5.75533">
        <ele>333</ele>
        <time>2020-05-21T13:58:13Z</time>
      </trkpt>
      <trkpt lat="45.08512" lon="5.75464">
        <ele>334</ele>
        <time>2020-05-21T13:58:16Z</time>
      </trkpt>
      <trkpt lat="45.08497" lon="5.75385">
        <ele>335</ele>
        <time>2020-05-21T13:58:19Z</time>
      </trkpt>
      <trkpt lat="45.08485" lon="5.75317">
        <ele>335</ele>
        <time>2020-05-21T13:58:23Z</time>
      </trkpt>
      <trkpt lat="45.08473" lon="5.75252">
        <ele>335</ele>
        <time>2020-05-21T13:58:26Z</time>
      </trkpt>
      <trkpt lat="45.08459" lon="5.75183">
        <ele>334</ele>
        <time>2020-05-21T13:58:29Z</time>
      </trkpt>
      <trkpt lat="45.0844" lon="5.75091">
        <ele>334</ele>
        <time>2020-05-21T13:58:33Z</time>
      </trkpt>
      <trkpt lat="45.08423" lon="5.75025">
        <ele>335</ele>
        <time>2020-05-21T13:58:36Z</time>
      </trkpt>
      <trkpt lat="45.08401" lon="5.74958">
        <ele>335</ele>
        <time>2020-05-21T13:58:39Z</time>
      </trkpt>
      <trkpt lat="45.08382" lon="5.74875">
        <ele>335</ele>
        <time>2020-05-21T13:58:43Z</time>
      </trkpt>
      <trkpt lat="45.08368" lon="5.74793">
        <ele>335</ele>
        <time>2020-05-21T13:58:46Z</time>
      </trkpt>
      <trkpt lat="45.08352" lon="5.74709">
        <ele>335</ele>
        <time>2020-05-21T13:58:49Z</time>
      </trkpt>
      <trkpt lat="45.08333" lon="5.7463">
        <ele>336</ele>
        <time>2020-05-21T13:58:53Z</time>
      </trkpt>
      <trkpt lat="45.08296" lon="5.74546">
        <ele>336</ele>
        <time>2020-05-21T13:58:56Z</time>
      </trkpt>
      <trkpt lat="45.08266" lon="5.74484">
        <ele>336</ele>
        <time>2020-05-21T13:58:59Z</time>
      </trkpt>
      <trkpt lat="45.08239" lon="5.74422">
        <ele>336</ele>
        <time>2020-05-21T13:59:02Z</time>
      </trkpt>
      <trkpt lat="45.08218" lon="5.74343">
        <ele>336</ele>
        <time>2020-05-21T13:59:05Z</time>
      </trkpt>
      <trkpt lat="45.08208" lon="5.74265">
        <ele>336</ele>
        <time>2020-05-21T13:59:08Z</time>
      </trkpt>
      <trkpt lat="45.08215" lon="5.74185">
        <ele>336</ele>
        <time>2020-05-21T13:59:11Z</time>
      </trkpt>
      <trkpt lat="45.08232" lon="5.74118">
        <ele>335</ele>
        <time>2020-05-21T13:59:14Z</time>
      </trkpt>
      <trkpt lat="45.0826" lon="5.74053">
        <ele>334</ele>
        <time>2020-05-21T13:59:17Z</time>
      </trkpt>
      <trkpt lat="45.08283" lon="5.74014">
        <ele>334</ele>
        <time>2020-05-21T13:59:20Z</time>
      </trkpt>
      <trkpt lat="45.08347" lon="5.73946">
        <ele>333</ele>
        <time>2020-05-21T13:59:24Z</time>
      </trkpt>
      <trkpt lat="45.084" lon="5.73905">
        <ele>333</ele>
        <time>2020-05-21T13:59:27Z</time>
      </trkpt>
      <trkpt lat="45.0845" lon="5.73867">
        <ele>333</ele>
        <time>2020-05-21T13:59:30Z</time>
      </trkpt>
      <trkpt lat="45.08494" lon="5.73831">
        <ele>333</ele>
        <time>2020-05-21T13:59:33Z</time>
      </trkpt>
      <trkpt lat="45.08535" lon="5.73784">
        <ele>332</ele>
        <time>2020-05-21T13:59:36Z</time>
      </trkpt>
      <trkpt lat="45.08567" lon="5.73731">
        <ele>332</ele>
        <time>2020-05-21T13:59:39Z</time>
      </trkpt>
      <trkpt lat="45.08607" lon="5.73649">
        <ele>331</ele>
        <time>2020-05-21T13:59:43Z</time>
      </trkpt>
      <trkpt lat="45.08636" lon="5.73586">
        <ele>331</ele>
        <time>2020-05-21T13:59:46Z</time>
      </trkpt>
      <trkpt lat="45.08662" lon="5.73522">
        <ele>332</ele>
        <time>2020-05-21T13:59:49Z</time>
      </trkpt>
      <trkpt lat="45.08687" lon="5.73462">
        <ele>332</ele>
        <time>2020-05-21T13:59:53Z</time>
      </trkpt>
      <trkpt lat="45.08714" lon="5.73394">
        <ele>332</ele>
        <time>2020-05-21T13:59:56Z</time>
      </trkpt>
      <trkpt lat="45.0874" lon="5.73329">
        <ele>332</ele>
        <time>2020-05-21T14:00:00Z</time>
      </trkpt>
      <trkpt lat="45.08773" lon="5.73247">
        <ele>332</ele>
        <time>2020-05-21T14:00:03Z</time>
      </trkpt>
      <trkpt lat="45.08801" lon="5.73187">
        <ele>331</ele>
        <time>2020-05-21T14:00:06Z</time>
      </trkpt>
      <trkpt lat="45.08826" lon="5.73121">
        <ele>331</ele>
        <time>2020-05-21T14:00:09Z</time>
      </trkpt>
      <trkpt lat="45.08853" lon="5.73051">
        <ele>330</ele>
        <time>2020-05-21T14:00:12Z</time>
      </trkpt>
      <trkpt lat="45.08881" lon="5.7298">
        <ele>330</ele>
        <time>2020-05-21T14:00:15Z</time>
      </trkpt>
      <trkpt lat="45.08909" lon="5.72913">
        <ele>329</ele>
        <time>2020-05-21T14:00:18Z</time>
      </trkpt>
      <trkpt lat="45.08939" lon="5.72844">
        <ele>328</ele>
        <time>2020-05-21T14:00:21Z</time>
      </trkpt>
      <trkpt lat="45.08959" lon="5.728">
        <ele>328</ele>
        <time>2020-05-21T14:00:24Z</time>
      </trkpt>
      <trkpt lat="45.08988" lon="5.72731">
        <ele>327</ele>
        <time>2020-05-21T14:00:27Z</time>
      </trkpt>
      <trkpt lat="45.09026" lon="5.7264">
        <ele>327</ele>
        <time>2020-05-21T14:00:31Z</time>
      </trkpt>
      <trkpt lat="45.09059" lon="5.72576">
        <ele>327</ele>
        <time>2020-05-21T14:00:34Z</time>
      </trkpt>
      <trkpt lat="45.0909" lon="5.72512">
        <ele>327</ele>
        <time>2020-05-21T14:00:37Z</time>
      </trkpt>
      <trkpt lat="45.0912" lon="5.72455">
        <ele>327</ele>
        <time>2020-05-21T14:00:40Z</time>
      </trkpt>
      <trkpt lat="45.09154" lon="5.72404">
        <ele>327</ele>
        <time>2020-05-21T14:00:43Z</time>
      </trkpt>
      <trkpt lat="45.09199" lon="5.7236">
        <ele>326</ele>
        <time>2020-05-21T14:00:46Z</time>
      </trkpt>
      <trkpt lat="45.09245" lon="5.72319">
        <ele>325</ele>
        <time>2020-05-21T14:00:49Z</time>
      </trkpt>
      <trkpt lat="45.09272" lon="5.72295">
        <ele>324</ele>
        <time>2020-05-21T14:00:52Z</time>
      </trkpt>
      <trkpt lat="45.09322" lon="5.72251">
        <ele>324</ele>
        <time>2020-05-21T14:00:55Z</time>
      </trkpt>
      <trkpt lat="45.09366" lon="5.72213">
        <ele>324</ele>
        <time>2020-05-21T14:00:58Z</time>
      </trkpt>
      <trkpt lat="45.09425" lon="5.7217">
        <ele>323</ele>
        <time>2020-05-21T14:01:02Z</time>
      </trkpt>
      <trkpt lat="45.09467" lon="5.72137">
        <ele>323</ele>
        <time>2020-05-21T14:01:05Z</time>
      </trkpt>
      <trkpt lat="45.0951" lon="5.72103">
        <ele>322</ele>
        <time>2020-05-21T14:01:08Z</time>
      </trkpt>
      <trkpt lat="45.09553" lon="5.72068">
        <ele>322</ele>
        <time>2020-05-21T14:01:11Z</time>
      </trkpt>
      <trkpt lat="45.09597" lon="5.72032">
        <ele>322</ele>
        <time>2020-05-21T14:01:14Z</time>
      </trkpt>
      <trkpt lat="45.09656" lon="5.71983">
        <ele>322</ele>
        <time>2020-05-21T14:01:18Z</time>
      </trkpt>
      <trkpt lat="45.09699" lon="5.71944">
        <ele>321</ele>
        <time>2020-05-21T14:01:21Z</time>
      </trkpt>
      <trkpt lat="45.09731" lon="5.71919">
        <ele>321</ele>
        <time>2020-05-21T14:01:25Z</time>
      </trkpt>
      <trkpt lat="45.09781" lon="5.71879">
        <ele>321</ele>
        <time>2020-05-21T14:01:28Z</time>
      </trkpt>
      <trkpt lat="45.09837" lon="5.71834">
        <ele>321</ele>
        <time>2020-05-21T14:01:31Z</time>
      </trkpt>
      <trkpt lat="45.09902" lon="5.71782">
        <ele>321</ele>
        <time>2020-05-21T14:01:34Z</time>
      </trkpt>
      <trkpt lat="45.09956" lon="5.71739">
        <ele>321</ele>
        <time>2020-05-21T14:01:38Z</time>
      </trkpt>
      <trkpt lat="45.10007" lon="5.71696">
        <ele>321</ele>
        <time>2020-05-21T14:01:41Z</time>
      </trkpt>
      <trkpt lat="45.10055" lon="5.71647">
        <ele>321</ele>
        <time>2020-05-21T14:01:44Z</time>
      </trkpt>
      <trkpt lat="45.10114" lon="5.71582">
        <ele>320</ele>
        <time>2020-05-21T14:01:47Z</time>
      </trkpt>
      <trkpt lat="45.10147" lon="5.7156">
        <ele>320</ele>
        <time>2020-05-21T14:01:50Z</time>
      </trkpt>
      <trkpt lat="45.10193" lon="5.71527">
        <ele>320</ele>
        <time>2020-05-21T14:01:53Z</time>
      </trkpt>
      <trkpt lat="45.10226" lon="5.7149">
        <ele>319</ele>
        <time>2020-05-21T14:01:56Z</time>
      </trkpt>
      <trkpt lat="45.10248" lon="5.71445">
        <ele>319</ele>
        <time>2020-05-21T14:01:59Z</time>
      </trkpt>
      <trkpt lat="45.10267" lon="5.71411">
        <ele>318</ele>
        <time>2020-05-21T14:02:02Z</time>
      </trkpt>
      <trkpt lat="45.1029" lon="5.71386">
        <ele>318</ele>
        <time>2020-05-21T14:02:05Z</time>
      </trkpt>
      <trkpt lat="45.10293" lon="5.71347">
        <ele>317</ele>
        <time>2020-05-21T14:02:09Z</time>
      </trkpt>
      <trkpt lat="45.10284" lon="5.71283">
        <ele>317</ele>
        <time>2020-05-21T14:02:12Z</time>
      </trkpt>
      <trkpt lat="45.10286" lon="5.71219">
        <ele>316</ele>
        <time>2020-05-21T14:02:15Z</time>
      </trkpt>
      <trkpt lat="45.10299" lon="5.71153">
        <ele>316</ele>
        <time>2020-05-21T14:02:19Z</time>
      </trkpt>
      <trkpt lat="45.1031" lon="5.71082">
        <ele>316</ele>
        <time>2020-05-21T14:02:22Z</time>
      </trkpt>
      <trkpt lat="45.10314" lon="5.71012">
        <ele>316</ele>
        <time>2020-05-21T14:02:25Z</time>
      </trkpt>
      <trkpt lat="45.10317" lon="5.70937">
        <ele>316</ele>
        <time>2020-05-21T14:02:28Z</time>
      </trkpt>
      <trkpt lat="45.1032" lon="5.70896">
        <ele>315</ele>
        <time>2020-05-21T14:02:31Z</time>
      </trkpt>
      <trkpt lat="45.1033" lon="5.70835">
        <ele>315</ele>
        <time>2020-05-21T14:02:34Z</time>
      </trkpt>
      <trkpt lat="45.10345" lon="5.70773">
        <ele>314</ele>
        <time>2020-05-21T14:02:37Z</time>
      </trkpt>
      <trkpt lat="45.10368" lon="5.70708">
        <ele>314</ele>
        <time>2020-05-21T14:02:41Z</time>
      </trkpt>
      <trkpt lat="45.10408" lon="5.70626">
        <ele>313</ele>
        <time>2020-05-21T14:02:44Z</time>
      </trkpt>
      <trkpt lat="45.10444" lon="5.7057">
        <ele>312</ele>
        <time>2020-05-21T14:02:47Z</time>
      </trkpt>
      <trkpt lat="45.1048" lon="5.70518">
        <ele>311</ele>
        <time>2020-05-21T14:02:50Z</time>
      </trkpt>
      <trkpt lat="45.10517" lon="5.70465">
        <ele>311</ele>
        <time>2020-05-21T14:02:53Z</time>
      </trkpt>
      <trkpt lat="45.10567" lon="5.70394">
        <ele>310</ele>
        <time>2020-05-21T14:02:57Z</time>
      </trkpt>
      <trkpt lat="45.10605" lon="5.70339">
        <ele>310</ele>
        <time>2020-05-21T14:03:00Z</time>
      </trkpt>
      <trkpt lat="45.10633" lon="5.703">
        <ele>310</ele>
        <time>2020-05-21T14:03:03Z</time>
      </trkpt>
      <trkpt lat="45.10674" lon="5.7024">
        <ele>310</ele>
        <time>2020-05-21T14:03:06Z</time>
      </trkpt>
      <trkpt lat="45.10715" lon="5.70182">
        <ele>309</ele>
        <time>2020-05-21T14:03:09Z</time>
      </trkpt>
      <trkpt lat="45.10756" lon="5.70123">
        <ele>309</ele>
        <time>2020-05-21T14:03:13Z</time>
      </trkpt>
      <trkpt lat="45.10814" lon="5.70046">
        <ele>308</ele>
        <time>2020-05-21T14:03:16Z</time>
      </trkpt>
      <trkpt lat="45.1086" lon="5.7">
        <ele>308</ele>
        <time>2020-05-21T14:03:19Z</time>
      </trkpt>
      <trkpt lat="45.10928" lon="5.69954">
        <ele>308</ele>
        <time>2020-05-21T14:03:23Z</time>
      </trkpt>
      <trkpt lat="45.1098" lon="5.69932">
        <ele>308</ele>
        <time>2020-05-21T14:03:26Z</time>
      </trkpt>
      <trkpt lat="45.1104" lon="5.69922">
        <ele>307</ele>
        <time>2020-05-21T14:03:29Z</time>
      </trkpt>
      <trkpt lat="45.11098" lon="5.69919">
        <ele>307</ele>
        <time>2020-05-21T14:03:32Z</time>
      </trkpt>
      <trkpt lat="45.11138" lon="5.69917">
        <ele>307</ele>
        <time>2020-05-21T14:03:35Z</time>
      </trkpt>
      <trkpt lat="45.11196" lon="5.69915">
        <ele>306</ele>
        <time>2020-05-21T14:03:38Z</time>
      </trkpt>
      <trkpt lat="45.11254" lon="5.69913">
        <ele>306</ele>
        <time>2020-05-21T14:03:41Z</time>
      </trkpt>
      <trkpt lat="45.11311" lon="5.6991">
        <ele>305</ele>
        <time>2020-05-21T14:03:44Z</time>
      </trkpt>
      <trkpt lat="45.11389" lon="5.69908">
        <ele>305</ele>
        <time>2020-05-21T14:03:48Z</time>
      </trkpt>
      <trkpt lat="45.11467" lon="5.69902">
        <ele>305</ele>
        <time>2020-05-21T14:03:52Z</time>
      </trkpt>
      <trkpt lat="45.11524" lon="5.69894">
        <ele>305</ele>
        <time>2020-05-21T14:03:55Z</time>
      </trkpt>
      <trkpt lat="45.11573" lon="5.69885">
        <ele>305</ele>
        <time>2020-05-21T14:03:59Z</time>
      </trkpt>
      <trkpt lat="45.11622" lon="5.69872">
        <ele>305</ele>
        <time>2020-05-21T14:04:02Z</time>
      </trkpt>
      <trkpt lat="45.11668" lon="5.69857">
        <ele>305</ele>
        <time>2020-05-21T14:04:05Z</time>
      </trkpt>
      <trkpt lat="45.11734" lon="5.69836">
        <ele>304</ele>
        <time>2020-05-21T14:04:08Z</time>
      </trkpt>
      <trkpt lat="45.1177" lon="5.69824">
        <ele>304</ele>
        <time>2020-05-21T14:04:11Z</time>
      </trkpt>
      <trkpt lat="45.11821" lon="5.69807">
        <ele>303</ele>
        <time>2020-05-21T14:04:14Z</time>
      </trkpt>
      <trkpt lat="45.11868" lon="5.69793">
        <ele>303</ele>
        <time>2020-05-21T14:04:17Z</time>
      </trkpt>
      <trkpt lat="45.11932" lon="5.69776">
        <ele>303</ele>
        <time>2020-05-21T14:04:21Z</time>
      </trkpt>
      <trkpt lat="45.11976" lon="5.69762">
        <ele>303</ele>
        <time>2020-05-21T14:04:24Z</time>
      </trkpt>
      <trkpt lat="45.12025" lon="5.69745">
        <ele>302</ele>
        <time>2020-05-21T14:04:27Z</time>
      </trkpt>
      <trkpt lat="45.12073" lon="5.69723">
        <ele>302</ele>
        <time>2020-05-21T14:04:31Z</time>
      </trkpt>
      <trkpt lat="45.12128" lon="5.69684">
        <ele>302</ele>
        <time>2020-05-21T14:04:34Z</time>
      </trkpt>
      <trkpt lat="45.1217" lon="5.69644">
        <ele>302</ele>
        <time>2020-05-21T14:04:38Z</time>
      </trkpt>
      <trkpt lat="45.12228" lon="5.69578">
        <ele>302</ele>
        <time>2020-05-21T14:04:41Z</time>
      </trkpt>
      <trkpt lat="45.12271" lon="5.69526">
        <ele>302</ele>
        <time>2020-05-21T14:04:44Z</time>
      </trkpt>
      <trkpt lat="45.12317" lon="5.69469">
        <ele>302</ele>
        <time>2020-05-21T14:04:47Z</time>
      </trkpt>
      <trkpt lat="45.12362" lon="5.69414">
        <ele>302</ele>
        <time>2020-05-21T14:04:50Z</time>
      </trkpt>
      <trkpt lat="45.12408" lon="5.69358">
        <ele>302</ele>
        <time>2020-05-21T14:04:53Z</time>
      </trkpt>
      <trkpt lat="45.12452" lon="5.69306">
        <ele>301</ele>
        <time>2020-05-21T14:04:56Z</time>
      </trkpt>
      <trkpt lat="45.12494" lon="5.69258">
        <ele>301</ele>
        <time>2020-05-21T14:04:59Z</time>
      </trkpt>
      <trkpt lat="45.12539" lon="5.69209">
        <ele>300</ele>
        <time>2020-05-21T14:05:02Z</time>
      </trkpt>
      <trkpt lat="45.12604" lon="5.69152">
        <ele>300</ele>
        <time>2020-05-21T14:05:06Z</time>
      </trkpt>
      <trkpt lat="45.12639" lon="5.69136">
        <ele>300</ele>
        <time>2020-05-21T14:05:09Z</time>
      </trkpt>
      <trkpt lat="45.12696" lon="5.69127">
        <ele>300</ele>
        <time>2020-05-21T14:05:13Z</time>
      </trkpt>
      <trkpt lat="45.1275" lon="5.69125">
        <ele>300</ele>
        <time>2020-05-21T14:05:16Z</time>
      </trkpt>
      <trkpt lat="45.12803" lon="5.69122">
        <ele>300</ele>
        <time>2020-05-21T14:05:19Z</time>
      </trkpt>
      <trkpt lat="45.12863" lon="5.69113">
        <ele>299</ele>
        <time>2020-05-21T14:05:22Z</time>
      </trkpt>
      <trkpt lat="45.12949" lon="5.69094">
        <ele>298</ele>
        <time>2020-05-21T14:05:25Z</time>
      </trkpt>
      <trkpt lat="45.13009" lon="5.69076">
        <ele>298</ele>
        <time>2020-05-21T14:05:28Z</time>
      </trkpt>
      <trkpt lat="45.13073" lon="5.69057">
        <ele>298</ele>
        <time>2020-05-21T14:05:31Z</time>
      </trkpt>
      <trkpt lat="45.13145" lon="5.69037">
        <ele>297</ele>
        <time>2020-05-21T14:05:34Z</time>
      </trkpt>
      <trkpt lat="45.13223" lon="5.69023">
        <ele>297</ele>
        <time>2020-05-21T14:05:37Z</time>
      </trkpt>
      <trkpt lat="45.13294" lon="5.69018">
        <ele>297</ele>
        <time>2020-05-21T14:05:41Z</time>
      </trkpt>
      <trkpt lat="45.13365" lon="5.69021">
        <ele>297</ele>
        <time>2020-05-21T14:05:45Z</time>
      </trkpt>
      <trkpt lat="45.13434" lon="5.69031">
        <ele>296</ele>
        <time>2020-05-21T14:05:48Z</time>
      </trkpt>
      <trkpt lat="45.13516" lon="5.69046">
        <ele>296</ele>
        <time>2020-05-21T14:05:51Z</time>
      </trkpt>
      <trkpt lat="45.13599" lon="5.69062">
        <ele>296</ele>
        <time>2020-05-21T14:05:54Z</time>
      </trkpt>
      <trkpt lat="45.1371" lon="5.69082">
        <ele>296</ele>
        <time>2020-05-21T14:05:57Z</time>
      </trkpt>
      <trkpt lat="45.13786" lon="5.69103">
        <ele>296</ele>
        <time>2020-05-21T14:06:01Z</time>
      </trkpt>
      <trkpt lat="45.13862" lon="5.6913">
        <ele>296</ele>
        <time>2020-05-21T14:06:04Z</time>
      </trkpt>
      <trkpt lat="45.13937" lon="5.6916">
        <ele>295</ele>
        <time>2020-05-21T14:06:07Z</time>
      </trkpt>
      <trkpt lat="45.14006" lon="5.69193">
        <ele>295</ele>
        <time>2020-05-21T14:06:10Z</time>
      </trkpt>
      <trkpt lat="45.14054" lon="5.69216">
        <ele>295</ele>
        <time>2020-05-21T14:06:13Z</time>
      </trkpt>
      <trkpt lat="45.14119" lon="5.69247">
        <ele>295</ele>
        <time>2020-05-21T14:06:16Z</time>
      </trkpt>
      <trkpt lat="45.14206" lon="5.69287">
        <ele>295</ele>
        <time>2020-05-21T14:06:19Z</time>
      </trkpt>
      <trkpt lat="45.14274" lon="5.69318">
        <ele>295</ele>
        <time>2020-05-21T14:06:22Z</time>
      </trkpt>
      <trkpt lat="45.14334" lon="5.69346">
        <ele>295</ele>
        <time>2020-05-21T14:06:26Z</time>
      </trkpt>
      <trkpt lat="45.14414" lon="5.69386">
        <ele>295</ele>
        <time>2020-05-21T14:06:29Z</time>
      </trkpt>
      <trkpt lat="45.14478" lon="5.69418">
        <ele>294</ele>
        <time>2020-05-21T14:06:32Z</time>
      </trkpt>
      <trkpt lat="45.14541" lon="5.69448">
        <ele>294</ele>
        <time>2020-05-21T14:06:36Z</time>
      </trkpt>
      <trkpt lat="45.14588" lon="5.69471">
        <ele>294</ele>
        <time>2020-05-21T14:06:39Z</time>
      </trkpt>
      <trkpt lat="45.14679" lon="5.69514">
        <ele>293</ele>
        <time>2020-05-21T14:06:42Z</time>
      </trkpt>
      <trkpt lat="45.14719" lon="5.69532">
        <ele>293</ele>
        <time>2020-05-21T14:06:45Z</time>
      </trkpt>
      <trkpt lat="45.14777" lon="5.6956">
        <ele>293</ele>
        <time>2020-05-21T14:06:48Z</time>
      </trkpt>
      <trkpt lat="45.14838" lon="5.69589">
        <ele>292</ele>
        <time>2020-05-21T14:06:51Z</time>
      </trkpt>
      <trkpt lat="45.14898" lon="5.69618">
        <ele>292</ele>
        <time>2020-05-21T14:06:54Z</time>
      </trkpt>
      <trkpt lat="45.14974" lon="5.69654">
        <ele>291</ele>
        <time>2020-05-21T14:06:58Z</time>
      </trkpt>
      <trkpt lat="45.1503" lon="5.69681">
        <ele>291</ele>
        <time>2020-05-21T14:07:01Z</time>
      </trkpt>
      <trkpt lat="45.15089" lon="5.6971">
        <ele>291</ele>
        <time>2020-05-21T14:07:04Z</time>
      </trkpt>
      <trkpt lat="45.15148" lon="5.69739">
        <ele>291</ele>
        <time>2020-05-21T14:07:07Z</time>
      </trkpt>
      <trkpt lat="45.15206" lon="5.69766">
        <ele>290</ele>
        <time>2020-05-21T14:07:10Z</time>
      </trkpt>
      <trkpt lat="45.15261" lon="5.69791">
        <ele>290</ele>
        <time>2020-05-21T14:07:14Z</time>
      </trkpt>
      <trkpt lat="45.15316" lon="5.69816">
        <ele>289</ele>
        <time>2020-05-21T14:07:18Z</time>
      </trkpt>
      <trkpt lat="45.15383" lon="5.69847">
        <ele>289</ele>
        <time>2020-05-21T14:07:21Z</time>
      </trkpt>
      <trkpt lat="45.15443" lon="5.69876">
        <ele>289</ele>
        <time>2020-05-21T14:07:24Z</time>
      </trkpt>
      <trkpt lat="45.15497" lon="5.69902">
        <ele>289</ele>
        <time>2020-05-21T14:07:27Z</time>
      </trkpt>
      <trkpt lat="45.15569" lon="5.69937">
        <ele>288</ele>
        <time>2020-05-21T14:07:30Z</time>
      </trkpt>
      <trkpt lat="45.15621" lon="5.69965">
        <ele>288</ele>
        <time>2020-05-21T14:07:34Z</time>
      </trkpt>
      <trkpt lat="45.15669" lon="5.69997">
        <ele>287</ele>
        <time>2020-05-21T14:07:37Z</time>
      </trkpt>
      <trkpt lat="45.15704" lon="5.70029">
        <ele>287</ele>
        <time>2020-05-21T14:07:40Z</time>
      </trkpt>
      <trkpt lat="45.15738" lon="5.7006">
        <ele>287</ele>
        <time>2020-05-21T14:07:43Z</time>
      </trkpt>
      <trkpt lat="45.15762" lon="5.70101">
        <ele>286</ele>
        <time>2020-05-21T14:07:46Z</time>
      </trkpt>
      <trkpt lat="45.15775" lon="5.70136">
        <ele>286</ele>
        <time>2020-05-21T14:07:49Z</time>
      </trkpt>
      <trkpt lat="45.15799" lon="5.70207">
        <ele>287</ele>
        <time>2020-05-21T14:07:52Z</time>
      </trkpt>
      <trkpt lat="45.15825" lon="5.70256">
        <ele>286</ele>
        <time>2020-05-21T14:07:56Z</time>
      </trkpt>
      <trkpt lat="45.15845" lon="5.70312">
        <ele>286</ele>
        <time>2020-05-21T14:07:59Z</time>
      </trkpt>
      <trkpt lat="45.15861" lon="5.70385">
        <ele>286</ele>
        <time>2020-05-21T14:08:02Z</time>
      </trkpt>
      <trkpt lat="45.15868" lon="5.70487">
        <ele>285</ele>
        <time>2020-05-21T14:08:05Z</time>
      </trkpt>
      <trkpt lat="45.15868" lon="5.70578">
        <ele>285</ele>
        <time>2020-05-21T14:08:08Z</time>
      </trkpt>
      <trkpt lat="45.15867" lon="5.70675">
        <ele>285</ele>
        <time>2020-05-21T14:08:11Z</time>
      </trkpt>
      <trkpt lat="45.15865" lon="5.70813">
        <ele>284</ele>
        <time>2020-05-21T14:08:15Z</time>
      </trkpt>
      <trkpt lat="45.1586" lon="5.70881">
        <ele>283</ele>
        <time>2020-05-21T14:08:18Z</time>
      </trkpt>
      <trkpt lat="45.15837" lon="5.7098">
        <ele>282</ele>
        <time>2020-05-21T14:08:21Z</time>
      </trkpt>
      <trkpt lat="45.15805" lon="5.71075">
        <ele>282</ele>
        <time>2020-05-21T14:08:24Z</time>
      </trkpt>
      <trkpt lat="45.15749" lon="5.71186">
        <ele>283</ele>
        <time>2020-05-21T14:08:28Z</time>
      </trkpt>
      <trkpt lat="45.15692" lon="5.71256">
        <ele>283</ele>
        <time>2020-05-21T14:08:31Z</time>
      </trkpt>
      <trkpt lat="45.15632" lon="5.71311">
        <ele>283</ele>
        <time>2020-05-21T14:08:34Z</time>
      </trkpt>
      <trkpt lat="45.15561" lon="5.7137">
        <ele>283</ele>
        <time>2020-05-21T14:08:37Z</time>
      </trkpt>
      <trkpt lat="45.15497" lon="5.71432">
        <ele>282</ele>
        <time>2020-05-21T14:08:40Z</time>
      </trkpt>
      <trkpt lat="45.15435" lon="5.71501">
        <ele>282</ele>
        <time>2020-05-21T14:08:43Z</time>
      </trkpt>
      <trkpt lat="45.15371" lon="5.71573">
        <ele>281</ele>
        <time>2020-05-21T14:08:46Z</time>
      </trkpt>
      <trkpt lat="45.15328" lon="5.71622">
        <ele>281</ele>
        <time>2020-05-21T14:08:49Z</time>
      </trkpt>
      <trkpt lat="45.15271" lon="5.71704">
        <ele>280</ele>
        <time>2020-05-21T14:08:52Z</time>
      </trkpt>
      <trkpt lat="45.1523" lon="5.71797">
        <ele>280</ele>
        <time>2020-05-21T14:08:55Z</time>
      </trkpt>
      <trkpt lat="45.15195" lon="5.71938">
        <ele>279</ele>
        <time>2020-05-21T14:08:59Z</time>
      </trkpt>
      <trkpt lat="45.15176" lon="5.72046">
        <ele>279</ele>
        <time>2020-05-21T14:09:02Z</time>
      </trkpt>
      <trkpt lat="45.15156" lon="5.72148">
        <ele>278</ele>
        <time>2020-05-21T14:09:05Z</time>
      </trkpt>
      <trkpt lat="45.15136" lon="5.7225">
        <ele>277</ele>
        <time>2020-05-21T14:09:08Z</time>
      </trkpt>
      <trkpt lat="45.15113" lon="5.72377">
        <ele>277</ele>
        <time>2020-05-21T14:09:12Z</time>
      </trkpt>
      <trkpt lat="45.15096" lon="5.72479">
        <ele>276</ele>
        <time>2020-05-21T14:09:15Z</time>
      </trkpt>
      <trkpt lat="45.15086" lon="5.72546">
        <ele>276</ele>
        <time>2020-05-21T14:09:18Z</time>
      </trkpt>
      <trkpt lat="45.15076" lon="5.72649">
        <ele>275</ele>
        <time>2020-05-21T14:09:21Z</time>
      </trkpt>
      <trkpt lat="45.15068" lon="5.72751">
        <ele>275</ele>
        <time>2020-05-21T14:09:24Z</time>
      </trkpt>
      <trkpt lat="45.15062" lon="5.72871">
        <ele>274</ele>
        <time>2020-05-21T14:09:27Z</time>
      </trkpt>
      <trkpt lat="45.15061" lon="5.72987">
        <ele>274</ele>
        <time>2020-05-21T14:09:30Z</time>
      </trkpt>
      <trkpt lat="45.15066" lon="5.73136">
        <ele>274</ele>
        <time>2020-05-21T14:09:34Z</time>
      </trkpt>
      <trkpt lat="45.15073" lon="5.73253">
        <ele>273</ele>
        <time>2020-05-21T14:09:37Z</time>
      </trkpt>
      <trkpt lat="45.15085" lon="5.73365">
        <ele>273</ele>
        <time>2020-05-21T14:09:40Z</time>
      </trkpt>
      <trkpt lat="45.15107" lon="5.73526">
        <ele>273</ele>
        <time>2020-05-21T14:09:44Z</time>
      </trkpt>
      <trkpt lat="45.15131" lon="5.73638">
        <ele>273</ele>
        <time>2020-05-21T14:09:47Z</time>
      </trkpt>
      <trkpt lat="45.15155" lon="5.73743">
        <ele>273</ele>
        <time>2020-05-21T14:09:50Z</time>
      </trkpt>
      <trkpt lat="45.15174" lon="5.73814">
        <ele>273</ele>
        <time>2020-05-21T14:09:53Z</time>
      </trkpt>
      <trkpt lat="45.15207" lon="5.7392">
        <ele>272</ele>
        <time>2020-05-21T14:09:56Z</time>
      </trkpt>
      <trkpt lat="45.15256" lon="5.7406">
        <ele>272</ele>
        <time>2020-05-21T14:10:00Z</time>
      </trkpt>
      <trkpt lat="45.15296" lon="5.7416">
        <ele>272</ele>
        <time>2020-05-21T14:10:03Z</time>
      </trkpt>
      <trkpt lat="45.15338" lon="5.74256">
        <ele>272</ele>
        <time>2020-05-21T14:10:06Z</time>
      </trkpt>
      <trkpt lat="45.15399" lon="5.74378">
        <ele>272</ele>
        <time>2020-05-21T14:10:10Z</time>
      </trkpt>
      <trkpt lat="45.15453" lon="5.74471">
        <ele>271</ele>
        <time>2020-05-21T14:10:13Z</time>
      </trkpt>
      <trkpt lat="45.15502" lon="5.74551">
        <ele>271</ele>
        <time>2020-05-21T14:10:17Z</time>
      </trkpt>
      <trkpt lat="45.15574" lon="5.74664">
        <ele>271</ele>
        <time>2020-05-21T14:10:20Z</time>
      </trkpt>
      <trkpt lat="45.15628" lon="5.74737">
        <ele>271</ele>
        <time>2020-05-21T14:10:23Z</time>
      </trkpt>
      <trkpt lat="45.15693" lon="5.74809">
        <ele>271</ele>
        <time>2020-05-21T14:10:27Z</time>
      </trkpt>
      <trkpt lat="45.15755" lon="5.74874">
        <ele>271</ele>
        <time>2020-05-21T14:10:30Z</time>
      </trkpt>
      <trkpt lat="45.15818" lon="5.74942">
        <ele>270</ele>
        <time>2020-05-21T14:10:33Z</time>
      </trkpt>
      <trkpt lat="45.15875" lon="5.75002">
        <ele>270</ele>
        <time>2020-05-21T14:10:36Z</time>
      </trkpt>
      <trkpt lat="45.15926" lon="5.75056">
        <ele>270</ele>
        <time>2020-05-21T14:10:39Z</time>
      </trkpt>
      <trkpt lat="45.16005" lon="5.75141">
        <ele>270</ele>
        <time>2020-05-21T14:10:43Z</time>
      </trkpt>
      <trkpt lat="45.1608" lon="5.75224">
        <ele>270</ele>
        <time>2020-05-21T14:10:47Z</time>
      </trkpt>
      <trkpt lat="45.16136" lon="5.75286">
        <ele>270</ele>
        <time>2020-05-21T14:10:50Z</time>
      </trkpt>
      <trkpt lat="45.16191" lon="5.75347">
        <ele>270</ele>
        <time>2020-05-21T14:10:54Z</time>
      </trkpt>
      <trkpt lat="45.16245" lon="5.75406">
        <ele>270</ele>
        <time>2020-05-21T14:10:57Z</time>
      </trkpt>
      <trkpt lat="45.163" lon="5.75461">
        <ele>269</ele>
        <time>2020-05-21T14:11:00Z</time>
      </trkpt>
      <trkpt lat="45.16354" lon="5.75518">
        <ele>269</ele>
        <time>2020-05-21T14:11:03Z</time>
      </trkpt>
      <trkpt lat="45.16419" lon="5.756">
        <ele>269</ele>
        <time>2020-05-21T14:11:07Z</time>
      </trkpt>
      <trkpt lat="45.16469" lon="5.7566">
        <ele>269</ele>
        <time>2020-05-21T14:11:10Z</time>
      </trkpt>
      <trkpt lat="45.16514" lon="5.75715">
        <ele>269</ele>
        <time>2020-05-21T14:11:13Z</time>
      </trkpt>
      <trkpt lat="45.1655" lon="5.75756">
        <ele>269</ele>
        <time>2020-05-21T14:11:16Z</time>
      </trkpt>
      <trkpt lat="45.16572" lon="5.75782">
        <ele>270</ele>
        <time>2020-05-21T14:11:19Z</time>
      </trkpt>
      <trkpt lat="45.1658" lon="5.75792">
        <ele>270</ele>
        <time>2020-05-21T14:11:24Z</time>
      </trkpt>
      <trkpt lat="45.1659" lon="5.75804">
        <ele>270</ele>
        <time>2020-05-21T14:11:27Z</time>
      </trkpt>
      <trkpt lat="45.166" lon="5.75816">
        <ele>269</ele>
        <time>2020-05-21T14:11:40Z</time>
      </trkpt>
      <trkpt lat="45.16625" lon="5.75788">
        <ele>269</ele>
        <time>2020-05-21T14:11:43Z</time>
      </trkpt>
      <trkpt lat="45.1665" lon="5.75759">
        <ele>269</ele>
        <time>2020-05-21T14:11:46Z</time>
      </trkpt>
      <trkpt lat="45.16682" lon="5.75725">
        <ele>268</ele>
        <time>2020-05-21T14:11:49Z</time>
      </trkpt>
      <trkpt lat="45.16726" lon="5.75679">
        <ele>268</ele>
        <time>2020-05-21T14:11:53Z</time>
      </trkpt>
      <trkpt lat="45.16749" lon="5.75656">
        <ele>267</ele>
        <time>2020-05-21T14:11:56Z</time>
      </trkpt>
      <trkpt lat="45.16779" lon="5.75625">
        <ele>266</ele>
        <time>2020-05-21T14:11:59Z</time>
      </trkpt>
      <trkpt lat="45.16804" lon="5.75597">
        <ele>266</ele>
        <time>2020-05-21T14:12:02Z</time>
      </trkpt>
      <trkpt lat="45.16821" lon="5.75578">
        <ele>266</ele>
        <time>2020-05-21T14:12:05Z</time>
      </trkpt>
      <trkpt lat="45.16833" lon="5.75564">
        <ele>266</ele>
        <time>2020-05-21T14:12:08Z</time>
      </trkpt>
      <trkpt lat="45.16857" lon="5.75554">
        <ele>266</ele>
        <time>2020-05-21T14:12:11Z</time>
      </trkpt>
      <trkpt lat="45.16892" lon="5.7558">
        <ele>266</ele>
        <time>2020-05-21T14:12:14Z</time>
      </trkpt>
      <trkpt lat="45.16918" lon="5.75597">
        <ele>267</ele>
        <time>2020-05-21T14:12:17Z</time>
      </trkpt>
      <trkpt lat="45.16944" lon="5.75611">
        <ele>267</ele>
        <time>2020-05-21T14:12:20Z</time>
      </trkpt>
      <trkpt lat="45.16955" lon="5.75615">
        <ele>266</ele>
        <time>2020-05-21T14:12:23Z</time>
      </trkpt>
      <trkpt lat="45.1697" lon="5.75621">
        <ele>267</ele>
        <time>2020-05-21T14:12:26Z</time>
      </trkpt>
      <trkpt lat="45.16988" lon="5.75628">
        <ele>267</ele>
        <time>2020-05-21T14:12:29Z</time>
      </trkpt>
      <trkpt lat="45.17019" lon="5.7564">
        <ele>267</ele>
        <time>2020-05-21T14:12:32Z</time>
      </trkpt>
      <trkpt lat="45.17043" lon="5.7565">
        <ele>268</ele>
        <time>2020-05-21T14:12:35Z</time>
      </trkpt>
      <trkpt lat="45.17062" lon="5.75659">
        <ele>268</ele>
        <time>2020-05-21T14:12:38Z</time>
      </trkpt>
      <trkpt lat="45.1709" lon="5.75676">
        <ele>267</ele>
        <time>2020-05-21T14:12:42Z</time>
      </trkpt>
      <trkpt lat="45.17117" lon="5.75693">
        <ele>266</ele>
        <time>2020-05-21T14:12:45Z</time>
      </trkpt>
      <trkpt lat="45.17135" lon="5.75705">
        <ele>265</ele>
        <time>2020-05-21T14:12:48Z</time>
      </trkpt>
      <trkpt lat="45.17157" lon="5.7572">
        <ele>265</ele>
        <time>2020-05-21T14:13:10Z</time>
      </trkpt>
      <trkpt lat="45.17167" lon="5.75726">
        <ele>265</ele>
        <time>2020-05-21T14:13:13Z</time>
      </trkpt>
      <trkpt lat="45.1718" lon="5.75734">
        <ele>264</ele>
        <time>2020-05-21T14:13:16Z</time>
      </trkpt>
      <trkpt lat="45.17197" lon="5.75746">
        <ele>264</ele>
        <time>2020-05-21T14:13:19Z</time>
      </trkpt>
      <trkpt lat="45.17218" lon="5.75766">
        <ele>263</ele>
        <time>2020-05-21T14:13:22Z</time>
      </trkpt>
      <trkpt lat="45.1724" lon="5.75794">
        <ele>262</ele>
        <time>2020-05-21T14:13:26Z</time>
      </trkpt>
      <trkpt lat="45.17252" lon="5.75808">
        <ele>262</ele>
        <time>2020-05-21T14:13:29Z</time>
      </trkpt>
      <trkpt lat="45.17263" lon="5.75823">
        <ele>261</ele>
        <time>2020-05-21T14:13:32Z</time>
      </trkpt>
      <trkpt lat="45.17272" lon="5.75839">
        <ele>261</ele>
        <time>2020-05-21T14:13:35Z</time>
      </trkpt>
      <trkpt lat="45.17286" lon="5.75868">
        <ele>261</ele>
        <time>2020-05-21T14:13:38Z</time>
      </trkpt>
      <trkpt lat="45.17306" lon="5.75916">
        <ele>261</ele>
        <time>2020-05-21T14:13:41Z</time>
      </trkpt>
      <trkpt lat="45.17331" lon="5.75964">
        <ele>261</ele>
        <time>2020-05-21T14:13:45Z</time>
      </trkpt>
      <trkpt lat="45.17351" lon="5.76004">
        <ele>261</ele>
        <time>2020-05-21T14:13:48Z</time>
      </trkpt>
      <trkpt lat="45.17369" lon="5.76037">
        <ele>261</ele>
        <time>2020-05-21T14:13:51Z</time>
      </trkpt>
      <trkpt lat="45.17382" lon="5.76064">
        <ele>261</ele>
        <time>2020-05-21T14:13:54Z</time>
      </trkpt>
      <trkpt lat="45.17391" lon="5.76083">
        <ele>261</ele>
        <time>2020-05-21T14:13:57Z</time>
      </trkpt>
      <trkpt lat="45.17409" lon="5.76109">
        <ele>261</ele>
        <time>2020-05-21T14:14:00Z</time>
      </trkpt>
      <trkpt lat="45.17421" lon="5.76127">
        <ele>261</ele>
        <time>2020-05-21T14:14:03Z</time>
      </trkpt>
      <trkpt lat="45.17431" lon="5.76144">
        <ele>261</ele>
        <time>2020-05-21T14:14:06Z</time>
      </trkpt>
      <trkpt lat="45.17437" lon="5.76156">
        <ele>261</ele>
        <time>2020-05-21T14:14:09Z</time>
      </trkpt>
      <trkpt lat="45.17449" lon="5.7615">
        <ele>261</ele>
        <time>2020-05-21T14:14:21Z</time>
      </trkpt>
      <trkpt lat="45.17466" lon="5.76103">
        <ele>261</ele>
        <time>2020-05-21T14:14:24Z</time>
      </trkpt>
      <trkpt lat="45.17482" lon="5.76048">
        <ele>260</ele>
        <time>2020-05-21T14:14:27Z</time>
      </trkpt>
      <trkpt lat="45.1749" lon="5.7602">
        <ele>260</ele>
        <time>2020-05-21T14:14:31Z</time>
      </trkpt>
      <trkpt lat="45.17501" lon="5.76009">
        <ele>261</ele>
        <time>2020-05-21T14:14:34Z</time>
      </trkpt>
      <trkpt lat="45.1755" lon="5.76034">
        <ele>261</ele>
        <time>2020-05-21T14:14:38Z</time>
      </trkpt>
      <trkpt lat="45.1759" lon="5.76056">
        <ele>261</ele>
        <time>2020-05-21T14:14:41Z</time>
      </trkpt>
      <trkpt lat="45.17632" lon="5.76077">
        <ele>261</ele>
        <time>2020-05-21T14:14:44Z</time>
      </trkpt>
      <trkpt lat="45.17663" lon="5.76092">
        <ele>262</ele>
        <time>2020-05-21T14:14:47Z</time>
      </trkpt>
      <trkpt lat="45.17681" lon="5.76101">
        <ele>262</ele>
        <time>2020-05-21T14:14:50Z</time>
      </trkpt>
      <trkpt lat="45.17701" lon="5.76116">
        <ele>263</ele>
        <time>2020-05-21T14:14:53Z</time>
      </trkpt>
      <trkpt lat="45.17713" lon="5.76126">
        <ele>263</ele>
        <time>2020-05-21T14:14:56Z</time>
      </trkpt>
      <trkpt lat="45.17722" lon="5.76142">
        <ele>263</ele>
        <time>2020-05-21T14:15:00Z</time>
      </trkpt>
      <trkpt lat="45.17704" lon="5.76152">
        <ele>264</ele>
        <time>2020-05-21T14:16:05Z</time>
      </trkpt>
      <trkpt lat="45.17696" lon="5.76143">
        <ele>264</ele>
        <time>2020-05-21T14:16:11Z</time>
      </trkpt>
    </trkseg>
  </trk>
</gpx>